<?xml version="1.0" encoding="UTF-8" standalone="no" ?>
<gpx xmlns="http://www.topografix.com/GPX/1/1" xmlns:xsi="http://www.w3.org/2001/XMLSchema-instance" xsi:schemaLocation="http://www.topografix.com/GPX/1/1 http://www.topografix.com/GPX/1/1/gpx.xsd" version="1.1" creator="VisuGPX - https://www.visugpx.com">
  <metadata>
    <name>Portion de TDD</name>
    <desc><![CDATA[Portion de TDDPortion de TDDPortion de TDDPortion de TDDPortion de TDD]]></desc>
  </metadata>
  <wpt lat="47.50012" lon="6.76786">
    <ele>445.8</ele>
    <name><![CDATA[Point de cheminement 1]]></name>
    <desc><![CDATA[]]></desc>
  </wpt>
  <wpt lat="47.51741" lon="6.73902">
    <ele>426.3</ele>
    <name><![CDATA[Point de cheminement 2]]></name>
    <desc><![CDATA[]]></desc>
  </wpt>
  <wpt lat="47.50712" lon="6.72217">
    <ele>403.9</ele>
    <name><![CDATA[Point de cheminement 3]]></name>
    <desc><![CDATA[]]></desc>
  </wpt>
  <wpt lat="47.49239" lon="6.77344">
    <ele>358.5</ele>
    <name><![CDATA[Point de cheminement 4]]></name>
    <desc><![CDATA[]]></desc>
  </wpt>
  <trk>
    <name><![CDATA[18 Rue Antoine Coysevox]]></name>
    <desc><![CDATA[]]></desc>
    <trkseg>
      <trkpt lat="47.50125" lon="6.76172">
        <ele>427.5</ele>
        <time>2017-02-26T08:46:18.851Z</time>
      </trkpt>
      <trkpt lat="47.50125" lon="6.76172">
        <ele>429</ele>
        <time>2017-02-26T08:46:27.999Z</time>
      </trkpt>
      <trkpt lat="47.50131" lon="6.76183">
        <ele>426.5</ele>
        <time>2017-02-26T08:46:28.999Z</time>
      </trkpt>
      <trkpt lat="47.50131" lon="6.76183">
        <ele>431.4</ele>
        <time>2017-02-26T08:46:31.999Z</time>
      </trkpt>
      <trkpt lat="47.50129" lon="6.76191">
        <ele>429.3</ele>
        <time>2017-02-26T08:46:32.999Z</time>
      </trkpt>
      <trkpt lat="47.50129" lon="6.76191">
        <ele>430.6</ele>
        <time>2017-02-26T08:46:45.999Z</time>
      </trkpt>
      <trkpt lat="47.50123" lon="6.76201">
        <ele>432.6</ele>
        <time>2017-02-26T08:46:46.999Z</time>
      </trkpt>
      <trkpt lat="47.50123" lon="6.76201">
        <ele>439.2</ele>
        <time>2017-02-26T08:47:04.999Z</time>
      </trkpt>
      <trkpt lat="47.50125" lon="6.76208">
        <ele>439.4</ele>
        <time>2017-02-26T08:47:05.999Z</time>
      </trkpt>
      <trkpt lat="47.50127" lon="6.76213">
        <ele>439.9</ele>
        <time>2017-02-26T08:47:07.999Z</time>
      </trkpt>
      <trkpt lat="47.50128" lon="6.76215">
        <ele>440.1</ele>
        <time>2017-02-26T08:47:08.999Z</time>
      </trkpt>
      <trkpt lat="47.50128" lon="6.76215">
        <ele>440.6</ele>
        <time>2017-02-26T08:47:10.999Z</time>
      </trkpt>
      <trkpt lat="47.50131" lon="6.76222">
        <ele>440.9</ele>
        <time>2017-02-26T08:47:11.999Z</time>
      </trkpt>
      <trkpt lat="47.50132" lon="6.76226">
        <ele>441.4</ele>
        <time>2017-02-26T08:47:13.999Z</time>
      </trkpt>
      <trkpt lat="47.50133" lon="6.76228">
        <ele>441.6</ele>
        <time>2017-02-26T08:47:14.999Z</time>
      </trkpt>
      <trkpt lat="47.50134" lon="6.76231">
        <ele>441.8</ele>
        <time>2017-02-26T08:47:15.999Z</time>
      </trkpt>
      <trkpt lat="47.50135" lon="6.76235">
        <ele>442</ele>
        <time>2017-02-26T08:47:16.999Z</time>
      </trkpt>
      <trkpt lat="47.50136" lon="6.76241">
        <ele>442.1</ele>
        <time>2017-02-26T08:47:18.999Z</time>
      </trkpt>
      <trkpt lat="47.50137" lon="6.76245">
        <ele>442.1</ele>
        <time>2017-02-26T08:47:19.999Z</time>
      </trkpt>
      <trkpt lat="47.50137" lon="6.76249">
        <ele>442.1</ele>
        <time>2017-02-26T08:47:20.999Z</time>
      </trkpt>
      <trkpt lat="47.50138" lon="6.76253">
        <ele>442</ele>
        <time>2017-02-26T08:47:21.999Z</time>
      </trkpt>
      <trkpt lat="47.50139" lon="6.76258">
        <ele>441.9</ele>
        <time>2017-02-26T08:47:22.999Z</time>
      </trkpt>
      <trkpt lat="47.50139" lon="6.76263">
        <ele>441.9</ele>
        <time>2017-02-26T08:47:23.999Z</time>
      </trkpt>
      <trkpt lat="47.50142" lon="6.7627">
        <ele>441.8</ele>
        <time>2017-02-26T08:47:24.999Z</time>
      </trkpt>
      <trkpt lat="47.50144" lon="6.76274">
        <ele>441.7</ele>
        <time>2017-02-26T08:47:25.999Z</time>
      </trkpt>
      <trkpt lat="47.50145" lon="6.76277">
        <ele>441.7</ele>
        <time>2017-02-26T08:47:26.999Z</time>
      </trkpt>
      <trkpt lat="47.50146" lon="6.76281">
        <ele>441.6</ele>
        <time>2017-02-26T08:47:28.999Z</time>
      </trkpt>
      <trkpt lat="47.50146" lon="6.76284">
        <ele>441.5</ele>
        <time>2017-02-26T08:47:29.999Z</time>
      </trkpt>
      <trkpt lat="47.50148" lon="6.76288">
        <ele>441.3</ele>
        <time>2017-02-26T08:47:32.999Z</time>
      </trkpt>
      <trkpt lat="47.5015" lon="6.76291">
        <ele>441.2</ele>
        <time>2017-02-26T08:47:33.999Z</time>
      </trkpt>
      <trkpt lat="47.50151" lon="6.76294">
        <ele>440.9</ele>
        <time>2017-02-26T08:47:35.999Z</time>
      </trkpt>
      <trkpt lat="47.50152" lon="6.76296">
        <ele>440.9</ele>
        <time>2017-02-26T08:47:36.999Z</time>
      </trkpt>
      <trkpt lat="47.50154" lon="6.76301">
        <ele>440.5</ele>
        <time>2017-02-26T08:47:38.999Z</time>
      </trkpt>
      <trkpt lat="47.50155" lon="6.76304">
        <ele>440.4</ele>
        <time>2017-02-26T08:47:39.999Z</time>
      </trkpt>
      <trkpt lat="47.50155" lon="6.76309">
        <ele>440.1</ele>
        <time>2017-02-26T08:47:41.999Z</time>
      </trkpt>
      <trkpt lat="47.50156" lon="6.76312">
        <ele>439.9</ele>
        <time>2017-02-26T08:47:42.999Z</time>
      </trkpt>
      <trkpt lat="47.50157" lon="6.76317">
        <ele>439.7</ele>
        <time>2017-02-26T08:47:44.999Z</time>
      </trkpt>
      <trkpt lat="47.50158" lon="6.76319">
        <ele>439.6</ele>
        <time>2017-02-26T08:47:45.999Z</time>
      </trkpt>
      <trkpt lat="47.50161" lon="6.76322">
        <ele>439.5</ele>
        <time>2017-02-26T08:47:46.999Z</time>
      </trkpt>
      <trkpt lat="47.50163" lon="6.76325">
        <ele>439.5</ele>
        <time>2017-02-26T08:47:47.999Z</time>
      </trkpt>
      <trkpt lat="47.50163" lon="6.7633">
        <ele>439.4</ele>
        <time>2017-02-26T08:47:48.999Z</time>
      </trkpt>
      <trkpt lat="47.50164" lon="6.76333">
        <ele>439.3</ele>
        <time>2017-02-26T08:47:49.999Z</time>
      </trkpt>
      <trkpt lat="47.50164" lon="6.76337">
        <ele>439.1</ele>
        <time>2017-02-26T08:47:51.999Z</time>
      </trkpt>
      <trkpt lat="47.50168" lon="6.76344">
        <ele>439</ele>
        <time>2017-02-26T08:47:52.999Z</time>
      </trkpt>
      <trkpt lat="47.50169" lon="6.76347">
        <ele>438.9</ele>
        <time>2017-02-26T08:47:53.999Z</time>
      </trkpt>
      <trkpt lat="47.5017" lon="6.7635">
        <ele>438.8</ele>
        <time>2017-02-26T08:47:54.999Z</time>
      </trkpt>
      <trkpt lat="47.50172" lon="6.76353">
        <ele>438.6</ele>
        <time>2017-02-26T08:47:55.999Z</time>
      </trkpt>
      <trkpt lat="47.50174" lon="6.76356">
        <ele>438.5</ele>
        <time>2017-02-26T08:47:56.999Z</time>
      </trkpt>
      <trkpt lat="47.50176" lon="6.7636">
        <ele>438.6</ele>
        <time>2017-02-26T08:47:58.999Z</time>
      </trkpt>
      <trkpt lat="47.50177" lon="6.76362">
        <ele>438.7</ele>
        <time>2017-02-26T08:47:59.999Z</time>
      </trkpt>
      <trkpt lat="47.50178" lon="6.76365">
        <ele>438.8</ele>
        <time>2017-02-26T08:48:00.999Z</time>
      </trkpt>
      <trkpt lat="47.5018" lon="6.76367">
        <ele>439</ele>
        <time>2017-02-26T08:48:01.999Z</time>
      </trkpt>
      <trkpt lat="47.50181" lon="6.7637">
        <ele>439.2</ele>
        <time>2017-02-26T08:48:02.999Z</time>
      </trkpt>
      <trkpt lat="47.50183" lon="6.76374">
        <ele>439.5</ele>
        <time>2017-02-26T08:48:03.999Z</time>
      </trkpt>
      <trkpt lat="47.50184" lon="6.76379">
        <ele>439.8</ele>
        <time>2017-02-26T08:48:04.999Z</time>
      </trkpt>
      <trkpt lat="47.50185" lon="6.76384">
        <ele>440.1</ele>
        <time>2017-02-26T08:48:05.999Z</time>
      </trkpt>
      <trkpt lat="47.50187" lon="6.76391">
        <ele>440.4</ele>
        <time>2017-02-26T08:48:06.999Z</time>
      </trkpt>
      <trkpt lat="47.50187" lon="6.76397">
        <ele>441.1</ele>
        <time>2017-02-26T08:48:08.999Z</time>
      </trkpt>
      <trkpt lat="47.50189" lon="6.76397">
        <ele>441.4</ele>
        <time>2017-02-26T08:48:09.999Z</time>
      </trkpt>
      <trkpt lat="47.50193" lon="6.76407">
        <ele>441.7</ele>
        <time>2017-02-26T08:48:10.999Z</time>
      </trkpt>
      <trkpt lat="47.50195" lon="6.76414">
        <ele>442</ele>
        <time>2017-02-26T08:48:11.999Z</time>
      </trkpt>
      <trkpt lat="47.50197" lon="6.76421">
        <ele>442.3</ele>
        <time>2017-02-26T08:48:12.999Z</time>
      </trkpt>
      <trkpt lat="47.50197" lon="6.76426">
        <ele>442.5</ele>
        <time>2017-02-26T08:48:13.999Z</time>
      </trkpt>
      <trkpt lat="47.50198" lon="6.76431">
        <ele>442.7</ele>
        <time>2017-02-26T08:48:14.999Z</time>
      </trkpt>
      <trkpt lat="47.50198" lon="6.76433">
        <ele>443</ele>
        <time>2017-02-26T08:48:15.999Z</time>
      </trkpt>
      <trkpt lat="47.502" lon="6.7644">
        <ele>443.2</ele>
        <time>2017-02-26T08:48:16.999Z</time>
      </trkpt>
      <trkpt lat="47.50202" lon="6.76444">
        <ele>443.4</ele>
        <time>2017-02-26T08:48:17.999Z</time>
      </trkpt>
      <trkpt lat="47.50203" lon="6.76448">
        <ele>443.5</ele>
        <time>2017-02-26T08:48:18.999Z</time>
      </trkpt>
      <trkpt lat="47.50204" lon="6.76451">
        <ele>443.6</ele>
        <time>2017-02-26T08:48:19.999Z</time>
      </trkpt>
      <trkpt lat="47.50205" lon="6.76455">
        <ele>443.6</ele>
        <time>2017-02-26T08:48:20.999Z</time>
      </trkpt>
      <trkpt lat="47.50206" lon="6.76461">
        <ele>443.7</ele>
        <time>2017-02-26T08:48:22.999Z</time>
      </trkpt>
      <trkpt lat="47.50207" lon="6.76464">
        <ele>443.8</ele>
        <time>2017-02-26T08:48:23.999Z</time>
      </trkpt>
      <trkpt lat="47.50207" lon="6.76468">
        <ele>443.7</ele>
        <time>2017-02-26T08:48:24.999Z</time>
      </trkpt>
      <trkpt lat="47.50209" lon="6.76471">
        <ele>443.6</ele>
        <time>2017-02-26T08:48:25.999Z</time>
      </trkpt>
      <trkpt lat="47.5021" lon="6.76476">
        <ele>443.4</ele>
        <time>2017-02-26T08:48:27.999Z</time>
      </trkpt>
      <trkpt lat="47.50211" lon="6.76478">
        <ele>443.3</ele>
        <time>2017-02-26T08:48:28.999Z</time>
      </trkpt>
      <trkpt lat="47.50213" lon="6.76482">
        <ele>443.3</ele>
        <time>2017-02-26T08:48:30.999Z</time>
      </trkpt>
      <trkpt lat="47.50214" lon="6.76484">
        <ele>443.3</ele>
        <time>2017-02-26T08:48:31.999Z</time>
      </trkpt>
      <trkpt lat="47.50216" lon="6.76489">
        <ele>443.3</ele>
        <time>2017-02-26T08:48:34.999Z</time>
      </trkpt>
      <trkpt lat="47.50217" lon="6.76491">
        <ele>443.3</ele>
        <time>2017-02-26T08:48:35.999Z</time>
      </trkpt>
      <trkpt lat="47.50218" lon="6.76494">
        <ele>443.4</ele>
        <time>2017-02-26T08:48:36.999Z</time>
      </trkpt>
      <trkpt lat="47.5022" lon="6.76496">
        <ele>443.4</ele>
        <time>2017-02-26T08:48:37.999Z</time>
      </trkpt>
      <trkpt lat="47.5022" lon="6.76498">
        <ele>443.4</ele>
        <time>2017-02-26T08:48:38.999Z</time>
      </trkpt>
      <trkpt lat="47.50223" lon="6.76503">
        <ele>443.6</ele>
        <time>2017-02-26T08:48:39.999Z</time>
      </trkpt>
      <trkpt lat="47.50226" lon="6.76507">
        <ele>443.8</ele>
        <time>2017-02-26T08:48:41.999Z</time>
      </trkpt>
      <trkpt lat="47.50227" lon="6.76509">
        <ele>443.9</ele>
        <time>2017-02-26T08:48:42.999Z</time>
      </trkpt>
      <trkpt lat="47.50227" lon="6.76511">
        <ele>443.9</ele>
        <time>2017-02-26T08:48:43.999Z</time>
      </trkpt>
      <trkpt lat="47.50229" lon="6.76514">
        <ele>444</ele>
        <time>2017-02-26T08:48:44.999Z</time>
      </trkpt>
      <trkpt lat="47.5023" lon="6.76518">
        <ele>444.1</ele>
        <time>2017-02-26T08:48:45.999Z</time>
      </trkpt>
      <trkpt lat="47.5023" lon="6.76521">
        <ele>444.1</ele>
        <time>2017-02-26T08:48:46.999Z</time>
      </trkpt>
      <trkpt lat="47.50231" lon="6.76523">
        <ele>444.1</ele>
        <time>2017-02-26T08:48:47.999Z</time>
      </trkpt>
      <trkpt lat="47.50232" lon="6.76528">
        <ele>444.1</ele>
        <time>2017-02-26T08:48:48.999Z</time>
      </trkpt>
      <trkpt lat="47.50234" lon="6.76533">
        <ele>444</ele>
        <time>2017-02-26T08:48:50.999Z</time>
      </trkpt>
      <trkpt lat="47.50234" lon="6.76537">
        <ele>443.8</ele>
        <time>2017-02-26T08:48:51.999Z</time>
      </trkpt>
      <trkpt lat="47.50236" lon="6.76543">
        <ele>443.5</ele>
        <time>2017-02-26T08:48:53.999Z</time>
      </trkpt>
      <trkpt lat="47.50236" lon="6.76544">
        <ele>443.2</ele>
        <time>2017-02-26T08:48:54.999Z</time>
      </trkpt>
      <trkpt lat="47.50238" lon="6.76549">
        <ele>442.1</ele>
        <time>2017-02-26T08:49:06.999Z</time>
      </trkpt>
      <trkpt lat="47.50238" lon="6.76549">
        <ele>442.2</ele>
        <time>2017-02-26T08:49:07.999Z</time>
      </trkpt>
      <trkpt lat="47.50241" lon="6.76551">
        <ele>442.8</ele>
        <time>2017-02-26T08:49:12.999Z</time>
      </trkpt>
      <trkpt lat="47.50243" lon="6.7655">
        <ele>443</ele>
        <time>2017-02-26T08:49:13.999Z</time>
      </trkpt>
      <trkpt lat="47.50247" lon="6.76548">
        <ele>443</ele>
        <time>2017-02-26T08:49:16.999Z</time>
      </trkpt>
      <trkpt lat="47.50248" lon="6.76547">
        <ele>443</ele>
        <time>2017-02-26T08:49:17.999Z</time>
      </trkpt>
      <trkpt lat="47.50252" lon="6.76546">
        <ele>442.7</ele>
        <time>2017-02-26T08:49:22.999Z</time>
      </trkpt>
      <trkpt lat="47.50253" lon="6.76544">
        <ele>442.6</ele>
        <time>2017-02-26T08:49:23.999Z</time>
      </trkpt>
      <trkpt lat="47.50257" lon="6.76541">
        <ele>442</ele>
        <time>2017-02-26T08:49:26.999Z</time>
      </trkpt>
      <trkpt lat="47.50258" lon="6.7654">
        <ele>441.8</ele>
        <time>2017-02-26T08:49:27.999Z</time>
      </trkpt>
      <trkpt lat="47.50262" lon="6.76538">
        <ele>441.2</ele>
        <time>2017-02-26T08:49:30.999Z</time>
      </trkpt>
      <trkpt lat="47.50263" lon="6.76537">
        <ele>441</ele>
        <time>2017-02-26T08:49:31.999Z</time>
      </trkpt>
      <trkpt lat="47.50264" lon="6.76536">
        <ele>440.8</ele>
        <time>2017-02-26T08:49:32.999Z</time>
      </trkpt>
      <trkpt lat="47.50268" lon="6.76535">
        <ele>440.5</ele>
        <time>2017-02-26T08:49:33.999Z</time>
      </trkpt>
      <trkpt lat="47.50271" lon="6.76534">
        <ele>440.2</ele>
        <time>2017-02-26T08:49:34.999Z</time>
      </trkpt>
      <trkpt lat="47.50276" lon="6.76532">
        <ele>439.9</ele>
        <time>2017-02-26T08:49:35.999Z</time>
      </trkpt>
      <trkpt lat="47.50281" lon="6.76531">
        <ele>439.4</ele>
        <time>2017-02-26T08:49:36.999Z</time>
      </trkpt>
      <trkpt lat="47.50282" lon="6.7653">
        <ele>438.9</ele>
        <time>2017-02-26T08:49:38.999Z</time>
      </trkpt>
      <trkpt lat="47.50283" lon="6.76524">
        <ele>438.6</ele>
        <time>2017-02-26T08:49:39.999Z</time>
      </trkpt>
      <trkpt lat="47.50286" lon="6.76514">
        <ele>438.1</ele>
        <time>2017-02-26T08:49:40.999Z</time>
      </trkpt>
      <trkpt lat="47.50289" lon="6.76508">
        <ele>437.8</ele>
        <time>2017-02-26T08:49:41.999Z</time>
      </trkpt>
      <trkpt lat="47.50294" lon="6.76501">
        <ele>437.4</ele>
        <time>2017-02-26T08:49:42.999Z</time>
      </trkpt>
      <trkpt lat="47.503" lon="6.76491">
        <ele>437</ele>
        <time>2017-02-26T08:49:43.999Z</time>
      </trkpt>
      <trkpt lat="47.50306" lon="6.76484">
        <ele>436.7</ele>
        <time>2017-02-26T08:49:44.999Z</time>
      </trkpt>
      <trkpt lat="47.50312" lon="6.76477">
        <ele>436.4</ele>
        <time>2017-02-26T08:49:45.999Z</time>
      </trkpt>
      <trkpt lat="47.5032" lon="6.76471">
        <ele>436.1</ele>
        <time>2017-02-26T08:49:46.999Z</time>
      </trkpt>
      <trkpt lat="47.50328" lon="6.76463">
        <ele>435.8</ele>
        <time>2017-02-26T08:49:47.999Z</time>
      </trkpt>
      <trkpt lat="47.50334" lon="6.76457">
        <ele>435.7</ele>
        <time>2017-02-26T08:49:48.999Z</time>
      </trkpt>
      <trkpt lat="47.50338" lon="6.76453">
        <ele>435.5</ele>
        <time>2017-02-26T08:49:49.999Z</time>
      </trkpt>
      <trkpt lat="47.50343" lon="6.76448">
        <ele>435.2</ele>
        <time>2017-02-26T08:49:50.999Z</time>
      </trkpt>
      <trkpt lat="47.50346" lon="6.76444">
        <ele>435.1</ele>
        <time>2017-02-26T08:49:51.999Z</time>
      </trkpt>
      <trkpt lat="47.50349" lon="6.76439">
        <ele>434.9</ele>
        <time>2017-02-26T08:49:52.999Z</time>
      </trkpt>
      <trkpt lat="47.50353" lon="6.76434">
        <ele>434.7</ele>
        <time>2017-02-26T08:49:53.999Z</time>
      </trkpt>
      <trkpt lat="47.50356" lon="6.7643">
        <ele>434.6</ele>
        <time>2017-02-26T08:49:54.999Z</time>
      </trkpt>
      <trkpt lat="47.50359" lon="6.76427">
        <ele>434.4</ele>
        <time>2017-02-26T08:49:55.999Z</time>
      </trkpt>
      <trkpt lat="47.50361" lon="6.76424">
        <ele>434.4</ele>
        <time>2017-02-26T08:49:56.999Z</time>
      </trkpt>
      <trkpt lat="47.50362" lon="6.76423">
        <ele>434.3</ele>
        <time>2017-02-26T08:49:57.999Z</time>
      </trkpt>
      <trkpt lat="47.50366" lon="6.76419">
        <ele>434.2</ele>
        <time>2017-02-26T08:50:01.999Z</time>
      </trkpt>
      <trkpt lat="47.50367" lon="6.76418">
        <ele>434.2</ele>
        <time>2017-02-26T08:50:02.999Z</time>
      </trkpt>
      <trkpt lat="47.5037" lon="6.76414">
        <ele>434.6</ele>
        <time>2017-02-26T08:50:08.999Z</time>
      </trkpt>
      <trkpt lat="47.50372" lon="6.76413">
        <ele>434.6</ele>
        <time>2017-02-26T08:50:09.999Z</time>
      </trkpt>
      <trkpt lat="47.50375" lon="6.76409">
        <ele>434.7</ele>
        <time>2017-02-26T08:50:11.999Z</time>
      </trkpt>
      <trkpt lat="47.50376" lon="6.76407">
        <ele>434.8</ele>
        <time>2017-02-26T08:50:12.999Z</time>
      </trkpt>
      <trkpt lat="47.50378" lon="6.76404">
        <ele>434.9</ele>
        <time>2017-02-26T08:50:13.999Z</time>
      </trkpt>
      <trkpt lat="47.5038" lon="6.76402">
        <ele>435</ele>
        <time>2017-02-26T08:50:14.999Z</time>
      </trkpt>
      <trkpt lat="47.50382" lon="6.764">
        <ele>435.1</ele>
        <time>2017-02-26T08:50:15.999Z</time>
      </trkpt>
      <trkpt lat="47.50383" lon="6.76397">
        <ele>435.1</ele>
        <time>2017-02-26T08:50:16.999Z</time>
      </trkpt>
      <trkpt lat="47.50385" lon="6.76393">
        <ele>435.3</ele>
        <time>2017-02-26T08:50:18.999Z</time>
      </trkpt>
      <trkpt lat="47.50386" lon="6.76389">
        <ele>435.3</ele>
        <time>2017-02-26T08:50:19.999Z</time>
      </trkpt>
      <trkpt lat="47.50387" lon="6.76385">
        <ele>435.3</ele>
        <time>2017-02-26T08:50:20.999Z</time>
      </trkpt>
      <trkpt lat="47.50388" lon="6.76382">
        <ele>435.3</ele>
        <time>2017-02-26T08:50:21.999Z</time>
      </trkpt>
      <trkpt lat="47.50389" lon="6.76378">
        <ele>435.4</ele>
        <time>2017-02-26T08:50:22.999Z</time>
      </trkpt>
      <trkpt lat="47.5039" lon="6.76372">
        <ele>435.4</ele>
        <time>2017-02-26T08:50:23.999Z</time>
      </trkpt>
      <trkpt lat="47.50391" lon="6.76368">
        <ele>435.5</ele>
        <time>2017-02-26T08:50:24.999Z</time>
      </trkpt>
      <trkpt lat="47.50393" lon="6.76364">
        <ele>435.5</ele>
        <time>2017-02-26T08:50:25.999Z</time>
      </trkpt>
      <trkpt lat="47.50395" lon="6.76359">
        <ele>435.6</ele>
        <time>2017-02-26T08:50:26.999Z</time>
      </trkpt>
      <trkpt lat="47.50397" lon="6.76355">
        <ele>435.6</ele>
        <time>2017-02-26T08:50:27.999Z</time>
      </trkpt>
      <trkpt lat="47.50399" lon="6.76351">
        <ele>435.6</ele>
        <time>2017-02-26T08:50:28.999Z</time>
      </trkpt>
      <trkpt lat="47.50401" lon="6.76349">
        <ele>435.6</ele>
        <time>2017-02-26T08:50:29.999Z</time>
      </trkpt>
      <trkpt lat="47.50402" lon="6.76347">
        <ele>435.6</ele>
        <time>2017-02-26T08:50:30.999Z</time>
      </trkpt>
      <trkpt lat="47.50403" lon="6.76343">
        <ele>435.5</ele>
        <time>2017-02-26T08:50:31.999Z</time>
      </trkpt>
      <trkpt lat="47.50404" lon="6.76339">
        <ele>435.4</ele>
        <time>2017-02-26T08:50:32.999Z</time>
      </trkpt>
      <trkpt lat="47.50404" lon="6.76334">
        <ele>435.2</ele>
        <time>2017-02-26T08:50:33.999Z</time>
      </trkpt>
      <trkpt lat="47.50405" lon="6.76331">
        <ele>435.2</ele>
        <time>2017-02-26T08:50:34.999Z</time>
      </trkpt>
      <trkpt lat="47.50406" lon="6.76327">
        <ele>435.2</ele>
        <time>2017-02-26T08:50:35.999Z</time>
      </trkpt>
      <trkpt lat="47.50408" lon="6.76322">
        <ele>435.2</ele>
        <time>2017-02-26T08:50:37.999Z</time>
      </trkpt>
      <trkpt lat="47.50408" lon="6.7632">
        <ele>435.2</ele>
        <time>2017-02-26T08:50:38.999Z</time>
      </trkpt>
      <trkpt lat="47.5041" lon="6.76314">
        <ele>435.8</ele>
        <time>2017-02-26T08:50:46.999Z</time>
      </trkpt>
      <trkpt lat="47.5041" lon="6.76314">
        <ele>435.9</ele>
        <time>2017-02-26T08:50:47.999Z</time>
      </trkpt>
      <trkpt lat="47.5041" lon="6.76307">
        <ele>436.6</ele>
        <time>2017-02-26T08:50:53.999Z</time>
      </trkpt>
      <trkpt lat="47.5041" lon="6.76307">
        <ele>436.7</ele>
        <time>2017-02-26T08:50:54.999Z</time>
      </trkpt>
      <trkpt lat="47.50411" lon="6.76303">
        <ele>436.7</ele>
        <time>2017-02-26T08:50:56.999Z</time>
      </trkpt>
      <trkpt lat="47.50412" lon="6.763">
        <ele>436.7</ele>
        <time>2017-02-26T08:50:57.999Z</time>
      </trkpt>
      <trkpt lat="47.50415" lon="6.76295">
        <ele>436.7</ele>
        <time>2017-02-26T08:51:00.999Z</time>
      </trkpt>
      <trkpt lat="47.50415" lon="6.76293">
        <ele>436.7</ele>
        <time>2017-02-26T08:51:01.999Z</time>
      </trkpt>
      <trkpt lat="47.50411" lon="6.76294">
        <ele>436.8</ele>
        <time>2017-02-26T08:51:11.999Z</time>
      </trkpt>
      <trkpt lat="47.50411" lon="6.76295">
        <ele>436.9</ele>
        <time>2017-02-26T08:51:12.999Z</time>
      </trkpt>
      <trkpt lat="47.50407" lon="6.76298">
        <ele>437.1</ele>
        <time>2017-02-26T08:51:17.999Z</time>
      </trkpt>
      <trkpt lat="47.50406" lon="6.76298">
        <ele>437.1</ele>
        <time>2017-02-26T08:51:18.999Z</time>
      </trkpt>
      <trkpt lat="47.50408" lon="6.76304">
        <ele>437.3</ele>
        <time>2017-02-26T08:51:26.999Z</time>
      </trkpt>
      <trkpt lat="47.50409" lon="6.76305">
        <ele>437.2</ele>
        <time>2017-02-26T08:51:27.999Z</time>
      </trkpt>
      <trkpt lat="47.50413" lon="6.76306">
        <ele>437.2</ele>
        <time>2017-02-26T08:51:30.999Z</time>
      </trkpt>
      <trkpt lat="47.50414" lon="6.76306">
        <ele>437.2</ele>
        <time>2017-02-26T08:51:31.999Z</time>
      </trkpt>
      <trkpt lat="47.50417" lon="6.76311">
        <ele>436.6</ele>
        <time>2017-02-26T08:51:38.999Z</time>
      </trkpt>
      <trkpt lat="47.50417" lon="6.76312">
        <ele>436.5</ele>
        <time>2017-02-26T08:51:39.999Z</time>
      </trkpt>
      <trkpt lat="47.50419" lon="6.76306">
        <ele>436.8</ele>
        <time>2017-02-26T08:51:42.999Z</time>
      </trkpt>
      <trkpt lat="47.50419" lon="6.76304">
        <ele>437</ele>
        <time>2017-02-26T08:51:43.999Z</time>
      </trkpt>
      <trkpt lat="47.5042" lon="6.763">
        <ele>437.1</ele>
        <time>2017-02-26T08:51:45.999Z</time>
      </trkpt>
      <trkpt lat="47.50422" lon="6.76295">
        <ele>437</ele>
        <time>2017-02-26T08:51:46.999Z</time>
      </trkpt>
      <trkpt lat="47.50424" lon="6.76292">
        <ele>436.9</ele>
        <time>2017-02-26T08:51:47.999Z</time>
      </trkpt>
      <trkpt lat="47.50426" lon="6.76289">
        <ele>436.6</ele>
        <time>2017-02-26T08:51:48.999Z</time>
      </trkpt>
      <trkpt lat="47.50428" lon="6.76284">
        <ele>436.3</ele>
        <time>2017-02-26T08:51:50.999Z</time>
      </trkpt>
      <trkpt lat="47.50429" lon="6.76282">
        <ele>436.2</ele>
        <time>2017-02-26T08:51:51.999Z</time>
      </trkpt>
      <trkpt lat="47.50431" lon="6.76279">
        <ele>436.3</ele>
        <time>2017-02-26T08:51:52.999Z</time>
      </trkpt>
      <trkpt lat="47.50432" lon="6.76275">
        <ele>436.3</ele>
        <time>2017-02-26T08:51:53.999Z</time>
      </trkpt>
      <trkpt lat="47.50436" lon="6.76272">
        <ele>436.3</ele>
        <time>2017-02-26T08:51:55.999Z</time>
      </trkpt>
      <trkpt lat="47.50437" lon="6.7627">
        <ele>436.3</ele>
        <time>2017-02-26T08:51:56.999Z</time>
      </trkpt>
      <trkpt lat="47.5044" lon="6.76267">
        <ele>436.3</ele>
        <time>2017-02-26T08:51:57.999Z</time>
      </trkpt>
      <trkpt lat="47.50443" lon="6.76264">
        <ele>436.3</ele>
        <time>2017-02-26T08:51:58.999Z</time>
      </trkpt>
      <trkpt lat="47.50444" lon="6.7626">
        <ele>436.2</ele>
        <time>2017-02-26T08:51:59.999Z</time>
      </trkpt>
      <trkpt lat="47.50445" lon="6.76257">
        <ele>436.2</ele>
        <time>2017-02-26T08:52:00.999Z</time>
      </trkpt>
      <trkpt lat="47.50447" lon="6.76251">
        <ele>436.2</ele>
        <time>2017-02-26T08:52:03.999Z</time>
      </trkpt>
      <trkpt lat="47.50447" lon="6.76249">
        <ele>436.3</ele>
        <time>2017-02-26T08:52:04.999Z</time>
      </trkpt>
      <trkpt lat="47.50449" lon="6.76246">
        <ele>436.5</ele>
        <time>2017-02-26T08:52:07.999Z</time>
      </trkpt>
      <trkpt lat="47.50452" lon="6.76241">
        <ele>436.7</ele>
        <time>2017-02-26T08:52:08.999Z</time>
      </trkpt>
      <trkpt lat="47.50454" lon="6.76237">
        <ele>437</ele>
        <time>2017-02-26T08:52:09.999Z</time>
      </trkpt>
      <trkpt lat="47.50454" lon="6.76235">
        <ele>437.2</ele>
        <time>2017-02-26T08:52:10.999Z</time>
      </trkpt>
      <trkpt lat="47.50456" lon="6.76231">
        <ele>437.9</ele>
        <time>2017-02-26T08:52:12.999Z</time>
      </trkpt>
      <trkpt lat="47.50459" lon="6.76228">
        <ele>438.3</ele>
        <time>2017-02-26T08:52:13.999Z</time>
      </trkpt>
      <trkpt lat="47.50461" lon="6.76225">
        <ele>438.6</ele>
        <time>2017-02-26T08:52:14.999Z</time>
      </trkpt>
      <trkpt lat="47.50463" lon="6.76224">
        <ele>439</ele>
        <time>2017-02-26T08:52:15.999Z</time>
      </trkpt>
      <trkpt lat="47.50467" lon="6.76222">
        <ele>440.2</ele>
        <time>2017-02-26T08:52:20.999Z</time>
      </trkpt>
      <trkpt lat="47.50468" lon="6.76222">
        <ele>440.4</ele>
        <time>2017-02-26T08:52:21.999Z</time>
      </trkpt>
      <trkpt lat="47.50473" lon="6.76223">
        <ele>443.1</ele>
        <time>2017-02-26T08:52:32.999Z</time>
      </trkpt>
      <trkpt lat="47.50473" lon="6.76223">
        <ele>443.4</ele>
        <time>2017-02-26T08:52:33.999Z</time>
      </trkpt>
      <trkpt lat="47.50476" lon="6.76226">
        <ele>444.8</ele>
        <time>2017-02-26T08:52:39.999Z</time>
      </trkpt>
      <trkpt lat="47.50477" lon="6.76225">
        <ele>445</ele>
        <time>2017-02-26T08:52:40.999Z</time>
      </trkpt>
      <trkpt lat="47.50481" lon="6.76224">
        <ele>444.8</ele>
        <time>2017-02-26T08:52:46.999Z</time>
      </trkpt>
      <trkpt lat="47.50482" lon="6.76222">
        <ele>444.6</ele>
        <time>2017-02-26T08:52:47.999Z</time>
      </trkpt>
      <trkpt lat="47.50484" lon="6.76218">
        <ele>444.5</ele>
        <time>2017-02-26T08:52:48.999Z</time>
      </trkpt>
      <trkpt lat="47.50484" lon="6.76216">
        <ele>444.4</ele>
        <time>2017-02-26T08:52:49.999Z</time>
      </trkpt>
      <trkpt lat="47.50487" lon="6.76213">
        <ele>444.2</ele>
        <time>2017-02-26T08:52:50.999Z</time>
      </trkpt>
      <trkpt lat="47.50488" lon="6.76212">
        <ele>444.2</ele>
        <time>2017-02-26T08:52:51.999Z</time>
      </trkpt>
      <trkpt lat="47.5049" lon="6.76211">
        <ele>444</ele>
        <time>2017-02-26T08:52:53.999Z</time>
      </trkpt>
      <trkpt lat="47.50494" lon="6.76208">
        <ele>443.9</ele>
        <time>2017-02-26T08:52:54.999Z</time>
      </trkpt>
      <trkpt lat="47.50497" lon="6.76205">
        <ele>443.6</ele>
        <time>2017-02-26T08:52:56.999Z</time>
      </trkpt>
      <trkpt lat="47.50499" lon="6.76204">
        <ele>443.5</ele>
        <time>2017-02-26T08:52:57.999Z</time>
      </trkpt>
      <trkpt lat="47.50503" lon="6.76204">
        <ele>443.3</ele>
        <time>2017-02-26T08:52:59.999Z</time>
      </trkpt>
      <trkpt lat="47.50505" lon="6.76205">
        <ele>443.3</ele>
        <time>2017-02-26T08:53:00.999Z</time>
      </trkpt>
      <trkpt lat="47.50509" lon="6.76205">
        <ele>443.4</ele>
        <time>2017-02-26T08:53:03.999Z</time>
      </trkpt>
      <trkpt lat="47.5051" lon="6.76205">
        <ele>443.4</ele>
        <time>2017-02-26T08:53:04.999Z</time>
      </trkpt>
      <trkpt lat="47.50512" lon="6.76206">
        <ele>443.5</ele>
        <time>2017-02-26T08:53:05.999Z</time>
      </trkpt>
      <trkpt lat="47.50515" lon="6.76206">
        <ele>443.7</ele>
        <time>2017-02-26T08:53:06.999Z</time>
      </trkpt>
      <trkpt lat="47.50519" lon="6.76204">
        <ele>443.7</ele>
        <time>2017-02-26T08:53:08.999Z</time>
      </trkpt>
      <trkpt lat="47.50521" lon="6.76203">
        <ele>443.7</ele>
        <time>2017-02-26T08:53:09.999Z</time>
      </trkpt>
      <trkpt lat="47.50524" lon="6.762">
        <ele>443.7</ele>
        <time>2017-02-26T08:53:10.999Z</time>
      </trkpt>
      <trkpt lat="47.50526" lon="6.76196">
        <ele>443.7</ele>
        <time>2017-02-26T08:53:11.999Z</time>
      </trkpt>
      <trkpt lat="47.50528" lon="6.76194">
        <ele>443.6</ele>
        <time>2017-02-26T08:53:12.999Z</time>
      </trkpt>
      <trkpt lat="47.5053" lon="6.76191">
        <ele>443.5</ele>
        <time>2017-02-26T08:53:13.999Z</time>
      </trkpt>
      <trkpt lat="47.50533" lon="6.76186">
        <ele>443.4</ele>
        <time>2017-02-26T08:53:14.999Z</time>
      </trkpt>
      <trkpt lat="47.50536" lon="6.76182">
        <ele>443.1</ele>
        <time>2017-02-26T08:53:15.999Z</time>
      </trkpt>
      <trkpt lat="47.50539" lon="6.76178">
        <ele>442.8</ele>
        <time>2017-02-26T08:53:16.999Z</time>
      </trkpt>
      <trkpt lat="47.50542" lon="6.76175">
        <ele>442.4</ele>
        <time>2017-02-26T08:53:17.999Z</time>
      </trkpt>
      <trkpt lat="47.50543" lon="6.76173">
        <ele>442</ele>
        <time>2017-02-26T08:53:18.999Z</time>
      </trkpt>
      <trkpt lat="47.50545" lon="6.76174">
        <ele>441.5</ele>
        <time>2017-02-26T08:53:21.999Z</time>
      </trkpt>
      <trkpt lat="47.50548" lon="6.76171">
        <ele>441.4</ele>
        <time>2017-02-26T08:53:22.999Z</time>
      </trkpt>
      <trkpt lat="47.50552" lon="6.76167">
        <ele>440.9</ele>
        <time>2017-02-26T08:53:24.999Z</time>
      </trkpt>
      <trkpt lat="47.50554" lon="6.76166">
        <ele>440.7</ele>
        <time>2017-02-26T08:53:25.999Z</time>
      </trkpt>
      <trkpt lat="47.50557" lon="6.76163">
        <ele>440.6</ele>
        <time>2017-02-26T08:53:26.999Z</time>
      </trkpt>
      <trkpt lat="47.5056" lon="6.76161">
        <ele>440.4</ele>
        <time>2017-02-26T08:53:27.999Z</time>
      </trkpt>
      <trkpt lat="47.50565" lon="6.7616">
        <ele>440</ele>
        <time>2017-02-26T08:53:28.999Z</time>
      </trkpt>
      <trkpt lat="47.50574" lon="6.7616">
        <ele>441.1</ele>
        <time>2017-02-26T08:53:29.999Z</time>
      </trkpt>
      <trkpt lat="47.50582" lon="6.7616">
        <ele>441.1</ele>
        <time>2017-02-26T08:53:30.999Z</time>
      </trkpt>
      <trkpt lat="47.50586" lon="6.76161">
        <ele>441.2</ele>
        <time>2017-02-26T08:53:31.999Z</time>
      </trkpt>
      <trkpt lat="47.5059" lon="6.76162">
        <ele>441.2</ele>
        <time>2017-02-26T08:53:32.999Z</time>
      </trkpt>
      <trkpt lat="47.50595" lon="6.76163">
        <ele>441.1</ele>
        <time>2017-02-26T08:53:33.999Z</time>
      </trkpt>
      <trkpt lat="47.50601" lon="6.76163">
        <ele>439.6</ele>
        <time>2017-02-26T08:53:34.999Z</time>
      </trkpt>
      <trkpt lat="47.50607" lon="6.76162">
        <ele>439.3</ele>
        <time>2017-02-26T08:53:35.999Z</time>
      </trkpt>
      <trkpt lat="47.50616" lon="6.76161">
        <ele>438.4</ele>
        <time>2017-02-26T08:53:36.999Z</time>
      </trkpt>
      <trkpt lat="47.50625" lon="6.7616">
        <ele>437.6</ele>
        <time>2017-02-26T08:53:37.999Z</time>
      </trkpt>
      <trkpt lat="47.50633" lon="6.7616">
        <ele>438.8</ele>
        <time>2017-02-26T08:53:38.999Z</time>
      </trkpt>
      <trkpt lat="47.50639" lon="6.76162">
        <ele>439.8</ele>
        <time>2017-02-26T08:53:39.999Z</time>
      </trkpt>
      <trkpt lat="47.50643" lon="6.76166">
        <ele>440.1</ele>
        <time>2017-02-26T08:53:40.999Z</time>
      </trkpt>
      <trkpt lat="47.50652" lon="6.76172">
        <ele>439</ele>
        <time>2017-02-26T08:53:41.999Z</time>
      </trkpt>
      <trkpt lat="47.50658" lon="6.76176">
        <ele>439</ele>
        <time>2017-02-26T08:53:42.999Z</time>
      </trkpt>
      <trkpt lat="47.50664" lon="6.76179">
        <ele>438.7</ele>
        <time>2017-02-26T08:53:43.999Z</time>
      </trkpt>
      <trkpt lat="47.50668" lon="6.76181">
        <ele>438.6</ele>
        <time>2017-02-26T08:53:44.999Z</time>
      </trkpt>
      <trkpt lat="47.50674" lon="6.76185">
        <ele>438.7</ele>
        <time>2017-02-26T08:53:45.999Z</time>
      </trkpt>
      <trkpt lat="47.50683" lon="6.76193">
        <ele>438.8</ele>
        <time>2017-02-26T08:53:46.999Z</time>
      </trkpt>
      <trkpt lat="47.50687" lon="6.76198">
        <ele>438.7</ele>
        <time>2017-02-26T08:53:47.999Z</time>
      </trkpt>
      <trkpt lat="47.50691" lon="6.76201">
        <ele>438.6</ele>
        <time>2017-02-26T08:53:48.999Z</time>
      </trkpt>
      <trkpt lat="47.50695" lon="6.76204">
        <ele>438.1</ele>
        <time>2017-02-26T08:53:49.999Z</time>
      </trkpt>
      <trkpt lat="47.50701" lon="6.76207">
        <ele>437.4</ele>
        <time>2017-02-26T08:53:50.999Z</time>
      </trkpt>
      <trkpt lat="47.50709" lon="6.76211">
        <ele>435.7</ele>
        <time>2017-02-26T08:53:51.999Z</time>
      </trkpt>
      <trkpt lat="47.50715" lon="6.76215">
        <ele>433.3</ele>
        <time>2017-02-26T08:53:52.999Z</time>
      </trkpt>
      <trkpt lat="47.50719" lon="6.76214">
        <ele>432.6</ele>
        <time>2017-02-26T08:54:06.999Z</time>
      </trkpt>
      <trkpt lat="47.50722" lon="6.76214">
        <ele>432.6</ele>
        <time>2017-02-26T08:54:07.999Z</time>
      </trkpt>
      <trkpt lat="47.50724" lon="6.76212">
        <ele>432.6</ele>
        <time>2017-02-26T08:54:08.999Z</time>
      </trkpt>
      <trkpt lat="47.50726" lon="6.7621">
        <ele>432.5</ele>
        <time>2017-02-26T08:54:09.999Z</time>
      </trkpt>
      <trkpt lat="47.50729" lon="6.76206">
        <ele>432.1</ele>
        <time>2017-02-26T08:54:13.999Z</time>
      </trkpt>
      <trkpt lat="47.5073" lon="6.76205">
        <ele>431.8</ele>
        <time>2017-02-26T08:54:14.999Z</time>
      </trkpt>
      <trkpt lat="47.50733" lon="6.76202">
        <ele>431.3</ele>
        <time>2017-02-26T08:54:16.999Z</time>
      </trkpt>
      <trkpt lat="47.50735" lon="6.76199">
        <ele>431.2</ele>
        <time>2017-02-26T08:54:17.999Z</time>
      </trkpt>
      <trkpt lat="47.50735" lon="6.76195">
        <ele>430.9</ele>
        <time>2017-02-26T08:54:18.999Z</time>
      </trkpt>
      <trkpt lat="47.50735" lon="6.7619">
        <ele>430.5</ele>
        <time>2017-02-26T08:54:19.999Z</time>
      </trkpt>
      <trkpt lat="47.50735" lon="6.76184">
        <ele>430.2</ele>
        <time>2017-02-26T08:54:20.999Z</time>
      </trkpt>
      <trkpt lat="47.50734" lon="6.76178">
        <ele>430</ele>
        <time>2017-02-26T08:54:21.999Z</time>
      </trkpt>
      <trkpt lat="47.50733" lon="6.76173">
        <ele>429.8</ele>
        <time>2017-02-26T08:54:22.999Z</time>
      </trkpt>
      <trkpt lat="47.50732" lon="6.76168">
        <ele>429.6</ele>
        <time>2017-02-26T08:54:23.999Z</time>
      </trkpt>
      <trkpt lat="47.50731" lon="6.76163">
        <ele>429.5</ele>
        <time>2017-02-26T08:54:24.999Z</time>
      </trkpt>
      <trkpt lat="47.50729" lon="6.76157">
        <ele>429.9</ele>
        <time>2017-02-26T08:54:25.999Z</time>
      </trkpt>
      <trkpt lat="47.50728" lon="6.76152">
        <ele>430</ele>
        <time>2017-02-26T08:54:26.999Z</time>
      </trkpt>
      <trkpt lat="47.50729" lon="6.76149">
        <ele>430.1</ele>
        <time>2017-02-26T08:54:27.999Z</time>
      </trkpt>
      <trkpt lat="47.50731" lon="6.76144">
        <ele>430</ele>
        <time>2017-02-26T08:54:34.999Z</time>
      </trkpt>
      <trkpt lat="47.50731" lon="6.76143">
        <ele>430.2</ele>
        <time>2017-02-26T08:54:35.999Z</time>
      </trkpt>
      <trkpt lat="47.50732" lon="6.76138">
        <ele>430.6</ele>
        <time>2017-02-26T08:54:38.999Z</time>
      </trkpt>
      <trkpt lat="47.50732" lon="6.76136">
        <ele>430.6</ele>
        <time>2017-02-26T08:54:39.999Z</time>
      </trkpt>
      <trkpt lat="47.50733" lon="6.7613">
        <ele>430.5</ele>
        <time>2017-02-26T08:54:41.999Z</time>
      </trkpt>
      <trkpt lat="47.50733" lon="6.76127">
        <ele>430.5</ele>
        <time>2017-02-26T08:54:42.999Z</time>
      </trkpt>
      <trkpt lat="47.50734" lon="6.76121">
        <ele>430.6</ele>
        <time>2017-02-26T08:54:44.999Z</time>
      </trkpt>
      <trkpt lat="47.50735" lon="6.76118">
        <ele>430.8</ele>
        <time>2017-02-26T08:54:45.999Z</time>
      </trkpt>
      <trkpt lat="47.50737" lon="6.76112">
        <ele>431.1</ele>
        <time>2017-02-26T08:54:47.999Z</time>
      </trkpt>
      <trkpt lat="47.50738" lon="6.7611">
        <ele>431.2</ele>
        <time>2017-02-26T08:54:48.999Z</time>
      </trkpt>
      <trkpt lat="47.5074" lon="6.76104">
        <ele>431</ele>
        <time>2017-02-26T08:54:51.999Z</time>
      </trkpt>
      <trkpt lat="47.50741" lon="6.76102">
        <ele>430.9</ele>
        <time>2017-02-26T08:54:52.999Z</time>
      </trkpt>
      <trkpt lat="47.50744" lon="6.76098">
        <ele>430.7</ele>
        <time>2017-02-26T08:54:54.999Z</time>
      </trkpt>
      <trkpt lat="47.50745" lon="6.76096">
        <ele>430.4</ele>
        <time>2017-02-26T08:54:55.999Z</time>
      </trkpt>
      <trkpt lat="47.50749" lon="6.76094">
        <ele>430.2</ele>
        <time>2017-02-26T08:54:57.999Z</time>
      </trkpt>
      <trkpt lat="47.50751" lon="6.76091">
        <ele>430</ele>
        <time>2017-02-26T08:54:58.999Z</time>
      </trkpt>
      <trkpt lat="47.50752" lon="6.76089">
        <ele>429.8</ele>
        <time>2017-02-26T08:54:59.999Z</time>
      </trkpt>
      <trkpt lat="47.50754" lon="6.76085">
        <ele>429.6</ele>
        <time>2017-02-26T08:55:00.999Z</time>
      </trkpt>
      <trkpt lat="47.50756" lon="6.76082">
        <ele>429.5</ele>
        <time>2017-02-26T08:55:01.999Z</time>
      </trkpt>
      <trkpt lat="47.50757" lon="6.76079">
        <ele>429.4</ele>
        <time>2017-02-26T08:55:02.999Z</time>
      </trkpt>
      <trkpt lat="47.50758" lon="6.76074">
        <ele>429.2</ele>
        <time>2017-02-26T08:55:03.999Z</time>
      </trkpt>
      <trkpt lat="47.5076" lon="6.76071">
        <ele>429</ele>
        <time>2017-02-26T08:55:04.999Z</time>
      </trkpt>
      <trkpt lat="47.50763" lon="6.76067">
        <ele>428.4</ele>
        <time>2017-02-26T08:55:06.999Z</time>
      </trkpt>
      <trkpt lat="47.50764" lon="6.76064">
        <ele>428.1</ele>
        <time>2017-02-26T08:55:07.999Z</time>
      </trkpt>
      <trkpt lat="47.50765" lon="6.7606">
        <ele>427.7</ele>
        <time>2017-02-26T08:55:08.999Z</time>
      </trkpt>
      <trkpt lat="47.50766" lon="6.76057">
        <ele>427.3</ele>
        <time>2017-02-26T08:55:09.999Z</time>
      </trkpt>
      <trkpt lat="47.50768" lon="6.76053">
        <ele>426.9</ele>
        <time>2017-02-26T08:55:10.999Z</time>
      </trkpt>
      <trkpt lat="47.50769" lon="6.76049">
        <ele>426.6</ele>
        <time>2017-02-26T08:55:11.999Z</time>
      </trkpt>
      <trkpt lat="47.5077" lon="6.76046">
        <ele>426.3</ele>
        <time>2017-02-26T08:55:12.999Z</time>
      </trkpt>
      <trkpt lat="47.50771" lon="6.76042">
        <ele>426</ele>
        <time>2017-02-26T08:55:13.999Z</time>
      </trkpt>
      <trkpt lat="47.50771" lon="6.76039">
        <ele>425.6</ele>
        <time>2017-02-26T08:55:14.999Z</time>
      </trkpt>
      <trkpt lat="47.50773" lon="6.76036">
        <ele>425.3</ele>
        <time>2017-02-26T08:55:15.999Z</time>
      </trkpt>
      <trkpt lat="47.50775" lon="6.76031">
        <ele>425</ele>
        <time>2017-02-26T08:55:16.999Z</time>
      </trkpt>
      <trkpt lat="47.50777" lon="6.76028">
        <ele>424.7</ele>
        <time>2017-02-26T08:55:17.999Z</time>
      </trkpt>
      <trkpt lat="47.50778" lon="6.76026">
        <ele>424.3</ele>
        <time>2017-02-26T08:55:18.999Z</time>
      </trkpt>
      <trkpt lat="47.5078" lon="6.76021">
        <ele>423.9</ele>
        <time>2017-02-26T08:55:19.999Z</time>
      </trkpt>
      <trkpt lat="47.50783" lon="6.76017">
        <ele>423.2</ele>
        <time>2017-02-26T08:55:21.999Z</time>
      </trkpt>
      <trkpt lat="47.50784" lon="6.76016">
        <ele>423</ele>
        <time>2017-02-26T08:55:22.999Z</time>
      </trkpt>
      <trkpt lat="47.50788" lon="6.76016">
        <ele>421.6</ele>
        <time>2017-02-26T08:55:27.999Z</time>
      </trkpt>
      <trkpt lat="47.50789" lon="6.76017">
        <ele>421.4</ele>
        <time>2017-02-26T08:55:28.999Z</time>
      </trkpt>
      <trkpt lat="47.50793" lon="6.76015">
        <ele>421.2</ele>
        <time>2017-02-26T08:55:29.999Z</time>
      </trkpt>
      <trkpt lat="47.50796" lon="6.76012">
        <ele>420.9</ele>
        <time>2017-02-26T08:55:30.999Z</time>
      </trkpt>
      <trkpt lat="47.508" lon="6.76011">
        <ele>420.7</ele>
        <time>2017-02-26T08:55:31.999Z</time>
      </trkpt>
      <trkpt lat="47.50801" lon="6.7601">
        <ele>420.5</ele>
        <time>2017-02-26T08:55:32.999Z</time>
      </trkpt>
      <trkpt lat="47.50805" lon="6.76007">
        <ele>420.3</ele>
        <time>2017-02-26T08:55:37.999Z</time>
      </trkpt>
      <trkpt lat="47.50806" lon="6.76006">
        <ele>420.2</ele>
        <time>2017-02-26T08:55:38.999Z</time>
      </trkpt>
      <trkpt lat="47.50809" lon="6.76002">
        <ele>420.1</ele>
        <time>2017-02-26T08:55:39.999Z</time>
      </trkpt>
      <trkpt lat="47.50811" lon="6.76001">
        <ele>420.1</ele>
        <time>2017-02-26T08:55:40.999Z</time>
      </trkpt>
      <trkpt lat="47.50813" lon="6.75997">
        <ele>420.1</ele>
        <time>2017-02-26T08:55:42.999Z</time>
      </trkpt>
      <trkpt lat="47.50814" lon="6.75995">
        <ele>420.1</ele>
        <time>2017-02-26T08:55:43.999Z</time>
      </trkpt>
      <trkpt lat="47.50815" lon="6.75989">
        <ele>420.3</ele>
        <time>2017-02-26T08:55:46.999Z</time>
      </trkpt>
      <trkpt lat="47.50818" lon="6.75985">
        <ele>420.3</ele>
        <time>2017-02-26T08:55:47.999Z</time>
      </trkpt>
      <trkpt lat="47.50819" lon="6.75979">
        <ele>420.3</ele>
        <time>2017-02-26T08:55:49.999Z</time>
      </trkpt>
      <trkpt lat="47.50819" lon="6.75975">
        <ele>420.3</ele>
        <time>2017-02-26T08:55:50.999Z</time>
      </trkpt>
      <trkpt lat="47.50819" lon="6.75969">
        <ele>420.2</ele>
        <time>2017-02-26T08:55:52.999Z</time>
      </trkpt>
      <trkpt lat="47.5082" lon="6.75964">
        <ele>420.2</ele>
        <time>2017-02-26T08:55:53.999Z</time>
      </trkpt>
      <trkpt lat="47.50822" lon="6.75961">
        <ele>420.1</ele>
        <time>2017-02-26T08:55:54.999Z</time>
      </trkpt>
      <trkpt lat="47.50823" lon="6.75956">
        <ele>419.9</ele>
        <time>2017-02-26T08:55:55.999Z</time>
      </trkpt>
      <trkpt lat="47.50822" lon="6.75951">
        <ele>419.7</ele>
        <time>2017-02-26T08:55:56.999Z</time>
      </trkpt>
      <trkpt lat="47.50823" lon="6.75946">
        <ele>419.6</ele>
        <time>2017-02-26T08:55:57.999Z</time>
      </trkpt>
      <trkpt lat="47.50824" lon="6.75941">
        <ele>419.5</ele>
        <time>2017-02-26T08:55:58.999Z</time>
      </trkpt>
      <trkpt lat="47.50825" lon="6.75934">
        <ele>419.3</ele>
        <time>2017-02-26T08:55:59.999Z</time>
      </trkpt>
      <trkpt lat="47.50826" lon="6.75928">
        <ele>419.1</ele>
        <time>2017-02-26T08:56:00.999Z</time>
      </trkpt>
      <trkpt lat="47.50826" lon="6.75924">
        <ele>419</ele>
        <time>2017-02-26T08:56:01.999Z</time>
      </trkpt>
      <trkpt lat="47.50827" lon="6.75919">
        <ele>419</ele>
        <time>2017-02-26T08:56:02.999Z</time>
      </trkpt>
      <trkpt lat="47.50827" lon="6.75913">
        <ele>419</ele>
        <time>2017-02-26T08:56:03.999Z</time>
      </trkpt>
      <trkpt lat="47.50827" lon="6.75907">
        <ele>419.1</ele>
        <time>2017-02-26T08:56:04.999Z</time>
      </trkpt>
      <trkpt lat="47.50826" lon="6.75899">
        <ele>419.2</ele>
        <time>2017-02-26T08:56:05.999Z</time>
      </trkpt>
      <trkpt lat="47.50826" lon="6.75895">
        <ele>419.2</ele>
        <time>2017-02-26T08:56:06.999Z</time>
      </trkpt>
      <trkpt lat="47.50826" lon="6.75892">
        <ele>419</ele>
        <time>2017-02-26T08:56:07.999Z</time>
      </trkpt>
      <trkpt lat="47.50825" lon="6.75888">
        <ele>419</ele>
        <time>2017-02-26T08:56:08.999Z</time>
      </trkpt>
      <trkpt lat="47.50824" lon="6.75883">
        <ele>418.9</ele>
        <time>2017-02-26T08:56:09.999Z</time>
      </trkpt>
      <trkpt lat="47.50823" lon="6.75876">
        <ele>418.8</ele>
        <time>2017-02-26T08:56:10.999Z</time>
      </trkpt>
      <trkpt lat="47.50822" lon="6.7587">
        <ele>418.7</ele>
        <time>2017-02-26T08:56:11.999Z</time>
      </trkpt>
      <trkpt lat="47.50822" lon="6.75863">
        <ele>418.8</ele>
        <time>2017-02-26T08:56:12.999Z</time>
      </trkpt>
      <trkpt lat="47.50822" lon="6.75856">
        <ele>418.8</ele>
        <time>2017-02-26T08:56:13.999Z</time>
      </trkpt>
      <trkpt lat="47.50823" lon="6.75848">
        <ele>418.7</ele>
        <time>2017-02-26T08:56:14.999Z</time>
      </trkpt>
      <trkpt lat="47.50823" lon="6.75844">
        <ele>418.8</ele>
        <time>2017-02-26T08:56:15.999Z</time>
      </trkpt>
      <trkpt lat="47.50822" lon="6.75839">
        <ele>418.7</ele>
        <time>2017-02-26T08:56:16.999Z</time>
      </trkpt>
      <trkpt lat="47.50822" lon="6.75833">
        <ele>418.7</ele>
        <time>2017-02-26T08:56:17.999Z</time>
      </trkpt>
      <trkpt lat="47.50822" lon="6.75825">
        <ele>418.8</ele>
        <time>2017-02-26T08:56:18.999Z</time>
      </trkpt>
      <trkpt lat="47.50822" lon="6.7582">
        <ele>418.9</ele>
        <time>2017-02-26T08:56:19.999Z</time>
      </trkpt>
      <trkpt lat="47.50823" lon="6.75814">
        <ele>418.9</ele>
        <time>2017-02-26T08:56:20.999Z</time>
      </trkpt>
      <trkpt lat="47.50822" lon="6.75807">
        <ele>418.8</ele>
        <time>2017-02-26T08:56:21.999Z</time>
      </trkpt>
      <trkpt lat="47.50823" lon="6.75802">
        <ele>418.8</ele>
        <time>2017-02-26T08:56:22.999Z</time>
      </trkpt>
      <trkpt lat="47.50825" lon="6.75797">
        <ele>419</ele>
        <time>2017-02-26T08:56:23.999Z</time>
      </trkpt>
      <trkpt lat="47.50827" lon="6.7579">
        <ele>419.2</ele>
        <time>2017-02-26T08:56:24.999Z</time>
      </trkpt>
      <trkpt lat="47.50829" lon="6.75786">
        <ele>419.7</ele>
        <time>2017-02-26T08:56:26.999Z</time>
      </trkpt>
      <trkpt lat="47.5083" lon="6.75783">
        <ele>419.9</ele>
        <time>2017-02-26T08:56:27.999Z</time>
      </trkpt>
      <trkpt lat="47.50833" lon="6.75779">
        <ele>420.6</ele>
        <time>2017-02-26T08:56:29.999Z</time>
      </trkpt>
      <trkpt lat="47.50835" lon="6.75779">
        <ele>420.8</ele>
        <time>2017-02-26T08:56:30.999Z</time>
      </trkpt>
      <trkpt lat="47.50839" lon="6.75778">
        <ele>422.3</ele>
        <time>2017-02-26T08:56:35.999Z</time>
      </trkpt>
      <trkpt lat="47.5084" lon="6.75777">
        <ele>422.5</ele>
        <time>2017-02-26T08:56:36.999Z</time>
      </trkpt>
      <trkpt lat="47.50843" lon="6.75772">
        <ele>422.4</ele>
        <time>2017-02-26T08:56:38.999Z</time>
      </trkpt>
      <trkpt lat="47.50844" lon="6.75769">
        <ele>422.3</ele>
        <time>2017-02-26T08:56:39.999Z</time>
      </trkpt>
      <trkpt lat="47.50845" lon="6.75767">
        <ele>422.2</ele>
        <time>2017-02-26T08:56:40.999Z</time>
      </trkpt>
      <trkpt lat="47.50847" lon="6.75763">
        <ele>422.1</ele>
        <time>2017-02-26T08:56:41.999Z</time>
      </trkpt>
      <trkpt lat="47.50849" lon="6.75759">
        <ele>422.4</ele>
        <time>2017-02-26T08:56:45.999Z</time>
      </trkpt>
      <trkpt lat="47.5085" lon="6.75759">
        <ele>422.3</ele>
        <time>2017-02-26T08:56:46.999Z</time>
      </trkpt>
      <trkpt lat="47.50854" lon="6.75762">
        <ele>422.3</ele>
        <time>2017-02-26T08:56:50.999Z</time>
      </trkpt>
      <trkpt lat="47.50854" lon="6.75763">
        <ele>422.5</ele>
        <time>2017-02-26T08:56:51.999Z</time>
      </trkpt>
      <trkpt lat="47.50856" lon="6.75769">
        <ele>422.9</ele>
        <time>2017-02-26T08:56:53.999Z</time>
      </trkpt>
      <trkpt lat="47.50857" lon="6.75771">
        <ele>423</ele>
        <time>2017-02-26T08:56:54.999Z</time>
      </trkpt>
      <trkpt lat="47.50858" lon="6.75778">
        <ele>423.2</ele>
        <time>2017-02-26T08:56:56.999Z</time>
      </trkpt>
      <trkpt lat="47.50859" lon="6.75781">
        <ele>423.2</ele>
        <time>2017-02-26T08:56:57.999Z</time>
      </trkpt>
      <trkpt lat="47.50857" lon="6.75787">
        <ele>423.2</ele>
        <time>2017-02-26T08:57:01.999Z</time>
      </trkpt>
      <trkpt lat="47.50858" lon="6.75789">
        <ele>423.3</ele>
        <time>2017-02-26T08:57:02.999Z</time>
      </trkpt>
      <trkpt lat="47.5086" lon="6.75791">
        <ele>423.7</ele>
        <time>2017-02-26T08:57:04.999Z</time>
      </trkpt>
      <trkpt lat="47.50862" lon="6.75793">
        <ele>423.9</ele>
        <time>2017-02-26T08:57:05.999Z</time>
      </trkpt>
      <trkpt lat="47.50865" lon="6.75796">
        <ele>424.4</ele>
        <time>2017-02-26T08:57:07.999Z</time>
      </trkpt>
      <trkpt lat="47.50866" lon="6.75797">
        <ele>424.6</ele>
        <time>2017-02-26T08:57:08.999Z</time>
      </trkpt>
      <trkpt lat="47.50869" lon="6.75799">
        <ele>425.3</ele>
        <time>2017-02-26T08:57:10.999Z</time>
      </trkpt>
      <trkpt lat="47.50873" lon="6.75801">
        <ele>425.6</ele>
        <time>2017-02-26T08:57:11.999Z</time>
      </trkpt>
      <trkpt lat="47.50876" lon="6.75804">
        <ele>426.2</ele>
        <time>2017-02-26T08:57:13.999Z</time>
      </trkpt>
      <trkpt lat="47.50878" lon="6.75803">
        <ele>426.4</ele>
        <time>2017-02-26T08:57:14.999Z</time>
      </trkpt>
      <trkpt lat="47.50881" lon="6.75805">
        <ele>427.1</ele>
        <time>2017-02-26T08:57:19.999Z</time>
      </trkpt>
      <trkpt lat="47.50882" lon="6.75805">
        <ele>427.3</ele>
        <time>2017-02-26T08:57:20.999Z</time>
      </trkpt>
      <trkpt lat="47.50885" lon="6.75805">
        <ele>427.4</ele>
        <time>2017-02-26T08:57:21.999Z</time>
      </trkpt>
      <trkpt lat="47.50889" lon="6.75805">
        <ele>427.6</ele>
        <time>2017-02-26T08:57:22.999Z</time>
      </trkpt>
      <trkpt lat="47.50892" lon="6.75805">
        <ele>427.7</ele>
        <time>2017-02-26T08:57:23.999Z</time>
      </trkpt>
      <trkpt lat="47.50896" lon="6.75804">
        <ele>427.8</ele>
        <time>2017-02-26T08:57:24.999Z</time>
      </trkpt>
      <trkpt lat="47.50899" lon="6.75805">
        <ele>428</ele>
        <time>2017-02-26T08:57:25.999Z</time>
      </trkpt>
      <trkpt lat="47.50901" lon="6.75805">
        <ele>428.3</ele>
        <time>2017-02-26T08:57:26.999Z</time>
      </trkpt>
      <trkpt lat="47.50905" lon="6.75806">
        <ele>429.1</ele>
        <time>2017-02-26T08:57:29.999Z</time>
      </trkpt>
      <trkpt lat="47.50907" lon="6.75807">
        <ele>429.4</ele>
        <time>2017-02-26T08:57:30.999Z</time>
      </trkpt>
      <trkpt lat="47.50909" lon="6.75808">
        <ele>429.9</ele>
        <time>2017-02-26T08:57:32.999Z</time>
      </trkpt>
      <trkpt lat="47.50912" lon="6.75809">
        <ele>430.1</ele>
        <time>2017-02-26T08:57:33.999Z</time>
      </trkpt>
      <trkpt lat="47.50915" lon="6.75808">
        <ele>430.6</ele>
        <time>2017-02-26T08:57:35.999Z</time>
      </trkpt>
      <trkpt lat="47.50917" lon="6.75809">
        <ele>430.8</ele>
        <time>2017-02-26T08:57:36.999Z</time>
      </trkpt>
      <trkpt lat="47.5092" lon="6.7581">
        <ele>431.2</ele>
        <time>2017-02-26T08:57:38.999Z</time>
      </trkpt>
      <trkpt lat="47.50922" lon="6.75811">
        <ele>431.3</ele>
        <time>2017-02-26T08:57:39.999Z</time>
      </trkpt>
      <trkpt lat="47.50924" lon="6.75811">
        <ele>431.4</ele>
        <time>2017-02-26T08:57:40.999Z</time>
      </trkpt>
      <trkpt lat="47.50926" lon="6.7581">
        <ele>431.6</ele>
        <time>2017-02-26T08:57:41.999Z</time>
      </trkpt>
      <trkpt lat="47.50928" lon="6.75809">
        <ele>431.5</ele>
        <time>2017-02-26T08:57:42.999Z</time>
      </trkpt>
      <trkpt lat="47.50932" lon="6.75811">
        <ele>431.5</ele>
        <time>2017-02-26T08:57:43.999Z</time>
      </trkpt>
      <trkpt lat="47.50935" lon="6.75813">
        <ele>431.4</ele>
        <time>2017-02-26T08:57:44.999Z</time>
      </trkpt>
      <trkpt lat="47.50937" lon="6.75817">
        <ele>431.4</ele>
        <time>2017-02-26T08:57:45.999Z</time>
      </trkpt>
      <trkpt lat="47.5094" lon="6.7582">
        <ele>431.4</ele>
        <time>2017-02-26T08:57:46.999Z</time>
      </trkpt>
      <trkpt lat="47.50943" lon="6.75823">
        <ele>431.3</ele>
        <time>2017-02-26T08:57:47.999Z</time>
      </trkpt>
      <trkpt lat="47.50947" lon="6.75825">
        <ele>431.1</ele>
        <time>2017-02-26T08:57:48.999Z</time>
      </trkpt>
      <trkpt lat="47.5095" lon="6.75827">
        <ele>431</ele>
        <time>2017-02-26T08:57:49.999Z</time>
      </trkpt>
      <trkpt lat="47.50953" lon="6.75828">
        <ele>430.9</ele>
        <time>2017-02-26T08:57:50.999Z</time>
      </trkpt>
      <trkpt lat="47.50958" lon="6.7583">
        <ele>430.8</ele>
        <time>2017-02-26T08:57:51.999Z</time>
      </trkpt>
      <trkpt lat="47.50962" lon="6.75832">
        <ele>430.6</ele>
        <time>2017-02-26T08:57:52.999Z</time>
      </trkpt>
      <trkpt lat="47.50968" lon="6.75833">
        <ele>430.3</ele>
        <time>2017-02-26T08:57:53.999Z</time>
      </trkpt>
      <trkpt lat="47.50976" lon="6.75835">
        <ele>430</ele>
        <time>2017-02-26T08:57:54.999Z</time>
      </trkpt>
      <trkpt lat="47.50982" lon="6.75835">
        <ele>429.7</ele>
        <time>2017-02-26T08:57:55.999Z</time>
      </trkpt>
      <trkpt lat="47.50988" lon="6.75836">
        <ele>429.1</ele>
        <time>2017-02-26T08:57:56.999Z</time>
      </trkpt>
      <trkpt lat="47.50994" lon="6.75836">
        <ele>428.5</ele>
        <time>2017-02-26T08:57:57.999Z</time>
      </trkpt>
      <trkpt lat="47.50998" lon="6.75835">
        <ele>426.3</ele>
        <time>2017-02-26T08:58:01.999Z</time>
      </trkpt>
      <trkpt lat="47.50999" lon="6.75836">
        <ele>426.1</ele>
        <time>2017-02-26T08:58:02.999Z</time>
      </trkpt>
      <trkpt lat="47.51003" lon="6.75836">
        <ele>425.8</ele>
        <time>2017-02-26T08:58:05.999Z</time>
      </trkpt>
      <trkpt lat="47.51008" lon="6.75835">
        <ele>425.7</ele>
        <time>2017-02-26T08:58:06.999Z</time>
      </trkpt>
      <trkpt lat="47.51013" lon="6.75832">
        <ele>425.4</ele>
        <time>2017-02-26T08:58:07.999Z</time>
      </trkpt>
      <trkpt lat="47.51019" lon="6.75829">
        <ele>425.3</ele>
        <time>2017-02-26T08:58:08.999Z</time>
      </trkpt>
      <trkpt lat="47.51024" lon="6.75825">
        <ele>425.3</ele>
        <time>2017-02-26T08:58:09.999Z</time>
      </trkpt>
      <trkpt lat="47.5103" lon="6.7582">
        <ele>425.2</ele>
        <time>2017-02-26T08:58:10.999Z</time>
      </trkpt>
      <trkpt lat="47.51034" lon="6.75815">
        <ele>425.1</ele>
        <time>2017-02-26T08:58:11.999Z</time>
      </trkpt>
      <trkpt lat="47.51042" lon="6.75807">
        <ele>425</ele>
        <time>2017-02-26T08:58:12.999Z</time>
      </trkpt>
      <trkpt lat="47.51046" lon="6.75806">
        <ele>424.7</ele>
        <time>2017-02-26T08:58:13.999Z</time>
      </trkpt>
      <trkpt lat="47.51047" lon="6.75805">
        <ele>424.4</ele>
        <time>2017-02-26T08:58:14.999Z</time>
      </trkpt>
      <trkpt lat="47.51049" lon="6.75806">
        <ele>424.3</ele>
        <time>2017-02-26T08:58:15.999Z</time>
      </trkpt>
      <trkpt lat="47.51051" lon="6.75805">
        <ele>424.1</ele>
        <time>2017-02-26T08:58:16.999Z</time>
      </trkpt>
      <trkpt lat="47.51055" lon="6.7581">
        <ele>423.6</ele>
        <time>2017-02-26T08:58:17.999Z</time>
      </trkpt>
      <trkpt lat="47.51059" lon="6.75817">
        <ele>423.3</ele>
        <time>2017-02-26T08:58:18.999Z</time>
      </trkpt>
      <trkpt lat="47.51061" lon="6.75822">
        <ele>423.2</ele>
        <time>2017-02-26T08:58:19.999Z</time>
      </trkpt>
      <trkpt lat="47.51065" lon="6.75825">
        <ele>421</ele>
        <time>2017-02-26T08:58:32.999Z</time>
      </trkpt>
      <trkpt lat="47.51066" lon="6.75826">
        <ele>420.9</ele>
        <time>2017-02-26T08:58:33.999Z</time>
      </trkpt>
      <trkpt lat="47.51069" lon="6.75826">
        <ele>420.6</ele>
        <time>2017-02-26T08:58:35.999Z</time>
      </trkpt>
      <trkpt lat="47.51071" lon="6.75826">
        <ele>420.5</ele>
        <time>2017-02-26T08:58:36.999Z</time>
      </trkpt>
      <trkpt lat="47.51074" lon="6.75826">
        <ele>420.1</ele>
        <time>2017-02-26T08:58:37.999Z</time>
      </trkpt>
      <trkpt lat="47.51076" lon="6.75826">
        <ele>419.7</ele>
        <time>2017-02-26T08:58:38.999Z</time>
      </trkpt>
      <trkpt lat="47.5108" lon="6.75826">
        <ele>418.9</ele>
        <time>2017-02-26T08:58:40.999Z</time>
      </trkpt>
      <trkpt lat="47.51082" lon="6.75825">
        <ele>418.4</ele>
        <time>2017-02-26T08:58:41.999Z</time>
      </trkpt>
      <trkpt lat="47.51084" lon="6.7582">
        <ele>416.2</ele>
        <time>2017-02-26T08:58:44.999Z</time>
      </trkpt>
      <trkpt lat="47.51086" lon="6.7582">
        <ele>415.3</ele>
        <time>2017-02-26T08:58:45.999Z</time>
      </trkpt>
      <trkpt lat="47.5109" lon="6.75819">
        <ele>414.5</ele>
        <time>2017-02-26T08:58:46.999Z</time>
      </trkpt>
      <trkpt lat="47.51092" lon="6.75818">
        <ele>413.9</ele>
        <time>2017-02-26T08:58:47.999Z</time>
      </trkpt>
      <trkpt lat="47.51094" lon="6.75816">
        <ele>412.8</ele>
        <time>2017-02-26T08:59:22.999Z</time>
      </trkpt>
      <trkpt lat="47.51096" lon="6.75814">
        <ele>412.7</ele>
        <time>2017-02-26T08:59:23.999Z</time>
      </trkpt>
      <trkpt lat="47.51099" lon="6.7581">
        <ele>412.6</ele>
        <time>2017-02-26T08:59:24.999Z</time>
      </trkpt>
      <trkpt lat="47.51103" lon="6.75806">
        <ele>412.4</ele>
        <time>2017-02-26T08:59:25.999Z</time>
      </trkpt>
      <trkpt lat="47.51107" lon="6.75802">
        <ele>412.1</ele>
        <time>2017-02-26T08:59:26.999Z</time>
      </trkpt>
      <trkpt lat="47.51114" lon="6.75797">
        <ele>411.8</ele>
        <time>2017-02-26T08:59:27.999Z</time>
      </trkpt>
      <trkpt lat="47.51118" lon="6.75795">
        <ele>411.4</ele>
        <time>2017-02-26T08:59:28.999Z</time>
      </trkpt>
      <trkpt lat="47.51123" lon="6.75792">
        <ele>410.9</ele>
        <time>2017-02-26T08:59:29.999Z</time>
      </trkpt>
      <trkpt lat="47.51127" lon="6.75792">
        <ele>410.4</ele>
        <time>2017-02-26T08:59:30.999Z</time>
      </trkpt>
      <trkpt lat="47.5113" lon="6.75795">
        <ele>409.9</ele>
        <time>2017-02-26T08:59:31.999Z</time>
      </trkpt>
      <trkpt lat="47.51134" lon="6.75795">
        <ele>409.5</ele>
        <time>2017-02-26T08:59:32.999Z</time>
      </trkpt>
      <trkpt lat="47.51138" lon="6.75793">
        <ele>409.1</ele>
        <time>2017-02-26T08:59:33.999Z</time>
      </trkpt>
      <trkpt lat="47.51143" lon="6.7579">
        <ele>408.7</ele>
        <time>2017-02-26T08:59:34.999Z</time>
      </trkpt>
      <trkpt lat="47.51148" lon="6.7579">
        <ele>408.2</ele>
        <time>2017-02-26T08:59:35.999Z</time>
      </trkpt>
      <trkpt lat="47.5115" lon="6.75785">
        <ele>407.5</ele>
        <time>2017-02-26T08:59:37.999Z</time>
      </trkpt>
      <trkpt lat="47.51152" lon="6.75782">
        <ele>407.2</ele>
        <time>2017-02-26T08:59:38.999Z</time>
      </trkpt>
      <trkpt lat="47.51156" lon="6.75779">
        <ele>403.9</ele>
        <time>2017-02-26T08:59:48.999Z</time>
      </trkpt>
      <trkpt lat="47.51157" lon="6.75778">
        <ele>403.7</ele>
        <time>2017-02-26T08:59:49.999Z</time>
      </trkpt>
      <trkpt lat="47.51158" lon="6.75775">
        <ele>403.4</ele>
        <time>2017-02-26T08:59:51.999Z</time>
      </trkpt>
      <trkpt lat="47.51159" lon="6.75772">
        <ele>403.3</ele>
        <time>2017-02-26T08:59:52.999Z</time>
      </trkpt>
      <trkpt lat="47.51161" lon="6.75767">
        <ele>411</ele>
        <time>2017-02-26T09:01:36.999Z</time>
      </trkpt>
      <trkpt lat="47.51162" lon="6.75765">
        <ele>411.2</ele>
        <time>2017-02-26T09:01:37.999Z</time>
      </trkpt>
      <trkpt lat="47.51164" lon="6.75766">
        <ele>410.7</ele>
        <time>2017-02-26T09:01:43.999Z</time>
      </trkpt>
      <trkpt lat="47.51167" lon="6.75766">
        <ele>410.3</ele>
        <time>2017-02-26T09:01:44.999Z</time>
      </trkpt>
      <trkpt lat="47.51171" lon="6.75768">
        <ele>396.8</ele>
        <time>2017-02-26T09:03:14.999Z</time>
      </trkpt>
      <trkpt lat="47.51172" lon="6.75768">
        <ele>396.3</ele>
        <time>2017-02-26T09:03:15.999Z</time>
      </trkpt>
      <trkpt lat="47.51176" lon="6.7577">
        <ele>394</ele>
        <time>2017-02-26T09:03:21.999Z</time>
      </trkpt>
      <trkpt lat="47.51176" lon="6.75772">
        <ele>393.6</ele>
        <time>2017-02-26T09:03:22.999Z</time>
      </trkpt>
      <trkpt lat="47.51177" lon="6.75777">
        <ele>392.5</ele>
        <time>2017-02-26T09:03:37.999Z</time>
      </trkpt>
      <trkpt lat="47.51177" lon="6.75779">
        <ele>392.6</ele>
        <time>2017-02-26T09:03:38.999Z</time>
      </trkpt>
      <trkpt lat="47.5118" lon="6.75782">
        <ele>393.1</ele>
        <time>2017-02-26T09:03:46.999Z</time>
      </trkpt>
      <trkpt lat="47.5118" lon="6.75783">
        <ele>393.1</ele>
        <time>2017-02-26T09:03:47.999Z</time>
      </trkpt>
      <trkpt lat="47.51183" lon="6.75786">
        <ele>392.9</ele>
        <time>2017-02-26T09:03:57.999Z</time>
      </trkpt>
      <trkpt lat="47.51184" lon="6.75788">
        <ele>392.7</ele>
        <time>2017-02-26T09:03:58.999Z</time>
      </trkpt>
      <trkpt lat="47.51185" lon="6.7579">
        <ele>392.6</ele>
        <time>2017-02-26T09:03:59.999Z</time>
      </trkpt>
      <trkpt lat="47.51187" lon="6.75794">
        <ele>392.4</ele>
        <time>2017-02-26T09:04:00.999Z</time>
      </trkpt>
      <trkpt lat="47.51187" lon="6.75797">
        <ele>392.3</ele>
        <time>2017-02-26T09:04:01.999Z</time>
      </trkpt>
      <trkpt lat="47.51189" lon="6.75801">
        <ele>392.1</ele>
        <time>2017-02-26T09:04:02.999Z</time>
      </trkpt>
      <trkpt lat="47.5119" lon="6.75804">
        <ele>392</ele>
        <time>2017-02-26T09:04:03.999Z</time>
      </trkpt>
      <trkpt lat="47.51191" lon="6.75806">
        <ele>392</ele>
        <time>2017-02-26T09:04:04.999Z</time>
      </trkpt>
      <trkpt lat="47.51192" lon="6.75812">
        <ele>392.1</ele>
        <time>2017-02-26T09:04:07.999Z</time>
      </trkpt>
      <trkpt lat="47.51193" lon="6.75815">
        <ele>392.1</ele>
        <time>2017-02-26T09:04:08.999Z</time>
      </trkpt>
      <trkpt lat="47.51195" lon="6.7582">
        <ele>392.1</ele>
        <time>2017-02-26T09:04:12.999Z</time>
      </trkpt>
      <trkpt lat="47.51196" lon="6.75821">
        <ele>392.1</ele>
        <time>2017-02-26T09:04:13.999Z</time>
      </trkpt>
      <trkpt lat="47.51199" lon="6.75826">
        <ele>391.9</ele>
        <time>2017-02-26T09:04:17.999Z</time>
      </trkpt>
      <trkpt lat="47.51199" lon="6.75828">
        <ele>391.8</ele>
        <time>2017-02-26T09:04:18.999Z</time>
      </trkpt>
      <trkpt lat="47.51198" lon="6.75832">
        <ele>391.8</ele>
        <time>2017-02-26T09:04:21.999Z</time>
      </trkpt>
      <trkpt lat="47.51198" lon="6.75834">
        <ele>391.8</ele>
        <time>2017-02-26T09:04:22.999Z</time>
      </trkpt>
      <trkpt lat="47.51199" lon="6.75839">
        <ele>391.9</ele>
        <time>2017-02-26T09:04:26.999Z</time>
      </trkpt>
      <trkpt lat="47.51199" lon="6.75842">
        <ele>391.9</ele>
        <time>2017-02-26T09:04:27.999Z</time>
      </trkpt>
      <trkpt lat="47.51199" lon="6.75848">
        <ele>392</ele>
        <time>2017-02-26T09:04:29.999Z</time>
      </trkpt>
      <trkpt lat="47.51199" lon="6.7585">
        <ele>392</ele>
        <time>2017-02-26T09:04:30.999Z</time>
      </trkpt>
      <trkpt lat="47.51201" lon="6.75855">
        <ele>391.9</ele>
        <time>2017-02-26T09:04:33.999Z</time>
      </trkpt>
      <trkpt lat="47.51202" lon="6.75857">
        <ele>391.9</ele>
        <time>2017-02-26T09:04:34.999Z</time>
      </trkpt>
      <trkpt lat="47.51203" lon="6.75862">
        <ele>391.9</ele>
        <time>2017-02-26T09:04:39.999Z</time>
      </trkpt>
      <trkpt lat="47.51203" lon="6.75864">
        <ele>391.8</ele>
        <time>2017-02-26T09:04:40.999Z</time>
      </trkpt>
      <trkpt lat="47.51204" lon="6.7587">
        <ele>391.6</ele>
        <time>2017-02-26T09:04:46.999Z</time>
      </trkpt>
      <trkpt lat="47.51203" lon="6.75872">
        <ele>391.6</ele>
        <time>2017-02-26T09:04:47.999Z</time>
      </trkpt>
      <trkpt lat="47.51205" lon="6.75877">
        <ele>391.4</ele>
        <time>2017-02-26T09:04:52.999Z</time>
      </trkpt>
      <trkpt lat="47.51205" lon="6.75879">
        <ele>391.4</ele>
        <time>2017-02-26T09:04:53.999Z</time>
      </trkpt>
      <trkpt lat="47.51206" lon="6.75884">
        <ele>391.2</ele>
        <time>2017-02-26T09:04:56.999Z</time>
      </trkpt>
      <trkpt lat="47.51206" lon="6.75885">
        <ele>391.2</ele>
        <time>2017-02-26T09:04:57.999Z</time>
      </trkpt>
      <trkpt lat="47.51207" lon="6.75891">
        <ele>391.2</ele>
        <time>2017-02-26T09:05:02.999Z</time>
      </trkpt>
      <trkpt lat="47.51208" lon="6.75893">
        <ele>391.3</ele>
        <time>2017-02-26T09:05:03.999Z</time>
      </trkpt>
      <trkpt lat="47.5121" lon="6.75898">
        <ele>391.2</ele>
        <time>2017-02-26T09:05:06.999Z</time>
      </trkpt>
      <trkpt lat="47.51211" lon="6.75899">
        <ele>391.1</ele>
        <time>2017-02-26T09:05:07.999Z</time>
      </trkpt>
      <trkpt lat="47.51214" lon="6.75903">
        <ele>391</ele>
        <time>2017-02-26T09:05:12.999Z</time>
      </trkpt>
      <trkpt lat="47.51213" lon="6.75905">
        <ele>391</ele>
        <time>2017-02-26T09:05:13.999Z</time>
      </trkpt>
      <trkpt lat="47.51215" lon="6.75911">
        <ele>390.9</ele>
        <time>2017-02-26T09:05:17.999Z</time>
      </trkpt>
      <trkpt lat="47.51216" lon="6.75913">
        <ele>391</ele>
        <time>2017-02-26T09:05:18.999Z</time>
      </trkpt>
      <trkpt lat="47.51218" lon="6.75918">
        <ele>391.3</ele>
        <time>2017-02-26T09:05:21.999Z</time>
      </trkpt>
      <trkpt lat="47.51218" lon="6.75921">
        <ele>391.3</ele>
        <time>2017-02-26T09:05:22.999Z</time>
      </trkpt>
      <trkpt lat="47.51219" lon="6.75927">
        <ele>391.5</ele>
        <time>2017-02-26T09:05:24.999Z</time>
      </trkpt>
      <trkpt lat="47.5122" lon="6.75929">
        <ele>391.5</ele>
        <time>2017-02-26T09:05:25.999Z</time>
      </trkpt>
      <trkpt lat="47.5122" lon="6.75934">
        <ele>391.5</ele>
        <time>2017-02-26T09:05:30.000Z</time>
      </trkpt>
      <trkpt lat="47.51221" lon="6.75935">
        <ele>391.4</ele>
        <time>2017-02-26T09:05:31.000Z</time>
      </trkpt>
      <trkpt lat="47.51224" lon="6.7594">
        <ele>391.4</ele>
        <time>2017-02-26T09:05:35.000Z</time>
      </trkpt>
      <trkpt lat="47.51224" lon="6.75942">
        <ele>391.5</ele>
        <time>2017-02-26T09:05:36.000Z</time>
      </trkpt>
      <trkpt lat="47.51224" lon="6.75948">
        <ele>391.6</ele>
        <time>2017-02-26T09:05:40.000Z</time>
      </trkpt>
      <trkpt lat="47.51224" lon="6.75951">
        <ele>391.7</ele>
        <time>2017-02-26T09:05:41.000Z</time>
      </trkpt>
      <trkpt lat="47.51225" lon="6.75955">
        <ele>391.7</ele>
        <time>2017-02-26T09:05:45.000Z</time>
      </trkpt>
      <trkpt lat="47.51225" lon="6.75958">
        <ele>391.7</ele>
        <time>2017-02-26T09:05:46.000Z</time>
      </trkpt>
      <trkpt lat="47.51226" lon="6.75962">
        <ele>391.8</ele>
        <time>2017-02-26T09:05:48.000Z</time>
      </trkpt>
      <trkpt lat="47.51228" lon="6.75964">
        <ele>391.8</ele>
        <time>2017-02-26T09:05:49.000Z</time>
      </trkpt>
      <trkpt lat="47.51229" lon="6.7597">
        <ele>392</ele>
        <time>2017-02-26T09:05:53.000Z</time>
      </trkpt>
      <trkpt lat="47.51229" lon="6.75972">
        <ele>392.1</ele>
        <time>2017-02-26T09:05:54.000Z</time>
      </trkpt>
      <trkpt lat="47.51231" lon="6.75977">
        <ele>392.5</ele>
        <time>2017-02-26T09:05:58.000Z</time>
      </trkpt>
      <trkpt lat="47.51231" lon="6.75982">
        <ele>392.5</ele>
        <time>2017-02-26T09:05:59.000Z</time>
      </trkpt>
      <trkpt lat="47.51233" lon="6.75987">
        <ele>392.5</ele>
        <time>2017-02-26T09:06:04.000Z</time>
      </trkpt>
      <trkpt lat="47.51233" lon="6.75988">
        <ele>392.5</ele>
        <time>2017-02-26T09:06:05.000Z</time>
      </trkpt>
      <trkpt lat="47.51236" lon="6.75992">
        <ele>392.6</ele>
        <time>2017-02-26T09:06:11.000Z</time>
      </trkpt>
      <trkpt lat="47.51236" lon="6.75994">
        <ele>392.7</ele>
        <time>2017-02-26T09:06:12.000Z</time>
      </trkpt>
      <trkpt lat="47.51237" lon="6.75999">
        <ele>393.5</ele>
        <time>2017-02-26T09:06:16.000Z</time>
      </trkpt>
      <trkpt lat="47.51237" lon="6.76002">
        <ele>393.7</ele>
        <time>2017-02-26T09:06:17.000Z</time>
      </trkpt>
      <trkpt lat="47.51238" lon="6.76006">
        <ele>394.5</ele>
        <time>2017-02-26T09:06:20.000Z</time>
      </trkpt>
      <trkpt lat="47.51239" lon="6.76014">
        <ele>394.6</ele>
        <time>2017-02-26T09:06:21.000Z</time>
      </trkpt>
      <trkpt lat="47.51239" lon="6.76019">
        <ele>394.7</ele>
        <time>2017-02-26T09:06:23.000Z</time>
      </trkpt>
      <trkpt lat="47.51238" lon="6.76021">
        <ele>394.7</ele>
        <time>2017-02-26T09:06:24.000Z</time>
      </trkpt>
      <trkpt lat="47.51239" lon="6.76026">
        <ele>394.9</ele>
        <time>2017-02-26T09:06:26.000Z</time>
      </trkpt>
      <trkpt lat="47.51239" lon="6.76028">
        <ele>394.9</ele>
        <time>2017-02-26T09:06:27.000Z</time>
      </trkpt>
      <trkpt lat="47.51239" lon="6.76034">
        <ele>395.6</ele>
        <time>2017-02-26T09:06:32.000Z</time>
      </trkpt>
      <trkpt lat="47.51239" lon="6.76035">
        <ele>395.7</ele>
        <time>2017-02-26T09:06:33.000Z</time>
      </trkpt>
      <trkpt lat="47.51241" lon="6.7604">
        <ele>395.7</ele>
        <time>2017-02-26T09:06:37.000Z</time>
      </trkpt>
      <trkpt lat="47.51241" lon="6.76041">
        <ele>395.7</ele>
        <time>2017-02-26T09:06:38.000Z</time>
      </trkpt>
      <trkpt lat="47.51244" lon="6.76046">
        <ele>395.4</ele>
        <time>2017-02-26T09:06:43.000Z</time>
      </trkpt>
      <trkpt lat="47.51244" lon="6.76049">
        <ele>395.3</ele>
        <time>2017-02-26T09:06:44.000Z</time>
      </trkpt>
      <trkpt lat="47.51246" lon="6.76054">
        <ele>395.4</ele>
        <time>2017-02-26T09:06:48.000Z</time>
      </trkpt>
      <trkpt lat="47.51246" lon="6.76054">
        <ele>395.5</ele>
        <time>2017-02-26T09:06:49.000Z</time>
      </trkpt>
      <trkpt lat="47.51247" lon="6.7606">
        <ele>395.6</ele>
        <time>2017-02-26T09:06:53.000Z</time>
      </trkpt>
      <trkpt lat="47.51247" lon="6.76062">
        <ele>395.7</ele>
        <time>2017-02-26T09:06:54.000Z</time>
      </trkpt>
      <trkpt lat="47.51249" lon="6.76066">
        <ele>396.3</ele>
        <time>2017-02-26T09:06:59.000Z</time>
      </trkpt>
      <trkpt lat="47.51249" lon="6.76068">
        <ele>396.4</ele>
        <time>2017-02-26T09:07:00.000Z</time>
      </trkpt>
      <trkpt lat="47.5125" lon="6.76074">
        <ele>396.7</ele>
        <time>2017-02-26T09:07:03.000Z</time>
      </trkpt>
      <trkpt lat="47.51249" lon="6.76078">
        <ele>396.7</ele>
        <time>2017-02-26T09:07:04.000Z</time>
      </trkpt>
      <trkpt lat="47.5125" lon="6.76083">
        <ele>396.9</ele>
        <time>2017-02-26T09:07:06.000Z</time>
      </trkpt>
      <trkpt lat="47.51249" lon="6.76085">
        <ele>397</ele>
        <time>2017-02-26T09:07:07.000Z</time>
      </trkpt>
      <trkpt lat="47.51249" lon="6.76091">
        <ele>397</ele>
        <time>2017-02-26T09:07:09.000Z</time>
      </trkpt>
      <trkpt lat="47.51248" lon="6.76093">
        <ele>397.1</ele>
        <time>2017-02-26T09:07:10.000Z</time>
      </trkpt>
      <trkpt lat="47.51249" lon="6.76099">
        <ele>397.4</ele>
        <time>2017-02-26T09:07:14.000Z</time>
      </trkpt>
      <trkpt lat="47.51249" lon="6.76101">
        <ele>397.5</ele>
        <time>2017-02-26T09:07:15.000Z</time>
      </trkpt>
      <trkpt lat="47.51249" lon="6.76107">
        <ele>397.6</ele>
        <time>2017-02-26T09:07:18.000Z</time>
      </trkpt>
      <trkpt lat="47.51248" lon="6.76109">
        <ele>397.7</ele>
        <time>2017-02-26T09:07:19.000Z</time>
      </trkpt>
      <trkpt lat="47.51249" lon="6.76114">
        <ele>397.9</ele>
        <time>2017-02-26T09:07:21.000Z</time>
      </trkpt>
      <trkpt lat="47.51249" lon="6.76116">
        <ele>397.9</ele>
        <time>2017-02-26T09:07:22.000Z</time>
      </trkpt>
      <trkpt lat="47.51249" lon="6.76122">
        <ele>397.7</ele>
        <time>2017-02-26T09:07:25.000Z</time>
      </trkpt>
      <trkpt lat="47.5125" lon="6.76124">
        <ele>397.7</ele>
        <time>2017-02-26T09:07:26.000Z</time>
      </trkpt>
      <trkpt lat="47.5125" lon="6.7613">
        <ele>397.6</ele>
        <time>2017-02-26T09:07:29.000Z</time>
      </trkpt>
      <trkpt lat="47.51249" lon="6.76131">
        <ele>397.5</ele>
        <time>2017-02-26T09:07:30.000Z</time>
      </trkpt>
      <trkpt lat="47.51249" lon="6.76136">
        <ele>397.5</ele>
        <time>2017-02-26T09:07:33.000Z</time>
      </trkpt>
      <trkpt lat="47.5125" lon="6.76138">
        <ele>397.5</ele>
        <time>2017-02-26T09:07:34.000Z</time>
      </trkpt>
      <trkpt lat="47.51251" lon="6.76143">
        <ele>397.8</ele>
        <time>2017-02-26T09:07:37.000Z</time>
      </trkpt>
      <trkpt lat="47.51252" lon="6.76145">
        <ele>397.9</ele>
        <time>2017-02-26T09:07:38.000Z</time>
      </trkpt>
      <trkpt lat="47.51252" lon="6.76151">
        <ele>398.1</ele>
        <time>2017-02-26T09:07:42.000Z</time>
      </trkpt>
      <trkpt lat="47.51252" lon="6.76153">
        <ele>398.2</ele>
        <time>2017-02-26T09:07:43.000Z</time>
      </trkpt>
      <trkpt lat="47.51252" lon="6.76158">
        <ele>398.4</ele>
        <time>2017-02-26T09:07:46.000Z</time>
      </trkpt>
      <trkpt lat="47.51252" lon="6.7616">
        <ele>398.3</ele>
        <time>2017-02-26T09:07:47.000Z</time>
      </trkpt>
      <trkpt lat="47.51253" lon="6.76165">
        <ele>398.3</ele>
        <time>2017-02-26T09:07:50.000Z</time>
      </trkpt>
      <trkpt lat="47.51252" lon="6.76166">
        <ele>398.4</ele>
        <time>2017-02-26T09:07:51.000Z</time>
      </trkpt>
      <trkpt lat="47.51252" lon="6.76172">
        <ele>398.5</ele>
        <time>2017-02-26T09:07:54.000Z</time>
      </trkpt>
      <trkpt lat="47.51251" lon="6.76174">
        <ele>398.5</ele>
        <time>2017-02-26T09:07:55.000Z</time>
      </trkpt>
      <trkpt lat="47.51252" lon="6.76179">
        <ele>398.4</ele>
        <time>2017-02-26T09:07:58.000Z</time>
      </trkpt>
      <trkpt lat="47.51252" lon="6.76181">
        <ele>398.4</ele>
        <time>2017-02-26T09:07:59.000Z</time>
      </trkpt>
      <trkpt lat="47.51255" lon="6.76186">
        <ele>398.2</ele>
        <time>2017-02-26T09:08:02.000Z</time>
      </trkpt>
      <trkpt lat="47.51255" lon="6.76188">
        <ele>398.1</ele>
        <time>2017-02-26T09:08:03.000Z</time>
      </trkpt>
      <trkpt lat="47.51257" lon="6.76193">
        <ele>397.9</ele>
        <time>2017-02-26T09:08:06.000Z</time>
      </trkpt>
      <trkpt lat="47.51258" lon="6.76194">
        <ele>397.8</ele>
        <time>2017-02-26T09:08:07.000Z</time>
      </trkpt>
      <trkpt lat="47.51259" lon="6.76199">
        <ele>397.8</ele>
        <time>2017-02-26T09:08:14.000Z</time>
      </trkpt>
      <trkpt lat="47.51259" lon="6.76201">
        <ele>397.9</ele>
        <time>2017-02-26T09:08:15.000Z</time>
      </trkpt>
      <trkpt lat="47.5126" lon="6.76208">
        <ele>399.1</ele>
        <time>2017-02-26T09:08:25.000Z</time>
      </trkpt>
      <trkpt lat="47.51261" lon="6.76209">
        <ele>399.1</ele>
        <time>2017-02-26T09:08:26.000Z</time>
      </trkpt>
      <trkpt lat="47.51264" lon="6.76213">
        <ele>399</ele>
        <time>2017-02-26T09:08:29.000Z</time>
      </trkpt>
      <trkpt lat="47.51264" lon="6.76215">
        <ele>399</ele>
        <time>2017-02-26T09:08:30.000Z</time>
      </trkpt>
      <trkpt lat="47.51266" lon="6.76221">
        <ele>399.2</ele>
        <time>2017-02-26T09:08:34.000Z</time>
      </trkpt>
      <trkpt lat="47.51266" lon="6.76222">
        <ele>399.2</ele>
        <time>2017-02-26T09:08:35.000Z</time>
      </trkpt>
      <trkpt lat="47.5127" lon="6.76224">
        <ele>399.4</ele>
        <time>2017-02-26T09:08:40.000Z</time>
      </trkpt>
      <trkpt lat="47.51271" lon="6.76225">
        <ele>399.4</ele>
        <time>2017-02-26T09:08:41.000Z</time>
      </trkpt>
      <trkpt lat="47.51273" lon="6.76229">
        <ele>399.5</ele>
        <time>2017-02-26T09:08:47.000Z</time>
      </trkpt>
      <trkpt lat="47.51273" lon="6.76231">
        <ele>399.4</ele>
        <time>2017-02-26T09:08:48.000Z</time>
      </trkpt>
      <trkpt lat="47.51274" lon="6.76236">
        <ele>399.5</ele>
        <time>2017-02-26T09:08:51.000Z</time>
      </trkpt>
      <trkpt lat="47.51274" lon="6.76237">
        <ele>399.5</ele>
        <time>2017-02-26T09:08:52.000Z</time>
      </trkpt>
      <trkpt lat="47.51276" lon="6.76241">
        <ele>399.2</ele>
        <time>2017-02-26T09:08:56.000Z</time>
      </trkpt>
      <trkpt lat="47.51278" lon="6.76244">
        <ele>399.1</ele>
        <time>2017-02-26T09:08:57.000Z</time>
      </trkpt>
      <trkpt lat="47.5128" lon="6.76249">
        <ele>398.7</ele>
        <time>2017-02-26T09:08:59.000Z</time>
      </trkpt>
      <trkpt lat="47.51281" lon="6.76252">
        <ele>398.6</ele>
        <time>2017-02-26T09:09:00.000Z</time>
      </trkpt>
      <trkpt lat="47.51283" lon="6.76254">
        <ele>398.5</ele>
        <time>2017-02-26T09:09:01.000Z</time>
      </trkpt>
      <trkpt lat="47.51286" lon="6.76256">
        <ele>398.5</ele>
        <time>2017-02-26T09:09:02.000Z</time>
      </trkpt>
      <trkpt lat="47.51287" lon="6.76259">
        <ele>398.4</ele>
        <time>2017-02-26T09:09:03.000Z</time>
      </trkpt>
      <trkpt lat="47.51289" lon="6.76262">
        <ele>398.3</ele>
        <time>2017-02-26T09:09:04.000Z</time>
      </trkpt>
      <trkpt lat="47.5129" lon="6.76268">
        <ele>398.1</ele>
        <time>2017-02-26T09:09:06.000Z</time>
      </trkpt>
      <trkpt lat="47.51291" lon="6.7627">
        <ele>398.1</ele>
        <time>2017-02-26T09:09:07.000Z</time>
      </trkpt>
      <trkpt lat="47.51292" lon="6.76275">
        <ele>397.9</ele>
        <time>2017-02-26T09:09:10.000Z</time>
      </trkpt>
      <trkpt lat="47.51293" lon="6.76278">
        <ele>397.9</ele>
        <time>2017-02-26T09:09:11.000Z</time>
      </trkpt>
      <trkpt lat="47.51294" lon="6.76283">
        <ele>397.8</ele>
        <time>2017-02-26T09:09:14.000Z</time>
      </trkpt>
      <trkpt lat="47.51295" lon="6.76285">
        <ele>397.8</ele>
        <time>2017-02-26T09:09:15.000Z</time>
      </trkpt>
      <trkpt lat="47.51296" lon="6.76289">
        <ele>397.7</ele>
        <time>2017-02-26T09:09:17.000Z</time>
      </trkpt>
      <trkpt lat="47.51297" lon="6.76291">
        <ele>397.6</ele>
        <time>2017-02-26T09:09:18.000Z</time>
      </trkpt>
      <trkpt lat="47.51299" lon="6.76294">
        <ele>397.7</ele>
        <time>2017-02-26T09:09:20.000Z</time>
      </trkpt>
      <trkpt lat="47.513" lon="6.76297">
        <ele>397.7</ele>
        <time>2017-02-26T09:09:21.000Z</time>
      </trkpt>
      <trkpt lat="47.51302" lon="6.76302">
        <ele>397.8</ele>
        <time>2017-02-26T09:09:23.000Z</time>
      </trkpt>
      <trkpt lat="47.51303" lon="6.76305">
        <ele>397.8</ele>
        <time>2017-02-26T09:09:24.000Z</time>
      </trkpt>
      <trkpt lat="47.51305" lon="6.7631">
        <ele>397.7</ele>
        <time>2017-02-26T09:09:27.000Z</time>
      </trkpt>
      <trkpt lat="47.51306" lon="6.76311">
        <ele>397.7</ele>
        <time>2017-02-26T09:09:28.000Z</time>
      </trkpt>
      <trkpt lat="47.51308" lon="6.76315">
        <ele>397.5</ele>
        <time>2017-02-26T09:09:30.000Z</time>
      </trkpt>
      <trkpt lat="47.51309" lon="6.76317">
        <ele>397.5</ele>
        <time>2017-02-26T09:09:31.000Z</time>
      </trkpt>
      <trkpt lat="47.51309" lon="6.76321">
        <ele>397.3</ele>
        <time>2017-02-26T09:09:35.000Z</time>
      </trkpt>
      <trkpt lat="47.51311" lon="6.76323">
        <ele>397.2</ele>
        <time>2017-02-26T09:09:36.000Z</time>
      </trkpt>
      <trkpt lat="47.51312" lon="6.76326">
        <ele>397.1</ele>
        <time>2017-02-26T09:09:37.000Z</time>
      </trkpt>
      <trkpt lat="47.51314" lon="6.76329">
        <ele>397</ele>
        <time>2017-02-26T09:09:38.000Z</time>
      </trkpt>
      <trkpt lat="47.51316" lon="6.76333">
        <ele>396.9</ele>
        <time>2017-02-26T09:09:41.000Z</time>
      </trkpt>
      <trkpt lat="47.51317" lon="6.76335">
        <ele>396.9</ele>
        <time>2017-02-26T09:09:42.000Z</time>
      </trkpt>
      <trkpt lat="47.5132" lon="6.7634">
        <ele>397</ele>
        <time>2017-02-26T09:09:46.000Z</time>
      </trkpt>
      <trkpt lat="47.5132" lon="6.7634">
        <ele>397.1</ele>
        <time>2017-02-26T09:09:47.000Z</time>
      </trkpt>
      <trkpt lat="47.5132" lon="6.76347">
        <ele>397.6</ele>
        <time>2017-02-26T09:10:04.000Z</time>
      </trkpt>
      <trkpt lat="47.5132" lon="6.76347">
        <ele>397.5</ele>
        <time>2017-02-26T09:10:05.000Z</time>
      </trkpt>
      <trkpt lat="47.51321" lon="6.7635">
        <ele>397.1</ele>
        <time>2017-02-26T09:10:12.000Z</time>
      </trkpt>
      <trkpt lat="47.51323" lon="6.76354">
        <ele>397.1</ele>
        <time>2017-02-26T09:10:13.000Z</time>
      </trkpt>
      <trkpt lat="47.51325" lon="6.76358">
        <ele>397.1</ele>
        <time>2017-02-26T09:10:14.000Z</time>
      </trkpt>
      <trkpt lat="47.51327" lon="6.7636">
        <ele>397.1</ele>
        <time>2017-02-26T09:10:15.000Z</time>
      </trkpt>
      <trkpt lat="47.51329" lon="6.76362">
        <ele>397.1</ele>
        <time>2017-02-26T09:10:16.000Z</time>
      </trkpt>
      <trkpt lat="47.5133" lon="6.76365">
        <ele>397.1</ele>
        <time>2017-02-26T09:10:17.000Z</time>
      </trkpt>
      <trkpt lat="47.51331" lon="6.76372">
        <ele>397</ele>
        <time>2017-02-26T09:10:19.000Z</time>
      </trkpt>
      <trkpt lat="47.51331" lon="6.76373">
        <ele>397.1</ele>
        <time>2017-02-26T09:10:20.000Z</time>
      </trkpt>
      <trkpt lat="47.51333" lon="6.76378">
        <ele>397.1</ele>
        <time>2017-02-26T09:10:22.000Z</time>
      </trkpt>
      <trkpt lat="47.51334" lon="6.76379">
        <ele>397.2</ele>
        <time>2017-02-26T09:10:23.000Z</time>
      </trkpt>
      <trkpt lat="47.51336" lon="6.76381">
        <ele>397.3</ele>
        <time>2017-02-26T09:10:25.000Z</time>
      </trkpt>
      <trkpt lat="47.51337" lon="6.76384">
        <ele>397.4</ele>
        <time>2017-02-26T09:10:26.000Z</time>
      </trkpt>
      <trkpt lat="47.51339" lon="6.7639">
        <ele>397.5</ele>
        <time>2017-02-26T09:10:29.000Z</time>
      </trkpt>
      <trkpt lat="47.51339" lon="6.76392">
        <ele>397.6</ele>
        <time>2017-02-26T09:10:30.000Z</time>
      </trkpt>
      <trkpt lat="47.5134" lon="6.76395">
        <ele>397.7</ele>
        <time>2017-02-26T09:10:32.000Z</time>
      </trkpt>
      <trkpt lat="47.51342" lon="6.76398">
        <ele>397.7</ele>
        <time>2017-02-26T09:10:33.000Z</time>
      </trkpt>
      <trkpt lat="47.51344" lon="6.76403">
        <ele>397.8</ele>
        <time>2017-02-26T09:10:35.000Z</time>
      </trkpt>
      <trkpt lat="47.51345" lon="6.76405">
        <ele>397.8</ele>
        <time>2017-02-26T09:10:36.000Z</time>
      </trkpt>
      <trkpt lat="47.51346" lon="6.76407">
        <ele>397.8</ele>
        <time>2017-02-26T09:10:37.000Z</time>
      </trkpt>
      <trkpt lat="47.51347" lon="6.76411">
        <ele>397.9</ele>
        <time>2017-02-26T09:10:38.000Z</time>
      </trkpt>
      <trkpt lat="47.51349" lon="6.76416">
        <ele>398.2</ele>
        <time>2017-02-26T09:10:41.000Z</time>
      </trkpt>
      <trkpt lat="47.51349" lon="6.76417">
        <ele>398.2</ele>
        <time>2017-02-26T09:10:42.000Z</time>
      </trkpt>
      <trkpt lat="47.5135" lon="6.76423">
        <ele>398.2</ele>
        <time>2017-02-26T09:10:45.000Z</time>
      </trkpt>
      <trkpt lat="47.51351" lon="6.76426">
        <ele>398.3</ele>
        <time>2017-02-26T09:10:46.000Z</time>
      </trkpt>
      <trkpt lat="47.51353" lon="6.76432">
        <ele>398.3</ele>
        <time>2017-02-26T09:10:49.000Z</time>
      </trkpt>
      <trkpt lat="47.51354" lon="6.76432">
        <ele>398.3</ele>
        <time>2017-02-26T09:10:50.000Z</time>
      </trkpt>
      <trkpt lat="47.51357" lon="6.76434">
        <ele>398.1</ele>
        <time>2017-02-26T09:10:54.000Z</time>
      </trkpt>
      <trkpt lat="47.51358" lon="6.76435">
        <ele>398.1</ele>
        <time>2017-02-26T09:10:55.000Z</time>
      </trkpt>
      <trkpt lat="47.51361" lon="6.76437">
        <ele>398.1</ele>
        <time>2017-02-26T09:10:58.000Z</time>
      </trkpt>
      <trkpt lat="47.51363" lon="6.76437">
        <ele>398.2</ele>
        <time>2017-02-26T09:10:59.000Z</time>
      </trkpt>
      <trkpt lat="47.51367" lon="6.76439">
        <ele>398.6</ele>
        <time>2017-02-26T09:11:02.000Z</time>
      </trkpt>
      <trkpt lat="47.51368" lon="6.76439">
        <ele>398.7</ele>
        <time>2017-02-26T09:11:03.000Z</time>
      </trkpt>
      <trkpt lat="47.51372" lon="6.76441">
        <ele>399.7</ele>
        <time>2017-02-26T09:11:07.000Z</time>
      </trkpt>
      <trkpt lat="47.51373" lon="6.76441">
        <ele>400</ele>
        <time>2017-02-26T09:11:08.000Z</time>
      </trkpt>
      <trkpt lat="47.51374" lon="6.76446">
        <ele>400.6</ele>
        <time>2017-02-26T09:11:11.000Z</time>
      </trkpt>
      <trkpt lat="47.51374" lon="6.76448">
        <ele>400.7</ele>
        <time>2017-02-26T09:11:12.000Z</time>
      </trkpt>
      <trkpt lat="47.51371" lon="6.76453">
        <ele>401.2</ele>
        <time>2017-02-26T09:11:17.000Z</time>
      </trkpt>
      <trkpt lat="47.51371" lon="6.76454">
        <ele>401.3</ele>
        <time>2017-02-26T09:11:18.000Z</time>
      </trkpt>
      <trkpt lat="47.51369" lon="6.7646">
        <ele>401.5</ele>
        <time>2017-02-26T09:11:21.000Z</time>
      </trkpt>
      <trkpt lat="47.51369" lon="6.76461">
        <ele>401.5</ele>
        <time>2017-02-26T09:11:22.000Z</time>
      </trkpt>
      <trkpt lat="47.51369" lon="6.76464">
        <ele>401.5</ele>
        <time>2017-02-26T09:11:24.000Z</time>
      </trkpt>
      <trkpt lat="47.5137" lon="6.76468">
        <ele>401.5</ele>
        <time>2017-02-26T09:11:25.000Z</time>
      </trkpt>
      <trkpt lat="47.51372" lon="6.76473">
        <ele>401.2</ele>
        <time>2017-02-26T09:11:28.000Z</time>
      </trkpt>
      <trkpt lat="47.51373" lon="6.76476">
        <ele>401.2</ele>
        <time>2017-02-26T09:11:29.000Z</time>
      </trkpt>
      <trkpt lat="47.51375" lon="6.7648">
        <ele>401.3</ele>
        <time>2017-02-26T09:11:31.000Z</time>
      </trkpt>
      <trkpt lat="47.51376" lon="6.76481">
        <ele>401.3</ele>
        <time>2017-02-26T09:11:32.000Z</time>
      </trkpt>
      <trkpt lat="47.51378" lon="6.76487">
        <ele>401.1</ele>
        <time>2017-02-26T09:11:35.000Z</time>
      </trkpt>
      <trkpt lat="47.51379" lon="6.76488">
        <ele>400.9</ele>
        <time>2017-02-26T09:11:36.000Z</time>
      </trkpt>
      <trkpt lat="47.51379" lon="6.76492">
        <ele>400.6</ele>
        <time>2017-02-26T09:11:38.000Z</time>
      </trkpt>
      <trkpt lat="47.5138" lon="6.76497">
        <ele>400.5</ele>
        <time>2017-02-26T09:11:39.000Z</time>
      </trkpt>
      <trkpt lat="47.51381" lon="6.76501">
        <ele>400.3</ele>
        <time>2017-02-26T09:11:41.000Z</time>
      </trkpt>
      <trkpt lat="47.51382" lon="6.76503">
        <ele>400.2</ele>
        <time>2017-02-26T09:11:42.000Z</time>
      </trkpt>
      <trkpt lat="47.51384" lon="6.76508">
        <ele>400</ele>
        <time>2017-02-26T09:11:44.000Z</time>
      </trkpt>
      <trkpt lat="47.51385" lon="6.7651">
        <ele>399.9</ele>
        <time>2017-02-26T09:11:45.000Z</time>
      </trkpt>
      <trkpt lat="47.51388" lon="6.76513">
        <ele>399.4</ele>
        <time>2017-02-26T09:11:50.000Z</time>
      </trkpt>
      <trkpt lat="47.5139" lon="6.76515">
        <ele>399.4</ele>
        <time>2017-02-26T09:11:51.000Z</time>
      </trkpt>
      <trkpt lat="47.5139" lon="6.76521">
        <ele>399.9</ele>
        <time>2017-02-26T09:11:57.000Z</time>
      </trkpt>
      <trkpt lat="47.51389" lon="6.76523">
        <ele>400</ele>
        <time>2017-02-26T09:11:58.000Z</time>
      </trkpt>
      <trkpt lat="47.51387" lon="6.76527">
        <ele>400.2</ele>
        <time>2017-02-26T09:12:02.000Z</time>
      </trkpt>
      <trkpt lat="47.51384" lon="6.76531">
        <ele>400.3</ele>
        <time>2017-02-26T09:12:03.000Z</time>
      </trkpt>
      <trkpt lat="47.51382" lon="6.76534">
        <ele>400.4</ele>
        <time>2017-02-26T09:12:04.000Z</time>
      </trkpt>
      <trkpt lat="47.5138" lon="6.76536">
        <ele>400.4</ele>
        <time>2017-02-26T09:12:05.000Z</time>
      </trkpt>
      <trkpt lat="47.51376" lon="6.7654">
        <ele>400.6</ele>
        <time>2017-02-26T09:12:07.000Z</time>
      </trkpt>
      <trkpt lat="47.51373" lon="6.76543">
        <ele>400.6</ele>
        <time>2017-02-26T09:12:08.000Z</time>
      </trkpt>
      <trkpt lat="47.51369" lon="6.76545">
        <ele>400.6</ele>
        <time>2017-02-26T09:12:09.000Z</time>
      </trkpt>
      <trkpt lat="47.51366" lon="6.76547">
        <ele>400.7</ele>
        <time>2017-02-26T09:12:10.000Z</time>
      </trkpt>
      <trkpt lat="47.51363" lon="6.76547">
        <ele>400.9</ele>
        <time>2017-02-26T09:12:12.000Z</time>
      </trkpt>
      <trkpt lat="47.51361" lon="6.76548">
        <ele>401</ele>
        <time>2017-02-26T09:12:13.000Z</time>
      </trkpt>
      <trkpt lat="47.51357" lon="6.76549">
        <ele>401.7</ele>
        <time>2017-02-26T09:12:18.000Z</time>
      </trkpt>
      <trkpt lat="47.51356" lon="6.76549">
        <ele>401.9</ele>
        <time>2017-02-26T09:12:19.000Z</time>
      </trkpt>
      <trkpt lat="47.51352" lon="6.76551">
        <ele>402.5</ele>
        <time>2017-02-26T09:12:25.000Z</time>
      </trkpt>
      <trkpt lat="47.51352" lon="6.7655">
        <ele>402.6</ele>
        <time>2017-02-26T09:12:26.000Z</time>
      </trkpt>
      <trkpt lat="47.51348" lon="6.76551">
        <ele>403.5</ele>
        <time>2017-02-26T09:12:32.000Z</time>
      </trkpt>
      <trkpt lat="47.51347" lon="6.76551">
        <ele>403.8</ele>
        <time>2017-02-26T09:12:33.000Z</time>
      </trkpt>
      <trkpt lat="47.51343" lon="6.76552">
        <ele>404.9</ele>
        <time>2017-02-26T09:12:38.000Z</time>
      </trkpt>
      <trkpt lat="47.51342" lon="6.76551">
        <ele>405.1</ele>
        <time>2017-02-26T09:12:39.000Z</time>
      </trkpt>
      <trkpt lat="47.51338" lon="6.7655">
        <ele>405.3</ele>
        <time>2017-02-26T09:12:43.000Z</time>
      </trkpt>
      <trkpt lat="47.51337" lon="6.7655">
        <ele>405.4</ele>
        <time>2017-02-26T09:12:44.000Z</time>
      </trkpt>
      <trkpt lat="47.51333" lon="6.76549">
        <ele>405.7</ele>
        <time>2017-02-26T09:12:46.000Z</time>
      </trkpt>
      <trkpt lat="47.51332" lon="6.76548">
        <ele>405.8</ele>
        <time>2017-02-26T09:12:47.000Z</time>
      </trkpt>
      <trkpt lat="47.51329" lon="6.76547">
        <ele>405.9</ele>
        <time>2017-02-26T09:12:52.000Z</time>
      </trkpt>
      <trkpt lat="47.51327" lon="6.76547">
        <ele>405.9</ele>
        <time>2017-02-26T09:12:53.000Z</time>
      </trkpt>
      <trkpt lat="47.51323" lon="6.76546">
        <ele>405.6</ele>
        <time>2017-02-26T09:12:57.000Z</time>
      </trkpt>
      <trkpt lat="47.51322" lon="6.76546">
        <ele>405.5</ele>
        <time>2017-02-26T09:12:58.000Z</time>
      </trkpt>
      <trkpt lat="47.51319" lon="6.76542">
        <ele>405.9</ele>
        <time>2017-02-26T09:13:03.000Z</time>
      </trkpt>
      <trkpt lat="47.51318" lon="6.76541">
        <ele>406</ele>
        <time>2017-02-26T09:13:04.000Z</time>
      </trkpt>
      <trkpt lat="47.51314" lon="6.76539">
        <ele>406.3</ele>
        <time>2017-02-26T09:13:07.000Z</time>
      </trkpt>
      <trkpt lat="47.51313" lon="6.76539">
        <ele>406.5</ele>
        <time>2017-02-26T09:13:08.000Z</time>
      </trkpt>
      <trkpt lat="47.51309" lon="6.76537">
        <ele>406.9</ele>
        <time>2017-02-26T09:13:11.000Z</time>
      </trkpt>
      <trkpt lat="47.51308" lon="6.76536">
        <ele>407</ele>
        <time>2017-02-26T09:13:12.000Z</time>
      </trkpt>
      <trkpt lat="47.51305" lon="6.76535">
        <ele>407.4</ele>
        <time>2017-02-26T09:13:14.000Z</time>
      </trkpt>
      <trkpt lat="47.51302" lon="6.76534">
        <ele>407.7</ele>
        <time>2017-02-26T09:13:15.000Z</time>
      </trkpt>
      <trkpt lat="47.51298" lon="6.76532">
        <ele>408.9</ele>
        <time>2017-02-26T09:13:19.000Z</time>
      </trkpt>
      <trkpt lat="47.51297" lon="6.76532">
        <ele>409</ele>
        <time>2017-02-26T09:13:20.000Z</time>
      </trkpt>
      <trkpt lat="47.51293" lon="6.76532">
        <ele>409.2</ele>
        <time>2017-02-26T09:13:22.000Z</time>
      </trkpt>
      <trkpt lat="47.51292" lon="6.76533">
        <ele>409.3</ele>
        <time>2017-02-26T09:13:23.000Z</time>
      </trkpt>
      <trkpt lat="47.51288" lon="6.76531">
        <ele>409.6</ele>
        <time>2017-02-26T09:13:26.000Z</time>
      </trkpt>
      <trkpt lat="47.51287" lon="6.7653">
        <ele>409.6</ele>
        <time>2017-02-26T09:13:27.000Z</time>
      </trkpt>
      <trkpt lat="47.51283" lon="6.76527">
        <ele>409.6</ele>
        <time>2017-02-26T09:13:29.000Z</time>
      </trkpt>
      <trkpt lat="47.51282" lon="6.76527">
        <ele>409.6</ele>
        <time>2017-02-26T09:13:30.000Z</time>
      </trkpt>
      <trkpt lat="47.51279" lon="6.76525">
        <ele>409.5</ele>
        <time>2017-02-26T09:13:33.000Z</time>
      </trkpt>
      <trkpt lat="47.51278" lon="6.76524">
        <ele>409.4</ele>
        <time>2017-02-26T09:13:34.000Z</time>
      </trkpt>
      <trkpt lat="47.51276" lon="6.76522">
        <ele>409.2</ele>
        <time>2017-02-26T09:13:36.000Z</time>
      </trkpt>
      <trkpt lat="47.51274" lon="6.7652">
        <ele>409.2</ele>
        <time>2017-02-26T09:13:37.000Z</time>
      </trkpt>
      <trkpt lat="47.5127" lon="6.76517">
        <ele>409.2</ele>
        <time>2017-02-26T09:13:40.000Z</time>
      </trkpt>
      <trkpt lat="47.51268" lon="6.76516">
        <ele>409.1</ele>
        <time>2017-02-26T09:13:41.000Z</time>
      </trkpt>
      <trkpt lat="47.51264" lon="6.76515">
        <ele>409.1</ele>
        <time>2017-02-26T09:13:45.000Z</time>
      </trkpt>
      <trkpt lat="47.51263" lon="6.76515">
        <ele>409.2</ele>
        <time>2017-02-26T09:13:46.000Z</time>
      </trkpt>
      <trkpt lat="47.5126" lon="6.76514">
        <ele>409.3</ele>
        <time>2017-02-26T09:13:48.000Z</time>
      </trkpt>
      <trkpt lat="47.51258" lon="6.76514">
        <ele>409.3</ele>
        <time>2017-02-26T09:13:49.000Z</time>
      </trkpt>
      <trkpt lat="47.51255" lon="6.76514">
        <ele>409.3</ele>
        <time>2017-02-26T09:13:51.000Z</time>
      </trkpt>
      <trkpt lat="47.51253" lon="6.76513">
        <ele>409.4</ele>
        <time>2017-02-26T09:13:52.000Z</time>
      </trkpt>
      <trkpt lat="47.51249" lon="6.76511">
        <ele>410.5</ele>
        <time>2017-02-26T09:13:58.000Z</time>
      </trkpt>
      <trkpt lat="47.51248" lon="6.7651">
        <ele>410.6</ele>
        <time>2017-02-26T09:13:59.000Z</time>
      </trkpt>
      <trkpt lat="47.51246" lon="6.7651">
        <ele>410.8</ele>
        <time>2017-02-26T09:14:00.000Z</time>
      </trkpt>
      <trkpt lat="47.51243" lon="6.76509">
        <ele>411</ele>
        <time>2017-02-26T09:14:01.000Z</time>
      </trkpt>
      <trkpt lat="47.51239" lon="6.76506">
        <ele>411.6</ele>
        <time>2017-02-26T09:14:05.000Z</time>
      </trkpt>
      <trkpt lat="47.51237" lon="6.76506">
        <ele>411.7</ele>
        <time>2017-02-26T09:14:06.000Z</time>
      </trkpt>
      <trkpt lat="47.51233" lon="6.76504">
        <ele>412</ele>
        <time>2017-02-26T09:14:08.000Z</time>
      </trkpt>
      <trkpt lat="47.51232" lon="6.76504">
        <ele>412.1</ele>
        <time>2017-02-26T09:14:09.000Z</time>
      </trkpt>
      <trkpt lat="47.51229" lon="6.76501">
        <ele>412.4</ele>
        <time>2017-02-26T09:14:12.000Z</time>
      </trkpt>
      <trkpt lat="47.51228" lon="6.765">
        <ele>412.6</ele>
        <time>2017-02-26T09:14:13.000Z</time>
      </trkpt>
      <trkpt lat="47.51224" lon="6.765">
        <ele>412.8</ele>
        <time>2017-02-26T09:14:15.000Z</time>
      </trkpt>
      <trkpt lat="47.51222" lon="6.765">
        <ele>413</ele>
        <time>2017-02-26T09:14:16.000Z</time>
      </trkpt>
      <trkpt lat="47.51218" lon="6.765">
        <ele>413.6</ele>
        <time>2017-02-26T09:14:20.000Z</time>
      </trkpt>
      <trkpt lat="47.51216" lon="6.765">
        <ele>413.8</ele>
        <time>2017-02-26T09:14:21.000Z</time>
      </trkpt>
      <trkpt lat="47.51213" lon="6.76499">
        <ele>414.2</ele>
        <time>2017-02-26T09:14:24.000Z</time>
      </trkpt>
      <trkpt lat="47.51211" lon="6.76498">
        <ele>414.2</ele>
        <time>2017-02-26T09:14:25.000Z</time>
      </trkpt>
      <trkpt lat="47.51208" lon="6.76497">
        <ele>414.5</ele>
        <time>2017-02-26T09:14:27.000Z</time>
      </trkpt>
      <trkpt lat="47.51207" lon="6.76497">
        <ele>414.6</ele>
        <time>2017-02-26T09:14:28.000Z</time>
      </trkpt>
      <trkpt lat="47.51202" lon="6.76497">
        <ele>415.2</ele>
        <time>2017-02-26T09:14:32.000Z</time>
      </trkpt>
      <trkpt lat="47.51201" lon="6.76496">
        <ele>415.3</ele>
        <time>2017-02-26T09:14:33.000Z</time>
      </trkpt>
      <trkpt lat="47.51197" lon="6.76494">
        <ele>415.5</ele>
        <time>2017-02-26T09:14:36.000Z</time>
      </trkpt>
      <trkpt lat="47.51195" lon="6.76493">
        <ele>415.6</ele>
        <time>2017-02-26T09:14:37.000Z</time>
      </trkpt>
      <trkpt lat="47.51191" lon="6.76491">
        <ele>415.5</ele>
        <time>2017-02-26T09:14:39.000Z</time>
      </trkpt>
      <trkpt lat="47.5119" lon="6.7649">
        <ele>415.4</ele>
        <time>2017-02-26T09:14:40.000Z</time>
      </trkpt>
      <trkpt lat="47.51187" lon="6.76487">
        <ele>415.7</ele>
        <time>2017-02-26T09:14:43.000Z</time>
      </trkpt>
      <trkpt lat="47.51186" lon="6.76486">
        <ele>415.8</ele>
        <time>2017-02-26T09:14:44.000Z</time>
      </trkpt>
      <trkpt lat="47.51182" lon="6.76487">
        <ele>416</ele>
        <time>2017-02-26T09:14:47.000Z</time>
      </trkpt>
      <trkpt lat="47.51179" lon="6.76488">
        <ele>416.1</ele>
        <time>2017-02-26T09:14:48.000Z</time>
      </trkpt>
      <trkpt lat="47.51176" lon="6.76488">
        <ele>416.3</ele>
        <time>2017-02-26T09:14:50.000Z</time>
      </trkpt>
      <trkpt lat="47.51175" lon="6.76489">
        <ele>416.4</ele>
        <time>2017-02-26T09:14:51.000Z</time>
      </trkpt>
      <trkpt lat="47.51171" lon="6.76488">
        <ele>416.9</ele>
        <time>2017-02-26T09:14:54.000Z</time>
      </trkpt>
      <trkpt lat="47.51168" lon="6.76488">
        <ele>417.1</ele>
        <time>2017-02-26T09:14:55.000Z</time>
      </trkpt>
      <trkpt lat="47.51164" lon="6.76488">
        <ele>417.8</ele>
        <time>2017-02-26T09:14:58.000Z</time>
      </trkpt>
      <trkpt lat="47.51163" lon="6.76488">
        <ele>418.2</ele>
        <time>2017-02-26T09:14:59.000Z</time>
      </trkpt>
      <trkpt lat="47.51159" lon="6.76487">
        <ele>419.1</ele>
        <time>2017-02-26T09:15:02.000Z</time>
      </trkpt>
      <trkpt lat="47.51158" lon="6.76486">
        <ele>419.3</ele>
        <time>2017-02-26T09:15:03.000Z</time>
      </trkpt>
      <trkpt lat="47.51156" lon="6.76485">
        <ele>419.9</ele>
        <time>2017-02-26T09:15:05.000Z</time>
      </trkpt>
      <trkpt lat="47.51153" lon="6.76486">
        <ele>420.1</ele>
        <time>2017-02-26T09:15:06.000Z</time>
      </trkpt>
      <trkpt lat="47.5115" lon="6.76486">
        <ele>420.7</ele>
        <time>2017-02-26T09:15:09.000Z</time>
      </trkpt>
      <trkpt lat="47.51148" lon="6.76486">
        <ele>420.9</ele>
        <time>2017-02-26T09:15:10.000Z</time>
      </trkpt>
      <trkpt lat="47.51144" lon="6.76485">
        <ele>421.7</ele>
        <time>2017-02-26T09:15:14.000Z</time>
      </trkpt>
      <trkpt lat="47.51143" lon="6.76485">
        <ele>421.9</ele>
        <time>2017-02-26T09:15:15.000Z</time>
      </trkpt>
      <trkpt lat="47.5114" lon="6.76486">
        <ele>422.2</ele>
        <time>2017-02-26T09:15:17.000Z</time>
      </trkpt>
      <trkpt lat="47.51138" lon="6.76486">
        <ele>422.2</ele>
        <time>2017-02-26T09:15:18.000Z</time>
      </trkpt>
      <trkpt lat="47.51134" lon="6.76485">
        <ele>422.5</ele>
        <time>2017-02-26T09:15:22.000Z</time>
      </trkpt>
      <trkpt lat="47.51133" lon="6.76484">
        <ele>422.6</ele>
        <time>2017-02-26T09:15:23.000Z</time>
      </trkpt>
      <trkpt lat="47.51129" lon="6.76484">
        <ele>422.9</ele>
        <time>2017-02-26T09:15:28.000Z</time>
      </trkpt>
      <trkpt lat="47.51125" lon="6.76484">
        <ele>422.9</ele>
        <time>2017-02-26T09:15:29.000Z</time>
      </trkpt>
      <trkpt lat="47.51122" lon="6.76484">
        <ele>422.8</ele>
        <time>2017-02-26T09:15:31.000Z</time>
      </trkpt>
      <trkpt lat="47.5112" lon="6.76483">
        <ele>422.8</ele>
        <time>2017-02-26T09:15:32.000Z</time>
      </trkpt>
      <trkpt lat="47.51118" lon="6.76483">
        <ele>423</ele>
        <time>2017-02-26T09:15:34.000Z</time>
      </trkpt>
      <trkpt lat="47.51116" lon="6.76483">
        <ele>423.2</ele>
        <time>2017-02-26T09:15:35.000Z</time>
      </trkpt>
      <trkpt lat="47.51113" lon="6.76484">
        <ele>423.3</ele>
        <time>2017-02-26T09:15:36.000Z</time>
      </trkpt>
      <trkpt lat="47.5111" lon="6.76485">
        <ele>423.4</ele>
        <time>2017-02-26T09:15:37.000Z</time>
      </trkpt>
      <trkpt lat="47.51106" lon="6.76485">
        <ele>423.5</ele>
        <time>2017-02-26T09:15:39.000Z</time>
      </trkpt>
      <trkpt lat="47.51103" lon="6.76486">
        <ele>423.6</ele>
        <time>2017-02-26T09:15:40.000Z</time>
      </trkpt>
      <trkpt lat="47.51101" lon="6.76486">
        <ele>424</ele>
        <time>2017-02-26T09:15:43.000Z</time>
      </trkpt>
      <trkpt lat="47.51098" lon="6.76486">
        <ele>424.1</ele>
        <time>2017-02-26T09:15:44.000Z</time>
      </trkpt>
      <trkpt lat="47.51095" lon="6.76486">
        <ele>424.2</ele>
        <time>2017-02-26T09:15:46.000Z</time>
      </trkpt>
      <trkpt lat="47.51092" lon="6.76486">
        <ele>424.2</ele>
        <time>2017-02-26T09:15:47.000Z</time>
      </trkpt>
      <trkpt lat="47.51088" lon="6.76487">
        <ele>424.8</ele>
        <time>2017-02-26T09:15:55.000Z</time>
      </trkpt>
      <trkpt lat="47.51088" lon="6.76486">
        <ele>425</ele>
        <time>2017-02-26T09:15:56.000Z</time>
      </trkpt>
      <trkpt lat="47.51084" lon="6.76487">
        <ele>425.3</ele>
        <time>2017-02-26T09:15:58.000Z</time>
      </trkpt>
      <trkpt lat="47.51081" lon="6.76488">
        <ele>425.4</ele>
        <time>2017-02-26T09:15:59.000Z</time>
      </trkpt>
      <trkpt lat="47.51078" lon="6.76488">
        <ele>425.6</ele>
        <time>2017-02-26T09:16:01.000Z</time>
      </trkpt>
      <trkpt lat="47.51076" lon="6.76488">
        <ele>425.7</ele>
        <time>2017-02-26T09:16:02.000Z</time>
      </trkpt>
      <trkpt lat="47.51072" lon="6.76488">
        <ele>425.9</ele>
        <time>2017-02-26T09:16:04.000Z</time>
      </trkpt>
      <trkpt lat="47.51071" lon="6.76487">
        <ele>425.9</ele>
        <time>2017-02-26T09:16:05.000Z</time>
      </trkpt>
      <trkpt lat="47.51069" lon="6.76482">
        <ele>425.8</ele>
        <time>2017-02-26T09:16:09.000Z</time>
      </trkpt>
      <trkpt lat="47.51069" lon="6.7648">
        <ele>425.6</ele>
        <time>2017-02-26T09:16:10.000Z</time>
      </trkpt>
      <trkpt lat="47.51067" lon="6.76474">
        <ele>425.5</ele>
        <time>2017-02-26T09:16:14.000Z</time>
      </trkpt>
      <trkpt lat="47.51066" lon="6.76472">
        <ele>425.6</ele>
        <time>2017-02-26T09:16:15.000Z</time>
      </trkpt>
      <trkpt lat="47.51063" lon="6.76469">
        <ele>425.8</ele>
        <time>2017-02-26T09:16:17.000Z</time>
      </trkpt>
      <trkpt lat="47.51063" lon="6.76467">
        <ele>425.8</ele>
        <time>2017-02-26T09:16:18.000Z</time>
      </trkpt>
      <trkpt lat="47.51061" lon="6.76464">
        <ele>425.9</ele>
        <time>2017-02-26T09:16:19.000Z</time>
      </trkpt>
      <trkpt lat="47.51058" lon="6.76461">
        <ele>425.9</ele>
        <time>2017-02-26T09:16:20.000Z</time>
      </trkpt>
      <trkpt lat="47.51055" lon="6.76458">
        <ele>426.2</ele>
        <time>2017-02-26T09:16:22.000Z</time>
      </trkpt>
      <trkpt lat="47.51053" lon="6.76457">
        <ele>426.3</ele>
        <time>2017-02-26T09:16:23.000Z</time>
      </trkpt>
      <trkpt lat="47.51051" lon="6.76452">
        <ele>426.2</ele>
        <time>2017-02-26T09:16:28.000Z</time>
      </trkpt>
      <trkpt lat="47.51051" lon="6.7645">
        <ele>426.1</ele>
        <time>2017-02-26T09:16:29.000Z</time>
      </trkpt>
      <trkpt lat="47.5105" lon="6.76445">
        <ele>425.8</ele>
        <time>2017-02-26T09:16:32.000Z</time>
      </trkpt>
      <trkpt lat="47.51049" lon="6.76441">
        <ele>425.6</ele>
        <time>2017-02-26T09:16:33.000Z</time>
      </trkpt>
      <trkpt lat="47.51049" lon="6.76436">
        <ele>425.7</ele>
        <time>2017-02-26T09:16:35.000Z</time>
      </trkpt>
      <trkpt lat="47.51048" lon="6.7643">
        <ele>425.7</ele>
        <time>2017-02-26T09:16:36.000Z</time>
      </trkpt>
      <trkpt lat="47.51048" lon="6.76427">
        <ele>425.8</ele>
        <time>2017-02-26T09:16:37.000Z</time>
      </trkpt>
      <trkpt lat="47.51047" lon="6.76423">
        <ele>425.7</ele>
        <time>2017-02-26T09:16:38.000Z</time>
      </trkpt>
      <trkpt lat="47.51046" lon="6.76417">
        <ele>425.7</ele>
        <time>2017-02-26T09:16:39.000Z</time>
      </trkpt>
      <trkpt lat="47.51046" lon="6.76415">
        <ele>425.8</ele>
        <time>2017-02-26T09:16:40.000Z</time>
      </trkpt>
      <trkpt lat="47.51045" lon="6.76411">
        <ele>425.9</ele>
        <time>2017-02-26T09:16:43.000Z</time>
      </trkpt>
      <trkpt lat="47.51045" lon="6.76409">
        <ele>426</ele>
        <time>2017-02-26T09:16:44.000Z</time>
      </trkpt>
      <trkpt lat="47.51041" lon="6.76406">
        <ele>426.4</ele>
        <time>2017-02-26T09:16:48.000Z</time>
      </trkpt>
      <trkpt lat="47.51039" lon="6.76406">
        <ele>426.6</ele>
        <time>2017-02-26T09:16:49.000Z</time>
      </trkpt>
      <trkpt lat="47.51035" lon="6.76406">
        <ele>427.1</ele>
        <time>2017-02-26T09:16:51.000Z</time>
      </trkpt>
      <trkpt lat="47.51034" lon="6.76406">
        <ele>427.4</ele>
        <time>2017-02-26T09:16:52.000Z</time>
      </trkpt>
      <trkpt lat="47.51032" lon="6.76406">
        <ele>427.9</ele>
        <time>2017-02-26T09:16:54.000Z</time>
      </trkpt>
      <trkpt lat="47.51027" lon="6.76406">
        <ele>428.2</ele>
        <time>2017-02-26T09:16:55.000Z</time>
      </trkpt>
      <trkpt lat="47.51023" lon="6.76404">
        <ele>428.5</ele>
        <time>2017-02-26T09:16:57.000Z</time>
      </trkpt>
      <trkpt lat="47.51023" lon="6.76404">
        <ele>428.7</ele>
        <time>2017-02-26T09:16:58.000Z</time>
      </trkpt>
      <trkpt lat="47.5102" lon="6.76402">
        <ele>428.9</ele>
        <time>2017-02-26T09:17:00.000Z</time>
      </trkpt>
      <trkpt lat="47.51017" lon="6.76399">
        <ele>428.9</ele>
        <time>2017-02-26T09:17:01.000Z</time>
      </trkpt>
      <trkpt lat="47.51014" lon="6.76397">
        <ele>429</ele>
        <time>2017-02-26T09:17:03.000Z</time>
      </trkpt>
      <trkpt lat="47.51011" lon="6.76394">
        <ele>429.1</ele>
        <time>2017-02-26T09:17:04.000Z</time>
      </trkpt>
      <trkpt lat="47.51009" lon="6.76392">
        <ele>429.1</ele>
        <time>2017-02-26T09:17:05.000Z</time>
      </trkpt>
      <trkpt lat="47.51006" lon="6.7639">
        <ele>429.1</ele>
        <time>2017-02-26T09:17:06.000Z</time>
      </trkpt>
      <trkpt lat="47.51001" lon="6.76389">
        <ele>429.6</ele>
        <time>2017-02-26T09:17:10.000Z</time>
      </trkpt>
      <trkpt lat="47.51001" lon="6.76388">
        <ele>429.7</ele>
        <time>2017-02-26T09:17:11.000Z</time>
      </trkpt>
      <trkpt lat="47.50999" lon="6.76385">
        <ele>429.6</ele>
        <time>2017-02-26T09:17:13.000Z</time>
      </trkpt>
      <trkpt lat="47.50996" lon="6.76382">
        <ele>429.5</ele>
        <time>2017-02-26T09:17:14.000Z</time>
      </trkpt>
      <trkpt lat="47.50994" lon="6.76378">
        <ele>429.1</ele>
        <time>2017-02-26T09:17:16.000Z</time>
      </trkpt>
      <trkpt lat="47.50992" lon="6.76377">
        <ele>428.9</ele>
        <time>2017-02-26T09:17:17.000Z</time>
      </trkpt>
      <trkpt lat="47.50988" lon="6.76375">
        <ele>428.2</ele>
        <time>2017-02-26T09:17:20.000Z</time>
      </trkpt>
      <trkpt lat="47.50987" lon="6.76373">
        <ele>428</ele>
        <time>2017-02-26T09:17:21.000Z</time>
      </trkpt>
      <trkpt lat="47.50982" lon="6.76373">
        <ele>427.4</ele>
        <time>2017-02-26T09:17:25.000Z</time>
      </trkpt>
      <trkpt lat="47.50981" lon="6.76373">
        <ele>427.4</ele>
        <time>2017-02-26T09:17:26.000Z</time>
      </trkpt>
      <trkpt lat="47.50977" lon="6.76371">
        <ele>427.6</ele>
        <time>2017-02-26T09:17:28.000Z</time>
      </trkpt>
      <trkpt lat="47.50975" lon="6.76371">
        <ele>427.8</ele>
        <time>2017-02-26T09:17:29.000Z</time>
      </trkpt>
      <trkpt lat="47.50971" lon="6.76372">
        <ele>428.3</ele>
        <time>2017-02-26T09:17:32.000Z</time>
      </trkpt>
      <trkpt lat="47.5097" lon="6.76371">
        <ele>428.6</ele>
        <time>2017-02-26T09:17:33.000Z</time>
      </trkpt>
      <trkpt lat="47.50967" lon="6.76373">
        <ele>429</ele>
        <time>2017-02-26T09:17:35.000Z</time>
      </trkpt>
      <trkpt lat="47.50965" lon="6.76374">
        <ele>429.3</ele>
        <time>2017-02-26T09:17:36.000Z</time>
      </trkpt>
      <trkpt lat="47.50961" lon="6.76374">
        <ele>429.8</ele>
        <time>2017-02-26T09:17:38.000Z</time>
      </trkpt>
      <trkpt lat="47.5096" lon="6.76374">
        <ele>430</ele>
        <time>2017-02-26T09:17:39.000Z</time>
      </trkpt>
      <trkpt lat="47.50957" lon="6.76373">
        <ele>430.3</ele>
        <time>2017-02-26T09:17:41.000Z</time>
      </trkpt>
      <trkpt lat="47.50954" lon="6.76373">
        <ele>430.5</ele>
        <time>2017-02-26T09:17:42.000Z</time>
      </trkpt>
      <trkpt lat="47.50951" lon="6.76371">
        <ele>430.8</ele>
        <time>2017-02-26T09:17:44.000Z</time>
      </trkpt>
      <trkpt lat="47.50949" lon="6.7637">
        <ele>430.9</ele>
        <time>2017-02-26T09:17:45.000Z</time>
      </trkpt>
      <trkpt lat="47.50945" lon="6.76373">
        <ele>431.3</ele>
        <time>2017-02-26T09:17:48.000Z</time>
      </trkpt>
      <trkpt lat="47.50944" lon="6.76375">
        <ele>431.5</ele>
        <time>2017-02-26T09:17:49.000Z</time>
      </trkpt>
      <trkpt lat="47.50941" lon="6.76376">
        <ele>431.8</ele>
        <time>2017-02-26T09:17:51.000Z</time>
      </trkpt>
      <trkpt lat="47.50939" lon="6.76378">
        <ele>431.8</ele>
        <time>2017-02-26T09:17:52.000Z</time>
      </trkpt>
      <trkpt lat="47.50936" lon="6.76379">
        <ele>431.7</ele>
        <time>2017-02-26T09:17:53.000Z</time>
      </trkpt>
      <trkpt lat="47.50932" lon="6.76381">
        <ele>431.7</ele>
        <time>2017-02-26T09:17:54.000Z</time>
      </trkpt>
      <trkpt lat="47.50929" lon="6.76385">
        <ele>431.4</ele>
        <time>2017-02-26T09:17:55.000Z</time>
      </trkpt>
      <trkpt lat="47.50926" lon="6.76389">
        <ele>431.3</ele>
        <time>2017-02-26T09:17:56.000Z</time>
      </trkpt>
      <trkpt lat="47.50924" lon="6.76395">
        <ele>431.9</ele>
        <time>2017-02-26T09:17:57.000Z</time>
      </trkpt>
      <trkpt lat="47.50921" lon="6.76398">
        <ele>431.8</ele>
        <time>2017-02-26T09:17:58.000Z</time>
      </trkpt>
      <trkpt lat="47.50918" lon="6.76402">
        <ele>431.8</ele>
        <time>2017-02-26T09:17:59.000Z</time>
      </trkpt>
      <trkpt lat="47.50914" lon="6.76407">
        <ele>431.9</ele>
        <time>2017-02-26T09:18:00.000Z</time>
      </trkpt>
      <trkpt lat="47.50909" lon="6.76411">
        <ele>431.9</ele>
        <time>2017-02-26T09:18:01.000Z</time>
      </trkpt>
      <trkpt lat="47.50901" lon="6.76416">
        <ele>431.9</ele>
        <time>2017-02-26T09:18:02.000Z</time>
      </trkpt>
      <trkpt lat="47.50895" lon="6.7642">
        <ele>431.9</ele>
        <time>2017-02-26T09:18:03.000Z</time>
      </trkpt>
      <trkpt lat="47.50891" lon="6.76422">
        <ele>431.9</ele>
        <time>2017-02-26T09:18:04.000Z</time>
      </trkpt>
      <trkpt lat="47.50887" lon="6.76423">
        <ele>431.9</ele>
        <time>2017-02-26T09:18:05.000Z</time>
      </trkpt>
      <trkpt lat="47.50884" lon="6.76422">
        <ele>431.9</ele>
        <time>2017-02-26T09:18:06.000Z</time>
      </trkpt>
      <trkpt lat="47.50881" lon="6.76421">
        <ele>432</ele>
        <time>2017-02-26T09:18:07.000Z</time>
      </trkpt>
      <trkpt lat="47.50878" lon="6.7642">
        <ele>431.9</ele>
        <time>2017-02-26T09:18:08.000Z</time>
      </trkpt>
      <trkpt lat="47.50875" lon="6.76418">
        <ele>431.9</ele>
        <time>2017-02-26T09:18:09.000Z</time>
      </trkpt>
      <trkpt lat="47.50871" lon="6.76417">
        <ele>431.8</ele>
        <time>2017-02-26T09:18:10.000Z</time>
      </trkpt>
      <trkpt lat="47.50868" lon="6.76416">
        <ele>431.7</ele>
        <time>2017-02-26T09:18:11.000Z</time>
      </trkpt>
      <trkpt lat="47.50863" lon="6.76415">
        <ele>430.9</ele>
        <time>2017-02-26T09:18:12.000Z</time>
      </trkpt>
      <trkpt lat="47.50859" lon="6.76415">
        <ele>430.8</ele>
        <time>2017-02-26T09:18:13.000Z</time>
      </trkpt>
      <trkpt lat="47.50855" lon="6.76415">
        <ele>430.8</ele>
        <time>2017-02-26T09:18:14.000Z</time>
      </trkpt>
      <trkpt lat="47.5085" lon="6.76415">
        <ele>430.6</ele>
        <time>2017-02-26T09:18:15.000Z</time>
      </trkpt>
      <trkpt lat="47.50846" lon="6.76414">
        <ele>430.5</ele>
        <time>2017-02-26T09:18:16.000Z</time>
      </trkpt>
      <trkpt lat="47.50842" lon="6.76411">
        <ele>430.4</ele>
        <time>2017-02-26T09:18:17.000Z</time>
      </trkpt>
      <trkpt lat="47.50838" lon="6.76408">
        <ele>430.3</ele>
        <time>2017-02-26T09:18:18.000Z</time>
      </trkpt>
      <trkpt lat="47.50836" lon="6.76404">
        <ele>430.2</ele>
        <time>2017-02-26T09:18:19.000Z</time>
      </trkpt>
      <trkpt lat="47.50833" lon="6.76402">
        <ele>430.1</ele>
        <time>2017-02-26T09:18:20.000Z</time>
      </trkpt>
      <trkpt lat="47.50828" lon="6.76398">
        <ele>429.9</ele>
        <time>2017-02-26T09:18:21.000Z</time>
      </trkpt>
      <trkpt lat="47.50823" lon="6.76392">
        <ele>428.1</ele>
        <time>2017-02-26T09:18:22.000Z</time>
      </trkpt>
      <trkpt lat="47.50818" lon="6.76387">
        <ele>426.9</ele>
        <time>2017-02-26T09:18:23.000Z</time>
      </trkpt>
      <trkpt lat="47.50814" lon="6.76383">
        <ele>426.2</ele>
        <time>2017-02-26T09:18:24.000Z</time>
      </trkpt>
      <trkpt lat="47.50809" lon="6.7638">
        <ele>425.2</ele>
        <time>2017-02-26T09:18:25.000Z</time>
      </trkpt>
      <trkpt lat="47.50805" lon="6.76378">
        <ele>424.9</ele>
        <time>2017-02-26T09:18:26.000Z</time>
      </trkpt>
      <trkpt lat="47.508" lon="6.76376">
        <ele>425.5</ele>
        <time>2017-02-26T09:18:27.000Z</time>
      </trkpt>
      <trkpt lat="47.50796" lon="6.76376">
        <ele>426.6</ele>
        <time>2017-02-26T09:18:28.000Z</time>
      </trkpt>
      <trkpt lat="47.50792" lon="6.7638">
        <ele>426.7</ele>
        <time>2017-02-26T09:18:29.000Z</time>
      </trkpt>
      <trkpt lat="47.5079" lon="6.76381">
        <ele>426.9</ele>
        <time>2017-02-26T09:18:30.000Z</time>
      </trkpt>
      <trkpt lat="47.50787" lon="6.76383">
        <ele>426.9</ele>
        <time>2017-02-26T09:18:31.000Z</time>
      </trkpt>
      <trkpt lat="47.50783" lon="6.76386">
        <ele>427.2</ele>
        <time>2017-02-26T09:18:33.000Z</time>
      </trkpt>
      <trkpt lat="47.50782" lon="6.76389">
        <ele>427.3</ele>
        <time>2017-02-26T09:18:34.000Z</time>
      </trkpt>
      <trkpt lat="47.50782" lon="6.76394">
        <ele>427.5</ele>
        <time>2017-02-26T09:18:35.000Z</time>
      </trkpt>
      <trkpt lat="47.50782" lon="6.76398">
        <ele>427.6</ele>
        <time>2017-02-26T09:18:36.000Z</time>
      </trkpt>
      <trkpt lat="47.50783" lon="6.76402">
        <ele>427.8</ele>
        <time>2017-02-26T09:18:37.000Z</time>
      </trkpt>
      <trkpt lat="47.50784" lon="6.76407">
        <ele>428</ele>
        <time>2017-02-26T09:18:38.000Z</time>
      </trkpt>
      <trkpt lat="47.50786" lon="6.76411">
        <ele>428.2</ele>
        <time>2017-02-26T09:18:39.000Z</time>
      </trkpt>
      <trkpt lat="47.50787" lon="6.76415">
        <ele>428.4</ele>
        <time>2017-02-26T09:18:40.000Z</time>
      </trkpt>
      <trkpt lat="47.50788" lon="6.76418">
        <ele>428.5</ele>
        <time>2017-02-26T09:18:41.000Z</time>
      </trkpt>
      <trkpt lat="47.50789" lon="6.76422">
        <ele>428.6</ele>
        <time>2017-02-26T09:18:42.000Z</time>
      </trkpt>
      <trkpt lat="47.50791" lon="6.76428">
        <ele>428.9</ele>
        <time>2017-02-26T09:18:44.000Z</time>
      </trkpt>
      <trkpt lat="47.50792" lon="6.7643">
        <ele>429.1</ele>
        <time>2017-02-26T09:18:45.000Z</time>
      </trkpt>
      <trkpt lat="47.50792" lon="6.76436">
        <ele>429.5</ele>
        <time>2017-02-26T09:18:47.000Z</time>
      </trkpt>
      <trkpt lat="47.50792" lon="6.76439">
        <ele>429.7</ele>
        <time>2017-02-26T09:18:48.000Z</time>
      </trkpt>
      <trkpt lat="47.50793" lon="6.76445">
        <ele>430</ele>
        <time>2017-02-26T09:18:50.000Z</time>
      </trkpt>
      <trkpt lat="47.50794" lon="6.76449">
        <ele>430.2</ele>
        <time>2017-02-26T09:18:51.000Z</time>
      </trkpt>
      <trkpt lat="47.50795" lon="6.76454">
        <ele>430.5</ele>
        <time>2017-02-26T09:18:53.000Z</time>
      </trkpt>
      <trkpt lat="47.50796" lon="6.76457">
        <ele>430.7</ele>
        <time>2017-02-26T09:18:54.000Z</time>
      </trkpt>
      <trkpt lat="47.50796" lon="6.76462">
        <ele>431.2</ele>
        <time>2017-02-26T09:18:56.000Z</time>
      </trkpt>
      <trkpt lat="47.50796" lon="6.76465">
        <ele>431.5</ele>
        <time>2017-02-26T09:18:57.000Z</time>
      </trkpt>
      <trkpt lat="47.50796" lon="6.76469">
        <ele>432</ele>
        <time>2017-02-26T09:18:59.000Z</time>
      </trkpt>
      <trkpt lat="47.50796" lon="6.76472">
        <ele>432.1</ele>
        <time>2017-02-26T09:19:00.000Z</time>
      </trkpt>
      <trkpt lat="47.50796" lon="6.76477">
        <ele>432.4</ele>
        <time>2017-02-26T09:19:02.000Z</time>
      </trkpt>
      <trkpt lat="47.50796" lon="6.76479">
        <ele>432.6</ele>
        <time>2017-02-26T09:19:03.000Z</time>
      </trkpt>
      <trkpt lat="47.50796" lon="6.76484">
        <ele>433</ele>
        <time>2017-02-26T09:19:05.000Z</time>
      </trkpt>
      <trkpt lat="47.50795" lon="6.76486">
        <ele>433.2</ele>
        <time>2017-02-26T09:19:06.000Z</time>
      </trkpt>
      <trkpt lat="47.50795" lon="6.76489">
        <ele>433.3</ele>
        <time>2017-02-26T09:19:07.000Z</time>
      </trkpt>
      <trkpt lat="47.50795" lon="6.76494">
        <ele>433.5</ele>
        <time>2017-02-26T09:19:08.000Z</time>
      </trkpt>
      <trkpt lat="47.50795" lon="6.76499">
        <ele>433.6</ele>
        <time>2017-02-26T09:19:09.000Z</time>
      </trkpt>
      <trkpt lat="47.50795" lon="6.76504">
        <ele>433.8</ele>
        <time>2017-02-26T09:19:10.000Z</time>
      </trkpt>
      <trkpt lat="47.50796" lon="6.76508">
        <ele>434</ele>
        <time>2017-02-26T09:19:11.000Z</time>
      </trkpt>
      <trkpt lat="47.50796" lon="6.76512">
        <ele>434.2</ele>
        <time>2017-02-26T09:19:12.000Z</time>
      </trkpt>
      <trkpt lat="47.50798" lon="6.76515">
        <ele>434.4</ele>
        <time>2017-02-26T09:19:13.000Z</time>
      </trkpt>
      <trkpt lat="47.50799" lon="6.76518">
        <ele>434.5</ele>
        <time>2017-02-26T09:19:14.000Z</time>
      </trkpt>
      <trkpt lat="47.508" lon="6.76522">
        <ele>434.7</ele>
        <time>2017-02-26T09:19:15.000Z</time>
      </trkpt>
      <trkpt lat="47.508" lon="6.76527">
        <ele>434.9</ele>
        <time>2017-02-26T09:19:16.000Z</time>
      </trkpt>
      <trkpt lat="47.50801" lon="6.76532">
        <ele>435.1</ele>
        <time>2017-02-26T09:19:17.000Z</time>
      </trkpt>
      <trkpt lat="47.50801" lon="6.76536">
        <ele>435.3</ele>
        <time>2017-02-26T09:19:18.000Z</time>
      </trkpt>
      <trkpt lat="47.50801" lon="6.76542">
        <ele>435.8</ele>
        <time>2017-02-26T09:19:21.000Z</time>
      </trkpt>
      <trkpt lat="47.50801" lon="6.76544">
        <ele>436</ele>
        <time>2017-02-26T09:19:22.000Z</time>
      </trkpt>
      <trkpt lat="47.50801" lon="6.7655">
        <ele>436.3</ele>
        <time>2017-02-26T09:19:24.000Z</time>
      </trkpt>
      <trkpt lat="47.50801" lon="6.76552">
        <ele>436.3</ele>
        <time>2017-02-26T09:19:25.000Z</time>
      </trkpt>
      <trkpt lat="47.50802" lon="6.76556">
        <ele>436.4</ele>
        <time>2017-02-26T09:19:26.000Z</time>
      </trkpt>
      <trkpt lat="47.50801" lon="6.7656">
        <ele>436.6</ele>
        <time>2017-02-26T09:19:27.000Z</time>
      </trkpt>
      <trkpt lat="47.50802" lon="6.76562">
        <ele>436.6</ele>
        <time>2017-02-26T09:19:28.000Z</time>
      </trkpt>
      <trkpt lat="47.50802" lon="6.76566">
        <ele>436.7</ele>
        <time>2017-02-26T09:19:29.000Z</time>
      </trkpt>
      <trkpt lat="47.50802" lon="6.76571">
        <ele>436.7</ele>
        <time>2017-02-26T09:19:30.000Z</time>
      </trkpt>
      <trkpt lat="47.50802" lon="6.76575">
        <ele>436.7</ele>
        <time>2017-02-26T09:19:31.000Z</time>
      </trkpt>
      <trkpt lat="47.50803" lon="6.76581">
        <ele>436.7</ele>
        <time>2017-02-26T09:19:33.000Z</time>
      </trkpt>
      <trkpt lat="47.50803" lon="6.76585">
        <ele>436.8</ele>
        <time>2017-02-26T09:19:34.000Z</time>
      </trkpt>
      <trkpt lat="47.508" lon="6.76589">
        <ele>436.9</ele>
        <time>2017-02-26T09:19:37.000Z</time>
      </trkpt>
      <trkpt lat="47.50798" lon="6.7659">
        <ele>437</ele>
        <time>2017-02-26T09:19:38.000Z</time>
      </trkpt>
      <trkpt lat="47.50794" lon="6.76592">
        <ele>437.2</ele>
        <time>2017-02-26T09:19:40.000Z</time>
      </trkpt>
      <trkpt lat="47.50792" lon="6.76592">
        <ele>437.3</ele>
        <time>2017-02-26T09:19:41.000Z</time>
      </trkpt>
      <trkpt lat="47.50788" lon="6.76592">
        <ele>439.4</ele>
        <time>2017-02-26T09:20:02.000Z</time>
      </trkpt>
      <trkpt lat="47.50788" lon="6.76593">
        <ele>439.4</ele>
        <time>2017-02-26T09:20:03.000Z</time>
      </trkpt>
      <trkpt lat="47.50784" lon="6.76591">
        <ele>439.4</ele>
        <time>2017-02-26T09:20:16.000Z</time>
      </trkpt>
      <trkpt lat="47.50783" lon="6.76591">
        <ele>439.5</ele>
        <time>2017-02-26T09:20:17.000Z</time>
      </trkpt>
      <trkpt lat="47.5078" lon="6.76592">
        <ele>439.9</ele>
        <time>2017-02-26T09:20:22.000Z</time>
      </trkpt>
      <trkpt lat="47.50777" lon="6.76594">
        <ele>439.9</ele>
        <time>2017-02-26T09:20:23.000Z</time>
      </trkpt>
      <trkpt lat="47.50774" lon="6.76596">
        <ele>440</ele>
        <time>2017-02-26T09:20:25.000Z</time>
      </trkpt>
      <trkpt lat="47.50771" lon="6.76597">
        <ele>440</ele>
        <time>2017-02-26T09:20:26.000Z</time>
      </trkpt>
      <trkpt lat="47.50767" lon="6.76598">
        <ele>440</ele>
        <time>2017-02-26T09:20:28.000Z</time>
      </trkpt>
      <trkpt lat="47.50765" lon="6.76599">
        <ele>439.9</ele>
        <time>2017-02-26T09:20:29.000Z</time>
      </trkpt>
      <trkpt lat="47.50762" lon="6.76598">
        <ele>439.9</ele>
        <time>2017-02-26T09:20:30.000Z</time>
      </trkpt>
      <trkpt lat="47.5076" lon="6.76598">
        <ele>439.9</ele>
        <time>2017-02-26T09:20:31.000Z</time>
      </trkpt>
      <trkpt lat="47.50756" lon="6.76598">
        <ele>439.8</ele>
        <time>2017-02-26T09:20:33.000Z</time>
      </trkpt>
      <trkpt lat="47.50753" lon="6.76598">
        <ele>439.8</ele>
        <time>2017-02-26T09:20:34.000Z</time>
      </trkpt>
      <trkpt lat="47.5075" lon="6.76598">
        <ele>439.8</ele>
        <time>2017-02-26T09:20:35.000Z</time>
      </trkpt>
      <trkpt lat="47.50748" lon="6.76597">
        <ele>439.8</ele>
        <time>2017-02-26T09:20:36.000Z</time>
      </trkpt>
      <trkpt lat="47.50745" lon="6.76596">
        <ele>439.8</ele>
        <time>2017-02-26T09:20:37.000Z</time>
      </trkpt>
      <trkpt lat="47.50743" lon="6.76596">
        <ele>439.8</ele>
        <time>2017-02-26T09:20:38.000Z</time>
      </trkpt>
      <trkpt lat="47.5074" lon="6.76595">
        <ele>439.8</ele>
        <time>2017-02-26T09:20:39.000Z</time>
      </trkpt>
      <trkpt lat="47.50738" lon="6.76595">
        <ele>439.8</ele>
        <time>2017-02-26T09:20:40.000Z</time>
      </trkpt>
      <trkpt lat="47.50735" lon="6.76594">
        <ele>439.9</ele>
        <time>2017-02-26T09:20:41.000Z</time>
      </trkpt>
      <trkpt lat="47.50733" lon="6.76594">
        <ele>439.9</ele>
        <time>2017-02-26T09:20:42.000Z</time>
      </trkpt>
      <trkpt lat="47.50731" lon="6.76593">
        <ele>440</ele>
        <time>2017-02-26T09:20:43.000Z</time>
      </trkpt>
      <trkpt lat="47.50727" lon="6.76592">
        <ele>440</ele>
        <time>2017-02-26T09:20:44.000Z</time>
      </trkpt>
      <trkpt lat="47.50724" lon="6.76591">
        <ele>440</ele>
        <time>2017-02-26T09:20:45.000Z</time>
      </trkpt>
      <trkpt lat="47.50721" lon="6.76591">
        <ele>439.9</ele>
        <time>2017-02-26T09:20:46.000Z</time>
      </trkpt>
      <trkpt lat="47.50718" lon="6.7659">
        <ele>439.9</ele>
        <time>2017-02-26T09:20:47.000Z</time>
      </trkpt>
      <trkpt lat="47.50716" lon="6.7659">
        <ele>439.9</ele>
        <time>2017-02-26T09:20:48.000Z</time>
      </trkpt>
      <trkpt lat="47.50713" lon="6.76589">
        <ele>439.9</ele>
        <time>2017-02-26T09:20:49.000Z</time>
      </trkpt>
      <trkpt lat="47.5071" lon="6.76588">
        <ele>439.9</ele>
        <time>2017-02-26T09:20:50.000Z</time>
      </trkpt>
      <trkpt lat="47.50707" lon="6.76588">
        <ele>439.9</ele>
        <time>2017-02-26T09:20:51.000Z</time>
      </trkpt>
      <trkpt lat="47.50705" lon="6.76588">
        <ele>439.9</ele>
        <time>2017-02-26T09:20:52.000Z</time>
      </trkpt>
      <trkpt lat="47.50702" lon="6.76588">
        <ele>439.9</ele>
        <time>2017-02-26T09:20:53.000Z</time>
      </trkpt>
      <trkpt lat="47.50699" lon="6.76589">
        <ele>439.9</ele>
        <time>2017-02-26T09:20:54.000Z</time>
      </trkpt>
      <trkpt lat="47.50696" lon="6.7659">
        <ele>439.9</ele>
        <time>2017-02-26T09:20:55.000Z</time>
      </trkpt>
      <trkpt lat="47.50694" lon="6.7659">
        <ele>440</ele>
        <time>2017-02-26T09:20:56.000Z</time>
      </trkpt>
      <trkpt lat="47.50691" lon="6.7659">
        <ele>440</ele>
        <time>2017-02-26T09:20:57.000Z</time>
      </trkpt>
      <trkpt lat="47.50688" lon="6.76591">
        <ele>440</ele>
        <time>2017-02-26T09:20:58.000Z</time>
      </trkpt>
      <trkpt lat="47.50685" lon="6.76591">
        <ele>440</ele>
        <time>2017-02-26T09:20:59.000Z</time>
      </trkpt>
      <trkpt lat="47.50682" lon="6.76592">
        <ele>440</ele>
        <time>2017-02-26T09:21:00.000Z</time>
      </trkpt>
      <trkpt lat="47.50679" lon="6.76592">
        <ele>439.9</ele>
        <time>2017-02-26T09:21:01.000Z</time>
      </trkpt>
      <trkpt lat="47.50676" lon="6.76593">
        <ele>439.9</ele>
        <time>2017-02-26T09:21:02.000Z</time>
      </trkpt>
      <trkpt lat="47.50672" lon="6.76593">
        <ele>440</ele>
        <time>2017-02-26T09:21:03.000Z</time>
      </trkpt>
      <trkpt lat="47.5067" lon="6.76594">
        <ele>440</ele>
        <time>2017-02-26T09:21:04.000Z</time>
      </trkpt>
      <trkpt lat="47.50668" lon="6.76595">
        <ele>440.1</ele>
        <time>2017-02-26T09:21:05.000Z</time>
      </trkpt>
      <trkpt lat="47.50665" lon="6.76595">
        <ele>440.1</ele>
        <time>2017-02-26T09:21:06.000Z</time>
      </trkpt>
      <trkpt lat="47.50662" lon="6.76596">
        <ele>440.2</ele>
        <time>2017-02-26T09:21:07.000Z</time>
      </trkpt>
      <trkpt lat="47.5066" lon="6.76596">
        <ele>440.2</ele>
        <time>2017-02-26T09:21:08.000Z</time>
      </trkpt>
      <trkpt lat="47.50657" lon="6.76597">
        <ele>440.3</ele>
        <time>2017-02-26T09:21:09.000Z</time>
      </trkpt>
      <trkpt lat="47.50654" lon="6.76597">
        <ele>440.3</ele>
        <time>2017-02-26T09:21:10.000Z</time>
      </trkpt>
      <trkpt lat="47.50652" lon="6.76598">
        <ele>440.3</ele>
        <time>2017-02-26T09:21:11.000Z</time>
      </trkpt>
      <trkpt lat="47.50648" lon="6.766">
        <ele>440.2</ele>
        <time>2017-02-26T09:21:12.000Z</time>
      </trkpt>
      <trkpt lat="47.50645" lon="6.76601">
        <ele>440.2</ele>
        <time>2017-02-26T09:21:13.000Z</time>
      </trkpt>
      <trkpt lat="47.50643" lon="6.76602">
        <ele>440.2</ele>
        <time>2017-02-26T09:21:14.000Z</time>
      </trkpt>
      <trkpt lat="47.5064" lon="6.76603">
        <ele>440.2</ele>
        <time>2017-02-26T09:21:15.000Z</time>
      </trkpt>
      <trkpt lat="47.50638" lon="6.76605">
        <ele>440.2</ele>
        <time>2017-02-26T09:21:16.000Z</time>
      </trkpt>
      <trkpt lat="47.50634" lon="6.76607">
        <ele>440.1</ele>
        <time>2017-02-26T09:21:18.000Z</time>
      </trkpt>
      <trkpt lat="47.50632" lon="6.76609">
        <ele>440</ele>
        <time>2017-02-26T09:21:19.000Z</time>
      </trkpt>
      <trkpt lat="47.50629" lon="6.76611">
        <ele>439.9</ele>
        <time>2017-02-26T09:21:20.000Z</time>
      </trkpt>
      <trkpt lat="47.50626" lon="6.76613">
        <ele>439.8</ele>
        <time>2017-02-26T09:21:21.000Z</time>
      </trkpt>
      <trkpt lat="47.50623" lon="6.76614">
        <ele>439.7</ele>
        <time>2017-02-26T09:21:22.000Z</time>
      </trkpt>
      <trkpt lat="47.50621" lon="6.76614">
        <ele>439.7</ele>
        <time>2017-02-26T09:21:23.000Z</time>
      </trkpt>
      <trkpt lat="47.50618" lon="6.76616">
        <ele>439.6</ele>
        <time>2017-02-26T09:21:24.000Z</time>
      </trkpt>
      <trkpt lat="47.50615" lon="6.76617">
        <ele>439.6</ele>
        <time>2017-02-26T09:21:25.000Z</time>
      </trkpt>
      <trkpt lat="47.50612" lon="6.76619">
        <ele>439.5</ele>
        <time>2017-02-26T09:21:26.000Z</time>
      </trkpt>
      <trkpt lat="47.50608" lon="6.76621">
        <ele>439.5</ele>
        <time>2017-02-26T09:21:27.000Z</time>
      </trkpt>
      <trkpt lat="47.50606" lon="6.76622">
        <ele>439.6</ele>
        <time>2017-02-26T09:21:28.000Z</time>
      </trkpt>
      <trkpt lat="47.50603" lon="6.76623">
        <ele>439.6</ele>
        <time>2017-02-26T09:21:29.000Z</time>
      </trkpt>
      <trkpt lat="47.50599" lon="6.76623">
        <ele>439.7</ele>
        <time>2017-02-26T09:21:30.000Z</time>
      </trkpt>
      <trkpt lat="47.50597" lon="6.76624">
        <ele>439.7</ele>
        <time>2017-02-26T09:21:31.000Z</time>
      </trkpt>
      <trkpt lat="47.50594" lon="6.76625">
        <ele>439.7</ele>
        <time>2017-02-26T09:21:32.000Z</time>
      </trkpt>
      <trkpt lat="47.50592" lon="6.76626">
        <ele>439.7</ele>
        <time>2017-02-26T09:21:33.000Z</time>
      </trkpt>
      <trkpt lat="47.50589" lon="6.76627">
        <ele>439.8</ele>
        <time>2017-02-26T09:21:34.000Z</time>
      </trkpt>
      <trkpt lat="47.50586" lon="6.76629">
        <ele>439.9</ele>
        <time>2017-02-26T09:21:35.000Z</time>
      </trkpt>
      <trkpt lat="47.50584" lon="6.7663">
        <ele>440</ele>
        <time>2017-02-26T09:21:36.000Z</time>
      </trkpt>
      <trkpt lat="47.50581" lon="6.76631">
        <ele>440.1</ele>
        <time>2017-02-26T09:21:37.000Z</time>
      </trkpt>
      <trkpt lat="47.50578" lon="6.76632">
        <ele>440.2</ele>
        <time>2017-02-26T09:21:38.000Z</time>
      </trkpt>
      <trkpt lat="47.50576" lon="6.76633">
        <ele>440.3</ele>
        <time>2017-02-26T09:21:39.000Z</time>
      </trkpt>
      <trkpt lat="47.50573" lon="6.76634">
        <ele>440.3</ele>
        <time>2017-02-26T09:21:40.000Z</time>
      </trkpt>
      <trkpt lat="47.5057" lon="6.76634">
        <ele>440.4</ele>
        <time>2017-02-26T09:21:41.000Z</time>
      </trkpt>
      <trkpt lat="47.50567" lon="6.76635">
        <ele>440.5</ele>
        <time>2017-02-26T09:21:42.000Z</time>
      </trkpt>
      <trkpt lat="47.50565" lon="6.76636">
        <ele>440.5</ele>
        <time>2017-02-26T09:21:43.000Z</time>
      </trkpt>
      <trkpt lat="47.50563" lon="6.76637">
        <ele>440.6</ele>
        <time>2017-02-26T09:21:44.000Z</time>
      </trkpt>
      <trkpt lat="47.5056" lon="6.76637">
        <ele>440.6</ele>
        <time>2017-02-26T09:21:45.000Z</time>
      </trkpt>
      <trkpt lat="47.50557" lon="6.76638">
        <ele>440.7</ele>
        <time>2017-02-26T09:21:46.000Z</time>
      </trkpt>
      <trkpt lat="47.50554" lon="6.76639">
        <ele>440.7</ele>
        <time>2017-02-26T09:21:47.000Z</time>
      </trkpt>
      <trkpt lat="47.50551" lon="6.7664">
        <ele>440.8</ele>
        <time>2017-02-26T09:21:48.000Z</time>
      </trkpt>
      <trkpt lat="47.50548" lon="6.7664">
        <ele>440.8</ele>
        <time>2017-02-26T09:21:49.000Z</time>
      </trkpt>
      <trkpt lat="47.50546" lon="6.7664">
        <ele>440.8</ele>
        <time>2017-02-26T09:21:50.000Z</time>
      </trkpt>
      <trkpt lat="47.50543" lon="6.7664">
        <ele>440.8</ele>
        <time>2017-02-26T09:21:51.000Z</time>
      </trkpt>
      <trkpt lat="47.5054" lon="6.7664">
        <ele>440.8</ele>
        <time>2017-02-26T09:21:52.000Z</time>
      </trkpt>
      <trkpt lat="47.50537" lon="6.76641">
        <ele>440.9</ele>
        <time>2017-02-26T09:21:53.000Z</time>
      </trkpt>
      <trkpt lat="47.50533" lon="6.76642">
        <ele>441</ele>
        <time>2017-02-26T09:21:54.000Z</time>
      </trkpt>
      <trkpt lat="47.5053" lon="6.76643">
        <ele>441.1</ele>
        <time>2017-02-26T09:21:55.000Z</time>
      </trkpt>
      <trkpt lat="47.50527" lon="6.76644">
        <ele>441.3</ele>
        <time>2017-02-26T09:21:56.000Z</time>
      </trkpt>
      <trkpt lat="47.50523" lon="6.76644">
        <ele>441.4</ele>
        <time>2017-02-26T09:21:57.000Z</time>
      </trkpt>
      <trkpt lat="47.5052" lon="6.76645">
        <ele>441.6</ele>
        <time>2017-02-26T09:21:58.000Z</time>
      </trkpt>
      <trkpt lat="47.50516" lon="6.76646">
        <ele>441.8</ele>
        <time>2017-02-26T09:21:59.000Z</time>
      </trkpt>
      <trkpt lat="47.50513" lon="6.76647">
        <ele>442</ele>
        <time>2017-02-26T09:22:00.000Z</time>
      </trkpt>
      <trkpt lat="47.5051" lon="6.76647">
        <ele>442.2</ele>
        <time>2017-02-26T09:22:01.000Z</time>
      </trkpt>
      <trkpt lat="47.50507" lon="6.76648">
        <ele>442.3</ele>
        <time>2017-02-26T09:22:02.000Z</time>
      </trkpt>
      <trkpt lat="47.50504" lon="6.76649">
        <ele>442.4</ele>
        <time>2017-02-26T09:22:03.000Z</time>
      </trkpt>
      <trkpt lat="47.50501" lon="6.7665">
        <ele>442.5</ele>
        <time>2017-02-26T09:22:04.000Z</time>
      </trkpt>
      <trkpt lat="47.50497" lon="6.76651">
        <ele>442.6</ele>
        <time>2017-02-26T09:22:05.000Z</time>
      </trkpt>
      <trkpt lat="47.50492" lon="6.76653">
        <ele>442.7</ele>
        <time>2017-02-26T09:22:06.000Z</time>
      </trkpt>
      <trkpt lat="47.50489" lon="6.76655">
        <ele>444</ele>
        <time>2017-02-26T09:22:07.000Z</time>
      </trkpt>
      <trkpt lat="47.50485" lon="6.76656">
        <ele>444.8</ele>
        <time>2017-02-26T09:22:08.000Z</time>
      </trkpt>
      <trkpt lat="47.50482" lon="6.76658">
        <ele>445.4</ele>
        <time>2017-02-26T09:22:09.000Z</time>
      </trkpt>
      <trkpt lat="47.50478" lon="6.76659">
        <ele>445.7</ele>
        <time>2017-02-26T09:22:10.000Z</time>
      </trkpt>
      <trkpt lat="47.50473" lon="6.76662">
        <ele>446.1</ele>
        <time>2017-02-26T09:22:11.000Z</time>
      </trkpt>
      <trkpt lat="47.50468" lon="6.76664">
        <ele>446.7</ele>
        <time>2017-02-26T09:22:12.000Z</time>
      </trkpt>
      <trkpt lat="47.50464" lon="6.76665">
        <ele>446.9</ele>
        <time>2017-02-26T09:22:13.000Z</time>
      </trkpt>
      <trkpt lat="47.5046" lon="6.76668">
        <ele>447.1</ele>
        <time>2017-02-26T09:22:14.000Z</time>
      </trkpt>
      <trkpt lat="47.50455" lon="6.7667">
        <ele>447.4</ele>
        <time>2017-02-26T09:22:15.000Z</time>
      </trkpt>
      <trkpt lat="47.50451" lon="6.76672">
        <ele>447.6</ele>
        <time>2017-02-26T09:22:16.000Z</time>
      </trkpt>
      <trkpt lat="47.50447" lon="6.76674">
        <ele>447.9</ele>
        <time>2017-02-26T09:22:17.000Z</time>
      </trkpt>
      <trkpt lat="47.50444" lon="6.76675">
        <ele>448.3</ele>
        <time>2017-02-26T09:22:18.000Z</time>
      </trkpt>
      <trkpt lat="47.50441" lon="6.76675">
        <ele>448.3</ele>
        <time>2017-02-26T09:22:19.000Z</time>
      </trkpt>
      <trkpt lat="47.50438" lon="6.76677">
        <ele>448.9</ele>
        <time>2017-02-26T09:22:20.000Z</time>
      </trkpt>
      <trkpt lat="47.50434" lon="6.76678">
        <ele>449.5</ele>
        <time>2017-02-26T09:22:21.000Z</time>
      </trkpt>
      <trkpt lat="47.50429" lon="6.7668">
        <ele>449.5</ele>
        <time>2017-02-26T09:22:22.000Z</time>
      </trkpt>
      <trkpt lat="47.50425" lon="6.76681">
        <ele>449.5</ele>
        <time>2017-02-26T09:22:23.000Z</time>
      </trkpt>
      <trkpt lat="47.50421" lon="6.76682">
        <ele>449.4</ele>
        <time>2017-02-26T09:22:24.000Z</time>
      </trkpt>
      <trkpt lat="47.50418" lon="6.76684">
        <ele>449.6</ele>
        <time>2017-02-26T09:22:25.000Z</time>
      </trkpt>
      <trkpt lat="47.50415" lon="6.76685">
        <ele>449.5</ele>
        <time>2017-02-26T09:22:26.000Z</time>
      </trkpt>
      <trkpt lat="47.50411" lon="6.76688">
        <ele>449.3</ele>
        <time>2017-02-26T09:22:27.000Z</time>
      </trkpt>
      <trkpt lat="47.50407" lon="6.7669">
        <ele>449.3</ele>
        <time>2017-02-26T09:22:28.000Z</time>
      </trkpt>
      <trkpt lat="47.50403" lon="6.76691">
        <ele>448.8</ele>
        <time>2017-02-26T09:22:29.000Z</time>
      </trkpt>
      <trkpt lat="47.50399" lon="6.76694">
        <ele>448.4</ele>
        <time>2017-02-26T09:22:30.000Z</time>
      </trkpt>
      <trkpt lat="47.50394" lon="6.76696">
        <ele>447.9</ele>
        <time>2017-02-26T09:22:31.000Z</time>
      </trkpt>
      <trkpt lat="47.5039" lon="6.76698">
        <ele>447.3</ele>
        <time>2017-02-26T09:22:32.000Z</time>
      </trkpt>
      <trkpt lat="47.50387" lon="6.76699">
        <ele>447.2</ele>
        <time>2017-02-26T09:22:33.000Z</time>
      </trkpt>
      <trkpt lat="47.50383" lon="6.76701">
        <ele>446.4</ele>
        <time>2017-02-26T09:22:34.000Z</time>
      </trkpt>
      <trkpt lat="47.5038" lon="6.76702">
        <ele>445.6</ele>
        <time>2017-02-26T09:22:35.000Z</time>
      </trkpt>
      <trkpt lat="47.50375" lon="6.76703">
        <ele>444.8</ele>
        <time>2017-02-26T09:22:36.000Z</time>
      </trkpt>
      <trkpt lat="47.5037" lon="6.76705">
        <ele>444.8</ele>
        <time>2017-02-26T09:22:37.000Z</time>
      </trkpt>
      <trkpt lat="47.50366" lon="6.76707">
        <ele>444.8</ele>
        <time>2017-02-26T09:22:38.000Z</time>
      </trkpt>
      <trkpt lat="47.50363" lon="6.76709">
        <ele>444.8</ele>
        <time>2017-02-26T09:22:39.000Z</time>
      </trkpt>
      <trkpt lat="47.50361" lon="6.7671">
        <ele>444.7</ele>
        <time>2017-02-26T09:22:40.000Z</time>
      </trkpt>
      <trkpt lat="47.50358" lon="6.76712">
        <ele>444.4</ele>
        <time>2017-02-26T09:22:41.000Z</time>
      </trkpt>
      <trkpt lat="47.50354" lon="6.76713">
        <ele>444.3</ele>
        <time>2017-02-26T09:22:42.000Z</time>
      </trkpt>
      <trkpt lat="47.5035" lon="6.76715">
        <ele>443.9</ele>
        <time>2017-02-26T09:22:43.000Z</time>
      </trkpt>
      <trkpt lat="47.50344" lon="6.76717">
        <ele>443.3</ele>
        <time>2017-02-26T09:22:44.000Z</time>
      </trkpt>
      <trkpt lat="47.50341" lon="6.76719">
        <ele>443.3</ele>
        <time>2017-02-26T09:22:45.000Z</time>
      </trkpt>
      <trkpt lat="47.50337" lon="6.76721">
        <ele>443.3</ele>
        <time>2017-02-26T09:22:46.000Z</time>
      </trkpt>
      <trkpt lat="47.50334" lon="6.76723">
        <ele>443.1</ele>
        <time>2017-02-26T09:22:47.000Z</time>
      </trkpt>
      <trkpt lat="47.50329" lon="6.76725">
        <ele>443</ele>
        <time>2017-02-26T09:22:48.000Z</time>
      </trkpt>
      <trkpt lat="47.50326" lon="6.76727">
        <ele>442.9</ele>
        <time>2017-02-26T09:22:49.000Z</time>
      </trkpt>
      <trkpt lat="47.50321" lon="6.76729">
        <ele>442.8</ele>
        <time>2017-02-26T09:22:50.000Z</time>
      </trkpt>
      <trkpt lat="47.50316" lon="6.76731">
        <ele>442.6</ele>
        <time>2017-02-26T09:22:51.000Z</time>
      </trkpt>
      <trkpt lat="47.50313" lon="6.76733">
        <ele>442.5</ele>
        <time>2017-02-26T09:22:52.000Z</time>
      </trkpt>
      <trkpt lat="47.50311" lon="6.76735">
        <ele>442</ele>
        <time>2017-02-26T09:22:53.000Z</time>
      </trkpt>
      <trkpt lat="47.50308" lon="6.76737">
        <ele>441.9</ele>
        <time>2017-02-26T09:22:54.000Z</time>
      </trkpt>
      <trkpt lat="47.50306" lon="6.76738">
        <ele>441.8</ele>
        <time>2017-02-26T09:22:55.000Z</time>
      </trkpt>
      <trkpt lat="47.50301" lon="6.76739">
        <ele>441.7</ele>
        <time>2017-02-26T09:22:56.000Z</time>
      </trkpt>
      <trkpt lat="47.50298" lon="6.7674">
        <ele>441.7</ele>
        <time>2017-02-26T09:22:57.000Z</time>
      </trkpt>
      <trkpt lat="47.50295" lon="6.76741">
        <ele>441.6</ele>
        <time>2017-02-26T09:22:58.000Z</time>
      </trkpt>
      <trkpt lat="47.50291" lon="6.76742">
        <ele>441.6</ele>
        <time>2017-02-26T09:22:59.000Z</time>
      </trkpt>
      <trkpt lat="47.50285" lon="6.76742">
        <ele>441.5</ele>
        <time>2017-02-26T09:23:00.000Z</time>
      </trkpt>
      <trkpt lat="47.5028" lon="6.76743">
        <ele>440.7</ele>
        <time>2017-02-26T09:23:01.000Z</time>
      </trkpt>
      <trkpt lat="47.50275" lon="6.76744">
        <ele>440.7</ele>
        <time>2017-02-26T09:23:02.000Z</time>
      </trkpt>
      <trkpt lat="47.50272" lon="6.76745">
        <ele>440.7</ele>
        <time>2017-02-26T09:23:03.000Z</time>
      </trkpt>
      <trkpt lat="47.50269" lon="6.76745">
        <ele>440.7</ele>
        <time>2017-02-26T09:23:04.000Z</time>
      </trkpt>
      <trkpt lat="47.50265" lon="6.76745">
        <ele>440.7</ele>
        <time>2017-02-26T09:23:05.000Z</time>
      </trkpt>
      <trkpt lat="47.50262" lon="6.76745">
        <ele>440.2</ele>
        <time>2017-02-26T09:23:06.000Z</time>
      </trkpt>
      <trkpt lat="47.50259" lon="6.76746">
        <ele>440.3</ele>
        <time>2017-02-26T09:23:07.000Z</time>
      </trkpt>
      <trkpt lat="47.50255" lon="6.76747">
        <ele>440.3</ele>
        <time>2017-02-26T09:23:08.000Z</time>
      </trkpt>
      <trkpt lat="47.50253" lon="6.76748">
        <ele>440.4</ele>
        <time>2017-02-26T09:23:09.000Z</time>
      </trkpt>
      <trkpt lat="47.5025" lon="6.76747">
        <ele>440.5</ele>
        <time>2017-02-26T09:23:10.000Z</time>
      </trkpt>
      <trkpt lat="47.50246" lon="6.76745">
        <ele>440.6</ele>
        <time>2017-02-26T09:23:11.000Z</time>
      </trkpt>
      <trkpt lat="47.50244" lon="6.76742">
        <ele>440.8</ele>
        <time>2017-02-26T09:23:12.000Z</time>
      </trkpt>
      <trkpt lat="47.50243" lon="6.76738">
        <ele>440.9</ele>
        <time>2017-02-26T09:23:13.000Z</time>
      </trkpt>
      <trkpt lat="47.5024" lon="6.76733">
        <ele>441.1</ele>
        <time>2017-02-26T09:23:14.000Z</time>
      </trkpt>
      <trkpt lat="47.50238" lon="6.76729">
        <ele>441.2</ele>
        <time>2017-02-26T09:23:15.000Z</time>
      </trkpt>
      <trkpt lat="47.50237" lon="6.76725">
        <ele>441.3</ele>
        <time>2017-02-26T09:23:16.000Z</time>
      </trkpt>
      <trkpt lat="47.50236" lon="6.7672">
        <ele>441.4</ele>
        <time>2017-02-26T09:23:17.000Z</time>
      </trkpt>
      <trkpt lat="47.50234" lon="6.76717">
        <ele>441.5</ele>
        <time>2017-02-26T09:23:18.000Z</time>
      </trkpt>
      <trkpt lat="47.50233" lon="6.76712">
        <ele>441.5</ele>
        <time>2017-02-26T09:23:19.000Z</time>
      </trkpt>
      <trkpt lat="47.50231" lon="6.76707">
        <ele>441.5</ele>
        <time>2017-02-26T09:23:20.000Z</time>
      </trkpt>
      <trkpt lat="47.5023" lon="6.76702">
        <ele>441.6</ele>
        <time>2017-02-26T09:23:21.000Z</time>
      </trkpt>
      <trkpt lat="47.50228" lon="6.76698">
        <ele>441.7</ele>
        <time>2017-02-26T09:23:22.000Z</time>
      </trkpt>
      <trkpt lat="47.50226" lon="6.76693">
        <ele>441.8</ele>
        <time>2017-02-26T09:23:23.000Z</time>
      </trkpt>
      <trkpt lat="47.50224" lon="6.76689">
        <ele>441.8</ele>
        <time>2017-02-26T09:23:24.000Z</time>
      </trkpt>
      <trkpt lat="47.50224" lon="6.76686">
        <ele>442</ele>
        <time>2017-02-26T09:23:25.000Z</time>
      </trkpt>
      <trkpt lat="47.50223" lon="6.76683">
        <ele>442.1</ele>
        <time>2017-02-26T09:23:26.000Z</time>
      </trkpt>
      <trkpt lat="47.50221" lon="6.7668">
        <ele>442.3</ele>
        <time>2017-02-26T09:23:27.000Z</time>
      </trkpt>
      <trkpt lat="47.5022" lon="6.76676">
        <ele>442.4</ele>
        <time>2017-02-26T09:23:28.000Z</time>
      </trkpt>
      <trkpt lat="47.50219" lon="6.76671">
        <ele>442.5</ele>
        <time>2017-02-26T09:23:29.000Z</time>
      </trkpt>
      <trkpt lat="47.50217" lon="6.76667">
        <ele>442.5</ele>
        <time>2017-02-26T09:23:30.000Z</time>
      </trkpt>
      <trkpt lat="47.50216" lon="6.76662">
        <ele>442.5</ele>
        <time>2017-02-26T09:23:31.000Z</time>
      </trkpt>
      <trkpt lat="47.50214" lon="6.76658">
        <ele>442.6</ele>
        <time>2017-02-26T09:23:32.000Z</time>
      </trkpt>
      <trkpt lat="47.50213" lon="6.76654">
        <ele>442.6</ele>
        <time>2017-02-26T09:23:33.000Z</time>
      </trkpt>
      <trkpt lat="47.50213" lon="6.76651">
        <ele>442.7</ele>
        <time>2017-02-26T09:23:34.000Z</time>
      </trkpt>
      <trkpt lat="47.50211" lon="6.76646">
        <ele>442.8</ele>
        <time>2017-02-26T09:23:35.000Z</time>
      </trkpt>
      <trkpt lat="47.5021" lon="6.76642">
        <ele>443</ele>
        <time>2017-02-26T09:23:36.000Z</time>
      </trkpt>
      <trkpt lat="47.50208" lon="6.76636">
        <ele>443</ele>
        <time>2017-02-26T09:23:37.000Z</time>
      </trkpt>
      <trkpt lat="47.50206" lon="6.76631">
        <ele>443</ele>
        <time>2017-02-26T09:23:38.000Z</time>
      </trkpt>
      <trkpt lat="47.50204" lon="6.76627">
        <ele>443</ele>
        <time>2017-02-26T09:23:39.000Z</time>
      </trkpt>
      <trkpt lat="47.50203" lon="6.76623">
        <ele>442.9</ele>
        <time>2017-02-26T09:23:40.000Z</time>
      </trkpt>
      <trkpt lat="47.50201" lon="6.76618">
        <ele>442.8</ele>
        <time>2017-02-26T09:23:41.000Z</time>
      </trkpt>
      <trkpt lat="47.502" lon="6.76613">
        <ele>442.6</ele>
        <time>2017-02-26T09:23:42.000Z</time>
      </trkpt>
      <trkpt lat="47.50198" lon="6.76608">
        <ele>442.4</ele>
        <time>2017-02-26T09:23:43.000Z</time>
      </trkpt>
      <trkpt lat="47.50194" lon="6.76605">
        <ele>442.3</ele>
        <time>2017-02-26T09:23:44.000Z</time>
      </trkpt>
      <trkpt lat="47.50192" lon="6.76604">
        <ele>442.3</ele>
        <time>2017-02-26T09:23:45.000Z</time>
      </trkpt>
      <trkpt lat="47.50188" lon="6.76601">
        <ele>442.2</ele>
        <time>2017-02-26T09:23:46.000Z</time>
      </trkpt>
      <trkpt lat="47.50185" lon="6.766">
        <ele>442.2</ele>
        <time>2017-02-26T09:23:47.000Z</time>
      </trkpt>
      <trkpt lat="47.50183" lon="6.766">
        <ele>442.2</ele>
        <time>2017-02-26T09:23:48.000Z</time>
      </trkpt>
      <trkpt lat="47.50178" lon="6.76601">
        <ele>442.2</ele>
        <time>2017-02-26T09:23:50.000Z</time>
      </trkpt>
      <trkpt lat="47.50176" lon="6.76601">
        <ele>442.3</ele>
        <time>2017-02-26T09:23:51.000Z</time>
      </trkpt>
      <trkpt lat="47.50173" lon="6.766">
        <ele>442.2</ele>
        <time>2017-02-26T09:23:52.000Z</time>
      </trkpt>
      <trkpt lat="47.5017" lon="6.766">
        <ele>442.1</ele>
        <time>2017-02-26T09:23:53.000Z</time>
      </trkpt>
      <trkpt lat="47.50166" lon="6.766">
        <ele>442</ele>
        <time>2017-02-26T09:23:54.000Z</time>
      </trkpt>
      <trkpt lat="47.50162" lon="6.76601">
        <ele>442</ele>
        <time>2017-02-26T09:23:55.000Z</time>
      </trkpt>
      <trkpt lat="47.50158" lon="6.76602">
        <ele>442.1</ele>
        <time>2017-02-26T09:23:57.000Z</time>
      </trkpt>
      <trkpt lat="47.50156" lon="6.76602">
        <ele>442.2</ele>
        <time>2017-02-26T09:23:58.000Z</time>
      </trkpt>
      <trkpt lat="47.50152" lon="6.76602">
        <ele>442.2</ele>
        <time>2017-02-26T09:24:00.000Z</time>
      </trkpt>
      <trkpt lat="47.5015" lon="6.76602">
        <ele>442.3</ele>
        <time>2017-02-26T09:24:01.000Z</time>
      </trkpt>
      <trkpt lat="47.50146" lon="6.76603">
        <ele>442.5</ele>
        <time>2017-02-26T09:24:03.000Z</time>
      </trkpt>
      <trkpt lat="47.50144" lon="6.76602">
        <ele>442.6</ele>
        <time>2017-02-26T09:24:04.000Z</time>
      </trkpt>
      <trkpt lat="47.5014" lon="6.76601">
        <ele>442.8</ele>
        <time>2017-02-26T09:24:06.000Z</time>
      </trkpt>
      <trkpt lat="47.50138" lon="6.76601">
        <ele>442.8</ele>
        <time>2017-02-26T09:24:07.000Z</time>
      </trkpt>
      <trkpt lat="47.50135" lon="6.76598">
        <ele>442.9</ele>
        <time>2017-02-26T09:24:09.000Z</time>
      </trkpt>
      <trkpt lat="47.50134" lon="6.76597">
        <ele>442.9</ele>
        <time>2017-02-26T09:24:10.000Z</time>
      </trkpt>
      <trkpt lat="47.50131" lon="6.76595">
        <ele>442.9</ele>
        <time>2017-02-26T09:24:11.000Z</time>
      </trkpt>
      <trkpt lat="47.5013" lon="6.76592">
        <ele>442.9</ele>
        <time>2017-02-26T09:24:12.000Z</time>
      </trkpt>
      <trkpt lat="47.50127" lon="6.76587">
        <ele>442.8</ele>
        <time>2017-02-26T09:24:14.000Z</time>
      </trkpt>
      <trkpt lat="47.50127" lon="6.76586">
        <ele>442.7</ele>
        <time>2017-02-26T09:24:15.000Z</time>
      </trkpt>
      <trkpt lat="47.50125" lon="6.76583">
        <ele>442.6</ele>
        <time>2017-02-26T09:24:16.000Z</time>
      </trkpt>
      <trkpt lat="47.50123" lon="6.76581">
        <ele>442.6</ele>
        <time>2017-02-26T09:24:17.000Z</time>
      </trkpt>
      <trkpt lat="47.5012" lon="6.76581">
        <ele>442.6</ele>
        <time>2017-02-26T09:24:18.000Z</time>
      </trkpt>
      <trkpt lat="47.50118" lon="6.76581">
        <ele>442.5</ele>
        <time>2017-02-26T09:24:19.000Z</time>
      </trkpt>
      <trkpt lat="47.50115" lon="6.7658">
        <ele>442.6</ele>
        <time>2017-02-26T09:24:20.000Z</time>
      </trkpt>
      <trkpt lat="47.50114" lon="6.76578">
        <ele>442.7</ele>
        <time>2017-02-26T09:24:21.000Z</time>
      </trkpt>
      <trkpt lat="47.50111" lon="6.76577">
        <ele>443.1</ele>
        <time>2017-02-26T09:24:23.000Z</time>
      </trkpt>
      <trkpt lat="47.50108" lon="6.76576">
        <ele>443.2</ele>
        <time>2017-02-26T09:24:24.000Z</time>
      </trkpt>
      <trkpt lat="47.50106" lon="6.76574">
        <ele>443.4</ele>
        <time>2017-02-26T09:24:25.000Z</time>
      </trkpt>
      <trkpt lat="47.50104" lon="6.76572">
        <ele>443.5</ele>
        <time>2017-02-26T09:24:26.000Z</time>
      </trkpt>
      <trkpt lat="47.50101" lon="6.76571">
        <ele>443.6</ele>
        <time>2017-02-26T09:24:27.000Z</time>
      </trkpt>
      <trkpt lat="47.50098" lon="6.7657">
        <ele>443.7</ele>
        <time>2017-02-26T09:24:28.000Z</time>
      </trkpt>
      <trkpt lat="47.50094" lon="6.7657">
        <ele>444.1</ele>
        <time>2017-02-26T09:24:30.000Z</time>
      </trkpt>
      <trkpt lat="47.50092" lon="6.7657">
        <ele>444.3</ele>
        <time>2017-02-26T09:24:31.000Z</time>
      </trkpt>
      <trkpt lat="47.50088" lon="6.76569">
        <ele>444.4</ele>
        <time>2017-02-26T09:24:32.000Z</time>
      </trkpt>
      <trkpt lat="47.50086" lon="6.76569">
        <ele>444.6</ele>
        <time>2017-02-26T09:24:33.000Z</time>
      </trkpt>
      <trkpt lat="47.50083" lon="6.76569">
        <ele>444.8</ele>
        <time>2017-02-26T09:24:34.000Z</time>
      </trkpt>
      <trkpt lat="47.50081" lon="6.76569">
        <ele>444.9</ele>
        <time>2017-02-26T09:24:35.000Z</time>
      </trkpt>
      <trkpt lat="47.50076" lon="6.76571">
        <ele>445</ele>
        <time>2017-02-26T09:24:38.000Z</time>
      </trkpt>
      <trkpt lat="47.50075" lon="6.76572">
        <ele>445</ele>
        <time>2017-02-26T09:24:39.000Z</time>
      </trkpt>
      <trkpt lat="47.50072" lon="6.76573">
        <ele>445.1</ele>
        <time>2017-02-26T09:24:41.000Z</time>
      </trkpt>
      <trkpt lat="47.5007" lon="6.76573">
        <ele>445.2</ele>
        <time>2017-02-26T09:24:42.000Z</time>
      </trkpt>
      <trkpt lat="47.50067" lon="6.76574">
        <ele>445.7</ele>
        <time>2017-02-26T09:24:44.000Z</time>
      </trkpt>
      <trkpt lat="47.50063" lon="6.76575">
        <ele>445.7</ele>
        <time>2017-02-26T09:24:45.000Z</time>
      </trkpt>
      <trkpt lat="47.5006" lon="6.7658">
        <ele>446</ele>
        <time>2017-02-26T09:24:47.000Z</time>
      </trkpt>
      <trkpt lat="47.50059" lon="6.76582">
        <ele>446.1</ele>
        <time>2017-02-26T09:24:48.000Z</time>
      </trkpt>
      <trkpt lat="47.50057" lon="6.76588">
        <ele>446.3</ele>
        <time>2017-02-26T09:24:51.000Z</time>
      </trkpt>
      <trkpt lat="47.50056" lon="6.76591">
        <ele>446.4</ele>
        <time>2017-02-26T09:24:52.000Z</time>
      </trkpt>
      <trkpt lat="47.50055" lon="6.76596">
        <ele>446.7</ele>
        <time>2017-02-26T09:24:54.000Z</time>
      </trkpt>
      <trkpt lat="47.50054" lon="6.76599">
        <ele>446.8</ele>
        <time>2017-02-26T09:24:55.000Z</time>
      </trkpt>
      <trkpt lat="47.50051" lon="6.76604">
        <ele>447.2</ele>
        <time>2017-02-26T09:24:58.000Z</time>
      </trkpt>
      <trkpt lat="47.50051" lon="6.76607">
        <ele>447.3</ele>
        <time>2017-02-26T09:24:59.000Z</time>
      </trkpt>
      <trkpt lat="47.50049" lon="6.76611">
        <ele>447.5</ele>
        <time>2017-02-26T09:25:00.000Z</time>
      </trkpt>
      <trkpt lat="47.50047" lon="6.76614">
        <ele>447.6</ele>
        <time>2017-02-26T09:25:01.000Z</time>
      </trkpt>
      <trkpt lat="47.50044" lon="6.76616">
        <ele>447.7</ele>
        <time>2017-02-26T09:25:02.000Z</time>
      </trkpt>
      <trkpt lat="47.50041" lon="6.76616">
        <ele>447.8</ele>
        <time>2017-02-26T09:25:03.000Z</time>
      </trkpt>
      <trkpt lat="47.50038" lon="6.76616">
        <ele>448</ele>
        <time>2017-02-26T09:25:04.000Z</time>
      </trkpt>
      <trkpt lat="47.50035" lon="6.76616">
        <ele>448.2</ele>
        <time>2017-02-26T09:25:05.000Z</time>
      </trkpt>
      <trkpt lat="47.50033" lon="6.76616">
        <ele>448.4</ele>
        <time>2017-02-26T09:25:06.000Z</time>
      </trkpt>
      <trkpt lat="47.50029" lon="6.76616">
        <ele>448.5</ele>
        <time>2017-02-26T09:25:07.000Z</time>
      </trkpt>
      <trkpt lat="47.50026" lon="6.76616">
        <ele>448.8</ele>
        <time>2017-02-26T09:25:08.000Z</time>
      </trkpt>
      <trkpt lat="47.50022" lon="6.76617">
        <ele>448.9</ele>
        <time>2017-02-26T09:25:09.000Z</time>
      </trkpt>
      <trkpt lat="47.50016" lon="6.76618">
        <ele>449.1</ele>
        <time>2017-02-26T09:25:10.000Z</time>
      </trkpt>
      <trkpt lat="47.5001" lon="6.7662">
        <ele>449.2</ele>
        <time>2017-02-26T09:25:11.000Z</time>
      </trkpt>
      <trkpt lat="47.50005" lon="6.76622">
        <ele>449.3</ele>
        <time>2017-02-26T09:25:12.000Z</time>
      </trkpt>
      <trkpt lat="47.50001" lon="6.76624">
        <ele>449.4</ele>
        <time>2017-02-26T09:25:13.000Z</time>
      </trkpt>
      <trkpt lat="47.49997" lon="6.76625">
        <ele>449.6</ele>
        <time>2017-02-26T09:25:14.000Z</time>
      </trkpt>
      <trkpt lat="47.49993" lon="6.76627">
        <ele>449.7</ele>
        <time>2017-02-26T09:25:15.000Z</time>
      </trkpt>
      <trkpt lat="47.4999" lon="6.76629">
        <ele>449.8</ele>
        <time>2017-02-26T09:25:16.000Z</time>
      </trkpt>
      <trkpt lat="47.49986" lon="6.76633">
        <ele>451.5</ele>
        <time>2017-02-26T09:25:17.000Z</time>
      </trkpt>
      <trkpt lat="47.49983" lon="6.76639">
        <ele>452.5</ele>
        <time>2017-02-26T09:25:18.000Z</time>
      </trkpt>
      <trkpt lat="47.49983" lon="6.76645">
        <ele>453.2</ele>
        <time>2017-02-26T09:25:19.000Z</time>
      </trkpt>
      <trkpt lat="47.49983" lon="6.76654">
        <ele>453.5</ele>
        <time>2017-02-26T09:25:20.000Z</time>
      </trkpt>
      <trkpt lat="47.49984" lon="6.76662">
        <ele>454</ele>
        <time>2017-02-26T09:25:21.000Z</time>
      </trkpt>
      <trkpt lat="47.49986" lon="6.76669">
        <ele>454.6</ele>
        <time>2017-02-26T09:25:22.000Z</time>
      </trkpt>
      <trkpt lat="47.49988" lon="6.76675">
        <ele>454.6</ele>
        <time>2017-02-26T09:25:23.000Z</time>
      </trkpt>
      <trkpt lat="47.4999" lon="6.76681">
        <ele>454.7</ele>
        <time>2017-02-26T09:25:24.000Z</time>
      </trkpt>
      <trkpt lat="47.49991" lon="6.76686">
        <ele>454.7</ele>
        <time>2017-02-26T09:25:25.000Z</time>
      </trkpt>
      <trkpt lat="47.49993" lon="6.76691">
        <ele>454.8</ele>
        <time>2017-02-26T09:25:26.000Z</time>
      </trkpt>
      <trkpt lat="47.49994" lon="6.76695">
        <ele>454.8</ele>
        <time>2017-02-26T09:25:27.000Z</time>
      </trkpt>
      <trkpt lat="47.49996" lon="6.767">
        <ele>454.9</ele>
        <time>2017-02-26T09:25:28.000Z</time>
      </trkpt>
      <trkpt lat="47.49998" lon="6.76705">
        <ele>454.9</ele>
        <time>2017-02-26T09:25:29.000Z</time>
      </trkpt>
      <trkpt lat="47.49999" lon="6.76711">
        <ele>454.9</ele>
        <time>2017-02-26T09:25:30.000Z</time>
      </trkpt>
      <trkpt lat="47.50001" lon="6.76717">
        <ele>455.2</ele>
        <time>2017-02-26T09:25:31.000Z</time>
      </trkpt>
      <trkpt lat="47.50002" lon="6.76722">
        <ele>455.7</ele>
        <time>2017-02-26T09:25:32.000Z</time>
      </trkpt>
      <trkpt lat="47.50003" lon="6.76727">
        <ele>455.9</ele>
        <time>2017-02-26T09:25:33.000Z</time>
      </trkpt>
      <trkpt lat="47.50004" lon="6.76733">
        <ele>455.8</ele>
        <time>2017-02-26T09:25:34.000Z</time>
      </trkpt>
      <trkpt lat="47.50005" lon="6.76739">
        <ele>455.5</ele>
        <time>2017-02-26T09:25:35.000Z</time>
      </trkpt>
      <trkpt lat="47.50006" lon="6.76745">
        <ele>455.7</ele>
        <time>2017-02-26T09:25:36.000Z</time>
      </trkpt>
      <trkpt lat="47.50006" lon="6.76751">
        <ele>455.6</ele>
        <time>2017-02-26T09:25:37.000Z</time>
      </trkpt>
      <trkpt lat="47.50006" lon="6.76758">
        <ele>455.6</ele>
        <time>2017-02-26T09:25:38.000Z</time>
      </trkpt>
      <trkpt lat="47.50007" lon="6.76765">
        <ele>455.4</ele>
        <time>2017-02-26T09:25:39.000Z</time>
      </trkpt>
      <trkpt lat="47.50008" lon="6.76772">
        <ele>455</ele>
        <time>2017-02-26T09:25:40.000Z</time>
      </trkpt>
      <trkpt lat="47.50009" lon="6.7678">
        <ele>454.4</ele>
        <time>2017-02-26T09:25:41.000Z</time>
      </trkpt>
      <trkpt lat="47.5001" lon="6.76787">
        <ele>454.1</ele>
        <time>2017-02-26T09:25:42.000Z</time>
      </trkpt>
      <trkpt lat="47.50011" lon="6.76795">
        <ele>453.8</ele>
        <time>2017-02-26T09:25:43.000Z</time>
      </trkpt>
      <trkpt lat="47.50012" lon="6.76802">
        <ele>453.5</ele>
        <time>2017-02-26T09:25:44.000Z</time>
      </trkpt>
      <trkpt lat="47.50011" lon="6.76809">
        <ele>453.2</ele>
        <time>2017-02-26T09:25:45.000Z</time>
      </trkpt>
      <trkpt lat="47.5001" lon="6.76816">
        <ele>452.6</ele>
        <time>2017-02-26T09:25:46.000Z</time>
      </trkpt>
      <trkpt lat="47.50008" lon="6.76825">
        <ele>451.7</ele>
        <time>2017-02-26T09:25:47.000Z</time>
      </trkpt>
      <trkpt lat="47.50007" lon="6.76834">
        <ele>450.9</ele>
        <time>2017-02-26T09:25:48.000Z</time>
      </trkpt>
      <trkpt lat="47.50005" lon="6.76845">
        <ele>450.4</ele>
        <time>2017-02-26T09:25:49.000Z</time>
      </trkpt>
      <trkpt lat="47.50005" lon="6.76855">
        <ele>450.3</ele>
        <time>2017-02-26T09:25:50.000Z</time>
      </trkpt>
      <trkpt lat="47.50006" lon="6.76864">
        <ele>449.8</ele>
        <time>2017-02-26T09:25:51.000Z</time>
      </trkpt>
      <trkpt lat="47.50008" lon="6.76874">
        <ele>449.9</ele>
        <time>2017-02-26T09:25:52.000Z</time>
      </trkpt>
      <trkpt lat="47.50011" lon="6.76881">
        <ele>449.2</ele>
        <time>2017-02-26T09:25:53.000Z</time>
      </trkpt>
      <trkpt lat="47.50015" lon="6.76888">
        <ele>449</ele>
        <time>2017-02-26T09:25:54.000Z</time>
      </trkpt>
      <trkpt lat="47.50018" lon="6.76893">
        <ele>448.6</ele>
        <time>2017-02-26T09:25:55.000Z</time>
      </trkpt>
      <trkpt lat="47.50022" lon="6.76898">
        <ele>448.3</ele>
        <time>2017-02-26T09:25:56.000Z</time>
      </trkpt>
      <trkpt lat="47.50025" lon="6.76902">
        <ele>447.8</ele>
        <time>2017-02-26T09:25:57.000Z</time>
      </trkpt>
      <trkpt lat="47.50029" lon="6.76906">
        <ele>447.4</ele>
        <time>2017-02-26T09:25:58.000Z</time>
      </trkpt>
      <trkpt lat="47.50033" lon="6.76911">
        <ele>447.4</ele>
        <time>2017-02-26T09:25:59.000Z</time>
      </trkpt>
      <trkpt lat="47.50037" lon="6.76917">
        <ele>447.5</ele>
        <time>2017-02-26T09:26:00.000Z</time>
      </trkpt>
      <trkpt lat="47.50042" lon="6.76924">
        <ele>447.8</ele>
        <time>2017-02-26T09:26:01.000Z</time>
      </trkpt>
      <trkpt lat="47.50046" lon="6.7693">
        <ele>447.9</ele>
        <time>2017-02-26T09:26:02.000Z</time>
      </trkpt>
      <trkpt lat="47.50048" lon="6.76938">
        <ele>448.4</ele>
        <time>2017-02-26T09:26:03.000Z</time>
      </trkpt>
      <trkpt lat="47.50047" lon="6.76945">
        <ele>448.6</ele>
        <time>2017-02-26T09:26:04.000Z</time>
      </trkpt>
      <trkpt lat="47.50046" lon="6.76952">
        <ele>448.3</ele>
        <time>2017-02-26T09:26:05.000Z</time>
      </trkpt>
      <trkpt lat="47.50044" lon="6.7696">
        <ele>448</ele>
        <time>2017-02-26T09:26:06.000Z</time>
      </trkpt>
      <trkpt lat="47.50043" lon="6.76967">
        <ele>448</ele>
        <time>2017-02-26T09:26:07.000Z</time>
      </trkpt>
      <trkpt lat="47.50039" lon="6.76972">
        <ele>447.4</ele>
        <time>2017-02-26T09:26:08.000Z</time>
      </trkpt>
      <trkpt lat="47.50037" lon="6.76975">
        <ele>447.4</ele>
        <time>2017-02-26T09:26:09.000Z</time>
      </trkpt>
      <trkpt lat="47.50033" lon="6.76977">
        <ele>447.2</ele>
        <time>2017-02-26T09:26:10.000Z</time>
      </trkpt>
      <trkpt lat="47.50029" lon="6.76979">
        <ele>447</ele>
        <time>2017-02-26T09:26:11.000Z</time>
      </trkpt>
      <trkpt lat="47.50028" lon="6.76978">
        <ele>446.7</ele>
        <time>2017-02-26T09:26:12.000Z</time>
      </trkpt>
      <trkpt lat="47.50025" lon="6.76974">
        <ele>446.2</ele>
        <time>2017-02-26T09:26:14.000Z</time>
      </trkpt>
      <trkpt lat="47.50024" lon="6.76972">
        <ele>446</ele>
        <time>2017-02-26T09:26:15.000Z</time>
      </trkpt>
      <trkpt lat="47.50026" lon="6.76966">
        <ele>444.1</ele>
        <time>2017-02-26T09:26:34.000Z</time>
      </trkpt>
      <trkpt lat="47.50027" lon="6.76964">
        <ele>443.7</ele>
        <time>2017-02-26T09:26:35.000Z</time>
      </trkpt>
      <trkpt lat="47.50029" lon="6.76968">
        <ele>441.6</ele>
        <time>2017-02-26T09:27:09.000Z</time>
      </trkpt>
      <trkpt lat="47.50031" lon="6.76972">
        <ele>441.4</ele>
        <time>2017-02-26T09:27:10.000Z</time>
      </trkpt>
      <trkpt lat="47.50035" lon="6.76976">
        <ele>441.3</ele>
        <time>2017-02-26T09:27:11.000Z</time>
      </trkpt>
      <trkpt lat="47.50037" lon="6.76977">
        <ele>441.2</ele>
        <time>2017-02-26T09:27:12.000Z</time>
      </trkpt>
      <trkpt lat="47.5004" lon="6.76977">
        <ele>441</ele>
        <time>2017-02-26T09:27:14.000Z</time>
      </trkpt>
      <trkpt lat="47.50042" lon="6.76975">
        <ele>440.9</ele>
        <time>2017-02-26T09:27:15.000Z</time>
      </trkpt>
      <trkpt lat="47.50044" lon="6.76972">
        <ele>440.8</ele>
        <time>2017-02-26T09:27:16.000Z</time>
      </trkpt>
      <trkpt lat="47.50045" lon="6.76969">
        <ele>440.7</ele>
        <time>2017-02-26T09:27:17.000Z</time>
      </trkpt>
      <trkpt lat="47.50047" lon="6.76966">
        <ele>440.6</ele>
        <time>2017-02-26T09:27:18.000Z</time>
      </trkpt>
      <trkpt lat="47.50047" lon="6.76962">
        <ele>440.6</ele>
        <time>2017-02-26T09:27:19.000Z</time>
      </trkpt>
      <trkpt lat="47.50048" lon="6.76958">
        <ele>440.6</ele>
        <time>2017-02-26T09:27:20.000Z</time>
      </trkpt>
      <trkpt lat="47.50048" lon="6.76953">
        <ele>440.6</ele>
        <time>2017-02-26T09:27:21.000Z</time>
      </trkpt>
      <trkpt lat="47.50049" lon="6.76949">
        <ele>440.6</ele>
        <time>2017-02-26T09:27:22.000Z</time>
      </trkpt>
      <trkpt lat="47.50049" lon="6.76945">
        <ele>440.6</ele>
        <time>2017-02-26T09:27:23.000Z</time>
      </trkpt>
      <trkpt lat="47.50049" lon="6.76939">
        <ele>440.7</ele>
        <time>2017-02-26T09:27:24.000Z</time>
      </trkpt>
      <trkpt lat="47.50048" lon="6.76935">
        <ele>440.8</ele>
        <time>2017-02-26T09:27:25.000Z</time>
      </trkpt>
      <trkpt lat="47.50048" lon="6.7693">
        <ele>440.9</ele>
        <time>2017-02-26T09:27:26.000Z</time>
      </trkpt>
      <trkpt lat="47.50049" lon="6.76927">
        <ele>441</ele>
        <time>2017-02-26T09:27:27.000Z</time>
      </trkpt>
      <trkpt lat="47.50049" lon="6.76922">
        <ele>441</ele>
        <time>2017-02-26T09:27:28.000Z</time>
      </trkpt>
      <trkpt lat="47.5005" lon="6.76918">
        <ele>441.1</ele>
        <time>2017-02-26T09:27:29.000Z</time>
      </trkpt>
      <trkpt lat="47.50051" lon="6.76913">
        <ele>441.2</ele>
        <time>2017-02-26T09:27:30.000Z</time>
      </trkpt>
      <trkpt lat="47.50052" lon="6.76909">
        <ele>441.3</ele>
        <time>2017-02-26T09:27:31.000Z</time>
      </trkpt>
      <trkpt lat="47.50053" lon="6.76905">
        <ele>441.4</ele>
        <time>2017-02-26T09:27:32.000Z</time>
      </trkpt>
      <trkpt lat="47.50053" lon="6.76902">
        <ele>441.6</ele>
        <time>2017-02-26T09:27:33.000Z</time>
      </trkpt>
      <trkpt lat="47.50049" lon="6.76904">
        <ele>442.4</ele>
        <time>2017-02-26T09:27:40.000Z</time>
      </trkpt>
      <trkpt lat="47.50047" lon="6.76908">
        <ele>442.5</ele>
        <time>2017-02-26T09:27:41.000Z</time>
      </trkpt>
      <trkpt lat="47.50042" lon="6.76909">
        <ele>443.4</ele>
        <time>2017-02-26T09:27:42.000Z</time>
      </trkpt>
      <trkpt lat="47.50039" lon="6.76908">
        <ele>443.5</ele>
        <time>2017-02-26T09:27:43.000Z</time>
      </trkpt>
      <trkpt lat="47.50036" lon="6.76906">
        <ele>443.5</ele>
        <time>2017-02-26T09:27:44.000Z</time>
      </trkpt>
      <trkpt lat="47.50033" lon="6.76903">
        <ele>443.7</ele>
        <time>2017-02-26T09:27:45.000Z</time>
      </trkpt>
      <trkpt lat="47.50029" lon="6.769">
        <ele>443.8</ele>
        <time>2017-02-26T09:27:46.000Z</time>
      </trkpt>
      <trkpt lat="47.50026" lon="6.76897">
        <ele>443.8</ele>
        <time>2017-02-26T09:27:47.000Z</time>
      </trkpt>
      <trkpt lat="47.50022" lon="6.76894">
        <ele>443.7</ele>
        <time>2017-02-26T09:27:48.000Z</time>
      </trkpt>
      <trkpt lat="47.50019" lon="6.7689">
        <ele>443.7</ele>
        <time>2017-02-26T09:27:49.000Z</time>
      </trkpt>
      <trkpt lat="47.50016" lon="6.76887">
        <ele>443.7</ele>
        <time>2017-02-26T09:27:50.000Z</time>
      </trkpt>
      <trkpt lat="47.50013" lon="6.76884">
        <ele>443.7</ele>
        <time>2017-02-26T09:27:51.000Z</time>
      </trkpt>
      <trkpt lat="47.50011" lon="6.7688">
        <ele>443.7</ele>
        <time>2017-02-26T09:27:52.000Z</time>
      </trkpt>
      <trkpt lat="47.50008" lon="6.76875">
        <ele>443.4</ele>
        <time>2017-02-26T09:27:53.000Z</time>
      </trkpt>
      <trkpt lat="47.50006" lon="6.76872">
        <ele>443.4</ele>
        <time>2017-02-26T09:27:54.000Z</time>
      </trkpt>
      <trkpt lat="47.50005" lon="6.76868">
        <ele>443.4</ele>
        <time>2017-02-26T09:27:55.000Z</time>
      </trkpt>
      <trkpt lat="47.50004" lon="6.76862">
        <ele>443.5</ele>
        <time>2017-02-26T09:27:57.000Z</time>
      </trkpt>
      <trkpt lat="47.50005" lon="6.76858">
        <ele>443.6</ele>
        <time>2017-02-26T09:27:58.000Z</time>
      </trkpt>
      <trkpt lat="47.50005" lon="6.76853">
        <ele>443.6</ele>
        <time>2017-02-26T09:27:59.000Z</time>
      </trkpt>
      <trkpt lat="47.50006" lon="6.76848">
        <ele>443.7</ele>
        <time>2017-02-26T09:28:00.000Z</time>
      </trkpt>
      <trkpt lat="47.50007" lon="6.76844">
        <ele>443.6</ele>
        <time>2017-02-26T09:28:01.000Z</time>
      </trkpt>
      <trkpt lat="47.50008" lon="6.76839">
        <ele>443.6</ele>
        <time>2017-02-26T09:28:02.000Z</time>
      </trkpt>
      <trkpt lat="47.50009" lon="6.76834">
        <ele>443.6</ele>
        <time>2017-02-26T09:28:03.000Z</time>
      </trkpt>
      <trkpt lat="47.5001" lon="6.7683">
        <ele>443.8</ele>
        <time>2017-02-26T09:28:04.000Z</time>
      </trkpt>
      <trkpt lat="47.50011" lon="6.76825">
        <ele>443.9</ele>
        <time>2017-02-26T09:28:05.000Z</time>
      </trkpt>
      <trkpt lat="47.50012" lon="6.76821">
        <ele>444.2</ele>
        <time>2017-02-26T09:28:06.000Z</time>
      </trkpt>
      <trkpt lat="47.50013" lon="6.76816">
        <ele>444.4</ele>
        <time>2017-02-26T09:28:07.000Z</time>
      </trkpt>
      <trkpt lat="47.50013" lon="6.76811">
        <ele>444.5</ele>
        <time>2017-02-26T09:28:08.000Z</time>
      </trkpt>
      <trkpt lat="47.50014" lon="6.76807">
        <ele>444.7</ele>
        <time>2017-02-26T09:28:09.000Z</time>
      </trkpt>
      <trkpt lat="47.50014" lon="6.76801">
        <ele>445</ele>
        <time>2017-02-26T09:28:10.000Z</time>
      </trkpt>
      <trkpt lat="47.50013" lon="6.76797">
        <ele>445.2</ele>
        <time>2017-02-26T09:28:11.000Z</time>
      </trkpt>
      <trkpt lat="47.50013" lon="6.76791">
        <ele>445.5</ele>
        <time>2017-02-26T09:28:12.000Z</time>
      </trkpt>
      <trkpt lat="47.50012" lon="6.76786">
        <ele>445.8</ele>
        <time>2017-02-26T09:28:13.000Z</time>
      </trkpt>
      <trkpt lat="47.50011" lon="6.76781">
        <ele>446</ele>
        <time>2017-02-26T09:28:14.000Z</time>
      </trkpt>
      <trkpt lat="47.5001" lon="6.76777">
        <ele>446.1</ele>
        <time>2017-02-26T09:28:15.000Z</time>
      </trkpt>
      <trkpt lat="47.5001" lon="6.76773">
        <ele>446.4</ele>
        <time>2017-02-26T09:28:16.000Z</time>
      </trkpt>
      <trkpt lat="47.50009" lon="6.7677">
        <ele>446.6</ele>
        <time>2017-02-26T09:28:17.000Z</time>
      </trkpt>
      <trkpt lat="47.50008" lon="6.76765">
        <ele>446.9</ele>
        <time>2017-02-26T09:28:18.000Z</time>
      </trkpt>
      <trkpt lat="47.50008" lon="6.76761">
        <ele>447.1</ele>
        <time>2017-02-26T09:28:19.000Z</time>
      </trkpt>
      <trkpt lat="47.50007" lon="6.76757">
        <ele>447.4</ele>
        <time>2017-02-26T09:28:20.000Z</time>
      </trkpt>
      <trkpt lat="47.50007" lon="6.76753">
        <ele>447.6</ele>
        <time>2017-02-26T09:28:21.000Z</time>
      </trkpt>
      <trkpt lat="47.50007" lon="6.76748">
        <ele>447.9</ele>
        <time>2017-02-26T09:28:22.000Z</time>
      </trkpt>
      <trkpt lat="47.50007" lon="6.76744">
        <ele>448</ele>
        <time>2017-02-26T09:28:23.000Z</time>
      </trkpt>
      <trkpt lat="47.50006" lon="6.7674">
        <ele>448.2</ele>
        <time>2017-02-26T09:28:24.000Z</time>
      </trkpt>
      <trkpt lat="47.50006" lon="6.76734">
        <ele>448.6</ele>
        <time>2017-02-26T09:28:26.000Z</time>
      </trkpt>
      <trkpt lat="47.50007" lon="6.76731">
        <ele>448.7</ele>
        <time>2017-02-26T09:28:27.000Z</time>
      </trkpt>
      <trkpt lat="47.50006" lon="6.76727">
        <ele>449</ele>
        <time>2017-02-26T09:28:29.000Z</time>
      </trkpt>
      <trkpt lat="47.50005" lon="6.76724">
        <ele>449.1</ele>
        <time>2017-02-26T09:28:30.000Z</time>
      </trkpt>
      <trkpt lat="47.50003" lon="6.7672">
        <ele>449.3</ele>
        <time>2017-02-26T09:28:31.000Z</time>
      </trkpt>
      <trkpt lat="47.50001" lon="6.76715">
        <ele>449.4</ele>
        <time>2017-02-26T09:28:32.000Z</time>
      </trkpt>
      <trkpt lat="47.49999" lon="6.7671">
        <ele>449.6</ele>
        <time>2017-02-26T09:28:33.000Z</time>
      </trkpt>
      <trkpt lat="47.49997" lon="6.76705">
        <ele>449.7</ele>
        <time>2017-02-26T09:28:34.000Z</time>
      </trkpt>
      <trkpt lat="47.49996" lon="6.767">
        <ele>449.8</ele>
        <time>2017-02-26T09:28:35.000Z</time>
      </trkpt>
      <trkpt lat="47.49994" lon="6.76696">
        <ele>449.9</ele>
        <time>2017-02-26T09:28:36.000Z</time>
      </trkpt>
      <trkpt lat="47.49992" lon="6.7669">
        <ele>450.6</ele>
        <time>2017-02-26T09:28:37.000Z</time>
      </trkpt>
      <trkpt lat="47.49991" lon="6.76685">
        <ele>450.8</ele>
        <time>2017-02-26T09:28:38.000Z</time>
      </trkpt>
      <trkpt lat="47.4999" lon="6.7668">
        <ele>450.9</ele>
        <time>2017-02-26T09:28:39.000Z</time>
      </trkpt>
      <trkpt lat="47.49989" lon="6.76676">
        <ele>451.1</ele>
        <time>2017-02-26T09:28:40.000Z</time>
      </trkpt>
      <trkpt lat="47.49987" lon="6.7667">
        <ele>451.2</ele>
        <time>2017-02-26T09:28:41.000Z</time>
      </trkpt>
      <trkpt lat="47.49986" lon="6.76665">
        <ele>451.4</ele>
        <time>2017-02-26T09:28:42.000Z</time>
      </trkpt>
      <trkpt lat="47.49984" lon="6.76659">
        <ele>452.9</ele>
        <time>2017-02-26T09:28:43.000Z</time>
      </trkpt>
      <trkpt lat="47.49984" lon="6.76654">
        <ele>453</ele>
        <time>2017-02-26T09:28:44.000Z</time>
      </trkpt>
      <trkpt lat="47.49984" lon="6.76648">
        <ele>453.1</ele>
        <time>2017-02-26T09:28:45.000Z</time>
      </trkpt>
      <trkpt lat="47.49985" lon="6.76644">
        <ele>453.2</ele>
        <time>2017-02-26T09:28:46.000Z</time>
      </trkpt>
      <trkpt lat="47.49987" lon="6.76639">
        <ele>453.2</ele>
        <time>2017-02-26T09:28:47.000Z</time>
      </trkpt>
      <trkpt lat="47.4999" lon="6.76637">
        <ele>453.2</ele>
        <time>2017-02-26T09:28:48.000Z</time>
      </trkpt>
      <trkpt lat="47.49993" lon="6.76636">
        <ele>453.2</ele>
        <time>2017-02-26T09:28:49.000Z</time>
      </trkpt>
      <trkpt lat="47.49996" lon="6.76634">
        <ele>453.2</ele>
        <time>2017-02-26T09:28:50.000Z</time>
      </trkpt>
      <trkpt lat="47.5" lon="6.76633">
        <ele>453.2</ele>
        <time>2017-02-26T09:28:51.000Z</time>
      </trkpt>
      <trkpt lat="47.50002" lon="6.76633">
        <ele>453.2</ele>
        <time>2017-02-26T09:28:52.000Z</time>
      </trkpt>
      <trkpt lat="47.50004" lon="6.76633">
        <ele>453.3</ele>
        <time>2017-02-26T09:28:53.000Z</time>
      </trkpt>
      <trkpt lat="47.50006" lon="6.76633">
        <ele>453.3</ele>
        <time>2017-02-26T09:28:54.000Z</time>
      </trkpt>
      <trkpt lat="47.50008" lon="6.76633">
        <ele>453.3</ele>
        <time>2017-02-26T09:28:55.000Z</time>
      </trkpt>
      <trkpt lat="47.50011" lon="6.76633">
        <ele>453.4</ele>
        <time>2017-02-26T09:28:56.000Z</time>
      </trkpt>
      <trkpt lat="47.50014" lon="6.76633">
        <ele>453.4</ele>
        <time>2017-02-26T09:28:57.000Z</time>
      </trkpt>
      <trkpt lat="47.50018" lon="6.76633">
        <ele>453.4</ele>
        <time>2017-02-26T09:28:58.000Z</time>
      </trkpt>
      <trkpt lat="47.50021" lon="6.76634">
        <ele>453.4</ele>
        <time>2017-02-26T09:28:59.000Z</time>
      </trkpt>
      <trkpt lat="47.50025" lon="6.76635">
        <ele>453.4</ele>
        <time>2017-02-26T09:29:00.000Z</time>
      </trkpt>
      <trkpt lat="47.50028" lon="6.76636">
        <ele>453.4</ele>
        <time>2017-02-26T09:29:01.000Z</time>
      </trkpt>
      <trkpt lat="47.50031" lon="6.76637">
        <ele>453.4</ele>
        <time>2017-02-26T09:29:02.000Z</time>
      </trkpt>
      <trkpt lat="47.50035" lon="6.76637">
        <ele>453.4</ele>
        <time>2017-02-26T09:29:03.000Z</time>
      </trkpt>
      <trkpt lat="47.50037" lon="6.76636">
        <ele>453.3</ele>
        <time>2017-02-26T09:29:04.000Z</time>
      </trkpt>
      <trkpt lat="47.50039" lon="6.76635">
        <ele>453.3</ele>
        <time>2017-02-26T09:29:05.000Z</time>
      </trkpt>
      <trkpt lat="47.50042" lon="6.76634">
        <ele>453.2</ele>
        <time>2017-02-26T09:29:06.000Z</time>
      </trkpt>
      <trkpt lat="47.50043" lon="6.76632">
        <ele>453.2</ele>
        <time>2017-02-26T09:29:07.000Z</time>
      </trkpt>
      <trkpt lat="47.50046" lon="6.76627">
        <ele>453</ele>
        <time>2017-02-26T09:29:08.000Z</time>
      </trkpt>
      <trkpt lat="47.50047" lon="6.7662">
        <ele>453</ele>
        <time>2017-02-26T09:29:09.000Z</time>
      </trkpt>
      <trkpt lat="47.50048" lon="6.76617">
        <ele>452.9</ele>
        <time>2017-02-26T09:29:10.000Z</time>
      </trkpt>
      <trkpt lat="47.50049" lon="6.76613">
        <ele>452.8</ele>
        <time>2017-02-26T09:29:11.000Z</time>
      </trkpt>
      <trkpt lat="47.50051" lon="6.7661">
        <ele>452.7</ele>
        <time>2017-02-26T09:29:12.000Z</time>
      </trkpt>
      <trkpt lat="47.50053" lon="6.76606">
        <ele>452.4</ele>
        <time>2017-02-26T09:29:13.000Z</time>
      </trkpt>
      <trkpt lat="47.50056" lon="6.76602">
        <ele>452.1</ele>
        <time>2017-02-26T09:29:15.000Z</time>
      </trkpt>
      <trkpt lat="47.50056" lon="6.766">
        <ele>451.8</ele>
        <time>2017-02-26T09:29:16.000Z</time>
      </trkpt>
      <trkpt lat="47.50058" lon="6.76596">
        <ele>451.5</ele>
        <time>2017-02-26T09:29:17.000Z</time>
      </trkpt>
      <trkpt lat="47.50059" lon="6.76593">
        <ele>451.2</ele>
        <time>2017-02-26T09:29:18.000Z</time>
      </trkpt>
      <trkpt lat="47.50061" lon="6.76588">
        <ele>450.5</ele>
        <time>2017-02-26T09:29:20.000Z</time>
      </trkpt>
      <trkpt lat="47.50062" lon="6.76586">
        <ele>450.3</ele>
        <time>2017-02-26T09:29:21.000Z</time>
      </trkpt>
      <trkpt lat="47.50062" lon="6.76584">
        <ele>450.1</ele>
        <time>2017-02-26T09:29:22.000Z</time>
      </trkpt>
      <trkpt lat="47.50063" lon="6.76579">
        <ele>449.8</ele>
        <time>2017-02-26T09:29:23.000Z</time>
      </trkpt>
      <trkpt lat="47.50064" lon="6.76573">
        <ele>449.6</ele>
        <time>2017-02-26T09:29:24.000Z</time>
      </trkpt>
      <trkpt lat="47.50064" lon="6.76569">
        <ele>449.2</ele>
        <time>2017-02-26T09:29:25.000Z</time>
      </trkpt>
      <trkpt lat="47.50064" lon="6.76565">
        <ele>448.7</ele>
        <time>2017-02-26T09:29:26.000Z</time>
      </trkpt>
      <trkpt lat="47.50063" lon="6.76562">
        <ele>448.3</ele>
        <time>2017-02-26T09:29:27.000Z</time>
      </trkpt>
      <trkpt lat="47.50062" lon="6.76558">
        <ele>447.9</ele>
        <time>2017-02-26T09:29:28.000Z</time>
      </trkpt>
      <trkpt lat="47.50061" lon="6.76555">
        <ele>447.5</ele>
        <time>2017-02-26T09:29:29.000Z</time>
      </trkpt>
      <trkpt lat="47.5006" lon="6.76551">
        <ele>447.1</ele>
        <time>2017-02-26T09:29:30.000Z</time>
      </trkpt>
      <trkpt lat="47.50058" lon="6.76547">
        <ele>446.8</ele>
        <time>2017-02-26T09:29:31.000Z</time>
      </trkpt>
      <trkpt lat="47.50057" lon="6.76541">
        <ele>446.4</ele>
        <time>2017-02-26T09:29:33.000Z</time>
      </trkpt>
      <trkpt lat="47.50056" lon="6.76539">
        <ele>446.1</ele>
        <time>2017-02-26T09:29:34.000Z</time>
      </trkpt>
      <trkpt lat="47.50054" lon="6.76535">
        <ele>445.9</ele>
        <time>2017-02-26T09:29:35.000Z</time>
      </trkpt>
      <trkpt lat="47.50053" lon="6.76527">
        <ele>445.7</ele>
        <time>2017-02-26T09:29:36.000Z</time>
      </trkpt>
      <trkpt lat="47.50052" lon="6.76522">
        <ele>443.7</ele>
        <time>2017-02-26T09:29:37.000Z</time>
      </trkpt>
      <trkpt lat="47.50052" lon="6.76517">
        <ele>443.6</ele>
        <time>2017-02-26T09:29:38.000Z</time>
      </trkpt>
      <trkpt lat="47.5005" lon="6.7651">
        <ele>443.5</ele>
        <time>2017-02-26T09:29:39.000Z</time>
      </trkpt>
      <trkpt lat="47.50049" lon="6.76503">
        <ele>443.4</ele>
        <time>2017-02-26T09:29:40.000Z</time>
      </trkpt>
      <trkpt lat="47.50048" lon="6.76496">
        <ele>443.2</ele>
        <time>2017-02-26T09:29:41.000Z</time>
      </trkpt>
      <trkpt lat="47.50046" lon="6.7649">
        <ele>443.1</ele>
        <time>2017-02-26T09:29:42.000Z</time>
      </trkpt>
      <trkpt lat="47.50044" lon="6.76484">
        <ele>442.9</ele>
        <time>2017-02-26T09:29:43.000Z</time>
      </trkpt>
      <trkpt lat="47.50043" lon="6.76478">
        <ele>442.1</ele>
        <time>2017-02-26T09:29:45.000Z</time>
      </trkpt>
      <trkpt lat="47.50045" lon="6.76476">
        <ele>441.9</ele>
        <time>2017-02-26T09:29:46.000Z</time>
      </trkpt>
      <trkpt lat="47.50048" lon="6.76474">
        <ele>441.6</ele>
        <time>2017-02-26T09:29:47.000Z</time>
      </trkpt>
      <trkpt lat="47.50051" lon="6.76474">
        <ele>441.6</ele>
        <time>2017-02-26T09:29:48.000Z</time>
      </trkpt>
      <trkpt lat="47.50055" lon="6.76475">
        <ele>441.6</ele>
        <time>2017-02-26T09:29:49.000Z</time>
      </trkpt>
      <trkpt lat="47.50059" lon="6.76473">
        <ele>441.5</ele>
        <time>2017-02-26T09:29:50.000Z</time>
      </trkpt>
      <trkpt lat="47.50062" lon="6.76471">
        <ele>441.5</ele>
        <time>2017-02-26T09:29:51.000Z</time>
      </trkpt>
      <trkpt lat="47.50066" lon="6.76468">
        <ele>441.7</ele>
        <time>2017-02-26T09:29:52.000Z</time>
      </trkpt>
      <trkpt lat="47.5007" lon="6.76465">
        <ele>441.7</ele>
        <time>2017-02-26T09:29:53.000Z</time>
      </trkpt>
      <trkpt lat="47.50074" lon="6.76464">
        <ele>441.5</ele>
        <time>2017-02-26T09:29:54.000Z</time>
      </trkpt>
      <trkpt lat="47.50081" lon="6.76463">
        <ele>440.5</ele>
        <time>2017-02-26T09:29:55.000Z</time>
      </trkpt>
      <trkpt lat="47.50087" lon="6.76461">
        <ele>440.3</ele>
        <time>2017-02-26T09:29:56.000Z</time>
      </trkpt>
      <trkpt lat="47.50091" lon="6.76458">
        <ele>440.1</ele>
        <time>2017-02-26T09:29:57.000Z</time>
      </trkpt>
      <trkpt lat="47.50095" lon="6.76458">
        <ele>439.8</ele>
        <time>2017-02-26T09:29:58.000Z</time>
      </trkpt>
      <trkpt lat="47.501" lon="6.76457">
        <ele>438.7</ele>
        <time>2017-02-26T09:29:59.000Z</time>
      </trkpt>
      <trkpt lat="47.5011" lon="6.76455">
        <ele>438.6</ele>
        <time>2017-02-26T09:30:00.000Z</time>
      </trkpt>
      <trkpt lat="47.50118" lon="6.76453">
        <ele>438.6</ele>
        <time>2017-02-26T09:30:01.000Z</time>
      </trkpt>
      <trkpt lat="47.50125" lon="6.7645">
        <ele>439.6</ele>
        <time>2017-02-26T09:30:02.000Z</time>
      </trkpt>
      <trkpt lat="47.5013" lon="6.76448">
        <ele>439.7</ele>
        <time>2017-02-26T09:30:03.000Z</time>
      </trkpt>
      <trkpt lat="47.50135" lon="6.76445">
        <ele>439.5</ele>
        <time>2017-02-26T09:30:04.000Z</time>
      </trkpt>
      <trkpt lat="47.5014" lon="6.76441">
        <ele>439.8</ele>
        <time>2017-02-26T09:30:05.000Z</time>
      </trkpt>
      <trkpt lat="47.50147" lon="6.76439">
        <ele>439.2</ele>
        <time>2017-02-26T09:30:06.000Z</time>
      </trkpt>
      <trkpt lat="47.50153" lon="6.76438">
        <ele>438.3</ele>
        <time>2017-02-26T09:30:07.000Z</time>
      </trkpt>
      <trkpt lat="47.50158" lon="6.76435">
        <ele>437.6</ele>
        <time>2017-02-26T09:30:08.000Z</time>
      </trkpt>
      <trkpt lat="47.50162" lon="6.76433">
        <ele>437.5</ele>
        <time>2017-02-26T09:30:09.000Z</time>
      </trkpt>
      <trkpt lat="47.50167" lon="6.76429">
        <ele>435.4</ele>
        <time>2017-02-26T09:30:10.000Z</time>
      </trkpt>
      <trkpt lat="47.50168" lon="6.76424">
        <ele>435.3</ele>
        <time>2017-02-26T09:30:11.000Z</time>
      </trkpt>
      <trkpt lat="47.50167" lon="6.76421">
        <ele>435.2</ele>
        <time>2017-02-26T09:30:12.000Z</time>
      </trkpt>
      <trkpt lat="47.50169" lon="6.76418">
        <ele>435.2</ele>
        <time>2017-02-26T09:30:14.000Z</time>
      </trkpt>
      <trkpt lat="47.50169" lon="6.76414">
        <ele>435.2</ele>
        <time>2017-02-26T09:30:15.000Z</time>
      </trkpt>
      <trkpt lat="47.5017" lon="6.76408">
        <ele>435.4</ele>
        <time>2017-02-26T09:30:18.000Z</time>
      </trkpt>
      <trkpt lat="47.50169" lon="6.76403">
        <ele>435.4</ele>
        <time>2017-02-26T09:30:19.000Z</time>
      </trkpt>
      <trkpt lat="47.50167" lon="6.76396">
        <ele>435.4</ele>
        <time>2017-02-26T09:30:20.000Z</time>
      </trkpt>
      <trkpt lat="47.50165" lon="6.7639">
        <ele>435.5</ele>
        <time>2017-02-26T09:30:21.000Z</time>
      </trkpt>
      <trkpt lat="47.50163" lon="6.76385">
        <ele>435.6</ele>
        <time>2017-02-26T09:30:22.000Z</time>
      </trkpt>
      <trkpt lat="47.50163" lon="6.76378">
        <ele>435.6</ele>
        <time>2017-02-26T09:30:23.000Z</time>
      </trkpt>
      <trkpt lat="47.50162" lon="6.76369">
        <ele>435.4</ele>
        <time>2017-02-26T09:30:24.000Z</time>
      </trkpt>
      <trkpt lat="47.50161" lon="6.76363">
        <ele>435.2</ele>
        <time>2017-02-26T09:30:25.000Z</time>
      </trkpt>
      <trkpt lat="47.5016" lon="6.76356">
        <ele>435</ele>
        <time>2017-02-26T09:30:26.000Z</time>
      </trkpt>
      <trkpt lat="47.50158" lon="6.76349">
        <ele>434.7</ele>
        <time>2017-02-26T09:30:27.000Z</time>
      </trkpt>
      <trkpt lat="47.50157" lon="6.76343">
        <ele>434.4</ele>
        <time>2017-02-26T09:30:28.000Z</time>
      </trkpt>
      <trkpt lat="47.50155" lon="6.76336">
        <ele>434.1</ele>
        <time>2017-02-26T09:30:29.000Z</time>
      </trkpt>
      <trkpt lat="47.50153" lon="6.76331">
        <ele>433.7</ele>
        <time>2017-02-26T09:30:30.000Z</time>
      </trkpt>
      <trkpt lat="47.50151" lon="6.76329">
        <ele>433.5</ele>
        <time>2017-02-26T09:30:31.000Z</time>
      </trkpt>
      <trkpt lat="47.50155" lon="6.76327">
        <ele>437.1</ele>
        <time>2017-02-26T09:30:49.000Z</time>
      </trkpt>
      <trkpt lat="47.50156" lon="6.76327">
        <ele>437.6</ele>
        <time>2017-02-26T09:30:50.000Z</time>
      </trkpt>
      <trkpt lat="47.50154" lon="6.76324">
        <ele>436.1</ele>
        <time>2017-02-26T09:31:39.000Z</time>
      </trkpt>
      <trkpt lat="47.50152" lon="6.76323">
        <ele>436</ele>
        <time>2017-02-26T09:31:40.000Z</time>
      </trkpt>
      <trkpt lat="47.50156" lon="6.76322">
        <ele>437.9</ele>
        <time>2017-02-26T09:31:59.000Z</time>
      </trkpt>
      <trkpt lat="47.50156" lon="6.76319">
        <ele>438.2</ele>
        <time>2017-02-26T09:32:00.000Z</time>
      </trkpt>
      <trkpt lat="47.50155" lon="6.76314">
        <ele>438.5</ele>
        <time>2017-02-26T09:32:01.000Z</time>
      </trkpt>
      <trkpt lat="47.50154" lon="6.76309">
        <ele>438.8</ele>
        <time>2017-02-26T09:32:02.000Z</time>
      </trkpt>
      <trkpt lat="47.50152" lon="6.76303">
        <ele>439</ele>
        <time>2017-02-26T09:32:03.000Z</time>
      </trkpt>
      <trkpt lat="47.50151" lon="6.76297">
        <ele>439.1</ele>
        <time>2017-02-26T09:32:04.000Z</time>
      </trkpt>
      <trkpt lat="47.5015" lon="6.76291">
        <ele>439.3</ele>
        <time>2017-02-26T09:32:05.000Z</time>
      </trkpt>
      <trkpt lat="47.50148" lon="6.76285">
        <ele>439.3</ele>
        <time>2017-02-26T09:32:06.000Z</time>
      </trkpt>
      <trkpt lat="47.50145" lon="6.76273">
        <ele>439.2</ele>
        <time>2017-02-26T09:32:07.000Z</time>
      </trkpt>
      <trkpt lat="47.50143" lon="6.76266">
        <ele>439</ele>
        <time>2017-02-26T09:32:08.000Z</time>
      </trkpt>
      <trkpt lat="47.50141" lon="6.7626">
        <ele>438.8</ele>
        <time>2017-02-26T09:32:09.000Z</time>
      </trkpt>
      <trkpt lat="47.50139" lon="6.76255">
        <ele>438.6</ele>
        <time>2017-02-26T09:32:10.000Z</time>
      </trkpt>
      <trkpt lat="47.50137" lon="6.76248">
        <ele>438.3</ele>
        <time>2017-02-26T09:32:11.000Z</time>
      </trkpt>
      <trkpt lat="47.50135" lon="6.76241">
        <ele>438.1</ele>
        <time>2017-02-26T09:32:12.000Z</time>
      </trkpt>
      <trkpt lat="47.50133" lon="6.76234">
        <ele>437.8</ele>
        <time>2017-02-26T09:32:13.000Z</time>
      </trkpt>
      <trkpt lat="47.5013" lon="6.76227">
        <ele>437.5</ele>
        <time>2017-02-26T09:32:14.000Z</time>
      </trkpt>
      <trkpt lat="47.50127" lon="6.76216">
        <ele>433.5</ele>
        <time>2017-02-26T09:32:15.000Z</time>
      </trkpt>
      <trkpt lat="47.50125" lon="6.76209">
        <ele>429.9</ele>
        <time>2017-02-26T09:32:16.000Z</time>
      </trkpt>
      <trkpt lat="47.50123" lon="6.76201">
        <ele>426.5</ele>
        <time>2017-02-26T09:32:17.000Z</time>
      </trkpt>
      <trkpt lat="47.50122" lon="6.76193">
        <ele>423.3</ele>
        <time>2017-02-26T09:32:18.000Z</time>
      </trkpt>
      <trkpt lat="47.5012" lon="6.76183">
        <ele>421</ele>
        <time>2017-02-26T09:32:19.000Z</time>
      </trkpt>
      <trkpt lat="47.50119" lon="6.76171">
        <ele>419.2</ele>
        <time>2017-02-26T09:32:20.000Z</time>
      </trkpt>
      <trkpt lat="47.50116" lon="6.76159">
        <ele>417.1</ele>
        <time>2017-02-26T09:32:21.000Z</time>
      </trkpt>
      <trkpt lat="47.50113" lon="6.76149">
        <ele>416.8</ele>
        <time>2017-02-26T09:32:22.000Z</time>
      </trkpt>
      <trkpt lat="47.50111" lon="6.76138">
        <ele>416.6</ele>
        <time>2017-02-26T09:32:23.000Z</time>
      </trkpt>
      <trkpt lat="47.50111" lon="6.76132">
        <ele>416.2</ele>
        <time>2017-02-26T09:32:25.000Z</time>
      </trkpt>
      <trkpt lat="47.50111" lon="6.76129">
        <ele>416</ele>
        <time>2017-02-26T09:32:26.000Z</time>
      </trkpt>
      <trkpt lat="47.50112" lon="6.7612">
        <ele>415.9</ele>
        <time>2017-02-26T09:32:27.000Z</time>
      </trkpt>
      <trkpt lat="47.50112" lon="6.7612">
        <ele>415.8</ele>
        <time>2017-02-26T09:32:29.000Z</time>
      </trkpt>
      <trkpt lat="47.5011" lon="6.76113">
        <ele>415.8</ele>
        <time>2017-02-26T09:32:30.000Z</time>
      </trkpt>
      <trkpt lat="47.50108" lon="6.76107">
        <ele>415.7</ele>
        <time>2017-02-26T09:32:31.000Z</time>
      </trkpt>
      <trkpt lat="47.50106" lon="6.76098">
        <ele>415.6</ele>
        <time>2017-02-26T09:32:32.000Z</time>
      </trkpt>
      <trkpt lat="47.50104" lon="6.76086">
        <ele>415.5</ele>
        <time>2017-02-26T09:32:33.000Z</time>
      </trkpt>
      <trkpt lat="47.50102" lon="6.76079">
        <ele>415.4</ele>
        <time>2017-02-26T09:32:34.000Z</time>
      </trkpt>
      <trkpt lat="47.50098" lon="6.76058">
        <ele>415.3</ele>
        <time>2017-02-26T09:32:35.000Z</time>
      </trkpt>
      <trkpt lat="47.50103" lon="6.76052">
        <ele>415.2</ele>
        <time>2017-02-26T09:32:36.000Z</time>
      </trkpt>
      <trkpt lat="47.50106" lon="6.76048">
        <ele>415.3</ele>
        <time>2017-02-26T09:32:37.000Z</time>
      </trkpt>
      <trkpt lat="47.5011" lon="6.76044">
        <ele>415.4</ele>
        <time>2017-02-26T09:32:38.000Z</time>
      </trkpt>
      <trkpt lat="47.50114" lon="6.7604">
        <ele>415.3</ele>
        <time>2017-02-26T09:32:39.000Z</time>
      </trkpt>
      <trkpt lat="47.50116" lon="6.76039">
        <ele>415.4</ele>
        <time>2017-02-26T09:32:40.000Z</time>
      </trkpt>
      <trkpt lat="47.50119" lon="6.76038">
        <ele>415.4</ele>
        <time>2017-02-26T09:32:41.000Z</time>
      </trkpt>
      <trkpt lat="47.50127" lon="6.76034">
        <ele>415.2</ele>
        <time>2017-02-26T09:32:42.000Z</time>
      </trkpt>
      <trkpt lat="47.50133" lon="6.76025">
        <ele>415.8</ele>
        <time>2017-02-26T09:32:43.000Z</time>
      </trkpt>
      <trkpt lat="47.50142" lon="6.76017">
        <ele>416.8</ele>
        <time>2017-02-26T09:32:44.000Z</time>
      </trkpt>
      <trkpt lat="47.50152" lon="6.76013">
        <ele>418.3</ele>
        <time>2017-02-26T09:32:45.000Z</time>
      </trkpt>
      <trkpt lat="47.5016" lon="6.76015">
        <ele>419</ele>
        <time>2017-02-26T09:32:46.000Z</time>
      </trkpt>
      <trkpt lat="47.50172" lon="6.76016">
        <ele>419.2</ele>
        <time>2017-02-26T09:32:47.000Z</time>
      </trkpt>
      <trkpt lat="47.50179" lon="6.76015">
        <ele>419.1</ele>
        <time>2017-02-26T09:32:48.000Z</time>
      </trkpt>
      <trkpt lat="47.50188" lon="6.76011">
        <ele>418.9</ele>
        <time>2017-02-26T09:32:49.000Z</time>
      </trkpt>
      <trkpt lat="47.5019" lon="6.76006">
        <ele>418.8</ele>
        <time>2017-02-26T09:32:50.000Z</time>
      </trkpt>
      <trkpt lat="47.50191" lon="6.76004">
        <ele>418.6</ele>
        <time>2017-02-26T09:32:51.000Z</time>
      </trkpt>
      <trkpt lat="47.50193" lon="6.76001">
        <ele>418.6</ele>
        <time>2017-02-26T09:32:52.000Z</time>
      </trkpt>
      <trkpt lat="47.50195" lon="6.75999">
        <ele>418.5</ele>
        <time>2017-02-26T09:32:53.000Z</time>
      </trkpt>
      <trkpt lat="47.50198" lon="6.75996">
        <ele>418.3</ele>
        <time>2017-02-26T09:32:54.000Z</time>
      </trkpt>
      <trkpt lat="47.50201" lon="6.75991">
        <ele>418</ele>
        <time>2017-02-26T09:32:55.000Z</time>
      </trkpt>
      <trkpt lat="47.50204" lon="6.75987">
        <ele>417.6</ele>
        <time>2017-02-26T09:32:56.000Z</time>
      </trkpt>
      <trkpt lat="47.50214" lon="6.75972">
        <ele>417.2</ele>
        <time>2017-02-26T09:32:57.000Z</time>
      </trkpt>
      <trkpt lat="47.50215" lon="6.75966">
        <ele>416.9</ele>
        <time>2017-02-26T09:32:58.000Z</time>
      </trkpt>
      <trkpt lat="47.50216" lon="6.75961">
        <ele>414.1</ele>
        <time>2017-02-26T09:32:59.000Z</time>
      </trkpt>
      <trkpt lat="47.50216" lon="6.75955">
        <ele>412.5</ele>
        <time>2017-02-26T09:33:00.000Z</time>
      </trkpt>
      <trkpt lat="47.50217" lon="6.75949">
        <ele>409.9</ele>
        <time>2017-02-26T09:33:01.000Z</time>
      </trkpt>
      <trkpt lat="47.50218" lon="6.75942">
        <ele>406.9</ele>
        <time>2017-02-26T09:33:02.000Z</time>
      </trkpt>
      <trkpt lat="47.50217" lon="6.75934">
        <ele>405.7</ele>
        <time>2017-02-26T09:33:03.000Z</time>
      </trkpt>
      <trkpt lat="47.50216" lon="6.75926">
        <ele>405</ele>
        <time>2017-02-26T09:33:04.000Z</time>
      </trkpt>
      <trkpt lat="47.50214" lon="6.75919">
        <ele>402.9</ele>
        <time>2017-02-26T09:33:05.000Z</time>
      </trkpt>
      <trkpt lat="47.50213" lon="6.75911">
        <ele>402.8</ele>
        <time>2017-02-26T09:33:06.000Z</time>
      </trkpt>
      <trkpt lat="47.50211" lon="6.75904">
        <ele>402.2</ele>
        <time>2017-02-26T09:33:07.000Z</time>
      </trkpt>
      <trkpt lat="47.50209" lon="6.75896">
        <ele>401.5</ele>
        <time>2017-02-26T09:33:08.000Z</time>
      </trkpt>
      <trkpt lat="47.50206" lon="6.75888">
        <ele>399.9</ele>
        <time>2017-02-26T09:33:09.000Z</time>
      </trkpt>
      <trkpt lat="47.50203" lon="6.7588">
        <ele>397.6</ele>
        <time>2017-02-26T09:33:10.000Z</time>
      </trkpt>
      <trkpt lat="47.502" lon="6.7587">
        <ele>396.1</ele>
        <time>2017-02-26T09:33:11.000Z</time>
      </trkpt>
      <trkpt lat="47.50196" lon="6.75862">
        <ele>394.8</ele>
        <time>2017-02-26T09:33:12.000Z</time>
      </trkpt>
      <trkpt lat="47.50193" lon="6.75854">
        <ele>394.3</ele>
        <time>2017-02-26T09:33:13.000Z</time>
      </trkpt>
      <trkpt lat="47.50189" lon="6.75844">
        <ele>394.9</ele>
        <time>2017-02-26T09:33:14.000Z</time>
      </trkpt>
      <trkpt lat="47.50185" lon="6.75835">
        <ele>395</ele>
        <time>2017-02-26T09:33:15.000Z</time>
      </trkpt>
      <trkpt lat="47.50182" lon="6.75828">
        <ele>395</ele>
        <time>2017-02-26T09:33:16.000Z</time>
      </trkpt>
      <trkpt lat="47.50179" lon="6.7582">
        <ele>394.6</ele>
        <time>2017-02-26T09:33:17.000Z</time>
      </trkpt>
      <trkpt lat="47.50175" lon="6.75811">
        <ele>395.6</ele>
        <time>2017-02-26T09:33:18.000Z</time>
      </trkpt>
      <trkpt lat="47.50171" lon="6.75804">
        <ele>396.1</ele>
        <time>2017-02-26T09:33:19.000Z</time>
      </trkpt>
      <trkpt lat="47.50168" lon="6.75797">
        <ele>395.7</ele>
        <time>2017-02-26T09:33:20.000Z</time>
      </trkpt>
      <trkpt lat="47.50165" lon="6.7579">
        <ele>394.2</ele>
        <time>2017-02-26T09:33:21.000Z</time>
      </trkpt>
      <trkpt lat="47.50161" lon="6.75784">
        <ele>395.2</ele>
        <time>2017-02-26T09:33:22.000Z</time>
      </trkpt>
      <trkpt lat="47.50157" lon="6.75777">
        <ele>396.4</ele>
        <time>2017-02-26T09:33:23.000Z</time>
      </trkpt>
      <trkpt lat="47.50153" lon="6.7577">
        <ele>394.9</ele>
        <time>2017-02-26T09:33:24.000Z</time>
      </trkpt>
      <trkpt lat="47.50147" lon="6.75764">
        <ele>393.3</ele>
        <time>2017-02-26T09:33:25.000Z</time>
      </trkpt>
      <trkpt lat="47.50142" lon="6.7576">
        <ele>391.8</ele>
        <time>2017-02-26T09:33:26.000Z</time>
      </trkpt>
      <trkpt lat="47.50137" lon="6.75754">
        <ele>390.6</ele>
        <time>2017-02-26T09:33:27.000Z</time>
      </trkpt>
      <trkpt lat="47.50133" lon="6.7575">
        <ele>389.3</ele>
        <time>2017-02-26T09:33:28.000Z</time>
      </trkpt>
      <trkpt lat="47.50128" lon="6.75746">
        <ele>388.1</ele>
        <time>2017-02-26T09:33:29.000Z</time>
      </trkpt>
      <trkpt lat="47.50123" lon="6.75739">
        <ele>386</ele>
        <time>2017-02-26T09:33:30.000Z</time>
      </trkpt>
      <trkpt lat="47.50118" lon="6.75731">
        <ele>384.6</ele>
        <time>2017-02-26T09:33:31.000Z</time>
      </trkpt>
      <trkpt lat="47.50113" lon="6.75725">
        <ele>383.7</ele>
        <time>2017-02-26T09:33:32.000Z</time>
      </trkpt>
      <trkpt lat="47.50109" lon="6.75719">
        <ele>384.2</ele>
        <time>2017-02-26T09:33:33.000Z</time>
      </trkpt>
      <trkpt lat="47.50105" lon="6.75712">
        <ele>385.2</ele>
        <time>2017-02-26T09:33:34.000Z</time>
      </trkpt>
      <trkpt lat="47.501" lon="6.75705">
        <ele>386.1</ele>
        <time>2017-02-26T09:33:35.000Z</time>
      </trkpt>
      <trkpt lat="47.50096" lon="6.75697">
        <ele>386.5</ele>
        <time>2017-02-26T09:33:36.000Z</time>
      </trkpt>
      <trkpt lat="47.50091" lon="6.75691">
        <ele>386.1</ele>
        <time>2017-02-26T09:33:37.000Z</time>
      </trkpt>
      <trkpt lat="47.50086" lon="6.75685">
        <ele>386</ele>
        <time>2017-02-26T09:33:38.000Z</time>
      </trkpt>
      <trkpt lat="47.50082" lon="6.75679">
        <ele>384.6</ele>
        <time>2017-02-26T09:33:39.000Z</time>
      </trkpt>
      <trkpt lat="47.50078" lon="6.75672">
        <ele>382.5</ele>
        <time>2017-02-26T09:33:40.000Z</time>
      </trkpt>
      <trkpt lat="47.50074" lon="6.75664">
        <ele>381.9</ele>
        <time>2017-02-26T09:33:41.000Z</time>
      </trkpt>
      <trkpt lat="47.50071" lon="6.75657">
        <ele>382.1</ele>
        <time>2017-02-26T09:33:42.000Z</time>
      </trkpt>
      <trkpt lat="47.50067" lon="6.75649">
        <ele>382.4</ele>
        <time>2017-02-26T09:33:43.000Z</time>
      </trkpt>
      <trkpt lat="47.50063" lon="6.75641">
        <ele>381.6</ele>
        <time>2017-02-26T09:33:44.000Z</time>
      </trkpt>
      <trkpt lat="47.5006" lon="6.75633">
        <ele>381.2</ele>
        <time>2017-02-26T09:33:45.000Z</time>
      </trkpt>
      <trkpt lat="47.50056" lon="6.75624">
        <ele>381.4</ele>
        <time>2017-02-26T09:33:46.000Z</time>
      </trkpt>
      <trkpt lat="47.50053" lon="6.75616">
        <ele>381</ele>
        <time>2017-02-26T09:33:47.000Z</time>
      </trkpt>
      <trkpt lat="47.50049" lon="6.75606">
        <ele>381.4</ele>
        <time>2017-02-26T09:33:48.000Z</time>
      </trkpt>
      <trkpt lat="47.50045" lon="6.75596">
        <ele>381.7</ele>
        <time>2017-02-26T09:33:49.000Z</time>
      </trkpt>
      <trkpt lat="47.50042" lon="6.75587">
        <ele>382.2</ele>
        <time>2017-02-26T09:33:50.000Z</time>
      </trkpt>
      <trkpt lat="47.50039" lon="6.75578">
        <ele>382.4</ele>
        <time>2017-02-26T09:33:51.000Z</time>
      </trkpt>
      <trkpt lat="47.50035" lon="6.75569">
        <ele>383.3</ele>
        <time>2017-02-26T09:33:52.000Z</time>
      </trkpt>
      <trkpt lat="47.50031" lon="6.75558">
        <ele>383.7</ele>
        <time>2017-02-26T09:33:53.000Z</time>
      </trkpt>
      <trkpt lat="47.50029" lon="6.75548">
        <ele>382.6</ele>
        <time>2017-02-26T09:33:54.000Z</time>
      </trkpt>
      <trkpt lat="47.50026" lon="6.75538">
        <ele>382.8</ele>
        <time>2017-02-26T09:33:55.000Z</time>
      </trkpt>
      <trkpt lat="47.50023" lon="6.75528">
        <ele>382.8</ele>
        <time>2017-02-26T09:33:56.000Z</time>
      </trkpt>
      <trkpt lat="47.50021" lon="6.75518">
        <ele>382</ele>
        <time>2017-02-26T09:33:57.000Z</time>
      </trkpt>
      <trkpt lat="47.50019" lon="6.7551">
        <ele>380.8</ele>
        <time>2017-02-26T09:33:58.000Z</time>
      </trkpt>
      <trkpt lat="47.50017" lon="6.75501">
        <ele>380.8</ele>
        <time>2017-02-26T09:33:59.000Z</time>
      </trkpt>
      <trkpt lat="47.50014" lon="6.75491">
        <ele>380.3</ele>
        <time>2017-02-26T09:34:00.000Z</time>
      </trkpt>
      <trkpt lat="47.50012" lon="6.75482">
        <ele>380.1</ele>
        <time>2017-02-26T09:34:01.000Z</time>
      </trkpt>
      <trkpt lat="47.50009" lon="6.75472">
        <ele>379.6</ele>
        <time>2017-02-26T09:34:02.000Z</time>
      </trkpt>
      <trkpt lat="47.50006" lon="6.75463">
        <ele>378.5</ele>
        <time>2017-02-26T09:34:03.000Z</time>
      </trkpt>
      <trkpt lat="47.50002" lon="6.75455">
        <ele>378.4</ele>
        <time>2017-02-26T09:34:04.000Z</time>
      </trkpt>
      <trkpt lat="47.49999" lon="6.75445">
        <ele>378.4</ele>
        <time>2017-02-26T09:34:05.000Z</time>
      </trkpt>
      <trkpt lat="47.49996" lon="6.75436">
        <ele>378.5</ele>
        <time>2017-02-26T09:34:06.000Z</time>
      </trkpt>
      <trkpt lat="47.49994" lon="6.75429">
        <ele>379</ele>
        <time>2017-02-26T09:34:07.000Z</time>
      </trkpt>
      <trkpt lat="47.49992" lon="6.75422">
        <ele>378.3</ele>
        <time>2017-02-26T09:34:08.000Z</time>
      </trkpt>
      <trkpt lat="47.49992" lon="6.75415">
        <ele>377</ele>
        <time>2017-02-26T09:34:09.000Z</time>
      </trkpt>
      <trkpt lat="47.49993" lon="6.75408">
        <ele>375.7</ele>
        <time>2017-02-26T09:34:10.000Z</time>
      </trkpt>
      <trkpt lat="47.49996" lon="6.75403">
        <ele>375</ele>
        <time>2017-02-26T09:34:11.000Z</time>
      </trkpt>
      <trkpt lat="47.5" lon="6.75397">
        <ele>374.6</ele>
        <time>2017-02-26T09:34:12.000Z</time>
      </trkpt>
      <trkpt lat="47.50004" lon="6.7539">
        <ele>374.3</ele>
        <time>2017-02-26T09:34:13.000Z</time>
      </trkpt>
      <trkpt lat="47.50007" lon="6.75383">
        <ele>373.1</ele>
        <time>2017-02-26T09:34:14.000Z</time>
      </trkpt>
      <trkpt lat="47.50011" lon="6.75376">
        <ele>372.2</ele>
        <time>2017-02-26T09:34:15.000Z</time>
      </trkpt>
      <trkpt lat="47.50014" lon="6.75367">
        <ele>370.2</ele>
        <time>2017-02-26T09:34:16.000Z</time>
      </trkpt>
      <trkpt lat="47.50016" lon="6.75358">
        <ele>369.9</ele>
        <time>2017-02-26T09:34:17.000Z</time>
      </trkpt>
      <trkpt lat="47.50017" lon="6.75349">
        <ele>368.8</ele>
        <time>2017-02-26T09:34:18.000Z</time>
      </trkpt>
      <trkpt lat="47.50017" lon="6.75339">
        <ele>367.8</ele>
        <time>2017-02-26T09:34:19.000Z</time>
      </trkpt>
      <trkpt lat="47.50016" lon="6.7533">
        <ele>367.6</ele>
        <time>2017-02-26T09:34:20.000Z</time>
      </trkpt>
      <trkpt lat="47.50015" lon="6.7532">
        <ele>367.4</ele>
        <time>2017-02-26T09:34:21.000Z</time>
      </trkpt>
      <trkpt lat="47.50015" lon="6.75311">
        <ele>367</ele>
        <time>2017-02-26T09:34:22.000Z</time>
      </trkpt>
      <trkpt lat="47.50014" lon="6.75302">
        <ele>367.5</ele>
        <time>2017-02-26T09:34:23.000Z</time>
      </trkpt>
      <trkpt lat="47.50013" lon="6.75292">
        <ele>367.8</ele>
        <time>2017-02-26T09:34:24.000Z</time>
      </trkpt>
      <trkpt lat="47.50012" lon="6.75284">
        <ele>367.4</ele>
        <time>2017-02-26T09:34:25.000Z</time>
      </trkpt>
      <trkpt lat="47.50011" lon="6.75275">
        <ele>366.4</ele>
        <time>2017-02-26T09:34:26.000Z</time>
      </trkpt>
      <trkpt lat="47.5001" lon="6.75266">
        <ele>366.8</ele>
        <time>2017-02-26T09:34:27.000Z</time>
      </trkpt>
      <trkpt lat="47.50011" lon="6.75256">
        <ele>367.6</ele>
        <time>2017-02-26T09:34:28.000Z</time>
      </trkpt>
      <trkpt lat="47.50011" lon="6.75247">
        <ele>368.3</ele>
        <time>2017-02-26T09:34:29.000Z</time>
      </trkpt>
      <trkpt lat="47.50011" lon="6.75238">
        <ele>368.8</ele>
        <time>2017-02-26T09:34:30.000Z</time>
      </trkpt>
      <trkpt lat="47.50015" lon="6.75231">
        <ele>370.5</ele>
        <time>2017-02-26T09:34:31.000Z</time>
      </trkpt>
      <trkpt lat="47.50019" lon="6.75225">
        <ele>371.2</ele>
        <time>2017-02-26T09:34:32.000Z</time>
      </trkpt>
      <trkpt lat="47.50024" lon="6.75219">
        <ele>370.9</ele>
        <time>2017-02-26T09:34:33.000Z</time>
      </trkpt>
      <trkpt lat="47.50029" lon="6.75215">
        <ele>370.4</ele>
        <time>2017-02-26T09:34:34.000Z</time>
      </trkpt>
      <trkpt lat="47.50034" lon="6.75211">
        <ele>369.7</ele>
        <time>2017-02-26T09:34:35.000Z</time>
      </trkpt>
      <trkpt lat="47.5004" lon="6.7521">
        <ele>368.6</ele>
        <time>2017-02-26T09:34:36.000Z</time>
      </trkpt>
      <trkpt lat="47.50046" lon="6.75209">
        <ele>367.7</ele>
        <time>2017-02-26T09:34:37.000Z</time>
      </trkpt>
      <trkpt lat="47.50053" lon="6.75208">
        <ele>367.5</ele>
        <time>2017-02-26T09:34:38.000Z</time>
      </trkpt>
      <trkpt lat="47.50059" lon="6.75207">
        <ele>367</ele>
        <time>2017-02-26T09:34:39.000Z</time>
      </trkpt>
      <trkpt lat="47.50065" lon="6.75205">
        <ele>366.8</ele>
        <time>2017-02-26T09:34:40.000Z</time>
      </trkpt>
      <trkpt lat="47.50071" lon="6.75204">
        <ele>366.6</ele>
        <time>2017-02-26T09:34:41.000Z</time>
      </trkpt>
      <trkpt lat="47.50077" lon="6.75202">
        <ele>366</ele>
        <time>2017-02-26T09:34:42.000Z</time>
      </trkpt>
      <trkpt lat="47.50084" lon="6.75201">
        <ele>366.1</ele>
        <time>2017-02-26T09:34:43.000Z</time>
      </trkpt>
      <trkpt lat="47.50089" lon="6.75199">
        <ele>366.2</ele>
        <time>2017-02-26T09:34:44.000Z</time>
      </trkpt>
      <trkpt lat="47.50095" lon="6.75197">
        <ele>367</ele>
        <time>2017-02-26T09:34:45.000Z</time>
      </trkpt>
      <trkpt lat="47.50101" lon="6.75194">
        <ele>367.2</ele>
        <time>2017-02-26T09:34:46.000Z</time>
      </trkpt>
      <trkpt lat="47.50107" lon="6.75191">
        <ele>368</ele>
        <time>2017-02-26T09:34:47.000Z</time>
      </trkpt>
      <trkpt lat="47.50112" lon="6.75188">
        <ele>368.9</ele>
        <time>2017-02-26T09:34:48.000Z</time>
      </trkpt>
      <trkpt lat="47.50117" lon="6.75185">
        <ele>368.9</ele>
        <time>2017-02-26T09:34:49.000Z</time>
      </trkpt>
      <trkpt lat="47.50122" lon="6.75181">
        <ele>368.1</ele>
        <time>2017-02-26T09:34:50.000Z</time>
      </trkpt>
      <trkpt lat="47.50127" lon="6.75178">
        <ele>367.5</ele>
        <time>2017-02-26T09:34:51.000Z</time>
      </trkpt>
      <trkpt lat="47.50132" lon="6.75174">
        <ele>367.4</ele>
        <time>2017-02-26T09:34:52.000Z</time>
      </trkpt>
      <trkpt lat="47.50137" lon="6.7517">
        <ele>368.1</ele>
        <time>2017-02-26T09:34:53.000Z</time>
      </trkpt>
      <trkpt lat="47.50142" lon="6.75166">
        <ele>368.5</ele>
        <time>2017-02-26T09:34:54.000Z</time>
      </trkpt>
      <trkpt lat="47.50146" lon="6.75163">
        <ele>368.6</ele>
        <time>2017-02-26T09:34:55.000Z</time>
      </trkpt>
      <trkpt lat="47.5015" lon="6.7516">
        <ele>369.1</ele>
        <time>2017-02-26T09:34:56.000Z</time>
      </trkpt>
      <trkpt lat="47.50153" lon="6.75156">
        <ele>369.1</ele>
        <time>2017-02-26T09:34:57.000Z</time>
      </trkpt>
      <trkpt lat="47.50157" lon="6.75151">
        <ele>369.6</ele>
        <time>2017-02-26T09:34:58.000Z</time>
      </trkpt>
      <trkpt lat="47.50162" lon="6.75145">
        <ele>370.6</ele>
        <time>2017-02-26T09:34:59.000Z</time>
      </trkpt>
      <trkpt lat="47.50166" lon="6.75141">
        <ele>370.5</ele>
        <time>2017-02-26T09:35:00.000Z</time>
      </trkpt>
      <trkpt lat="47.50168" lon="6.75137">
        <ele>370.3</ele>
        <time>2017-02-26T09:35:01.000Z</time>
      </trkpt>
      <trkpt lat="47.50171" lon="6.75132">
        <ele>370.2</ele>
        <time>2017-02-26T09:35:02.000Z</time>
      </trkpt>
      <trkpt lat="47.50174" lon="6.7513">
        <ele>370</ele>
        <time>2017-02-26T09:35:03.000Z</time>
      </trkpt>
      <trkpt lat="47.50177" lon="6.75127">
        <ele>369.9</ele>
        <time>2017-02-26T09:35:04.000Z</time>
      </trkpt>
      <trkpt lat="47.50182" lon="6.75122">
        <ele>369.8</ele>
        <time>2017-02-26T09:35:05.000Z</time>
      </trkpt>
      <trkpt lat="47.50187" lon="6.75122">
        <ele>369.9</ele>
        <time>2017-02-26T09:35:06.000Z</time>
      </trkpt>
      <trkpt lat="47.50191" lon="6.75125">
        <ele>370</ele>
        <time>2017-02-26T09:35:07.000Z</time>
      </trkpt>
      <trkpt lat="47.50195" lon="6.75127">
        <ele>370.1</ele>
        <time>2017-02-26T09:35:08.000Z</time>
      </trkpt>
      <trkpt lat="47.502" lon="6.7513">
        <ele>370.3</ele>
        <time>2017-02-26T09:35:09.000Z</time>
      </trkpt>
      <trkpt lat="47.50205" lon="6.75135">
        <ele>370.3</ele>
        <time>2017-02-26T09:35:10.000Z</time>
      </trkpt>
      <trkpt lat="47.50208" lon="6.75136">
        <ele>370.3</ele>
        <time>2017-02-26T09:35:11.000Z</time>
      </trkpt>
      <trkpt lat="47.50212" lon="6.75139">
        <ele>370.2</ele>
        <time>2017-02-26T09:35:12.000Z</time>
      </trkpt>
      <trkpt lat="47.50215" lon="6.75143">
        <ele>370.2</ele>
        <time>2017-02-26T09:35:13.000Z</time>
      </trkpt>
      <trkpt lat="47.50218" lon="6.75146">
        <ele>370.2</ele>
        <time>2017-02-26T09:35:14.000Z</time>
      </trkpt>
      <trkpt lat="47.50222" lon="6.75149">
        <ele>370.1</ele>
        <time>2017-02-26T09:35:15.000Z</time>
      </trkpt>
      <trkpt lat="47.50226" lon="6.75153">
        <ele>370.5</ele>
        <time>2017-02-26T09:35:16.000Z</time>
      </trkpt>
      <trkpt lat="47.50229" lon="6.75158">
        <ele>370.5</ele>
        <time>2017-02-26T09:35:17.000Z</time>
      </trkpt>
      <trkpt lat="47.50232" lon="6.75162">
        <ele>370.5</ele>
        <time>2017-02-26T09:35:18.000Z</time>
      </trkpt>
      <trkpt lat="47.50235" lon="6.75166">
        <ele>371.3</ele>
        <time>2017-02-26T09:35:19.000Z</time>
      </trkpt>
      <trkpt lat="47.50239" lon="6.7517">
        <ele>371.8</ele>
        <time>2017-02-26T09:35:20.000Z</time>
      </trkpt>
      <trkpt lat="47.50242" lon="6.75173">
        <ele>372.1</ele>
        <time>2017-02-26T09:35:21.000Z</time>
      </trkpt>
      <trkpt lat="47.50245" lon="6.75177">
        <ele>372.2</ele>
        <time>2017-02-26T09:35:22.000Z</time>
      </trkpt>
      <trkpt lat="47.50249" lon="6.7518">
        <ele>372.3</ele>
        <time>2017-02-26T09:35:23.000Z</time>
      </trkpt>
      <trkpt lat="47.50253" lon="6.75181">
        <ele>372.4</ele>
        <time>2017-02-26T09:35:24.000Z</time>
      </trkpt>
      <trkpt lat="47.50257" lon="6.75182">
        <ele>372.4</ele>
        <time>2017-02-26T09:35:25.000Z</time>
      </trkpt>
      <trkpt lat="47.50262" lon="6.75184">
        <ele>373.1</ele>
        <time>2017-02-26T09:35:26.000Z</time>
      </trkpt>
      <trkpt lat="47.50266" lon="6.75186">
        <ele>373.1</ele>
        <time>2017-02-26T09:35:27.000Z</time>
      </trkpt>
      <trkpt lat="47.5027" lon="6.75186">
        <ele>373.2</ele>
        <time>2017-02-26T09:35:28.000Z</time>
      </trkpt>
      <trkpt lat="47.50275" lon="6.75185">
        <ele>373.2</ele>
        <time>2017-02-26T09:35:29.000Z</time>
      </trkpt>
      <trkpt lat="47.5028" lon="6.75184">
        <ele>373.2</ele>
        <time>2017-02-26T09:35:30.000Z</time>
      </trkpt>
      <trkpt lat="47.50285" lon="6.75184">
        <ele>373.4</ele>
        <time>2017-02-26T09:35:31.000Z</time>
      </trkpt>
      <trkpt lat="47.5029" lon="6.75184">
        <ele>373.5</ele>
        <time>2017-02-26T09:35:32.000Z</time>
      </trkpt>
      <trkpt lat="47.50296" lon="6.75182">
        <ele>373.8</ele>
        <time>2017-02-26T09:35:33.000Z</time>
      </trkpt>
      <trkpt lat="47.50302" lon="6.75181">
        <ele>373.7</ele>
        <time>2017-02-26T09:35:34.000Z</time>
      </trkpt>
      <trkpt lat="47.50308" lon="6.75181">
        <ele>373.4</ele>
        <time>2017-02-26T09:35:35.000Z</time>
      </trkpt>
      <trkpt lat="47.50313" lon="6.7518">
        <ele>374</ele>
        <time>2017-02-26T09:35:36.000Z</time>
      </trkpt>
      <trkpt lat="47.50319" lon="6.75179">
        <ele>374.8</ele>
        <time>2017-02-26T09:35:37.000Z</time>
      </trkpt>
      <trkpt lat="47.50326" lon="6.75177">
        <ele>375.6</ele>
        <time>2017-02-26T09:35:38.000Z</time>
      </trkpt>
      <trkpt lat="47.50333" lon="6.75176">
        <ele>375.8</ele>
        <time>2017-02-26T09:35:39.000Z</time>
      </trkpt>
      <trkpt lat="47.50339" lon="6.75175">
        <ele>374.9</ele>
        <time>2017-02-26T09:35:40.000Z</time>
      </trkpt>
      <trkpt lat="47.50345" lon="6.75175">
        <ele>374.1</ele>
        <time>2017-02-26T09:35:41.000Z</time>
      </trkpt>
      <trkpt lat="47.50351" lon="6.75175">
        <ele>373.1</ele>
        <time>2017-02-26T09:35:42.000Z</time>
      </trkpt>
      <trkpt lat="47.50357" lon="6.75175">
        <ele>372.1</ele>
        <time>2017-02-26T09:35:43.000Z</time>
      </trkpt>
      <trkpt lat="47.50365" lon="6.75174">
        <ele>371.9</ele>
        <time>2017-02-26T09:35:44.000Z</time>
      </trkpt>
      <trkpt lat="47.5037" lon="6.75174">
        <ele>371.5</ele>
        <time>2017-02-26T09:35:45.000Z</time>
      </trkpt>
      <trkpt lat="47.50376" lon="6.75173">
        <ele>371.9</ele>
        <time>2017-02-26T09:35:46.000Z</time>
      </trkpt>
      <trkpt lat="47.50382" lon="6.75173">
        <ele>372.4</ele>
        <time>2017-02-26T09:35:47.000Z</time>
      </trkpt>
      <trkpt lat="47.5039" lon="6.75172">
        <ele>372.9</ele>
        <time>2017-02-26T09:35:48.000Z</time>
      </trkpt>
      <trkpt lat="47.50398" lon="6.75172">
        <ele>372.6</ele>
        <time>2017-02-26T09:35:49.000Z</time>
      </trkpt>
      <trkpt lat="47.50406" lon="6.75172">
        <ele>372.7</ele>
        <time>2017-02-26T09:35:50.000Z</time>
      </trkpt>
      <trkpt lat="47.50414" lon="6.75172">
        <ele>372.4</ele>
        <time>2017-02-26T09:35:51.000Z</time>
      </trkpt>
      <trkpt lat="47.50421" lon="6.75173">
        <ele>373</ele>
        <time>2017-02-26T09:35:52.000Z</time>
      </trkpt>
      <trkpt lat="47.50429" lon="6.75173">
        <ele>373.4</ele>
        <time>2017-02-26T09:35:53.000Z</time>
      </trkpt>
      <trkpt lat="47.50435" lon="6.75173">
        <ele>373.8</ele>
        <time>2017-02-26T09:35:54.000Z</time>
      </trkpt>
      <trkpt lat="47.50441" lon="6.75172">
        <ele>373.9</ele>
        <time>2017-02-26T09:35:55.000Z</time>
      </trkpt>
      <trkpt lat="47.50447" lon="6.75173">
        <ele>374.4</ele>
        <time>2017-02-26T09:35:56.000Z</time>
      </trkpt>
      <trkpt lat="47.50453" lon="6.75173">
        <ele>374.6</ele>
        <time>2017-02-26T09:35:57.000Z</time>
      </trkpt>
      <trkpt lat="47.50458" lon="6.75173">
        <ele>375</ele>
        <time>2017-02-26T09:35:58.000Z</time>
      </trkpt>
      <trkpt lat="47.50464" lon="6.75172">
        <ele>374.9</ele>
        <time>2017-02-26T09:35:59.000Z</time>
      </trkpt>
      <trkpt lat="47.5047" lon="6.75172">
        <ele>375</ele>
        <time>2017-02-26T09:36:00.000Z</time>
      </trkpt>
      <trkpt lat="47.50474" lon="6.75171">
        <ele>374.9</ele>
        <time>2017-02-26T09:36:01.000Z</time>
      </trkpt>
      <trkpt lat="47.50478" lon="6.7517">
        <ele>374.8</ele>
        <time>2017-02-26T09:36:02.000Z</time>
      </trkpt>
      <trkpt lat="47.50483" lon="6.75169">
        <ele>374.8</ele>
        <time>2017-02-26T09:36:03.000Z</time>
      </trkpt>
      <trkpt lat="47.50487" lon="6.75169">
        <ele>374.5</ele>
        <time>2017-02-26T09:36:04.000Z</time>
      </trkpt>
      <trkpt lat="47.5049" lon="6.75169">
        <ele>374.6</ele>
        <time>2017-02-26T09:36:05.000Z</time>
      </trkpt>
      <trkpt lat="47.50494" lon="6.75169">
        <ele>374.5</ele>
        <time>2017-02-26T09:36:06.000Z</time>
      </trkpt>
      <trkpt lat="47.50498" lon="6.75168">
        <ele>374.5</ele>
        <time>2017-02-26T09:36:07.000Z</time>
      </trkpt>
      <trkpt lat="47.50501" lon="6.75167">
        <ele>374.4</ele>
        <time>2017-02-26T09:36:08.000Z</time>
      </trkpt>
      <trkpt lat="47.50503" lon="6.75166">
        <ele>374.3</ele>
        <time>2017-02-26T09:36:09.000Z</time>
      </trkpt>
      <trkpt lat="47.50507" lon="6.75167">
        <ele>374.1</ele>
        <time>2017-02-26T09:36:10.000Z</time>
      </trkpt>
      <trkpt lat="47.50509" lon="6.75167">
        <ele>374</ele>
        <time>2017-02-26T09:36:11.000Z</time>
      </trkpt>
      <trkpt lat="47.50511" lon="6.75168">
        <ele>373.9</ele>
        <time>2017-02-26T09:36:12.000Z</time>
      </trkpt>
      <trkpt lat="47.50514" lon="6.75168">
        <ele>372.6</ele>
        <time>2017-02-26T09:36:13.000Z</time>
      </trkpt>
      <trkpt lat="47.50518" lon="6.75169">
        <ele>372.5</ele>
        <time>2017-02-26T09:36:14.000Z</time>
      </trkpt>
      <trkpt lat="47.50523" lon="6.7517">
        <ele>371.6</ele>
        <time>2017-02-26T09:36:15.000Z</time>
      </trkpt>
      <trkpt lat="47.50526" lon="6.7517">
        <ele>370.7</ele>
        <time>2017-02-26T09:36:16.000Z</time>
      </trkpt>
      <trkpt lat="47.50532" lon="6.75171">
        <ele>370.8</ele>
        <time>2017-02-26T09:36:17.000Z</time>
      </trkpt>
      <trkpt lat="47.50537" lon="6.75172">
        <ele>370.2</ele>
        <time>2017-02-26T09:36:18.000Z</time>
      </trkpt>
      <trkpt lat="47.50541" lon="6.75173">
        <ele>370.2</ele>
        <time>2017-02-26T09:36:19.000Z</time>
      </trkpt>
      <trkpt lat="47.50546" lon="6.75173">
        <ele>370.6</ele>
        <time>2017-02-26T09:36:20.000Z</time>
      </trkpt>
      <trkpt lat="47.5055" lon="6.75174">
        <ele>371.4</ele>
        <time>2017-02-26T09:36:21.000Z</time>
      </trkpt>
      <trkpt lat="47.50555" lon="6.75174">
        <ele>371.3</ele>
        <time>2017-02-26T09:36:22.000Z</time>
      </trkpt>
      <trkpt lat="47.5056" lon="6.75174">
        <ele>371.1</ele>
        <time>2017-02-26T09:36:23.000Z</time>
      </trkpt>
      <trkpt lat="47.50565" lon="6.75174">
        <ele>371.6</ele>
        <time>2017-02-26T09:36:24.000Z</time>
      </trkpt>
      <trkpt lat="47.5057" lon="6.75175">
        <ele>372.1</ele>
        <time>2017-02-26T09:36:25.000Z</time>
      </trkpt>
      <trkpt lat="47.50575" lon="6.75176">
        <ele>372</ele>
        <time>2017-02-26T09:36:26.000Z</time>
      </trkpt>
      <trkpt lat="47.50581" lon="6.75177">
        <ele>371.7</ele>
        <time>2017-02-26T09:36:27.000Z</time>
      </trkpt>
      <trkpt lat="47.50585" lon="6.75178">
        <ele>371.6</ele>
        <time>2017-02-26T09:36:28.000Z</time>
      </trkpt>
      <trkpt lat="47.50589" lon="6.7518">
        <ele>371.2</ele>
        <time>2017-02-26T09:36:29.000Z</time>
      </trkpt>
      <trkpt lat="47.50592" lon="6.7518">
        <ele>371.1</ele>
        <time>2017-02-26T09:36:30.000Z</time>
      </trkpt>
      <trkpt lat="47.50596" lon="6.75182">
        <ele>370.8</ele>
        <time>2017-02-26T09:36:31.000Z</time>
      </trkpt>
      <trkpt lat="47.50599" lon="6.75183">
        <ele>370.7</ele>
        <time>2017-02-26T09:36:32.000Z</time>
      </trkpt>
      <trkpt lat="47.50602" lon="6.75185">
        <ele>370.7</ele>
        <time>2017-02-26T09:36:33.000Z</time>
      </trkpt>
      <trkpt lat="47.50606" lon="6.75187">
        <ele>370</ele>
        <time>2017-02-26T09:36:34.000Z</time>
      </trkpt>
      <trkpt lat="47.50612" lon="6.7519">
        <ele>368</ele>
        <time>2017-02-26T09:36:35.000Z</time>
      </trkpt>
      <trkpt lat="47.50618" lon="6.75195">
        <ele>366.8</ele>
        <time>2017-02-26T09:36:36.000Z</time>
      </trkpt>
      <trkpt lat="47.50624" lon="6.75198">
        <ele>365.8</ele>
        <time>2017-02-26T09:36:37.000Z</time>
      </trkpt>
      <trkpt lat="47.50631" lon="6.75201">
        <ele>364.9</ele>
        <time>2017-02-26T09:36:38.000Z</time>
      </trkpt>
      <trkpt lat="47.50636" lon="6.75203">
        <ele>364.3</ele>
        <time>2017-02-26T09:36:39.000Z</time>
      </trkpt>
      <trkpt lat="47.50642" lon="6.75205">
        <ele>364.8</ele>
        <time>2017-02-26T09:36:40.000Z</time>
      </trkpt>
      <trkpt lat="47.50647" lon="6.75206">
        <ele>365</ele>
        <time>2017-02-26T09:36:41.000Z</time>
      </trkpt>
      <trkpt lat="47.50653" lon="6.75208">
        <ele>364.8</ele>
        <time>2017-02-26T09:36:42.000Z</time>
      </trkpt>
      <trkpt lat="47.5066" lon="6.75209">
        <ele>364</ele>
        <time>2017-02-26T09:36:43.000Z</time>
      </trkpt>
      <trkpt lat="47.50666" lon="6.7521">
        <ele>363.4</ele>
        <time>2017-02-26T09:36:44.000Z</time>
      </trkpt>
      <trkpt lat="47.50672" lon="6.7521">
        <ele>363</ele>
        <time>2017-02-26T09:36:45.000Z</time>
      </trkpt>
      <trkpt lat="47.50678" lon="6.7521">
        <ele>363.3</ele>
        <time>2017-02-26T09:36:46.000Z</time>
      </trkpt>
      <trkpt lat="47.50684" lon="6.75209">
        <ele>363.4</ele>
        <time>2017-02-26T09:36:47.000Z</time>
      </trkpt>
      <trkpt lat="47.5069" lon="6.75208">
        <ele>364.2</ele>
        <time>2017-02-26T09:36:48.000Z</time>
      </trkpt>
      <trkpt lat="47.50695" lon="6.75207">
        <ele>364.2</ele>
        <time>2017-02-26T09:36:49.000Z</time>
      </trkpt>
      <trkpt lat="47.50699" lon="6.75206">
        <ele>364</ele>
        <time>2017-02-26T09:36:50.000Z</time>
      </trkpt>
      <trkpt lat="47.50703" lon="6.75205">
        <ele>363.3</ele>
        <time>2017-02-26T09:36:51.000Z</time>
      </trkpt>
      <trkpt lat="47.50708" lon="6.75201">
        <ele>363.3</ele>
        <time>2017-02-26T09:36:52.000Z</time>
      </trkpt>
      <trkpt lat="47.50713" lon="6.75197">
        <ele>361.3</ele>
        <time>2017-02-26T09:36:53.000Z</time>
      </trkpt>
      <trkpt lat="47.5072" lon="6.75192">
        <ele>360</ele>
        <time>2017-02-26T09:36:54.000Z</time>
      </trkpt>
      <trkpt lat="47.50725" lon="6.75191">
        <ele>357.8</ele>
        <time>2017-02-26T09:36:55.000Z</time>
      </trkpt>
      <trkpt lat="47.50729" lon="6.75189">
        <ele>356.2</ele>
        <time>2017-02-26T09:36:56.000Z</time>
      </trkpt>
      <trkpt lat="47.50735" lon="6.75185">
        <ele>354.5</ele>
        <time>2017-02-26T09:36:57.000Z</time>
      </trkpt>
      <trkpt lat="47.5074" lon="6.75181">
        <ele>353.8</ele>
        <time>2017-02-26T09:36:58.000Z</time>
      </trkpt>
      <trkpt lat="47.50747" lon="6.75176">
        <ele>353.6</ele>
        <time>2017-02-26T09:36:59.000Z</time>
      </trkpt>
      <trkpt lat="47.50753" lon="6.75172">
        <ele>353.5</ele>
        <time>2017-02-26T09:37:00.000Z</time>
      </trkpt>
      <trkpt lat="47.50758" lon="6.75169">
        <ele>353.9</ele>
        <time>2017-02-26T09:37:01.000Z</time>
      </trkpt>
      <trkpt lat="47.50764" lon="6.75165">
        <ele>354.1</ele>
        <time>2017-02-26T09:37:02.000Z</time>
      </trkpt>
      <trkpt lat="47.5077" lon="6.75162">
        <ele>355.1</ele>
        <time>2017-02-26T09:37:03.000Z</time>
      </trkpt>
      <trkpt lat="47.50775" lon="6.75159">
        <ele>355.6</ele>
        <time>2017-02-26T09:37:04.000Z</time>
      </trkpt>
      <trkpt lat="47.50781" lon="6.75156">
        <ele>356.6</ele>
        <time>2017-02-26T09:37:05.000Z</time>
      </trkpt>
      <trkpt lat="47.50785" lon="6.75154">
        <ele>357.8</ele>
        <time>2017-02-26T09:37:06.000Z</time>
      </trkpt>
      <trkpt lat="47.50791" lon="6.75151">
        <ele>358.7</ele>
        <time>2017-02-26T09:37:07.000Z</time>
      </trkpt>
      <trkpt lat="47.50796" lon="6.75149">
        <ele>359.6</ele>
        <time>2017-02-26T09:37:08.000Z</time>
      </trkpt>
      <trkpt lat="47.508" lon="6.75147">
        <ele>359.6</ele>
        <time>2017-02-26T09:37:09.000Z</time>
      </trkpt>
      <trkpt lat="47.50804" lon="6.75145">
        <ele>360.5</ele>
        <time>2017-02-26T09:37:10.000Z</time>
      </trkpt>
      <trkpt lat="47.5081" lon="6.75143">
        <ele>361.3</ele>
        <time>2017-02-26T09:37:11.000Z</time>
      </trkpt>
      <trkpt lat="47.50815" lon="6.75141">
        <ele>361.1</ele>
        <time>2017-02-26T09:37:12.000Z</time>
      </trkpt>
      <trkpt lat="47.5082" lon="6.75139">
        <ele>360.8</ele>
        <time>2017-02-26T09:37:13.000Z</time>
      </trkpt>
      <trkpt lat="47.50824" lon="6.75138">
        <ele>360.4</ele>
        <time>2017-02-26T09:37:14.000Z</time>
      </trkpt>
      <trkpt lat="47.50828" lon="6.75136">
        <ele>360.4</ele>
        <time>2017-02-26T09:37:15.000Z</time>
      </trkpt>
      <trkpt lat="47.50833" lon="6.75134">
        <ele>359.8</ele>
        <time>2017-02-26T09:37:16.000Z</time>
      </trkpt>
      <trkpt lat="47.50839" lon="6.75132">
        <ele>360</ele>
        <time>2017-02-26T09:37:17.000Z</time>
      </trkpt>
      <trkpt lat="47.50843" lon="6.7513">
        <ele>360.2</ele>
        <time>2017-02-26T09:37:18.000Z</time>
      </trkpt>
      <trkpt lat="47.50848" lon="6.75129">
        <ele>360.9</ele>
        <time>2017-02-26T09:37:19.000Z</time>
      </trkpt>
      <trkpt lat="47.50852" lon="6.75127">
        <ele>360.7</ele>
        <time>2017-02-26T09:37:20.000Z</time>
      </trkpt>
      <trkpt lat="47.50856" lon="6.75124">
        <ele>360.6</ele>
        <time>2017-02-26T09:37:21.000Z</time>
      </trkpt>
      <trkpt lat="47.50861" lon="6.75121">
        <ele>359.8</ele>
        <time>2017-02-26T09:37:22.000Z</time>
      </trkpt>
      <trkpt lat="47.50865" lon="6.75118">
        <ele>360.1</ele>
        <time>2017-02-26T09:37:23.000Z</time>
      </trkpt>
      <trkpt lat="47.5087" lon="6.75115">
        <ele>360.3</ele>
        <time>2017-02-26T09:37:24.000Z</time>
      </trkpt>
      <trkpt lat="47.50876" lon="6.75111">
        <ele>360.7</ele>
        <time>2017-02-26T09:37:25.000Z</time>
      </trkpt>
      <trkpt lat="47.50879" lon="6.75107">
        <ele>360.7</ele>
        <time>2017-02-26T09:37:26.000Z</time>
      </trkpt>
      <trkpt lat="47.50883" lon="6.75104">
        <ele>361.3</ele>
        <time>2017-02-26T09:37:27.000Z</time>
      </trkpt>
      <trkpt lat="47.50889" lon="6.75099">
        <ele>361.7</ele>
        <time>2017-02-26T09:37:28.000Z</time>
      </trkpt>
      <trkpt lat="47.50894" lon="6.75094">
        <ele>362</ele>
        <time>2017-02-26T09:37:29.000Z</time>
      </trkpt>
      <trkpt lat="47.50898" lon="6.75089">
        <ele>363.1</ele>
        <time>2017-02-26T09:37:30.000Z</time>
      </trkpt>
      <trkpt lat="47.50904" lon="6.75083">
        <ele>363.2</ele>
        <time>2017-02-26T09:37:31.000Z</time>
      </trkpt>
      <trkpt lat="47.50908" lon="6.75078">
        <ele>363.4</ele>
        <time>2017-02-26T09:37:32.000Z</time>
      </trkpt>
      <trkpt lat="47.50912" lon="6.75073">
        <ele>364.4</ele>
        <time>2017-02-26T09:37:33.000Z</time>
      </trkpt>
      <trkpt lat="47.50917" lon="6.75067">
        <ele>366.2</ele>
        <time>2017-02-26T09:37:34.000Z</time>
      </trkpt>
      <trkpt lat="47.5092" lon="6.75061">
        <ele>368.1</ele>
        <time>2017-02-26T09:37:35.000Z</time>
      </trkpt>
      <trkpt lat="47.50923" lon="6.75056">
        <ele>369.9</ele>
        <time>2017-02-26T09:37:36.000Z</time>
      </trkpt>
      <trkpt lat="47.50927" lon="6.75052">
        <ele>370.8</ele>
        <time>2017-02-26T09:37:37.000Z</time>
      </trkpt>
      <trkpt lat="47.50931" lon="6.75046">
        <ele>371.1</ele>
        <time>2017-02-26T09:37:38.000Z</time>
      </trkpt>
      <trkpt lat="47.50935" lon="6.75041">
        <ele>371.7</ele>
        <time>2017-02-26T09:37:39.000Z</time>
      </trkpt>
      <trkpt lat="47.50939" lon="6.75036">
        <ele>372.8</ele>
        <time>2017-02-26T09:37:40.000Z</time>
      </trkpt>
      <trkpt lat="47.50944" lon="6.7503">
        <ele>373.8</ele>
        <time>2017-02-26T09:37:41.000Z</time>
      </trkpt>
      <trkpt lat="47.50947" lon="6.75026">
        <ele>373.7</ele>
        <time>2017-02-26T09:37:42.000Z</time>
      </trkpt>
      <trkpt lat="47.50952" lon="6.75022">
        <ele>373.4</ele>
        <time>2017-02-26T09:37:43.000Z</time>
      </trkpt>
      <trkpt lat="47.50957" lon="6.75018">
        <ele>372.7</ele>
        <time>2017-02-26T09:37:44.000Z</time>
      </trkpt>
      <trkpt lat="47.50963" lon="6.75013">
        <ele>372.2</ele>
        <time>2017-02-26T09:37:45.000Z</time>
      </trkpt>
      <trkpt lat="47.50968" lon="6.75007">
        <ele>372.1</ele>
        <time>2017-02-26T09:37:46.000Z</time>
      </trkpt>
      <trkpt lat="47.50972" lon="6.75004">
        <ele>371.7</ele>
        <time>2017-02-26T09:37:47.000Z</time>
      </trkpt>
      <trkpt lat="47.50975" lon="6.75001">
        <ele>371.6</ele>
        <time>2017-02-26T09:37:48.000Z</time>
      </trkpt>
      <trkpt lat="47.5098" lon="6.74998">
        <ele>371.2</ele>
        <time>2017-02-26T09:37:49.000Z</time>
      </trkpt>
      <trkpt lat="47.50984" lon="6.74995">
        <ele>370.3</ele>
        <time>2017-02-26T09:37:50.000Z</time>
      </trkpt>
      <trkpt lat="47.50988" lon="6.74991">
        <ele>369.2</ele>
        <time>2017-02-26T09:37:51.000Z</time>
      </trkpt>
      <trkpt lat="47.50991" lon="6.74988">
        <ele>369.1</ele>
        <time>2017-02-26T09:37:52.000Z</time>
      </trkpt>
      <trkpt lat="47.50995" lon="6.74984">
        <ele>369.2</ele>
        <time>2017-02-26T09:37:53.000Z</time>
      </trkpt>
      <trkpt lat="47.50999" lon="6.74982">
        <ele>369.2</ele>
        <time>2017-02-26T09:37:54.000Z</time>
      </trkpt>
      <trkpt lat="47.51006" lon="6.74978">
        <ele>369.3</ele>
        <time>2017-02-26T09:37:55.000Z</time>
      </trkpt>
      <trkpt lat="47.51011" lon="6.74975">
        <ele>369.4</ele>
        <time>2017-02-26T09:37:56.000Z</time>
      </trkpt>
      <trkpt lat="47.51017" lon="6.74971">
        <ele>369.4</ele>
        <time>2017-02-26T09:37:57.000Z</time>
      </trkpt>
      <trkpt lat="47.5102" lon="6.74967">
        <ele>369.4</ele>
        <time>2017-02-26T09:37:58.000Z</time>
      </trkpt>
      <trkpt lat="47.51025" lon="6.74963">
        <ele>369.4</ele>
        <time>2017-02-26T09:37:59.000Z</time>
      </trkpt>
      <trkpt lat="47.5103" lon="6.7496">
        <ele>369.3</ele>
        <time>2017-02-26T09:38:00.000Z</time>
      </trkpt>
      <trkpt lat="47.51037" lon="6.74956">
        <ele>369.3</ele>
        <time>2017-02-26T09:38:01.000Z</time>
      </trkpt>
      <trkpt lat="47.51042" lon="6.74952">
        <ele>367.9</ele>
        <time>2017-02-26T09:38:02.000Z</time>
      </trkpt>
      <trkpt lat="47.51047" lon="6.74949">
        <ele>366.9</ele>
        <time>2017-02-26T09:38:03.000Z</time>
      </trkpt>
      <trkpt lat="47.51051" lon="6.74946">
        <ele>365.2</ele>
        <time>2017-02-26T09:38:04.000Z</time>
      </trkpt>
      <trkpt lat="47.51055" lon="6.74942">
        <ele>365</ele>
        <time>2017-02-26T09:38:05.000Z</time>
      </trkpt>
      <trkpt lat="47.51059" lon="6.74938">
        <ele>363</ele>
        <time>2017-02-26T09:38:06.000Z</time>
      </trkpt>
      <trkpt lat="47.51063" lon="6.74934">
        <ele>361.3</ele>
        <time>2017-02-26T09:38:07.000Z</time>
      </trkpt>
      <trkpt lat="47.5107" lon="6.7493">
        <ele>361.1</ele>
        <time>2017-02-26T09:38:08.000Z</time>
      </trkpt>
      <trkpt lat="47.51074" lon="6.74928">
        <ele>361.5</ele>
        <time>2017-02-26T09:38:09.000Z</time>
      </trkpt>
      <trkpt lat="47.51079" lon="6.74925">
        <ele>360.7</ele>
        <time>2017-02-26T09:38:10.000Z</time>
      </trkpt>
      <trkpt lat="47.51083" lon="6.74922">
        <ele>361</ele>
        <time>2017-02-26T09:38:11.000Z</time>
      </trkpt>
      <trkpt lat="47.51087" lon="6.74919">
        <ele>361.9</ele>
        <time>2017-02-26T09:38:12.000Z</time>
      </trkpt>
      <trkpt lat="47.51091" lon="6.74916">
        <ele>361.9</ele>
        <time>2017-02-26T09:38:13.000Z</time>
      </trkpt>
      <trkpt lat="47.51095" lon="6.74913">
        <ele>362</ele>
        <time>2017-02-26T09:38:14.000Z</time>
      </trkpt>
      <trkpt lat="47.511" lon="6.74911">
        <ele>362</ele>
        <time>2017-02-26T09:38:15.000Z</time>
      </trkpt>
      <trkpt lat="47.51104" lon="6.74909">
        <ele>362</ele>
        <time>2017-02-26T09:38:16.000Z</time>
      </trkpt>
      <trkpt lat="47.51109" lon="6.74908">
        <ele>361.9</ele>
        <time>2017-02-26T09:38:17.000Z</time>
      </trkpt>
      <trkpt lat="47.51113" lon="6.74906">
        <ele>362.3</ele>
        <time>2017-02-26T09:38:18.000Z</time>
      </trkpt>
      <trkpt lat="47.51116" lon="6.74905">
        <ele>362.4</ele>
        <time>2017-02-26T09:38:19.000Z</time>
      </trkpt>
      <trkpt lat="47.5112" lon="6.74902">
        <ele>362.4</ele>
        <time>2017-02-26T09:38:20.000Z</time>
      </trkpt>
      <trkpt lat="47.51124" lon="6.74896">
        <ele>362.6</ele>
        <time>2017-02-26T09:38:21.000Z</time>
      </trkpt>
      <trkpt lat="47.51128" lon="6.74894">
        <ele>362.9</ele>
        <time>2017-02-26T09:38:22.000Z</time>
      </trkpt>
      <trkpt lat="47.51132" lon="6.74892">
        <ele>363.1</ele>
        <time>2017-02-26T09:38:23.000Z</time>
      </trkpt>
      <trkpt lat="47.51139" lon="6.74889">
        <ele>363.3</ele>
        <time>2017-02-26T09:38:24.000Z</time>
      </trkpt>
      <trkpt lat="47.51144" lon="6.74886">
        <ele>363.5</ele>
        <time>2017-02-26T09:38:25.000Z</time>
      </trkpt>
      <trkpt lat="47.5115" lon="6.74881">
        <ele>363.6</ele>
        <time>2017-02-26T09:38:26.000Z</time>
      </trkpt>
      <trkpt lat="47.51155" lon="6.74878">
        <ele>363.6</ele>
        <time>2017-02-26T09:38:27.000Z</time>
      </trkpt>
      <trkpt lat="47.5116" lon="6.74875">
        <ele>363.6</ele>
        <time>2017-02-26T09:38:28.000Z</time>
      </trkpt>
      <trkpt lat="47.51165" lon="6.74872">
        <ele>364.3</ele>
        <time>2017-02-26T09:38:29.000Z</time>
      </trkpt>
      <trkpt lat="47.51169" lon="6.74868">
        <ele>365.1</ele>
        <time>2017-02-26T09:38:30.000Z</time>
      </trkpt>
      <trkpt lat="47.51173" lon="6.74866">
        <ele>364.5</ele>
        <time>2017-02-26T09:38:31.000Z</time>
      </trkpt>
      <trkpt lat="47.51178" lon="6.74862">
        <ele>364.7</ele>
        <time>2017-02-26T09:38:32.000Z</time>
      </trkpt>
      <trkpt lat="47.51183" lon="6.74859">
        <ele>364.2</ele>
        <time>2017-02-26T09:38:33.000Z</time>
      </trkpt>
      <trkpt lat="47.51187" lon="6.74857">
        <ele>363.6</ele>
        <time>2017-02-26T09:38:34.000Z</time>
      </trkpt>
      <trkpt lat="47.5119" lon="6.74855">
        <ele>363.2</ele>
        <time>2017-02-26T09:38:35.000Z</time>
      </trkpt>
      <trkpt lat="47.51195" lon="6.74853">
        <ele>361.8</ele>
        <time>2017-02-26T09:38:36.000Z</time>
      </trkpt>
      <trkpt lat="47.512" lon="6.74852">
        <ele>359.9</ele>
        <time>2017-02-26T09:38:37.000Z</time>
      </trkpt>
      <trkpt lat="47.51204" lon="6.74849">
        <ele>359.8</ele>
        <time>2017-02-26T09:38:38.000Z</time>
      </trkpt>
      <trkpt lat="47.51209" lon="6.74848">
        <ele>360.2</ele>
        <time>2017-02-26T09:38:39.000Z</time>
      </trkpt>
      <trkpt lat="47.51213" lon="6.74846">
        <ele>361.4</ele>
        <time>2017-02-26T09:38:40.000Z</time>
      </trkpt>
      <trkpt lat="47.51218" lon="6.74844">
        <ele>362.2</ele>
        <time>2017-02-26T09:38:41.000Z</time>
      </trkpt>
      <trkpt lat="47.51223" lon="6.74841">
        <ele>362.5</ele>
        <time>2017-02-26T09:38:42.000Z</time>
      </trkpt>
      <trkpt lat="47.51228" lon="6.74838">
        <ele>362.4</ele>
        <time>2017-02-26T09:38:43.000Z</time>
      </trkpt>
      <trkpt lat="47.51234" lon="6.74835">
        <ele>363.7</ele>
        <time>2017-02-26T09:38:44.000Z</time>
      </trkpt>
      <trkpt lat="47.51242" lon="6.74829">
        <ele>363.9</ele>
        <time>2017-02-26T09:38:45.000Z</time>
      </trkpt>
      <trkpt lat="47.51248" lon="6.74825">
        <ele>364.8</ele>
        <time>2017-02-26T09:38:46.000Z</time>
      </trkpt>
      <trkpt lat="47.51254" lon="6.74822">
        <ele>366.2</ele>
        <time>2017-02-26T09:38:47.000Z</time>
      </trkpt>
      <trkpt lat="47.5126" lon="6.74821">
        <ele>366.8</ele>
        <time>2017-02-26T09:38:48.000Z</time>
      </trkpt>
      <trkpt lat="47.51266" lon="6.7482">
        <ele>367.6</ele>
        <time>2017-02-26T09:38:49.000Z</time>
      </trkpt>
      <trkpt lat="47.51272" lon="6.74818">
        <ele>369.2</ele>
        <time>2017-02-26T09:38:50.000Z</time>
      </trkpt>
      <trkpt lat="47.51278" lon="6.74817">
        <ele>370.2</ele>
        <time>2017-02-26T09:38:51.000Z</time>
      </trkpt>
      <trkpt lat="47.51283" lon="6.74816">
        <ele>371.2</ele>
        <time>2017-02-26T09:38:52.000Z</time>
      </trkpt>
      <trkpt lat="47.51288" lon="6.74814">
        <ele>371.9</ele>
        <time>2017-02-26T09:38:53.000Z</time>
      </trkpt>
      <trkpt lat="47.51294" lon="6.74814">
        <ele>372.4</ele>
        <time>2017-02-26T09:38:54.000Z</time>
      </trkpt>
      <trkpt lat="47.51299" lon="6.74813">
        <ele>372.8</ele>
        <time>2017-02-26T09:38:55.000Z</time>
      </trkpt>
      <trkpt lat="47.51304" lon="6.74813">
        <ele>373.1</ele>
        <time>2017-02-26T09:38:56.000Z</time>
      </trkpt>
      <trkpt lat="47.51309" lon="6.74813">
        <ele>373.2</ele>
        <time>2017-02-26T09:38:57.000Z</time>
      </trkpt>
      <trkpt lat="47.51314" lon="6.74813">
        <ele>372.7</ele>
        <time>2017-02-26T09:38:58.000Z</time>
      </trkpt>
      <trkpt lat="47.51319" lon="6.74813">
        <ele>372.3</ele>
        <time>2017-02-26T09:38:59.000Z</time>
      </trkpt>
      <trkpt lat="47.51324" lon="6.74814">
        <ele>371.6</ele>
        <time>2017-02-26T09:39:00.000Z</time>
      </trkpt>
      <trkpt lat="47.51329" lon="6.74815">
        <ele>372.3</ele>
        <time>2017-02-26T09:39:01.000Z</time>
      </trkpt>
      <trkpt lat="47.51334" lon="6.74816">
        <ele>372.9</ele>
        <time>2017-02-26T09:39:02.000Z</time>
      </trkpt>
      <trkpt lat="47.51339" lon="6.74818">
        <ele>373.7</ele>
        <time>2017-02-26T09:39:03.000Z</time>
      </trkpt>
      <trkpt lat="47.51344" lon="6.74818">
        <ele>374</ele>
        <time>2017-02-26T09:39:04.000Z</time>
      </trkpt>
      <trkpt lat="47.51349" lon="6.74819">
        <ele>373.9</ele>
        <time>2017-02-26T09:39:05.000Z</time>
      </trkpt>
      <trkpt lat="47.51355" lon="6.74818">
        <ele>373.9</ele>
        <time>2017-02-26T09:39:06.000Z</time>
      </trkpt>
      <trkpt lat="47.5136" lon="6.74819">
        <ele>374</ele>
        <time>2017-02-26T09:39:07.000Z</time>
      </trkpt>
      <trkpt lat="47.51365" lon="6.74818">
        <ele>374.3</ele>
        <time>2017-02-26T09:39:08.000Z</time>
      </trkpt>
      <trkpt lat="47.5137" lon="6.74818">
        <ele>374.5</ele>
        <time>2017-02-26T09:39:09.000Z</time>
      </trkpt>
      <trkpt lat="47.51374" lon="6.74818">
        <ele>374.7</ele>
        <time>2017-02-26T09:39:10.000Z</time>
      </trkpt>
      <trkpt lat="47.51378" lon="6.74819">
        <ele>373.8</ele>
        <time>2017-02-26T09:39:11.000Z</time>
      </trkpt>
      <trkpt lat="47.51383" lon="6.74816">
        <ele>374.4</ele>
        <time>2017-02-26T09:39:12.000Z</time>
      </trkpt>
      <trkpt lat="47.51389" lon="6.74813">
        <ele>375.3</ele>
        <time>2017-02-26T09:39:13.000Z</time>
      </trkpt>
      <trkpt lat="47.51393" lon="6.7481">
        <ele>375.6</ele>
        <time>2017-02-26T09:39:14.000Z</time>
      </trkpt>
      <trkpt lat="47.51398" lon="6.74809">
        <ele>375.7</ele>
        <time>2017-02-26T09:39:15.000Z</time>
      </trkpt>
      <trkpt lat="47.51403" lon="6.74805">
        <ele>375.1</ele>
        <time>2017-02-26T09:39:16.000Z</time>
      </trkpt>
      <trkpt lat="47.51407" lon="6.74802">
        <ele>374.7</ele>
        <time>2017-02-26T09:39:17.000Z</time>
      </trkpt>
      <trkpt lat="47.51413" lon="6.74799">
        <ele>374.9</ele>
        <time>2017-02-26T09:39:18.000Z</time>
      </trkpt>
      <trkpt lat="47.51419" lon="6.74795">
        <ele>374.9</ele>
        <time>2017-02-26T09:39:19.000Z</time>
      </trkpt>
      <trkpt lat="47.51423" lon="6.74789">
        <ele>374</ele>
        <time>2017-02-26T09:39:20.000Z</time>
      </trkpt>
      <trkpt lat="47.51427" lon="6.74784">
        <ele>374.5</ele>
        <time>2017-02-26T09:39:21.000Z</time>
      </trkpt>
      <trkpt lat="47.51432" lon="6.74777">
        <ele>374.7</ele>
        <time>2017-02-26T09:39:22.000Z</time>
      </trkpt>
      <trkpt lat="47.51436" lon="6.74772">
        <ele>375.4</ele>
        <time>2017-02-26T09:39:23.000Z</time>
      </trkpt>
      <trkpt lat="47.5144" lon="6.74768">
        <ele>374.8</ele>
        <time>2017-02-26T09:39:24.000Z</time>
      </trkpt>
      <trkpt lat="47.51445" lon="6.74763">
        <ele>374.5</ele>
        <time>2017-02-26T09:39:25.000Z</time>
      </trkpt>
      <trkpt lat="47.5145" lon="6.74758">
        <ele>374.7</ele>
        <time>2017-02-26T09:39:26.000Z</time>
      </trkpt>
      <trkpt lat="47.51456" lon="6.74753">
        <ele>375</ele>
        <time>2017-02-26T09:39:27.000Z</time>
      </trkpt>
      <trkpt lat="47.51461" lon="6.74747">
        <ele>375</ele>
        <time>2017-02-26T09:39:28.000Z</time>
      </trkpt>
      <trkpt lat="47.51466" lon="6.74743">
        <ele>374.8</ele>
        <time>2017-02-26T09:39:29.000Z</time>
      </trkpt>
      <trkpt lat="47.51471" lon="6.74738">
        <ele>374.5</ele>
        <time>2017-02-26T09:39:30.000Z</time>
      </trkpt>
      <trkpt lat="47.51476" lon="6.74734">
        <ele>374.5</ele>
        <time>2017-02-26T09:39:31.000Z</time>
      </trkpt>
      <trkpt lat="47.51481" lon="6.7473">
        <ele>374</ele>
        <time>2017-02-26T09:39:32.000Z</time>
      </trkpt>
      <trkpt lat="47.51487" lon="6.74726">
        <ele>374.2</ele>
        <time>2017-02-26T09:39:33.000Z</time>
      </trkpt>
      <trkpt lat="47.51492" lon="6.74722">
        <ele>374.4</ele>
        <time>2017-02-26T09:39:34.000Z</time>
      </trkpt>
      <trkpt lat="47.51497" lon="6.74717">
        <ele>374.4</ele>
        <time>2017-02-26T09:39:35.000Z</time>
      </trkpt>
      <trkpt lat="47.51503" lon="6.74713">
        <ele>374</ele>
        <time>2017-02-26T09:39:36.000Z</time>
      </trkpt>
      <trkpt lat="47.51508" lon="6.74709">
        <ele>373.7</ele>
        <time>2017-02-26T09:39:37.000Z</time>
      </trkpt>
      <trkpt lat="47.51514" lon="6.74707">
        <ele>373.4</ele>
        <time>2017-02-26T09:39:38.000Z</time>
      </trkpt>
      <trkpt lat="47.5152" lon="6.74706">
        <ele>373.2</ele>
        <time>2017-02-26T09:39:39.000Z</time>
      </trkpt>
      <trkpt lat="47.51528" lon="6.74702">
        <ele>372.5</ele>
        <time>2017-02-26T09:39:40.000Z</time>
      </trkpt>
      <trkpt lat="47.51534" lon="6.74702">
        <ele>372.2</ele>
        <time>2017-02-26T09:39:41.000Z</time>
      </trkpt>
      <trkpt lat="47.5154" lon="6.74703">
        <ele>372.4</ele>
        <time>2017-02-26T09:39:42.000Z</time>
      </trkpt>
      <trkpt lat="47.51546" lon="6.74704">
        <ele>373.1</ele>
        <time>2017-02-26T09:39:43.000Z</time>
      </trkpt>
      <trkpt lat="47.51552" lon="6.74705">
        <ele>373.9</ele>
        <time>2017-02-26T09:39:44.000Z</time>
      </trkpt>
      <trkpt lat="47.51559" lon="6.74705">
        <ele>374.7</ele>
        <time>2017-02-26T09:39:45.000Z</time>
      </trkpt>
      <trkpt lat="47.51565" lon="6.74707">
        <ele>375.6</ele>
        <time>2017-02-26T09:39:46.000Z</time>
      </trkpt>
      <trkpt lat="47.51571" lon="6.74708">
        <ele>376.6</ele>
        <time>2017-02-26T09:39:47.000Z</time>
      </trkpt>
      <trkpt lat="47.51577" lon="6.7471">
        <ele>377.2</ele>
        <time>2017-02-26T09:39:48.000Z</time>
      </trkpt>
      <trkpt lat="47.51583" lon="6.74712">
        <ele>377.9</ele>
        <time>2017-02-26T09:39:49.000Z</time>
      </trkpt>
      <trkpt lat="47.51588" lon="6.74715">
        <ele>377.9</ele>
        <time>2017-02-26T09:39:50.000Z</time>
      </trkpt>
      <trkpt lat="47.51594" lon="6.7472">
        <ele>377.7</ele>
        <time>2017-02-26T09:39:51.000Z</time>
      </trkpt>
      <trkpt lat="47.516" lon="6.74726">
        <ele>377.2</ele>
        <time>2017-02-26T09:39:52.000Z</time>
      </trkpt>
      <trkpt lat="47.51605" lon="6.7473">
        <ele>377</ele>
        <time>2017-02-26T09:39:53.000Z</time>
      </trkpt>
      <trkpt lat="47.5161" lon="6.74735">
        <ele>376.8</ele>
        <time>2017-02-26T09:39:54.000Z</time>
      </trkpt>
      <trkpt lat="47.51615" lon="6.7474">
        <ele>376.7</ele>
        <time>2017-02-26T09:39:55.000Z</time>
      </trkpt>
      <trkpt lat="47.5162" lon="6.74746">
        <ele>376.4</ele>
        <time>2017-02-26T09:39:56.000Z</time>
      </trkpt>
      <trkpt lat="47.51625" lon="6.74751">
        <ele>376</ele>
        <time>2017-02-26T09:39:57.000Z</time>
      </trkpt>
      <trkpt lat="47.5163" lon="6.74756">
        <ele>375.6</ele>
        <time>2017-02-26T09:39:58.000Z</time>
      </trkpt>
      <trkpt lat="47.51635" lon="6.74761">
        <ele>375.1</ele>
        <time>2017-02-26T09:39:59.000Z</time>
      </trkpt>
      <trkpt lat="47.5164" lon="6.74766">
        <ele>375.7</ele>
        <time>2017-02-26T09:40:00.000Z</time>
      </trkpt>
      <trkpt lat="47.51645" lon="6.74771">
        <ele>375.9</ele>
        <time>2017-02-26T09:40:01.000Z</time>
      </trkpt>
      <trkpt lat="47.5165" lon="6.74775">
        <ele>375.9</ele>
        <time>2017-02-26T09:40:02.000Z</time>
      </trkpt>
      <trkpt lat="47.51655" lon="6.7478">
        <ele>375.6</ele>
        <time>2017-02-26T09:40:03.000Z</time>
      </trkpt>
      <trkpt lat="47.5166" lon="6.74785">
        <ele>375.8</ele>
        <time>2017-02-26T09:40:04.000Z</time>
      </trkpt>
      <trkpt lat="47.51664" lon="6.74789">
        <ele>375.5</ele>
        <time>2017-02-26T09:40:05.000Z</time>
      </trkpt>
      <trkpt lat="47.51668" lon="6.74793">
        <ele>375.1</ele>
        <time>2017-02-26T09:40:06.000Z</time>
      </trkpt>
      <trkpt lat="47.51672" lon="6.74797">
        <ele>375</ele>
        <time>2017-02-26T09:40:07.000Z</time>
      </trkpt>
      <trkpt lat="47.51677" lon="6.74802">
        <ele>375.3</ele>
        <time>2017-02-26T09:40:08.000Z</time>
      </trkpt>
      <trkpt lat="47.51682" lon="6.74807">
        <ele>375.4</ele>
        <time>2017-02-26T09:40:09.000Z</time>
      </trkpt>
      <trkpt lat="47.51687" lon="6.74811">
        <ele>375.8</ele>
        <time>2017-02-26T09:40:10.000Z</time>
      </trkpt>
      <trkpt lat="47.51692" lon="6.74815">
        <ele>375.3</ele>
        <time>2017-02-26T09:40:11.000Z</time>
      </trkpt>
      <trkpt lat="47.51698" lon="6.7482">
        <ele>375.3</ele>
        <time>2017-02-26T09:40:12.000Z</time>
      </trkpt>
      <trkpt lat="47.51703" lon="6.74824">
        <ele>374.5</ele>
        <time>2017-02-26T09:40:13.000Z</time>
      </trkpt>
      <trkpt lat="47.51707" lon="6.74826">
        <ele>374.9</ele>
        <time>2017-02-26T09:40:14.000Z</time>
      </trkpt>
      <trkpt lat="47.51712" lon="6.74829">
        <ele>375.7</ele>
        <time>2017-02-26T09:40:15.000Z</time>
      </trkpt>
      <trkpt lat="47.51718" lon="6.74831">
        <ele>375.8</ele>
        <time>2017-02-26T09:40:16.000Z</time>
      </trkpt>
      <trkpt lat="47.51723" lon="6.74835">
        <ele>375.9</ele>
        <time>2017-02-26T09:40:17.000Z</time>
      </trkpt>
      <trkpt lat="47.51728" lon="6.74837">
        <ele>375.3</ele>
        <time>2017-02-26T09:40:18.000Z</time>
      </trkpt>
      <trkpt lat="47.51732" lon="6.74841">
        <ele>374.8</ele>
        <time>2017-02-26T09:40:19.000Z</time>
      </trkpt>
      <trkpt lat="47.51738" lon="6.74843">
        <ele>374.6</ele>
        <time>2017-02-26T09:40:20.000Z</time>
      </trkpt>
      <trkpt lat="47.51743" lon="6.74846">
        <ele>375.3</ele>
        <time>2017-02-26T09:40:21.000Z</time>
      </trkpt>
      <trkpt lat="47.51748" lon="6.74849">
        <ele>376.1</ele>
        <time>2017-02-26T09:40:22.000Z</time>
      </trkpt>
      <trkpt lat="47.51752" lon="6.74851">
        <ele>376.1</ele>
        <time>2017-02-26T09:40:23.000Z</time>
      </trkpt>
      <trkpt lat="47.51756" lon="6.74853">
        <ele>375.6</ele>
        <time>2017-02-26T09:40:24.000Z</time>
      </trkpt>
      <trkpt lat="47.51761" lon="6.74856">
        <ele>375.3</ele>
        <time>2017-02-26T09:40:25.000Z</time>
      </trkpt>
      <trkpt lat="47.51766" lon="6.74859">
        <ele>374.7</ele>
        <time>2017-02-26T09:40:26.000Z</time>
      </trkpt>
      <trkpt lat="47.5177" lon="6.74861">
        <ele>375.2</ele>
        <time>2017-02-26T09:40:27.000Z</time>
      </trkpt>
      <trkpt lat="47.51775" lon="6.74864">
        <ele>375.6</ele>
        <time>2017-02-26T09:40:28.000Z</time>
      </trkpt>
      <trkpt lat="47.51779" lon="6.74866">
        <ele>375.9</ele>
        <time>2017-02-26T09:40:29.000Z</time>
      </trkpt>
      <trkpt lat="47.51784" lon="6.74869">
        <ele>376.5</ele>
        <time>2017-02-26T09:40:30.000Z</time>
      </trkpt>
      <trkpt lat="47.51788" lon="6.7487">
        <ele>377.2</ele>
        <time>2017-02-26T09:40:31.000Z</time>
      </trkpt>
      <trkpt lat="47.51792" lon="6.74871">
        <ele>378</ele>
        <time>2017-02-26T09:40:32.000Z</time>
      </trkpt>
      <trkpt lat="47.51797" lon="6.74873">
        <ele>378.7</ele>
        <time>2017-02-26T09:40:33.000Z</time>
      </trkpt>
      <trkpt lat="47.51802" lon="6.74874">
        <ele>379.6</ele>
        <time>2017-02-26T09:40:34.000Z</time>
      </trkpt>
      <trkpt lat="47.51806" lon="6.74876">
        <ele>380.1</ele>
        <time>2017-02-26T09:40:35.000Z</time>
      </trkpt>
      <trkpt lat="47.51811" lon="6.74877">
        <ele>380.8</ele>
        <time>2017-02-26T09:40:36.000Z</time>
      </trkpt>
      <trkpt lat="47.51815" lon="6.74879">
        <ele>381.2</ele>
        <time>2017-02-26T09:40:37.000Z</time>
      </trkpt>
      <trkpt lat="47.51819" lon="6.74881">
        <ele>381.2</ele>
        <time>2017-02-26T09:40:38.000Z</time>
      </trkpt>
      <trkpt lat="47.51822" lon="6.74881">
        <ele>381.1</ele>
        <time>2017-02-26T09:40:39.000Z</time>
      </trkpt>
      <trkpt lat="47.51828" lon="6.74884">
        <ele>381</ele>
        <time>2017-02-26T09:40:40.000Z</time>
      </trkpt>
      <trkpt lat="47.51832" lon="6.74882">
        <ele>380.9</ele>
        <time>2017-02-26T09:40:41.000Z</time>
      </trkpt>
      <trkpt lat="47.51835" lon="6.7488">
        <ele>380.8</ele>
        <time>2017-02-26T09:40:42.000Z</time>
      </trkpt>
      <trkpt lat="47.51835" lon="6.74874">
        <ele>380.7</ele>
        <time>2017-02-26T09:40:43.000Z</time>
      </trkpt>
      <trkpt lat="47.51833" lon="6.74866">
        <ele>380.5</ele>
        <time>2017-02-26T09:40:44.000Z</time>
      </trkpt>
      <trkpt lat="47.51829" lon="6.74864">
        <ele>380.3</ele>
        <time>2017-02-26T09:40:45.000Z</time>
      </trkpt>
      <trkpt lat="47.51825" lon="6.74863">
        <ele>380.1</ele>
        <time>2017-02-26T09:40:46.000Z</time>
      </trkpt>
      <trkpt lat="47.51821" lon="6.74863">
        <ele>379.9</ele>
        <time>2017-02-26T09:40:47.000Z</time>
      </trkpt>
      <trkpt lat="47.51818" lon="6.74861">
        <ele>379.7</ele>
        <time>2017-02-26T09:40:48.000Z</time>
      </trkpt>
      <trkpt lat="47.51815" lon="6.74859">
        <ele>379.6</ele>
        <time>2017-02-26T09:40:49.000Z</time>
      </trkpt>
      <trkpt lat="47.51812" lon="6.74855">
        <ele>379.5</ele>
        <time>2017-02-26T09:40:50.000Z</time>
      </trkpt>
      <trkpt lat="47.51809" lon="6.74853">
        <ele>379.4</ele>
        <time>2017-02-26T09:40:51.000Z</time>
      </trkpt>
      <trkpt lat="47.51807" lon="6.7485">
        <ele>379.4</ele>
        <time>2017-02-26T09:40:52.000Z</time>
      </trkpt>
      <trkpt lat="47.51804" lon="6.74849">
        <ele>379.3</ele>
        <time>2017-02-26T09:40:53.000Z</time>
      </trkpt>
      <trkpt lat="47.51802" lon="6.74846">
        <ele>379.3</ele>
        <time>2017-02-26T09:40:54.000Z</time>
      </trkpt>
      <trkpt lat="47.51798" lon="6.74844">
        <ele>379.3</ele>
        <time>2017-02-26T09:40:55.000Z</time>
      </trkpt>
      <trkpt lat="47.51796" lon="6.74841">
        <ele>379.3</ele>
        <time>2017-02-26T09:40:56.000Z</time>
      </trkpt>
      <trkpt lat="47.51794" lon="6.74838">
        <ele>379.1</ele>
        <time>2017-02-26T09:40:57.000Z</time>
      </trkpt>
      <trkpt lat="47.51793" lon="6.74835">
        <ele>379.1</ele>
        <time>2017-02-26T09:40:58.000Z</time>
      </trkpt>
      <trkpt lat="47.51791" lon="6.74831">
        <ele>379.1</ele>
        <time>2017-02-26T09:40:59.000Z</time>
      </trkpt>
      <trkpt lat="47.51788" lon="6.74827">
        <ele>379.2</ele>
        <time>2017-02-26T09:41:01.000Z</time>
      </trkpt>
      <trkpt lat="47.51788" lon="6.74825">
        <ele>379.2</ele>
        <time>2017-02-26T09:41:02.000Z</time>
      </trkpt>
      <trkpt lat="47.51789" lon="6.74823">
        <ele>379.9</ele>
        <time>2017-02-26T09:41:08.000Z</time>
      </trkpt>
      <trkpt lat="47.51797" lon="6.74821">
        <ele>379.9</ele>
        <time>2017-02-26T09:41:09.000Z</time>
      </trkpt>
      <trkpt lat="47.51797" lon="6.74821">
        <ele>379.8</ele>
        <time>2017-02-26T09:41:10.000Z</time>
      </trkpt>
      <trkpt lat="47.51802" lon="6.74825">
        <ele>379.9</ele>
        <time>2017-02-26T09:41:11.000Z</time>
      </trkpt>
      <trkpt lat="47.51804" lon="6.74828">
        <ele>379.9</ele>
        <time>2017-02-26T09:41:12.000Z</time>
      </trkpt>
      <trkpt lat="47.51806" lon="6.74829">
        <ele>380</ele>
        <time>2017-02-26T09:41:13.000Z</time>
      </trkpt>
      <trkpt lat="47.51808" lon="6.74831">
        <ele>380</ele>
        <time>2017-02-26T09:41:14.000Z</time>
      </trkpt>
      <trkpt lat="47.5181" lon="6.74831">
        <ele>380</ele>
        <time>2017-02-26T09:41:15.000Z</time>
      </trkpt>
      <trkpt lat="47.51813" lon="6.74832">
        <ele>380.1</ele>
        <time>2017-02-26T09:41:16.000Z</time>
      </trkpt>
      <trkpt lat="47.51815" lon="6.74832">
        <ele>380.1</ele>
        <time>2017-02-26T09:41:17.000Z</time>
      </trkpt>
      <trkpt lat="47.51818" lon="6.74832">
        <ele>380.1</ele>
        <time>2017-02-26T09:41:18.000Z</time>
      </trkpt>
      <trkpt lat="47.51821" lon="6.74833">
        <ele>380.3</ele>
        <time>2017-02-26T09:41:19.000Z</time>
      </trkpt>
      <trkpt lat="47.51823" lon="6.74833">
        <ele>380.4</ele>
        <time>2017-02-26T09:41:20.000Z</time>
      </trkpt>
      <trkpt lat="47.51825" lon="6.74833">
        <ele>380.4</ele>
        <time>2017-02-26T09:41:21.000Z</time>
      </trkpt>
      <trkpt lat="47.51828" lon="6.74833">
        <ele>380.5</ele>
        <time>2017-02-26T09:41:22.000Z</time>
      </trkpt>
      <trkpt lat="47.5183" lon="6.74833">
        <ele>380.5</ele>
        <time>2017-02-26T09:41:23.000Z</time>
      </trkpt>
      <trkpt lat="47.51834" lon="6.74834">
        <ele>380.7</ele>
        <time>2017-02-26T09:41:25.000Z</time>
      </trkpt>
      <trkpt lat="47.51836" lon="6.74834">
        <ele>380.7</ele>
        <time>2017-02-26T09:41:26.000Z</time>
      </trkpt>
      <trkpt lat="47.51839" lon="6.7483">
        <ele>380.7</ele>
        <time>2017-02-26T09:41:29.000Z</time>
      </trkpt>
      <trkpt lat="47.51839" lon="6.74828">
        <ele>380.8</ele>
        <time>2017-02-26T09:41:30.000Z</time>
      </trkpt>
      <trkpt lat="47.51839" lon="6.74828">
        <ele>384.4</ele>
        <time>2017-02-26T09:43:14.000Z</time>
      </trkpt>
      <trkpt lat="47.51831" lon="6.74838">
        <ele>384.5</ele>
        <time>2017-02-26T09:43:15.000Z</time>
      </trkpt>
      <trkpt lat="47.51831" lon="6.74838">
        <ele>385</ele>
        <time>2017-02-26T09:43:20.000Z</time>
      </trkpt>
      <trkpt lat="47.51818" lon="6.74838">
        <ele>385</ele>
        <time>2017-02-26T09:43:21.000Z</time>
      </trkpt>
      <trkpt lat="47.51816" lon="6.74836">
        <ele>385.1</ele>
        <time>2017-02-26T09:43:22.000Z</time>
      </trkpt>
      <trkpt lat="47.51813" lon="6.74833">
        <ele>385</ele>
        <time>2017-02-26T09:43:23.000Z</time>
      </trkpt>
      <trkpt lat="47.51808" lon="6.74827">
        <ele>385</ele>
        <time>2017-02-26T09:43:24.000Z</time>
      </trkpt>
      <trkpt lat="47.51806" lon="6.74823">
        <ele>385</ele>
        <time>2017-02-26T09:43:25.000Z</time>
      </trkpt>
      <trkpt lat="47.51804" lon="6.7482">
        <ele>385</ele>
        <time>2017-02-26T09:43:26.000Z</time>
      </trkpt>
      <trkpt lat="47.51802" lon="6.74816">
        <ele>385.1</ele>
        <time>2017-02-26T09:43:27.000Z</time>
      </trkpt>
      <trkpt lat="47.518" lon="6.74813">
        <ele>385.1</ele>
        <time>2017-02-26T09:43:28.000Z</time>
      </trkpt>
      <trkpt lat="47.51799" lon="6.74809">
        <ele>385.2</ele>
        <time>2017-02-26T09:43:29.000Z</time>
      </trkpt>
      <trkpt lat="47.51798" lon="6.74805">
        <ele>385.2</ele>
        <time>2017-02-26T09:43:30.000Z</time>
      </trkpt>
      <trkpt lat="47.51798" lon="6.748">
        <ele>385.3</ele>
        <time>2017-02-26T09:43:32.000Z</time>
      </trkpt>
      <trkpt lat="47.51797" lon="6.74796">
        <ele>385.4</ele>
        <time>2017-02-26T09:43:33.000Z</time>
      </trkpt>
      <trkpt lat="47.51797" lon="6.7479">
        <ele>385.6</ele>
        <time>2017-02-26T09:43:35.000Z</time>
      </trkpt>
      <trkpt lat="47.51797" lon="6.74787">
        <ele>385.7</ele>
        <time>2017-02-26T09:43:36.000Z</time>
      </trkpt>
      <trkpt lat="47.51797" lon="6.74783">
        <ele>385.8</ele>
        <time>2017-02-26T09:43:37.000Z</time>
      </trkpt>
      <trkpt lat="47.51797" lon="6.74779">
        <ele>385.9</ele>
        <time>2017-02-26T09:43:38.000Z</time>
      </trkpt>
      <trkpt lat="47.51798" lon="6.74776">
        <ele>386.1</ele>
        <time>2017-02-26T09:43:39.000Z</time>
      </trkpt>
      <trkpt lat="47.51799" lon="6.74773">
        <ele>386.2</ele>
        <time>2017-02-26T09:43:40.000Z</time>
      </trkpt>
      <trkpt lat="47.51801" lon="6.74771">
        <ele>386.3</ele>
        <time>2017-02-26T09:43:41.000Z</time>
      </trkpt>
      <trkpt lat="47.51802" lon="6.74768">
        <ele>386.3</ele>
        <time>2017-02-26T09:43:42.000Z</time>
      </trkpt>
      <trkpt lat="47.51804" lon="6.74766">
        <ele>386.4</ele>
        <time>2017-02-26T09:43:43.000Z</time>
      </trkpt>
      <trkpt lat="47.51805" lon="6.74763">
        <ele>386.4</ele>
        <time>2017-02-26T09:43:44.000Z</time>
      </trkpt>
      <trkpt lat="47.51807" lon="6.74757">
        <ele>386.5</ele>
        <time>2017-02-26T09:43:47.000Z</time>
      </trkpt>
      <trkpt lat="47.51808" lon="6.74756">
        <ele>386.6</ele>
        <time>2017-02-26T09:43:48.000Z</time>
      </trkpt>
      <trkpt lat="47.51809" lon="6.74751">
        <ele>386.9</ele>
        <time>2017-02-26T09:43:51.000Z</time>
      </trkpt>
      <trkpt lat="47.5181" lon="6.74748">
        <ele>387</ele>
        <time>2017-02-26T09:43:52.000Z</time>
      </trkpt>
      <trkpt lat="47.51811" lon="6.74742">
        <ele>386.9</ele>
        <time>2017-02-26T09:43:54.000Z</time>
      </trkpt>
      <trkpt lat="47.51812" lon="6.74739">
        <ele>387</ele>
        <time>2017-02-26T09:43:55.000Z</time>
      </trkpt>
      <trkpt lat="47.51812" lon="6.74733">
        <ele>386.7</ele>
        <time>2017-02-26T09:43:57.000Z</time>
      </trkpt>
      <trkpt lat="47.51812" lon="6.74731">
        <ele>386.7</ele>
        <time>2017-02-26T09:43:58.000Z</time>
      </trkpt>
      <trkpt lat="47.51812" lon="6.74725">
        <ele>386.6</ele>
        <time>2017-02-26T09:44:00.000Z</time>
      </trkpt>
      <trkpt lat="47.51812" lon="6.74722">
        <ele>386.6</ele>
        <time>2017-02-26T09:44:01.000Z</time>
      </trkpt>
      <trkpt lat="47.51812" lon="6.74717">
        <ele>386.6</ele>
        <time>2017-02-26T09:44:02.000Z</time>
      </trkpt>
      <trkpt lat="47.51812" lon="6.74714">
        <ele>386.8</ele>
        <time>2017-02-26T09:44:03.000Z</time>
      </trkpt>
      <trkpt lat="47.51813" lon="6.74711">
        <ele>387.2</ele>
        <time>2017-02-26T09:44:12.000Z</time>
      </trkpt>
      <trkpt lat="47.51813" lon="6.74695">
        <ele>387.1</ele>
        <time>2017-02-26T09:44:13.000Z</time>
      </trkpt>
      <trkpt lat="47.51813" lon="6.74692">
        <ele>387.1</ele>
        <time>2017-02-26T09:44:14.000Z</time>
      </trkpt>
      <trkpt lat="47.51813" lon="6.74688">
        <ele>387.1</ele>
        <time>2017-02-26T09:44:15.000Z</time>
      </trkpt>
      <trkpt lat="47.51813" lon="6.74683">
        <ele>387.3</ele>
        <time>2017-02-26T09:44:17.000Z</time>
      </trkpt>
      <trkpt lat="47.51812" lon="6.74682">
        <ele>387.4</ele>
        <time>2017-02-26T09:44:18.000Z</time>
      </trkpt>
      <trkpt lat="47.5181" lon="6.74676">
        <ele>387.6</ele>
        <time>2017-02-26T09:44:20.000Z</time>
      </trkpt>
      <trkpt lat="47.51808" lon="6.74675">
        <ele>387.6</ele>
        <time>2017-02-26T09:44:21.000Z</time>
      </trkpt>
      <trkpt lat="47.51804" lon="6.74674">
        <ele>387.7</ele>
        <time>2017-02-26T09:44:22.000Z</time>
      </trkpt>
      <trkpt lat="47.518" lon="6.74674">
        <ele>387.9</ele>
        <time>2017-02-26T09:44:23.000Z</time>
      </trkpt>
      <trkpt lat="47.51798" lon="6.74674">
        <ele>388.1</ele>
        <time>2017-02-26T09:44:24.000Z</time>
      </trkpt>
      <trkpt lat="47.51796" lon="6.74674">
        <ele>388.3</ele>
        <time>2017-02-26T09:44:24.999Z</time>
      </trkpt>
      <trkpt lat="47.51792" lon="6.74673">
        <ele>388.7</ele>
        <time>2017-02-26T09:44:26.999Z</time>
      </trkpt>
      <trkpt lat="47.51789" lon="6.74673">
        <ele>388.8</ele>
        <time>2017-02-26T09:44:27.999Z</time>
      </trkpt>
      <trkpt lat="47.51785" lon="6.74672">
        <ele>389.2</ele>
        <time>2017-02-26T09:44:29.999Z</time>
      </trkpt>
      <trkpt lat="47.51784" lon="6.74672">
        <ele>389.4</ele>
        <time>2017-02-26T09:44:30.999Z</time>
      </trkpt>
      <trkpt lat="47.5178" lon="6.74672">
        <ele>389.7</ele>
        <time>2017-02-26T09:44:33.999Z</time>
      </trkpt>
      <trkpt lat="47.51779" lon="6.74673">
        <ele>389.8</ele>
        <time>2017-02-26T09:44:34.999Z</time>
      </trkpt>
      <trkpt lat="47.51775" lon="6.74673">
        <ele>390</ele>
        <time>2017-02-26T09:44:37.999Z</time>
      </trkpt>
      <trkpt lat="47.51774" lon="6.74673">
        <ele>390</ele>
        <time>2017-02-26T09:44:38.999Z</time>
      </trkpt>
      <trkpt lat="47.51771" lon="6.74671">
        <ele>389.8</ele>
        <time>2017-02-26T09:44:40.999Z</time>
      </trkpt>
      <trkpt lat="47.51769" lon="6.7467">
        <ele>389.6</ele>
        <time>2017-02-26T09:44:41.999Z</time>
      </trkpt>
      <trkpt lat="47.51765" lon="6.74667">
        <ele>389.1</ele>
        <time>2017-02-26T09:44:44.999Z</time>
      </trkpt>
      <trkpt lat="47.51763" lon="6.74667">
        <ele>388.9</ele>
        <time>2017-02-26T09:44:45.999Z</time>
      </trkpt>
      <trkpt lat="47.51759" lon="6.74667">
        <ele>388.4</ele>
        <time>2017-02-26T09:44:47.999Z</time>
      </trkpt>
      <trkpt lat="47.51757" lon="6.74666">
        <ele>388.1</ele>
        <time>2017-02-26T09:44:48.999Z</time>
      </trkpt>
      <trkpt lat="47.51753" lon="6.74666">
        <ele>387.5</ele>
        <time>2017-02-26T09:44:50.999Z</time>
      </trkpt>
      <trkpt lat="47.51751" lon="6.74667">
        <ele>387.2</ele>
        <time>2017-02-26T09:44:51.999Z</time>
      </trkpt>
      <trkpt lat="47.51748" lon="6.74669">
        <ele>386.9</ele>
        <time>2017-02-26T09:44:52.999Z</time>
      </trkpt>
      <trkpt lat="47.51746" lon="6.74671">
        <ele>386.7</ele>
        <time>2017-02-26T09:44:53.999Z</time>
      </trkpt>
      <trkpt lat="47.51744" lon="6.74676">
        <ele>386.7</ele>
        <time>2017-02-26T09:44:55.999Z</time>
      </trkpt>
      <trkpt lat="47.51742" lon="6.74678">
        <ele>386.8</ele>
        <time>2017-02-26T09:44:56.999Z</time>
      </trkpt>
      <trkpt lat="47.51739" lon="6.74675">
        <ele>386.7</ele>
        <time>2017-02-26T09:45:02.999Z</time>
      </trkpt>
      <trkpt lat="47.51745" lon="6.74667">
        <ele>386.8</ele>
        <time>2017-02-26T09:45:03.999Z</time>
      </trkpt>
      <trkpt lat="47.51747" lon="6.74667">
        <ele>386.8</ele>
        <time>2017-02-26T09:45:04.999Z</time>
      </trkpt>
      <trkpt lat="47.5175" lon="6.74669">
        <ele>386.8</ele>
        <time>2017-02-26T09:45:05.999Z</time>
      </trkpt>
      <trkpt lat="47.51753" lon="6.74671">
        <ele>386.9</ele>
        <time>2017-02-26T09:45:06.999Z</time>
      </trkpt>
      <trkpt lat="47.51755" lon="6.74673">
        <ele>387</ele>
        <time>2017-02-26T09:45:07.999Z</time>
      </trkpt>
      <trkpt lat="47.51758" lon="6.74675">
        <ele>387.1</ele>
        <time>2017-02-26T09:45:08.999Z</time>
      </trkpt>
      <trkpt lat="47.5176" lon="6.74677">
        <ele>387.2</ele>
        <time>2017-02-26T09:45:09.999Z</time>
      </trkpt>
      <trkpt lat="47.51763" lon="6.74678">
        <ele>387.3</ele>
        <time>2017-02-26T09:45:10.999Z</time>
      </trkpt>
      <trkpt lat="47.51765" lon="6.74679">
        <ele>387.3</ele>
        <time>2017-02-26T09:45:11.999Z</time>
      </trkpt>
      <trkpt lat="47.51769" lon="6.7468">
        <ele>387.2</ele>
        <time>2017-02-26T09:45:13.999Z</time>
      </trkpt>
      <trkpt lat="47.51771" lon="6.74681">
        <ele>387.1</ele>
        <time>2017-02-26T09:45:14.999Z</time>
      </trkpt>
      <trkpt lat="47.51773" lon="6.74683">
        <ele>387</ele>
        <time>2017-02-26T09:45:15.999Z</time>
      </trkpt>
      <trkpt lat="47.51775" lon="6.74685">
        <ele>387</ele>
        <time>2017-02-26T09:45:16.999Z</time>
      </trkpt>
      <trkpt lat="47.51778" lon="6.74687">
        <ele>387</ele>
        <time>2017-02-26T09:45:18.999Z</time>
      </trkpt>
      <trkpt lat="47.5178" lon="6.74687">
        <ele>387</ele>
        <time>2017-02-26T09:45:19.999Z</time>
      </trkpt>
      <trkpt lat="47.51782" lon="6.74687">
        <ele>387</ele>
        <time>2017-02-26T09:45:20.999Z</time>
      </trkpt>
      <trkpt lat="47.51785" lon="6.74688">
        <ele>387.1</ele>
        <time>2017-02-26T09:45:21.999Z</time>
      </trkpt>
      <trkpt lat="47.51787" lon="6.74689">
        <ele>387.2</ele>
        <time>2017-02-26T09:45:22.999Z</time>
      </trkpt>
      <trkpt lat="47.5179" lon="6.74689">
        <ele>387.2</ele>
        <time>2017-02-26T09:45:23.999Z</time>
      </trkpt>
      <trkpt lat="47.51793" lon="6.74689">
        <ele>387.3</ele>
        <time>2017-02-26T09:45:24.999Z</time>
      </trkpt>
      <trkpt lat="47.51795" lon="6.74689">
        <ele>387.4</ele>
        <time>2017-02-26T09:45:25.999Z</time>
      </trkpt>
      <trkpt lat="47.51798" lon="6.7469">
        <ele>387.5</ele>
        <time>2017-02-26T09:45:26.999Z</time>
      </trkpt>
      <trkpt lat="47.518" lon="6.7469">
        <ele>387.6</ele>
        <time>2017-02-26T09:45:27.999Z</time>
      </trkpt>
      <trkpt lat="47.51804" lon="6.74691">
        <ele>387.5</ele>
        <time>2017-02-26T09:45:31.999Z</time>
      </trkpt>
      <trkpt lat="47.51805" lon="6.74691">
        <ele>387.4</ele>
        <time>2017-02-26T09:45:32.999Z</time>
      </trkpt>
      <trkpt lat="47.51807" lon="6.74689">
        <ele>387.3</ele>
        <time>2017-02-26T09:45:33.999Z</time>
      </trkpt>
      <trkpt lat="47.51813" lon="6.7468">
        <ele>387</ele>
        <time>2017-02-26T09:45:34.999Z</time>
      </trkpt>
      <trkpt lat="47.51815" lon="6.74674">
        <ele>386.8</ele>
        <time>2017-02-26T09:45:35.999Z</time>
      </trkpt>
      <trkpt lat="47.51817" lon="6.74668">
        <ele>386.8</ele>
        <time>2017-02-26T09:45:36.999Z</time>
      </trkpt>
      <trkpt lat="47.51817" lon="6.74665">
        <ele>386.8</ele>
        <time>2017-02-26T09:45:37.999Z</time>
      </trkpt>
      <trkpt lat="47.51818" lon="6.74659">
        <ele>386.7</ele>
        <time>2017-02-26T09:45:39.999Z</time>
      </trkpt>
      <trkpt lat="47.51818" lon="6.74654">
        <ele>386.4</ele>
        <time>2017-02-26T09:45:40.999Z</time>
      </trkpt>
      <trkpt lat="47.51819" lon="6.74648">
        <ele>386.2</ele>
        <time>2017-02-26T09:45:41.999Z</time>
      </trkpt>
      <trkpt lat="47.51819" lon="6.74644">
        <ele>385.9</ele>
        <time>2017-02-26T09:45:42.999Z</time>
      </trkpt>
      <trkpt lat="47.51819" lon="6.7464">
        <ele>385.7</ele>
        <time>2017-02-26T09:45:43.999Z</time>
      </trkpt>
      <trkpt lat="47.51819" lon="6.74635">
        <ele>385.4</ele>
        <time>2017-02-26T09:45:44.999Z</time>
      </trkpt>
      <trkpt lat="47.51819" lon="6.74629">
        <ele>385.2</ele>
        <time>2017-02-26T09:45:45.999Z</time>
      </trkpt>
      <trkpt lat="47.51819" lon="6.74626">
        <ele>385</ele>
        <time>2017-02-26T09:45:46.999Z</time>
      </trkpt>
      <trkpt lat="47.51819" lon="6.7462">
        <ele>384.8</ele>
        <time>2017-02-26T09:45:48.999Z</time>
      </trkpt>
      <trkpt lat="47.51819" lon="6.74619">
        <ele>384.6</ele>
        <time>2017-02-26T09:45:49.999Z</time>
      </trkpt>
      <trkpt lat="47.51822" lon="6.74614">
        <ele>380.1</ele>
        <time>2017-02-26T09:46:12.999Z</time>
      </trkpt>
      <trkpt lat="47.51821" lon="6.74613">
        <ele>380.2</ele>
        <time>2017-02-26T09:46:13.999Z</time>
      </trkpt>
      <trkpt lat="47.51819" lon="6.74609">
        <ele>380.4</ele>
        <time>2017-02-26T09:46:19.999Z</time>
      </trkpt>
      <trkpt lat="47.51818" lon="6.74607">
        <ele>380.4</ele>
        <time>2017-02-26T09:46:20.999Z</time>
      </trkpt>
      <trkpt lat="47.51815" lon="6.74605">
        <ele>381.5</ele>
        <time>2017-02-26T09:46:29.999Z</time>
      </trkpt>
      <trkpt lat="47.51814" lon="6.74604">
        <ele>381.8</ele>
        <time>2017-02-26T09:46:30.999Z</time>
      </trkpt>
      <trkpt lat="47.51812" lon="6.74599">
        <ele>384.8</ele>
        <time>2017-02-26T09:46:39.999Z</time>
      </trkpt>
      <trkpt lat="47.51811" lon="6.74597">
        <ele>385.1</ele>
        <time>2017-02-26T09:46:40.999Z</time>
      </trkpt>
      <trkpt lat="47.5181" lon="6.74591">
        <ele>388.6</ele>
        <time>2017-02-26T09:46:49.999Z</time>
      </trkpt>
      <trkpt lat="47.5181" lon="6.7459">
        <ele>389.2</ele>
        <time>2017-02-26T09:46:50.999Z</time>
      </trkpt>
      <trkpt lat="47.51809" lon="6.74585">
        <ele>394.2</ele>
        <time>2017-02-26T09:47:07.999Z</time>
      </trkpt>
      <trkpt lat="47.51809" lon="6.74583">
        <ele>394.6</ele>
        <time>2017-02-26T09:47:08.999Z</time>
      </trkpt>
      <trkpt lat="47.51808" lon="6.74572">
        <ele>395.2</ele>
        <time>2017-02-26T09:47:09.999Z</time>
      </trkpt>
      <trkpt lat="47.51804" lon="6.74568">
        <ele>398.6</ele>
        <time>2017-02-26T09:47:16.999Z</time>
      </trkpt>
      <trkpt lat="47.51804" lon="6.74568">
        <ele>398.9</ele>
        <time>2017-02-26T09:47:17.999Z</time>
      </trkpt>
      <trkpt lat="47.51801" lon="6.74563">
        <ele>402.7</ele>
        <time>2017-02-26T09:47:27.999Z</time>
      </trkpt>
      <trkpt lat="47.51801" lon="6.74563">
        <ele>403.2</ele>
        <time>2017-02-26T09:47:28.999Z</time>
      </trkpt>
      <trkpt lat="47.518" lon="6.74557">
        <ele>405.8</ele>
        <time>2017-02-26T09:47:38.999Z</time>
      </trkpt>
      <trkpt lat="47.518" lon="6.74556">
        <ele>406.1</ele>
        <time>2017-02-26T09:47:39.999Z</time>
      </trkpt>
      <trkpt lat="47.51797" lon="6.74551">
        <ele>410.2</ele>
        <time>2017-02-26T09:47:52.999Z</time>
      </trkpt>
      <trkpt lat="47.51797" lon="6.74551">
        <ele>410.7</ele>
        <time>2017-02-26T09:47:53.999Z</time>
      </trkpt>
      <trkpt lat="47.51794" lon="6.74546">
        <ele>412.6</ele>
        <time>2017-02-26T09:47:59.999Z</time>
      </trkpt>
      <trkpt lat="47.51794" lon="6.74545">
        <ele>412.8</ele>
        <time>2017-02-26T09:48:00.999Z</time>
      </trkpt>
      <trkpt lat="47.51791" lon="6.74541">
        <ele>414.2</ele>
        <time>2017-02-26T09:48:07.999Z</time>
      </trkpt>
      <trkpt lat="47.51791" lon="6.7454">
        <ele>414.6</ele>
        <time>2017-02-26T09:48:08.999Z</time>
      </trkpt>
      <trkpt lat="47.5179" lon="6.74534">
        <ele>417.8</ele>
        <time>2017-02-26T09:48:18.999Z</time>
      </trkpt>
      <trkpt lat="47.51791" lon="6.74532">
        <ele>418.2</ele>
        <time>2017-02-26T09:48:19.999Z</time>
      </trkpt>
      <trkpt lat="47.51792" lon="6.74531">
        <ele>418.6</ele>
        <time>2017-02-26T09:48:21.999Z</time>
      </trkpt>
      <trkpt lat="47.51794" lon="6.74527">
        <ele>418.6</ele>
        <time>2017-02-26T09:48:22.999Z</time>
      </trkpt>
      <trkpt lat="47.51796" lon="6.74522">
        <ele>431.5</ele>
        <time>2017-02-26T09:49:04.999Z</time>
      </trkpt>
      <trkpt lat="47.51797" lon="6.74521">
        <ele>431.8</ele>
        <time>2017-02-26T09:49:05.999Z</time>
      </trkpt>
      <trkpt lat="47.51799" lon="6.74516">
        <ele>431.5</ele>
        <time>2017-02-26T09:49:14.999Z</time>
      </trkpt>
      <trkpt lat="47.51799" lon="6.74515">
        <ele>431.3</ele>
        <time>2017-02-26T09:49:15.999Z</time>
      </trkpt>
      <trkpt lat="47.51799" lon="6.74509">
        <ele>429.5</ele>
        <time>2017-02-26T09:49:23.999Z</time>
      </trkpt>
      <trkpt lat="47.51799" lon="6.74508">
        <ele>429.4</ele>
        <time>2017-02-26T09:49:24.999Z</time>
      </trkpt>
      <trkpt lat="47.51799" lon="6.74503">
        <ele>427.8</ele>
        <time>2017-02-26T09:49:33.999Z</time>
      </trkpt>
      <trkpt lat="47.51799" lon="6.74502">
        <ele>427.6</ele>
        <time>2017-02-26T09:49:34.999Z</time>
      </trkpt>
      <trkpt lat="47.51796" lon="6.74496">
        <ele>426.1</ele>
        <time>2017-02-26T09:49:59.999Z</time>
      </trkpt>
      <trkpt lat="47.51796" lon="6.74496">
        <ele>426.2</ele>
        <time>2017-02-26T09:50:00.999Z</time>
      </trkpt>
      <trkpt lat="47.51794" lon="6.74492">
        <ele>426.9</ele>
        <time>2017-02-26T09:50:12.999Z</time>
      </trkpt>
      <trkpt lat="47.51793" lon="6.74491">
        <ele>426.9</ele>
        <time>2017-02-26T09:50:13.999Z</time>
      </trkpt>
      <trkpt lat="47.51791" lon="6.74487">
        <ele>426.5</ele>
        <time>2017-02-26T09:50:24.999Z</time>
      </trkpt>
      <trkpt lat="47.5179" lon="6.74486">
        <ele>426.5</ele>
        <time>2017-02-26T09:50:25.999Z</time>
      </trkpt>
      <trkpt lat="47.51787" lon="6.74482">
        <ele>426.7</ele>
        <time>2017-02-26T09:50:30.999Z</time>
      </trkpt>
      <trkpt lat="47.51785" lon="6.74479">
        <ele>426.8</ele>
        <time>2017-02-26T09:50:31.999Z</time>
      </trkpt>
      <trkpt lat="47.51782" lon="6.74474">
        <ele>426.9</ele>
        <time>2017-02-26T09:50:34.999Z</time>
      </trkpt>
      <trkpt lat="47.51782" lon="6.74474">
        <ele>427</ele>
        <time>2017-02-26T09:50:35.999Z</time>
      </trkpt>
      <trkpt lat="47.51779" lon="6.74471">
        <ele>427.1</ele>
        <time>2017-02-26T09:50:38.999Z</time>
      </trkpt>
      <trkpt lat="47.51779" lon="6.74469">
        <ele>427.2</ele>
        <time>2017-02-26T09:50:39.999Z</time>
      </trkpt>
      <trkpt lat="47.51778" lon="6.74463">
        <ele>427.4</ele>
        <time>2017-02-26T09:50:43.999Z</time>
      </trkpt>
      <trkpt lat="47.51778" lon="6.74462">
        <ele>427.5</ele>
        <time>2017-02-26T09:50:44.999Z</time>
      </trkpt>
      <trkpt lat="47.51778" lon="6.74455">
        <ele>427.7</ele>
        <time>2017-02-26T09:50:48.999Z</time>
      </trkpt>
      <trkpt lat="47.51778" lon="6.74453">
        <ele>427.6</ele>
        <time>2017-02-26T09:50:49.999Z</time>
      </trkpt>
      <trkpt lat="47.51779" lon="6.74448">
        <ele>427.5</ele>
        <time>2017-02-26T09:50:52.999Z</time>
      </trkpt>
      <trkpt lat="47.5178" lon="6.74447">
        <ele>427.5</ele>
        <time>2017-02-26T09:50:53.999Z</time>
      </trkpt>
      <trkpt lat="47.51782" lon="6.74441">
        <ele>427.4</ele>
        <time>2017-02-26T09:50:57.999Z</time>
      </trkpt>
      <trkpt lat="47.51781" lon="6.74438">
        <ele>427.3</ele>
        <time>2017-02-26T09:50:58.999Z</time>
      </trkpt>
      <trkpt lat="47.51781" lon="6.74435">
        <ele>427.3</ele>
        <time>2017-02-26T09:50:59.999Z</time>
      </trkpt>
      <trkpt lat="47.5178" lon="6.74431">
        <ele>427.4</ele>
        <time>2017-02-26T09:51:00.999Z</time>
      </trkpt>
      <trkpt lat="47.51778" lon="6.74426">
        <ele>427.2</ele>
        <time>2017-02-26T09:51:04.999Z</time>
      </trkpt>
      <trkpt lat="47.51777" lon="6.74424">
        <ele>427.2</ele>
        <time>2017-02-26T09:51:05.999Z</time>
      </trkpt>
      <trkpt lat="47.51776" lon="6.74423">
        <ele>427.2</ele>
        <time>2017-02-26T09:51:06.999Z</time>
      </trkpt>
      <trkpt lat="47.51774" lon="6.7442">
        <ele>427.1</ele>
        <time>2017-02-26T09:51:07.999Z</time>
      </trkpt>
      <trkpt lat="47.5177" lon="6.74418">
        <ele>427</ele>
        <time>2017-02-26T09:51:09.999Z</time>
      </trkpt>
      <trkpt lat="47.51769" lon="6.74417">
        <ele>427</ele>
        <time>2017-02-26T09:51:10.999Z</time>
      </trkpt>
      <trkpt lat="47.51768" lon="6.74414">
        <ele>427</ele>
        <time>2017-02-26T09:51:11.999Z</time>
      </trkpt>
      <trkpt lat="47.51766" lon="6.74411">
        <ele>427</ele>
        <time>2017-02-26T09:51:12.999Z</time>
      </trkpt>
      <trkpt lat="47.51764" lon="6.74405">
        <ele>426.9</ele>
        <time>2017-02-26T09:51:15.999Z</time>
      </trkpt>
      <trkpt lat="47.51764" lon="6.74404">
        <ele>426.9</ele>
        <time>2017-02-26T09:51:16.999Z</time>
      </trkpt>
      <trkpt lat="47.51763" lon="6.74399">
        <ele>426.9</ele>
        <time>2017-02-26T09:51:19.999Z</time>
      </trkpt>
      <trkpt lat="47.51763" lon="6.74397">
        <ele>426.8</ele>
        <time>2017-02-26T09:51:20.999Z</time>
      </trkpt>
      <trkpt lat="47.51764" lon="6.74392">
        <ele>426.7</ele>
        <time>2017-02-26T09:51:25.999Z</time>
      </trkpt>
      <trkpt lat="47.51764" lon="6.74389">
        <ele>426.7</ele>
        <time>2017-02-26T09:51:26.999Z</time>
      </trkpt>
      <trkpt lat="47.51763" lon="6.74384">
        <ele>426.7</ele>
        <time>2017-02-26T09:51:28.999Z</time>
      </trkpt>
      <trkpt lat="47.51763" lon="6.74382">
        <ele>426.6</ele>
        <time>2017-02-26T09:51:29.999Z</time>
      </trkpt>
      <trkpt lat="47.51764" lon="6.74376">
        <ele>426.3</ele>
        <time>2017-02-26T09:51:34.999Z</time>
      </trkpt>
      <trkpt lat="47.51764" lon="6.74374">
        <ele>426.2</ele>
        <time>2017-02-26T09:51:35.999Z</time>
      </trkpt>
      <trkpt lat="47.51764" lon="6.74368">
        <ele>425.6</ele>
        <time>2017-02-26T09:51:38.999Z</time>
      </trkpt>
      <trkpt lat="47.51765" lon="6.74366">
        <ele>425.4</ele>
        <time>2017-02-26T09:51:39.999Z</time>
      </trkpt>
      <trkpt lat="47.51765" lon="6.74363">
        <ele>425.1</ele>
        <time>2017-02-26T09:51:40.999Z</time>
      </trkpt>
      <trkpt lat="47.51766" lon="6.74359">
        <ele>424.8</ele>
        <time>2017-02-26T09:51:41.999Z</time>
      </trkpt>
      <trkpt lat="47.51768" lon="6.74354">
        <ele>423.8</ele>
        <time>2017-02-26T09:51:44.999Z</time>
      </trkpt>
      <trkpt lat="47.51769" lon="6.7435">
        <ele>423.5</ele>
        <time>2017-02-26T09:51:45.999Z</time>
      </trkpt>
      <trkpt lat="47.5177" lon="6.74343">
        <ele>422.2</ele>
        <time>2017-02-26T09:51:48.999Z</time>
      </trkpt>
      <trkpt lat="47.5177" lon="6.74342">
        <ele>421.7</ele>
        <time>2017-02-26T09:51:49.999Z</time>
      </trkpt>
      <trkpt lat="47.51771" lon="6.74336">
        <ele>418.6</ele>
        <time>2017-02-26T09:51:55.999Z</time>
      </trkpt>
      <trkpt lat="47.51772" lon="6.74335">
        <ele>418</ele>
        <time>2017-02-26T09:51:56.999Z</time>
      </trkpt>
      <trkpt lat="47.51774" lon="6.74331">
        <ele>416.1</ele>
        <time>2017-02-26T09:52:00.999Z</time>
      </trkpt>
      <trkpt lat="47.51774" lon="6.74329">
        <ele>415.7</ele>
        <time>2017-02-26T09:52:01.999Z</time>
      </trkpt>
      <trkpt lat="47.51774" lon="6.74324">
        <ele>414.7</ele>
        <time>2017-02-26T09:52:03.999Z</time>
      </trkpt>
      <trkpt lat="47.51774" lon="6.74321">
        <ele>414.3</ele>
        <time>2017-02-26T09:52:04.999Z</time>
      </trkpt>
      <trkpt lat="47.51773" lon="6.74316">
        <ele>413.5</ele>
        <time>2017-02-26T09:52:06.999Z</time>
      </trkpt>
      <trkpt lat="47.51773" lon="6.74314">
        <ele>413.2</ele>
        <time>2017-02-26T09:52:07.999Z</time>
      </trkpt>
      <trkpt lat="47.51773" lon="6.74308">
        <ele>412.8</ele>
        <time>2017-02-26T09:52:10.999Z</time>
      </trkpt>
      <trkpt lat="47.51772" lon="6.74307">
        <ele>412.5</ele>
        <time>2017-02-26T09:52:11.999Z</time>
      </trkpt>
      <trkpt lat="47.51771" lon="6.74301">
        <ele>412.7</ele>
        <time>2017-02-26T09:52:14.999Z</time>
      </trkpt>
      <trkpt lat="47.51771" lon="6.743">
        <ele>412.8</ele>
        <time>2017-02-26T09:52:15.999Z</time>
      </trkpt>
      <trkpt lat="47.5177" lon="6.74294">
        <ele>415.3</ele>
        <time>2017-02-26T09:52:26.999Z</time>
      </trkpt>
      <trkpt lat="47.5177" lon="6.74291">
        <ele>415.5</ele>
        <time>2017-02-26T09:52:27.999Z</time>
      </trkpt>
      <trkpt lat="47.51771" lon="6.74289">
        <ele>415.9</ele>
        <time>2017-02-26T09:52:29.999Z</time>
      </trkpt>
      <trkpt lat="47.51771" lon="6.74284">
        <ele>416.1</ele>
        <time>2017-02-26T09:52:30.999Z</time>
      </trkpt>
      <trkpt lat="47.5177" lon="6.74279">
        <ele>416.7</ele>
        <time>2017-02-26T09:52:36.999Z</time>
      </trkpt>
      <trkpt lat="47.5177" lon="6.74276">
        <ele>416.9</ele>
        <time>2017-02-26T09:52:37.999Z</time>
      </trkpt>
      <trkpt lat="47.51769" lon="6.74273">
        <ele>417.1</ele>
        <time>2017-02-26T09:52:38.999Z</time>
      </trkpt>
      <trkpt lat="47.5177" lon="6.74269">
        <ele>417.2</ele>
        <time>2017-02-26T09:52:39.999Z</time>
      </trkpt>
      <trkpt lat="47.51772" lon="6.74263">
        <ele>417.9</ele>
        <time>2017-02-26T09:52:44.999Z</time>
      </trkpt>
      <trkpt lat="47.51773" lon="6.74261">
        <ele>417.9</ele>
        <time>2017-02-26T09:52:45.999Z</time>
      </trkpt>
      <trkpt lat="47.51774" lon="6.74256">
        <ele>417.9</ele>
        <time>2017-02-26T09:52:47.999Z</time>
      </trkpt>
      <trkpt lat="47.51775" lon="6.74252">
        <ele>417.9</ele>
        <time>2017-02-26T09:52:48.999Z</time>
      </trkpt>
      <trkpt lat="47.51776" lon="6.74247">
        <ele>417.7</ele>
        <time>2017-02-26T09:52:51.999Z</time>
      </trkpt>
      <trkpt lat="47.51776" lon="6.74245">
        <ele>417.7</ele>
        <time>2017-02-26T09:52:52.999Z</time>
      </trkpt>
      <trkpt lat="47.51776" lon="6.74244">
        <ele>417.7</ele>
        <time>2017-02-26T09:52:53.999Z</time>
      </trkpt>
      <trkpt lat="47.51777" lon="6.74237">
        <ele>417.7</ele>
        <time>2017-02-26T09:52:54.999Z</time>
      </trkpt>
      <trkpt lat="47.51778" lon="6.74231">
        <ele>417.6</ele>
        <time>2017-02-26T09:52:55.999Z</time>
      </trkpt>
      <trkpt lat="47.5178" lon="6.74227">
        <ele>417.6</ele>
        <time>2017-02-26T09:52:56.999Z</time>
      </trkpt>
      <trkpt lat="47.51778" lon="6.74221">
        <ele>417.5</ele>
        <time>2017-02-26T09:53:00.999Z</time>
      </trkpt>
      <trkpt lat="47.51778" lon="6.74218">
        <ele>417.4</ele>
        <time>2017-02-26T09:53:01.999Z</time>
      </trkpt>
      <trkpt lat="47.51779" lon="6.74214">
        <ele>417.1</ele>
        <time>2017-02-26T09:53:03.999Z</time>
      </trkpt>
      <trkpt lat="47.51779" lon="6.74211">
        <ele>416.9</ele>
        <time>2017-02-26T09:53:04.999Z</time>
      </trkpt>
      <trkpt lat="47.5178" lon="6.74207">
        <ele>416.6</ele>
        <time>2017-02-26T09:53:05.999Z</time>
      </trkpt>
      <trkpt lat="47.5178" lon="6.74204">
        <ele>416.3</ele>
        <time>2017-02-26T09:53:06.999Z</time>
      </trkpt>
      <trkpt lat="47.51781" lon="6.742">
        <ele>415.9</ele>
        <time>2017-02-26T09:53:07.999Z</time>
      </trkpt>
      <trkpt lat="47.51782" lon="6.74194">
        <ele>415.4</ele>
        <time>2017-02-26T09:53:08.999Z</time>
      </trkpt>
      <trkpt lat="47.51783" lon="6.74188">
        <ele>414.9</ele>
        <time>2017-02-26T09:53:09.999Z</time>
      </trkpt>
      <trkpt lat="47.51784" lon="6.74182">
        <ele>413.9</ele>
        <time>2017-02-26T09:53:11.999Z</time>
      </trkpt>
      <trkpt lat="47.51785" lon="6.74177">
        <ele>413.6</ele>
        <time>2017-02-26T09:53:12.999Z</time>
      </trkpt>
      <trkpt lat="47.51785" lon="6.7417">
        <ele>413.8</ele>
        <time>2017-02-26T09:53:21.999Z</time>
      </trkpt>
      <trkpt lat="47.51787" lon="6.74168">
        <ele>414.7</ele>
        <time>2017-02-26T09:53:26.999Z</time>
      </trkpt>
      <trkpt lat="47.51787" lon="6.74165">
        <ele>415.8</ele>
        <time>2017-02-26T09:53:31.999Z</time>
      </trkpt>
      <trkpt lat="47.51786" lon="6.74161">
        <ele>416.9</ele>
        <time>2017-02-26T09:53:33.999Z</time>
      </trkpt>
      <trkpt lat="47.51785" lon="6.74154">
        <ele>417.9</ele>
        <time>2017-02-26T09:53:35.999Z</time>
      </trkpt>
      <trkpt lat="47.51786" lon="6.74157">
        <ele>421.9</ele>
        <time>2017-02-26T09:53:43.999Z</time>
      </trkpt>
      <trkpt lat="47.51786" lon="6.74162">
        <ele>423.6</ele>
        <time>2017-02-26T09:53:47.999Z</time>
      </trkpt>
      <trkpt lat="47.51789" lon="6.7416">
        <ele>423.8</ele>
        <time>2017-02-26T09:53:55.999Z</time>
      </trkpt>
      <trkpt lat="47.51791" lon="6.74159">
        <ele>423.7</ele>
        <time>2017-02-26T09:53:56.999Z</time>
      </trkpt>
      <trkpt lat="47.51792" lon="6.74158">
        <ele>423.5</ele>
        <time>2017-02-26T09:53:58.999Z</time>
      </trkpt>
      <trkpt lat="47.51794" lon="6.74151">
        <ele>423.2</ele>
        <time>2017-02-26T09:53:59.999Z</time>
      </trkpt>
      <trkpt lat="47.51795" lon="6.74148">
        <ele>422.4</ele>
        <time>2017-02-26T09:54:01.999Z</time>
      </trkpt>
      <trkpt lat="47.51796" lon="6.74143">
        <ele>421.9</ele>
        <time>2017-02-26T09:54:02.999Z</time>
      </trkpt>
      <trkpt lat="47.51795" lon="6.74137">
        <ele>421.2</ele>
        <time>2017-02-26T09:54:06.999Z</time>
      </trkpt>
      <trkpt lat="47.51793" lon="6.74136">
        <ele>421.1</ele>
        <time>2017-02-26T09:54:07.999Z</time>
      </trkpt>
      <trkpt lat="47.51792" lon="6.74134">
        <ele>421</ele>
        <time>2017-02-26T09:54:08.999Z</time>
      </trkpt>
      <trkpt lat="47.51791" lon="6.74127">
        <ele>420.9</ele>
        <time>2017-02-26T09:54:09.999Z</time>
      </trkpt>
      <trkpt lat="47.51789" lon="6.74125">
        <ele>421.5</ele>
        <time>2017-02-26T09:54:16.999Z</time>
      </trkpt>
      <trkpt lat="47.51787" lon="6.74123">
        <ele>421.6</ele>
        <time>2017-02-26T09:54:17.999Z</time>
      </trkpt>
      <trkpt lat="47.51784" lon="6.74119">
        <ele>421.8</ele>
        <time>2017-02-26T09:54:18.999Z</time>
      </trkpt>
      <trkpt lat="47.51781" lon="6.74116">
        <ele>422</ele>
        <time>2017-02-26T09:54:19.999Z</time>
      </trkpt>
      <trkpt lat="47.5178" lon="6.74114">
        <ele>422.6</ele>
        <time>2017-02-26T09:54:21.999Z</time>
      </trkpt>
      <trkpt lat="47.51778" lon="6.74111">
        <ele>422.9</ele>
        <time>2017-02-26T09:54:22.999Z</time>
      </trkpt>
      <trkpt lat="47.51776" lon="6.74106">
        <ele>424.3</ele>
        <time>2017-02-26T09:54:26.999Z</time>
      </trkpt>
      <trkpt lat="47.51776" lon="6.74103">
        <ele>424.5</ele>
        <time>2017-02-26T09:54:27.999Z</time>
      </trkpt>
      <trkpt lat="47.51774" lon="6.74101">
        <ele>424.7</ele>
        <time>2017-02-26T09:54:28.999Z</time>
      </trkpt>
      <trkpt lat="47.51772" lon="6.74099">
        <ele>425</ele>
        <time>2017-02-26T09:54:29.999Z</time>
      </trkpt>
      <trkpt lat="47.51769" lon="6.74097">
        <ele>425.3</ele>
        <time>2017-02-26T09:54:30.999Z</time>
      </trkpt>
      <trkpt lat="47.51767" lon="6.74095">
        <ele>425.7</ele>
        <time>2017-02-26T09:54:31.999Z</time>
      </trkpt>
      <trkpt lat="47.51765" lon="6.74094">
        <ele>426</ele>
        <time>2017-02-26T09:54:32.999Z</time>
      </trkpt>
      <trkpt lat="47.51763" lon="6.74091">
        <ele>426.5</ele>
        <time>2017-02-26T09:54:33.999Z</time>
      </trkpt>
      <trkpt lat="47.51756" lon="6.74092">
        <ele>426.8</ele>
        <time>2017-02-26T09:54:34.999Z</time>
      </trkpt>
      <trkpt lat="47.51749" lon="6.7409">
        <ele>427.2</ele>
        <time>2017-02-26T09:54:35.999Z</time>
      </trkpt>
      <trkpt lat="47.51742" lon="6.74088">
        <ele>427.4</ele>
        <time>2017-02-26T09:54:36.999Z</time>
      </trkpt>
      <trkpt lat="47.51735" lon="6.74086">
        <ele>427.7</ele>
        <time>2017-02-26T09:54:37.999Z</time>
      </trkpt>
      <trkpt lat="47.51729" lon="6.74083">
        <ele>427.7</ele>
        <time>2017-02-26T09:54:38.999Z</time>
      </trkpt>
      <trkpt lat="47.51724" lon="6.74078">
        <ele>427.8</ele>
        <time>2017-02-26T09:54:39.999Z</time>
      </trkpt>
      <trkpt lat="47.5172" lon="6.74073">
        <ele>427.4</ele>
        <time>2017-02-26T09:54:40.999Z</time>
      </trkpt>
      <trkpt lat="47.51718" lon="6.7407">
        <ele>427.3</ele>
        <time>2017-02-26T09:54:41.999Z</time>
      </trkpt>
      <trkpt lat="47.51714" lon="6.74063">
        <ele>426.3</ele>
        <time>2017-02-26T09:54:42.999Z</time>
      </trkpt>
      <trkpt lat="47.51712" lon="6.7406">
        <ele>426.2</ele>
        <time>2017-02-26T09:54:43.999Z</time>
      </trkpt>
      <trkpt lat="47.51708" lon="6.74059">
        <ele>424.8</ele>
        <time>2017-02-26T09:54:44.999Z</time>
      </trkpt>
      <trkpt lat="47.51702" lon="6.7406">
        <ele>423.1</ele>
        <time>2017-02-26T09:54:45.999Z</time>
      </trkpt>
      <trkpt lat="47.51695" lon="6.74059">
        <ele>421.5</ele>
        <time>2017-02-26T09:54:46.999Z</time>
      </trkpt>
      <trkpt lat="47.51689" lon="6.74056">
        <ele>421.3</ele>
        <time>2017-02-26T09:54:47.999Z</time>
      </trkpt>
      <trkpt lat="47.51686" lon="6.74059">
        <ele>420.6</ele>
        <time>2017-02-26T09:54:49.999Z</time>
      </trkpt>
      <trkpt lat="47.51679" lon="6.74055">
        <ele>420.2</ele>
        <time>2017-02-26T09:54:50.999Z</time>
      </trkpt>
      <trkpt lat="47.51676" lon="6.74039">
        <ele>419.9</ele>
        <time>2017-02-26T09:54:51.999Z</time>
      </trkpt>
      <trkpt lat="47.51676" lon="6.7403">
        <ele>419.7</ele>
        <time>2017-02-26T09:54:52.999Z</time>
      </trkpt>
      <trkpt lat="47.51678" lon="6.74025">
        <ele>419.7</ele>
        <time>2017-02-26T09:54:55.999Z</time>
      </trkpt>
      <trkpt lat="47.51682" lon="6.74024">
        <ele>419.7</ele>
        <time>2017-02-26T09:54:56.999Z</time>
      </trkpt>
      <trkpt lat="47.51685" lon="6.74023">
        <ele>419.6</ele>
        <time>2017-02-26T09:54:57.999Z</time>
      </trkpt>
      <trkpt lat="47.51689" lon="6.74021">
        <ele>419.3</ele>
        <time>2017-02-26T09:54:58.999Z</time>
      </trkpt>
      <trkpt lat="47.51692" lon="6.74019">
        <ele>419.1</ele>
        <time>2017-02-26T09:54:59.999Z</time>
      </trkpt>
      <trkpt lat="47.51695" lon="6.74017">
        <ele>418.7</ele>
        <time>2017-02-26T09:55:00.999Z</time>
      </trkpt>
      <trkpt lat="47.51698" lon="6.74014">
        <ele>418.2</ele>
        <time>2017-02-26T09:55:01.999Z</time>
      </trkpt>
      <trkpt lat="47.517" lon="6.74011">
        <ele>417.8</ele>
        <time>2017-02-26T09:55:02.999Z</time>
      </trkpt>
      <trkpt lat="47.51703" lon="6.74007">
        <ele>417.3</ele>
        <time>2017-02-26T09:55:04.999Z</time>
      </trkpt>
      <trkpt lat="47.51703" lon="6.74004">
        <ele>417.1</ele>
        <time>2017-02-26T09:55:05.999Z</time>
      </trkpt>
      <trkpt lat="47.51705" lon="6.74">
        <ele>417</ele>
        <time>2017-02-26T09:55:07.999Z</time>
      </trkpt>
      <trkpt lat="47.51706" lon="6.73998">
        <ele>416.9</ele>
        <time>2017-02-26T09:55:08.999Z</time>
      </trkpt>
      <trkpt lat="47.51708" lon="6.73994">
        <ele>416.8</ele>
        <time>2017-02-26T09:55:10.999Z</time>
      </trkpt>
      <trkpt lat="47.51709" lon="6.73993">
        <ele>416.9</ele>
        <time>2017-02-26T09:55:11.999Z</time>
      </trkpt>
      <trkpt lat="47.51711" lon="6.73989">
        <ele>416.7</ele>
        <time>2017-02-26T09:55:13.999Z</time>
      </trkpt>
      <trkpt lat="47.51712" lon="6.73986">
        <ele>416.7</ele>
        <time>2017-02-26T09:55:14.999Z</time>
      </trkpt>
      <trkpt lat="47.51713" lon="6.7398">
        <ele>416.4</ele>
        <time>2017-02-26T09:55:21.999Z</time>
      </trkpt>
      <trkpt lat="47.51713" lon="6.73979">
        <ele>416.4</ele>
        <time>2017-02-26T09:55:22.999Z</time>
      </trkpt>
      <trkpt lat="47.51715" lon="6.73974">
        <ele>416.5</ele>
        <time>2017-02-26T09:55:26.999Z</time>
      </trkpt>
      <trkpt lat="47.51716" lon="6.73974">
        <ele>416.5</ele>
        <time>2017-02-26T09:55:27.999Z</time>
      </trkpt>
      <trkpt lat="47.51721" lon="6.73972">
        <ele>415.9</ele>
        <time>2017-02-26T09:55:32.999Z</time>
      </trkpt>
      <trkpt lat="47.51722" lon="6.73971">
        <ele>415.7</ele>
        <time>2017-02-26T09:55:33.999Z</time>
      </trkpt>
      <trkpt lat="47.51723" lon="6.73969">
        <ele>415.5</ele>
        <time>2017-02-26T09:55:34.999Z</time>
      </trkpt>
      <trkpt lat="47.51723" lon="6.73963">
        <ele>415.3</ele>
        <time>2017-02-26T09:55:35.999Z</time>
      </trkpt>
      <trkpt lat="47.51724" lon="6.73958">
        <ele>415</ele>
        <time>2017-02-26T09:55:37.999Z</time>
      </trkpt>
      <trkpt lat="47.51725" lon="6.73953">
        <ele>414.9</ele>
        <time>2017-02-26T09:55:38.999Z</time>
      </trkpt>
      <trkpt lat="47.51726" lon="6.73949">
        <ele>414.6</ele>
        <time>2017-02-26T09:55:40.999Z</time>
      </trkpt>
      <trkpt lat="47.51727" lon="6.73946">
        <ele>414.5</ele>
        <time>2017-02-26T09:55:41.999Z</time>
      </trkpt>
      <trkpt lat="47.51727" lon="6.73942">
        <ele>415.1</ele>
        <time>2017-02-26T09:55:43.999Z</time>
      </trkpt>
      <trkpt lat="47.51727" lon="6.73938">
        <ele>415.6</ele>
        <time>2017-02-26T09:55:44.999Z</time>
      </trkpt>
      <trkpt lat="47.51728" lon="6.73934">
        <ele>416.3</ele>
        <time>2017-02-26T09:55:45.999Z</time>
      </trkpt>
      <trkpt lat="47.5173" lon="6.7393">
        <ele>417.1</ele>
        <time>2017-02-26T09:55:46.999Z</time>
      </trkpt>
      <trkpt lat="47.51733" lon="6.73926">
        <ele>419.4</ele>
        <time>2017-02-26T09:55:49.999Z</time>
      </trkpt>
      <trkpt lat="47.51734" lon="6.73925">
        <ele>419.9</ele>
        <time>2017-02-26T09:55:50.999Z</time>
      </trkpt>
      <trkpt lat="47.51737" lon="6.7392">
        <ele>421.8</ele>
        <time>2017-02-26T09:55:55.999Z</time>
      </trkpt>
      <trkpt lat="47.51737" lon="6.73918">
        <ele>422.4</ele>
        <time>2017-02-26T09:55:56.999Z</time>
      </trkpt>
      <trkpt lat="47.5174" lon="6.73913">
        <ele>424.8</ele>
        <time>2017-02-26T09:56:00.999Z</time>
      </trkpt>
      <trkpt lat="47.5174" lon="6.73911">
        <ele>425.2</ele>
        <time>2017-02-26T09:56:01.999Z</time>
      </trkpt>
      <trkpt lat="47.51741" lon="6.73905">
        <ele>426.2</ele>
        <time>2017-02-26T09:56:04.999Z</time>
      </trkpt>
      <trkpt lat="47.51741" lon="6.73902">
        <ele>426.3</ele>
        <time>2017-02-26T09:56:05.999Z</time>
      </trkpt>
      <trkpt lat="47.51742" lon="6.73896">
        <ele>426.7</ele>
        <time>2017-02-26T09:56:14.999Z</time>
      </trkpt>
      <trkpt lat="47.51741" lon="6.73895">
        <ele>426.8</ele>
        <time>2017-02-26T09:56:15.999Z</time>
      </trkpt>
      <trkpt lat="47.51741" lon="6.73889">
        <ele>426.8</ele>
        <time>2017-02-26T09:56:19.999Z</time>
      </trkpt>
      <trkpt lat="47.51742" lon="6.73887">
        <ele>427</ele>
        <time>2017-02-26T09:56:20.999Z</time>
      </trkpt>
      <trkpt lat="47.51743" lon="6.73882">
        <ele>427.7</ele>
        <time>2017-02-26T09:56:23.999Z</time>
      </trkpt>
      <trkpt lat="47.51744" lon="6.73881">
        <ele>428</ele>
        <time>2017-02-26T09:56:24.999Z</time>
      </trkpt>
      <trkpt lat="47.51746" lon="6.73875">
        <ele>428.4</ele>
        <time>2017-02-26T09:56:26.999Z</time>
      </trkpt>
      <trkpt lat="47.51747" lon="6.73873">
        <ele>428.6</ele>
        <time>2017-02-26T09:56:27.999Z</time>
      </trkpt>
      <trkpt lat="47.51749" lon="6.73868">
        <ele>429.1</ele>
        <time>2017-02-26T09:56:31.999Z</time>
      </trkpt>
      <trkpt lat="47.5175" lon="6.73866">
        <ele>429.1</ele>
        <time>2017-02-26T09:56:32.999Z</time>
      </trkpt>
      <trkpt lat="47.51752" lon="6.73861">
        <ele>429.1</ele>
        <time>2017-02-26T09:56:35.999Z</time>
      </trkpt>
      <trkpt lat="47.51752" lon="6.7386">
        <ele>429.3</ele>
        <time>2017-02-26T09:56:36.999Z</time>
      </trkpt>
      <trkpt lat="47.51754" lon="6.73855">
        <ele>429.4</ele>
        <time>2017-02-26T09:56:40.999Z</time>
      </trkpt>
      <trkpt lat="47.51754" lon="6.73853">
        <ele>429.3</ele>
        <time>2017-02-26T09:56:41.999Z</time>
      </trkpt>
      <trkpt lat="47.51756" lon="6.73849">
        <ele>429.5</ele>
        <time>2017-02-26T09:56:44.999Z</time>
      </trkpt>
      <trkpt lat="47.51757" lon="6.73846">
        <ele>429.6</ele>
        <time>2017-02-26T09:56:45.999Z</time>
      </trkpt>
      <trkpt lat="47.51758" lon="6.73841">
        <ele>430.1</ele>
        <time>2017-02-26T09:56:47.999Z</time>
      </trkpt>
      <trkpt lat="47.51758" lon="6.73838">
        <ele>430.5</ele>
        <time>2017-02-26T09:56:48.999Z</time>
      </trkpt>
      <trkpt lat="47.5176" lon="6.73834">
        <ele>431</ele>
        <time>2017-02-26T09:56:51.999Z</time>
      </trkpt>
      <trkpt lat="47.5176" lon="6.73832">
        <ele>431.2</ele>
        <time>2017-02-26T09:56:52.999Z</time>
      </trkpt>
      <trkpt lat="47.51761" lon="6.73826">
        <ele>432.1</ele>
        <time>2017-02-26T09:56:55.999Z</time>
      </trkpt>
      <trkpt lat="47.5176" lon="6.73824">
        <ele>432.3</ele>
        <time>2017-02-26T09:56:56.999Z</time>
      </trkpt>
      <trkpt lat="47.51759" lon="6.73819">
        <ele>433.1</ele>
        <time>2017-02-26T09:56:58.999Z</time>
      </trkpt>
      <trkpt lat="47.51758" lon="6.73817">
        <ele>433.4</ele>
        <time>2017-02-26T09:56:59.999Z</time>
      </trkpt>
      <trkpt lat="47.51757" lon="6.73812">
        <ele>434.1</ele>
        <time>2017-02-26T09:57:01.999Z</time>
      </trkpt>
      <trkpt lat="47.51757" lon="6.7381">
        <ele>434.5</ele>
        <time>2017-02-26T09:57:02.999Z</time>
      </trkpt>
      <trkpt lat="47.51757" lon="6.73807">
        <ele>434.9</ele>
        <time>2017-02-26T09:57:03.999Z</time>
      </trkpt>
      <trkpt lat="47.51757" lon="6.73803">
        <ele>435.3</ele>
        <time>2017-02-26T09:57:04.999Z</time>
      </trkpt>
      <trkpt lat="47.51756" lon="6.73798">
        <ele>435.8</ele>
        <time>2017-02-26T09:57:06.999Z</time>
      </trkpt>
      <trkpt lat="47.51755" lon="6.73796">
        <ele>436.2</ele>
        <time>2017-02-26T09:57:07.999Z</time>
      </trkpt>
      <trkpt lat="47.51755" lon="6.73791">
        <ele>437.6</ele>
        <time>2017-02-26T09:57:11.999Z</time>
      </trkpt>
      <trkpt lat="47.51755" lon="6.73789">
        <ele>437.9</ele>
        <time>2017-02-26T09:57:12.999Z</time>
      </trkpt>
      <trkpt lat="47.51756" lon="6.73783">
        <ele>438.3</ele>
        <time>2017-02-26T09:57:14.999Z</time>
      </trkpt>
      <trkpt lat="47.51756" lon="6.73781">
        <ele>438.6</ele>
        <time>2017-02-26T09:57:15.999Z</time>
      </trkpt>
      <trkpt lat="47.51754" lon="6.73776">
        <ele>439.4</ele>
        <time>2017-02-26T09:57:20.999Z</time>
      </trkpt>
      <trkpt lat="47.51754" lon="6.73773">
        <ele>439.5</ele>
        <time>2017-02-26T09:57:21.999Z</time>
      </trkpt>
      <trkpt lat="47.51752" lon="6.73767">
        <ele>439.9</ele>
        <time>2017-02-26T09:57:23.999Z</time>
      </trkpt>
      <trkpt lat="47.51751" lon="6.73766">
        <ele>440.2</ele>
        <time>2017-02-26T09:57:24.999Z</time>
      </trkpt>
      <trkpt lat="47.5175" lon="6.7376">
        <ele>441.3</ele>
        <time>2017-02-26T09:57:27.999Z</time>
      </trkpt>
      <trkpt lat="47.51749" lon="6.73759">
        <ele>441.7</ele>
        <time>2017-02-26T09:57:28.999Z</time>
      </trkpt>
      <trkpt lat="47.51747" lon="6.73753">
        <ele>442.6</ele>
        <time>2017-02-26T09:57:31.999Z</time>
      </trkpt>
      <trkpt lat="47.51747" lon="6.73752">
        <ele>443</ele>
        <time>2017-02-26T09:57:32.999Z</time>
      </trkpt>
      <trkpt lat="47.51746" lon="6.73745">
        <ele>444.3</ele>
        <time>2017-02-26T09:57:37.999Z</time>
      </trkpt>
      <trkpt lat="47.51746" lon="6.73745">
        <ele>444.4</ele>
        <time>2017-02-26T09:57:38.999Z</time>
      </trkpt>
      <trkpt lat="47.51747" lon="6.7374">
        <ele>444.8</ele>
        <time>2017-02-26T09:57:41.999Z</time>
      </trkpt>
      <trkpt lat="47.51747" lon="6.73735">
        <ele>445</ele>
        <time>2017-02-26T09:57:42.999Z</time>
      </trkpt>
      <trkpt lat="47.51747" lon="6.7373">
        <ele>445.3</ele>
        <time>2017-02-26T09:57:44.999Z</time>
      </trkpt>
      <trkpt lat="47.51747" lon="6.73727">
        <ele>445.3</ele>
        <time>2017-02-26T09:57:45.999Z</time>
      </trkpt>
      <trkpt lat="47.51747" lon="6.73721">
        <ele>445.3</ele>
        <time>2017-02-26T09:57:47.999Z</time>
      </trkpt>
      <trkpt lat="47.51747" lon="6.7372">
        <ele>445.3</ele>
        <time>2017-02-26T09:57:48.999Z</time>
      </trkpt>
      <trkpt lat="47.51747" lon="6.73713">
        <ele>445.8</ele>
        <time>2017-02-26T09:57:51.999Z</time>
      </trkpt>
      <trkpt lat="47.51746" lon="6.73711">
        <ele>445.9</ele>
        <time>2017-02-26T09:57:52.999Z</time>
      </trkpt>
      <trkpt lat="47.51747" lon="6.73707">
        <ele>446.2</ele>
        <time>2017-02-26T09:57:54.999Z</time>
      </trkpt>
      <trkpt lat="47.51748" lon="6.73702">
        <ele>446.3</ele>
        <time>2017-02-26T09:57:55.999Z</time>
      </trkpt>
      <trkpt lat="47.51748" lon="6.73697">
        <ele>446.6</ele>
        <time>2017-02-26T09:57:58.999Z</time>
      </trkpt>
      <trkpt lat="47.51748" lon="6.73695">
        <ele>446.7</ele>
        <time>2017-02-26T09:57:59.999Z</time>
      </trkpt>
      <trkpt lat="47.51749" lon="6.73691">
        <ele>447</ele>
        <time>2017-02-26T09:58:01.999Z</time>
      </trkpt>
      <trkpt lat="47.5175" lon="6.73688">
        <ele>447.1</ele>
        <time>2017-02-26T09:58:02.999Z</time>
      </trkpt>
      <trkpt lat="47.5175" lon="6.73683">
        <ele>447.1</ele>
        <time>2017-02-26T09:58:03.999Z</time>
      </trkpt>
      <trkpt lat="47.51751" lon="6.73679">
        <ele>447.2</ele>
        <time>2017-02-26T09:58:04.999Z</time>
      </trkpt>
      <trkpt lat="47.51753" lon="6.73675">
        <ele>447.7</ele>
        <time>2017-02-26T09:58:10.999Z</time>
      </trkpt>
      <trkpt lat="47.51753" lon="6.73672">
        <ele>447.8</ele>
        <time>2017-02-26T09:58:11.999Z</time>
      </trkpt>
      <trkpt lat="47.51753" lon="6.73667">
        <ele>448.1</ele>
        <time>2017-02-26T09:58:13.999Z</time>
      </trkpt>
      <trkpt lat="47.51755" lon="6.73661">
        <ele>448</ele>
        <time>2017-02-26T09:58:14.999Z</time>
      </trkpt>
      <trkpt lat="47.51756" lon="6.73656">
        <ele>448</ele>
        <time>2017-02-26T09:58:15.999Z</time>
      </trkpt>
      <trkpt lat="47.51757" lon="6.73651">
        <ele>448</ele>
        <time>2017-02-26T09:58:16.999Z</time>
      </trkpt>
      <trkpt lat="47.51759" lon="6.73645">
        <ele>447.9</ele>
        <time>2017-02-26T09:58:18.999Z</time>
      </trkpt>
      <trkpt lat="47.51759" lon="6.73642">
        <ele>447.9</ele>
        <time>2017-02-26T09:58:19.999Z</time>
      </trkpt>
      <trkpt lat="47.51759" lon="6.73636">
        <ele>447.8</ele>
        <time>2017-02-26T09:58:21.999Z</time>
      </trkpt>
      <trkpt lat="47.51758" lon="6.73633">
        <ele>447.7</ele>
        <time>2017-02-26T09:58:22.999Z</time>
      </trkpt>
      <trkpt lat="47.51759" lon="6.73627">
        <ele>447.4</ele>
        <time>2017-02-26T09:58:25.999Z</time>
      </trkpt>
      <trkpt lat="47.51759" lon="6.73622">
        <ele>447.2</ele>
        <time>2017-02-26T09:58:26.999Z</time>
      </trkpt>
      <trkpt lat="47.51758" lon="6.73618">
        <ele>447</ele>
        <time>2017-02-26T09:58:27.999Z</time>
      </trkpt>
      <trkpt lat="47.51757" lon="6.73615">
        <ele>446.9</ele>
        <time>2017-02-26T09:58:28.999Z</time>
      </trkpt>
      <trkpt lat="47.51756" lon="6.73613">
        <ele>446.8</ele>
        <time>2017-02-26T09:58:29.999Z</time>
      </trkpt>
      <trkpt lat="47.51754" lon="6.73611">
        <ele>446.7</ele>
        <time>2017-02-26T09:58:30.999Z</time>
      </trkpt>
      <trkpt lat="47.51751" lon="6.7361">
        <ele>446.7</ele>
        <time>2017-02-26T09:58:31.999Z</time>
      </trkpt>
      <trkpt lat="47.51748" lon="6.73609">
        <ele>446.7</ele>
        <time>2017-02-26T09:58:32.999Z</time>
      </trkpt>
      <trkpt lat="47.51745" lon="6.73608">
        <ele>446.7</ele>
        <time>2017-02-26T09:58:33.999Z</time>
      </trkpt>
      <trkpt lat="47.51742" lon="6.73607">
        <ele>446.6</ele>
        <time>2017-02-26T09:58:34.999Z</time>
      </trkpt>
      <trkpt lat="47.51739" lon="6.73607">
        <ele>446.6</ele>
        <time>2017-02-26T09:58:35.999Z</time>
      </trkpt>
      <trkpt lat="47.51737" lon="6.73607">
        <ele>446.6</ele>
        <time>2017-02-26T09:58:36.999Z</time>
      </trkpt>
      <trkpt lat="47.51735" lon="6.73606">
        <ele>446.6</ele>
        <time>2017-02-26T09:58:37.999Z</time>
      </trkpt>
      <trkpt lat="47.51732" lon="6.73605">
        <ele>446.6</ele>
        <time>2017-02-26T09:58:38.999Z</time>
      </trkpt>
      <trkpt lat="47.51729" lon="6.73607">
        <ele>446.5</ele>
        <time>2017-02-26T09:58:40.999Z</time>
      </trkpt>
      <trkpt lat="47.51726" lon="6.73608">
        <ele>446.5</ele>
        <time>2017-02-26T09:58:41.999Z</time>
      </trkpt>
      <trkpt lat="47.51722" lon="6.73607">
        <ele>446.6</ele>
        <time>2017-02-26T09:58:42.999Z</time>
      </trkpt>
      <trkpt lat="47.51719" lon="6.73607">
        <ele>446.7</ele>
        <time>2017-02-26T09:58:43.999Z</time>
      </trkpt>
      <trkpt lat="47.51717" lon="6.73606">
        <ele>446.8</ele>
        <time>2017-02-26T09:58:44.999Z</time>
      </trkpt>
      <trkpt lat="47.51714" lon="6.73606">
        <ele>446.9</ele>
        <time>2017-02-26T09:58:45.999Z</time>
      </trkpt>
      <trkpt lat="47.51712" lon="6.73605">
        <ele>446.9</ele>
        <time>2017-02-26T09:58:46.999Z</time>
      </trkpt>
      <trkpt lat="47.5171" lon="6.73603">
        <ele>447.1</ele>
        <time>2017-02-26T09:58:47.999Z</time>
      </trkpt>
      <trkpt lat="47.51707" lon="6.73601">
        <ele>447.4</ele>
        <time>2017-02-26T09:58:49.999Z</time>
      </trkpt>
      <trkpt lat="47.51704" lon="6.736">
        <ele>447.6</ele>
        <time>2017-02-26T09:58:50.999Z</time>
      </trkpt>
      <trkpt lat="47.51701" lon="6.73596">
        <ele>448</ele>
        <time>2017-02-26T09:58:52.999Z</time>
      </trkpt>
      <trkpt lat="47.517" lon="6.73595">
        <ele>448.2</ele>
        <time>2017-02-26T09:58:53.999Z</time>
      </trkpt>
      <trkpt lat="47.51697" lon="6.73591">
        <ele>448.5</ele>
        <time>2017-02-26T09:58:56.999Z</time>
      </trkpt>
      <trkpt lat="47.51696" lon="6.7359">
        <ele>448.5</ele>
        <time>2017-02-26T09:58:57.999Z</time>
      </trkpt>
      <trkpt lat="47.51693" lon="6.73585">
        <ele>448.7</ele>
        <time>2017-02-26T09:58:59.999Z</time>
      </trkpt>
      <trkpt lat="47.51691" lon="6.73584">
        <ele>448.9</ele>
        <time>2017-02-26T09:59:00.999Z</time>
      </trkpt>
      <trkpt lat="47.51689" lon="6.73581">
        <ele>449.4</ele>
        <time>2017-02-26T09:59:02.999Z</time>
      </trkpt>
      <trkpt lat="47.51685" lon="6.73579">
        <ele>449.6</ele>
        <time>2017-02-26T09:59:03.999Z</time>
      </trkpt>
      <trkpt lat="47.51682" lon="6.73577">
        <ele>450.4</ele>
        <time>2017-02-26T09:59:06.999Z</time>
      </trkpt>
      <trkpt lat="47.51681" lon="6.73576">
        <ele>450.6</ele>
        <time>2017-02-26T09:59:07.999Z</time>
      </trkpt>
      <trkpt lat="47.51678" lon="6.73574">
        <ele>451</ele>
        <time>2017-02-26T09:59:10.999Z</time>
      </trkpt>
      <trkpt lat="47.51677" lon="6.73573">
        <ele>451.1</ele>
        <time>2017-02-26T09:59:11.999Z</time>
      </trkpt>
      <trkpt lat="47.51674" lon="6.73573">
        <ele>451.3</ele>
        <time>2017-02-26T09:59:13.999Z</time>
      </trkpt>
      <trkpt lat="47.51672" lon="6.73572">
        <ele>451.4</ele>
        <time>2017-02-26T09:59:14.999Z</time>
      </trkpt>
      <trkpt lat="47.5167" lon="6.7357">
        <ele>451.5</ele>
        <time>2017-02-26T09:59:15.999Z</time>
      </trkpt>
      <trkpt lat="47.51667" lon="6.7357">
        <ele>451.5</ele>
        <time>2017-02-26T09:59:16.999Z</time>
      </trkpt>
      <trkpt lat="47.51663" lon="6.73567">
        <ele>451.8</ele>
        <time>2017-02-26T09:59:19.999Z</time>
      </trkpt>
      <trkpt lat="47.51663" lon="6.73567">
        <ele>451.7</ele>
        <time>2017-02-26T09:59:20.999Z</time>
      </trkpt>
      <trkpt lat="47.5166" lon="6.73566">
        <ele>451.6</ele>
        <time>2017-02-26T09:59:23.999Z</time>
      </trkpt>
      <trkpt lat="47.51658" lon="6.73566">
        <ele>451.6</ele>
        <time>2017-02-26T09:59:24.999Z</time>
      </trkpt>
      <trkpt lat="47.51654" lon="6.73566">
        <ele>451.7</ele>
        <time>2017-02-26T09:59:26.999Z</time>
      </trkpt>
      <trkpt lat="47.51652" lon="6.73566">
        <ele>451.7</ele>
        <time>2017-02-26T09:59:27.999Z</time>
      </trkpt>
      <trkpt lat="47.51648" lon="6.73566">
        <ele>451.7</ele>
        <time>2017-02-26T09:59:29.999Z</time>
      </trkpt>
      <trkpt lat="47.51647" lon="6.73565">
        <ele>451.7</ele>
        <time>2017-02-26T09:59:30.999Z</time>
      </trkpt>
      <trkpt lat="47.51642" lon="6.73564">
        <ele>451.9</ele>
        <time>2017-02-26T09:59:32.999Z</time>
      </trkpt>
      <trkpt lat="47.5164" lon="6.73564">
        <ele>452</ele>
        <time>2017-02-26T09:59:33.999Z</time>
      </trkpt>
      <trkpt lat="47.51636" lon="6.73565">
        <ele>452.3</ele>
        <time>2017-02-26T09:59:36.999Z</time>
      </trkpt>
      <trkpt lat="47.51635" lon="6.73565">
        <ele>452.3</ele>
        <time>2017-02-26T09:59:37.999Z</time>
      </trkpt>
      <trkpt lat="47.51631" lon="6.73566">
        <ele>452.4</ele>
        <time>2017-02-26T09:59:40.999Z</time>
      </trkpt>
      <trkpt lat="47.5163" lon="6.73566">
        <ele>452.5</ele>
        <time>2017-02-26T09:59:41.999Z</time>
      </trkpt>
      <trkpt lat="47.51627" lon="6.73565">
        <ele>452.6</ele>
        <time>2017-02-26T09:59:43.999Z</time>
      </trkpt>
      <trkpt lat="47.51625" lon="6.73564">
        <ele>452.7</ele>
        <time>2017-02-26T09:59:44.999Z</time>
      </trkpt>
      <trkpt lat="47.51622" lon="6.73561">
        <ele>452.7</ele>
        <time>2017-02-26T09:59:46.999Z</time>
      </trkpt>
      <trkpt lat="47.51621" lon="6.7356">
        <ele>452.6</ele>
        <time>2017-02-26T09:59:47.999Z</time>
      </trkpt>
      <trkpt lat="47.51618" lon="6.73557">
        <ele>452.5</ele>
        <time>2017-02-26T09:59:49.999Z</time>
      </trkpt>
      <trkpt lat="47.51616" lon="6.73556">
        <ele>452.5</ele>
        <time>2017-02-26T09:59:50.999Z</time>
      </trkpt>
      <trkpt lat="47.51612" lon="6.73554">
        <ele>452.7</ele>
        <time>2017-02-26T09:59:52.999Z</time>
      </trkpt>
      <trkpt lat="47.51611" lon="6.73553">
        <ele>452.8</ele>
        <time>2017-02-26T09:59:53.999Z</time>
      </trkpt>
      <trkpt lat="47.51607" lon="6.73553">
        <ele>453</ele>
        <time>2017-02-26T09:59:55.999Z</time>
      </trkpt>
      <trkpt lat="47.51605" lon="6.73554">
        <ele>453.2</ele>
        <time>2017-02-26T09:59:56.999Z</time>
      </trkpt>
      <trkpt lat="47.51603" lon="6.73553">
        <ele>453.3</ele>
        <time>2017-02-26T09:59:58.999Z</time>
      </trkpt>
      <trkpt lat="47.516" lon="6.73552">
        <ele>453.5</ele>
        <time>2017-02-26T09:59:59.999Z</time>
      </trkpt>
      <trkpt lat="47.51598" lon="6.7355">
        <ele>453.7</ele>
        <time>2017-02-26T10:00:00.999Z</time>
      </trkpt>
      <trkpt lat="47.51595" lon="6.73549">
        <ele>453.9</ele>
        <time>2017-02-26T10:00:01.999Z</time>
      </trkpt>
      <trkpt lat="47.51591" lon="6.73547">
        <ele>454.3</ele>
        <time>2017-02-26T10:00:03.999Z</time>
      </trkpt>
      <trkpt lat="47.51588" lon="6.73547">
        <ele>454.5</ele>
        <time>2017-02-26T10:00:04.999Z</time>
      </trkpt>
      <trkpt lat="47.51585" lon="6.73547">
        <ele>454.6</ele>
        <time>2017-02-26T10:00:05.999Z</time>
      </trkpt>
      <trkpt lat="47.51583" lon="6.73545">
        <ele>454.7</ele>
        <time>2017-02-26T10:00:06.999Z</time>
      </trkpt>
      <trkpt lat="47.51579" lon="6.73544">
        <ele>454.8</ele>
        <time>2017-02-26T10:00:08.999Z</time>
      </trkpt>
      <trkpt lat="47.51577" lon="6.73543">
        <ele>454.8</ele>
        <time>2017-02-26T10:00:09.999Z</time>
      </trkpt>
      <trkpt lat="47.51575" lon="6.73541">
        <ele>454.9</ele>
        <time>2017-02-26T10:00:11.999Z</time>
      </trkpt>
      <trkpt lat="47.51573" lon="6.7354">
        <ele>455.1</ele>
        <time>2017-02-26T10:00:12.999Z</time>
      </trkpt>
      <trkpt lat="47.51569" lon="6.73539">
        <ele>455.3</ele>
        <time>2017-02-26T10:00:14.999Z</time>
      </trkpt>
      <trkpt lat="47.51568" lon="6.7354">
        <ele>455.5</ele>
        <time>2017-02-26T10:00:15.999Z</time>
      </trkpt>
      <trkpt lat="47.51563" lon="6.7354">
        <ele>455.6</ele>
        <time>2017-02-26T10:00:17.999Z</time>
      </trkpt>
      <trkpt lat="47.5156" lon="6.7354">
        <ele>455.6</ele>
        <time>2017-02-26T10:00:18.999Z</time>
      </trkpt>
      <trkpt lat="47.51556" lon="6.73539">
        <ele>455.6</ele>
        <time>2017-02-26T10:00:19.999Z</time>
      </trkpt>
      <trkpt lat="47.51553" lon="6.73538">
        <ele>455.6</ele>
        <time>2017-02-26T10:00:20.999Z</time>
      </trkpt>
      <trkpt lat="47.5155" lon="6.73537">
        <ele>455.5</ele>
        <time>2017-02-26T10:00:21.999Z</time>
      </trkpt>
      <trkpt lat="47.51546" lon="6.73535">
        <ele>455.5</ele>
        <time>2017-02-26T10:00:22.999Z</time>
      </trkpt>
      <trkpt lat="47.51543" lon="6.73534">
        <ele>455.5</ele>
        <time>2017-02-26T10:00:23.999Z</time>
      </trkpt>
      <trkpt lat="47.51539" lon="6.73533">
        <ele>455.6</ele>
        <time>2017-02-26T10:00:24.999Z</time>
      </trkpt>
      <trkpt lat="47.51537" lon="6.73532">
        <ele>455.6</ele>
        <time>2017-02-26T10:00:25.999Z</time>
      </trkpt>
      <trkpt lat="47.51534" lon="6.73532">
        <ele>455.7</ele>
        <time>2017-02-26T10:00:26.999Z</time>
      </trkpt>
      <trkpt lat="47.51531" lon="6.7353">
        <ele>455.8</ele>
        <time>2017-02-26T10:00:27.999Z</time>
      </trkpt>
      <trkpt lat="47.51528" lon="6.73529">
        <ele>455.8</ele>
        <time>2017-02-26T10:00:28.999Z</time>
      </trkpt>
      <trkpt lat="47.51526" lon="6.73529">
        <ele>455.9</ele>
        <time>2017-02-26T10:00:29.999Z</time>
      </trkpt>
      <trkpt lat="47.51523" lon="6.73528">
        <ele>455.9</ele>
        <time>2017-02-26T10:00:30.999Z</time>
      </trkpt>
      <trkpt lat="47.5152" lon="6.73526">
        <ele>456.1</ele>
        <time>2017-02-26T10:00:31.999Z</time>
      </trkpt>
      <trkpt lat="47.51518" lon="6.73524">
        <ele>456.2</ele>
        <time>2017-02-26T10:00:32.999Z</time>
      </trkpt>
      <trkpt lat="47.51515" lon="6.73523">
        <ele>456.3</ele>
        <time>2017-02-26T10:00:34.999Z</time>
      </trkpt>
      <trkpt lat="47.51514" lon="6.73522">
        <ele>456.3</ele>
        <time>2017-02-26T10:00:35.999Z</time>
      </trkpt>
      <trkpt lat="47.5151" lon="6.73521">
        <ele>456.4</ele>
        <time>2017-02-26T10:00:37.999Z</time>
      </trkpt>
      <trkpt lat="47.51508" lon="6.73521">
        <ele>456.4</ele>
        <time>2017-02-26T10:00:38.999Z</time>
      </trkpt>
      <trkpt lat="47.51505" lon="6.7352">
        <ele>456.4</ele>
        <time>2017-02-26T10:00:40.999Z</time>
      </trkpt>
      <trkpt lat="47.51503" lon="6.7352">
        <ele>456.3</ele>
        <time>2017-02-26T10:00:41.999Z</time>
      </trkpt>
      <trkpt lat="47.515" lon="6.73519">
        <ele>456.2</ele>
        <time>2017-02-26T10:00:42.999Z</time>
      </trkpt>
      <trkpt lat="47.51498" lon="6.73518">
        <ele>456</ele>
        <time>2017-02-26T10:00:43.999Z</time>
      </trkpt>
      <trkpt lat="47.51497" lon="6.73517">
        <ele>456</ele>
        <time>2017-02-26T10:00:44.999Z</time>
      </trkpt>
      <trkpt lat="47.51493" lon="6.73518">
        <ele>456</ele>
        <time>2017-02-26T10:00:45.999Z</time>
      </trkpt>
      <trkpt lat="47.5149" lon="6.7352">
        <ele>456</ele>
        <time>2017-02-26T10:00:46.999Z</time>
      </trkpt>
      <trkpt lat="47.51487" lon="6.73521">
        <ele>456</ele>
        <time>2017-02-26T10:00:47.999Z</time>
      </trkpt>
      <trkpt lat="47.51484" lon="6.73521">
        <ele>456</ele>
        <time>2017-02-26T10:00:48.999Z</time>
      </trkpt>
      <trkpt lat="47.51482" lon="6.73521">
        <ele>456</ele>
        <time>2017-02-26T10:00:49.999Z</time>
      </trkpt>
      <trkpt lat="47.51479" lon="6.73522">
        <ele>455.8</ele>
        <time>2017-02-26T10:00:50.999Z</time>
      </trkpt>
      <trkpt lat="47.51476" lon="6.73522">
        <ele>455.7</ele>
        <time>2017-02-26T10:00:51.999Z</time>
      </trkpt>
      <trkpt lat="47.51473" lon="6.73521">
        <ele>455.7</ele>
        <time>2017-02-26T10:00:52.999Z</time>
      </trkpt>
      <trkpt lat="47.51469" lon="6.73521">
        <ele>455.6</ele>
        <time>2017-02-26T10:00:53.999Z</time>
      </trkpt>
      <trkpt lat="47.51465" lon="6.73519">
        <ele>455.6</ele>
        <time>2017-02-26T10:00:54.999Z</time>
      </trkpt>
      <trkpt lat="47.51462" lon="6.73518">
        <ele>455.6</ele>
        <time>2017-02-26T10:00:55.999Z</time>
      </trkpt>
      <trkpt lat="47.51458" lon="6.73516">
        <ele>455.5</ele>
        <time>2017-02-26T10:00:56.999Z</time>
      </trkpt>
      <trkpt lat="47.51455" lon="6.73513">
        <ele>455.4</ele>
        <time>2017-02-26T10:00:57.999Z</time>
      </trkpt>
      <trkpt lat="47.51452" lon="6.73511">
        <ele>455.4</ele>
        <time>2017-02-26T10:00:58.999Z</time>
      </trkpt>
      <trkpt lat="47.5145" lon="6.73509">
        <ele>455.4</ele>
        <time>2017-02-26T10:00:59.999Z</time>
      </trkpt>
      <trkpt lat="47.51447" lon="6.73508">
        <ele>455.4</ele>
        <time>2017-02-26T10:01:00.999Z</time>
      </trkpt>
      <trkpt lat="47.51445" lon="6.73506">
        <ele>455.4</ele>
        <time>2017-02-26T10:01:01.999Z</time>
      </trkpt>
      <trkpt lat="47.51441" lon="6.73504">
        <ele>455.6</ele>
        <time>2017-02-26T10:01:03.999Z</time>
      </trkpt>
      <trkpt lat="47.51439" lon="6.73504">
        <ele>455.6</ele>
        <time>2017-02-26T10:01:04.999Z</time>
      </trkpt>
      <trkpt lat="47.51435" lon="6.73503">
        <ele>455.7</ele>
        <time>2017-02-26T10:01:05.999Z</time>
      </trkpt>
      <trkpt lat="47.51432" lon="6.73502">
        <ele>455.7</ele>
        <time>2017-02-26T10:01:06.999Z</time>
      </trkpt>
      <trkpt lat="47.51428" lon="6.73499">
        <ele>455.7</ele>
        <time>2017-02-26T10:01:07.999Z</time>
      </trkpt>
      <trkpt lat="47.51427" lon="6.73495">
        <ele>455.7</ele>
        <time>2017-02-26T10:01:08.999Z</time>
      </trkpt>
      <trkpt lat="47.51426" lon="6.73489">
        <ele>455.5</ele>
        <time>2017-02-26T10:01:10.999Z</time>
      </trkpt>
      <trkpt lat="47.51427" lon="6.73487">
        <ele>455.5</ele>
        <time>2017-02-26T10:01:11.999Z</time>
      </trkpt>
      <trkpt lat="47.51428" lon="6.73484">
        <ele>455.4</ele>
        <time>2017-02-26T10:01:12.999Z</time>
      </trkpt>
      <trkpt lat="47.5143" lon="6.73481">
        <ele>455.4</ele>
        <time>2017-02-26T10:01:13.999Z</time>
      </trkpt>
      <trkpt lat="47.51431" lon="6.73478">
        <ele>455.3</ele>
        <time>2017-02-26T10:01:14.999Z</time>
      </trkpt>
      <trkpt lat="47.51431" lon="6.73473">
        <ele>455.3</ele>
        <time>2017-02-26T10:01:15.999Z</time>
      </trkpt>
      <trkpt lat="47.51431" lon="6.73469">
        <ele>455.3</ele>
        <time>2017-02-26T10:01:16.999Z</time>
      </trkpt>
      <trkpt lat="47.51432" lon="6.73466">
        <ele>455.3</ele>
        <time>2017-02-26T10:01:17.999Z</time>
      </trkpt>
      <trkpt lat="47.51434" lon="6.73459">
        <ele>455.4</ele>
        <time>2017-02-26T10:01:19.999Z</time>
      </trkpt>
      <trkpt lat="47.51435" lon="6.73456">
        <ele>455.4</ele>
        <time>2017-02-26T10:01:20.999Z</time>
      </trkpt>
      <trkpt lat="47.51436" lon="6.7345">
        <ele>455.6</ele>
        <time>2017-02-26T10:01:22.999Z</time>
      </trkpt>
      <trkpt lat="47.51436" lon="6.73447">
        <ele>455.7</ele>
        <time>2017-02-26T10:01:23.999Z</time>
      </trkpt>
      <trkpt lat="47.51437" lon="6.73442">
        <ele>455.8</ele>
        <time>2017-02-26T10:01:25.999Z</time>
      </trkpt>
      <trkpt lat="47.51438" lon="6.73438">
        <ele>455.8</ele>
        <time>2017-02-26T10:01:26.999Z</time>
      </trkpt>
      <trkpt lat="47.5144" lon="6.73433">
        <ele>455.7</ele>
        <time>2017-02-26T10:01:28.999Z</time>
      </trkpt>
      <trkpt lat="47.51441" lon="6.7343">
        <ele>455.7</ele>
        <time>2017-02-26T10:01:29.999Z</time>
      </trkpt>
      <trkpt lat="47.51442" lon="6.73427">
        <ele>455.7</ele>
        <time>2017-02-26T10:01:30.999Z</time>
      </trkpt>
      <trkpt lat="47.51443" lon="6.73423">
        <ele>455.8</ele>
        <time>2017-02-26T10:01:31.999Z</time>
      </trkpt>
      <trkpt lat="47.51442" lon="6.73418">
        <ele>455.9</ele>
        <time>2017-02-26T10:01:33.999Z</time>
      </trkpt>
      <trkpt lat="47.51441" lon="6.73415">
        <ele>455.9</ele>
        <time>2017-02-26T10:01:34.999Z</time>
      </trkpt>
      <trkpt lat="47.51441" lon="6.73409">
        <ele>455.9</ele>
        <time>2017-02-26T10:01:36.999Z</time>
      </trkpt>
      <trkpt lat="47.51441" lon="6.73408">
        <ele>455.9</ele>
        <time>2017-02-26T10:01:37.999Z</time>
      </trkpt>
      <trkpt lat="47.51442" lon="6.73402">
        <ele>455.8</ele>
        <time>2017-02-26T10:01:40.999Z</time>
      </trkpt>
      <trkpt lat="47.51443" lon="6.73402">
        <ele>455.8</ele>
        <time>2017-02-26T10:01:41.999Z</time>
      </trkpt>
      <trkpt lat="47.51445" lon="6.73398">
        <ele>455.8</ele>
        <time>2017-02-26T10:01:43.999Z</time>
      </trkpt>
      <trkpt lat="47.51446" lon="6.73394">
        <ele>455.7</ele>
        <time>2017-02-26T10:01:44.999Z</time>
      </trkpt>
      <trkpt lat="47.51448" lon="6.7339">
        <ele>455.5</ele>
        <time>2017-02-26T10:01:45.999Z</time>
      </trkpt>
      <trkpt lat="47.51449" lon="6.73386">
        <ele>455.4</ele>
        <time>2017-02-26T10:01:46.999Z</time>
      </trkpt>
      <trkpt lat="47.51451" lon="6.73381">
        <ele>455.4</ele>
        <time>2017-02-26T10:01:48.999Z</time>
      </trkpt>
      <trkpt lat="47.51452" lon="6.73378">
        <ele>455.3</ele>
        <time>2017-02-26T10:01:49.999Z</time>
      </trkpt>
      <trkpt lat="47.51453" lon="6.73372">
        <ele>455.1</ele>
        <time>2017-02-26T10:01:51.999Z</time>
      </trkpt>
      <trkpt lat="47.51453" lon="6.73369">
        <ele>455</ele>
        <time>2017-02-26T10:01:52.999Z</time>
      </trkpt>
      <trkpt lat="47.51453" lon="6.73366">
        <ele>454.9</ele>
        <time>2017-02-26T10:01:53.999Z</time>
      </trkpt>
      <trkpt lat="47.51454" lon="6.7336">
        <ele>454.8</ele>
        <time>2017-02-26T10:01:54.999Z</time>
      </trkpt>
      <trkpt lat="47.51455" lon="6.73357">
        <ele>454.7</ele>
        <time>2017-02-26T10:01:55.999Z</time>
      </trkpt>
      <trkpt lat="47.51456" lon="6.73352">
        <ele>454.5</ele>
        <time>2017-02-26T10:01:56.999Z</time>
      </trkpt>
      <trkpt lat="47.51456" lon="6.73349">
        <ele>454.5</ele>
        <time>2017-02-26T10:01:57.999Z</time>
      </trkpt>
      <trkpt lat="47.51457" lon="6.73346">
        <ele>454.4</ele>
        <time>2017-02-26T10:01:58.999Z</time>
      </trkpt>
      <trkpt lat="47.51458" lon="6.73341">
        <ele>454</ele>
        <time>2017-02-26T10:02:00.999Z</time>
      </trkpt>
      <trkpt lat="47.51458" lon="6.73339">
        <ele>453.8</ele>
        <time>2017-02-26T10:02:01.999Z</time>
      </trkpt>
      <trkpt lat="47.51459" lon="6.73336">
        <ele>453.6</ele>
        <time>2017-02-26T10:02:04.999Z</time>
      </trkpt>
      <trkpt lat="47.51461" lon="6.73333">
        <ele>453.5</ele>
        <time>2017-02-26T10:02:05.999Z</time>
      </trkpt>
      <trkpt lat="47.51463" lon="6.73328">
        <ele>453.3</ele>
        <time>2017-02-26T10:02:06.999Z</time>
      </trkpt>
      <trkpt lat="47.51464" lon="6.73323">
        <ele>453.2</ele>
        <time>2017-02-26T10:02:07.999Z</time>
      </trkpt>
      <trkpt lat="47.51465" lon="6.7332">
        <ele>453</ele>
        <time>2017-02-26T10:02:08.999Z</time>
      </trkpt>
      <trkpt lat="47.51466" lon="6.73317">
        <ele>452.8</ele>
        <time>2017-02-26T10:02:09.999Z</time>
      </trkpt>
      <trkpt lat="47.51467" lon="6.73312">
        <ele>452.6</ele>
        <time>2017-02-26T10:02:10.999Z</time>
      </trkpt>
      <trkpt lat="47.51467" lon="6.73309">
        <ele>452.3</ele>
        <time>2017-02-26T10:02:11.999Z</time>
      </trkpt>
      <trkpt lat="47.51468" lon="6.73302">
        <ele>451.8</ele>
        <time>2017-02-26T10:02:13.999Z</time>
      </trkpt>
      <trkpt lat="47.51468" lon="6.73299">
        <ele>451.4</ele>
        <time>2017-02-26T10:02:14.999Z</time>
      </trkpt>
      <trkpt lat="47.5147" lon="6.73293">
        <ele>450.4</ele>
        <time>2017-02-26T10:02:16.999Z</time>
      </trkpt>
      <trkpt lat="47.5147" lon="6.73291">
        <ele>449.9</ele>
        <time>2017-02-26T10:02:17.999Z</time>
      </trkpt>
      <trkpt lat="47.51471" lon="6.73285">
        <ele>449</ele>
        <time>2017-02-26T10:02:19.999Z</time>
      </trkpt>
      <trkpt lat="47.51472" lon="6.73282">
        <ele>448.6</ele>
        <time>2017-02-26T10:02:20.999Z</time>
      </trkpt>
      <trkpt lat="47.51473" lon="6.73277">
        <ele>448.2</ele>
        <time>2017-02-26T10:02:21.999Z</time>
      </trkpt>
      <trkpt lat="47.51474" lon="6.73273">
        <ele>447.6</ele>
        <time>2017-02-26T10:02:22.999Z</time>
      </trkpt>
      <trkpt lat="47.51474" lon="6.73267">
        <ele>447.2</ele>
        <time>2017-02-26T10:02:23.999Z</time>
      </trkpt>
      <trkpt lat="47.51475" lon="6.7326">
        <ele>446.6</ele>
        <time>2017-02-26T10:02:24.999Z</time>
      </trkpt>
      <trkpt lat="47.51477" lon="6.73254">
        <ele>446</ele>
        <time>2017-02-26T10:02:25.999Z</time>
      </trkpt>
      <trkpt lat="47.51477" lon="6.7325">
        <ele>445.4</ele>
        <time>2017-02-26T10:02:26.999Z</time>
      </trkpt>
      <trkpt lat="47.51478" lon="6.73246">
        <ele>444.9</ele>
        <time>2017-02-26T10:02:27.999Z</time>
      </trkpt>
      <trkpt lat="47.51478" lon="6.73243">
        <ele>444.2</ele>
        <time>2017-02-26T10:02:28.999Z</time>
      </trkpt>
      <trkpt lat="47.51478" lon="6.73237">
        <ele>443.7</ele>
        <time>2017-02-26T10:02:29.999Z</time>
      </trkpt>
      <trkpt lat="47.51479" lon="6.73232">
        <ele>443.1</ele>
        <time>2017-02-26T10:02:30.999Z</time>
      </trkpt>
      <trkpt lat="47.51481" lon="6.73227">
        <ele>442.7</ele>
        <time>2017-02-26T10:02:31.999Z</time>
      </trkpt>
      <trkpt lat="47.51481" lon="6.73222">
        <ele>442.4</ele>
        <time>2017-02-26T10:02:32.999Z</time>
      </trkpt>
      <trkpt lat="47.51481" lon="6.73219">
        <ele>442.1</ele>
        <time>2017-02-26T10:02:33.999Z</time>
      </trkpt>
      <trkpt lat="47.51483" lon="6.73214">
        <ele>441.8</ele>
        <time>2017-02-26T10:02:34.999Z</time>
      </trkpt>
      <trkpt lat="47.51483" lon="6.73207">
        <ele>441.5</ele>
        <time>2017-02-26T10:02:35.999Z</time>
      </trkpt>
      <trkpt lat="47.51484" lon="6.73201">
        <ele>441.1</ele>
        <time>2017-02-26T10:02:36.999Z</time>
      </trkpt>
      <trkpt lat="47.51484" lon="6.73196">
        <ele>440.7</ele>
        <time>2017-02-26T10:02:37.999Z</time>
      </trkpt>
      <trkpt lat="47.51483" lon="6.73192">
        <ele>440.3</ele>
        <time>2017-02-26T10:02:38.999Z</time>
      </trkpt>
      <trkpt lat="47.51485" lon="6.73185">
        <ele>440</ele>
        <time>2017-02-26T10:02:39.999Z</time>
      </trkpt>
      <trkpt lat="47.51487" lon="6.73179">
        <ele>439.6</ele>
        <time>2017-02-26T10:02:40.999Z</time>
      </trkpt>
      <trkpt lat="47.51487" lon="6.73174">
        <ele>439.4</ele>
        <time>2017-02-26T10:02:41.999Z</time>
      </trkpt>
      <trkpt lat="47.51487" lon="6.73167">
        <ele>438.8</ele>
        <time>2017-02-26T10:02:43.999Z</time>
      </trkpt>
      <trkpt lat="47.51487" lon="6.73165">
        <ele>438.5</ele>
        <time>2017-02-26T10:02:44.999Z</time>
      </trkpt>
      <trkpt lat="47.51486" lon="6.7316">
        <ele>437.2</ele>
        <time>2017-02-26T10:02:47.999Z</time>
      </trkpt>
      <trkpt lat="47.51485" lon="6.73155">
        <ele>437</ele>
        <time>2017-02-26T10:02:48.999Z</time>
      </trkpt>
      <trkpt lat="47.51483" lon="6.73149">
        <ele>437</ele>
        <time>2017-02-26T10:02:49.999Z</time>
      </trkpt>
      <trkpt lat="47.51483" lon="6.73146">
        <ele>437.4</ele>
        <time>2017-02-26T10:02:52.999Z</time>
      </trkpt>
      <trkpt lat="47.51483" lon="6.73141">
        <ele>437.8</ele>
        <time>2017-02-26T10:02:53.999Z</time>
      </trkpt>
      <trkpt lat="47.51485" lon="6.73136">
        <ele>438.9</ele>
        <time>2017-02-26T10:02:57.999Z</time>
      </trkpt>
      <trkpt lat="47.51485" lon="6.73132">
        <ele>439.2</ele>
        <time>2017-02-26T10:02:58.999Z</time>
      </trkpt>
      <trkpt lat="47.51487" lon="6.73127">
        <ele>440.9</ele>
        <time>2017-02-26T10:03:04.999Z</time>
      </trkpt>
      <trkpt lat="47.51487" lon="6.73122">
        <ele>441.3</ele>
        <time>2017-02-26T10:03:05.999Z</time>
      </trkpt>
      <trkpt lat="47.51486" lon="6.73117">
        <ele>442.4</ele>
        <time>2017-02-26T10:03:08.999Z</time>
      </trkpt>
      <trkpt lat="47.51486" lon="6.73114">
        <ele>442.8</ele>
        <time>2017-02-26T10:03:09.999Z</time>
      </trkpt>
      <trkpt lat="47.51485" lon="6.7311">
        <ele>443</ele>
        <time>2017-02-26T10:03:10.999Z</time>
      </trkpt>
      <trkpt lat="47.51481" lon="6.7309">
        <ele>443.3</ele>
        <time>2017-02-26T10:03:11.999Z</time>
      </trkpt>
      <trkpt lat="47.51478" lon="6.73084">
        <ele>443.6</ele>
        <time>2017-02-26T10:03:12.999Z</time>
      </trkpt>
      <trkpt lat="47.51474" lon="6.73077">
        <ele>443.9</ele>
        <time>2017-02-26T10:03:13.999Z</time>
      </trkpt>
      <trkpt lat="47.5147" lon="6.73071">
        <ele>444.1</ele>
        <time>2017-02-26T10:03:14.999Z</time>
      </trkpt>
      <trkpt lat="47.51467" lon="6.73066">
        <ele>444.6</ele>
        <time>2017-02-26T10:03:16.999Z</time>
      </trkpt>
      <trkpt lat="47.51466" lon="6.73065">
        <ele>444.8</ele>
        <time>2017-02-26T10:03:17.999Z</time>
      </trkpt>
      <trkpt lat="47.51462" lon="6.73062">
        <ele>445.2</ele>
        <time>2017-02-26T10:03:20.999Z</time>
      </trkpt>
      <trkpt lat="47.51461" lon="6.7306">
        <ele>445.2</ele>
        <time>2017-02-26T10:03:21.999Z</time>
      </trkpt>
      <trkpt lat="47.51457" lon="6.73058">
        <ele>445.1</ele>
        <time>2017-02-26T10:03:22.999Z</time>
      </trkpt>
      <trkpt lat="47.51455" lon="6.73056">
        <ele>444.9</ele>
        <time>2017-02-26T10:03:23.999Z</time>
      </trkpt>
      <trkpt lat="47.51455" lon="6.73053">
        <ele>444.8</ele>
        <time>2017-02-26T10:03:24.999Z</time>
      </trkpt>
      <trkpt lat="47.51455" lon="6.73048">
        <ele>444.7</ele>
        <time>2017-02-26T10:03:25.999Z</time>
      </trkpt>
      <trkpt lat="47.51455" lon="6.73043">
        <ele>444.7</ele>
        <time>2017-02-26T10:03:27.999Z</time>
      </trkpt>
      <trkpt lat="47.51457" lon="6.73037">
        <ele>444.8</ele>
        <time>2017-02-26T10:03:28.999Z</time>
      </trkpt>
      <trkpt lat="47.5146" lon="6.73033">
        <ele>445.4</ele>
        <time>2017-02-26T10:03:32.999Z</time>
      </trkpt>
      <trkpt lat="47.5146" lon="6.73031">
        <ele>445.5</ele>
        <time>2017-02-26T10:03:33.999Z</time>
      </trkpt>
      <trkpt lat="47.51461" lon="6.73026">
        <ele>445.6</ele>
        <time>2017-02-26T10:03:37.999Z</time>
      </trkpt>
      <trkpt lat="47.51461" lon="6.73023">
        <ele>445.8</ele>
        <time>2017-02-26T10:03:38.999Z</time>
      </trkpt>
      <trkpt lat="47.51462" lon="6.73017">
        <ele>446.3</ele>
        <time>2017-02-26T10:03:40.999Z</time>
      </trkpt>
      <trkpt lat="47.51462" lon="6.73014">
        <ele>446.5</ele>
        <time>2017-02-26T10:03:41.999Z</time>
      </trkpt>
      <trkpt lat="47.51463" lon="6.73008">
        <ele>448.1</ele>
        <time>2017-02-26T10:03:48.999Z</time>
      </trkpt>
      <trkpt lat="47.51465" lon="6.73001">
        <ele>448.3</ele>
        <time>2017-02-26T10:03:49.999Z</time>
      </trkpt>
      <trkpt lat="47.51465" lon="6.72994">
        <ele>451.3</ele>
        <time>2017-02-26T10:03:58.999Z</time>
      </trkpt>
      <trkpt lat="47.51465" lon="6.72993">
        <ele>451.6</ele>
        <time>2017-02-26T10:03:59.999Z</time>
      </trkpt>
      <trkpt lat="47.51466" lon="6.72988">
        <ele>452</ele>
        <time>2017-02-26T10:04:02.999Z</time>
      </trkpt>
      <trkpt lat="47.51466" lon="6.72986">
        <ele>452.2</ele>
        <time>2017-02-26T10:04:03.999Z</time>
      </trkpt>
      <trkpt lat="47.51465" lon="6.7298">
        <ele>452.8</ele>
        <time>2017-02-26T10:04:07.999Z</time>
      </trkpt>
      <trkpt lat="47.51465" lon="6.72979">
        <ele>452.9</ele>
        <time>2017-02-26T10:04:08.999Z</time>
      </trkpt>
      <trkpt lat="47.51464" lon="6.72973">
        <ele>453.4</ele>
        <time>2017-02-26T10:04:10.999Z</time>
      </trkpt>
      <trkpt lat="47.51463" lon="6.7297">
        <ele>453.8</ele>
        <time>2017-02-26T10:04:11.999Z</time>
      </trkpt>
      <trkpt lat="47.51462" lon="6.72967">
        <ele>454.1</ele>
        <time>2017-02-26T10:04:12.999Z</time>
      </trkpt>
      <trkpt lat="47.51461" lon="6.72964">
        <ele>454.5</ele>
        <time>2017-02-26T10:04:13.999Z</time>
      </trkpt>
      <trkpt lat="47.51458" lon="6.7296">
        <ele>456</ele>
        <time>2017-02-26T10:04:19.999Z</time>
      </trkpt>
      <trkpt lat="47.51456" lon="6.72959">
        <ele>456.2</ele>
        <time>2017-02-26T10:04:20.999Z</time>
      </trkpt>
      <trkpt lat="47.51452" lon="6.72956">
        <ele>457.5</ele>
        <time>2017-02-26T10:04:26.999Z</time>
      </trkpt>
      <trkpt lat="47.5145" lon="6.72953">
        <ele>457.7</ele>
        <time>2017-02-26T10:04:27.999Z</time>
      </trkpt>
      <trkpt lat="47.51448" lon="6.72949">
        <ele>457.9</ele>
        <time>2017-02-26T10:04:28.999Z</time>
      </trkpt>
      <trkpt lat="47.51447" lon="6.72945">
        <ele>458</ele>
        <time>2017-02-26T10:04:29.999Z</time>
      </trkpt>
      <trkpt lat="47.51445" lon="6.72941">
        <ele>458</ele>
        <time>2017-02-26T10:04:30.999Z</time>
      </trkpt>
      <trkpt lat="47.51444" lon="6.72936">
        <ele>458.3</ele>
        <time>2017-02-26T10:04:31.999Z</time>
      </trkpt>
      <trkpt lat="47.51443" lon="6.72932">
        <ele>458.6</ele>
        <time>2017-02-26T10:04:32.999Z</time>
      </trkpt>
      <trkpt lat="47.51441" lon="6.72927">
        <ele>458.9</ele>
        <time>2017-02-26T10:04:33.999Z</time>
      </trkpt>
      <trkpt lat="47.5144" lon="6.72923">
        <ele>459.3</ele>
        <time>2017-02-26T10:04:34.999Z</time>
      </trkpt>
      <trkpt lat="47.51439" lon="6.7292">
        <ele>459.7</ele>
        <time>2017-02-26T10:04:35.999Z</time>
      </trkpt>
      <trkpt lat="47.51437" lon="6.72914">
        <ele>460.5</ele>
        <time>2017-02-26T10:04:37.999Z</time>
      </trkpt>
      <trkpt lat="47.51435" lon="6.72908">
        <ele>461</ele>
        <time>2017-02-26T10:04:38.999Z</time>
      </trkpt>
      <trkpt lat="47.51434" lon="6.72905">
        <ele>461.5</ele>
        <time>2017-02-26T10:04:39.999Z</time>
      </trkpt>
      <trkpt lat="47.51432" lon="6.72901">
        <ele>461.8</ele>
        <time>2017-02-26T10:04:40.999Z</time>
      </trkpt>
      <trkpt lat="47.51431" lon="6.72895">
        <ele>462.8</ele>
        <time>2017-02-26T10:04:44.999Z</time>
      </trkpt>
      <trkpt lat="47.51431" lon="6.72894">
        <ele>462.9</ele>
        <time>2017-02-26T10:04:45.999Z</time>
      </trkpt>
      <trkpt lat="47.51428" lon="6.72889">
        <ele>463.4</ele>
        <time>2017-02-26T10:04:48.999Z</time>
      </trkpt>
      <trkpt lat="47.51427" lon="6.72888">
        <ele>463.4</ele>
        <time>2017-02-26T10:04:49.999Z</time>
      </trkpt>
      <trkpt lat="47.51426" lon="6.72882">
        <ele>463.4</ele>
        <time>2017-02-26T10:04:52.999Z</time>
      </trkpt>
      <trkpt lat="47.51426" lon="6.72879">
        <ele>463.4</ele>
        <time>2017-02-26T10:04:53.999Z</time>
      </trkpt>
      <trkpt lat="47.51425" lon="6.72874">
        <ele>463.6</ele>
        <time>2017-02-26T10:04:56.999Z</time>
      </trkpt>
      <trkpt lat="47.51425" lon="6.72873">
        <ele>463.7</ele>
        <time>2017-02-26T10:04:57.999Z</time>
      </trkpt>
      <trkpt lat="47.51424" lon="6.72866">
        <ele>463.8</ele>
        <time>2017-02-26T10:05:00.999Z</time>
      </trkpt>
      <trkpt lat="47.51423" lon="6.72865">
        <ele>463.8</ele>
        <time>2017-02-26T10:05:01.999Z</time>
      </trkpt>
      <trkpt lat="47.5142" lon="6.72861">
        <ele>463.4</ele>
        <time>2017-02-26T10:05:04.999Z</time>
      </trkpt>
      <trkpt lat="47.51419" lon="6.72859">
        <ele>463.3</ele>
        <time>2017-02-26T10:05:05.999Z</time>
      </trkpt>
      <trkpt lat="47.51418" lon="6.72854">
        <ele>462.9</ele>
        <time>2017-02-26T10:05:07.999Z</time>
      </trkpt>
      <trkpt lat="47.51417" lon="6.72852">
        <ele>462.8</ele>
        <time>2017-02-26T10:05:08.999Z</time>
      </trkpt>
      <trkpt lat="47.51414" lon="6.72847">
        <ele>462.6</ele>
        <time>2017-02-26T10:05:10.999Z</time>
      </trkpt>
      <trkpt lat="47.51415" lon="6.7284">
        <ele>462.6</ele>
        <time>2017-02-26T10:05:11.999Z</time>
      </trkpt>
      <trkpt lat="47.51415" lon="6.72836">
        <ele>462.5</ele>
        <time>2017-02-26T10:05:12.999Z</time>
      </trkpt>
      <trkpt lat="47.51414" lon="6.72833">
        <ele>462.5</ele>
        <time>2017-02-26T10:05:13.999Z</time>
      </trkpt>
      <trkpt lat="47.51415" lon="6.7283">
        <ele>463.1</ele>
        <time>2017-02-26T10:05:15.999Z</time>
      </trkpt>
      <trkpt lat="47.51414" lon="6.72823">
        <ele>463.5</ele>
        <time>2017-02-26T10:05:16.999Z</time>
      </trkpt>
      <trkpt lat="47.51414" lon="6.72817">
        <ele>464</ele>
        <time>2017-02-26T10:05:17.999Z</time>
      </trkpt>
      <trkpt lat="47.51413" lon="6.72809">
        <ele>464.5</ele>
        <time>2017-02-26T10:05:18.999Z</time>
      </trkpt>
      <trkpt lat="47.51413" lon="6.72805">
        <ele>464.9</ele>
        <time>2017-02-26T10:05:19.999Z</time>
      </trkpt>
      <trkpt lat="47.51413" lon="6.728">
        <ele>465.3</ele>
        <time>2017-02-26T10:05:20.999Z</time>
      </trkpt>
      <trkpt lat="47.51412" lon="6.72795">
        <ele>465.5</ele>
        <time>2017-02-26T10:05:21.999Z</time>
      </trkpt>
      <trkpt lat="47.51411" lon="6.7279">
        <ele>465.7</ele>
        <time>2017-02-26T10:05:22.999Z</time>
      </trkpt>
      <trkpt lat="47.51411" lon="6.72785">
        <ele>465.9</ele>
        <time>2017-02-26T10:05:23.999Z</time>
      </trkpt>
      <trkpt lat="47.51409" lon="6.7278">
        <ele>466.1</ele>
        <time>2017-02-26T10:05:24.999Z</time>
      </trkpt>
      <trkpt lat="47.51409" lon="6.72773">
        <ele>466.6</ele>
        <time>2017-02-26T10:05:26.999Z</time>
      </trkpt>
      <trkpt lat="47.51409" lon="6.72771">
        <ele>467</ele>
        <time>2017-02-26T10:05:27.999Z</time>
      </trkpt>
      <trkpt lat="47.51409" lon="6.7277">
        <ele>467.4</ele>
        <time>2017-02-26T10:05:29.999Z</time>
      </trkpt>
      <trkpt lat="47.51408" lon="6.72762">
        <ele>467.6</ele>
        <time>2017-02-26T10:05:30.999Z</time>
      </trkpt>
      <trkpt lat="47.51407" lon="6.72756">
        <ele>467.8</ele>
        <time>2017-02-26T10:05:31.999Z</time>
      </trkpt>
      <trkpt lat="47.51406" lon="6.7275">
        <ele>468</ele>
        <time>2017-02-26T10:05:32.999Z</time>
      </trkpt>
      <trkpt lat="47.51404" lon="6.72745">
        <ele>468.2</ele>
        <time>2017-02-26T10:05:33.999Z</time>
      </trkpt>
      <trkpt lat="47.51401" lon="6.7274">
        <ele>468.4</ele>
        <time>2017-02-26T10:05:34.999Z</time>
      </trkpt>
      <trkpt lat="47.51399" lon="6.72736">
        <ele>468.9</ele>
        <time>2017-02-26T10:05:36.999Z</time>
      </trkpt>
      <trkpt lat="47.51398" lon="6.72734">
        <ele>469</ele>
        <time>2017-02-26T10:05:37.999Z</time>
      </trkpt>
      <trkpt lat="47.51397" lon="6.72732">
        <ele>469.1</ele>
        <time>2017-02-26T10:05:38.999Z</time>
      </trkpt>
      <trkpt lat="47.51396" lon="6.72728">
        <ele>469.1</ele>
        <time>2017-02-26T10:05:39.999Z</time>
      </trkpt>
      <trkpt lat="47.51395" lon="6.72723">
        <ele>469.1</ele>
        <time>2017-02-26T10:05:41.999Z</time>
      </trkpt>
      <trkpt lat="47.51395" lon="6.72722">
        <ele>469.2</ele>
        <time>2017-02-26T10:05:42.999Z</time>
      </trkpt>
      <trkpt lat="47.51395" lon="6.72716">
        <ele>469.4</ele>
        <time>2017-02-26T10:05:44.999Z</time>
      </trkpt>
      <trkpt lat="47.51394" lon="6.72714">
        <ele>469.4</ele>
        <time>2017-02-26T10:05:45.999Z</time>
      </trkpt>
      <trkpt lat="47.51395" lon="6.72712">
        <ele>469.4</ele>
        <time>2017-02-26T10:05:46.999Z</time>
      </trkpt>
      <trkpt lat="47.51395" lon="6.72706">
        <ele>469.5</ele>
        <time>2017-02-26T10:05:47.999Z</time>
      </trkpt>
      <trkpt lat="47.51395" lon="6.727">
        <ele>469.8</ele>
        <time>2017-02-26T10:05:49.999Z</time>
      </trkpt>
      <trkpt lat="47.51395" lon="6.72698">
        <ele>469.9</ele>
        <time>2017-02-26T10:05:50.999Z</time>
      </trkpt>
      <trkpt lat="47.51395" lon="6.72693">
        <ele>470.1</ele>
        <time>2017-02-26T10:05:52.999Z</time>
      </trkpt>
      <trkpt lat="47.51395" lon="6.72689">
        <ele>470.2</ele>
        <time>2017-02-26T10:05:53.999Z</time>
      </trkpt>
      <trkpt lat="47.51397" lon="6.72684">
        <ele>470.3</ele>
        <time>2017-02-26T10:05:55.999Z</time>
      </trkpt>
      <trkpt lat="47.51398" lon="6.72681">
        <ele>470.3</ele>
        <time>2017-02-26T10:05:56.999Z</time>
      </trkpt>
      <trkpt lat="47.514" lon="6.72676">
        <ele>470.4</ele>
        <time>2017-02-26T10:05:59.999Z</time>
      </trkpt>
      <trkpt lat="47.514" lon="6.7267">
        <ele>470.6</ele>
        <time>2017-02-26T10:06:00.999Z</time>
      </trkpt>
      <trkpt lat="47.51398" lon="6.72664">
        <ele>471</ele>
        <time>2017-02-26T10:06:02.999Z</time>
      </trkpt>
      <trkpt lat="47.51398" lon="6.72663">
        <ele>471.1</ele>
        <time>2017-02-26T10:06:03.999Z</time>
      </trkpt>
      <trkpt lat="47.51398" lon="6.72659">
        <ele>471.4</ele>
        <time>2017-02-26T10:06:05.999Z</time>
      </trkpt>
      <trkpt lat="47.51398" lon="6.72656">
        <ele>471.5</ele>
        <time>2017-02-26T10:06:06.999Z</time>
      </trkpt>
      <trkpt lat="47.51397" lon="6.72651">
        <ele>471.5</ele>
        <time>2017-02-26T10:06:08.999Z</time>
      </trkpt>
      <trkpt lat="47.51396" lon="6.72648">
        <ele>471.5</ele>
        <time>2017-02-26T10:06:09.999Z</time>
      </trkpt>
      <trkpt lat="47.51394" lon="6.72645">
        <ele>471.5</ele>
        <time>2017-02-26T10:06:10.999Z</time>
      </trkpt>
      <trkpt lat="47.51393" lon="6.7264">
        <ele>471.4</ele>
        <time>2017-02-26T10:06:11.999Z</time>
      </trkpt>
      <trkpt lat="47.51393" lon="6.72636">
        <ele>471.3</ele>
        <time>2017-02-26T10:06:13.999Z</time>
      </trkpt>
      <trkpt lat="47.51392" lon="6.72633">
        <ele>471.3</ele>
        <time>2017-02-26T10:06:14.999Z</time>
      </trkpt>
      <trkpt lat="47.51391" lon="6.72629">
        <ele>471.2</ele>
        <time>2017-02-26T10:06:15.999Z</time>
      </trkpt>
      <trkpt lat="47.51389" lon="6.72624">
        <ele>471.2</ele>
        <time>2017-02-26T10:06:16.999Z</time>
      </trkpt>
      <trkpt lat="47.51387" lon="6.72619">
        <ele>471.1</ele>
        <time>2017-02-26T10:06:18.999Z</time>
      </trkpt>
      <trkpt lat="47.51387" lon="6.72617">
        <ele>471</ele>
        <time>2017-02-26T10:06:19.999Z</time>
      </trkpt>
      <trkpt lat="47.51386" lon="6.72611">
        <ele>471</ele>
        <time>2017-02-26T10:06:20.999Z</time>
      </trkpt>
      <trkpt lat="47.51385" lon="6.72606">
        <ele>470.9</ele>
        <time>2017-02-26T10:06:21.999Z</time>
      </trkpt>
      <trkpt lat="47.51385" lon="6.726">
        <ele>470.5</ele>
        <time>2017-02-26T10:06:23.999Z</time>
      </trkpt>
      <trkpt lat="47.51385" lon="6.72599">
        <ele>470.3</ele>
        <time>2017-02-26T10:06:24.999Z</time>
      </trkpt>
      <trkpt lat="47.51385" lon="6.72595">
        <ele>469.6</ele>
        <time>2017-02-26T10:06:26.999Z</time>
      </trkpt>
      <trkpt lat="47.51384" lon="6.72591">
        <ele>469.3</ele>
        <time>2017-02-26T10:06:27.999Z</time>
      </trkpt>
      <trkpt lat="47.51385" lon="6.72585">
        <ele>468.5</ele>
        <time>2017-02-26T10:06:29.999Z</time>
      </trkpt>
      <trkpt lat="47.51385" lon="6.72583">
        <ele>468.1</ele>
        <time>2017-02-26T10:06:30.999Z</time>
      </trkpt>
      <trkpt lat="47.51387" lon="6.72575">
        <ele>467.7</ele>
        <time>2017-02-26T10:06:31.999Z</time>
      </trkpt>
      <trkpt lat="47.51387" lon="6.72571">
        <ele>467.2</ele>
        <time>2017-02-26T10:06:32.999Z</time>
      </trkpt>
      <trkpt lat="47.51388" lon="6.72567">
        <ele>466.8</ele>
        <time>2017-02-26T10:06:33.999Z</time>
      </trkpt>
      <trkpt lat="47.51389" lon="6.72562">
        <ele>466.4</ele>
        <time>2017-02-26T10:06:34.999Z</time>
      </trkpt>
      <trkpt lat="47.51388" lon="6.72555">
        <ele>466</ele>
        <time>2017-02-26T10:06:35.999Z</time>
      </trkpt>
      <trkpt lat="47.51386" lon="6.72546">
        <ele>465.6</ele>
        <time>2017-02-26T10:06:36.999Z</time>
      </trkpt>
      <trkpt lat="47.51385" lon="6.72541">
        <ele>465.2</ele>
        <time>2017-02-26T10:06:37.999Z</time>
      </trkpt>
      <trkpt lat="47.51385" lon="6.72536">
        <ele>464.9</ele>
        <time>2017-02-26T10:06:38.999Z</time>
      </trkpt>
      <trkpt lat="47.51384" lon="6.72528">
        <ele>464.7</ele>
        <time>2017-02-26T10:06:39.999Z</time>
      </trkpt>
      <trkpt lat="47.51383" lon="6.72521">
        <ele>464.4</ele>
        <time>2017-02-26T10:06:40.999Z</time>
      </trkpt>
      <trkpt lat="47.51381" lon="6.72516">
        <ele>464.1</ele>
        <time>2017-02-26T10:06:41.999Z</time>
      </trkpt>
      <trkpt lat="47.5138" lon="6.72512">
        <ele>463.7</ele>
        <time>2017-02-26T10:06:42.999Z</time>
      </trkpt>
      <trkpt lat="47.51379" lon="6.72507">
        <ele>463</ele>
        <time>2017-02-26T10:06:44.999Z</time>
      </trkpt>
      <trkpt lat="47.51378" lon="6.72505">
        <ele>462.6</ele>
        <time>2017-02-26T10:06:45.999Z</time>
      </trkpt>
      <trkpt lat="47.51378" lon="6.72503">
        <ele>461.9</ele>
        <time>2017-02-26T10:06:47.999Z</time>
      </trkpt>
      <trkpt lat="47.51375" lon="6.72496">
        <ele>461.6</ele>
        <time>2017-02-26T10:06:48.999Z</time>
      </trkpt>
      <trkpt lat="47.51374" lon="6.72491">
        <ele>461.4</ele>
        <time>2017-02-26T10:06:49.999Z</time>
      </trkpt>
      <trkpt lat="47.51373" lon="6.72487">
        <ele>461.1</ele>
        <time>2017-02-26T10:06:50.999Z</time>
      </trkpt>
      <trkpt lat="47.51371" lon="6.72478">
        <ele>460.8</ele>
        <time>2017-02-26T10:06:51.999Z</time>
      </trkpt>
      <trkpt lat="47.5137" lon="6.72473">
        <ele>460.6</ele>
        <time>2017-02-26T10:06:52.999Z</time>
      </trkpt>
      <trkpt lat="47.51367" lon="6.72461">
        <ele>460.6</ele>
        <time>2017-02-26T10:06:53.999Z</time>
      </trkpt>
      <trkpt lat="47.51364" lon="6.72453">
        <ele>460.7</ele>
        <time>2017-02-26T10:06:54.999Z</time>
      </trkpt>
      <trkpt lat="47.51363" lon="6.72449">
        <ele>461.1</ele>
        <time>2017-02-26T10:06:56.999Z</time>
      </trkpt>
      <trkpt lat="47.51362" lon="6.72447">
        <ele>461.3</ele>
        <time>2017-02-26T10:06:57.999Z</time>
      </trkpt>
      <trkpt lat="47.51361" lon="6.72443">
        <ele>461.5</ele>
        <time>2017-02-26T10:06:58.999Z</time>
      </trkpt>
      <trkpt lat="47.51359" lon="6.72438">
        <ele>461.7</ele>
        <time>2017-02-26T10:06:59.999Z</time>
      </trkpt>
      <trkpt lat="47.51359" lon="6.72433">
        <ele>461.9</ele>
        <time>2017-02-26T10:07:00.999Z</time>
      </trkpt>
      <trkpt lat="47.51358" lon="6.72428">
        <ele>461.9</ele>
        <time>2017-02-26T10:07:01.999Z</time>
      </trkpt>
      <trkpt lat="47.5136" lon="6.72432">
        <ele>463.6</ele>
        <time>2017-02-26T10:07:27.999Z</time>
      </trkpt>
      <trkpt lat="47.51361" lon="6.72434">
        <ele>463.6</ele>
        <time>2017-02-26T10:07:28.999Z</time>
      </trkpt>
      <trkpt lat="47.51363" lon="6.72439">
        <ele>463.8</ele>
        <time>2017-02-26T10:07:30.999Z</time>
      </trkpt>
      <trkpt lat="47.51364" lon="6.72441">
        <ele>463.9</ele>
        <time>2017-02-26T10:07:31.999Z</time>
      </trkpt>
      <trkpt lat="47.51368" lon="6.7244">
        <ele>464.5</ele>
        <time>2017-02-26T10:07:40.999Z</time>
      </trkpt>
      <trkpt lat="47.51375" lon="6.7244">
        <ele>464.6</ele>
        <time>2017-02-26T10:07:41.999Z</time>
      </trkpt>
      <trkpt lat="47.51378" lon="6.72437">
        <ele>464.7</ele>
        <time>2017-02-26T10:07:42.999Z</time>
      </trkpt>
      <trkpt lat="47.5138" lon="6.72436">
        <ele>464.7</ele>
        <time>2017-02-26T10:07:43.999Z</time>
      </trkpt>
      <trkpt lat="47.51381" lon="6.72435">
        <ele>464.7</ele>
        <time>2017-02-26T10:07:44.999Z</time>
      </trkpt>
      <trkpt lat="47.51385" lon="6.72433">
        <ele>464.7</ele>
        <time>2017-02-26T10:07:45.999Z</time>
      </trkpt>
      <trkpt lat="47.51391" lon="6.72432">
        <ele>464.6</ele>
        <time>2017-02-26T10:07:46.999Z</time>
      </trkpt>
      <trkpt lat="47.51395" lon="6.7243">
        <ele>464.5</ele>
        <time>2017-02-26T10:07:47.999Z</time>
      </trkpt>
      <trkpt lat="47.51397" lon="6.7243">
        <ele>464.4</ele>
        <time>2017-02-26T10:07:48.999Z</time>
      </trkpt>
      <trkpt lat="47.51399" lon="6.72426">
        <ele>464.1</ele>
        <time>2017-02-26T10:07:50.999Z</time>
      </trkpt>
      <trkpt lat="47.51401" lon="6.72425">
        <ele>464</ele>
        <time>2017-02-26T10:07:51.999Z</time>
      </trkpt>
      <trkpt lat="47.51403" lon="6.72423">
        <ele>463.9</ele>
        <time>2017-02-26T10:07:52.999Z</time>
      </trkpt>
      <trkpt lat="47.51407" lon="6.72421">
        <ele>463.8</ele>
        <time>2017-02-26T10:07:53.999Z</time>
      </trkpt>
      <trkpt lat="47.51416" lon="6.72418">
        <ele>463.8</ele>
        <time>2017-02-26T10:07:54.999Z</time>
      </trkpt>
      <trkpt lat="47.51419" lon="6.72418">
        <ele>463.8</ele>
        <time>2017-02-26T10:07:55.999Z</time>
      </trkpt>
      <trkpt lat="47.51423" lon="6.72417">
        <ele>463.7</ele>
        <time>2017-02-26T10:07:56.999Z</time>
      </trkpt>
      <trkpt lat="47.51428" lon="6.72417">
        <ele>463</ele>
        <time>2017-02-26T10:07:57.999Z</time>
      </trkpt>
      <trkpt lat="47.5143" lon="6.72415">
        <ele>462.9</ele>
        <time>2017-02-26T10:07:58.999Z</time>
      </trkpt>
      <trkpt lat="47.51432" lon="6.72412">
        <ele>462.7</ele>
        <time>2017-02-26T10:07:59.999Z</time>
      </trkpt>
      <trkpt lat="47.51433" lon="6.72408">
        <ele>462.6</ele>
        <time>2017-02-26T10:08:00.999Z</time>
      </trkpt>
      <trkpt lat="47.51436" lon="6.72405">
        <ele>462.4</ele>
        <time>2017-02-26T10:08:01.999Z</time>
      </trkpt>
      <trkpt lat="47.5144" lon="6.72404">
        <ele>462.2</ele>
        <time>2017-02-26T10:08:02.999Z</time>
      </trkpt>
      <trkpt lat="47.51445" lon="6.72403">
        <ele>461.9</ele>
        <time>2017-02-26T10:08:03.999Z</time>
      </trkpt>
      <trkpt lat="47.51448" lon="6.72403">
        <ele>461.7</ele>
        <time>2017-02-26T10:08:04.999Z</time>
      </trkpt>
      <trkpt lat="47.51453" lon="6.72401">
        <ele>461.4</ele>
        <time>2017-02-26T10:08:05.999Z</time>
      </trkpt>
      <trkpt lat="47.51457" lon="6.72397">
        <ele>461.1</ele>
        <time>2017-02-26T10:08:06.999Z</time>
      </trkpt>
      <trkpt lat="47.5146" lon="6.72395">
        <ele>460.9</ele>
        <time>2017-02-26T10:08:07.999Z</time>
      </trkpt>
      <trkpt lat="47.51461" lon="6.72392">
        <ele>460.6</ele>
        <time>2017-02-26T10:08:08.999Z</time>
      </trkpt>
      <trkpt lat="47.51463" lon="6.7239">
        <ele>460.4</ele>
        <time>2017-02-26T10:08:09.999Z</time>
      </trkpt>
      <trkpt lat="47.51466" lon="6.7239">
        <ele>460.1</ele>
        <time>2017-02-26T10:08:11.999Z</time>
      </trkpt>
      <trkpt lat="47.5147" lon="6.72391">
        <ele>459.8</ele>
        <time>2017-02-26T10:08:12.999Z</time>
      </trkpt>
      <trkpt lat="47.51472" lon="6.72387">
        <ele>458.9</ele>
        <time>2017-02-26T10:08:15.999Z</time>
      </trkpt>
      <trkpt lat="47.51472" lon="6.72384">
        <ele>458.6</ele>
        <time>2017-02-26T10:08:16.999Z</time>
      </trkpt>
      <trkpt lat="47.51471" lon="6.72381">
        <ele>458.4</ele>
        <time>2017-02-26T10:08:17.999Z</time>
      </trkpt>
      <trkpt lat="47.51472" lon="6.72377">
        <ele>458.3</ele>
        <time>2017-02-26T10:08:18.999Z</time>
      </trkpt>
      <trkpt lat="47.5147" lon="6.72374">
        <ele>458.1</ele>
        <time>2017-02-26T10:08:22.999Z</time>
      </trkpt>
      <trkpt lat="47.51468" lon="6.7237">
        <ele>458</ele>
        <time>2017-02-26T10:08:23.999Z</time>
      </trkpt>
      <trkpt lat="47.51466" lon="6.72365">
        <ele>457.9</ele>
        <time>2017-02-26T10:08:24.999Z</time>
      </trkpt>
      <trkpt lat="47.51465" lon="6.72358">
        <ele>457.8</ele>
        <time>2017-02-26T10:08:25.999Z</time>
      </trkpt>
      <trkpt lat="47.51464" lon="6.72349">
        <ele>457.7</ele>
        <time>2017-02-26T10:08:26.999Z</time>
      </trkpt>
      <trkpt lat="47.51463" lon="6.72346">
        <ele>457.6</ele>
        <time>2017-02-26T10:08:28.999Z</time>
      </trkpt>
      <trkpt lat="47.51461" lon="6.72343">
        <ele>457.5</ele>
        <time>2017-02-26T10:08:29.999Z</time>
      </trkpt>
      <trkpt lat="47.51459" lon="6.72337">
        <ele>457.4</ele>
        <time>2017-02-26T10:08:30.999Z</time>
      </trkpt>
      <trkpt lat="47.51458" lon="6.7233">
        <ele>457.4</ele>
        <time>2017-02-26T10:08:31.999Z</time>
      </trkpt>
      <trkpt lat="47.51459" lon="6.72324">
        <ele>457.3</ele>
        <time>2017-02-26T10:08:34.999Z</time>
      </trkpt>
      <trkpt lat="47.51459" lon="6.72323">
        <ele>457.2</ele>
        <time>2017-02-26T10:08:35.999Z</time>
      </trkpt>
      <trkpt lat="47.51461" lon="6.72318">
        <ele>457.2</ele>
        <time>2017-02-26T10:08:36.999Z</time>
      </trkpt>
      <trkpt lat="47.51462" lon="6.72315">
        <ele>457.2</ele>
        <time>2017-02-26T10:08:37.999Z</time>
      </trkpt>
      <trkpt lat="47.51463" lon="6.7231">
        <ele>457.2</ele>
        <time>2017-02-26T10:08:38.999Z</time>
      </trkpt>
      <trkpt lat="47.51464" lon="6.72304">
        <ele>457.2</ele>
        <time>2017-02-26T10:08:39.999Z</time>
      </trkpt>
      <trkpt lat="47.51466" lon="6.72298">
        <ele>457.2</ele>
        <time>2017-02-26T10:08:40.999Z</time>
      </trkpt>
      <trkpt lat="47.51467" lon="6.72294">
        <ele>457.2</ele>
        <time>2017-02-26T10:08:41.999Z</time>
      </trkpt>
      <trkpt lat="47.51467" lon="6.72291">
        <ele>457.1</ele>
        <time>2017-02-26T10:08:42.999Z</time>
      </trkpt>
      <trkpt lat="47.51468" lon="6.72288">
        <ele>456.9</ele>
        <time>2017-02-26T10:08:43.999Z</time>
      </trkpt>
      <trkpt lat="47.5147" lon="6.72283">
        <ele>456.7</ele>
        <time>2017-02-26T10:08:45.999Z</time>
      </trkpt>
      <trkpt lat="47.51471" lon="6.72281">
        <ele>456.7</ele>
        <time>2017-02-26T10:08:46.999Z</time>
      </trkpt>
      <trkpt lat="47.51473" lon="6.72278">
        <ele>452.4</ele>
        <time>2017-02-26T10:09:22.999Z</time>
      </trkpt>
      <trkpt lat="47.51473" lon="6.72276">
        <ele>451.9</ele>
        <time>2017-02-26T10:09:23.999Z</time>
      </trkpt>
      <trkpt lat="47.51477" lon="6.72272">
        <ele>451</ele>
        <time>2017-02-26T10:09:25.999Z</time>
      </trkpt>
      <trkpt lat="47.51484" lon="6.72275">
        <ele>450.7</ele>
        <time>2017-02-26T10:09:26.999Z</time>
      </trkpt>
      <trkpt lat="47.51491" lon="6.72273">
        <ele>450.4</ele>
        <time>2017-02-26T10:09:27.999Z</time>
      </trkpt>
      <trkpt lat="47.51496" lon="6.72271">
        <ele>450.2</ele>
        <time>2017-02-26T10:09:28.999Z</time>
      </trkpt>
      <trkpt lat="47.51504" lon="6.72267">
        <ele>449.9</ele>
        <time>2017-02-26T10:09:29.999Z</time>
      </trkpt>
      <trkpt lat="47.51511" lon="6.72263">
        <ele>449.6</ele>
        <time>2017-02-26T10:09:30.999Z</time>
      </trkpt>
      <trkpt lat="47.51522" lon="6.72257">
        <ele>449.2</ele>
        <time>2017-02-26T10:09:31.999Z</time>
      </trkpt>
      <trkpt lat="47.51531" lon="6.72255">
        <ele>448.8</ele>
        <time>2017-02-26T10:09:32.999Z</time>
      </trkpt>
      <trkpt lat="47.51541" lon="6.72254">
        <ele>448.3</ele>
        <time>2017-02-26T10:09:33.999Z</time>
      </trkpt>
      <trkpt lat="47.51546" lon="6.72251">
        <ele>447.9</ele>
        <time>2017-02-26T10:09:34.999Z</time>
      </trkpt>
      <trkpt lat="47.51554" lon="6.72247">
        <ele>447.4</ele>
        <time>2017-02-26T10:09:35.999Z</time>
      </trkpt>
      <trkpt lat="47.51558" lon="6.72245">
        <ele>447</ele>
        <time>2017-02-26T10:09:36.999Z</time>
      </trkpt>
      <trkpt lat="47.51561" lon="6.72243">
        <ele>446.4</ele>
        <time>2017-02-26T10:09:37.999Z</time>
      </trkpt>
      <trkpt lat="47.51563" lon="6.7224">
        <ele>445.9</ele>
        <time>2017-02-26T10:09:38.999Z</time>
      </trkpt>
      <trkpt lat="47.51568" lon="6.7224">
        <ele>445.3</ele>
        <time>2017-02-26T10:09:39.999Z</time>
      </trkpt>
      <trkpt lat="47.51576" lon="6.72236">
        <ele>444.8</ele>
        <time>2017-02-26T10:09:40.999Z</time>
      </trkpt>
      <trkpt lat="47.51584" lon="6.72231">
        <ele>444.2</ele>
        <time>2017-02-26T10:09:41.999Z</time>
      </trkpt>
      <trkpt lat="47.51591" lon="6.72229">
        <ele>443.5</ele>
        <time>2017-02-26T10:09:42.999Z</time>
      </trkpt>
      <trkpt lat="47.51597" lon="6.72223">
        <ele>442.8</ele>
        <time>2017-02-26T10:09:43.999Z</time>
      </trkpt>
      <trkpt lat="47.51599" lon="6.72222">
        <ele>442.1</ele>
        <time>2017-02-26T10:09:44.999Z</time>
      </trkpt>
      <trkpt lat="47.51604" lon="6.72218">
        <ele>441.4</ele>
        <time>2017-02-26T10:09:45.999Z</time>
      </trkpt>
      <trkpt lat="47.51609" lon="6.72211">
        <ele>440.4</ele>
        <time>2017-02-26T10:09:46.999Z</time>
      </trkpt>
      <trkpt lat="47.51613" lon="6.72208">
        <ele>439.5</ele>
        <time>2017-02-26T10:09:47.999Z</time>
      </trkpt>
      <trkpt lat="47.51627" lon="6.72211">
        <ele>438.7</ele>
        <time>2017-02-26T10:09:48.999Z</time>
      </trkpt>
      <trkpt lat="47.51634" lon="6.72207">
        <ele>431.2</ele>
        <time>2017-02-26T10:09:49.999Z</time>
      </trkpt>
      <trkpt lat="47.51648" lon="6.72198">
        <ele>423.8</ele>
        <time>2017-02-26T10:09:50.999Z</time>
      </trkpt>
      <trkpt lat="47.51665" lon="6.72187">
        <ele>416.9</ele>
        <time>2017-02-26T10:09:51.999Z</time>
      </trkpt>
      <trkpt lat="47.51683" lon="6.72181">
        <ele>411</ele>
        <time>2017-02-26T10:09:52.999Z</time>
      </trkpt>
      <trkpt lat="47.51693" lon="6.7218">
        <ele>410.7</ele>
        <time>2017-02-26T10:09:53.999Z</time>
      </trkpt>
      <trkpt lat="47.51708" lon="6.72172">
        <ele>410.3</ele>
        <time>2017-02-26T10:09:54.999Z</time>
      </trkpt>
      <trkpt lat="47.51711" lon="6.72169">
        <ele>410.2</ele>
        <time>2017-02-26T10:09:56.999Z</time>
      </trkpt>
      <trkpt lat="47.51715" lon="6.72166">
        <ele>410.1</ele>
        <time>2017-02-26T10:09:57.999Z</time>
      </trkpt>
      <trkpt lat="47.51717" lon="6.72167">
        <ele>409.9</ele>
        <time>2017-02-26T10:09:58.999Z</time>
      </trkpt>
      <trkpt lat="47.51719" lon="6.72168">
        <ele>409.8</ele>
        <time>2017-02-26T10:09:59.999Z</time>
      </trkpt>
      <trkpt lat="47.51721" lon="6.72168">
        <ele>409.5</ele>
        <time>2017-02-26T10:10:00.999Z</time>
      </trkpt>
      <trkpt lat="47.51724" lon="6.7217">
        <ele>409.3</ele>
        <time>2017-02-26T10:10:01.999Z</time>
      </trkpt>
      <trkpt lat="47.51733" lon="6.72175">
        <ele>409.2</ele>
        <time>2017-02-26T10:10:02.999Z</time>
      </trkpt>
      <trkpt lat="47.51741" lon="6.72181">
        <ele>409</ele>
        <time>2017-02-26T10:10:03.999Z</time>
      </trkpt>
      <trkpt lat="47.51743" lon="6.72182">
        <ele>408.8</ele>
        <time>2017-02-26T10:10:04.999Z</time>
      </trkpt>
      <trkpt lat="47.51746" lon="6.72184">
        <ele>408.7</ele>
        <time>2017-02-26T10:10:05.999Z</time>
      </trkpt>
      <trkpt lat="47.5175" lon="6.72183">
        <ele>408.7</ele>
        <time>2017-02-26T10:10:10.999Z</time>
      </trkpt>
      <trkpt lat="47.51754" lon="6.72182">
        <ele>408.7</ele>
        <time>2017-02-26T10:10:11.999Z</time>
      </trkpt>
      <trkpt lat="47.51758" lon="6.72179">
        <ele>410.3</ele>
        <time>2017-02-26T10:10:15.999Z</time>
      </trkpt>
      <trkpt lat="47.51761" lon="6.72177">
        <ele>411</ele>
        <time>2017-02-26T10:10:16.999Z</time>
      </trkpt>
      <trkpt lat="47.51767" lon="6.72175">
        <ele>411.4</ele>
        <time>2017-02-26T10:10:17.999Z</time>
      </trkpt>
      <trkpt lat="47.51774" lon="6.72172">
        <ele>411.8</ele>
        <time>2017-02-26T10:10:18.999Z</time>
      </trkpt>
      <trkpt lat="47.51776" lon="6.72172">
        <ele>412.8</ele>
        <time>2017-02-26T10:10:20.999Z</time>
      </trkpt>
      <trkpt lat="47.51779" lon="6.72172">
        <ele>413.2</ele>
        <time>2017-02-26T10:10:21.999Z</time>
      </trkpt>
      <trkpt lat="47.51785" lon="6.7217">
        <ele>413.6</ele>
        <time>2017-02-26T10:10:22.999Z</time>
      </trkpt>
      <trkpt lat="47.51789" lon="6.72169">
        <ele>414.1</ele>
        <time>2017-02-26T10:10:23.999Z</time>
      </trkpt>
      <trkpt lat="47.51791" lon="6.72167">
        <ele>415.9</ele>
        <time>2017-02-26T10:10:27.999Z</time>
      </trkpt>
      <trkpt lat="47.51794" lon="6.72165">
        <ele>416.3</ele>
        <time>2017-02-26T10:10:28.999Z</time>
      </trkpt>
      <trkpt lat="47.51798" lon="6.72163">
        <ele>417.2</ele>
        <time>2017-02-26T10:10:31.999Z</time>
      </trkpt>
      <trkpt lat="47.51801" lon="6.72161">
        <ele>417.4</ele>
        <time>2017-02-26T10:10:32.999Z</time>
      </trkpt>
      <trkpt lat="47.51802" lon="6.7216">
        <ele>417.7</ele>
        <time>2017-02-26T10:10:34.999Z</time>
      </trkpt>
      <trkpt lat="47.51805" lon="6.72157">
        <ele>417.9</ele>
        <time>2017-02-26T10:10:35.999Z</time>
      </trkpt>
      <trkpt lat="47.51808" lon="6.72155">
        <ele>418</ele>
        <time>2017-02-26T10:10:36.999Z</time>
      </trkpt>
      <trkpt lat="47.51812" lon="6.72153">
        <ele>418.2</ele>
        <time>2017-02-26T10:10:37.999Z</time>
      </trkpt>
      <trkpt lat="47.51815" lon="6.72151">
        <ele>418.6</ele>
        <time>2017-02-26T10:10:39.999Z</time>
      </trkpt>
      <trkpt lat="47.51817" lon="6.72151">
        <ele>418.9</ele>
        <time>2017-02-26T10:10:40.999Z</time>
      </trkpt>
      <trkpt lat="47.51818" lon="6.7215">
        <ele>419.8</ele>
        <time>2017-02-26T10:10:43.999Z</time>
      </trkpt>
      <trkpt lat="47.51821" lon="6.72151">
        <ele>420.2</ele>
        <time>2017-02-26T10:10:44.999Z</time>
      </trkpt>
      <trkpt lat="47.51825" lon="6.72151">
        <ele>420.8</ele>
        <time>2017-02-26T10:10:46.999Z</time>
      </trkpt>
      <trkpt lat="47.51827" lon="6.72151">
        <ele>421.2</ele>
        <time>2017-02-26T10:10:47.999Z</time>
      </trkpt>
      <trkpt lat="47.51827" lon="6.72151">
        <ele>421.4</ele>
        <time>2017-02-26T10:10:49.999Z</time>
      </trkpt>
      <trkpt lat="47.51831" lon="6.72153">
        <ele>421.5</ele>
        <time>2017-02-26T10:10:50.999Z</time>
      </trkpt>
      <trkpt lat="47.51836" lon="6.72157">
        <ele>421.3</ele>
        <time>2017-02-26T10:10:51.999Z</time>
      </trkpt>
      <trkpt lat="47.5184" lon="6.72156">
        <ele>420.5</ele>
        <time>2017-02-26T10:10:55.999Z</time>
      </trkpt>
      <trkpt lat="47.51845" lon="6.72155">
        <ele>420.1</ele>
        <time>2017-02-26T10:10:56.999Z</time>
      </trkpt>
      <trkpt lat="47.5185" lon="6.72153">
        <ele>419.8</ele>
        <time>2017-02-26T10:10:57.999Z</time>
      </trkpt>
      <trkpt lat="47.51852" lon="6.72153">
        <ele>419.4</ele>
        <time>2017-02-26T10:10:58.999Z</time>
      </trkpt>
      <trkpt lat="47.51855" lon="6.72152">
        <ele>419.2</ele>
        <time>2017-02-26T10:10:59.999Z</time>
      </trkpt>
      <trkpt lat="47.51859" lon="6.72153">
        <ele>419.4</ele>
        <time>2017-02-26T10:11:04.999Z</time>
      </trkpt>
      <trkpt lat="47.51862" lon="6.72152">
        <ele>419.6</ele>
        <time>2017-02-26T10:11:05.999Z</time>
      </trkpt>
      <trkpt lat="47.51865" lon="6.7215">
        <ele>420</ele>
        <time>2017-02-26T10:11:07.999Z</time>
      </trkpt>
      <trkpt lat="47.51866" lon="6.72149">
        <ele>420</ele>
        <time>2017-02-26T10:11:08.999Z</time>
      </trkpt>
      <trkpt lat="47.5187" lon="6.72146">
        <ele>421.2</ele>
        <time>2017-02-26T10:11:13.999Z</time>
      </trkpt>
      <trkpt lat="47.51872" lon="6.72144">
        <ele>421.6</ele>
        <time>2017-02-26T10:11:14.999Z</time>
      </trkpt>
      <trkpt lat="47.51874" lon="6.72141">
        <ele>421.9</ele>
        <time>2017-02-26T10:11:15.999Z</time>
      </trkpt>
      <trkpt lat="47.51878" lon="6.72137">
        <ele>422.2</ele>
        <time>2017-02-26T10:11:16.999Z</time>
      </trkpt>
      <trkpt lat="47.51881" lon="6.72132">
        <ele>422.4</ele>
        <time>2017-02-26T10:11:17.999Z</time>
      </trkpt>
      <trkpt lat="47.51884" lon="6.72129">
        <ele>422.5</ele>
        <time>2017-02-26T10:11:18.999Z</time>
      </trkpt>
      <trkpt lat="47.51887" lon="6.72126">
        <ele>422.7</ele>
        <time>2017-02-26T10:11:19.999Z</time>
      </trkpt>
      <trkpt lat="47.51889" lon="6.72123">
        <ele>422.7</ele>
        <time>2017-02-26T10:11:20.999Z</time>
      </trkpt>
      <trkpt lat="47.5189" lon="6.72121">
        <ele>422.8</ele>
        <time>2017-02-26T10:11:21.999Z</time>
      </trkpt>
      <trkpt lat="47.51893" lon="6.7211">
        <ele>422.8</ele>
        <time>2017-02-26T10:11:22.999Z</time>
      </trkpt>
      <trkpt lat="47.51895" lon="6.72104">
        <ele>422.9</ele>
        <time>2017-02-26T10:11:23.999Z</time>
      </trkpt>
      <trkpt lat="47.51896" lon="6.72102">
        <ele>423</ele>
        <time>2017-02-26T10:11:24.999Z</time>
      </trkpt>
      <trkpt lat="47.51897" lon="6.72099">
        <ele>422.9</ele>
        <time>2017-02-26T10:11:25.999Z</time>
      </trkpt>
      <trkpt lat="47.51898" lon="6.72096">
        <ele>423</ele>
        <time>2017-02-26T10:11:26.999Z</time>
      </trkpt>
      <trkpt lat="47.519" lon="6.72091">
        <ele>423</ele>
        <time>2017-02-26T10:11:28.999Z</time>
      </trkpt>
      <trkpt lat="47.519" lon="6.72087">
        <ele>423</ele>
        <time>2017-02-26T10:11:29.999Z</time>
      </trkpt>
      <trkpt lat="47.51898" lon="6.72081">
        <ele>423.1</ele>
        <time>2017-02-26T10:11:32.999Z</time>
      </trkpt>
      <trkpt lat="47.519" lon="6.72079">
        <ele>423.3</ele>
        <time>2017-02-26T10:11:33.999Z</time>
      </trkpt>
      <trkpt lat="47.51899" lon="6.72074">
        <ele>423.3</ele>
        <time>2017-02-26T10:11:35.999Z</time>
      </trkpt>
      <trkpt lat="47.519" lon="6.72071">
        <ele>423.4</ele>
        <time>2017-02-26T10:11:36.999Z</time>
      </trkpt>
      <trkpt lat="47.519" lon="6.72068">
        <ele>423.4</ele>
        <time>2017-02-26T10:11:37.999Z</time>
      </trkpt>
      <trkpt lat="47.519" lon="6.72064">
        <ele>423.5</ele>
        <time>2017-02-26T10:11:38.999Z</time>
      </trkpt>
      <trkpt lat="47.519" lon="6.72059">
        <ele>423.6</ele>
        <time>2017-02-26T10:11:39.999Z</time>
      </trkpt>
      <trkpt lat="47.519" lon="6.72052">
        <ele>423.8</ele>
        <time>2017-02-26T10:11:40.999Z</time>
      </trkpt>
      <trkpt lat="47.51899" lon="6.72047">
        <ele>423.9</ele>
        <time>2017-02-26T10:11:41.999Z</time>
      </trkpt>
      <trkpt lat="47.51898" lon="6.72041">
        <ele>424.1</ele>
        <time>2017-02-26T10:11:42.999Z</time>
      </trkpt>
      <trkpt lat="47.51897" lon="6.72037">
        <ele>424.3</ele>
        <time>2017-02-26T10:11:43.999Z</time>
      </trkpt>
      <trkpt lat="47.51897" lon="6.72033">
        <ele>424.4</ele>
        <time>2017-02-26T10:11:44.999Z</time>
      </trkpt>
      <trkpt lat="47.51896" lon="6.72027">
        <ele>424.7</ele>
        <time>2017-02-26T10:11:46.999Z</time>
      </trkpt>
      <trkpt lat="47.51896" lon="6.72024">
        <ele>424.7</ele>
        <time>2017-02-26T10:11:47.999Z</time>
      </trkpt>
      <trkpt lat="47.51894" lon="6.72019">
        <ele>424.6</ele>
        <time>2017-02-26T10:11:48.999Z</time>
      </trkpt>
      <trkpt lat="47.51894" lon="6.72013">
        <ele>424.5</ele>
        <time>2017-02-26T10:11:49.999Z</time>
      </trkpt>
      <trkpt lat="47.51894" lon="6.72009">
        <ele>424.5</ele>
        <time>2017-02-26T10:11:50.999Z</time>
      </trkpt>
      <trkpt lat="47.51894" lon="6.72001">
        <ele>424.5</ele>
        <time>2017-02-26T10:11:51.999Z</time>
      </trkpt>
      <trkpt lat="47.51895" lon="6.71995">
        <ele>424.5</ele>
        <time>2017-02-26T10:11:53.999Z</time>
      </trkpt>
      <trkpt lat="47.51895" lon="6.71994">
        <ele>424.5</ele>
        <time>2017-02-26T10:11:54.999Z</time>
      </trkpt>
      <trkpt lat="47.51893" lon="6.71988">
        <ele>424.2</ele>
        <time>2017-02-26T10:11:56.999Z</time>
      </trkpt>
      <trkpt lat="47.51894" lon="6.71986">
        <ele>424.2</ele>
        <time>2017-02-26T10:11:57.999Z</time>
      </trkpt>
      <trkpt lat="47.51893" lon="6.71981">
        <ele>424.2</ele>
        <time>2017-02-26T10:12:00.999Z</time>
      </trkpt>
      <trkpt lat="47.51892" lon="6.71979">
        <ele>424</ele>
        <time>2017-02-26T10:12:01.999Z</time>
      </trkpt>
      <trkpt lat="47.5189" lon="6.71978">
        <ele>423.8</ele>
        <time>2017-02-26T10:12:03.999Z</time>
      </trkpt>
      <trkpt lat="47.51888" lon="6.71974">
        <ele>423.8</ele>
        <time>2017-02-26T10:12:04.999Z</time>
      </trkpt>
      <trkpt lat="47.51887" lon="6.71969">
        <ele>423.8</ele>
        <time>2017-02-26T10:12:05.999Z</time>
      </trkpt>
      <trkpt lat="47.51886" lon="6.71965">
        <ele>423.8</ele>
        <time>2017-02-26T10:12:06.999Z</time>
      </trkpt>
      <trkpt lat="47.51885" lon="6.7196">
        <ele>423.8</ele>
        <time>2017-02-26T10:12:07.999Z</time>
      </trkpt>
      <trkpt lat="47.51884" lon="6.71957">
        <ele>423.8</ele>
        <time>2017-02-26T10:12:08.999Z</time>
      </trkpt>
      <trkpt lat="47.51883" lon="6.71953">
        <ele>423.8</ele>
        <time>2017-02-26T10:12:09.999Z</time>
      </trkpt>
      <trkpt lat="47.51882" lon="6.71949">
        <ele>423.9</ele>
        <time>2017-02-26T10:12:10.999Z</time>
      </trkpt>
      <trkpt lat="47.51881" lon="6.71945">
        <ele>423.9</ele>
        <time>2017-02-26T10:12:11.999Z</time>
      </trkpt>
      <trkpt lat="47.5188" lon="6.71942">
        <ele>423.9</ele>
        <time>2017-02-26T10:12:12.999Z</time>
      </trkpt>
      <trkpt lat="47.51879" lon="6.71938">
        <ele>424</ele>
        <time>2017-02-26T10:12:13.999Z</time>
      </trkpt>
      <trkpt lat="47.51878" lon="6.71934">
        <ele>424.2</ele>
        <time>2017-02-26T10:12:14.999Z</time>
      </trkpt>
      <trkpt lat="47.51878" lon="6.71931">
        <ele>424.3</ele>
        <time>2017-02-26T10:12:15.999Z</time>
      </trkpt>
      <trkpt lat="47.51877" lon="6.71927">
        <ele>424.4</ele>
        <time>2017-02-26T10:12:16.999Z</time>
      </trkpt>
      <trkpt lat="47.51876" lon="6.71922">
        <ele>424.8</ele>
        <time>2017-02-26T10:12:18.999Z</time>
      </trkpt>
      <trkpt lat="47.51876" lon="6.7192">
        <ele>425.1</ele>
        <time>2017-02-26T10:12:19.999Z</time>
      </trkpt>
      <trkpt lat="47.51872" lon="6.71917">
        <ele>425.6</ele>
        <time>2017-02-26T10:12:21.999Z</time>
      </trkpt>
      <trkpt lat="47.51871" lon="6.71915">
        <ele>425.8</ele>
        <time>2017-02-26T10:12:22.999Z</time>
      </trkpt>
      <trkpt lat="47.5187" lon="6.71909">
        <ele>426.4</ele>
        <time>2017-02-26T10:12:24.999Z</time>
      </trkpt>
      <trkpt lat="47.51868" lon="6.71906">
        <ele>426.8</ele>
        <time>2017-02-26T10:12:25.999Z</time>
      </trkpt>
      <trkpt lat="47.51867" lon="6.71901">
        <ele>427.1</ele>
        <time>2017-02-26T10:12:26.999Z</time>
      </trkpt>
      <trkpt lat="47.51866" lon="6.71898">
        <ele>427.4</ele>
        <time>2017-02-26T10:12:27.999Z</time>
      </trkpt>
      <trkpt lat="47.51866" lon="6.71895">
        <ele>427.5</ele>
        <time>2017-02-26T10:12:28.999Z</time>
      </trkpt>
      <trkpt lat="47.51865" lon="6.71888">
        <ele>427.8</ele>
        <time>2017-02-26T10:12:29.999Z</time>
      </trkpt>
      <trkpt lat="47.51863" lon="6.71883">
        <ele>427.9</ele>
        <time>2017-02-26T10:12:30.999Z</time>
      </trkpt>
      <trkpt lat="47.51861" lon="6.71879">
        <ele>428</ele>
        <time>2017-02-26T10:12:31.999Z</time>
      </trkpt>
      <trkpt lat="47.51859" lon="6.71875">
        <ele>428.2</ele>
        <time>2017-02-26T10:12:32.999Z</time>
      </trkpt>
      <trkpt lat="47.51858" lon="6.71872">
        <ele>428.4</ele>
        <time>2017-02-26T10:12:33.999Z</time>
      </trkpt>
      <trkpt lat="47.51857" lon="6.71868">
        <ele>428.5</ele>
        <time>2017-02-26T10:12:34.999Z</time>
      </trkpt>
      <trkpt lat="47.51856" lon="6.71864">
        <ele>428.7</ele>
        <time>2017-02-26T10:12:35.999Z</time>
      </trkpt>
      <trkpt lat="47.51855" lon="6.71858">
        <ele>429.3</ele>
        <time>2017-02-26T10:12:38.999Z</time>
      </trkpt>
      <trkpt lat="47.51855" lon="6.71856">
        <ele>429.5</ele>
        <time>2017-02-26T10:12:39.999Z</time>
      </trkpt>
      <trkpt lat="47.51853" lon="6.7185">
        <ele>430.1</ele>
        <time>2017-02-26T10:12:42.999Z</time>
      </trkpt>
      <trkpt lat="47.51852" lon="6.71847">
        <ele>430.2</ele>
        <time>2017-02-26T10:12:43.999Z</time>
      </trkpt>
      <trkpt lat="47.5185" lon="6.71842">
        <ele>430.1</ele>
        <time>2017-02-26T10:12:46.999Z</time>
      </trkpt>
      <trkpt lat="47.51849" lon="6.7184">
        <ele>430</ele>
        <time>2017-02-26T10:12:47.999Z</time>
      </trkpt>
      <trkpt lat="47.51847" lon="6.71835">
        <ele>430.2</ele>
        <time>2017-02-26T10:12:49.999Z</time>
      </trkpt>
      <trkpt lat="47.51845" lon="6.71832">
        <ele>430.3</ele>
        <time>2017-02-26T10:12:50.999Z</time>
      </trkpt>
      <trkpt lat="47.51843" lon="6.71827">
        <ele>430.3</ele>
        <time>2017-02-26T10:12:52.999Z</time>
      </trkpt>
      <trkpt lat="47.51842" lon="6.71825">
        <ele>430.3</ele>
        <time>2017-02-26T10:12:53.999Z</time>
      </trkpt>
      <trkpt lat="47.51841" lon="6.71823">
        <ele>430.1</ele>
        <time>2017-02-26T10:12:54.999Z</time>
      </trkpt>
      <trkpt lat="47.51839" lon="6.7182">
        <ele>429.9</ele>
        <time>2017-02-26T10:12:55.999Z</time>
      </trkpt>
      <trkpt lat="47.51838" lon="6.71817">
        <ele>429.8</ele>
        <time>2017-02-26T10:12:56.999Z</time>
      </trkpt>
      <trkpt lat="47.51836" lon="6.71814">
        <ele>429.8</ele>
        <time>2017-02-26T10:12:57.999Z</time>
      </trkpt>
      <trkpt lat="47.51835" lon="6.71812">
        <ele>429.9</ele>
        <time>2017-02-26T10:12:58.999Z</time>
      </trkpt>
      <trkpt lat="47.51833" lon="6.71808">
        <ele>429.9</ele>
        <time>2017-02-26T10:12:59.999Z</time>
      </trkpt>
      <trkpt lat="47.5183" lon="6.71803">
        <ele>429.8</ele>
        <time>2017-02-26T10:13:02.999Z</time>
      </trkpt>
      <trkpt lat="47.51829" lon="6.71802">
        <ele>429.7</ele>
        <time>2017-02-26T10:13:03.999Z</time>
      </trkpt>
      <trkpt lat="47.51826" lon="6.71798">
        <ele>429.4</ele>
        <time>2017-02-26T10:13:05.999Z</time>
      </trkpt>
      <trkpt lat="47.51826" lon="6.71796">
        <ele>429.2</ele>
        <time>2017-02-26T10:13:06.999Z</time>
      </trkpt>
      <trkpt lat="47.51824" lon="6.71791">
        <ele>428.8</ele>
        <time>2017-02-26T10:13:08.999Z</time>
      </trkpt>
      <trkpt lat="47.51824" lon="6.71788">
        <ele>428.7</ele>
        <time>2017-02-26T10:13:09.999Z</time>
      </trkpt>
      <trkpt lat="47.51822" lon="6.71785">
        <ele>428.2</ele>
        <time>2017-02-26T10:13:13.999Z</time>
      </trkpt>
      <trkpt lat="47.5182" lon="6.71782">
        <ele>428.2</ele>
        <time>2017-02-26T10:13:14.999Z</time>
      </trkpt>
      <trkpt lat="47.51817" lon="6.71778">
        <ele>427.8</ele>
        <time>2017-02-26T10:13:16.999Z</time>
      </trkpt>
      <trkpt lat="47.51816" lon="6.71776">
        <ele>427.6</ele>
        <time>2017-02-26T10:13:17.999Z</time>
      </trkpt>
      <trkpt lat="47.51814" lon="6.71771">
        <ele>427.1</ele>
        <time>2017-02-26T10:13:19.999Z</time>
      </trkpt>
      <trkpt lat="47.51813" lon="6.71768">
        <ele>426.8</ele>
        <time>2017-02-26T10:13:20.999Z</time>
      </trkpt>
      <trkpt lat="47.51811" lon="6.71764">
        <ele>426.4</ele>
        <time>2017-02-26T10:13:22.999Z</time>
      </trkpt>
      <trkpt lat="47.5181" lon="6.71761">
        <ele>426.1</ele>
        <time>2017-02-26T10:13:23.999Z</time>
      </trkpt>
      <trkpt lat="47.51809" lon="6.71757">
        <ele>425.3</ele>
        <time>2017-02-26T10:13:25.999Z</time>
      </trkpt>
      <trkpt lat="47.51807" lon="6.71755">
        <ele>425.1</ele>
        <time>2017-02-26T10:13:26.999Z</time>
      </trkpt>
      <trkpt lat="47.51805" lon="6.71751">
        <ele>424.8</ele>
        <time>2017-02-26T10:13:28.999Z</time>
      </trkpt>
      <trkpt lat="47.51804" lon="6.71748">
        <ele>424.8</ele>
        <time>2017-02-26T10:13:29.999Z</time>
      </trkpt>
      <trkpt lat="47.51803" lon="6.71745">
        <ele>425.1</ele>
        <time>2017-02-26T10:13:30.999Z</time>
      </trkpt>
      <trkpt lat="47.51802" lon="6.7174">
        <ele>425.5</ele>
        <time>2017-02-26T10:13:31.999Z</time>
      </trkpt>
      <trkpt lat="47.51801" lon="6.71735">
        <ele>426.1</ele>
        <time>2017-02-26T10:13:33.999Z</time>
      </trkpt>
      <trkpt lat="47.51799" lon="6.71733">
        <ele>426.7</ele>
        <time>2017-02-26T10:13:34.999Z</time>
      </trkpt>
      <trkpt lat="47.51796" lon="6.7173">
        <ele>429</ele>
        <time>2017-02-26T10:13:40.999Z</time>
      </trkpt>
      <trkpt lat="47.51795" lon="6.71728">
        <ele>429.5</ele>
        <time>2017-02-26T10:13:41.999Z</time>
      </trkpt>
      <trkpt lat="47.51794" lon="6.71723">
        <ele>430.1</ele>
        <time>2017-02-26T10:13:42.999Z</time>
      </trkpt>
      <trkpt lat="47.51792" lon="6.71718">
        <ele>430.6</ele>
        <time>2017-02-26T10:13:43.999Z</time>
      </trkpt>
      <trkpt lat="47.51792" lon="6.71712">
        <ele>431.9</ele>
        <time>2017-02-26T10:13:46.999Z</time>
      </trkpt>
      <trkpt lat="47.51791" lon="6.71709">
        <ele>432.4</ele>
        <time>2017-02-26T10:13:47.999Z</time>
      </trkpt>
      <trkpt lat="47.5179" lon="6.71708">
        <ele>433.5</ele>
        <time>2017-02-26T10:13:49.999Z</time>
      </trkpt>
      <trkpt lat="47.51787" lon="6.71705">
        <ele>434</ele>
        <time>2017-02-26T10:13:50.999Z</time>
      </trkpt>
      <trkpt lat="47.51785" lon="6.71701">
        <ele>434.3</ele>
        <time>2017-02-26T10:13:51.999Z</time>
      </trkpt>
      <trkpt lat="47.51783" lon="6.71698">
        <ele>434.6</ele>
        <time>2017-02-26T10:13:52.999Z</time>
      </trkpt>
      <trkpt lat="47.5178" lon="6.71695">
        <ele>435.4</ele>
        <time>2017-02-26T10:13:56.999Z</time>
      </trkpt>
      <trkpt lat="47.51778" lon="6.71693">
        <ele>435.7</ele>
        <time>2017-02-26T10:13:57.999Z</time>
      </trkpt>
      <trkpt lat="47.51774" lon="6.71689">
        <ele>436.8</ele>
        <time>2017-02-26T10:14:03.999Z</time>
      </trkpt>
      <trkpt lat="47.51773" lon="6.71689">
        <ele>437.1</ele>
        <time>2017-02-26T10:14:04.999Z</time>
      </trkpt>
      <trkpt lat="47.51771" lon="6.71685">
        <ele>437</ele>
        <time>2017-02-26T10:14:10.999Z</time>
      </trkpt>
      <trkpt lat="47.5177" lon="6.71683">
        <ele>436.9</ele>
        <time>2017-02-26T10:14:11.999Z</time>
      </trkpt>
      <trkpt lat="47.5177" lon="6.71676">
        <ele>436.8</ele>
        <time>2017-02-26T10:14:13.999Z</time>
      </trkpt>
      <trkpt lat="47.51769" lon="6.71673">
        <ele>436.7</ele>
        <time>2017-02-26T10:14:14.999Z</time>
      </trkpt>
      <trkpt lat="47.51769" lon="6.7167">
        <ele>436.7</ele>
        <time>2017-02-26T10:14:15.999Z</time>
      </trkpt>
      <trkpt lat="47.5177" lon="6.71666">
        <ele>436.8</ele>
        <time>2017-02-26T10:14:16.999Z</time>
      </trkpt>
      <trkpt lat="47.5177" lon="6.7166">
        <ele>434.9</ele>
        <time>2017-02-26T10:14:25.999Z</time>
      </trkpt>
      <trkpt lat="47.51769" lon="6.71659">
        <ele>434.7</ele>
        <time>2017-02-26T10:14:26.999Z</time>
      </trkpt>
      <trkpt lat="47.51766" lon="6.71655">
        <ele>434.2</ele>
        <time>2017-02-26T10:14:29.999Z</time>
      </trkpt>
      <trkpt lat="47.51765" lon="6.71652">
        <ele>433.9</ele>
        <time>2017-02-26T10:14:30.999Z</time>
      </trkpt>
      <trkpt lat="47.51763" lon="6.71648">
        <ele>433.7</ele>
        <time>2017-02-26T10:14:31.999Z</time>
      </trkpt>
      <trkpt lat="47.51762" lon="6.71644">
        <ele>433.7</ele>
        <time>2017-02-26T10:14:32.999Z</time>
      </trkpt>
      <trkpt lat="47.5176" lon="6.71639">
        <ele>435.5</ele>
        <time>2017-02-26T10:14:43.999Z</time>
      </trkpt>
      <trkpt lat="47.51759" lon="6.71638">
        <ele>435.5</ele>
        <time>2017-02-26T10:14:44.999Z</time>
      </trkpt>
      <trkpt lat="47.51758" lon="6.71633">
        <ele>436.1</ele>
        <time>2017-02-26T10:14:54.999Z</time>
      </trkpt>
      <trkpt lat="47.51757" lon="6.71631">
        <ele>436</ele>
        <time>2017-02-26T10:14:55.999Z</time>
      </trkpt>
      <trkpt lat="47.51756" lon="6.71627">
        <ele>434.5</ele>
        <time>2017-02-26T10:14:59.999Z</time>
      </trkpt>
      <trkpt lat="47.51755" lon="6.71624">
        <ele>434.1</ele>
        <time>2017-02-26T10:15:00.999Z</time>
      </trkpt>
      <trkpt lat="47.51753" lon="6.7162">
        <ele>433</ele>
        <time>2017-02-26T10:15:02.999Z</time>
      </trkpt>
      <trkpt lat="47.51747" lon="6.71613">
        <ele>432.5</ele>
        <time>2017-02-26T10:15:03.999Z</time>
      </trkpt>
      <trkpt lat="47.51751" lon="6.7161">
        <ele>428.7</ele>
        <time>2017-02-26T10:15:45.999Z</time>
      </trkpt>
      <trkpt lat="47.51752" lon="6.71612">
        <ele>428.2</ele>
        <time>2017-02-26T10:15:46.999Z</time>
      </trkpt>
      <trkpt lat="47.51756" lon="6.71614">
        <ele>426</ele>
        <time>2017-02-26T10:15:52.999Z</time>
      </trkpt>
      <trkpt lat="47.51757" lon="6.71614">
        <ele>425.8</ele>
        <time>2017-02-26T10:15:53.999Z</time>
      </trkpt>
      <trkpt lat="47.51761" lon="6.71614">
        <ele>427.6</ele>
        <time>2017-02-26T10:16:02.999Z</time>
      </trkpt>
      <trkpt lat="47.51762" lon="6.71614">
        <ele>428.2</ele>
        <time>2017-02-26T10:16:03.999Z</time>
      </trkpt>
      <trkpt lat="47.51765" lon="6.7161">
        <ele>437.2</ele>
        <time>2017-02-26T10:16:19.999Z</time>
      </trkpt>
      <trkpt lat="47.51766" lon="6.71608">
        <ele>438.2</ele>
        <time>2017-02-26T10:16:20.999Z</time>
      </trkpt>
      <trkpt lat="47.51768" lon="6.71606">
        <ele>444.9</ele>
        <time>2017-02-26T10:16:44.999Z</time>
      </trkpt>
      <trkpt lat="47.51769" lon="6.71604">
        <ele>445.1</ele>
        <time>2017-02-26T10:16:45.999Z</time>
      </trkpt>
      <trkpt lat="47.51772" lon="6.71599">
        <ele>448.2</ele>
        <time>2017-02-26T10:16:54.999Z</time>
      </trkpt>
      <trkpt lat="47.51772" lon="6.71598">
        <ele>448.5</ele>
        <time>2017-02-26T10:16:55.999Z</time>
      </trkpt>
      <trkpt lat="47.51771" lon="6.71592">
        <ele>455</ele>
        <time>2017-02-26T10:17:12.999Z</time>
      </trkpt>
      <trkpt lat="47.5177" lon="6.71591">
        <ele>455.4</ele>
        <time>2017-02-26T10:17:13.999Z</time>
      </trkpt>
      <trkpt lat="47.51768" lon="6.71586">
        <ele>458.8</ele>
        <time>2017-02-26T10:17:25.999Z</time>
      </trkpt>
      <trkpt lat="47.51767" lon="6.71586">
        <ele>459.1</ele>
        <time>2017-02-26T10:17:26.999Z</time>
      </trkpt>
      <trkpt lat="47.5177" lon="6.71581">
        <ele>466.3</ele>
        <time>2017-02-26T10:17:48.999Z</time>
      </trkpt>
      <trkpt lat="47.51771" lon="6.7158">
        <ele>466.9</ele>
        <time>2017-02-26T10:17:49.999Z</time>
      </trkpt>
      <trkpt lat="47.51774" lon="6.71576">
        <ele>469</ele>
        <time>2017-02-26T10:17:59.999Z</time>
      </trkpt>
      <trkpt lat="47.51775" lon="6.71576">
        <ele>469.1</ele>
        <time>2017-02-26T10:18:00.999Z</time>
      </trkpt>
      <trkpt lat="47.51777" lon="6.71571">
        <ele>469.3</ele>
        <time>2017-02-26T10:18:08.999Z</time>
      </trkpt>
      <trkpt lat="47.51778" lon="6.7157">
        <ele>469.1</ele>
        <time>2017-02-26T10:18:09.999Z</time>
      </trkpt>
      <trkpt lat="47.5178" lon="6.71565">
        <ele>468.5</ele>
        <time>2017-02-26T10:18:16.999Z</time>
      </trkpt>
      <trkpt lat="47.5178" lon="6.71563">
        <ele>468.4</ele>
        <time>2017-02-26T10:18:17.999Z</time>
      </trkpt>
      <trkpt lat="47.5178" lon="6.71557">
        <ele>466.5</ele>
        <time>2017-02-26T10:18:27.999Z</time>
      </trkpt>
      <trkpt lat="47.51781" lon="6.71555">
        <ele>466</ele>
        <time>2017-02-26T10:18:28.999Z</time>
      </trkpt>
      <trkpt lat="47.51777" lon="6.71552">
        <ele>464.4</ele>
        <time>2017-02-26T10:18:36.999Z</time>
      </trkpt>
      <trkpt lat="47.51777" lon="6.71549">
        <ele>464.3</ele>
        <time>2017-02-26T10:18:37.999Z</time>
      </trkpt>
      <trkpt lat="47.51774" lon="6.71545">
        <ele>464.6</ele>
        <time>2017-02-26T10:18:48.999Z</time>
      </trkpt>
      <trkpt lat="47.51773" lon="6.71543">
        <ele>464.9</ele>
        <time>2017-02-26T10:18:49.999Z</time>
      </trkpt>
      <trkpt lat="47.5177" lon="6.71542">
        <ele>467</ele>
        <time>2017-02-26T10:18:59.999Z</time>
      </trkpt>
      <trkpt lat="47.51769" lon="6.71541">
        <ele>467.3</ele>
        <time>2017-02-26T10:19:00.999Z</time>
      </trkpt>
      <trkpt lat="47.51766" lon="6.71538">
        <ele>468.3</ele>
        <time>2017-02-26T10:19:09.999Z</time>
      </trkpt>
      <trkpt lat="47.51765" lon="6.71534">
        <ele>468.4</ele>
        <time>2017-02-26T10:19:10.999Z</time>
      </trkpt>
      <trkpt lat="47.51762" lon="6.7153">
        <ele>468.6</ele>
        <time>2017-02-26T10:19:14.999Z</time>
      </trkpt>
      <trkpt lat="47.51761" lon="6.71527">
        <ele>468.6</ele>
        <time>2017-02-26T10:19:15.999Z</time>
      </trkpt>
      <trkpt lat="47.51759" lon="6.71523">
        <ele>468.7</ele>
        <time>2017-02-26T10:19:17.999Z</time>
      </trkpt>
      <trkpt lat="47.51758" lon="6.71521">
        <ele>468.8</ele>
        <time>2017-02-26T10:19:18.999Z</time>
      </trkpt>
      <trkpt lat="47.51756" lon="6.71515">
        <ele>468.3</ele>
        <time>2017-02-26T10:19:23.999Z</time>
      </trkpt>
      <trkpt lat="47.51756" lon="6.71515">
        <ele>468.2</ele>
        <time>2017-02-26T10:19:24.999Z</time>
      </trkpt>
      <trkpt lat="47.51754" lon="6.71509">
        <ele>465.3</ele>
        <time>2017-02-26T10:19:38.999Z</time>
      </trkpt>
      <trkpt lat="47.51754" lon="6.71509">
        <ele>464.9</ele>
        <time>2017-02-26T10:19:39.999Z</time>
      </trkpt>
      <trkpt lat="47.5175" lon="6.71506">
        <ele>463.1</ele>
        <time>2017-02-26T10:19:45.999Z</time>
      </trkpt>
      <trkpt lat="47.51749" lon="6.71505">
        <ele>463</ele>
        <time>2017-02-26T10:19:46.999Z</time>
      </trkpt>
      <trkpt lat="47.51748" lon="6.71499">
        <ele>463.5</ele>
        <time>2017-02-26T10:19:54.999Z</time>
      </trkpt>
      <trkpt lat="47.5175" lon="6.71495">
        <ele>463.8</ele>
        <time>2017-02-26T10:19:55.999Z</time>
      </trkpt>
      <trkpt lat="47.51752" lon="6.71492">
        <ele>464.2</ele>
        <time>2017-02-26T10:19:56.999Z</time>
      </trkpt>
      <trkpt lat="47.51752" lon="6.71489">
        <ele>464.4</ele>
        <time>2017-02-26T10:19:57.999Z</time>
      </trkpt>
      <trkpt lat="47.51751" lon="6.71484">
        <ele>465.9</ele>
        <time>2017-02-26T10:20:04.999Z</time>
      </trkpt>
      <trkpt lat="47.5175" lon="6.71482">
        <ele>466.1</ele>
        <time>2017-02-26T10:20:05.999Z</time>
      </trkpt>
      <trkpt lat="47.51748" lon="6.71477">
        <ele>466.8</ele>
        <time>2017-02-26T10:20:17.999Z</time>
      </trkpt>
      <trkpt lat="47.51748" lon="6.71475">
        <ele>466.7</ele>
        <time>2017-02-26T10:20:18.999Z</time>
      </trkpt>
      <trkpt lat="47.51746" lon="6.71472">
        <ele>464.1</ele>
        <time>2017-02-26T10:20:34.999Z</time>
      </trkpt>
      <trkpt lat="47.51744" lon="6.71469">
        <ele>464</ele>
        <time>2017-02-26T10:20:35.999Z</time>
      </trkpt>
      <trkpt lat="47.51742" lon="6.7146">
        <ele>463.8</ele>
        <time>2017-02-26T10:20:36.999Z</time>
      </trkpt>
      <trkpt lat="47.51739" lon="6.7145">
        <ele>463.6</ele>
        <time>2017-02-26T10:20:37.999Z</time>
      </trkpt>
      <trkpt lat="47.51736" lon="6.71441">
        <ele>463.7</ele>
        <time>2017-02-26T10:20:38.999Z</time>
      </trkpt>
      <trkpt lat="47.51734" lon="6.71435">
        <ele>463.9</ele>
        <time>2017-02-26T10:20:39.999Z</time>
      </trkpt>
      <trkpt lat="47.51732" lon="6.71431">
        <ele>464.8</ele>
        <time>2017-02-26T10:20:48.999Z</time>
      </trkpt>
      <trkpt lat="47.51731" lon="6.7143">
        <ele>464.9</ele>
        <time>2017-02-26T10:20:49.999Z</time>
      </trkpt>
      <trkpt lat="47.5173" lon="6.71426">
        <ele>464.9</ele>
        <time>2017-02-26T10:20:50.999Z</time>
      </trkpt>
      <trkpt lat="47.51729" lon="6.71422">
        <ele>465</ele>
        <time>2017-02-26T10:20:51.999Z</time>
      </trkpt>
      <trkpt lat="47.51726" lon="6.71416">
        <ele>465.7</ele>
        <time>2017-02-26T10:20:56.999Z</time>
      </trkpt>
      <trkpt lat="47.51724" lon="6.71411">
        <ele>466</ele>
        <time>2017-02-26T10:20:57.999Z</time>
      </trkpt>
      <trkpt lat="47.51723" lon="6.71406">
        <ele>466.4</ele>
        <time>2017-02-26T10:20:58.999Z</time>
      </trkpt>
      <trkpt lat="47.51721" lon="6.71403">
        <ele>466.6</ele>
        <time>2017-02-26T10:20:59.999Z</time>
      </trkpt>
      <trkpt lat="47.51722" lon="6.71399">
        <ele>466.4</ele>
        <time>2017-02-26T10:21:03.999Z</time>
      </trkpt>
      <trkpt lat="47.51722" lon="6.71395">
        <ele>466.4</ele>
        <time>2017-02-26T10:21:04.999Z</time>
      </trkpt>
      <trkpt lat="47.51719" lon="6.71391">
        <ele>467</ele>
        <time>2017-02-26T10:21:09.999Z</time>
      </trkpt>
      <trkpt lat="47.51717" lon="6.71391">
        <ele>467</ele>
        <time>2017-02-26T10:21:10.999Z</time>
      </trkpt>
      <trkpt lat="47.51714" lon="6.71394">
        <ele>466.6</ele>
        <time>2017-02-26T10:21:12.999Z</time>
      </trkpt>
      <trkpt lat="47.51713" lon="6.71396">
        <ele>466.5</ele>
        <time>2017-02-26T10:21:13.999Z</time>
      </trkpt>
      <trkpt lat="47.51711" lon="6.71401">
        <ele>466.1</ele>
        <time>2017-02-26T10:21:17.999Z</time>
      </trkpt>
      <trkpt lat="47.5171" lon="6.71402">
        <ele>466.3</ele>
        <time>2017-02-26T10:21:18.999Z</time>
      </trkpt>
      <trkpt lat="47.51707" lon="6.71403">
        <ele>466.6</ele>
        <time>2017-02-26T10:21:20.999Z</time>
      </trkpt>
      <trkpt lat="47.51705" lon="6.71404">
        <ele>466.7</ele>
        <time>2017-02-26T10:21:21.999Z</time>
      </trkpt>
      <trkpt lat="47.51702" lon="6.71408">
        <ele>466.7</ele>
        <time>2017-02-26T10:21:25.999Z</time>
      </trkpt>
      <trkpt lat="47.517" lon="6.71409">
        <ele>466.7</ele>
        <time>2017-02-26T10:21:26.999Z</time>
      </trkpt>
      <trkpt lat="47.51697" lon="6.71411">
        <ele>466.5</ele>
        <time>2017-02-26T10:21:28.999Z</time>
      </trkpt>
      <trkpt lat="47.51696" lon="6.71412">
        <ele>466.5</ele>
        <time>2017-02-26T10:21:29.999Z</time>
      </trkpt>
      <trkpt lat="47.51693" lon="6.71415">
        <ele>466.3</ele>
        <time>2017-02-26T10:21:31.999Z</time>
      </trkpt>
      <trkpt lat="47.51691" lon="6.71416">
        <ele>465.9</ele>
        <time>2017-02-26T10:21:32.999Z</time>
      </trkpt>
      <trkpt lat="47.51688" lon="6.71418">
        <ele>465.2</ele>
        <time>2017-02-26T10:21:34.999Z</time>
      </trkpt>
      <trkpt lat="47.51686" lon="6.71419">
        <ele>465</ele>
        <time>2017-02-26T10:21:35.999Z</time>
      </trkpt>
      <trkpt lat="47.51684" lon="6.71421">
        <ele>464.9</ele>
        <time>2017-02-26T10:21:36.999Z</time>
      </trkpt>
      <trkpt lat="47.51682" lon="6.71423">
        <ele>464.9</ele>
        <time>2017-02-26T10:21:37.999Z</time>
      </trkpt>
      <trkpt lat="47.5168" lon="6.71425">
        <ele>464.9</ele>
        <time>2017-02-26T10:21:38.999Z</time>
      </trkpt>
      <trkpt lat="47.51677" lon="6.71428">
        <ele>464.9</ele>
        <time>2017-02-26T10:21:39.999Z</time>
      </trkpt>
      <trkpt lat="47.51675" lon="6.71429">
        <ele>464.9</ele>
        <time>2017-02-26T10:21:40.999Z</time>
      </trkpt>
      <trkpt lat="47.51672" lon="6.7143">
        <ele>464.9</ele>
        <time>2017-02-26T10:21:41.999Z</time>
      </trkpt>
      <trkpt lat="47.5167" lon="6.71432">
        <ele>464.9</ele>
        <time>2017-02-26T10:21:42.999Z</time>
      </trkpt>
      <trkpt lat="47.51667" lon="6.71433">
        <ele>464.9</ele>
        <time>2017-02-26T10:21:43.999Z</time>
      </trkpt>
      <trkpt lat="47.51664" lon="6.71435">
        <ele>464.9</ele>
        <time>2017-02-26T10:21:44.999Z</time>
      </trkpt>
      <trkpt lat="47.51661" lon="6.71437">
        <ele>464.8</ele>
        <time>2017-02-26T10:21:45.999Z</time>
      </trkpt>
      <trkpt lat="47.51658" lon="6.7144">
        <ele>464.6</ele>
        <time>2017-02-26T10:21:47.999Z</time>
      </trkpt>
      <trkpt lat="47.51656" lon="6.71443">
        <ele>464.5</ele>
        <time>2017-02-26T10:21:48.999Z</time>
      </trkpt>
      <trkpt lat="47.51653" lon="6.71445">
        <ele>464.5</ele>
        <time>2017-02-26T10:21:49.999Z</time>
      </trkpt>
      <trkpt lat="47.51649" lon="6.71447">
        <ele>464.5</ele>
        <time>2017-02-26T10:21:50.999Z</time>
      </trkpt>
      <trkpt lat="47.51645" lon="6.71448">
        <ele>464.5</ele>
        <time>2017-02-26T10:21:51.999Z</time>
      </trkpt>
      <trkpt lat="47.51642" lon="6.71449">
        <ele>464.5</ele>
        <time>2017-02-26T10:21:52.999Z</time>
      </trkpt>
      <trkpt lat="47.51639" lon="6.71451">
        <ele>464.4</ele>
        <time>2017-02-26T10:21:53.999Z</time>
      </trkpt>
      <trkpt lat="47.51638" lon="6.71452">
        <ele>464.4</ele>
        <time>2017-02-26T10:21:54.999Z</time>
      </trkpt>
      <trkpt lat="47.51634" lon="6.71454">
        <ele>464.2</ele>
        <time>2017-02-26T10:21:57.999Z</time>
      </trkpt>
      <trkpt lat="47.51633" lon="6.71454">
        <ele>464.1</ele>
        <time>2017-02-26T10:21:58.999Z</time>
      </trkpt>
      <trkpt lat="47.5163" lon="6.71459">
        <ele>463.2</ele>
        <time>2017-02-26T10:22:02.999Z</time>
      </trkpt>
      <trkpt lat="47.51629" lon="6.71459">
        <ele>463</ele>
        <time>2017-02-26T10:22:03.999Z</time>
      </trkpt>
      <trkpt lat="47.51625" lon="6.71457">
        <ele>462.7</ele>
        <time>2017-02-26T10:22:04.999Z</time>
      </trkpt>
      <trkpt lat="47.51618" lon="6.71453">
        <ele>462.3</ele>
        <time>2017-02-26T10:22:05.999Z</time>
      </trkpt>
      <trkpt lat="47.51611" lon="6.71454">
        <ele>462</ele>
        <time>2017-02-26T10:22:06.999Z</time>
      </trkpt>
      <trkpt lat="47.51606" lon="6.71456">
        <ele>461.8</ele>
        <time>2017-02-26T10:22:07.999Z</time>
      </trkpt>
      <trkpt lat="47.51601" lon="6.71457">
        <ele>461.5</ele>
        <time>2017-02-26T10:22:08.999Z</time>
      </trkpt>
      <trkpt lat="47.51597" lon="6.71457">
        <ele>461.3</ele>
        <time>2017-02-26T10:22:09.999Z</time>
      </trkpt>
      <trkpt lat="47.51591" lon="6.71457">
        <ele>461</ele>
        <time>2017-02-26T10:22:10.999Z</time>
      </trkpt>
      <trkpt lat="47.51585" lon="6.71456">
        <ele>460.7</ele>
        <time>2017-02-26T10:22:11.999Z</time>
      </trkpt>
      <trkpt lat="47.51578" lon="6.71455">
        <ele>458.6</ele>
        <time>2017-02-26T10:22:12.999Z</time>
      </trkpt>
      <trkpt lat="47.51574" lon="6.71454">
        <ele>458.4</ele>
        <time>2017-02-26T10:22:13.999Z</time>
      </trkpt>
      <trkpt lat="47.5157" lon="6.71452">
        <ele>458.2</ele>
        <time>2017-02-26T10:22:14.999Z</time>
      </trkpt>
      <trkpt lat="47.51566" lon="6.71451">
        <ele>457.8</ele>
        <time>2017-02-26T10:22:15.999Z</time>
      </trkpt>
      <trkpt lat="47.51563" lon="6.7145">
        <ele>457.6</ele>
        <time>2017-02-26T10:22:16.999Z</time>
      </trkpt>
      <trkpt lat="47.51559" lon="6.71447">
        <ele>457.5</ele>
        <time>2017-02-26T10:22:17.999Z</time>
      </trkpt>
      <trkpt lat="47.51557" lon="6.71443">
        <ele>457.3</ele>
        <time>2017-02-26T10:22:18.999Z</time>
      </trkpt>
      <trkpt lat="47.51553" lon="6.71441">
        <ele>457.2</ele>
        <time>2017-02-26T10:22:19.999Z</time>
      </trkpt>
      <trkpt lat="47.51548" lon="6.7144">
        <ele>457</ele>
        <time>2017-02-26T10:22:20.999Z</time>
      </trkpt>
      <trkpt lat="47.51547" lon="6.71439">
        <ele>456.7</ele>
        <time>2017-02-26T10:22:21.999Z</time>
      </trkpt>
      <trkpt lat="47.51545" lon="6.7144">
        <ele>456.5</ele>
        <time>2017-02-26T10:22:22.999Z</time>
      </trkpt>
      <trkpt lat="47.51542" lon="6.71441">
        <ele>456.5</ele>
        <time>2017-02-26T10:22:23.999Z</time>
      </trkpt>
      <trkpt lat="47.51539" lon="6.71443">
        <ele>456.5</ele>
        <time>2017-02-26T10:22:25.999Z</time>
      </trkpt>
      <trkpt lat="47.51537" lon="6.71444">
        <ele>456.6</ele>
        <time>2017-02-26T10:22:26.999Z</time>
      </trkpt>
      <trkpt lat="47.51533" lon="6.71445">
        <ele>456.9</ele>
        <time>2017-02-26T10:22:28.999Z</time>
      </trkpt>
      <trkpt lat="47.51532" lon="6.71446">
        <ele>456.9</ele>
        <time>2017-02-26T10:22:29.999Z</time>
      </trkpt>
      <trkpt lat="47.51528" lon="6.71447">
        <ele>457.4</ele>
        <time>2017-02-26T10:22:31.999Z</time>
      </trkpt>
      <trkpt lat="47.51526" lon="6.71446">
        <ele>457.6</ele>
        <time>2017-02-26T10:22:32.999Z</time>
      </trkpt>
      <trkpt lat="47.51522" lon="6.71449">
        <ele>461.3</ele>
        <time>2017-02-26T10:22:41.999Z</time>
      </trkpt>
      <trkpt lat="47.51522" lon="6.71448">
        <ele>461.9</ele>
        <time>2017-02-26T10:22:42.999Z</time>
      </trkpt>
      <trkpt lat="47.51519" lon="6.71446">
        <ele>462.6</ele>
        <time>2017-02-26T10:22:44.999Z</time>
      </trkpt>
      <trkpt lat="47.51517" lon="6.71445">
        <ele>462.8</ele>
        <time>2017-02-26T10:22:45.999Z</time>
      </trkpt>
      <trkpt lat="47.51514" lon="6.71444">
        <ele>464.2</ele>
        <time>2017-02-26T10:22:49.999Z</time>
      </trkpt>
      <trkpt lat="47.51512" lon="6.71444">
        <ele>464.4</ele>
        <time>2017-02-26T10:22:50.999Z</time>
      </trkpt>
      <trkpt lat="47.51507" lon="6.71442">
        <ele>464.8</ele>
        <time>2017-02-26T10:22:52.999Z</time>
      </trkpt>
      <trkpt lat="47.51505" lon="6.71441">
        <ele>465.3</ele>
        <time>2017-02-26T10:22:53.999Z</time>
      </trkpt>
      <trkpt lat="47.51503" lon="6.71438">
        <ele>466.7</ele>
        <time>2017-02-26T10:22:57.999Z</time>
      </trkpt>
      <trkpt lat="47.515" lon="6.71437">
        <ele>466.9</ele>
        <time>2017-02-26T10:22:58.999Z</time>
      </trkpt>
      <trkpt lat="47.51496" lon="6.71438">
        <ele>468.2</ele>
        <time>2017-02-26T10:23:01.999Z</time>
      </trkpt>
      <trkpt lat="47.51493" lon="6.71438">
        <ele>468.4</ele>
        <time>2017-02-26T10:23:02.999Z</time>
      </trkpt>
      <trkpt lat="47.51489" lon="6.7144">
        <ele>468.1</ele>
        <time>2017-02-26T10:23:04.999Z</time>
      </trkpt>
      <trkpt lat="47.51485" lon="6.71441">
        <ele>467.7</ele>
        <time>2017-02-26T10:23:05.999Z</time>
      </trkpt>
      <trkpt lat="47.51482" lon="6.71441">
        <ele>466.6</ele>
        <time>2017-02-26T10:23:10.999Z</time>
      </trkpt>
      <trkpt lat="47.51478" lon="6.71441">
        <ele>466.4</ele>
        <time>2017-02-26T10:23:11.999Z</time>
      </trkpt>
      <trkpt lat="47.51474" lon="6.7144">
        <ele>465.9</ele>
        <time>2017-02-26T10:23:20.999Z</time>
      </trkpt>
      <trkpt lat="47.51474" lon="6.71439">
        <ele>465.7</ele>
        <time>2017-02-26T10:23:21.999Z</time>
      </trkpt>
      <trkpt lat="47.51472" lon="6.71439">
        <ele>465.5</ele>
        <time>2017-02-26T10:23:24.999Z</time>
      </trkpt>
      <trkpt lat="47.51469" lon="6.71437">
        <ele>465.7</ele>
        <time>2017-02-26T10:23:25.999Z</time>
      </trkpt>
      <trkpt lat="47.51466" lon="6.71435">
        <ele>463.3</ele>
        <time>2017-02-26T10:25:23.000Z</time>
      </trkpt>
      <trkpt lat="47.51464" lon="6.71435">
        <ele>463.2</ele>
        <time>2017-02-26T10:25:24.000Z</time>
      </trkpt>
      <trkpt lat="47.51459" lon="6.71436">
        <ele>463</ele>
        <time>2017-02-26T10:25:25.000Z</time>
      </trkpt>
      <trkpt lat="47.51457" lon="6.71435">
        <ele>462.2</ele>
        <time>2017-02-26T10:25:30.000Z</time>
      </trkpt>
      <trkpt lat="47.51453" lon="6.71435">
        <ele>462.1</ele>
        <time>2017-02-26T10:25:31.000Z</time>
      </trkpt>
      <trkpt lat="47.51451" lon="6.71434">
        <ele>462.1</ele>
        <time>2017-02-26T10:25:32.000Z</time>
      </trkpt>
      <trkpt lat="47.51447" lon="6.71434">
        <ele>462.2</ele>
        <time>2017-02-26T10:25:33.000Z</time>
      </trkpt>
      <trkpt lat="47.51444" lon="6.71436">
        <ele>467.8</ele>
        <time>2017-02-26T10:25:46.000Z</time>
      </trkpt>
      <trkpt lat="47.51441" lon="6.71436">
        <ele>468.4</ele>
        <time>2017-02-26T10:25:47.000Z</time>
      </trkpt>
      <trkpt lat="47.51438" lon="6.71436">
        <ele>469</ele>
        <time>2017-02-26T10:25:48.000Z</time>
      </trkpt>
      <trkpt lat="47.51436" lon="6.71434">
        <ele>469.4</ele>
        <time>2017-02-26T10:25:49.000Z</time>
      </trkpt>
      <trkpt lat="47.51431" lon="6.71433">
        <ele>471.4</ele>
        <time>2017-02-26T10:25:55.000Z</time>
      </trkpt>
      <trkpt lat="47.5143" lon="6.71432">
        <ele>471.6</ele>
        <time>2017-02-26T10:25:56.000Z</time>
      </trkpt>
      <trkpt lat="47.5143" lon="6.71432">
        <ele>472.1</ele>
        <time>2017-02-26T10:26:00.000Z</time>
      </trkpt>
      <trkpt lat="47.51424" lon="6.71431">
        <ele>472.1</ele>
        <time>2017-02-26T10:26:01.000Z</time>
      </trkpt>
      <trkpt lat="47.5142" lon="6.71431">
        <ele>472.3</ele>
        <time>2017-02-26T10:26:02.000Z</time>
      </trkpt>
      <trkpt lat="47.51417" lon="6.7143">
        <ele>472.3</ele>
        <time>2017-02-26T10:26:03.000Z</time>
      </trkpt>
      <trkpt lat="47.51414" lon="6.71429">
        <ele>472.3</ele>
        <time>2017-02-26T10:26:04.000Z</time>
      </trkpt>
      <trkpt lat="47.51412" lon="6.71429">
        <ele>472.3</ele>
        <time>2017-02-26T10:26:05.000Z</time>
      </trkpt>
      <trkpt lat="47.51409" lon="6.71428">
        <ele>472.1</ele>
        <time>2017-02-26T10:26:06.000Z</time>
      </trkpt>
      <trkpt lat="47.51407" lon="6.71426">
        <ele>472.1</ele>
        <time>2017-02-26T10:26:07.000Z</time>
      </trkpt>
      <trkpt lat="47.51404" lon="6.71425">
        <ele>472.5</ele>
        <time>2017-02-26T10:26:10.000Z</time>
      </trkpt>
      <trkpt lat="47.51402" lon="6.71424">
        <ele>472.7</ele>
        <time>2017-02-26T10:26:11.000Z</time>
      </trkpt>
      <trkpt lat="47.51398" lon="6.71422">
        <ele>474.7</ele>
        <time>2017-02-26T10:26:16.000Z</time>
      </trkpt>
      <trkpt lat="47.51398" lon="6.7142">
        <ele>475.3</ele>
        <time>2017-02-26T10:26:17.000Z</time>
      </trkpt>
      <trkpt lat="47.51397" lon="6.71417">
        <ele>475.9</ele>
        <time>2017-02-26T10:26:18.000Z</time>
      </trkpt>
      <trkpt lat="47.51394" lon="6.71415">
        <ele>476.5</ele>
        <time>2017-02-26T10:26:19.000Z</time>
      </trkpt>
      <trkpt lat="47.51391" lon="6.71415">
        <ele>477.5</ele>
        <time>2017-02-26T10:26:22.000Z</time>
      </trkpt>
      <trkpt lat="47.51389" lon="6.71415">
        <ele>477.9</ele>
        <time>2017-02-26T10:26:23.000Z</time>
      </trkpt>
      <trkpt lat="47.51386" lon="6.71414">
        <ele>481</ele>
        <time>2017-02-26T10:26:29.000Z</time>
      </trkpt>
      <trkpt lat="47.51384" lon="6.71412">
        <ele>481.3</ele>
        <time>2017-02-26T10:26:30.000Z</time>
      </trkpt>
      <trkpt lat="47.5138" lon="6.7141">
        <ele>481.7</ele>
        <time>2017-02-26T10:26:33.000Z</time>
      </trkpt>
      <trkpt lat="47.51377" lon="6.71408">
        <ele>481.9</ele>
        <time>2017-02-26T10:26:34.000Z</time>
      </trkpt>
      <trkpt lat="47.51374" lon="6.71405">
        <ele>482.5</ele>
        <time>2017-02-26T10:26:39.000Z</time>
      </trkpt>
      <trkpt lat="47.51371" lon="6.71404">
        <ele>482.7</ele>
        <time>2017-02-26T10:26:40.000Z</time>
      </trkpt>
      <trkpt lat="47.5137" lon="6.71401">
        <ele>483</ele>
        <time>2017-02-26T10:26:42.000Z</time>
      </trkpt>
      <trkpt lat="47.51368" lon="6.71398">
        <ele>483.1</ele>
        <time>2017-02-26T10:26:43.000Z</time>
      </trkpt>
      <trkpt lat="47.51364" lon="6.71399">
        <ele>485.6</ele>
        <time>2017-02-26T10:26:52.000Z</time>
      </trkpt>
      <trkpt lat="47.51362" lon="6.71397">
        <ele>486</ele>
        <time>2017-02-26T10:26:53.000Z</time>
      </trkpt>
      <trkpt lat="47.51357" lon="6.71396">
        <ele>486.4</ele>
        <time>2017-02-26T10:26:54.000Z</time>
      </trkpt>
      <trkpt lat="47.51354" lon="6.71392">
        <ele>487.8</ele>
        <time>2017-02-26T10:26:59.000Z</time>
      </trkpt>
      <trkpt lat="47.51351" lon="6.71391">
        <ele>488.1</ele>
        <time>2017-02-26T10:27:00.000Z</time>
      </trkpt>
      <trkpt lat="47.51347" lon="6.7139">
        <ele>488.4</ele>
        <time>2017-02-26T10:27:03.000Z</time>
      </trkpt>
      <trkpt lat="47.51346" lon="6.7139">
        <ele>488.5</ele>
        <time>2017-02-26T10:27:04.000Z</time>
      </trkpt>
      <trkpt lat="47.51342" lon="6.7139">
        <ele>489.3</ele>
        <time>2017-02-26T10:27:11.000Z</time>
      </trkpt>
      <trkpt lat="47.51337" lon="6.71389">
        <ele>489.4</ele>
        <time>2017-02-26T10:27:12.000Z</time>
      </trkpt>
      <trkpt lat="47.51333" lon="6.71387">
        <ele>489.7</ele>
        <time>2017-02-26T10:27:17.000Z</time>
      </trkpt>
      <trkpt lat="47.51329" lon="6.71387">
        <ele>490</ele>
        <time>2017-02-26T10:27:18.000Z</time>
      </trkpt>
      <trkpt lat="47.51326" lon="6.71387">
        <ele>490.1</ele>
        <time>2017-02-26T10:27:19.000Z</time>
      </trkpt>
      <trkpt lat="47.51324" lon="6.71385">
        <ele>490.2</ele>
        <time>2017-02-26T10:27:20.000Z</time>
      </trkpt>
      <trkpt lat="47.51321" lon="6.71385">
        <ele>490.3</ele>
        <time>2017-02-26T10:27:24.000Z</time>
      </trkpt>
      <trkpt lat="47.51319" lon="6.71386">
        <ele>490.3</ele>
        <time>2017-02-26T10:27:25.000Z</time>
      </trkpt>
      <trkpt lat="47.51315" lon="6.71384">
        <ele>491</ele>
        <time>2017-02-26T10:27:30.000Z</time>
      </trkpt>
      <trkpt lat="47.51313" lon="6.71383">
        <ele>491.2</ele>
        <time>2017-02-26T10:27:31.000Z</time>
      </trkpt>
      <trkpt lat="47.5131" lon="6.71382">
        <ele>491.3</ele>
        <time>2017-02-26T10:27:32.000Z</time>
      </trkpt>
      <trkpt lat="47.51307" lon="6.71382">
        <ele>491.3</ele>
        <time>2017-02-26T10:27:33.000Z</time>
      </trkpt>
      <trkpt lat="47.51303" lon="6.7138">
        <ele>491.3</ele>
        <time>2017-02-26T10:27:37.000Z</time>
      </trkpt>
      <trkpt lat="47.51301" lon="6.71379">
        <ele>491.2</ele>
        <time>2017-02-26T10:27:38.000Z</time>
      </trkpt>
      <trkpt lat="47.51298" lon="6.7138">
        <ele>491.2</ele>
        <time>2017-02-26T10:27:39.000Z</time>
      </trkpt>
      <trkpt lat="47.51295" lon="6.7138">
        <ele>491.3</ele>
        <time>2017-02-26T10:27:40.000Z</time>
      </trkpt>
      <trkpt lat="47.51291" lon="6.7138">
        <ele>491.4</ele>
        <time>2017-02-26T10:27:43.000Z</time>
      </trkpt>
      <trkpt lat="47.51289" lon="6.71379">
        <ele>491.3</ele>
        <time>2017-02-26T10:27:44.000Z</time>
      </trkpt>
      <trkpt lat="47.51285" lon="6.7138">
        <ele>491</ele>
        <time>2017-02-26T10:27:48.000Z</time>
      </trkpt>
      <trkpt lat="47.51283" lon="6.71378">
        <ele>491</ele>
        <time>2017-02-26T10:27:49.000Z</time>
      </trkpt>
      <trkpt lat="47.51281" lon="6.71376">
        <ele>491.1</ele>
        <time>2017-02-26T10:27:51.000Z</time>
      </trkpt>
      <trkpt lat="47.51279" lon="6.71376">
        <ele>491.2</ele>
        <time>2017-02-26T10:27:52.000Z</time>
      </trkpt>
      <trkpt lat="47.51277" lon="6.71376">
        <ele>491.6</ele>
        <time>2017-02-26T10:27:55.000Z</time>
      </trkpt>
      <trkpt lat="47.51274" lon="6.71375">
        <ele>491.9</ele>
        <time>2017-02-26T10:27:56.000Z</time>
      </trkpt>
      <trkpt lat="47.5127" lon="6.71374">
        <ele>492.3</ele>
        <time>2017-02-26T10:27:57.000Z</time>
      </trkpt>
      <trkpt lat="47.51267" lon="6.71373">
        <ele>492.7</ele>
        <time>2017-02-26T10:27:58.000Z</time>
      </trkpt>
      <trkpt lat="47.51264" lon="6.71372">
        <ele>493.2</ele>
        <time>2017-02-26T10:27:59.000Z</time>
      </trkpt>
      <trkpt lat="47.51261" lon="6.71371">
        <ele>493.6</ele>
        <time>2017-02-26T10:28:00.000Z</time>
      </trkpt>
      <trkpt lat="47.51258" lon="6.71371">
        <ele>495.4</ele>
        <time>2017-02-26T10:28:06.000Z</time>
      </trkpt>
      <trkpt lat="47.51256" lon="6.71372">
        <ele>495.6</ele>
        <time>2017-02-26T10:28:07.000Z</time>
      </trkpt>
      <trkpt lat="47.51252" lon="6.7137">
        <ele>494.9</ele>
        <time>2017-02-26T10:28:31.000Z</time>
      </trkpt>
      <trkpt lat="47.51247" lon="6.71371">
        <ele>495</ele>
        <time>2017-02-26T10:28:32.000Z</time>
      </trkpt>
      <trkpt lat="47.51245" lon="6.71374">
        <ele>491.9</ele>
        <time>2017-02-26T10:33:40.000Z</time>
      </trkpt>
      <trkpt lat="47.51244" lon="6.71376">
        <ele>491.8</ele>
        <time>2017-02-26T10:33:41.000Z</time>
      </trkpt>
      <trkpt lat="47.51244" lon="6.71382">
        <ele>491.8</ele>
        <time>2017-02-26T10:33:43.000Z</time>
      </trkpt>
      <trkpt lat="47.51243" lon="6.71385">
        <ele>491.8</ele>
        <time>2017-02-26T10:33:44.000Z</time>
      </trkpt>
      <trkpt lat="47.51244" lon="6.71389">
        <ele>491.9</ele>
        <time>2017-02-26T10:33:46.000Z</time>
      </trkpt>
      <trkpt lat="47.51246" lon="6.71394">
        <ele>492</ele>
        <time>2017-02-26T10:33:47.000Z</time>
      </trkpt>
      <trkpt lat="47.51246" lon="6.71398">
        <ele>492.1</ele>
        <time>2017-02-26T10:33:48.000Z</time>
      </trkpt>
      <trkpt lat="47.51247" lon="6.71404">
        <ele>492.2</ele>
        <time>2017-02-26T10:33:49.000Z</time>
      </trkpt>
      <trkpt lat="47.51248" lon="6.71412">
        <ele>492.3</ele>
        <time>2017-02-26T10:33:50.000Z</time>
      </trkpt>
      <trkpt lat="47.51248" lon="6.7142">
        <ele>492.5</ele>
        <time>2017-02-26T10:33:51.000Z</time>
      </trkpt>
      <trkpt lat="47.51248" lon="6.71424">
        <ele>492.7</ele>
        <time>2017-02-26T10:33:52.000Z</time>
      </trkpt>
      <trkpt lat="47.51248" lon="6.71431">
        <ele>492.8</ele>
        <time>2017-02-26T10:33:53.000Z</time>
      </trkpt>
      <trkpt lat="47.51247" lon="6.71437">
        <ele>492.8</ele>
        <time>2017-02-26T10:33:54.000Z</time>
      </trkpt>
      <trkpt lat="47.51246" lon="6.71442">
        <ele>492.9</ele>
        <time>2017-02-26T10:33:55.000Z</time>
      </trkpt>
      <trkpt lat="47.51247" lon="6.71445">
        <ele>493.3</ele>
        <time>2017-02-26T10:33:57.000Z</time>
      </trkpt>
      <trkpt lat="47.51247" lon="6.71449">
        <ele>493.4</ele>
        <time>2017-02-26T10:33:58.000Z</time>
      </trkpt>
      <trkpt lat="47.51246" lon="6.71453">
        <ele>493.5</ele>
        <time>2017-02-26T10:33:59.000Z</time>
      </trkpt>
      <trkpt lat="47.51245" lon="6.71456">
        <ele>493.5</ele>
        <time>2017-02-26T10:34:00.000Z</time>
      </trkpt>
      <trkpt lat="47.51244" lon="6.71461">
        <ele>493.4</ele>
        <time>2017-02-26T10:34:01.000Z</time>
      </trkpt>
      <trkpt lat="47.51243" lon="6.71463">
        <ele>493.4</ele>
        <time>2017-02-26T10:34:02.000Z</time>
      </trkpt>
      <trkpt lat="47.51242" lon="6.71467">
        <ele>493.3</ele>
        <time>2017-02-26T10:34:03.000Z</time>
      </trkpt>
      <trkpt lat="47.51239" lon="6.71471">
        <ele>493.3</ele>
        <time>2017-02-26T10:34:04.000Z</time>
      </trkpt>
      <trkpt lat="47.51238" lon="6.71476">
        <ele>493.3</ele>
        <time>2017-02-26T10:34:05.000Z</time>
      </trkpt>
      <trkpt lat="47.51239" lon="6.71483">
        <ele>493.5</ele>
        <time>2017-02-26T10:34:06.000Z</time>
      </trkpt>
      <trkpt lat="47.51239" lon="6.71488">
        <ele>493.5</ele>
        <time>2017-02-26T10:34:07.000Z</time>
      </trkpt>
      <trkpt lat="47.51239" lon="6.71491">
        <ele>493.4</ele>
        <time>2017-02-26T10:34:08.000Z</time>
      </trkpt>
      <trkpt lat="47.51238" lon="6.71495">
        <ele>493.4</ele>
        <time>2017-02-26T10:34:09.000Z</time>
      </trkpt>
      <trkpt lat="47.51239" lon="6.71501">
        <ele>493.4</ele>
        <time>2017-02-26T10:34:10.000Z</time>
      </trkpt>
      <trkpt lat="47.51239" lon="6.71507">
        <ele>493.5</ele>
        <time>2017-02-26T10:34:11.000Z</time>
      </trkpt>
      <trkpt lat="47.51239" lon="6.71513">
        <ele>493.7</ele>
        <time>2017-02-26T10:34:12.000Z</time>
      </trkpt>
      <trkpt lat="47.51239" lon="6.71517">
        <ele>493.9</ele>
        <time>2017-02-26T10:34:13.000Z</time>
      </trkpt>
      <trkpt lat="47.51237" lon="6.71522">
        <ele>493.9</ele>
        <time>2017-02-26T10:34:14.000Z</time>
      </trkpt>
      <trkpt lat="47.51237" lon="6.71527">
        <ele>494.1</ele>
        <time>2017-02-26T10:34:15.000Z</time>
      </trkpt>
      <trkpt lat="47.51236" lon="6.71533">
        <ele>494.1</ele>
        <time>2017-02-26T10:34:16.000Z</time>
      </trkpt>
      <trkpt lat="47.51236" lon="6.71538">
        <ele>494.2</ele>
        <time>2017-02-26T10:34:17.000Z</time>
      </trkpt>
      <trkpt lat="47.51233" lon="6.71542">
        <ele>494.3</ele>
        <time>2017-02-26T10:34:18.000Z</time>
      </trkpt>
      <trkpt lat="47.5123" lon="6.71545">
        <ele>494.4</ele>
        <time>2017-02-26T10:34:19.000Z</time>
      </trkpt>
      <trkpt lat="47.51228" lon="6.71549">
        <ele>494.5</ele>
        <time>2017-02-26T10:34:20.000Z</time>
      </trkpt>
      <trkpt lat="47.51226" lon="6.71554">
        <ele>494.4</ele>
        <time>2017-02-26T10:34:21.000Z</time>
      </trkpt>
      <trkpt lat="47.51224" lon="6.71558">
        <ele>494.3</ele>
        <time>2017-02-26T10:34:22.000Z</time>
      </trkpt>
      <trkpt lat="47.51222" lon="6.71562">
        <ele>494.1</ele>
        <time>2017-02-26T10:34:23.000Z</time>
      </trkpt>
      <trkpt lat="47.51221" lon="6.71564">
        <ele>494</ele>
        <time>2017-02-26T10:34:24.000Z</time>
      </trkpt>
      <trkpt lat="47.51221" lon="6.71568">
        <ele>493.9</ele>
        <time>2017-02-26T10:34:25.000Z</time>
      </trkpt>
      <trkpt lat="47.51221" lon="6.71573">
        <ele>493.9</ele>
        <time>2017-02-26T10:34:26.000Z</time>
      </trkpt>
      <trkpt lat="47.51221" lon="6.71577">
        <ele>493.8</ele>
        <time>2017-02-26T10:34:27.000Z</time>
      </trkpt>
      <trkpt lat="47.51221" lon="6.71581">
        <ele>493.9</ele>
        <time>2017-02-26T10:34:28.000Z</time>
      </trkpt>
      <trkpt lat="47.51219" lon="6.71586">
        <ele>493.8</ele>
        <time>2017-02-26T10:34:29.000Z</time>
      </trkpt>
      <trkpt lat="47.51218" lon="6.7159">
        <ele>493.8</ele>
        <time>2017-02-26T10:34:30.000Z</time>
      </trkpt>
      <trkpt lat="47.51217" lon="6.71595">
        <ele>493.8</ele>
        <time>2017-02-26T10:34:31.000Z</time>
      </trkpt>
      <trkpt lat="47.51217" lon="6.71602">
        <ele>493.8</ele>
        <time>2017-02-26T10:34:32.000Z</time>
      </trkpt>
      <trkpt lat="47.51216" lon="6.71613">
        <ele>493.9</ele>
        <time>2017-02-26T10:34:33.000Z</time>
      </trkpt>
      <trkpt lat="47.51217" lon="6.7162">
        <ele>494</ele>
        <time>2017-02-26T10:34:34.000Z</time>
      </trkpt>
      <trkpt lat="47.51217" lon="6.71626">
        <ele>493.9</ele>
        <time>2017-02-26T10:34:35.000Z</time>
      </trkpt>
      <trkpt lat="47.51217" lon="6.71633">
        <ele>494</ele>
        <time>2017-02-26T10:34:36.000Z</time>
      </trkpt>
      <trkpt lat="47.51216" lon="6.71637">
        <ele>494</ele>
        <time>2017-02-26T10:34:37.000Z</time>
      </trkpt>
      <trkpt lat="47.51216" lon="6.71641">
        <ele>494</ele>
        <time>2017-02-26T10:34:38.000Z</time>
      </trkpt>
      <trkpt lat="47.51216" lon="6.71645">
        <ele>493.9</ele>
        <time>2017-02-26T10:34:39.000Z</time>
      </trkpt>
      <trkpt lat="47.51216" lon="6.7165">
        <ele>493.9</ele>
        <time>2017-02-26T10:34:40.000Z</time>
      </trkpt>
      <trkpt lat="47.51215" lon="6.71655">
        <ele>493.8</ele>
        <time>2017-02-26T10:34:41.000Z</time>
      </trkpt>
      <trkpt lat="47.51215" lon="6.7166">
        <ele>493.7</ele>
        <time>2017-02-26T10:34:42.000Z</time>
      </trkpt>
      <trkpt lat="47.51215" lon="6.71666">
        <ele>493.4</ele>
        <time>2017-02-26T10:34:44.000Z</time>
      </trkpt>
      <trkpt lat="47.51214" lon="6.71671">
        <ele>493.3</ele>
        <time>2017-02-26T10:34:45.000Z</time>
      </trkpt>
      <trkpt lat="47.51213" lon="6.71675">
        <ele>493.1</ele>
        <time>2017-02-26T10:34:46.000Z</time>
      </trkpt>
      <trkpt lat="47.51213" lon="6.71678">
        <ele>493.1</ele>
        <time>2017-02-26T10:34:47.000Z</time>
      </trkpt>
      <trkpt lat="47.51215" lon="6.71682">
        <ele>493.1</ele>
        <time>2017-02-26T10:34:48.000Z</time>
      </trkpt>
      <trkpt lat="47.51218" lon="6.71692">
        <ele>493.2</ele>
        <time>2017-02-26T10:34:49.000Z</time>
      </trkpt>
      <trkpt lat="47.51219" lon="6.717">
        <ele>493.3</ele>
        <time>2017-02-26T10:34:50.000Z</time>
      </trkpt>
      <trkpt lat="47.5122" lon="6.71707">
        <ele>493.7</ele>
        <time>2017-02-26T10:34:51.000Z</time>
      </trkpt>
      <trkpt lat="47.5122" lon="6.71712">
        <ele>494</ele>
        <time>2017-02-26T10:34:52.000Z</time>
      </trkpt>
      <trkpt lat="47.5122" lon="6.71718">
        <ele>494.3</ele>
        <time>2017-02-26T10:34:53.000Z</time>
      </trkpt>
      <trkpt lat="47.51217" lon="6.71725">
        <ele>494.7</ele>
        <time>2017-02-26T10:34:54.000Z</time>
      </trkpt>
      <trkpt lat="47.51214" lon="6.7173">
        <ele>494.9</ele>
        <time>2017-02-26T10:34:55.000Z</time>
      </trkpt>
      <trkpt lat="47.51213" lon="6.71736">
        <ele>495</ele>
        <time>2017-02-26T10:34:56.000Z</time>
      </trkpt>
      <trkpt lat="47.51213" lon="6.71742">
        <ele>495</ele>
        <time>2017-02-26T10:34:57.000Z</time>
      </trkpt>
      <trkpt lat="47.51212" lon="6.71748">
        <ele>495</ele>
        <time>2017-02-26T10:34:58.000Z</time>
      </trkpt>
      <trkpt lat="47.51212" lon="6.71752">
        <ele>494.7</ele>
        <time>2017-02-26T10:34:59.000Z</time>
      </trkpt>
      <trkpt lat="47.51212" lon="6.71757">
        <ele>494.6</ele>
        <time>2017-02-26T10:35:00.000Z</time>
      </trkpt>
      <trkpt lat="47.51212" lon="6.71762">
        <ele>494.5</ele>
        <time>2017-02-26T10:35:01.000Z</time>
      </trkpt>
      <trkpt lat="47.51211" lon="6.71766">
        <ele>494.2</ele>
        <time>2017-02-26T10:35:02.000Z</time>
      </trkpt>
      <trkpt lat="47.51211" lon="6.71772">
        <ele>494</ele>
        <time>2017-02-26T10:35:03.000Z</time>
      </trkpt>
      <trkpt lat="47.51212" lon="6.71778">
        <ele>493.8</ele>
        <time>2017-02-26T10:35:04.000Z</time>
      </trkpt>
      <trkpt lat="47.51212" lon="6.71783">
        <ele>493.6</ele>
        <time>2017-02-26T10:35:05.000Z</time>
      </trkpt>
      <trkpt lat="47.51213" lon="6.71788">
        <ele>493.4</ele>
        <time>2017-02-26T10:35:06.000Z</time>
      </trkpt>
      <trkpt lat="47.51212" lon="6.71792">
        <ele>493.2</ele>
        <time>2017-02-26T10:35:07.000Z</time>
      </trkpt>
      <trkpt lat="47.51211" lon="6.71797">
        <ele>493</ele>
        <time>2017-02-26T10:35:08.000Z</time>
      </trkpt>
      <trkpt lat="47.51211" lon="6.71801">
        <ele>492.7</ele>
        <time>2017-02-26T10:35:09.000Z</time>
      </trkpt>
      <trkpt lat="47.5121" lon="6.71803">
        <ele>492.4</ele>
        <time>2017-02-26T10:35:10.000Z</time>
      </trkpt>
      <trkpt lat="47.51213" lon="6.71808">
        <ele>492.1</ele>
        <time>2017-02-26T10:35:11.000Z</time>
      </trkpt>
      <trkpt lat="47.51216" lon="6.71813">
        <ele>491.8</ele>
        <time>2017-02-26T10:35:12.000Z</time>
      </trkpt>
      <trkpt lat="47.51219" lon="6.71821">
        <ele>491.6</ele>
        <time>2017-02-26T10:35:13.000Z</time>
      </trkpt>
      <trkpt lat="47.51222" lon="6.71827">
        <ele>491.3</ele>
        <time>2017-02-26T10:35:14.000Z</time>
      </trkpt>
      <trkpt lat="47.51225" lon="6.71835">
        <ele>491.1</ele>
        <time>2017-02-26T10:35:15.000Z</time>
      </trkpt>
      <trkpt lat="47.51226" lon="6.71842">
        <ele>491</ele>
        <time>2017-02-26T10:35:16.000Z</time>
      </trkpt>
      <trkpt lat="47.51227" lon="6.71848">
        <ele>491</ele>
        <time>2017-02-26T10:35:17.000Z</time>
      </trkpt>
      <trkpt lat="47.51229" lon="6.71856">
        <ele>491.1</ele>
        <time>2017-02-26T10:35:18.000Z</time>
      </trkpt>
      <trkpt lat="47.5123" lon="6.71865">
        <ele>491.3</ele>
        <time>2017-02-26T10:35:19.000Z</time>
      </trkpt>
      <trkpt lat="47.5123" lon="6.71873">
        <ele>491.3</ele>
        <time>2017-02-26T10:35:20.000Z</time>
      </trkpt>
      <trkpt lat="47.51231" lon="6.71876">
        <ele>491.5</ele>
        <time>2017-02-26T10:35:21.000Z</time>
      </trkpt>
      <trkpt lat="47.51232" lon="6.71882">
        <ele>491.5</ele>
        <time>2017-02-26T10:35:22.000Z</time>
      </trkpt>
      <trkpt lat="47.51231" lon="6.71888">
        <ele>491.6</ele>
        <time>2017-02-26T10:35:23.000Z</time>
      </trkpt>
      <trkpt lat="47.51232" lon="6.71894">
        <ele>491.7</ele>
        <time>2017-02-26T10:35:24.000Z</time>
      </trkpt>
      <trkpt lat="47.51234" lon="6.71899">
        <ele>492.3</ele>
        <time>2017-02-26T10:35:25.000Z</time>
      </trkpt>
      <trkpt lat="47.51234" lon="6.71905">
        <ele>492.4</ele>
        <time>2017-02-26T10:35:26.000Z</time>
      </trkpt>
      <trkpt lat="47.51234" lon="6.7191">
        <ele>492.4</ele>
        <time>2017-02-26T10:35:27.000Z</time>
      </trkpt>
      <trkpt lat="47.51235" lon="6.71917">
        <ele>492.3</ele>
        <time>2017-02-26T10:35:28.000Z</time>
      </trkpt>
      <trkpt lat="47.51235" lon="6.71924">
        <ele>492.1</ele>
        <time>2017-02-26T10:35:29.000Z</time>
      </trkpt>
      <trkpt lat="47.51236" lon="6.71931">
        <ele>492</ele>
        <time>2017-02-26T10:35:30.000Z</time>
      </trkpt>
      <trkpt lat="47.51237" lon="6.71938">
        <ele>492.3</ele>
        <time>2017-02-26T10:35:31.000Z</time>
      </trkpt>
      <trkpt lat="47.51237" lon="6.71944">
        <ele>492.1</ele>
        <time>2017-02-26T10:35:32.000Z</time>
      </trkpt>
      <trkpt lat="47.51237" lon="6.71952">
        <ele>490.6</ele>
        <time>2017-02-26T10:35:33.000Z</time>
      </trkpt>
      <trkpt lat="47.51236" lon="6.71959">
        <ele>490.5</ele>
        <time>2017-02-26T10:35:34.000Z</time>
      </trkpt>
      <trkpt lat="47.51236" lon="6.71967">
        <ele>490.2</ele>
        <time>2017-02-26T10:35:35.000Z</time>
      </trkpt>
      <trkpt lat="47.51237" lon="6.71975">
        <ele>489.3</ele>
        <time>2017-02-26T10:35:36.000Z</time>
      </trkpt>
      <trkpt lat="47.51239" lon="6.71983">
        <ele>489.2</ele>
        <time>2017-02-26T10:35:37.000Z</time>
      </trkpt>
      <trkpt lat="47.51238" lon="6.7199">
        <ele>489.2</ele>
        <time>2017-02-26T10:35:38.000Z</time>
      </trkpt>
      <trkpt lat="47.51238" lon="6.71997">
        <ele>489.1</ele>
        <time>2017-02-26T10:35:39.000Z</time>
      </trkpt>
      <trkpt lat="47.51238" lon="6.72006">
        <ele>489.7</ele>
        <time>2017-02-26T10:35:40.000Z</time>
      </trkpt>
      <trkpt lat="47.51238" lon="6.72014">
        <ele>490.7</ele>
        <time>2017-02-26T10:35:41.000Z</time>
      </trkpt>
      <trkpt lat="47.51237" lon="6.72022">
        <ele>491.4</ele>
        <time>2017-02-26T10:35:42.000Z</time>
      </trkpt>
      <trkpt lat="47.51235" lon="6.7203">
        <ele>491.4</ele>
        <time>2017-02-26T10:35:43.000Z</time>
      </trkpt>
      <trkpt lat="47.51234" lon="6.72038">
        <ele>491.3</ele>
        <time>2017-02-26T10:35:44.000Z</time>
      </trkpt>
      <trkpt lat="47.51235" lon="6.72048">
        <ele>491.1</ele>
        <time>2017-02-26T10:35:45.000Z</time>
      </trkpt>
      <trkpt lat="47.51236" lon="6.72057">
        <ele>490.9</ele>
        <time>2017-02-26T10:35:46.000Z</time>
      </trkpt>
      <trkpt lat="47.51237" lon="6.72065">
        <ele>490.6</ele>
        <time>2017-02-26T10:35:47.000Z</time>
      </trkpt>
      <trkpt lat="47.51238" lon="6.72074">
        <ele>490.3</ele>
        <time>2017-02-26T10:35:48.000Z</time>
      </trkpt>
      <trkpt lat="47.51239" lon="6.72079">
        <ele>490.1</ele>
        <time>2017-02-26T10:35:49.000Z</time>
      </trkpt>
      <trkpt lat="47.51239" lon="6.72086">
        <ele>490</ele>
        <time>2017-02-26T10:35:50.000Z</time>
      </trkpt>
      <trkpt lat="47.51239" lon="6.72095">
        <ele>488.5</ele>
        <time>2017-02-26T10:35:51.000Z</time>
      </trkpt>
      <trkpt lat="47.51239" lon="6.72103">
        <ele>486.2</ele>
        <time>2017-02-26T10:35:52.000Z</time>
      </trkpt>
      <trkpt lat="47.51239" lon="6.72113">
        <ele>484.9</ele>
        <time>2017-02-26T10:35:53.000Z</time>
      </trkpt>
      <trkpt lat="47.51238" lon="6.72121">
        <ele>484.8</ele>
        <time>2017-02-26T10:35:54.000Z</time>
      </trkpt>
      <trkpt lat="47.51238" lon="6.72128">
        <ele>484.6</ele>
        <time>2017-02-26T10:35:55.000Z</time>
      </trkpt>
      <trkpt lat="47.51237" lon="6.72135">
        <ele>484.4</ele>
        <time>2017-02-26T10:35:56.000Z</time>
      </trkpt>
      <trkpt lat="47.51236" lon="6.72138">
        <ele>484.3</ele>
        <time>2017-02-26T10:35:57.000Z</time>
      </trkpt>
      <trkpt lat="47.51232" lon="6.7214">
        <ele>483.9</ele>
        <time>2017-02-26T10:36:00.000Z</time>
      </trkpt>
      <trkpt lat="47.5123" lon="6.72142">
        <ele>483.8</ele>
        <time>2017-02-26T10:36:01.000Z</time>
      </trkpt>
      <trkpt lat="47.51227" lon="6.72145">
        <ele>483.7</ele>
        <time>2017-02-26T10:36:02.000Z</time>
      </trkpt>
      <trkpt lat="47.51224" lon="6.72147">
        <ele>483.5</ele>
        <time>2017-02-26T10:36:03.000Z</time>
      </trkpt>
      <trkpt lat="47.51221" lon="6.7215">
        <ele>482.8</ele>
        <time>2017-02-26T10:36:05.000Z</time>
      </trkpt>
      <trkpt lat="47.51218" lon="6.72152">
        <ele>482.5</ele>
        <time>2017-02-26T10:36:06.000Z</time>
      </trkpt>
      <trkpt lat="47.51216" lon="6.72157">
        <ele>482.2</ele>
        <time>2017-02-26T10:36:09.000Z</time>
      </trkpt>
      <trkpt lat="47.51214" lon="6.72162">
        <ele>482.1</ele>
        <time>2017-02-26T10:36:10.000Z</time>
      </trkpt>
      <trkpt lat="47.51212" lon="6.72165">
        <ele>482.2</ele>
        <time>2017-02-26T10:36:11.000Z</time>
      </trkpt>
      <trkpt lat="47.5121" lon="6.72169">
        <ele>482.3</ele>
        <time>2017-02-26T10:36:12.000Z</time>
      </trkpt>
      <trkpt lat="47.51208" lon="6.72172">
        <ele>482.3</ele>
        <time>2017-02-26T10:36:13.000Z</time>
      </trkpt>
      <trkpt lat="47.51206" lon="6.72176">
        <ele>482.1</ele>
        <time>2017-02-26T10:36:14.000Z</time>
      </trkpt>
      <trkpt lat="47.51202" lon="6.7218">
        <ele>481.8</ele>
        <time>2017-02-26T10:36:15.000Z</time>
      </trkpt>
      <trkpt lat="47.512" lon="6.72184">
        <ele>481.5</ele>
        <time>2017-02-26T10:36:16.000Z</time>
      </trkpt>
      <trkpt lat="47.51196" lon="6.72185">
        <ele>481.5</ele>
        <time>2017-02-26T10:36:19.000Z</time>
      </trkpt>
      <trkpt lat="47.5119" lon="6.72188">
        <ele>481.4</ele>
        <time>2017-02-26T10:36:20.000Z</time>
      </trkpt>
      <trkpt lat="47.51187" lon="6.72192">
        <ele>481.3</ele>
        <time>2017-02-26T10:36:21.000Z</time>
      </trkpt>
      <trkpt lat="47.51185" lon="6.72198">
        <ele>481.1</ele>
        <time>2017-02-26T10:36:22.000Z</time>
      </trkpt>
      <trkpt lat="47.51182" lon="6.72203">
        <ele>481</ele>
        <time>2017-02-26T10:36:23.000Z</time>
      </trkpt>
      <trkpt lat="47.51179" lon="6.72208">
        <ele>480.8</ele>
        <time>2017-02-26T10:36:24.000Z</time>
      </trkpt>
      <trkpt lat="47.51175" lon="6.72214">
        <ele>480.7</ele>
        <time>2017-02-26T10:36:25.000Z</time>
      </trkpt>
      <trkpt lat="47.5117" lon="6.72218">
        <ele>480.5</ele>
        <time>2017-02-26T10:36:26.000Z</time>
      </trkpt>
      <trkpt lat="47.51164" lon="6.72219">
        <ele>480.2</ele>
        <time>2017-02-26T10:36:27.000Z</time>
      </trkpt>
      <trkpt lat="47.51159" lon="6.72222">
        <ele>478.2</ele>
        <time>2017-02-26T10:36:28.000Z</time>
      </trkpt>
      <trkpt lat="47.51147" lon="6.72227">
        <ele>474.6</ele>
        <time>2017-02-26T10:36:29.000Z</time>
      </trkpt>
      <trkpt lat="47.5114" lon="6.72237">
        <ele>471</ele>
        <time>2017-02-26T10:36:30.000Z</time>
      </trkpt>
      <trkpt lat="47.51134" lon="6.72245">
        <ele>468.6</ele>
        <time>2017-02-26T10:36:31.000Z</time>
      </trkpt>
      <trkpt lat="47.51131" lon="6.72254">
        <ele>465.9</ele>
        <time>2017-02-26T10:36:32.000Z</time>
      </trkpt>
      <trkpt lat="47.51127" lon="6.7226">
        <ele>464.1</ele>
        <time>2017-02-26T10:36:33.000Z</time>
      </trkpt>
      <trkpt lat="47.51124" lon="6.72264">
        <ele>462.6</ele>
        <time>2017-02-26T10:36:34.000Z</time>
      </trkpt>
      <trkpt lat="47.51122" lon="6.72271">
        <ele>462.5</ele>
        <time>2017-02-26T10:36:35.000Z</time>
      </trkpt>
      <trkpt lat="47.51121" lon="6.72276">
        <ele>462.5</ele>
        <time>2017-02-26T10:36:36.000Z</time>
      </trkpt>
      <trkpt lat="47.51115" lon="6.72282">
        <ele>462.4</ele>
        <time>2017-02-26T10:36:37.000Z</time>
      </trkpt>
      <trkpt lat="47.51111" lon="6.72287">
        <ele>462.3</ele>
        <time>2017-02-26T10:36:38.000Z</time>
      </trkpt>
      <trkpt lat="47.51107" lon="6.72292">
        <ele>462.4</ele>
        <time>2017-02-26T10:36:39.000Z</time>
      </trkpt>
      <trkpt lat="47.51101" lon="6.72298">
        <ele>462.4</ele>
        <time>2017-02-26T10:36:40.000Z</time>
      </trkpt>
      <trkpt lat="47.51096" lon="6.723">
        <ele>462.3</ele>
        <time>2017-02-26T10:36:41.000Z</time>
      </trkpt>
      <trkpt lat="47.51086" lon="6.72303">
        <ele>462.1</ele>
        <time>2017-02-26T10:36:42.000Z</time>
      </trkpt>
      <trkpt lat="47.51083" lon="6.72308">
        <ele>461.8</ele>
        <time>2017-02-26T10:36:43.000Z</time>
      </trkpt>
      <trkpt lat="47.5108" lon="6.72314">
        <ele>461.4</ele>
        <time>2017-02-26T10:36:44.000Z</time>
      </trkpt>
      <trkpt lat="47.51078" lon="6.72321">
        <ele>461</ele>
        <time>2017-02-26T10:36:45.000Z</time>
      </trkpt>
      <trkpt lat="47.51074" lon="6.72328">
        <ele>460.7</ele>
        <time>2017-02-26T10:36:46.000Z</time>
      </trkpt>
      <trkpt lat="47.5107" lon="6.72334">
        <ele>460.4</ele>
        <time>2017-02-26T10:36:47.000Z</time>
      </trkpt>
      <trkpt lat="47.51065" lon="6.72339">
        <ele>460.2</ele>
        <time>2017-02-26T10:36:48.000Z</time>
      </trkpt>
      <trkpt lat="47.51059" lon="6.72342">
        <ele>460</ele>
        <time>2017-02-26T10:36:49.000Z</time>
      </trkpt>
      <trkpt lat="47.51052" lon="6.72345">
        <ele>459.9</ele>
        <time>2017-02-26T10:36:50.000Z</time>
      </trkpt>
      <trkpt lat="47.51047" lon="6.72345">
        <ele>459.7</ele>
        <time>2017-02-26T10:36:51.000Z</time>
      </trkpt>
      <trkpt lat="47.51041" lon="6.72343">
        <ele>457.5</ele>
        <time>2017-02-26T10:36:52.000Z</time>
      </trkpt>
      <trkpt lat="47.51035" lon="6.72341">
        <ele>453.7</ele>
        <time>2017-02-26T10:36:53.000Z</time>
      </trkpt>
      <trkpt lat="47.51029" lon="6.7234">
        <ele>449.5</ele>
        <time>2017-02-26T10:36:54.000Z</time>
      </trkpt>
      <trkpt lat="47.51024" lon="6.72339">
        <ele>448.9</ele>
        <time>2017-02-26T10:36:55.000Z</time>
      </trkpt>
      <trkpt lat="47.5102" lon="6.72338">
        <ele>448.3</ele>
        <time>2017-02-26T10:36:56.000Z</time>
      </trkpt>
      <trkpt lat="47.51015" lon="6.72333">
        <ele>447.8</ele>
        <time>2017-02-26T10:36:57.000Z</time>
      </trkpt>
      <trkpt lat="47.51011" lon="6.72328">
        <ele>442.6</ele>
        <time>2017-02-26T10:36:58.000Z</time>
      </trkpt>
      <trkpt lat="47.51005" lon="6.72318">
        <ele>436.4</ele>
        <time>2017-02-26T10:36:59.000Z</time>
      </trkpt>
      <trkpt lat="47.50997" lon="6.72312">
        <ele>431.7</ele>
        <time>2017-02-26T10:37:00.000Z</time>
      </trkpt>
      <trkpt lat="47.50992" lon="6.72309">
        <ele>431.3</ele>
        <time>2017-02-26T10:37:01.000Z</time>
      </trkpt>
      <trkpt lat="47.50984" lon="6.72308">
        <ele>430.8</ele>
        <time>2017-02-26T10:37:02.000Z</time>
      </trkpt>
      <trkpt lat="47.50978" lon="6.72304">
        <ele>430.3</ele>
        <time>2017-02-26T10:37:03.000Z</time>
      </trkpt>
      <trkpt lat="47.50969" lon="6.72297">
        <ele>429.9</ele>
        <time>2017-02-26T10:37:04.000Z</time>
      </trkpt>
      <trkpt lat="47.50958" lon="6.72289">
        <ele>429.6</ele>
        <time>2017-02-26T10:37:05.000Z</time>
      </trkpt>
      <trkpt lat="47.5095" lon="6.72285">
        <ele>429.3</ele>
        <time>2017-02-26T10:37:06.000Z</time>
      </trkpt>
      <trkpt lat="47.50938" lon="6.72282">
        <ele>429</ele>
        <time>2017-02-26T10:37:07.000Z</time>
      </trkpt>
      <trkpt lat="47.50931" lon="6.7228">
        <ele>425.2</ele>
        <time>2017-02-26T10:37:08.000Z</time>
      </trkpt>
      <trkpt lat="47.50926" lon="6.72279">
        <ele>425</ele>
        <time>2017-02-26T10:37:09.000Z</time>
      </trkpt>
      <trkpt lat="47.50924" lon="6.72278">
        <ele>424.8</ele>
        <time>2017-02-26T10:37:10.000Z</time>
      </trkpt>
      <trkpt lat="47.5092" lon="6.72277">
        <ele>424.8</ele>
        <time>2017-02-26T10:37:11.000Z</time>
      </trkpt>
      <trkpt lat="47.50918" lon="6.72278">
        <ele>424.6</ele>
        <time>2017-02-26T10:37:12.000Z</time>
      </trkpt>
      <trkpt lat="47.50915" lon="6.72278">
        <ele>424.5</ele>
        <time>2017-02-26T10:37:13.000Z</time>
      </trkpt>
      <trkpt lat="47.50911" lon="6.72279">
        <ele>424.3</ele>
        <time>2017-02-26T10:37:14.000Z</time>
      </trkpt>
      <trkpt lat="47.50906" lon="6.72278">
        <ele>424.2</ele>
        <time>2017-02-26T10:37:15.000Z</time>
      </trkpt>
      <trkpt lat="47.50902" lon="6.72275">
        <ele>424.1</ele>
        <time>2017-02-26T10:37:16.000Z</time>
      </trkpt>
      <trkpt lat="47.50892" lon="6.72268">
        <ele>424.1</ele>
        <time>2017-02-26T10:37:17.000Z</time>
      </trkpt>
      <trkpt lat="47.50885" lon="6.72263">
        <ele>423.9</ele>
        <time>2017-02-26T10:37:18.000Z</time>
      </trkpt>
      <trkpt lat="47.5088" lon="6.7226">
        <ele>423.8</ele>
        <time>2017-02-26T10:37:19.000Z</time>
      </trkpt>
      <trkpt lat="47.50878" lon="6.72259">
        <ele>423.7</ele>
        <time>2017-02-26T10:37:20.000Z</time>
      </trkpt>
      <trkpt lat="47.50873" lon="6.72259">
        <ele>423.5</ele>
        <time>2017-02-26T10:37:21.000Z</time>
      </trkpt>
      <trkpt lat="47.50869" lon="6.72259">
        <ele>423.2</ele>
        <time>2017-02-26T10:37:22.000Z</time>
      </trkpt>
      <trkpt lat="47.50862" lon="6.72261">
        <ele>423.1</ele>
        <time>2017-02-26T10:37:23.000Z</time>
      </trkpt>
      <trkpt lat="47.50854" lon="6.72263">
        <ele>422.9</ele>
        <time>2017-02-26T10:37:24.000Z</time>
      </trkpt>
      <trkpt lat="47.50846" lon="6.72265">
        <ele>418.1</ele>
        <time>2017-02-26T10:37:25.000Z</time>
      </trkpt>
      <trkpt lat="47.50836" lon="6.72267">
        <ele>414.8</ele>
        <time>2017-02-26T10:37:26.000Z</time>
      </trkpt>
      <trkpt lat="47.50832" lon="6.72265">
        <ele>412.5</ele>
        <time>2017-02-26T10:37:27.000Z</time>
      </trkpt>
      <trkpt lat="47.50828" lon="6.72262">
        <ele>410</ele>
        <time>2017-02-26T10:37:28.000Z</time>
      </trkpt>
      <trkpt lat="47.50824" lon="6.7226">
        <ele>409.8</ele>
        <time>2017-02-26T10:37:29.000Z</time>
      </trkpt>
      <trkpt lat="47.5082" lon="6.72259">
        <ele>409.5</ele>
        <time>2017-02-26T10:37:30.000Z</time>
      </trkpt>
      <trkpt lat="47.50816" lon="6.72256">
        <ele>409.5</ele>
        <time>2017-02-26T10:37:31.000Z</time>
      </trkpt>
      <trkpt lat="47.50812" lon="6.72253">
        <ele>409.4</ele>
        <time>2017-02-26T10:37:32.000Z</time>
      </trkpt>
      <trkpt lat="47.50808" lon="6.72251">
        <ele>409.3</ele>
        <time>2017-02-26T10:37:33.000Z</time>
      </trkpt>
      <trkpt lat="47.50804" lon="6.72247">
        <ele>409.2</ele>
        <time>2017-02-26T10:37:34.000Z</time>
      </trkpt>
      <trkpt lat="47.50801" lon="6.72245">
        <ele>409.2</ele>
        <time>2017-02-26T10:37:35.000Z</time>
      </trkpt>
      <trkpt lat="47.50799" lon="6.72242">
        <ele>409.2</ele>
        <time>2017-02-26T10:37:36.000Z</time>
      </trkpt>
      <trkpt lat="47.50796" lon="6.72242">
        <ele>409.2</ele>
        <time>2017-02-26T10:37:37.000Z</time>
      </trkpt>
      <trkpt lat="47.50794" lon="6.72242">
        <ele>409.3</ele>
        <time>2017-02-26T10:37:38.000Z</time>
      </trkpt>
      <trkpt lat="47.5079" lon="6.72242">
        <ele>409.4</ele>
        <time>2017-02-26T10:37:39.000Z</time>
      </trkpt>
      <trkpt lat="47.50787" lon="6.72242">
        <ele>409.5</ele>
        <time>2017-02-26T10:37:40.000Z</time>
      </trkpt>
      <trkpt lat="47.50784" lon="6.72242">
        <ele>409.6</ele>
        <time>2017-02-26T10:37:41.000Z</time>
      </trkpt>
      <trkpt lat="47.50781" lon="6.72242">
        <ele>409.7</ele>
        <time>2017-02-26T10:37:42.000Z</time>
      </trkpt>
      <trkpt lat="47.50777" lon="6.72241">
        <ele>410.9</ele>
        <time>2017-02-26T10:37:51.000Z</time>
      </trkpt>
      <trkpt lat="47.50776" lon="6.72242">
        <ele>411.1</ele>
        <time>2017-02-26T10:37:52.000Z</time>
      </trkpt>
      <trkpt lat="47.50776" lon="6.72246">
        <ele>411.2</ele>
        <time>2017-02-26T10:37:59.000Z</time>
      </trkpt>
      <trkpt lat="47.50778" lon="6.72248">
        <ele>411.1</ele>
        <time>2017-02-26T10:38:00.000Z</time>
      </trkpt>
      <trkpt lat="47.5078" lon="6.72249">
        <ele>411.3</ele>
        <time>2017-02-26T10:38:03.000Z</time>
      </trkpt>
      <trkpt lat="47.50783" lon="6.72249">
        <ele>411.4</ele>
        <time>2017-02-26T10:38:04.000Z</time>
      </trkpt>
      <trkpt lat="47.50786" lon="6.7225">
        <ele>411.2</ele>
        <time>2017-02-26T10:38:05.000Z</time>
      </trkpt>
      <trkpt lat="47.50789" lon="6.72252">
        <ele>411.2</ele>
        <time>2017-02-26T10:38:06.000Z</time>
      </trkpt>
      <trkpt lat="47.50793" lon="6.72255">
        <ele>411.4</ele>
        <time>2017-02-26T10:38:07.000Z</time>
      </trkpt>
      <trkpt lat="47.50795" lon="6.72258">
        <ele>411.4</ele>
        <time>2017-02-26T10:38:08.000Z</time>
      </trkpt>
      <trkpt lat="47.50798" lon="6.7226">
        <ele>411.9</ele>
        <time>2017-02-26T10:38:12.000Z</time>
      </trkpt>
      <trkpt lat="47.508" lon="6.72262">
        <ele>412.1</ele>
        <time>2017-02-26T10:38:13.000Z</time>
      </trkpt>
      <trkpt lat="47.50803" lon="6.72262">
        <ele>411.9</ele>
        <time>2017-02-26T10:38:14.000Z</time>
      </trkpt>
      <trkpt lat="47.50806" lon="6.72262">
        <ele>411.9</ele>
        <time>2017-02-26T10:38:15.000Z</time>
      </trkpt>
      <trkpt lat="47.5081" lon="6.72263">
        <ele>411.7</ele>
        <time>2017-02-26T10:38:16.000Z</time>
      </trkpt>
      <trkpt lat="47.50812" lon="6.72263">
        <ele>411.5</ele>
        <time>2017-02-26T10:38:17.000Z</time>
      </trkpt>
      <trkpt lat="47.50816" lon="6.72263">
        <ele>411.2</ele>
        <time>2017-02-26T10:38:20.000Z</time>
      </trkpt>
      <trkpt lat="47.50817" lon="6.72263">
        <ele>411</ele>
        <time>2017-02-26T10:38:21.000Z</time>
      </trkpt>
      <trkpt lat="47.5082" lon="6.72262">
        <ele>412.1</ele>
        <time>2017-02-26T10:38:26.000Z</time>
      </trkpt>
      <trkpt lat="47.50822" lon="6.72263">
        <ele>412.4</ele>
        <time>2017-02-26T10:38:27.000Z</time>
      </trkpt>
      <trkpt lat="47.50818" lon="6.72262">
        <ele>412.9</ele>
        <time>2017-02-26T10:38:31.000Z</time>
      </trkpt>
      <trkpt lat="47.50816" lon="6.72262">
        <ele>412.9</ele>
        <time>2017-02-26T10:38:32.000Z</time>
      </trkpt>
      <trkpt lat="47.50811" lon="6.72264">
        <ele>413.2</ele>
        <time>2017-02-26T10:38:34.000Z</time>
      </trkpt>
      <trkpt lat="47.5081" lon="6.72267">
        <ele>413.1</ele>
        <time>2017-02-26T10:38:35.000Z</time>
      </trkpt>
      <trkpt lat="47.50808" lon="6.72269">
        <ele>413.1</ele>
        <time>2017-02-26T10:38:36.000Z</time>
      </trkpt>
      <trkpt lat="47.50807" lon="6.72272">
        <ele>413.2</ele>
        <time>2017-02-26T10:38:37.000Z</time>
      </trkpt>
      <trkpt lat="47.50807" lon="6.72275">
        <ele>413.2</ele>
        <time>2017-02-26T10:38:38.000Z</time>
      </trkpt>
      <trkpt lat="47.50807" lon="6.72279">
        <ele>413.4</ele>
        <time>2017-02-26T10:38:39.000Z</time>
      </trkpt>
      <trkpt lat="47.50809" lon="6.72281">
        <ele>413.5</ele>
        <time>2017-02-26T10:38:40.000Z</time>
      </trkpt>
      <trkpt lat="47.5081" lon="6.72285">
        <ele>413.8</ele>
        <time>2017-02-26T10:38:41.000Z</time>
      </trkpt>
      <trkpt lat="47.50811" lon="6.72289">
        <ele>414.6</ele>
        <time>2017-02-26T10:38:44.000Z</time>
      </trkpt>
      <trkpt lat="47.5081" lon="6.72293">
        <ele>414.6</ele>
        <time>2017-02-26T10:38:45.000Z</time>
      </trkpt>
      <trkpt lat="47.5081" lon="6.72297">
        <ele>414.6</ele>
        <time>2017-02-26T10:38:46.000Z</time>
      </trkpt>
      <trkpt lat="47.50808" lon="6.72307">
        <ele>414.5</ele>
        <time>2017-02-26T10:38:47.000Z</time>
      </trkpt>
      <trkpt lat="47.50809" lon="6.72312">
        <ele>414.5</ele>
        <time>2017-02-26T10:38:48.000Z</time>
      </trkpt>
      <trkpt lat="47.50809" lon="6.72314">
        <ele>414.4</ele>
        <time>2017-02-26T10:38:49.000Z</time>
      </trkpt>
      <trkpt lat="47.50809" lon="6.72319">
        <ele>414.3</ele>
        <time>2017-02-26T10:38:51.000Z</time>
      </trkpt>
      <trkpt lat="47.5081" lon="6.72324">
        <ele>414.3</ele>
        <time>2017-02-26T10:38:52.000Z</time>
      </trkpt>
      <trkpt lat="47.5081" lon="6.72329">
        <ele>414.4</ele>
        <time>2017-02-26T10:38:54.000Z</time>
      </trkpt>
      <trkpt lat="47.50811" lon="6.72331">
        <ele>414.4</ele>
        <time>2017-02-26T10:38:55.000Z</time>
      </trkpt>
      <trkpt lat="47.5081" lon="6.72335">
        <ele>414.4</ele>
        <time>2017-02-26T10:38:58.000Z</time>
      </trkpt>
      <trkpt lat="47.5081" lon="6.72337">
        <ele>414.5</ele>
        <time>2017-02-26T10:38:59.000Z</time>
      </trkpt>
      <trkpt lat="47.50809" lon="6.72344">
        <ele>414.6</ele>
        <time>2017-02-26T10:39:01.000Z</time>
      </trkpt>
      <trkpt lat="47.50809" lon="6.72347">
        <ele>414.6</ele>
        <time>2017-02-26T10:39:02.000Z</time>
      </trkpt>
      <trkpt lat="47.50808" lon="6.7235">
        <ele>414.5</ele>
        <time>2017-02-26T10:39:03.000Z</time>
      </trkpt>
      <trkpt lat="47.50809" lon="6.72354">
        <ele>414.6</ele>
        <time>2017-02-26T10:39:04.000Z</time>
      </trkpt>
      <trkpt lat="47.50807" lon="6.72359">
        <ele>414.7</ele>
        <time>2017-02-26T10:39:06.000Z</time>
      </trkpt>
      <trkpt lat="47.50807" lon="6.72362">
        <ele>414.8</ele>
        <time>2017-02-26T10:39:07.000Z</time>
      </trkpt>
      <trkpt lat="47.50805" lon="6.7236">
        <ele>417.4</ele>
        <time>2017-02-26T10:39:47.000Z</time>
      </trkpt>
      <trkpt lat="47.50805" lon="6.72356">
        <ele>417.3</ele>
        <time>2017-02-26T10:39:48.000Z</time>
      </trkpt>
      <trkpt lat="47.50804" lon="6.72352">
        <ele>417.3</ele>
        <time>2017-02-26T10:39:49.000Z</time>
      </trkpt>
      <trkpt lat="47.50804" lon="6.72347">
        <ele>417</ele>
        <time>2017-02-26T10:39:50.000Z</time>
      </trkpt>
      <trkpt lat="47.50803" lon="6.72342">
        <ele>416.6</ele>
        <time>2017-02-26T10:39:52.000Z</time>
      </trkpt>
      <trkpt lat="47.50803" lon="6.72339">
        <ele>416.3</ele>
        <time>2017-02-26T10:39:53.000Z</time>
      </trkpt>
      <trkpt lat="47.50803" lon="6.72337">
        <ele>416</ele>
        <time>2017-02-26T10:39:55.000Z</time>
      </trkpt>
      <trkpt lat="47.50803" lon="6.72332">
        <ele>416</ele>
        <time>2017-02-26T10:39:56.000Z</time>
      </trkpt>
      <trkpt lat="47.50804" lon="6.7233">
        <ele>416</ele>
        <time>2017-02-26T10:39:57.000Z</time>
      </trkpt>
      <trkpt lat="47.50805" lon="6.72326">
        <ele>415.9</ele>
        <time>2017-02-26T10:39:58.000Z</time>
      </trkpt>
      <trkpt lat="47.50805" lon="6.72322">
        <ele>415.8</ele>
        <time>2017-02-26T10:40:00.000Z</time>
      </trkpt>
      <trkpt lat="47.50805" lon="6.72318">
        <ele>415.9</ele>
        <time>2017-02-26T10:40:01.000Z</time>
      </trkpt>
      <trkpt lat="47.50805" lon="6.72312">
        <ele>416</ele>
        <time>2017-02-26T10:40:02.000Z</time>
      </trkpt>
      <trkpt lat="47.50806" lon="6.72306">
        <ele>416.2</ele>
        <time>2017-02-26T10:40:03.000Z</time>
      </trkpt>
      <trkpt lat="47.50807" lon="6.72302">
        <ele>416.7</ele>
        <time>2017-02-26T10:40:07.000Z</time>
      </trkpt>
      <trkpt lat="47.50809" lon="6.72297">
        <ele>416.8</ele>
        <time>2017-02-26T10:40:08.000Z</time>
      </trkpt>
      <trkpt lat="47.5081" lon="6.72291">
        <ele>417</ele>
        <time>2017-02-26T10:40:09.000Z</time>
      </trkpt>
      <trkpt lat="47.5081" lon="6.72288">
        <ele>417.2</ele>
        <time>2017-02-26T10:40:10.000Z</time>
      </trkpt>
      <trkpt lat="47.50809" lon="6.72283">
        <ele>417.2</ele>
        <time>2017-02-26T10:40:11.000Z</time>
      </trkpt>
      <trkpt lat="47.50808" lon="6.7228">
        <ele>417.5</ele>
        <time>2017-02-26T10:40:14.000Z</time>
      </trkpt>
      <trkpt lat="47.50808" lon="6.72277">
        <ele>417.4</ele>
        <time>2017-02-26T10:40:15.000Z</time>
      </trkpt>
      <trkpt lat="47.50808" lon="6.7227">
        <ele>417.2</ele>
        <time>2017-02-26T10:40:20.000Z</time>
      </trkpt>
      <trkpt lat="47.50808" lon="6.72267">
        <ele>417.2</ele>
        <time>2017-02-26T10:40:21.000Z</time>
      </trkpt>
      <trkpt lat="47.50807" lon="6.72264">
        <ele>417.2</ele>
        <time>2017-02-26T10:40:22.000Z</time>
      </trkpt>
      <trkpt lat="47.50808" lon="6.7226">
        <ele>417.4</ele>
        <time>2017-02-26T10:40:23.000Z</time>
      </trkpt>
      <trkpt lat="47.50809" lon="6.72254">
        <ele>417.4</ele>
        <time>2017-02-26T10:40:26.000Z</time>
      </trkpt>
      <trkpt lat="47.50809" lon="6.72253">
        <ele>417.3</ele>
        <time>2017-02-26T10:40:27.000Z</time>
      </trkpt>
      <trkpt lat="47.50807" lon="6.72249">
        <ele>417.3</ele>
        <time>2017-02-26T10:40:29.000Z</time>
      </trkpt>
      <trkpt lat="47.50803" lon="6.72246">
        <ele>417.4</ele>
        <time>2017-02-26T10:40:30.000Z</time>
      </trkpt>
      <trkpt lat="47.508" lon="6.72245">
        <ele>417.3</ele>
        <time>2017-02-26T10:40:31.000Z</time>
      </trkpt>
      <trkpt lat="47.50798" lon="6.72244">
        <ele>417.4</ele>
        <time>2017-02-26T10:40:32.000Z</time>
      </trkpt>
      <trkpt lat="47.50796" lon="6.72244">
        <ele>417.4</ele>
        <time>2017-02-26T10:40:33.000Z</time>
      </trkpt>
      <trkpt lat="47.50794" lon="6.72244">
        <ele>417.2</ele>
        <time>2017-02-26T10:40:34.000Z</time>
      </trkpt>
      <trkpt lat="47.50791" lon="6.72244">
        <ele>417.1</ele>
        <time>2017-02-26T10:40:35.000Z</time>
      </trkpt>
      <trkpt lat="47.50789" lon="6.72243">
        <ele>416.9</ele>
        <time>2017-02-26T10:40:36.000Z</time>
      </trkpt>
      <trkpt lat="47.50786" lon="6.72241">
        <ele>416.7</ele>
        <time>2017-02-26T10:40:37.000Z</time>
      </trkpt>
      <trkpt lat="47.50783" lon="6.72239">
        <ele>416.4</ele>
        <time>2017-02-26T10:40:38.000Z</time>
      </trkpt>
      <trkpt lat="47.5078" lon="6.72238">
        <ele>416.1</ele>
        <time>2017-02-26T10:40:39.000Z</time>
      </trkpt>
      <trkpt lat="47.50777" lon="6.72238">
        <ele>415.9</ele>
        <time>2017-02-26T10:40:40.000Z</time>
      </trkpt>
      <trkpt lat="47.50773" lon="6.72237">
        <ele>415.7</ele>
        <time>2017-02-26T10:40:41.000Z</time>
      </trkpt>
      <trkpt lat="47.5077" lon="6.72235">
        <ele>415.5</ele>
        <time>2017-02-26T10:40:42.000Z</time>
      </trkpt>
      <trkpt lat="47.50766" lon="6.72233">
        <ele>414.5</ele>
        <time>2017-02-26T10:40:43.000Z</time>
      </trkpt>
      <trkpt lat="47.50762" lon="6.7223">
        <ele>413.2</ele>
        <time>2017-02-26T10:40:44.000Z</time>
      </trkpt>
      <trkpt lat="47.50759" lon="6.72228">
        <ele>412.1</ele>
        <time>2017-02-26T10:40:45.000Z</time>
      </trkpt>
      <trkpt lat="47.50755" lon="6.72227">
        <ele>410.7</ele>
        <time>2017-02-26T10:40:46.000Z</time>
      </trkpt>
      <trkpt lat="47.50752" lon="6.72229">
        <ele>409.6</ele>
        <time>2017-02-26T10:40:47.000Z</time>
      </trkpt>
      <trkpt lat="47.50749" lon="6.72228">
        <ele>408.9</ele>
        <time>2017-02-26T10:40:48.000Z</time>
      </trkpt>
      <trkpt lat="47.50745" lon="6.72227">
        <ele>407.9</ele>
        <time>2017-02-26T10:40:49.000Z</time>
      </trkpt>
      <trkpt lat="47.50741" lon="6.72224">
        <ele>407.1</ele>
        <time>2017-02-26T10:40:50.000Z</time>
      </trkpt>
      <trkpt lat="47.50737" lon="6.72221">
        <ele>406</ele>
        <time>2017-02-26T10:40:51.000Z</time>
      </trkpt>
      <trkpt lat="47.50731" lon="6.72217">
        <ele>404.4</ele>
        <time>2017-02-26T10:40:52.000Z</time>
      </trkpt>
      <trkpt lat="47.50728" lon="6.72215">
        <ele>404</ele>
        <time>2017-02-26T10:40:53.000Z</time>
      </trkpt>
      <trkpt lat="47.50724" lon="6.72213">
        <ele>404</ele>
        <time>2017-02-26T10:40:54.000Z</time>
      </trkpt>
      <trkpt lat="47.50721" lon="6.72211">
        <ele>404.1</ele>
        <time>2017-02-26T10:40:55.000Z</time>
      </trkpt>
      <trkpt lat="47.50718" lon="6.7221">
        <ele>404</ele>
        <time>2017-02-26T10:40:56.000Z</time>
      </trkpt>
      <trkpt lat="47.50715" lon="6.72212">
        <ele>404</ele>
        <time>2017-02-26T10:40:57.000Z</time>
      </trkpt>
      <trkpt lat="47.50712" lon="6.72217">
        <ele>403.9</ele>
        <time>2017-02-26T10:40:58.000Z</time>
      </trkpt>
      <trkpt lat="47.5071" lon="6.72222">
        <ele>403.9</ele>
        <time>2017-02-26T10:41:00.000Z</time>
      </trkpt>
      <trkpt lat="47.50709" lon="6.72226">
        <ele>403.9</ele>
        <time>2017-02-26T10:41:01.000Z</time>
      </trkpt>
      <trkpt lat="47.50709" lon="6.72228">
        <ele>403.9</ele>
        <time>2017-02-26T10:41:02.000Z</time>
      </trkpt>
      <trkpt lat="47.50708" lon="6.72234">
        <ele>404</ele>
        <time>2017-02-26T10:41:03.000Z</time>
      </trkpt>
      <trkpt lat="47.50704" lon="6.72235">
        <ele>404.3</ele>
        <time>2017-02-26T10:41:21.000Z</time>
      </trkpt>
      <trkpt lat="47.50703" lon="6.72234">
        <ele>404.1</ele>
        <time>2017-02-26T10:41:22.000Z</time>
      </trkpt>
      <trkpt lat="47.50704" lon="6.72229">
        <ele>401</ele>
        <time>2017-02-26T10:41:34.000Z</time>
      </trkpt>
      <trkpt lat="47.50705" lon="6.72226">
        <ele>400.9</ele>
        <time>2017-02-26T10:41:35.000Z</time>
      </trkpt>
      <trkpt lat="47.50706" lon="6.72222">
        <ele>400.8</ele>
        <time>2017-02-26T10:41:36.000Z</time>
      </trkpt>
      <trkpt lat="47.50707" lon="6.72217">
        <ele>400.7</ele>
        <time>2017-02-26T10:41:37.000Z</time>
      </trkpt>
      <trkpt lat="47.50707" lon="6.72214">
        <ele>400.6</ele>
        <time>2017-02-26T10:41:38.000Z</time>
      </trkpt>
      <trkpt lat="47.50708" lon="6.72209">
        <ele>400.7</ele>
        <time>2017-02-26T10:41:39.000Z</time>
      </trkpt>
      <trkpt lat="47.50708" lon="6.72204">
        <ele>400.7</ele>
        <time>2017-02-26T10:41:40.000Z</time>
      </trkpt>
      <trkpt lat="47.50707" lon="6.722">
        <ele>400.7</ele>
        <time>2017-02-26T10:41:41.000Z</time>
      </trkpt>
      <trkpt lat="47.50704" lon="6.72197">
        <ele>400.8</ele>
        <time>2017-02-26T10:41:42.000Z</time>
      </trkpt>
      <trkpt lat="47.50702" lon="6.72195">
        <ele>400.9</ele>
        <time>2017-02-26T10:41:43.000Z</time>
      </trkpt>
      <trkpt lat="47.50698" lon="6.72194">
        <ele>400.8</ele>
        <time>2017-02-26T10:41:44.000Z</time>
      </trkpt>
      <trkpt lat="47.50696" lon="6.72193">
        <ele>400.7</ele>
        <time>2017-02-26T10:41:45.000Z</time>
      </trkpt>
      <trkpt lat="47.50693" lon="6.72191">
        <ele>400.6</ele>
        <time>2017-02-26T10:41:46.000Z</time>
      </trkpt>
      <trkpt lat="47.5069" lon="6.72189">
        <ele>400.6</ele>
        <time>2017-02-26T10:41:47.000Z</time>
      </trkpt>
      <trkpt lat="47.50687" lon="6.72188">
        <ele>401.5</ele>
        <time>2017-02-26T10:41:48.000Z</time>
      </trkpt>
      <trkpt lat="47.50682" lon="6.72185">
        <ele>401.9</ele>
        <time>2017-02-26T10:41:49.000Z</time>
      </trkpt>
      <trkpt lat="47.50678" lon="6.72183">
        <ele>401.7</ele>
        <time>2017-02-26T10:41:50.000Z</time>
      </trkpt>
      <trkpt lat="47.50674" lon="6.7218">
        <ele>399.7</ele>
        <time>2017-02-26T10:41:51.000Z</time>
      </trkpt>
      <trkpt lat="47.50671" lon="6.72178">
        <ele>399.7</ele>
        <time>2017-02-26T10:41:52.000Z</time>
      </trkpt>
      <trkpt lat="47.50667" lon="6.72177">
        <ele>399.6</ele>
        <time>2017-02-26T10:41:53.000Z</time>
      </trkpt>
      <trkpt lat="47.50663" lon="6.72175">
        <ele>399.6</ele>
        <time>2017-02-26T10:41:54.000Z</time>
      </trkpt>
      <trkpt lat="47.50659" lon="6.72173">
        <ele>399.2</ele>
        <time>2017-02-26T10:41:55.000Z</time>
      </trkpt>
      <trkpt lat="47.50656" lon="6.7217">
        <ele>398.8</ele>
        <time>2017-02-26T10:41:56.000Z</time>
      </trkpt>
      <trkpt lat="47.50652" lon="6.72168">
        <ele>399</ele>
        <time>2017-02-26T10:41:57.000Z</time>
      </trkpt>
      <trkpt lat="47.50648" lon="6.72165">
        <ele>398.4</ele>
        <time>2017-02-26T10:41:58.000Z</time>
      </trkpt>
      <trkpt lat="47.50643" lon="6.72163">
        <ele>398.5</ele>
        <time>2017-02-26T10:41:59.000Z</time>
      </trkpt>
      <trkpt lat="47.50638" lon="6.7216">
        <ele>399</ele>
        <time>2017-02-26T10:42:00.000Z</time>
      </trkpt>
      <trkpt lat="47.50634" lon="6.72158">
        <ele>399.5</ele>
        <time>2017-02-26T10:42:01.000Z</time>
      </trkpt>
      <trkpt lat="47.50629" lon="6.72155">
        <ele>399.8</ele>
        <time>2017-02-26T10:42:02.000Z</time>
      </trkpt>
      <trkpt lat="47.50624" lon="6.72152">
        <ele>400.3</ele>
        <time>2017-02-26T10:42:03.000Z</time>
      </trkpt>
      <trkpt lat="47.50619" lon="6.72149">
        <ele>400.2</ele>
        <time>2017-02-26T10:42:04.000Z</time>
      </trkpt>
      <trkpt lat="47.50614" lon="6.72146">
        <ele>399.4</ele>
        <time>2017-02-26T10:42:05.000Z</time>
      </trkpt>
      <trkpt lat="47.50609" lon="6.72143">
        <ele>399.4</ele>
        <time>2017-02-26T10:42:06.000Z</time>
      </trkpt>
      <trkpt lat="47.50604" lon="6.7214">
        <ele>399.1</ele>
        <time>2017-02-26T10:42:07.000Z</time>
      </trkpt>
      <trkpt lat="47.50599" lon="6.72136">
        <ele>398.8</ele>
        <time>2017-02-26T10:42:08.000Z</time>
      </trkpt>
      <trkpt lat="47.50594" lon="6.72133">
        <ele>398.5</ele>
        <time>2017-02-26T10:42:09.000Z</time>
      </trkpt>
      <trkpt lat="47.50588" lon="6.72129">
        <ele>398.2</ele>
        <time>2017-02-26T10:42:10.000Z</time>
      </trkpt>
      <trkpt lat="47.50583" lon="6.72127">
        <ele>398.2</ele>
        <time>2017-02-26T10:42:11.000Z</time>
      </trkpt>
      <trkpt lat="47.5058" lon="6.72126">
        <ele>398.1</ele>
        <time>2017-02-26T10:42:12.000Z</time>
      </trkpt>
      <trkpt lat="47.50577" lon="6.72126">
        <ele>398.1</ele>
        <time>2017-02-26T10:42:13.000Z</time>
      </trkpt>
      <trkpt lat="47.50574" lon="6.72127">
        <ele>398.1</ele>
        <time>2017-02-26T10:42:15.000Z</time>
      </trkpt>
      <trkpt lat="47.50572" lon="6.72127">
        <ele>397.9</ele>
        <time>2017-02-26T10:42:16.000Z</time>
      </trkpt>
      <trkpt lat="47.5057" lon="6.7213">
        <ele>397.7</ele>
        <time>2017-02-26T10:42:18.000Z</time>
      </trkpt>
      <trkpt lat="47.50569" lon="6.72132">
        <ele>397.6</ele>
        <time>2017-02-26T10:42:19.000Z</time>
      </trkpt>
      <trkpt lat="47.50567" lon="6.72135">
        <ele>397.4</ele>
        <time>2017-02-26T10:42:20.000Z</time>
      </trkpt>
      <trkpt lat="47.50565" lon="6.72137">
        <ele>397.4</ele>
        <time>2017-02-26T10:42:21.000Z</time>
      </trkpt>
      <trkpt lat="47.50562" lon="6.72142">
        <ele>397.3</ele>
        <time>2017-02-26T10:42:22.000Z</time>
      </trkpt>
      <trkpt lat="47.5056" lon="6.72146">
        <ele>397.3</ele>
        <time>2017-02-26T10:42:23.000Z</time>
      </trkpt>
      <trkpt lat="47.50557" lon="6.7215">
        <ele>397.2</ele>
        <time>2017-02-26T10:42:24.000Z</time>
      </trkpt>
      <trkpt lat="47.50555" lon="6.72153">
        <ele>397.2</ele>
        <time>2017-02-26T10:42:25.000Z</time>
      </trkpt>
      <trkpt lat="47.50552" lon="6.72157">
        <ele>397.1</ele>
        <time>2017-02-26T10:42:26.000Z</time>
      </trkpt>
      <trkpt lat="47.5055" lon="6.72161">
        <ele>397.1</ele>
        <time>2017-02-26T10:42:27.000Z</time>
      </trkpt>
      <trkpt lat="47.50548" lon="6.72164">
        <ele>395.9</ele>
        <time>2017-02-26T10:42:28.000Z</time>
      </trkpt>
      <trkpt lat="47.50545" lon="6.72168">
        <ele>395</ele>
        <time>2017-02-26T10:42:29.000Z</time>
      </trkpt>
      <trkpt lat="47.50542" lon="6.72171">
        <ele>394.3</ele>
        <time>2017-02-26T10:42:30.000Z</time>
      </trkpt>
      <trkpt lat="47.5054" lon="6.72175">
        <ele>393.9</ele>
        <time>2017-02-26T10:42:31.000Z</time>
      </trkpt>
      <trkpt lat="47.50536" lon="6.72179">
        <ele>393.4</ele>
        <time>2017-02-26T10:42:32.000Z</time>
      </trkpt>
      <trkpt lat="47.50533" lon="6.72183">
        <ele>393</ele>
        <time>2017-02-26T10:42:33.000Z</time>
      </trkpt>
      <trkpt lat="47.50529" lon="6.72187">
        <ele>393.3</ele>
        <time>2017-02-26T10:42:34.000Z</time>
      </trkpt>
      <trkpt lat="47.50526" lon="6.7219">
        <ele>393.9</ele>
        <time>2017-02-26T10:42:35.000Z</time>
      </trkpt>
      <trkpt lat="47.50522" lon="6.72194">
        <ele>393.8</ele>
        <time>2017-02-26T10:42:36.000Z</time>
      </trkpt>
      <trkpt lat="47.50518" lon="6.72198">
        <ele>393.8</ele>
        <time>2017-02-26T10:42:37.000Z</time>
      </trkpt>
      <trkpt lat="47.50515" lon="6.72202">
        <ele>393.7</ele>
        <time>2017-02-26T10:42:38.000Z</time>
      </trkpt>
      <trkpt lat="47.50512" lon="6.72206">
        <ele>393.4</ele>
        <time>2017-02-26T10:42:39.000Z</time>
      </trkpt>
      <trkpt lat="47.50508" lon="6.72211">
        <ele>392.8</ele>
        <time>2017-02-26T10:42:40.000Z</time>
      </trkpt>
      <trkpt lat="47.50504" lon="6.72215">
        <ele>392.2</ele>
        <time>2017-02-26T10:42:41.000Z</time>
      </trkpt>
      <trkpt lat="47.50502" lon="6.72218">
        <ele>392.1</ele>
        <time>2017-02-26T10:42:42.000Z</time>
      </trkpt>
      <trkpt lat="47.50498" lon="6.72222">
        <ele>391.9</ele>
        <time>2017-02-26T10:42:43.000Z</time>
      </trkpt>
      <trkpt lat="47.50494" lon="6.72226">
        <ele>391.8</ele>
        <time>2017-02-26T10:42:44.000Z</time>
      </trkpt>
      <trkpt lat="47.50491" lon="6.7223">
        <ele>392</ele>
        <time>2017-02-26T10:42:45.000Z</time>
      </trkpt>
      <trkpt lat="47.50487" lon="6.72234">
        <ele>392.2</ele>
        <time>2017-02-26T10:42:46.000Z</time>
      </trkpt>
      <trkpt lat="47.50483" lon="6.72238">
        <ele>392.4</ele>
        <time>2017-02-26T10:42:47.000Z</time>
      </trkpt>
      <trkpt lat="47.50479" lon="6.72242">
        <ele>392.2</ele>
        <time>2017-02-26T10:42:48.000Z</time>
      </trkpt>
      <trkpt lat="47.50475" lon="6.72245">
        <ele>391.8</ele>
        <time>2017-02-26T10:42:49.000Z</time>
      </trkpt>
      <trkpt lat="47.50471" lon="6.72249">
        <ele>390.8</ele>
        <time>2017-02-26T10:42:50.000Z</time>
      </trkpt>
      <trkpt lat="47.50466" lon="6.72253">
        <ele>391.1</ele>
        <time>2017-02-26T10:42:51.000Z</time>
      </trkpt>
      <trkpt lat="47.50462" lon="6.72257">
        <ele>391.2</ele>
        <time>2017-02-26T10:42:52.000Z</time>
      </trkpt>
      <trkpt lat="47.50458" lon="6.7226">
        <ele>391</ele>
        <time>2017-02-26T10:42:53.000Z</time>
      </trkpt>
      <trkpt lat="47.50453" lon="6.72263">
        <ele>391.3</ele>
        <time>2017-02-26T10:42:54.000Z</time>
      </trkpt>
      <trkpt lat="47.50449" lon="6.72266">
        <ele>391.4</ele>
        <time>2017-02-26T10:42:55.000Z</time>
      </trkpt>
      <trkpt lat="47.50444" lon="6.72269">
        <ele>391.6</ele>
        <time>2017-02-26T10:42:56.000Z</time>
      </trkpt>
      <trkpt lat="47.50439" lon="6.72273">
        <ele>391.7</ele>
        <time>2017-02-26T10:42:57.000Z</time>
      </trkpt>
      <trkpt lat="47.50435" lon="6.72276">
        <ele>391.8</ele>
        <time>2017-02-26T10:42:58.000Z</time>
      </trkpt>
      <trkpt lat="47.50431" lon="6.72279">
        <ele>392.2</ele>
        <time>2017-02-26T10:42:59.000Z</time>
      </trkpt>
      <trkpt lat="47.50426" lon="6.72282">
        <ele>392</ele>
        <time>2017-02-26T10:43:00.000Z</time>
      </trkpt>
      <trkpt lat="47.50422" lon="6.72285">
        <ele>391.9</ele>
        <time>2017-02-26T10:43:01.000Z</time>
      </trkpt>
      <trkpt lat="47.50418" lon="6.72288">
        <ele>391.9</ele>
        <time>2017-02-26T10:43:02.000Z</time>
      </trkpt>
      <trkpt lat="47.50414" lon="6.72291">
        <ele>391.8</ele>
        <time>2017-02-26T10:43:03.000Z</time>
      </trkpt>
      <trkpt lat="47.5041" lon="6.72295">
        <ele>391.3</ele>
        <time>2017-02-26T10:43:04.000Z</time>
      </trkpt>
      <trkpt lat="47.50406" lon="6.72298">
        <ele>391.1</ele>
        <time>2017-02-26T10:43:05.000Z</time>
      </trkpt>
      <trkpt lat="47.50402" lon="6.72301">
        <ele>390.8</ele>
        <time>2017-02-26T10:43:06.000Z</time>
      </trkpt>
      <trkpt lat="47.50398" lon="6.72303">
        <ele>390.8</ele>
        <time>2017-02-26T10:43:07.000Z</time>
      </trkpt>
      <trkpt lat="47.50393" lon="6.72306">
        <ele>390.7</ele>
        <time>2017-02-26T10:43:08.000Z</time>
      </trkpt>
      <trkpt lat="47.50389" lon="6.72308">
        <ele>390.3</ele>
        <time>2017-02-26T10:43:09.000Z</time>
      </trkpt>
      <trkpt lat="47.50384" lon="6.7231">
        <ele>389.9</ele>
        <time>2017-02-26T10:43:10.000Z</time>
      </trkpt>
      <trkpt lat="47.5038" lon="6.72312">
        <ele>389.6</ele>
        <time>2017-02-26T10:43:11.000Z</time>
      </trkpt>
      <trkpt lat="47.50376" lon="6.72314">
        <ele>389.7</ele>
        <time>2017-02-26T10:43:12.000Z</time>
      </trkpt>
      <trkpt lat="47.50371" lon="6.72316">
        <ele>389.8</ele>
        <time>2017-02-26T10:43:13.000Z</time>
      </trkpt>
      <trkpt lat="47.50367" lon="6.72318">
        <ele>389.8</ele>
        <time>2017-02-26T10:43:14.000Z</time>
      </trkpt>
      <trkpt lat="47.50362" lon="6.7232">
        <ele>389.9</ele>
        <time>2017-02-26T10:43:15.000Z</time>
      </trkpt>
      <trkpt lat="47.50358" lon="6.72322">
        <ele>389.8</ele>
        <time>2017-02-26T10:43:16.000Z</time>
      </trkpt>
      <trkpt lat="47.50354" lon="6.72325">
        <ele>389.8</ele>
        <time>2017-02-26T10:43:17.000Z</time>
      </trkpt>
      <trkpt lat="47.5035" lon="6.72327">
        <ele>389.8</ele>
        <time>2017-02-26T10:43:18.000Z</time>
      </trkpt>
      <trkpt lat="47.50347" lon="6.72329">
        <ele>389.8</ele>
        <time>2017-02-26T10:43:19.000Z</time>
      </trkpt>
      <trkpt lat="47.50342" lon="6.7233">
        <ele>389.8</ele>
        <time>2017-02-26T10:43:20.000Z</time>
      </trkpt>
      <trkpt lat="47.50339" lon="6.72332">
        <ele>390.2</ele>
        <time>2017-02-26T10:43:21.000Z</time>
      </trkpt>
      <trkpt lat="47.50335" lon="6.72334">
        <ele>390.3</ele>
        <time>2017-02-26T10:43:22.000Z</time>
      </trkpt>
      <trkpt lat="47.50331" lon="6.72335">
        <ele>390.3</ele>
        <time>2017-02-26T10:43:23.000Z</time>
      </trkpt>
      <trkpt lat="47.50328" lon="6.72337">
        <ele>390.3</ele>
        <time>2017-02-26T10:43:24.000Z</time>
      </trkpt>
      <trkpt lat="47.50326" lon="6.72338">
        <ele>390.2</ele>
        <time>2017-02-26T10:43:25.000Z</time>
      </trkpt>
      <trkpt lat="47.50323" lon="6.7234">
        <ele>390.3</ele>
        <time>2017-02-26T10:43:26.000Z</time>
      </trkpt>
      <trkpt lat="47.50319" lon="6.72341">
        <ele>390.3</ele>
        <time>2017-02-26T10:43:27.000Z</time>
      </trkpt>
      <trkpt lat="47.50317" lon="6.72343">
        <ele>390.3</ele>
        <time>2017-02-26T10:43:28.000Z</time>
      </trkpt>
      <trkpt lat="47.50314" lon="6.72343">
        <ele>390.4</ele>
        <time>2017-02-26T10:43:37.000Z</time>
      </trkpt>
      <trkpt lat="47.50311" lon="6.72344">
        <ele>390.4</ele>
        <time>2017-02-26T10:43:38.000Z</time>
      </trkpt>
      <trkpt lat="47.50308" lon="6.72344">
        <ele>390.3</ele>
        <time>2017-02-26T10:43:39.000Z</time>
      </trkpt>
      <trkpt lat="47.50305" lon="6.72345">
        <ele>390.3</ele>
        <time>2017-02-26T10:43:40.000Z</time>
      </trkpt>
      <trkpt lat="47.503" lon="6.72347">
        <ele>391</ele>
        <time>2017-02-26T10:43:41.000Z</time>
      </trkpt>
      <trkpt lat="47.50296" lon="6.72349">
        <ele>391.5</ele>
        <time>2017-02-26T10:43:42.000Z</time>
      </trkpt>
      <trkpt lat="47.50291" lon="6.72352">
        <ele>392.4</ele>
        <time>2017-02-26T10:43:43.000Z</time>
      </trkpt>
      <trkpt lat="47.50286" lon="6.72356">
        <ele>392.9</ele>
        <time>2017-02-26T10:43:44.000Z</time>
      </trkpt>
      <trkpt lat="47.50282" lon="6.72358">
        <ele>393</ele>
        <time>2017-02-26T10:43:45.000Z</time>
      </trkpt>
      <trkpt lat="47.50278" lon="6.7236">
        <ele>393</ele>
        <time>2017-02-26T10:43:46.000Z</time>
      </trkpt>
      <trkpt lat="47.50275" lon="6.72361">
        <ele>393</ele>
        <time>2017-02-26T10:43:47.000Z</time>
      </trkpt>
      <trkpt lat="47.5027" lon="6.72364">
        <ele>393</ele>
        <time>2017-02-26T10:43:48.000Z</time>
      </trkpt>
      <trkpt lat="47.50267" lon="6.72364">
        <ele>393</ele>
        <time>2017-02-26T10:43:49.000Z</time>
      </trkpt>
      <trkpt lat="47.50264" lon="6.72366">
        <ele>393.1</ele>
        <time>2017-02-26T10:43:50.000Z</time>
      </trkpt>
      <trkpt lat="47.50261" lon="6.72367">
        <ele>393.1</ele>
        <time>2017-02-26T10:43:51.000Z</time>
      </trkpt>
      <trkpt lat="47.50258" lon="6.72369">
        <ele>393</ele>
        <time>2017-02-26T10:43:52.000Z</time>
      </trkpt>
      <trkpt lat="47.50255" lon="6.72371">
        <ele>393.1</ele>
        <time>2017-02-26T10:43:53.000Z</time>
      </trkpt>
      <trkpt lat="47.50252" lon="6.72372">
        <ele>393</ele>
        <time>2017-02-26T10:43:54.000Z</time>
      </trkpt>
      <trkpt lat="47.50249" lon="6.72374">
        <ele>391.8</ele>
        <time>2017-02-26T10:43:55.000Z</time>
      </trkpt>
      <trkpt lat="47.50245" lon="6.72375">
        <ele>391.5</ele>
        <time>2017-02-26T10:43:56.000Z</time>
      </trkpt>
      <trkpt lat="47.5024" lon="6.72377">
        <ele>390.7</ele>
        <time>2017-02-26T10:43:57.000Z</time>
      </trkpt>
      <trkpt lat="47.50236" lon="6.72379">
        <ele>390.6</ele>
        <time>2017-02-26T10:43:58.000Z</time>
      </trkpt>
      <trkpt lat="47.50232" lon="6.72382">
        <ele>390.1</ele>
        <time>2017-02-26T10:43:59.000Z</time>
      </trkpt>
      <trkpt lat="47.50228" lon="6.72383">
        <ele>389.7</ele>
        <time>2017-02-26T10:44:00.000Z</time>
      </trkpt>
      <trkpt lat="47.50224" lon="6.72385">
        <ele>389.7</ele>
        <time>2017-02-26T10:44:01.000Z</time>
      </trkpt>
      <trkpt lat="47.50221" lon="6.72386">
        <ele>389.7</ele>
        <time>2017-02-26T10:44:02.000Z</time>
      </trkpt>
      <trkpt lat="47.50217" lon="6.72388">
        <ele>389.7</ele>
        <time>2017-02-26T10:44:03.000Z</time>
      </trkpt>
      <trkpt lat="47.50214" lon="6.7239">
        <ele>389.7</ele>
        <time>2017-02-26T10:44:04.000Z</time>
      </trkpt>
      <trkpt lat="47.50212" lon="6.72391">
        <ele>389.8</ele>
        <time>2017-02-26T10:44:05.000Z</time>
      </trkpt>
      <trkpt lat="47.50209" lon="6.72392">
        <ele>390</ele>
        <time>2017-02-26T10:44:06.000Z</time>
      </trkpt>
      <trkpt lat="47.50207" lon="6.72394">
        <ele>390.1</ele>
        <time>2017-02-26T10:44:07.000Z</time>
      </trkpt>
      <trkpt lat="47.50204" lon="6.72396">
        <ele>390.2</ele>
        <time>2017-02-26T10:44:08.000Z</time>
      </trkpt>
      <trkpt lat="47.50201" lon="6.72398">
        <ele>390.4</ele>
        <time>2017-02-26T10:44:09.000Z</time>
      </trkpt>
      <trkpt lat="47.50197" lon="6.724">
        <ele>390.5</ele>
        <time>2017-02-26T10:44:10.000Z</time>
      </trkpt>
      <trkpt lat="47.50193" lon="6.72402">
        <ele>390.4</ele>
        <time>2017-02-26T10:44:11.000Z</time>
      </trkpt>
      <trkpt lat="47.5019" lon="6.72405">
        <ele>390.4</ele>
        <time>2017-02-26T10:44:12.000Z</time>
      </trkpt>
      <trkpt lat="47.50187" lon="6.72407">
        <ele>390.5</ele>
        <time>2017-02-26T10:44:13.000Z</time>
      </trkpt>
      <trkpt lat="47.50183" lon="6.72409">
        <ele>390.7</ele>
        <time>2017-02-26T10:44:15.000Z</time>
      </trkpt>
      <trkpt lat="47.50179" lon="6.72411">
        <ele>390.8</ele>
        <time>2017-02-26T10:44:16.000Z</time>
      </trkpt>
      <trkpt lat="47.50177" lon="6.72413">
        <ele>391</ele>
        <time>2017-02-26T10:44:17.000Z</time>
      </trkpt>
      <trkpt lat="47.50175" lon="6.72414">
        <ele>391.1</ele>
        <time>2017-02-26T10:44:18.000Z</time>
      </trkpt>
      <trkpt lat="47.50172" lon="6.72416">
        <ele>391.3</ele>
        <time>2017-02-26T10:44:19.000Z</time>
      </trkpt>
      <trkpt lat="47.50169" lon="6.72418">
        <ele>391.4</ele>
        <time>2017-02-26T10:44:20.000Z</time>
      </trkpt>
      <trkpt lat="47.50167" lon="6.72419">
        <ele>391.5</ele>
        <time>2017-02-26T10:44:21.000Z</time>
      </trkpt>
      <trkpt lat="47.50164" lon="6.72421">
        <ele>391.7</ele>
        <time>2017-02-26T10:44:22.000Z</time>
      </trkpt>
      <trkpt lat="47.50162" lon="6.72423">
        <ele>391.8</ele>
        <time>2017-02-26T10:44:23.000Z</time>
      </trkpt>
      <trkpt lat="47.5016" lon="6.72425">
        <ele>391.9</ele>
        <time>2017-02-26T10:44:24.000Z</time>
      </trkpt>
      <trkpt lat="47.50158" lon="6.72426">
        <ele>391.9</ele>
        <time>2017-02-26T10:44:25.000Z</time>
      </trkpt>
      <trkpt lat="47.50156" lon="6.72429">
        <ele>392</ele>
        <time>2017-02-26T10:44:26.000Z</time>
      </trkpt>
      <trkpt lat="47.50155" lon="6.72432">
        <ele>392</ele>
        <time>2017-02-26T10:44:27.000Z</time>
      </trkpt>
      <trkpt lat="47.50153" lon="6.72435">
        <ele>392.1</ele>
        <time>2017-02-26T10:44:28.000Z</time>
      </trkpt>
      <trkpt lat="47.5015" lon="6.72438">
        <ele>392.1</ele>
        <time>2017-02-26T10:44:29.000Z</time>
      </trkpt>
      <trkpt lat="47.50148" lon="6.72441">
        <ele>392.2</ele>
        <time>2017-02-26T10:44:30.000Z</time>
      </trkpt>
      <trkpt lat="47.50147" lon="6.72444">
        <ele>392.2</ele>
        <time>2017-02-26T10:44:31.000Z</time>
      </trkpt>
      <trkpt lat="47.50145" lon="6.72448">
        <ele>392.2</ele>
        <time>2017-02-26T10:44:32.000Z</time>
      </trkpt>
      <trkpt lat="47.50143" lon="6.72452">
        <ele>392.2</ele>
        <time>2017-02-26T10:44:33.000Z</time>
      </trkpt>
      <trkpt lat="47.50142" lon="6.72456">
        <ele>392.2</ele>
        <time>2017-02-26T10:44:34.000Z</time>
      </trkpt>
      <trkpt lat="47.5014" lon="6.72461">
        <ele>392.3</ele>
        <time>2017-02-26T10:44:35.000Z</time>
      </trkpt>
      <trkpt lat="47.50138" lon="6.72465">
        <ele>392.4</ele>
        <time>2017-02-26T10:44:36.000Z</time>
      </trkpt>
      <trkpt lat="47.50136" lon="6.72469">
        <ele>392.5</ele>
        <time>2017-02-26T10:44:37.000Z</time>
      </trkpt>
      <trkpt lat="47.50135" lon="6.72472">
        <ele>392.6</ele>
        <time>2017-02-26T10:44:38.000Z</time>
      </trkpt>
      <trkpt lat="47.50133" lon="6.72475">
        <ele>392.7</ele>
        <time>2017-02-26T10:44:39.000Z</time>
      </trkpt>
      <trkpt lat="47.50132" lon="6.72478">
        <ele>392.8</ele>
        <time>2017-02-26T10:44:40.000Z</time>
      </trkpt>
      <trkpt lat="47.5013" lon="6.72484">
        <ele>393</ele>
        <time>2017-02-26T10:44:42.000Z</time>
      </trkpt>
      <trkpt lat="47.50128" lon="6.72487">
        <ele>393.2</ele>
        <time>2017-02-26T10:44:43.000Z</time>
      </trkpt>
      <trkpt lat="47.50127" lon="6.7249">
        <ele>393.4</ele>
        <time>2017-02-26T10:44:44.000Z</time>
      </trkpt>
      <trkpt lat="47.50126" lon="6.72493">
        <ele>393.6</ele>
        <time>2017-02-26T10:44:45.000Z</time>
      </trkpt>
      <trkpt lat="47.50125" lon="6.72497">
        <ele>393.7</ele>
        <time>2017-02-26T10:44:46.000Z</time>
      </trkpt>
      <trkpt lat="47.50124" lon="6.725">
        <ele>393.8</ele>
        <time>2017-02-26T10:44:47.000Z</time>
      </trkpt>
      <trkpt lat="47.50123" lon="6.72504">
        <ele>393.9</ele>
        <time>2017-02-26T10:44:48.000Z</time>
      </trkpt>
      <trkpt lat="47.50121" lon="6.72507">
        <ele>394.1</ele>
        <time>2017-02-26T10:44:49.000Z</time>
      </trkpt>
      <trkpt lat="47.5012" lon="6.7251">
        <ele>394.2</ele>
        <time>2017-02-26T10:44:50.000Z</time>
      </trkpt>
      <trkpt lat="47.50118" lon="6.72512">
        <ele>394.3</ele>
        <time>2017-02-26T10:44:51.000Z</time>
      </trkpt>
      <trkpt lat="47.50115" lon="6.72516">
        <ele>394.7</ele>
        <time>2017-02-26T10:44:53.000Z</time>
      </trkpt>
      <trkpt lat="47.50113" lon="6.72518">
        <ele>394.9</ele>
        <time>2017-02-26T10:44:54.000Z</time>
      </trkpt>
      <trkpt lat="47.50112" lon="6.72521">
        <ele>395.2</ele>
        <time>2017-02-26T10:44:55.000Z</time>
      </trkpt>
      <trkpt lat="47.50111" lon="6.72523">
        <ele>395.4</ele>
        <time>2017-02-26T10:44:56.000Z</time>
      </trkpt>
      <trkpt lat="47.50109" lon="6.72526">
        <ele>395.5</ele>
        <time>2017-02-26T10:44:57.000Z</time>
      </trkpt>
      <trkpt lat="47.50108" lon="6.72529">
        <ele>395.6</ele>
        <time>2017-02-26T10:44:58.000Z</time>
      </trkpt>
      <trkpt lat="47.50106" lon="6.72535">
        <ele>395.9</ele>
        <time>2017-02-26T10:45:00.000Z</time>
      </trkpt>
      <trkpt lat="47.50105" lon="6.72538">
        <ele>396.1</ele>
        <time>2017-02-26T10:45:01.000Z</time>
      </trkpt>
      <trkpt lat="47.50103" lon="6.72541">
        <ele>396.3</ele>
        <time>2017-02-26T10:45:02.000Z</time>
      </trkpt>
      <trkpt lat="47.50102" lon="6.72545">
        <ele>396.4</ele>
        <time>2017-02-26T10:45:03.000Z</time>
      </trkpt>
      <trkpt lat="47.501" lon="6.72548">
        <ele>396.5</ele>
        <time>2017-02-26T10:45:04.000Z</time>
      </trkpt>
      <trkpt lat="47.50098" lon="6.72551">
        <ele>396.5</ele>
        <time>2017-02-26T10:45:05.000Z</time>
      </trkpt>
      <trkpt lat="47.50096" lon="6.72555">
        <ele>396.6</ele>
        <time>2017-02-26T10:45:06.000Z</time>
      </trkpt>
      <trkpt lat="47.50095" lon="6.72558">
        <ele>396.6</ele>
        <time>2017-02-26T10:45:07.000Z</time>
      </trkpt>
      <trkpt lat="47.50092" lon="6.72561">
        <ele>396.7</ele>
        <time>2017-02-26T10:45:08.000Z</time>
      </trkpt>
      <trkpt lat="47.5009" lon="6.72565">
        <ele>396.7</ele>
        <time>2017-02-26T10:45:09.000Z</time>
      </trkpt>
      <trkpt lat="47.50088" lon="6.72568">
        <ele>396.7</ele>
        <time>2017-02-26T10:45:10.000Z</time>
      </trkpt>
      <trkpt lat="47.50086" lon="6.72573">
        <ele>396.7</ele>
        <time>2017-02-26T10:45:11.000Z</time>
      </trkpt>
      <trkpt lat="47.50083" lon="6.72579">
        <ele>396.7</ele>
        <time>2017-02-26T10:45:12.000Z</time>
      </trkpt>
      <trkpt lat="47.5008" lon="6.72583">
        <ele>396.9</ele>
        <time>2017-02-26T10:45:13.000Z</time>
      </trkpt>
      <trkpt lat="47.50077" lon="6.72589">
        <ele>397.2</ele>
        <time>2017-02-26T10:45:14.000Z</time>
      </trkpt>
      <trkpt lat="47.50075" lon="6.72593">
        <ele>397.4</ele>
        <time>2017-02-26T10:45:15.000Z</time>
      </trkpt>
      <trkpt lat="47.50072" lon="6.72597">
        <ele>397.5</ele>
        <time>2017-02-26T10:45:16.000Z</time>
      </trkpt>
      <trkpt lat="47.5007" lon="6.72599">
        <ele>396.9</ele>
        <time>2017-02-26T10:45:17.000Z</time>
      </trkpt>
      <trkpt lat="47.50067" lon="6.72603">
        <ele>396.2</ele>
        <time>2017-02-26T10:45:18.000Z</time>
      </trkpt>
      <trkpt lat="47.50064" lon="6.72608">
        <ele>395.9</ele>
        <time>2017-02-26T10:45:19.000Z</time>
      </trkpt>
      <trkpt lat="47.50061" lon="6.72612">
        <ele>395.9</ele>
        <time>2017-02-26T10:45:20.000Z</time>
      </trkpt>
      <trkpt lat="47.50057" lon="6.72617">
        <ele>395.6</ele>
        <time>2017-02-26T10:45:21.000Z</time>
      </trkpt>
      <trkpt lat="47.50053" lon="6.72622">
        <ele>395.1</ele>
        <time>2017-02-26T10:45:22.000Z</time>
      </trkpt>
      <trkpt lat="47.5005" lon="6.72625">
        <ele>394.6</ele>
        <time>2017-02-26T10:45:23.000Z</time>
      </trkpt>
      <trkpt lat="47.50046" lon="6.7263">
        <ele>394.3</ele>
        <time>2017-02-26T10:45:24.000Z</time>
      </trkpt>
      <trkpt lat="47.50043" lon="6.72635">
        <ele>393.8</ele>
        <time>2017-02-26T10:45:25.000Z</time>
      </trkpt>
      <trkpt lat="47.50038" lon="6.72641">
        <ele>393.7</ele>
        <time>2017-02-26T10:45:26.000Z</time>
      </trkpt>
      <trkpt lat="47.50033" lon="6.72646">
        <ele>393.1</ele>
        <time>2017-02-26T10:45:27.000Z</time>
      </trkpt>
      <trkpt lat="47.50029" lon="6.72651">
        <ele>392.7</ele>
        <time>2017-02-26T10:45:28.000Z</time>
      </trkpt>
      <trkpt lat="47.50023" lon="6.72658">
        <ele>392.3</ele>
        <time>2017-02-26T10:45:29.000Z</time>
      </trkpt>
      <trkpt lat="47.50017" lon="6.72664">
        <ele>391.7</ele>
        <time>2017-02-26T10:45:30.000Z</time>
      </trkpt>
      <trkpt lat="47.50012" lon="6.7267">
        <ele>391.9</ele>
        <time>2017-02-26T10:45:31.000Z</time>
      </trkpt>
      <trkpt lat="47.50006" lon="6.72676">
        <ele>391.8</ele>
        <time>2017-02-26T10:45:32.000Z</time>
      </trkpt>
      <trkpt lat="47.50001" lon="6.72683">
        <ele>390.4</ele>
        <time>2017-02-26T10:45:33.000Z</time>
      </trkpt>
      <trkpt lat="47.49994" lon="6.72684">
        <ele>389.5</ele>
        <time>2017-02-26T10:45:34.000Z</time>
      </trkpt>
      <trkpt lat="47.49989" lon="6.72685">
        <ele>389.3</ele>
        <time>2017-02-26T10:45:35.000Z</time>
      </trkpt>
      <trkpt lat="47.49986" lon="6.72688">
        <ele>389.3</ele>
        <time>2017-02-26T10:45:36.000Z</time>
      </trkpt>
      <trkpt lat="47.49981" lon="6.72693">
        <ele>389.2</ele>
        <time>2017-02-26T10:45:37.000Z</time>
      </trkpt>
      <trkpt lat="47.49977" lon="6.72697">
        <ele>388.8</ele>
        <time>2017-02-26T10:45:38.000Z</time>
      </trkpt>
      <trkpt lat="47.49974" lon="6.727">
        <ele>388.7</ele>
        <time>2017-02-26T10:45:39.000Z</time>
      </trkpt>
      <trkpt lat="47.49972" lon="6.72704">
        <ele>388.6</ele>
        <time>2017-02-26T10:45:40.000Z</time>
      </trkpt>
      <trkpt lat="47.49968" lon="6.72708">
        <ele>387.8</ele>
        <time>2017-02-26T10:45:41.000Z</time>
      </trkpt>
      <trkpt lat="47.49965" lon="6.72712">
        <ele>387.2</ele>
        <time>2017-02-26T10:45:42.000Z</time>
      </trkpt>
      <trkpt lat="47.49962" lon="6.72716">
        <ele>387.2</ele>
        <time>2017-02-26T10:45:43.000Z</time>
      </trkpt>
      <trkpt lat="47.49961" lon="6.72719">
        <ele>387.2</ele>
        <time>2017-02-26T10:45:44.000Z</time>
      </trkpt>
      <trkpt lat="47.49958" lon="6.72724">
        <ele>387.2</ele>
        <time>2017-02-26T10:45:45.000Z</time>
      </trkpt>
      <trkpt lat="47.49957" lon="6.7273">
        <ele>387</ele>
        <time>2017-02-26T10:45:46.000Z</time>
      </trkpt>
      <trkpt lat="47.49953" lon="6.72735">
        <ele>386.9</ele>
        <time>2017-02-26T10:45:47.000Z</time>
      </trkpt>
      <trkpt lat="47.49949" lon="6.72738">
        <ele>386.8</ele>
        <time>2017-02-26T10:45:48.000Z</time>
      </trkpt>
      <trkpt lat="47.49946" lon="6.72742">
        <ele>386.4</ele>
        <time>2017-02-26T10:45:49.000Z</time>
      </trkpt>
      <trkpt lat="47.49944" lon="6.72746">
        <ele>386.3</ele>
        <time>2017-02-26T10:45:50.000Z</time>
      </trkpt>
      <trkpt lat="47.49942" lon="6.72748">
        <ele>386.2</ele>
        <time>2017-02-26T10:45:51.000Z</time>
      </trkpt>
      <trkpt lat="47.49941" lon="6.7275">
        <ele>386.2</ele>
        <time>2017-02-26T10:45:52.000Z</time>
      </trkpt>
      <trkpt lat="47.49939" lon="6.72753">
        <ele>386.1</ele>
        <time>2017-02-26T10:45:53.000Z</time>
      </trkpt>
      <trkpt lat="47.49937" lon="6.72759">
        <ele>386</ele>
        <time>2017-02-26T10:45:55.000Z</time>
      </trkpt>
      <trkpt lat="47.49936" lon="6.72762">
        <ele>385.9</ele>
        <time>2017-02-26T10:45:56.000Z</time>
      </trkpt>
      <trkpt lat="47.49935" lon="6.72765">
        <ele>385.8</ele>
        <time>2017-02-26T10:45:57.000Z</time>
      </trkpt>
      <trkpt lat="47.49934" lon="6.72769">
        <ele>385.8</ele>
        <time>2017-02-26T10:45:58.000Z</time>
      </trkpt>
      <trkpt lat="47.49934" lon="6.72773">
        <ele>385.7</ele>
        <time>2017-02-26T10:45:59.000Z</time>
      </trkpt>
      <trkpt lat="47.49934" lon="6.72776">
        <ele>385.7</ele>
        <time>2017-02-26T10:46:00.000Z</time>
      </trkpt>
      <trkpt lat="47.49933" lon="6.7278">
        <ele>385.6</ele>
        <time>2017-02-26T10:46:01.000Z</time>
      </trkpt>
      <trkpt lat="47.49933" lon="6.72784">
        <ele>385.5</ele>
        <time>2017-02-26T10:46:02.000Z</time>
      </trkpt>
      <trkpt lat="47.49934" lon="6.7278">
        <ele>385.7</ele>
        <time>2017-02-26T10:46:07.000Z</time>
      </trkpt>
      <trkpt lat="47.49934" lon="6.72777">
        <ele>385.8</ele>
        <time>2017-02-26T10:46:08.000Z</time>
      </trkpt>
      <trkpt lat="47.49933" lon="6.72783">
        <ele>388.5</ele>
        <time>2017-02-26T10:46:47.000Z</time>
      </trkpt>
      <trkpt lat="47.49934" lon="6.72786">
        <ele>388.5</ele>
        <time>2017-02-26T10:46:48.000Z</time>
      </trkpt>
      <trkpt lat="47.49934" lon="6.72791">
        <ele>388.5</ele>
        <time>2017-02-26T10:46:50.000Z</time>
      </trkpt>
      <trkpt lat="47.49934" lon="6.72795">
        <ele>388.4</ele>
        <time>2017-02-26T10:46:51.000Z</time>
      </trkpt>
      <trkpt lat="47.49934" lon="6.72799">
        <ele>388.4</ele>
        <time>2017-02-26T10:46:52.000Z</time>
      </trkpt>
      <trkpt lat="47.49934" lon="6.72804">
        <ele>388.4</ele>
        <time>2017-02-26T10:46:53.000Z</time>
      </trkpt>
      <trkpt lat="47.49934" lon="6.72809">
        <ele>388.3</ele>
        <time>2017-02-26T10:46:54.000Z</time>
      </trkpt>
      <trkpt lat="47.49935" lon="6.72812">
        <ele>388.4</ele>
        <time>2017-02-26T10:46:55.000Z</time>
      </trkpt>
      <trkpt lat="47.49935" lon="6.72816">
        <ele>388.4</ele>
        <time>2017-02-26T10:46:56.000Z</time>
      </trkpt>
      <trkpt lat="47.49935" lon="6.7282">
        <ele>388.4</ele>
        <time>2017-02-26T10:46:57.000Z</time>
      </trkpt>
      <trkpt lat="47.49936" lon="6.72825">
        <ele>388.3</ele>
        <time>2017-02-26T10:46:59.000Z</time>
      </trkpt>
      <trkpt lat="47.49936" lon="6.72829">
        <ele>388.3</ele>
        <time>2017-02-26T10:47:00.000Z</time>
      </trkpt>
      <trkpt lat="47.49937" lon="6.72833">
        <ele>388.2</ele>
        <time>2017-02-26T10:47:01.000Z</time>
      </trkpt>
      <trkpt lat="47.49937" lon="6.72836">
        <ele>388.2</ele>
        <time>2017-02-26T10:47:02.000Z</time>
      </trkpt>
      <trkpt lat="47.49938" lon="6.7284">
        <ele>388.2</ele>
        <time>2017-02-26T10:47:03.000Z</time>
      </trkpt>
      <trkpt lat="47.49938" lon="6.72845">
        <ele>388.2</ele>
        <time>2017-02-26T10:47:04.000Z</time>
      </trkpt>
      <trkpt lat="47.49939" lon="6.72851">
        <ele>388.2</ele>
        <time>2017-02-26T10:47:05.000Z</time>
      </trkpt>
      <trkpt lat="47.4994" lon="6.72857">
        <ele>388.2</ele>
        <time>2017-02-26T10:47:06.000Z</time>
      </trkpt>
      <trkpt lat="47.4994" lon="6.72862">
        <ele>388.2</ele>
        <time>2017-02-26T10:47:07.000Z</time>
      </trkpt>
      <trkpt lat="47.49941" lon="6.72868">
        <ele>388.2</ele>
        <time>2017-02-26T10:47:08.000Z</time>
      </trkpt>
      <trkpt lat="47.49942" lon="6.72874">
        <ele>388.2</ele>
        <time>2017-02-26T10:47:09.000Z</time>
      </trkpt>
      <trkpt lat="47.49942" lon="6.72879">
        <ele>388.2</ele>
        <time>2017-02-26T10:47:10.000Z</time>
      </trkpt>
      <trkpt lat="47.49942" lon="6.72883">
        <ele>388.3</ele>
        <time>2017-02-26T10:47:12.000Z</time>
      </trkpt>
      <trkpt lat="47.49942" lon="6.72885">
        <ele>388.3</ele>
        <time>2017-02-26T10:47:13.000Z</time>
      </trkpt>
      <trkpt lat="47.49942" lon="6.72885">
        <ele>388.4</ele>
        <time>2017-02-26T10:47:19.000Z</time>
      </trkpt>
      <trkpt lat="47.49942" lon="6.72898">
        <ele>388.5</ele>
        <time>2017-02-26T10:47:20.000Z</time>
      </trkpt>
      <trkpt lat="47.49942" lon="6.72898">
        <ele>389</ele>
        <time>2017-02-26T10:47:26.000Z</time>
      </trkpt>
      <trkpt lat="47.49938" lon="6.72909">
        <ele>389</ele>
        <time>2017-02-26T10:47:27.000Z</time>
      </trkpt>
      <trkpt lat="47.49936" lon="6.72914">
        <ele>389</ele>
        <time>2017-02-26T10:47:30.000Z</time>
      </trkpt>
      <trkpt lat="47.49934" lon="6.72918">
        <ele>389.1</ele>
        <time>2017-02-26T10:47:31.000Z</time>
      </trkpt>
      <trkpt lat="47.49933" lon="6.72921">
        <ele>389.2</ele>
        <time>2017-02-26T10:47:32.000Z</time>
      </trkpt>
      <trkpt lat="47.49932" lon="6.72924">
        <ele>389.3</ele>
        <time>2017-02-26T10:47:33.000Z</time>
      </trkpt>
      <trkpt lat="47.4993" lon="6.72927">
        <ele>389.5</ele>
        <time>2017-02-26T10:47:35.000Z</time>
      </trkpt>
      <trkpt lat="47.49929" lon="6.72929">
        <ele>389.6</ele>
        <time>2017-02-26T10:47:36.000Z</time>
      </trkpt>
      <trkpt lat="47.49927" lon="6.72934">
        <ele>389.5</ele>
        <time>2017-02-26T10:47:39.000Z</time>
      </trkpt>
      <trkpt lat="47.49926" lon="6.72935">
        <ele>389.4</ele>
        <time>2017-02-26T10:47:40.000Z</time>
      </trkpt>
      <trkpt lat="47.49925" lon="6.72941">
        <ele>389.3</ele>
        <time>2017-02-26T10:47:43.000Z</time>
      </trkpt>
      <trkpt lat="47.49924" lon="6.72942">
        <ele>389.3</ele>
        <time>2017-02-26T10:47:44.000Z</time>
      </trkpt>
      <trkpt lat="47.49922" lon="6.72946">
        <ele>389.3</ele>
        <time>2017-02-26T10:47:46.000Z</time>
      </trkpt>
      <trkpt lat="47.49921" lon="6.72948">
        <ele>389.3</ele>
        <time>2017-02-26T10:47:47.000Z</time>
      </trkpt>
      <trkpt lat="47.49919" lon="6.72952">
        <ele>389.4</ele>
        <time>2017-02-26T10:47:50.000Z</time>
      </trkpt>
      <trkpt lat="47.49917" lon="6.72953">
        <ele>389.4</ele>
        <time>2017-02-26T10:47:51.000Z</time>
      </trkpt>
      <trkpt lat="47.49914" lon="6.72951">
        <ele>389.4</ele>
        <time>2017-02-26T10:47:53.000Z</time>
      </trkpt>
      <trkpt lat="47.49911" lon="6.72948">
        <ele>389.4</ele>
        <time>2017-02-26T10:47:54.000Z</time>
      </trkpt>
      <trkpt lat="47.49909" lon="6.72946">
        <ele>389.4</ele>
        <time>2017-02-26T10:47:55.000Z</time>
      </trkpt>
      <trkpt lat="47.49905" lon="6.72944">
        <ele>389.3</ele>
        <time>2017-02-26T10:47:56.000Z</time>
      </trkpt>
      <trkpt lat="47.49901" lon="6.72942">
        <ele>389.3</ele>
        <time>2017-02-26T10:47:57.000Z</time>
      </trkpt>
      <trkpt lat="47.49897" lon="6.72941">
        <ele>389.2</ele>
        <time>2017-02-26T10:47:58.000Z</time>
      </trkpt>
      <trkpt lat="47.49894" lon="6.72944">
        <ele>387.7</ele>
        <time>2017-02-26T10:47:59.000Z</time>
      </trkpt>
      <trkpt lat="47.49892" lon="6.72948">
        <ele>387.6</ele>
        <time>2017-02-26T10:48:00.000Z</time>
      </trkpt>
      <trkpt lat="47.49889" lon="6.72953">
        <ele>387.5</ele>
        <time>2017-02-26T10:48:01.000Z</time>
      </trkpt>
      <trkpt lat="47.49886" lon="6.72958">
        <ele>387.5</ele>
        <time>2017-02-26T10:48:02.000Z</time>
      </trkpt>
      <trkpt lat="47.49883" lon="6.72963">
        <ele>387.5</ele>
        <time>2017-02-26T10:48:03.000Z</time>
      </trkpt>
      <trkpt lat="47.49881" lon="6.72968">
        <ele>387.4</ele>
        <time>2017-02-26T10:48:04.000Z</time>
      </trkpt>
      <trkpt lat="47.49879" lon="6.72973">
        <ele>387.4</ele>
        <time>2017-02-26T10:48:05.000Z</time>
      </trkpt>
      <trkpt lat="47.49878" lon="6.72978">
        <ele>387.3</ele>
        <time>2017-02-26T10:48:06.000Z</time>
      </trkpt>
      <trkpt lat="47.49876" lon="6.72984">
        <ele>387.2</ele>
        <time>2017-02-26T10:48:07.000Z</time>
      </trkpt>
      <trkpt lat="47.49874" lon="6.7299">
        <ele>387.2</ele>
        <time>2017-02-26T10:48:08.000Z</time>
      </trkpt>
      <trkpt lat="47.49872" lon="6.72995">
        <ele>387.1</ele>
        <time>2017-02-26T10:48:09.000Z</time>
      </trkpt>
      <trkpt lat="47.4987" lon="6.73">
        <ele>387</ele>
        <time>2017-02-26T10:48:10.000Z</time>
      </trkpt>
      <trkpt lat="47.49869" lon="6.73003">
        <ele>387</ele>
        <time>2017-02-26T10:48:11.000Z</time>
      </trkpt>
      <trkpt lat="47.49867" lon="6.73008">
        <ele>387</ele>
        <time>2017-02-26T10:48:12.000Z</time>
      </trkpt>
      <trkpt lat="47.49866" lon="6.73013">
        <ele>387</ele>
        <time>2017-02-26T10:48:13.000Z</time>
      </trkpt>
      <trkpt lat="47.49864" lon="6.73018">
        <ele>387.1</ele>
        <time>2017-02-26T10:48:14.000Z</time>
      </trkpt>
      <trkpt lat="47.49862" lon="6.73022">
        <ele>387.1</ele>
        <time>2017-02-26T10:48:15.000Z</time>
      </trkpt>
      <trkpt lat="47.4986" lon="6.73026">
        <ele>387.2</ele>
        <time>2017-02-26T10:48:16.000Z</time>
      </trkpt>
      <trkpt lat="47.49859" lon="6.73031">
        <ele>387.2</ele>
        <time>2017-02-26T10:48:17.000Z</time>
      </trkpt>
      <trkpt lat="47.49856" lon="6.73036">
        <ele>387.1</ele>
        <time>2017-02-26T10:48:18.000Z</time>
      </trkpt>
      <trkpt lat="47.49854" lon="6.73041">
        <ele>387.4</ele>
        <time>2017-02-26T10:48:19.000Z</time>
      </trkpt>
      <trkpt lat="47.49852" lon="6.73047">
        <ele>387.4</ele>
        <time>2017-02-26T10:48:20.000Z</time>
      </trkpt>
      <trkpt lat="47.4985" lon="6.73054">
        <ele>387.6</ele>
        <time>2017-02-26T10:48:21.000Z</time>
      </trkpt>
      <trkpt lat="47.49848" lon="6.73059">
        <ele>387.6</ele>
        <time>2017-02-26T10:48:22.000Z</time>
      </trkpt>
      <trkpt lat="47.49846" lon="6.73064">
        <ele>388</ele>
        <time>2017-02-26T10:48:23.000Z</time>
      </trkpt>
      <trkpt lat="47.49844" lon="6.7307">
        <ele>388</ele>
        <time>2017-02-26T10:48:24.000Z</time>
      </trkpt>
      <trkpt lat="47.49842" lon="6.73076">
        <ele>388.5</ele>
        <time>2017-02-26T10:48:25.000Z</time>
      </trkpt>
      <trkpt lat="47.4984" lon="6.7308">
        <ele>388.6</ele>
        <time>2017-02-26T10:48:26.000Z</time>
      </trkpt>
      <trkpt lat="47.49839" lon="6.73085">
        <ele>389.2</ele>
        <time>2017-02-26T10:48:27.000Z</time>
      </trkpt>
      <trkpt lat="47.49837" lon="6.73091">
        <ele>389.3</ele>
        <time>2017-02-26T10:48:28.000Z</time>
      </trkpt>
      <trkpt lat="47.49836" lon="6.73096">
        <ele>389.3</ele>
        <time>2017-02-26T10:48:29.000Z</time>
      </trkpt>
      <trkpt lat="47.49834" lon="6.73101">
        <ele>389.4</ele>
        <time>2017-02-26T10:48:30.000Z</time>
      </trkpt>
      <trkpt lat="47.49833" lon="6.73106">
        <ele>389.8</ele>
        <time>2017-02-26T10:48:31.000Z</time>
      </trkpt>
      <trkpt lat="47.49831" lon="6.73111">
        <ele>389.8</ele>
        <time>2017-02-26T10:48:32.000Z</time>
      </trkpt>
      <trkpt lat="47.4983" lon="6.73116">
        <ele>389.7</ele>
        <time>2017-02-26T10:48:33.000Z</time>
      </trkpt>
      <trkpt lat="47.49828" lon="6.73124">
        <ele>389.5</ele>
        <time>2017-02-26T10:48:34.000Z</time>
      </trkpt>
      <trkpt lat="47.49827" lon="6.73131">
        <ele>389.2</ele>
        <time>2017-02-26T10:48:35.000Z</time>
      </trkpt>
      <trkpt lat="47.49825" lon="6.7314">
        <ele>388.8</ele>
        <time>2017-02-26T10:48:36.000Z</time>
      </trkpt>
      <trkpt lat="47.49823" lon="6.73147">
        <ele>388.2</ele>
        <time>2017-02-26T10:48:37.000Z</time>
      </trkpt>
      <trkpt lat="47.49821" lon="6.73155">
        <ele>387.9</ele>
        <time>2017-02-26T10:48:38.000Z</time>
      </trkpt>
      <trkpt lat="47.49819" lon="6.73163">
        <ele>386.9</ele>
        <time>2017-02-26T10:48:39.000Z</time>
      </trkpt>
      <trkpt lat="47.49817" lon="6.73171">
        <ele>386.5</ele>
        <time>2017-02-26T10:48:40.000Z</time>
      </trkpt>
      <trkpt lat="47.49815" lon="6.73178">
        <ele>386.4</ele>
        <time>2017-02-26T10:48:41.000Z</time>
      </trkpt>
      <trkpt lat="47.49813" lon="6.73187">
        <ele>386.4</ele>
        <time>2017-02-26T10:48:42.000Z</time>
      </trkpt>
      <trkpt lat="47.4981" lon="6.73196">
        <ele>386.4</ele>
        <time>2017-02-26T10:48:43.000Z</time>
      </trkpt>
      <trkpt lat="47.49808" lon="6.73204">
        <ele>386.4</ele>
        <time>2017-02-26T10:48:44.000Z</time>
      </trkpt>
      <trkpt lat="47.49806" lon="6.73213">
        <ele>385.9</ele>
        <time>2017-02-26T10:48:45.000Z</time>
      </trkpt>
      <trkpt lat="47.49803" lon="6.73222">
        <ele>385.5</ele>
        <time>2017-02-26T10:48:46.000Z</time>
      </trkpt>
      <trkpt lat="47.49801" lon="6.7323">
        <ele>385.3</ele>
        <time>2017-02-26T10:48:47.000Z</time>
      </trkpt>
      <trkpt lat="47.49798" lon="6.73238">
        <ele>384.9</ele>
        <time>2017-02-26T10:48:48.000Z</time>
      </trkpt>
      <trkpt lat="47.49795" lon="6.73246">
        <ele>383.9</ele>
        <time>2017-02-26T10:48:49.000Z</time>
      </trkpt>
      <trkpt lat="47.49792" lon="6.73253">
        <ele>383</ele>
        <time>2017-02-26T10:48:50.000Z</time>
      </trkpt>
      <trkpt lat="47.49788" lon="6.73261">
        <ele>382.6</ele>
        <time>2017-02-26T10:48:51.000Z</time>
      </trkpt>
      <trkpt lat="47.49784" lon="6.73269">
        <ele>382.5</ele>
        <time>2017-02-26T10:48:52.000Z</time>
      </trkpt>
      <trkpt lat="47.49781" lon="6.73276">
        <ele>382.9</ele>
        <time>2017-02-26T10:48:53.000Z</time>
      </trkpt>
      <trkpt lat="47.49777" lon="6.73282">
        <ele>383.4</ele>
        <time>2017-02-26T10:48:54.000Z</time>
      </trkpt>
      <trkpt lat="47.49773" lon="6.73289">
        <ele>383.4</ele>
        <time>2017-02-26T10:48:55.000Z</time>
      </trkpt>
      <trkpt lat="47.49768" lon="6.73296">
        <ele>383.6</ele>
        <time>2017-02-26T10:48:56.000Z</time>
      </trkpt>
      <trkpt lat="47.49764" lon="6.73303">
        <ele>383.7</ele>
        <time>2017-02-26T10:48:57.000Z</time>
      </trkpt>
      <trkpt lat="47.49759" lon="6.7331">
        <ele>383.6</ele>
        <time>2017-02-26T10:48:58.000Z</time>
      </trkpt>
      <trkpt lat="47.49755" lon="6.73317">
        <ele>383.5</ele>
        <time>2017-02-26T10:48:59.000Z</time>
      </trkpt>
      <trkpt lat="47.4975" lon="6.73325">
        <ele>383.2</ele>
        <time>2017-02-26T10:49:00.000Z</time>
      </trkpt>
      <trkpt lat="47.49745" lon="6.73332">
        <ele>382.6</ele>
        <time>2017-02-26T10:49:01.000Z</time>
      </trkpt>
      <trkpt lat="47.49741" lon="6.73338">
        <ele>382.1</ele>
        <time>2017-02-26T10:49:02.000Z</time>
      </trkpt>
      <trkpt lat="47.49735" lon="6.73346">
        <ele>381.6</ele>
        <time>2017-02-26T10:49:03.000Z</time>
      </trkpt>
      <trkpt lat="47.49731" lon="6.73352">
        <ele>381.5</ele>
        <time>2017-02-26T10:49:04.000Z</time>
      </trkpt>
      <trkpt lat="47.49726" lon="6.73359">
        <ele>381.7</ele>
        <time>2017-02-26T10:49:05.000Z</time>
      </trkpt>
      <trkpt lat="47.49721" lon="6.73366">
        <ele>381.9</ele>
        <time>2017-02-26T10:49:06.000Z</time>
      </trkpt>
      <trkpt lat="47.49717" lon="6.73372">
        <ele>382</ele>
        <time>2017-02-26T10:49:07.000Z</time>
      </trkpt>
      <trkpt lat="47.49712" lon="6.73379">
        <ele>381.4</ele>
        <time>2017-02-26T10:49:08.000Z</time>
      </trkpt>
      <trkpt lat="47.49707" lon="6.73386">
        <ele>381.1</ele>
        <time>2017-02-26T10:49:09.000Z</time>
      </trkpt>
      <trkpt lat="47.49701" lon="6.73393">
        <ele>380.6</ele>
        <time>2017-02-26T10:49:10.000Z</time>
      </trkpt>
      <trkpt lat="47.49697" lon="6.73399">
        <ele>380.3</ele>
        <time>2017-02-26T10:49:11.000Z</time>
      </trkpt>
      <trkpt lat="47.49693" lon="6.73406">
        <ele>380.2</ele>
        <time>2017-02-26T10:49:12.000Z</time>
      </trkpt>
      <trkpt lat="47.49689" lon="6.73411">
        <ele>379.7</ele>
        <time>2017-02-26T10:49:13.000Z</time>
      </trkpt>
      <trkpt lat="47.49685" lon="6.73417">
        <ele>379.4</ele>
        <time>2017-02-26T10:49:14.000Z</time>
      </trkpt>
      <trkpt lat="47.49682" lon="6.73422">
        <ele>379.4</ele>
        <time>2017-02-26T10:49:15.000Z</time>
      </trkpt>
      <trkpt lat="47.49677" lon="6.73428">
        <ele>378.7</ele>
        <time>2017-02-26T10:49:16.000Z</time>
      </trkpt>
      <trkpt lat="47.49672" lon="6.73435">
        <ele>377.9</ele>
        <time>2017-02-26T10:49:17.000Z</time>
      </trkpt>
      <trkpt lat="47.49668" lon="6.73441">
        <ele>376.7</ele>
        <time>2017-02-26T10:49:18.000Z</time>
      </trkpt>
      <trkpt lat="47.49663" lon="6.73448">
        <ele>376.5</ele>
        <time>2017-02-26T10:49:19.000Z</time>
      </trkpt>
      <trkpt lat="47.49659" lon="6.73455">
        <ele>376.3</ele>
        <time>2017-02-26T10:49:20.000Z</time>
      </trkpt>
      <trkpt lat="47.49655" lon="6.7346">
        <ele>375.6</ele>
        <time>2017-02-26T10:49:21.000Z</time>
      </trkpt>
      <trkpt lat="47.49651" lon="6.73465">
        <ele>375.9</ele>
        <time>2017-02-26T10:49:22.000Z</time>
      </trkpt>
      <trkpt lat="47.49647" lon="6.7347">
        <ele>376.8</ele>
        <time>2017-02-26T10:49:23.000Z</time>
      </trkpt>
      <trkpt lat="47.49644" lon="6.73475">
        <ele>377</ele>
        <time>2017-02-26T10:49:24.000Z</time>
      </trkpt>
      <trkpt lat="47.49641" lon="6.73479">
        <ele>376.9</ele>
        <time>2017-02-26T10:49:25.000Z</time>
      </trkpt>
      <trkpt lat="47.49638" lon="6.73484">
        <ele>376.8</ele>
        <time>2017-02-26T10:49:26.000Z</time>
      </trkpt>
      <trkpt lat="47.49635" lon="6.73488">
        <ele>376.2</ele>
        <time>2017-02-26T10:49:27.000Z</time>
      </trkpt>
      <trkpt lat="47.49632" lon="6.73492">
        <ele>375.5</ele>
        <time>2017-02-26T10:49:28.000Z</time>
      </trkpt>
      <trkpt lat="47.49627" lon="6.73498">
        <ele>374.9</ele>
        <time>2017-02-26T10:49:29.000Z</time>
      </trkpt>
      <trkpt lat="47.49623" lon="6.73503">
        <ele>374.4</ele>
        <time>2017-02-26T10:49:30.000Z</time>
      </trkpt>
      <trkpt lat="47.4962" lon="6.73507">
        <ele>373.9</ele>
        <time>2017-02-26T10:49:31.000Z</time>
      </trkpt>
      <trkpt lat="47.49617" lon="6.73512">
        <ele>374</ele>
        <time>2017-02-26T10:49:32.000Z</time>
      </trkpt>
      <trkpt lat="47.49613" lon="6.73517">
        <ele>374.1</ele>
        <time>2017-02-26T10:49:33.000Z</time>
      </trkpt>
      <trkpt lat="47.49609" lon="6.73522">
        <ele>373.9</ele>
        <time>2017-02-26T10:49:34.000Z</time>
      </trkpt>
      <trkpt lat="47.49605" lon="6.73527">
        <ele>373.6</ele>
        <time>2017-02-26T10:49:35.000Z</time>
      </trkpt>
      <trkpt lat="47.496" lon="6.73532">
        <ele>373.3</ele>
        <time>2017-02-26T10:49:36.000Z</time>
      </trkpt>
      <trkpt lat="47.49596" lon="6.73537">
        <ele>372.9</ele>
        <time>2017-02-26T10:49:37.000Z</time>
      </trkpt>
      <trkpt lat="47.49591" lon="6.73542">
        <ele>372.4</ele>
        <time>2017-02-26T10:49:38.000Z</time>
      </trkpt>
      <trkpt lat="47.49587" lon="6.73546">
        <ele>370.4</ele>
        <time>2017-02-26T10:49:39.000Z</time>
      </trkpt>
      <trkpt lat="47.49583" lon="6.73551">
        <ele>369.5</ele>
        <time>2017-02-26T10:49:40.000Z</time>
      </trkpt>
      <trkpt lat="47.49579" lon="6.73554">
        <ele>370.2</ele>
        <time>2017-02-26T10:49:41.000Z</time>
      </trkpt>
      <trkpt lat="47.49575" lon="6.73557">
        <ele>370.8</ele>
        <time>2017-02-26T10:49:42.000Z</time>
      </trkpt>
      <trkpt lat="47.4957" lon="6.73561">
        <ele>372</ele>
        <time>2017-02-26T10:49:43.000Z</time>
      </trkpt>
      <trkpt lat="47.49564" lon="6.73565">
        <ele>373</ele>
        <time>2017-02-26T10:49:44.000Z</time>
      </trkpt>
      <trkpt lat="47.4956" lon="6.73569">
        <ele>372.9</ele>
        <time>2017-02-26T10:49:45.000Z</time>
      </trkpt>
      <trkpt lat="47.49555" lon="6.73573">
        <ele>374.2</ele>
        <time>2017-02-26T10:49:46.000Z</time>
      </trkpt>
      <trkpt lat="47.4955" lon="6.73578">
        <ele>374.8</ele>
        <time>2017-02-26T10:49:47.000Z</time>
      </trkpt>
      <trkpt lat="47.49546" lon="6.73582">
        <ele>374.9</ele>
        <time>2017-02-26T10:49:48.000Z</time>
      </trkpt>
      <trkpt lat="47.49542" lon="6.73586">
        <ele>374.8</ele>
        <time>2017-02-26T10:49:49.000Z</time>
      </trkpt>
      <trkpt lat="47.49539" lon="6.7359">
        <ele>374.5</ele>
        <time>2017-02-26T10:49:50.000Z</time>
      </trkpt>
      <trkpt lat="47.49536" lon="6.73593">
        <ele>374.9</ele>
        <time>2017-02-26T10:49:51.000Z</time>
      </trkpt>
      <trkpt lat="47.49531" lon="6.73599">
        <ele>375.2</ele>
        <time>2017-02-26T10:49:52.000Z</time>
      </trkpt>
      <trkpt lat="47.49527" lon="6.73604">
        <ele>374.8</ele>
        <time>2017-02-26T10:49:53.000Z</time>
      </trkpt>
      <trkpt lat="47.49522" lon="6.7361">
        <ele>373.9</ele>
        <time>2017-02-26T10:49:54.000Z</time>
      </trkpt>
      <trkpt lat="47.49518" lon="6.73615">
        <ele>373.4</ele>
        <time>2017-02-26T10:49:55.000Z</time>
      </trkpt>
      <trkpt lat="47.49514" lon="6.7362">
        <ele>372.8</ele>
        <time>2017-02-26T10:49:56.000Z</time>
      </trkpt>
      <trkpt lat="47.49512" lon="6.73625">
        <ele>373</ele>
        <time>2017-02-26T10:49:57.000Z</time>
      </trkpt>
      <trkpt lat="47.49508" lon="6.73631">
        <ele>372.9</ele>
        <time>2017-02-26T10:49:58.000Z</time>
      </trkpt>
      <trkpt lat="47.49503" lon="6.73638">
        <ele>372.8</ele>
        <time>2017-02-26T10:49:59.000Z</time>
      </trkpt>
      <trkpt lat="47.495" lon="6.73645">
        <ele>372.1</ele>
        <time>2017-02-26T10:50:00.000Z</time>
      </trkpt>
      <trkpt lat="47.49496" lon="6.73652">
        <ele>371.7</ele>
        <time>2017-02-26T10:50:01.000Z</time>
      </trkpt>
      <trkpt lat="47.49492" lon="6.73658">
        <ele>371.9</ele>
        <time>2017-02-26T10:50:02.000Z</time>
      </trkpt>
      <trkpt lat="47.4949" lon="6.73664">
        <ele>372.1</ele>
        <time>2017-02-26T10:50:03.000Z</time>
      </trkpt>
      <trkpt lat="47.49487" lon="6.7367">
        <ele>371.8</ele>
        <time>2017-02-26T10:50:04.000Z</time>
      </trkpt>
      <trkpt lat="47.49483" lon="6.73678">
        <ele>370.4</ele>
        <time>2017-02-26T10:50:05.000Z</time>
      </trkpt>
      <trkpt lat="47.4948" lon="6.73685">
        <ele>371</ele>
        <time>2017-02-26T10:50:06.000Z</time>
      </trkpt>
      <trkpt lat="47.49477" lon="6.73691">
        <ele>371.3</ele>
        <time>2017-02-26T10:50:07.000Z</time>
      </trkpt>
      <trkpt lat="47.49474" lon="6.73697">
        <ele>371.8</ele>
        <time>2017-02-26T10:50:08.000Z</time>
      </trkpt>
      <trkpt lat="47.49472" lon="6.73704">
        <ele>372.8</ele>
        <time>2017-02-26T10:50:09.000Z</time>
      </trkpt>
      <trkpt lat="47.49469" lon="6.73711">
        <ele>372.2</ele>
        <time>2017-02-26T10:50:10.000Z</time>
      </trkpt>
      <trkpt lat="47.49467" lon="6.73718">
        <ele>372.3</ele>
        <time>2017-02-26T10:50:11.000Z</time>
      </trkpt>
      <trkpt lat="47.49463" lon="6.73722">
        <ele>372.3</ele>
        <time>2017-02-26T10:50:12.000Z</time>
      </trkpt>
      <trkpt lat="47.4946" lon="6.73727">
        <ele>372.4</ele>
        <time>2017-02-26T10:50:13.000Z</time>
      </trkpt>
      <trkpt lat="47.49457" lon="6.73731">
        <ele>372.3</ele>
        <time>2017-02-26T10:50:14.000Z</time>
      </trkpt>
      <trkpt lat="47.49454" lon="6.73735">
        <ele>372.6</ele>
        <time>2017-02-26T10:50:15.000Z</time>
      </trkpt>
      <trkpt lat="47.49452" lon="6.73738">
        <ele>372.6</ele>
        <time>2017-02-26T10:50:16.000Z</time>
      </trkpt>
      <trkpt lat="47.4945" lon="6.73742">
        <ele>372.5</ele>
        <time>2017-02-26T10:50:17.000Z</time>
      </trkpt>
      <trkpt lat="47.49447" lon="6.73746">
        <ele>372.5</ele>
        <time>2017-02-26T10:50:18.000Z</time>
      </trkpt>
      <trkpt lat="47.49444" lon="6.73749">
        <ele>372.4</ele>
        <time>2017-02-26T10:50:19.000Z</time>
      </trkpt>
      <trkpt lat="47.4944" lon="6.73753">
        <ele>372.3</ele>
        <time>2017-02-26T10:50:20.000Z</time>
      </trkpt>
      <trkpt lat="47.49437" lon="6.73757">
        <ele>372.2</ele>
        <time>2017-02-26T10:50:21.000Z</time>
      </trkpt>
      <trkpt lat="47.49434" lon="6.73758">
        <ele>372.1</ele>
        <time>2017-02-26T10:50:22.000Z</time>
      </trkpt>
      <trkpt lat="47.49431" lon="6.73762">
        <ele>372.1</ele>
        <time>2017-02-26T10:50:23.000Z</time>
      </trkpt>
      <trkpt lat="47.49429" lon="6.73766">
        <ele>371.9</ele>
        <time>2017-02-26T10:50:24.000Z</time>
      </trkpt>
      <trkpt lat="47.49428" lon="6.7377">
        <ele>371.8</ele>
        <time>2017-02-26T10:50:25.000Z</time>
      </trkpt>
      <trkpt lat="47.49427" lon="6.73773">
        <ele>371.6</ele>
        <time>2017-02-26T10:50:26.000Z</time>
      </trkpt>
      <trkpt lat="47.49426" lon="6.73777">
        <ele>371.4</ele>
        <time>2017-02-26T10:50:27.000Z</time>
      </trkpt>
      <trkpt lat="47.49426" lon="6.73781">
        <ele>371.2</ele>
        <time>2017-02-26T10:50:28.000Z</time>
      </trkpt>
      <trkpt lat="47.49426" lon="6.73784">
        <ele>370.9</ele>
        <time>2017-02-26T10:50:29.000Z</time>
      </trkpt>
      <trkpt lat="47.49426" lon="6.73789">
        <ele>370.6</ele>
        <time>2017-02-26T10:50:30.000Z</time>
      </trkpt>
      <trkpt lat="47.49425" lon="6.73799">
        <ele>370.2</ele>
        <time>2017-02-26T10:50:31.000Z</time>
      </trkpt>
      <trkpt lat="47.49423" lon="6.73809">
        <ele>369.8</ele>
        <time>2017-02-26T10:50:32.000Z</time>
      </trkpt>
      <trkpt lat="47.49423" lon="6.73818">
        <ele>369.4</ele>
        <time>2017-02-26T10:50:33.000Z</time>
      </trkpt>
      <trkpt lat="47.49422" lon="6.73825">
        <ele>369.2</ele>
        <time>2017-02-26T10:50:34.000Z</time>
      </trkpt>
      <trkpt lat="47.4942" lon="6.73834">
        <ele>369.1</ele>
        <time>2017-02-26T10:50:35.000Z</time>
      </trkpt>
      <trkpt lat="47.4942" lon="6.7384">
        <ele>368.9</ele>
        <time>2017-02-26T10:50:36.000Z</time>
      </trkpt>
      <trkpt lat="47.4942" lon="6.73845">
        <ele>368.8</ele>
        <time>2017-02-26T10:50:37.000Z</time>
      </trkpt>
      <trkpt lat="47.4942" lon="6.7385">
        <ele>368.7</ele>
        <time>2017-02-26T10:50:38.000Z</time>
      </trkpt>
      <trkpt lat="47.4942" lon="6.73857">
        <ele>368.6</ele>
        <time>2017-02-26T10:50:39.000Z</time>
      </trkpt>
      <trkpt lat="47.49421" lon="6.73862">
        <ele>368.5</ele>
        <time>2017-02-26T10:50:40.000Z</time>
      </trkpt>
      <trkpt lat="47.49422" lon="6.73866">
        <ele>368.4</ele>
        <time>2017-02-26T10:50:41.000Z</time>
      </trkpt>
      <trkpt lat="47.49423" lon="6.73869">
        <ele>368.3</ele>
        <time>2017-02-26T10:50:42.000Z</time>
      </trkpt>
      <trkpt lat="47.49425" lon="6.73877">
        <ele>368.2</ele>
        <time>2017-02-26T10:50:43.000Z</time>
      </trkpt>
      <trkpt lat="47.49426" lon="6.73886">
        <ele>368.2</ele>
        <time>2017-02-26T10:50:44.000Z</time>
      </trkpt>
      <trkpt lat="47.49426" lon="6.73886">
        <ele>368.3</ele>
        <time>2017-02-26T10:50:46.000Z</time>
      </trkpt>
      <trkpt lat="47.49427" lon="6.73916">
        <ele>368.5</ele>
        <time>2017-02-26T10:50:47.000Z</time>
      </trkpt>
      <trkpt lat="47.49427" lon="6.73916">
        <ele>369.1</ele>
        <time>2017-02-26T10:50:50.000Z</time>
      </trkpt>
      <trkpt lat="47.49426" lon="6.73942">
        <ele>369.4</ele>
        <time>2017-02-26T10:50:51.000Z</time>
      </trkpt>
      <trkpt lat="47.49426" lon="6.73942">
        <ele>370.1</ele>
        <time>2017-02-26T10:50:54.000Z</time>
      </trkpt>
      <trkpt lat="47.49428" lon="6.73977">
        <ele>370.2</ele>
        <time>2017-02-26T10:50:55.000Z</time>
      </trkpt>
      <trkpt lat="47.49428" lon="6.73977">
        <ele>370.5</ele>
        <time>2017-02-26T10:50:56.000Z</time>
      </trkpt>
      <trkpt lat="47.49427" lon="6.74">
        <ele>371</ele>
        <time>2017-02-26T10:50:57.000Z</time>
      </trkpt>
      <trkpt lat="47.49427" lon="6.74">
        <ele>371.3</ele>
        <time>2017-02-26T10:50:58.000Z</time>
      </trkpt>
      <trkpt lat="47.49423" lon="6.74014">
        <ele>371.8</ele>
        <time>2017-02-26T10:50:59.000Z</time>
      </trkpt>
      <trkpt lat="47.49423" lon="6.74014">
        <ele>373.1</ele>
        <time>2017-02-26T10:51:03.000Z</time>
      </trkpt>
      <trkpt lat="47.49412" lon="6.74032">
        <ele>373.3</ele>
        <time>2017-02-26T10:51:04.000Z</time>
      </trkpt>
      <trkpt lat="47.49412" lon="6.74032">
        <ele>374.9</ele>
        <time>2017-02-26T10:51:09.000Z</time>
      </trkpt>
      <trkpt lat="47.494" lon="6.74054">
        <ele>375.2</ele>
        <time>2017-02-26T10:51:10.000Z</time>
      </trkpt>
      <trkpt lat="47.494" lon="6.74054">
        <ele>375.8</ele>
        <time>2017-02-26T10:51:12.000Z</time>
      </trkpt>
      <trkpt lat="47.49403" lon="6.7408">
        <ele>376.2</ele>
        <time>2017-02-26T10:51:13.000Z</time>
      </trkpt>
      <trkpt lat="47.49405" lon="6.74088">
        <ele>376.3</ele>
        <time>2017-02-26T10:51:14.000Z</time>
      </trkpt>
      <trkpt lat="47.49409" lon="6.74098">
        <ele>376.5</ele>
        <time>2017-02-26T10:51:15.000Z</time>
      </trkpt>
      <trkpt lat="47.49411" lon="6.74104">
        <ele>376.6</ele>
        <time>2017-02-26T10:51:16.000Z</time>
      </trkpt>
      <trkpt lat="47.49413" lon="6.74112">
        <ele>376.7</ele>
        <time>2017-02-26T10:51:17.000Z</time>
      </trkpt>
      <trkpt lat="47.49415" lon="6.7412">
        <ele>376.9</ele>
        <time>2017-02-26T10:51:18.000Z</time>
      </trkpt>
      <trkpt lat="47.49417" lon="6.74126">
        <ele>377</ele>
        <time>2017-02-26T10:51:19.000Z</time>
      </trkpt>
      <trkpt lat="47.49419" lon="6.7413">
        <ele>377.9</ele>
        <time>2017-02-26T10:51:20.000Z</time>
      </trkpt>
      <trkpt lat="47.49419" lon="6.7414">
        <ele>379</ele>
        <time>2017-02-26T10:51:21.000Z</time>
      </trkpt>
      <trkpt lat="47.49419" lon="6.74146">
        <ele>379</ele>
        <time>2017-02-26T10:51:22.000Z</time>
      </trkpt>
      <trkpt lat="47.49419" lon="6.74155">
        <ele>378.9</ele>
        <time>2017-02-26T10:51:23.000Z</time>
      </trkpt>
      <trkpt lat="47.49418" lon="6.74162">
        <ele>378.9</ele>
        <time>2017-02-26T10:51:24.000Z</time>
      </trkpt>
      <trkpt lat="47.49419" lon="6.74168">
        <ele>378.8</ele>
        <time>2017-02-26T10:51:25.000Z</time>
      </trkpt>
      <trkpt lat="47.49418" lon="6.74171">
        <ele>378.7</ele>
        <time>2017-02-26T10:51:26.000Z</time>
      </trkpt>
      <trkpt lat="47.49417" lon="6.74176">
        <ele>378.5</ele>
        <time>2017-02-26T10:51:27.000Z</time>
      </trkpt>
      <trkpt lat="47.49416" lon="6.74183">
        <ele>378.3</ele>
        <time>2017-02-26T10:51:28.000Z</time>
      </trkpt>
      <trkpt lat="47.49415" lon="6.74189">
        <ele>378.2</ele>
        <time>2017-02-26T10:51:29.000Z</time>
      </trkpt>
      <trkpt lat="47.49416" lon="6.74194">
        <ele>377.4</ele>
        <time>2017-02-26T10:51:33.000Z</time>
      </trkpt>
      <trkpt lat="47.49414" lon="6.74218">
        <ele>377.1</ele>
        <time>2017-02-26T10:51:34.000Z</time>
      </trkpt>
      <trkpt lat="47.49414" lon="6.74218">
        <ele>376.9</ele>
        <time>2017-02-26T10:51:37.000Z</time>
      </trkpt>
      <trkpt lat="47.49405" lon="6.7425">
        <ele>376.7</ele>
        <time>2017-02-26T10:51:38.000Z</time>
      </trkpt>
      <trkpt lat="47.49405" lon="6.7425">
        <ele>376.9</ele>
        <time>2017-02-26T10:51:43.000Z</time>
      </trkpt>
      <trkpt lat="47.49397" lon="6.74273">
        <ele>377.1</ele>
        <time>2017-02-26T10:51:44.000Z</time>
      </trkpt>
      <trkpt lat="47.49397" lon="6.74273">
        <ele>377.3</ele>
        <time>2017-02-26T10:51:46.000Z</time>
      </trkpt>
      <trkpt lat="47.49395" lon="6.7429">
        <ele>377.6</ele>
        <time>2017-02-26T10:51:47.000Z</time>
      </trkpt>
      <trkpt lat="47.49395" lon="6.74297">
        <ele>377.8</ele>
        <time>2017-02-26T10:51:48.000Z</time>
      </trkpt>
      <trkpt lat="47.49395" lon="6.74301">
        <ele>378</ele>
        <time>2017-02-26T10:51:49.000Z</time>
      </trkpt>
      <trkpt lat="47.49395" lon="6.74306">
        <ele>378.1</ele>
        <time>2017-02-26T10:51:50.000Z</time>
      </trkpt>
      <trkpt lat="47.49397" lon="6.74321">
        <ele>378.2</ele>
        <time>2017-02-26T10:51:51.000Z</time>
      </trkpt>
      <trkpt lat="47.49397" lon="6.74328">
        <ele>378.4</ele>
        <time>2017-02-26T10:51:52.000Z</time>
      </trkpt>
      <trkpt lat="47.49397" lon="6.74328">
        <ele>378.7</ele>
        <time>2017-02-26T10:51:57.000Z</time>
      </trkpt>
      <trkpt lat="47.49398" lon="6.74341">
        <ele>379.1</ele>
        <time>2017-02-26T10:51:58.000Z</time>
      </trkpt>
      <trkpt lat="47.49398" lon="6.74341">
        <ele>379.3</ele>
        <time>2017-02-26T10:51:59.000Z</time>
      </trkpt>
      <trkpt lat="47.49403" lon="6.74364">
        <ele>379.4</ele>
        <time>2017-02-26T10:52:00.000Z</time>
      </trkpt>
      <trkpt lat="47.49403" lon="6.74364">
        <ele>379.8</ele>
        <time>2017-02-26T10:52:03.000Z</time>
      </trkpt>
      <trkpt lat="47.49404" lon="6.74392">
        <ele>380</ele>
        <time>2017-02-26T10:52:04.000Z</time>
      </trkpt>
      <trkpt lat="47.49404" lon="6.74392">
        <ele>380.5</ele>
        <time>2017-02-26T10:52:07.000Z</time>
      </trkpt>
      <trkpt lat="47.49398" lon="6.74422">
        <ele>380.7</ele>
        <time>2017-02-26T10:52:08.000Z</time>
      </trkpt>
      <trkpt lat="47.49398" lon="6.74422">
        <ele>380.8</ele>
        <time>2017-02-26T10:52:09.000Z</time>
      </trkpt>
      <trkpt lat="47.49397" lon="6.74438">
        <ele>380.9</ele>
        <time>2017-02-26T10:52:10.000Z</time>
      </trkpt>
      <trkpt lat="47.49397" lon="6.74438">
        <ele>380.8</ele>
        <time>2017-02-26T10:52:11.000Z</time>
      </trkpt>
      <trkpt lat="47.49397" lon="6.74454">
        <ele>380.8</ele>
        <time>2017-02-26T10:52:12.000Z</time>
      </trkpt>
      <trkpt lat="47.49397" lon="6.74454">
        <ele>380.7</ele>
        <time>2017-02-26T10:52:14.000Z</time>
      </trkpt>
      <trkpt lat="47.49399" lon="6.74468">
        <ele>380.6</ele>
        <time>2017-02-26T10:52:15.000Z</time>
      </trkpt>
      <trkpt lat="47.49399" lon="6.74476">
        <ele>380.5</ele>
        <time>2017-02-26T10:52:16.000Z</time>
      </trkpt>
      <trkpt lat="47.494" lon="6.74486">
        <ele>380.5</ele>
        <time>2017-02-26T10:52:17.000Z</time>
      </trkpt>
      <trkpt lat="47.49401" lon="6.74489">
        <ele>381.4</ele>
        <time>2017-02-26T10:52:18.000Z</time>
      </trkpt>
      <trkpt lat="47.49403" lon="6.74496">
        <ele>381.6</ele>
        <time>2017-02-26T10:52:19.000Z</time>
      </trkpt>
      <trkpt lat="47.49405" lon="6.74504">
        <ele>381.6</ele>
        <time>2017-02-26T10:52:20.000Z</time>
      </trkpt>
      <trkpt lat="47.49405" lon="6.74509">
        <ele>381.7</ele>
        <time>2017-02-26T10:52:21.000Z</time>
      </trkpt>
      <trkpt lat="47.49406" lon="6.74515">
        <ele>381.8</ele>
        <time>2017-02-26T10:52:22.000Z</time>
      </trkpt>
      <trkpt lat="47.49406" lon="6.74515">
        <ele>381.5</ele>
        <time>2017-02-26T10:52:25.000Z</time>
      </trkpt>
      <trkpt lat="47.49406" lon="6.74533">
        <ele>381.3</ele>
        <time>2017-02-26T10:52:26.000Z</time>
      </trkpt>
      <trkpt lat="47.49406" lon="6.74533">
        <ele>380.2</ele>
        <time>2017-02-26T10:52:30.000Z</time>
      </trkpt>
      <trkpt lat="47.49403" lon="6.7455">
        <ele>379.8</ele>
        <time>2017-02-26T10:52:31.000Z</time>
      </trkpt>
      <trkpt lat="47.49403" lon="6.7455">
        <ele>376.8</ele>
        <time>2017-02-26T10:52:39.000Z</time>
      </trkpt>
      <trkpt lat="47.49402" lon="6.74572">
        <ele>376.3</ele>
        <time>2017-02-26T10:52:40.000Z</time>
      </trkpt>
      <trkpt lat="47.49402" lon="6.74572">
        <ele>374.2</ele>
        <time>2017-02-26T10:52:44.000Z</time>
      </trkpt>
      <trkpt lat="47.49405" lon="6.74597">
        <ele>373.6</ele>
        <time>2017-02-26T10:52:45.000Z</time>
      </trkpt>
      <trkpt lat="47.49405" lon="6.74597">
        <ele>372.8</ele>
        <time>2017-02-26T10:52:47.000Z</time>
      </trkpt>
      <trkpt lat="47.49403" lon="6.74623">
        <ele>372.6</ele>
        <time>2017-02-26T10:52:48.000Z</time>
      </trkpt>
      <trkpt lat="47.49401" lon="6.74636">
        <ele>372.6</ele>
        <time>2017-02-26T10:52:49.000Z</time>
      </trkpt>
      <trkpt lat="47.494" lon="6.74645">
        <ele>372.7</ele>
        <time>2017-02-26T10:52:50.000Z</time>
      </trkpt>
      <trkpt lat="47.494" lon="6.74645">
        <ele>372.9</ele>
        <time>2017-02-26T10:52:54.000Z</time>
      </trkpt>
      <trkpt lat="47.49392" lon="6.74679">
        <ele>373.1</ele>
        <time>2017-02-26T10:52:55.000Z</time>
      </trkpt>
      <trkpt lat="47.4939" lon="6.7469">
        <ele>373.3</ele>
        <time>2017-02-26T10:52:56.000Z</time>
      </trkpt>
      <trkpt lat="47.49389" lon="6.74698">
        <ele>373.4</ele>
        <time>2017-02-26T10:52:57.000Z</time>
      </trkpt>
      <trkpt lat="47.49388" lon="6.74705">
        <ele>373.5</ele>
        <time>2017-02-26T10:52:58.000Z</time>
      </trkpt>
      <trkpt lat="47.49388" lon="6.74711">
        <ele>373.7</ele>
        <time>2017-02-26T10:52:59.000Z</time>
      </trkpt>
      <trkpt lat="47.49388" lon="6.74716">
        <ele>373.8</ele>
        <time>2017-02-26T10:53:00.000Z</time>
      </trkpt>
      <trkpt lat="47.49387" lon="6.74722">
        <ele>373.9</ele>
        <time>2017-02-26T10:53:01.000Z</time>
      </trkpt>
      <trkpt lat="47.49386" lon="6.74736">
        <ele>374.1</ele>
        <time>2017-02-26T10:53:02.000Z</time>
      </trkpt>
      <trkpt lat="47.49385" lon="6.74743">
        <ele>374.3</ele>
        <time>2017-02-26T10:53:03.000Z</time>
      </trkpt>
      <trkpt lat="47.49385" lon="6.74743">
        <ele>374.5</ele>
        <time>2017-02-26T10:53:04.000Z</time>
      </trkpt>
      <trkpt lat="47.49384" lon="6.74757">
        <ele>374.7</ele>
        <time>2017-02-26T10:53:05.000Z</time>
      </trkpt>
      <trkpt lat="47.49384" lon="6.74757">
        <ele>375</ele>
        <time>2017-02-26T10:53:08.000Z</time>
      </trkpt>
      <trkpt lat="47.49383" lon="6.74778">
        <ele>375.2</ele>
        <time>2017-02-26T10:53:09.000Z</time>
      </trkpt>
      <trkpt lat="47.49383" lon="6.74778">
        <ele>375.5</ele>
        <time>2017-02-26T10:53:12.000Z</time>
      </trkpt>
      <trkpt lat="47.4938" lon="6.74793">
        <ele>375.4</ele>
        <time>2017-02-26T10:53:13.000Z</time>
      </trkpt>
      <trkpt lat="47.4938" lon="6.74793">
        <ele>375.4</ele>
        <time>2017-02-26T10:53:14.000Z</time>
      </trkpt>
      <trkpt lat="47.49379" lon="6.74803">
        <ele>375.4</ele>
        <time>2017-02-26T10:53:15.000Z</time>
      </trkpt>
      <trkpt lat="47.49378" lon="6.74807">
        <ele>375.1</ele>
        <time>2017-02-26T10:53:16.000Z</time>
      </trkpt>
      <trkpt lat="47.49377" lon="6.7481">
        <ele>374.9</ele>
        <time>2017-02-26T10:53:17.000Z</time>
      </trkpt>
      <trkpt lat="47.49375" lon="6.74814">
        <ele>373.3</ele>
        <time>2017-02-26T10:53:25.000Z</time>
      </trkpt>
      <trkpt lat="47.49368" lon="6.74831">
        <ele>373.2</ele>
        <time>2017-02-26T10:53:26.000Z</time>
      </trkpt>
      <trkpt lat="47.49368" lon="6.74831">
        <ele>373.2</ele>
        <time>2017-02-26T10:53:27.000Z</time>
      </trkpt>
      <trkpt lat="47.49364" lon="6.74844">
        <ele>373.3</ele>
        <time>2017-02-26T10:53:28.000Z</time>
      </trkpt>
      <trkpt lat="47.49364" lon="6.74844">
        <ele>374</ele>
        <time>2017-02-26T10:53:33.000Z</time>
      </trkpt>
      <trkpt lat="47.49361" lon="6.74858">
        <ele>374.1</ele>
        <time>2017-02-26T10:53:34.000Z</time>
      </trkpt>
      <trkpt lat="47.49361" lon="6.74858">
        <ele>375</ele>
        <time>2017-02-26T10:53:37.000Z</time>
      </trkpt>
      <trkpt lat="47.49351" lon="6.74875">
        <ele>375.3</ele>
        <time>2017-02-26T10:53:38.000Z</time>
      </trkpt>
      <trkpt lat="47.49351" lon="6.74875">
        <ele>376.2</ele>
        <time>2017-02-26T10:53:40.000Z</time>
      </trkpt>
      <trkpt lat="47.49344" lon="6.74887">
        <ele>376.6</ele>
        <time>2017-02-26T10:53:41.000Z</time>
      </trkpt>
      <trkpt lat="47.49344" lon="6.74887">
        <ele>378.4</ele>
        <time>2017-02-26T10:53:49.000Z</time>
      </trkpt>
      <trkpt lat="47.49337" lon="6.749">
        <ele>378.4</ele>
        <time>2017-02-26T10:53:50.000Z</time>
      </trkpt>
      <trkpt lat="47.49337" lon="6.749">
        <ele>379.3</ele>
        <time>2017-02-26T10:53:56.000Z</time>
      </trkpt>
      <trkpt lat="47.49332" lon="6.74921">
        <ele>379.7</ele>
        <time>2017-02-26T10:53:57.000Z</time>
      </trkpt>
      <trkpt lat="47.49332" lon="6.74921">
        <ele>381.8</ele>
        <time>2017-02-26T10:54:03.000Z</time>
      </trkpt>
      <trkpt lat="47.49334" lon="6.74941">
        <ele>382</ele>
        <time>2017-02-26T10:54:04.000Z</time>
      </trkpt>
      <trkpt lat="47.49334" lon="6.74941">
        <ele>382.3</ele>
        <time>2017-02-26T10:54:14.000Z</time>
      </trkpt>
      <trkpt lat="47.4933" lon="6.74965">
        <ele>382.1</ele>
        <time>2017-02-26T10:54:15.000Z</time>
      </trkpt>
      <trkpt lat="47.49329" lon="6.7497">
        <ele>381.8</ele>
        <time>2017-02-26T10:54:16.000Z</time>
      </trkpt>
      <trkpt lat="47.49328" lon="6.74976">
        <ele>381.5</ele>
        <time>2017-02-26T10:54:17.000Z</time>
      </trkpt>
      <trkpt lat="47.49328" lon="6.74984">
        <ele>379</ele>
        <time>2017-02-26T10:54:18.000Z</time>
      </trkpt>
      <trkpt lat="47.49328" lon="6.7499">
        <ele>378.7</ele>
        <time>2017-02-26T10:54:19.000Z</time>
      </trkpt>
      <trkpt lat="47.49329" lon="6.74997">
        <ele>378.5</ele>
        <time>2017-02-26T10:54:20.000Z</time>
      </trkpt>
      <trkpt lat="47.4933" lon="6.75003">
        <ele>378.2</ele>
        <time>2017-02-26T10:54:21.000Z</time>
      </trkpt>
      <trkpt lat="47.4933" lon="6.75011">
        <ele>377.8</ele>
        <time>2017-02-26T10:54:22.000Z</time>
      </trkpt>
      <trkpt lat="47.49329" lon="6.75019">
        <ele>373.8</ele>
        <time>2017-02-26T10:54:23.000Z</time>
      </trkpt>
      <trkpt lat="47.49326" lon="6.75026">
        <ele>371.8</ele>
        <time>2017-02-26T10:54:24.000Z</time>
      </trkpt>
      <trkpt lat="47.49324" lon="6.75032">
        <ele>371.6</ele>
        <time>2017-02-26T10:54:25.000Z</time>
      </trkpt>
      <trkpt lat="47.4932" lon="6.75037">
        <ele>369.9</ele>
        <time>2017-02-26T10:54:26.000Z</time>
      </trkpt>
      <trkpt lat="47.49315" lon="6.75043">
        <ele>368.5</ele>
        <time>2017-02-26T10:54:27.000Z</time>
      </trkpt>
      <trkpt lat="47.4931" lon="6.75049">
        <ele>368.5</ele>
        <time>2017-02-26T10:54:28.000Z</time>
      </trkpt>
      <trkpt lat="47.49306" lon="6.75056">
        <ele>368.4</ele>
        <time>2017-02-26T10:54:29.000Z</time>
      </trkpt>
      <trkpt lat="47.49304" lon="6.75061">
        <ele>368.4</ele>
        <time>2017-02-26T10:54:30.000Z</time>
      </trkpt>
      <trkpt lat="47.49303" lon="6.75064">
        <ele>368.5</ele>
        <time>2017-02-26T10:54:31.000Z</time>
      </trkpt>
      <trkpt lat="47.49301" lon="6.75072">
        <ele>368.6</ele>
        <time>2017-02-26T10:54:32.000Z</time>
      </trkpt>
      <trkpt lat="47.49299" lon="6.75081">
        <ele>368.6</ele>
        <time>2017-02-26T10:54:33.000Z</time>
      </trkpt>
      <trkpt lat="47.49298" lon="6.75089">
        <ele>368.7</ele>
        <time>2017-02-26T10:54:34.000Z</time>
      </trkpt>
      <trkpt lat="47.49297" lon="6.75095">
        <ele>368.8</ele>
        <time>2017-02-26T10:54:35.000Z</time>
      </trkpt>
      <trkpt lat="47.49297" lon="6.75102">
        <ele>368.8</ele>
        <time>2017-02-26T10:54:36.000Z</time>
      </trkpt>
      <trkpt lat="47.49296" lon="6.75108">
        <ele>368.9</ele>
        <time>2017-02-26T10:54:37.000Z</time>
      </trkpt>
      <trkpt lat="47.49296" lon="6.75113">
        <ele>369</ele>
        <time>2017-02-26T10:54:38.000Z</time>
      </trkpt>
      <trkpt lat="47.49295" lon="6.75118">
        <ele>369.1</ele>
        <time>2017-02-26T10:54:39.000Z</time>
      </trkpt>
      <trkpt lat="47.49293" lon="6.75123">
        <ele>369.3</ele>
        <time>2017-02-26T10:54:40.000Z</time>
      </trkpt>
      <trkpt lat="47.49292" lon="6.75128">
        <ele>369.5</ele>
        <time>2017-02-26T10:54:41.000Z</time>
      </trkpt>
      <trkpt lat="47.49291" lon="6.75136">
        <ele>369.8</ele>
        <time>2017-02-26T10:54:42.000Z</time>
      </trkpt>
      <trkpt lat="47.49291" lon="6.75144">
        <ele>370.1</ele>
        <time>2017-02-26T10:54:43.000Z</time>
      </trkpt>
      <trkpt lat="47.49291" lon="6.75153">
        <ele>370.5</ele>
        <time>2017-02-26T10:54:44.000Z</time>
      </trkpt>
      <trkpt lat="47.4929" lon="6.75161">
        <ele>370.8</ele>
        <time>2017-02-26T10:54:45.000Z</time>
      </trkpt>
      <trkpt lat="47.4929" lon="6.75168">
        <ele>371</ele>
        <time>2017-02-26T10:54:46.000Z</time>
      </trkpt>
      <trkpt lat="47.4929" lon="6.75176">
        <ele>371.3</ele>
        <time>2017-02-26T10:54:47.000Z</time>
      </trkpt>
      <trkpt lat="47.4929" lon="6.75184">
        <ele>371.5</ele>
        <time>2017-02-26T10:54:48.000Z</time>
      </trkpt>
      <trkpt lat="47.4929" lon="6.75195">
        <ele>371.7</ele>
        <time>2017-02-26T10:54:49.000Z</time>
      </trkpt>
      <trkpt lat="47.4929" lon="6.75202">
        <ele>371.9</ele>
        <time>2017-02-26T10:54:50.000Z</time>
      </trkpt>
      <trkpt lat="47.4929" lon="6.75207">
        <ele>372.1</ele>
        <time>2017-02-26T10:54:51.000Z</time>
      </trkpt>
      <trkpt lat="47.49292" lon="6.75224">
        <ele>372.4</ele>
        <time>2017-02-26T10:54:52.000Z</time>
      </trkpt>
      <trkpt lat="47.49292" lon="6.75235">
        <ele>372.6</ele>
        <time>2017-02-26T10:54:53.000Z</time>
      </trkpt>
      <trkpt lat="47.49293" lon="6.75243">
        <ele>372.8</ele>
        <time>2017-02-26T10:54:54.000Z</time>
      </trkpt>
      <trkpt lat="47.49293" lon="6.7525">
        <ele>373</ele>
        <time>2017-02-26T10:54:55.000Z</time>
      </trkpt>
      <trkpt lat="47.49293" lon="6.75259">
        <ele>373.2</ele>
        <time>2017-02-26T10:54:56.000Z</time>
      </trkpt>
      <trkpt lat="47.49293" lon="6.75265">
        <ele>373.5</ele>
        <time>2017-02-26T10:54:57.000Z</time>
      </trkpt>
      <trkpt lat="47.49292" lon="6.7527">
        <ele>373.7</ele>
        <time>2017-02-26T10:54:58.000Z</time>
      </trkpt>
      <trkpt lat="47.49292" lon="6.75276">
        <ele>373.8</ele>
        <time>2017-02-26T10:54:59.000Z</time>
      </trkpt>
      <trkpt lat="47.49291" lon="6.75281">
        <ele>373.8</ele>
        <time>2017-02-26T10:55:00.000Z</time>
      </trkpt>
      <trkpt lat="47.49291" lon="6.75287">
        <ele>373.7</ele>
        <time>2017-02-26T10:55:01.000Z</time>
      </trkpt>
      <trkpt lat="47.4929" lon="6.75293">
        <ele>373.5</ele>
        <time>2017-02-26T10:55:02.000Z</time>
      </trkpt>
      <trkpt lat="47.49289" lon="6.75304">
        <ele>373.3</ele>
        <time>2017-02-26T10:55:03.000Z</time>
      </trkpt>
      <trkpt lat="47.49289" lon="6.75307">
        <ele>373</ele>
        <time>2017-02-26T10:55:05.000Z</time>
      </trkpt>
      <trkpt lat="47.49289" lon="6.75311">
        <ele>372.8</ele>
        <time>2017-02-26T10:55:06.000Z</time>
      </trkpt>
      <trkpt lat="47.49287" lon="6.75316">
        <ele>372.5</ele>
        <time>2017-02-26T10:55:07.000Z</time>
      </trkpt>
      <trkpt lat="47.49286" lon="6.75324">
        <ele>372.3</ele>
        <time>2017-02-26T10:55:08.000Z</time>
      </trkpt>
      <trkpt lat="47.49286" lon="6.75328">
        <ele>372.2</ele>
        <time>2017-02-26T10:55:09.000Z</time>
      </trkpt>
      <trkpt lat="47.49287" lon="6.75334">
        <ele>372.1</ele>
        <time>2017-02-26T10:55:10.000Z</time>
      </trkpt>
      <trkpt lat="47.49286" lon="6.75341">
        <ele>372</ele>
        <time>2017-02-26T10:55:11.000Z</time>
      </trkpt>
      <trkpt lat="47.49284" lon="6.75348">
        <ele>371.9</ele>
        <time>2017-02-26T10:55:12.000Z</time>
      </trkpt>
      <trkpt lat="47.49283" lon="6.75353">
        <ele>371.7</ele>
        <time>2017-02-26T10:55:13.000Z</time>
      </trkpt>
      <trkpt lat="47.49281" lon="6.75362">
        <ele>371.4</ele>
        <time>2017-02-26T10:55:14.000Z</time>
      </trkpt>
      <trkpt lat="47.49278" lon="6.7537">
        <ele>371.3</ele>
        <time>2017-02-26T10:55:15.000Z</time>
      </trkpt>
      <trkpt lat="47.49277" lon="6.75374">
        <ele>371.1</ele>
        <time>2017-02-26T10:55:16.000Z</time>
      </trkpt>
      <trkpt lat="47.49276" lon="6.75379">
        <ele>370.9</ele>
        <time>2017-02-26T10:55:17.000Z</time>
      </trkpt>
      <trkpt lat="47.49275" lon="6.75385">
        <ele>370.8</ele>
        <time>2017-02-26T10:55:18.000Z</time>
      </trkpt>
      <trkpt lat="47.49274" lon="6.75397">
        <ele>370.6</ele>
        <time>2017-02-26T10:55:19.000Z</time>
      </trkpt>
      <trkpt lat="47.49272" lon="6.75405">
        <ele>370.2</ele>
        <time>2017-02-26T10:55:20.000Z</time>
      </trkpt>
      <trkpt lat="47.49271" lon="6.75412">
        <ele>369.8</ele>
        <time>2017-02-26T10:55:21.000Z</time>
      </trkpt>
      <trkpt lat="47.49271" lon="6.75418">
        <ele>369.5</ele>
        <time>2017-02-26T10:55:22.000Z</time>
      </trkpt>
      <trkpt lat="47.4927" lon="6.75424">
        <ele>369.3</ele>
        <time>2017-02-26T10:55:23.000Z</time>
      </trkpt>
      <trkpt lat="47.49271" lon="6.7543">
        <ele>369.2</ele>
        <time>2017-02-26T10:55:24.000Z</time>
      </trkpt>
      <trkpt lat="47.49271" lon="6.75437">
        <ele>369</ele>
        <time>2017-02-26T10:55:25.000Z</time>
      </trkpt>
      <trkpt lat="47.49271" lon="6.75443">
        <ele>368.9</ele>
        <time>2017-02-26T10:55:26.000Z</time>
      </trkpt>
      <trkpt lat="47.4927" lon="6.7545">
        <ele>368.8</ele>
        <time>2017-02-26T10:55:27.000Z</time>
      </trkpt>
      <trkpt lat="47.49269" lon="6.75458">
        <ele>368.7</ele>
        <time>2017-02-26T10:55:28.000Z</time>
      </trkpt>
      <trkpt lat="47.49267" lon="6.75466">
        <ele>368.7</ele>
        <time>2017-02-26T10:55:29.000Z</time>
      </trkpt>
      <trkpt lat="47.49265" lon="6.75473">
        <ele>368.7</ele>
        <time>2017-02-26T10:55:30.000Z</time>
      </trkpt>
      <trkpt lat="47.49263" lon="6.75481">
        <ele>368.6</ele>
        <time>2017-02-26T10:55:31.000Z</time>
      </trkpt>
      <trkpt lat="47.49261" lon="6.75488">
        <ele>368.4</ele>
        <time>2017-02-26T10:55:32.000Z</time>
      </trkpt>
      <trkpt lat="47.49259" lon="6.75495">
        <ele>368.3</ele>
        <time>2017-02-26T10:55:33.000Z</time>
      </trkpt>
      <trkpt lat="47.49258" lon="6.755">
        <ele>368.1</ele>
        <time>2017-02-26T10:55:34.000Z</time>
      </trkpt>
      <trkpt lat="47.49254" lon="6.75514">
        <ele>368.1</ele>
        <time>2017-02-26T10:55:35.000Z</time>
      </trkpt>
      <trkpt lat="47.49253" lon="6.75521">
        <ele>368.1</ele>
        <time>2017-02-26T10:55:36.000Z</time>
      </trkpt>
      <trkpt lat="47.49253" lon="6.75526">
        <ele>368.1</ele>
        <time>2017-02-26T10:55:37.000Z</time>
      </trkpt>
      <trkpt lat="47.49254" lon="6.75531">
        <ele>368.1</ele>
        <time>2017-02-26T10:55:38.000Z</time>
      </trkpt>
      <trkpt lat="47.49254" lon="6.75535">
        <ele>368</ele>
        <time>2017-02-26T10:55:39.000Z</time>
      </trkpt>
      <trkpt lat="47.49255" lon="6.75543">
        <ele>367.9</ele>
        <time>2017-02-26T10:55:40.000Z</time>
      </trkpt>
      <trkpt lat="47.49254" lon="6.75548">
        <ele>367.5</ele>
        <time>2017-02-26T10:55:41.000Z</time>
      </trkpt>
      <trkpt lat="47.49253" lon="6.75553">
        <ele>367.4</ele>
        <time>2017-02-26T10:55:42.000Z</time>
      </trkpt>
      <trkpt lat="47.49251" lon="6.75559">
        <ele>367.3</ele>
        <time>2017-02-26T10:55:43.000Z</time>
      </trkpt>
      <trkpt lat="47.49249" lon="6.75566">
        <ele>367.2</ele>
        <time>2017-02-26T10:55:44.000Z</time>
      </trkpt>
      <trkpt lat="47.49247" lon="6.7557">
        <ele>367.2</ele>
        <time>2017-02-26T10:55:45.000Z</time>
      </trkpt>
      <trkpt lat="47.49244" lon="6.75576">
        <ele>367.1</ele>
        <time>2017-02-26T10:55:46.000Z</time>
      </trkpt>
      <trkpt lat="47.49243" lon="6.75582">
        <ele>367.1</ele>
        <time>2017-02-26T10:55:47.000Z</time>
      </trkpt>
      <trkpt lat="47.49241" lon="6.75589">
        <ele>367.1</ele>
        <time>2017-02-26T10:55:48.000Z</time>
      </trkpt>
      <trkpt lat="47.49238" lon="6.75602">
        <ele>367.1</ele>
        <time>2017-02-26T10:55:49.000Z</time>
      </trkpt>
      <trkpt lat="47.49236" lon="6.75607">
        <ele>367.1</ele>
        <time>2017-02-26T10:55:50.000Z</time>
      </trkpt>
      <trkpt lat="47.49234" lon="6.75611">
        <ele>367.1</ele>
        <time>2017-02-26T10:55:51.000Z</time>
      </trkpt>
      <trkpt lat="47.49232" lon="6.75613">
        <ele>367.2</ele>
        <time>2017-02-26T10:55:52.000Z</time>
      </trkpt>
      <trkpt lat="47.4923" lon="6.75616">
        <ele>367.2</ele>
        <time>2017-02-26T10:55:53.000Z</time>
      </trkpt>
      <trkpt lat="47.49227" lon="6.7562">
        <ele>367.1</ele>
        <time>2017-02-26T10:55:55.000Z</time>
      </trkpt>
      <trkpt lat="47.49222" lon="6.75627">
        <ele>367.1</ele>
        <time>2017-02-26T10:55:56.000Z</time>
      </trkpt>
      <trkpt lat="47.49218" lon="6.75638">
        <ele>367.1</ele>
        <time>2017-02-26T10:55:57.000Z</time>
      </trkpt>
      <trkpt lat="47.49217" lon="6.75641">
        <ele>367</ele>
        <time>2017-02-26T10:55:58.000Z</time>
      </trkpt>
      <trkpt lat="47.49215" lon="6.75647">
        <ele>367</ele>
        <time>2017-02-26T10:55:59.000Z</time>
      </trkpt>
      <trkpt lat="47.49211" lon="6.75657">
        <ele>367</ele>
        <time>2017-02-26T10:56:00.000Z</time>
      </trkpt>
      <trkpt lat="47.49209" lon="6.75662">
        <ele>367.1</ele>
        <time>2017-02-26T10:56:01.000Z</time>
      </trkpt>
      <trkpt lat="47.49203" lon="6.75678">
        <ele>367.1</ele>
        <time>2017-02-26T10:56:02.000Z</time>
      </trkpt>
      <trkpt lat="47.492" lon="6.75683">
        <ele>366.9</ele>
        <time>2017-02-26T10:56:03.000Z</time>
      </trkpt>
      <trkpt lat="47.49198" lon="6.75689">
        <ele>366.8</ele>
        <time>2017-02-26T10:56:04.000Z</time>
      </trkpt>
      <trkpt lat="47.49197" lon="6.75696">
        <ele>366.8</ele>
        <time>2017-02-26T10:56:05.000Z</time>
      </trkpt>
      <trkpt lat="47.49196" lon="6.75701">
        <ele>366.7</ele>
        <time>2017-02-26T10:56:08.000Z</time>
      </trkpt>
      <trkpt lat="47.49194" lon="6.75706">
        <ele>366.5</ele>
        <time>2017-02-26T10:56:09.000Z</time>
      </trkpt>
      <trkpt lat="47.49192" lon="6.75716">
        <ele>366.2</ele>
        <time>2017-02-26T10:56:10.000Z</time>
      </trkpt>
      <trkpt lat="47.4919" lon="6.75724">
        <ele>366</ele>
        <time>2017-02-26T10:56:11.000Z</time>
      </trkpt>
      <trkpt lat="47.49187" lon="6.75733">
        <ele>365.8</ele>
        <time>2017-02-26T10:56:12.000Z</time>
      </trkpt>
      <trkpt lat="47.49184" lon="6.75742">
        <ele>365.6</ele>
        <time>2017-02-26T10:56:13.000Z</time>
      </trkpt>
      <trkpt lat="47.49181" lon="6.75748">
        <ele>365.4</ele>
        <time>2017-02-26T10:56:14.000Z</time>
      </trkpt>
      <trkpt lat="47.49178" lon="6.75755">
        <ele>365.3</ele>
        <time>2017-02-26T10:56:15.000Z</time>
      </trkpt>
      <trkpt lat="47.49177" lon="6.7576">
        <ele>365.1</ele>
        <time>2017-02-26T10:56:16.000Z</time>
      </trkpt>
      <trkpt lat="47.49174" lon="6.75767">
        <ele>365</ele>
        <time>2017-02-26T10:56:17.000Z</time>
      </trkpt>
      <trkpt lat="47.49171" lon="6.75775">
        <ele>364.9</ele>
        <time>2017-02-26T10:56:18.000Z</time>
      </trkpt>
      <trkpt lat="47.49168" lon="6.75781">
        <ele>364.9</ele>
        <time>2017-02-26T10:56:19.000Z</time>
      </trkpt>
      <trkpt lat="47.49166" lon="6.75789">
        <ele>364.9</ele>
        <time>2017-02-26T10:56:20.000Z</time>
      </trkpt>
      <trkpt lat="47.49164" lon="6.75793">
        <ele>364.9</ele>
        <time>2017-02-26T10:56:21.000Z</time>
      </trkpt>
      <trkpt lat="47.49162" lon="6.758">
        <ele>365</ele>
        <time>2017-02-26T10:56:22.000Z</time>
      </trkpt>
      <trkpt lat="47.49161" lon="6.75807">
        <ele>365</ele>
        <time>2017-02-26T10:56:23.000Z</time>
      </trkpt>
      <trkpt lat="47.49159" lon="6.75814">
        <ele>365.1</ele>
        <time>2017-02-26T10:56:24.000Z</time>
      </trkpt>
      <trkpt lat="47.49157" lon="6.7582">
        <ele>365.1</ele>
        <time>2017-02-26T10:56:25.000Z</time>
      </trkpt>
      <trkpt lat="47.49155" lon="6.75827">
        <ele>365.1</ele>
        <time>2017-02-26T10:56:26.000Z</time>
      </trkpt>
      <trkpt lat="47.49153" lon="6.75832">
        <ele>365</ele>
        <time>2017-02-26T10:56:27.000Z</time>
      </trkpt>
      <trkpt lat="47.49153" lon="6.75838">
        <ele>364.8</ele>
        <time>2017-02-26T10:56:28.000Z</time>
      </trkpt>
      <trkpt lat="47.49152" lon="6.75844">
        <ele>364.7</ele>
        <time>2017-02-26T10:56:29.000Z</time>
      </trkpt>
      <trkpt lat="47.49151" lon="6.75849">
        <ele>364.6</ele>
        <time>2017-02-26T10:56:30.000Z</time>
      </trkpt>
      <trkpt lat="47.4915" lon="6.75855">
        <ele>364.4</ele>
        <time>2017-02-26T10:56:31.000Z</time>
      </trkpt>
      <trkpt lat="47.49149" lon="6.7586">
        <ele>364.1</ele>
        <time>2017-02-26T10:56:32.000Z</time>
      </trkpt>
      <trkpt lat="47.49148" lon="6.75866">
        <ele>363.9</ele>
        <time>2017-02-26T10:56:33.000Z</time>
      </trkpt>
      <trkpt lat="47.49148" lon="6.75874">
        <ele>363.8</ele>
        <time>2017-02-26T10:56:34.000Z</time>
      </trkpt>
      <trkpt lat="47.49147" lon="6.75883">
        <ele>363.6</ele>
        <time>2017-02-26T10:56:35.000Z</time>
      </trkpt>
      <trkpt lat="47.49146" lon="6.7589">
        <ele>363.4</ele>
        <time>2017-02-26T10:56:36.000Z</time>
      </trkpt>
      <trkpt lat="47.49144" lon="6.75898">
        <ele>363.4</ele>
        <time>2017-02-26T10:56:37.000Z</time>
      </trkpt>
      <trkpt lat="47.49142" lon="6.75906">
        <ele>363.4</ele>
        <time>2017-02-26T10:56:38.000Z</time>
      </trkpt>
      <trkpt lat="47.4914" lon="6.75911">
        <ele>363.3</ele>
        <time>2017-02-26T10:56:39.000Z</time>
      </trkpt>
      <trkpt lat="47.49138" lon="6.75916">
        <ele>363.3</ele>
        <time>2017-02-26T10:56:40.000Z</time>
      </trkpt>
      <trkpt lat="47.49136" lon="6.75922">
        <ele>363.2</ele>
        <time>2017-02-26T10:56:41.000Z</time>
      </trkpt>
      <trkpt lat="47.49136" lon="6.75925">
        <ele>363.1</ele>
        <time>2017-02-26T10:56:42.000Z</time>
      </trkpt>
      <trkpt lat="47.49134" lon="6.75932">
        <ele>362.9</ele>
        <time>2017-02-26T10:56:43.000Z</time>
      </trkpt>
      <trkpt lat="47.49132" lon="6.75937">
        <ele>362.9</ele>
        <time>2017-02-26T10:56:44.000Z</time>
      </trkpt>
      <trkpt lat="47.49129" lon="6.75951">
        <ele>362.8</ele>
        <time>2017-02-26T10:56:45.000Z</time>
      </trkpt>
      <trkpt lat="47.49126" lon="6.75958">
        <ele>362.7</ele>
        <time>2017-02-26T10:56:46.000Z</time>
      </trkpt>
      <trkpt lat="47.49123" lon="6.75968">
        <ele>362.7</ele>
        <time>2017-02-26T10:56:47.000Z</time>
      </trkpt>
      <trkpt lat="47.4912" lon="6.75975">
        <ele>362.8</ele>
        <time>2017-02-26T10:56:48.000Z</time>
      </trkpt>
      <trkpt lat="47.49116" lon="6.75983">
        <ele>362.9</ele>
        <time>2017-02-26T10:56:49.000Z</time>
      </trkpt>
      <trkpt lat="47.49113" lon="6.75993">
        <ele>362.9</ele>
        <time>2017-02-26T10:56:50.000Z</time>
      </trkpt>
      <trkpt lat="47.49111" lon="6.76001">
        <ele>363.1</ele>
        <time>2017-02-26T10:56:51.000Z</time>
      </trkpt>
      <trkpt lat="47.49107" lon="6.76013">
        <ele>363.2</ele>
        <time>2017-02-26T10:56:52.000Z</time>
      </trkpt>
      <trkpt lat="47.49104" lon="6.76024">
        <ele>363.4</ele>
        <time>2017-02-26T10:56:53.000Z</time>
      </trkpt>
      <trkpt lat="47.49102" lon="6.76036">
        <ele>363.5</ele>
        <time>2017-02-26T10:56:54.000Z</time>
      </trkpt>
      <trkpt lat="47.49101" lon="6.76047">
        <ele>365.4</ele>
        <time>2017-02-26T10:56:55.000Z</time>
      </trkpt>
      <trkpt lat="47.491" lon="6.76057">
        <ele>365.6</ele>
        <time>2017-02-26T10:56:56.000Z</time>
      </trkpt>
      <trkpt lat="47.491" lon="6.76061">
        <ele>366.2</ele>
        <time>2017-02-26T10:57:01.000Z</time>
      </trkpt>
      <trkpt lat="47.49101" lon="6.7607">
        <ele>366.2</ele>
        <time>2017-02-26T10:57:02.000Z</time>
      </trkpt>
      <trkpt lat="47.49101" lon="6.76077">
        <ele>366.2</ele>
        <time>2017-02-26T10:57:03.000Z</time>
      </trkpt>
      <trkpt lat="47.491" lon="6.76099">
        <ele>366.1</ele>
        <time>2017-02-26T10:57:04.000Z</time>
      </trkpt>
      <trkpt lat="47.491" lon="6.76113">
        <ele>366</ele>
        <time>2017-02-26T10:57:05.000Z</time>
      </trkpt>
      <trkpt lat="47.49099" lon="6.76125">
        <ele>365.9</ele>
        <time>2017-02-26T10:57:06.000Z</time>
      </trkpt>
      <trkpt lat="47.49099" lon="6.76131">
        <ele>365.8</ele>
        <time>2017-02-26T10:57:07.000Z</time>
      </trkpt>
      <trkpt lat="47.49099" lon="6.76139">
        <ele>365.7</ele>
        <time>2017-02-26T10:57:08.000Z</time>
      </trkpt>
      <trkpt lat="47.49099" lon="6.7615">
        <ele>365.5</ele>
        <time>2017-02-26T10:57:09.000Z</time>
      </trkpt>
      <trkpt lat="47.491" lon="6.7616">
        <ele>365.4</ele>
        <time>2017-02-26T10:57:10.000Z</time>
      </trkpt>
      <trkpt lat="47.49101" lon="6.76172">
        <ele>365.4</ele>
        <time>2017-02-26T10:57:11.000Z</time>
      </trkpt>
      <trkpt lat="47.49101" lon="6.7618">
        <ele>365.2</ele>
        <time>2017-02-26T10:57:12.000Z</time>
      </trkpt>
      <trkpt lat="47.491" lon="6.76191">
        <ele>365.1</ele>
        <time>2017-02-26T10:57:13.000Z</time>
      </trkpt>
      <trkpt lat="47.49101" lon="6.76199">
        <ele>365</ele>
        <time>2017-02-26T10:57:14.000Z</time>
      </trkpt>
      <trkpt lat="47.49101" lon="6.7621">
        <ele>364.8</ele>
        <time>2017-02-26T10:57:15.000Z</time>
      </trkpt>
      <trkpt lat="47.49103" lon="6.76222">
        <ele>364.7</ele>
        <time>2017-02-26T10:57:16.000Z</time>
      </trkpt>
      <trkpt lat="47.49102" lon="6.7623">
        <ele>364.7</ele>
        <time>2017-02-26T10:57:17.000Z</time>
      </trkpt>
      <trkpt lat="47.49102" lon="6.76239">
        <ele>364.7</ele>
        <time>2017-02-26T10:57:18.000Z</time>
      </trkpt>
      <trkpt lat="47.49101" lon="6.76258">
        <ele>364.7</ele>
        <time>2017-02-26T10:57:19.000Z</time>
      </trkpt>
      <trkpt lat="47.49101" lon="6.76267">
        <ele>364.8</ele>
        <time>2017-02-26T10:57:20.000Z</time>
      </trkpt>
      <trkpt lat="47.49101" lon="6.76275">
        <ele>364.9</ele>
        <time>2017-02-26T10:57:21.000Z</time>
      </trkpt>
      <trkpt lat="47.491" lon="6.76287">
        <ele>364.9</ele>
        <time>2017-02-26T10:57:22.000Z</time>
      </trkpt>
      <trkpt lat="47.491" lon="6.76297">
        <ele>364.9</ele>
        <time>2017-02-26T10:57:23.000Z</time>
      </trkpt>
      <trkpt lat="47.49101" lon="6.76306">
        <ele>365</ele>
        <time>2017-02-26T10:57:24.000Z</time>
      </trkpt>
      <trkpt lat="47.49101" lon="6.76309">
        <ele>365.1</ele>
        <time>2017-02-26T10:57:25.000Z</time>
      </trkpt>
      <trkpt lat="47.49101" lon="6.76315">
        <ele>365</ele>
        <time>2017-02-26T10:57:26.000Z</time>
      </trkpt>
      <trkpt lat="47.49101" lon="6.76321">
        <ele>365</ele>
        <time>2017-02-26T10:57:27.000Z</time>
      </trkpt>
      <trkpt lat="47.49101" lon="6.76327">
        <ele>365</ele>
        <time>2017-02-26T10:57:28.000Z</time>
      </trkpt>
      <trkpt lat="47.491" lon="6.76334">
        <ele>365</ele>
        <time>2017-02-26T10:57:29.000Z</time>
      </trkpt>
      <trkpt lat="47.49099" lon="6.76342">
        <ele>365.1</ele>
        <time>2017-02-26T10:57:30.000Z</time>
      </trkpt>
      <trkpt lat="47.49099" lon="6.76349">
        <ele>365.1</ele>
        <time>2017-02-26T10:57:31.000Z</time>
      </trkpt>
      <trkpt lat="47.491" lon="6.76352">
        <ele>365.1</ele>
        <time>2017-02-26T10:57:32.000Z</time>
      </trkpt>
      <trkpt lat="47.49101" lon="6.76355">
        <ele>365.2</ele>
        <time>2017-02-26T10:57:33.000Z</time>
      </trkpt>
      <trkpt lat="47.49104" lon="6.76364">
        <ele>365.3</ele>
        <time>2017-02-26T10:57:34.000Z</time>
      </trkpt>
      <trkpt lat="47.49106" lon="6.76372">
        <ele>365.4</ele>
        <time>2017-02-26T10:57:35.000Z</time>
      </trkpt>
      <trkpt lat="47.49107" lon="6.7638">
        <ele>365.5</ele>
        <time>2017-02-26T10:57:36.000Z</time>
      </trkpt>
      <trkpt lat="47.49108" lon="6.76391">
        <ele>365.6</ele>
        <time>2017-02-26T10:57:37.000Z</time>
      </trkpt>
      <trkpt lat="47.49108" lon="6.76401">
        <ele>365.8</ele>
        <time>2017-02-26T10:57:38.000Z</time>
      </trkpt>
      <trkpt lat="47.49106" lon="6.76407">
        <ele>365.8</ele>
        <time>2017-02-26T10:57:39.000Z</time>
      </trkpt>
      <trkpt lat="47.49105" lon="6.76411">
        <ele>366</ele>
        <time>2017-02-26T10:57:40.000Z</time>
      </trkpt>
      <trkpt lat="47.49104" lon="6.76416">
        <ele>366.1</ele>
        <time>2017-02-26T10:57:41.000Z</time>
      </trkpt>
      <trkpt lat="47.49104" lon="6.7642">
        <ele>366.2</ele>
        <time>2017-02-26T10:57:42.000Z</time>
      </trkpt>
      <trkpt lat="47.49104" lon="6.76425">
        <ele>366.4</ele>
        <time>2017-02-26T10:57:44.000Z</time>
      </trkpt>
      <trkpt lat="47.49105" lon="6.76429">
        <ele>366.5</ele>
        <time>2017-02-26T10:57:45.000Z</time>
      </trkpt>
      <trkpt lat="47.49106" lon="6.76432">
        <ele>366.6</ele>
        <time>2017-02-26T10:57:46.000Z</time>
      </trkpt>
      <trkpt lat="47.49108" lon="6.76434">
        <ele>366.7</ele>
        <time>2017-02-26T10:57:47.000Z</time>
      </trkpt>
      <trkpt lat="47.49111" lon="6.76434">
        <ele>366.6</ele>
        <time>2017-02-26T10:57:48.000Z</time>
      </trkpt>
      <trkpt lat="47.49113" lon="6.76435">
        <ele>366.6</ele>
        <time>2017-02-26T10:57:49.000Z</time>
      </trkpt>
      <trkpt lat="47.49116" lon="6.76435">
        <ele>366.4</ele>
        <time>2017-02-26T10:57:50.000Z</time>
      </trkpt>
      <trkpt lat="47.4912" lon="6.76436">
        <ele>366.4</ele>
        <time>2017-02-26T10:57:51.000Z</time>
      </trkpt>
      <trkpt lat="47.49121" lon="6.76442">
        <ele>366.3</ele>
        <time>2017-02-26T10:57:53.000Z</time>
      </trkpt>
      <trkpt lat="47.49121" lon="6.76446">
        <ele>366.3</ele>
        <time>2017-02-26T10:57:54.000Z</time>
      </trkpt>
      <trkpt lat="47.49122" lon="6.76449">
        <ele>366.3</ele>
        <time>2017-02-26T10:57:55.000Z</time>
      </trkpt>
      <trkpt lat="47.49123" lon="6.76454">
        <ele>366.3</ele>
        <time>2017-02-26T10:57:56.000Z</time>
      </trkpt>
      <trkpt lat="47.49123" lon="6.76458">
        <ele>366.3</ele>
        <time>2017-02-26T10:57:57.000Z</time>
      </trkpt>
      <trkpt lat="47.49123" lon="6.76461">
        <ele>366.3</ele>
        <time>2017-02-26T10:57:58.000Z</time>
      </trkpt>
      <trkpt lat="47.49123" lon="6.76465">
        <ele>366.3</ele>
        <time>2017-02-26T10:57:59.000Z</time>
      </trkpt>
      <trkpt lat="47.49124" lon="6.76469">
        <ele>366.2</ele>
        <time>2017-02-26T10:58:00.000Z</time>
      </trkpt>
      <trkpt lat="47.49124" lon="6.76473">
        <ele>365.8</ele>
        <time>2017-02-26T10:58:07.000Z</time>
      </trkpt>
      <trkpt lat="47.49125" lon="6.76477">
        <ele>365.8</ele>
        <time>2017-02-26T10:58:08.000Z</time>
      </trkpt>
      <trkpt lat="47.49125" lon="6.7648">
        <ele>365.8</ele>
        <time>2017-02-26T10:58:09.000Z</time>
      </trkpt>
      <trkpt lat="47.49125" lon="6.76484">
        <ele>365.8</ele>
        <time>2017-02-26T10:58:10.000Z</time>
      </trkpt>
      <trkpt lat="47.49124" lon="6.76488">
        <ele>365.1</ele>
        <time>2017-02-26T10:58:24.000Z</time>
      </trkpt>
      <trkpt lat="47.49123" lon="6.76491">
        <ele>365</ele>
        <time>2017-02-26T10:58:25.000Z</time>
      </trkpt>
      <trkpt lat="47.49124" lon="6.76494">
        <ele>364.9</ele>
        <time>2017-02-26T10:58:26.000Z</time>
      </trkpt>
      <trkpt lat="47.49125" lon="6.76497">
        <ele>364.8</ele>
        <time>2017-02-26T10:58:27.000Z</time>
      </trkpt>
      <trkpt lat="47.49125" lon="6.76503">
        <ele>364</ele>
        <time>2017-02-26T11:00:36.000Z</time>
      </trkpt>
      <trkpt lat="47.49126" lon="6.76504">
        <ele>363.9</ele>
        <time>2017-02-26T11:00:37.000Z</time>
      </trkpt>
      <trkpt lat="47.49127" lon="6.76509">
        <ele>364</ele>
        <time>2017-02-26T11:00:39.000Z</time>
      </trkpt>
      <trkpt lat="47.49127" lon="6.76513">
        <ele>364</ele>
        <time>2017-02-26T11:00:40.000Z</time>
      </trkpt>
      <trkpt lat="47.49127" lon="6.76518">
        <ele>363.9</ele>
        <time>2017-02-26T11:00:41.000Z</time>
      </trkpt>
      <trkpt lat="47.49126" lon="6.76521">
        <ele>363.8</ele>
        <time>2017-02-26T11:00:42.000Z</time>
      </trkpt>
      <trkpt lat="47.49125" lon="6.76525">
        <ele>363.8</ele>
        <time>2017-02-26T11:00:43.000Z</time>
      </trkpt>
      <trkpt lat="47.49124" lon="6.76528">
        <ele>363.9</ele>
        <time>2017-02-26T11:00:44.000Z</time>
      </trkpt>
      <trkpt lat="47.49123" lon="6.76531">
        <ele>364</ele>
        <time>2017-02-26T11:00:45.000Z</time>
      </trkpt>
      <trkpt lat="47.49122" lon="6.76534">
        <ele>364</ele>
        <time>2017-02-26T11:00:46.000Z</time>
      </trkpt>
      <trkpt lat="47.49121" lon="6.76537">
        <ele>364.1</ele>
        <time>2017-02-26T11:00:47.000Z</time>
      </trkpt>
      <trkpt lat="47.49122" lon="6.76542">
        <ele>364.2</ele>
        <time>2017-02-26T11:00:48.000Z</time>
      </trkpt>
      <trkpt lat="47.49122" lon="6.76545">
        <ele>364.3</ele>
        <time>2017-02-26T11:00:49.000Z</time>
      </trkpt>
      <trkpt lat="47.49123" lon="6.76549">
        <ele>364.3</ele>
        <time>2017-02-26T11:00:50.000Z</time>
      </trkpt>
      <trkpt lat="47.49123" lon="6.76553">
        <ele>364.4</ele>
        <time>2017-02-26T11:00:51.000Z</time>
      </trkpt>
      <trkpt lat="47.49123" lon="6.76557">
        <ele>364.4</ele>
        <time>2017-02-26T11:00:52.000Z</time>
      </trkpt>
      <trkpt lat="47.49122" lon="6.76561">
        <ele>364.4</ele>
        <time>2017-02-26T11:00:53.000Z</time>
      </trkpt>
      <trkpt lat="47.49122" lon="6.76565">
        <ele>364.3</ele>
        <time>2017-02-26T11:00:54.000Z</time>
      </trkpt>
      <trkpt lat="47.49122" lon="6.7657">
        <ele>364.2</ele>
        <time>2017-02-26T11:00:55.000Z</time>
      </trkpt>
      <trkpt lat="47.49123" lon="6.76576">
        <ele>364</ele>
        <time>2017-02-26T11:00:56.000Z</time>
      </trkpt>
      <trkpt lat="47.49124" lon="6.76581">
        <ele>363.9</ele>
        <time>2017-02-26T11:00:57.000Z</time>
      </trkpt>
      <trkpt lat="47.49124" lon="6.76587">
        <ele>364</ele>
        <time>2017-02-26T11:00:58.000Z</time>
      </trkpt>
      <trkpt lat="47.49125" lon="6.76593">
        <ele>363.5</ele>
        <time>2017-02-26T11:00:59.000Z</time>
      </trkpt>
      <trkpt lat="47.49127" lon="6.76598">
        <ele>362.7</ele>
        <time>2017-02-26T11:01:00.000Z</time>
      </trkpt>
      <trkpt lat="47.49127" lon="6.76604">
        <ele>362.2</ele>
        <time>2017-02-26T11:01:01.000Z</time>
      </trkpt>
      <trkpt lat="47.49128" lon="6.7661">
        <ele>361.8</ele>
        <time>2017-02-26T11:01:02.000Z</time>
      </trkpt>
      <trkpt lat="47.49129" lon="6.76616">
        <ele>362</ele>
        <time>2017-02-26T11:01:03.000Z</time>
      </trkpt>
      <trkpt lat="47.4913" lon="6.76622">
        <ele>362.3</ele>
        <time>2017-02-26T11:01:04.000Z</time>
      </trkpt>
      <trkpt lat="47.49131" lon="6.76627">
        <ele>362.3</ele>
        <time>2017-02-26T11:01:05.000Z</time>
      </trkpt>
      <trkpt lat="47.49132" lon="6.76632">
        <ele>362.6</ele>
        <time>2017-02-26T11:01:06.000Z</time>
      </trkpt>
      <trkpt lat="47.49133" lon="6.76639">
        <ele>362.8</ele>
        <time>2017-02-26T11:01:07.000Z</time>
      </trkpt>
      <trkpt lat="47.49134" lon="6.76644">
        <ele>362.8</ele>
        <time>2017-02-26T11:01:08.000Z</time>
      </trkpt>
      <trkpt lat="47.49135" lon="6.76649">
        <ele>362.8</ele>
        <time>2017-02-26T11:01:09.000Z</time>
      </trkpt>
      <trkpt lat="47.49136" lon="6.76655">
        <ele>362.9</ele>
        <time>2017-02-26T11:01:10.000Z</time>
      </trkpt>
      <trkpt lat="47.49137" lon="6.7666">
        <ele>362.8</ele>
        <time>2017-02-26T11:01:11.000Z</time>
      </trkpt>
      <trkpt lat="47.49137" lon="6.76666">
        <ele>362.8</ele>
        <time>2017-02-26T11:01:12.000Z</time>
      </trkpt>
      <trkpt lat="47.49138" lon="6.76671">
        <ele>362.7</ele>
        <time>2017-02-26T11:01:13.000Z</time>
      </trkpt>
      <trkpt lat="47.49139" lon="6.76677">
        <ele>362.7</ele>
        <time>2017-02-26T11:01:14.000Z</time>
      </trkpt>
      <trkpt lat="47.49141" lon="6.76684">
        <ele>362.7</ele>
        <time>2017-02-26T11:01:15.000Z</time>
      </trkpt>
      <trkpt lat="47.49142" lon="6.76691">
        <ele>362.6</ele>
        <time>2017-02-26T11:01:16.000Z</time>
      </trkpt>
      <trkpt lat="47.49143" lon="6.76697">
        <ele>362.5</ele>
        <time>2017-02-26T11:01:17.000Z</time>
      </trkpt>
      <trkpt lat="47.49144" lon="6.76704">
        <ele>362.5</ele>
        <time>2017-02-26T11:01:18.000Z</time>
      </trkpt>
      <trkpt lat="47.49144" lon="6.76711">
        <ele>362.5</ele>
        <time>2017-02-26T11:01:19.000Z</time>
      </trkpt>
      <trkpt lat="47.49145" lon="6.76717">
        <ele>362.4</ele>
        <time>2017-02-26T11:01:20.000Z</time>
      </trkpt>
      <trkpt lat="47.49145" lon="6.76723">
        <ele>362.3</ele>
        <time>2017-02-26T11:01:21.000Z</time>
      </trkpt>
      <trkpt lat="47.49145" lon="6.76729">
        <ele>362.3</ele>
        <time>2017-02-26T11:01:22.000Z</time>
      </trkpt>
      <trkpt lat="47.49146" lon="6.76736">
        <ele>362.3</ele>
        <time>2017-02-26T11:01:23.000Z</time>
      </trkpt>
      <trkpt lat="47.49147" lon="6.76742">
        <ele>362.2</ele>
        <time>2017-02-26T11:01:24.000Z</time>
      </trkpt>
      <trkpt lat="47.49147" lon="6.76749">
        <ele>362.2</ele>
        <time>2017-02-26T11:01:25.000Z</time>
      </trkpt>
      <trkpt lat="47.49147" lon="6.76756">
        <ele>362.2</ele>
        <time>2017-02-26T11:01:26.000Z</time>
      </trkpt>
      <trkpt lat="47.49148" lon="6.76763">
        <ele>362.2</ele>
        <time>2017-02-26T11:01:27.000Z</time>
      </trkpt>
      <trkpt lat="47.49148" lon="6.7677">
        <ele>362.3</ele>
        <time>2017-02-26T11:01:28.000Z</time>
      </trkpt>
      <trkpt lat="47.49149" lon="6.76776">
        <ele>362.3</ele>
        <time>2017-02-26T11:01:29.000Z</time>
      </trkpt>
      <trkpt lat="47.4915" lon="6.7678">
        <ele>362.5</ele>
        <time>2017-02-26T11:01:30.000Z</time>
      </trkpt>
      <trkpt lat="47.49152" lon="6.76785">
        <ele>362.6</ele>
        <time>2017-02-26T11:01:31.000Z</time>
      </trkpt>
      <trkpt lat="47.49154" lon="6.76789">
        <ele>362.7</ele>
        <time>2017-02-26T11:01:32.000Z</time>
      </trkpt>
      <trkpt lat="47.49155" lon="6.76792">
        <ele>362.7</ele>
        <time>2017-02-26T11:01:33.000Z</time>
      </trkpt>
      <trkpt lat="47.49156" lon="6.76796">
        <ele>362.8</ele>
        <time>2017-02-26T11:01:34.000Z</time>
      </trkpt>
      <trkpt lat="47.49156" lon="6.76798">
        <ele>362.9</ele>
        <time>2017-02-26T11:01:35.000Z</time>
      </trkpt>
      <trkpt lat="47.49153" lon="6.76802">
        <ele>363.1</ele>
        <time>2017-02-26T11:01:36.000Z</time>
      </trkpt>
      <trkpt lat="47.49151" lon="6.76806">
        <ele>363.1</ele>
        <time>2017-02-26T11:01:37.000Z</time>
      </trkpt>
      <trkpt lat="47.49149" lon="6.7681">
        <ele>363.1</ele>
        <time>2017-02-26T11:01:38.000Z</time>
      </trkpt>
      <trkpt lat="47.49148" lon="6.76815">
        <ele>363.1</ele>
        <time>2017-02-26T11:01:39.000Z</time>
      </trkpt>
      <trkpt lat="47.49148" lon="6.76821">
        <ele>363</ele>
        <time>2017-02-26T11:01:40.000Z</time>
      </trkpt>
      <trkpt lat="47.49148" lon="6.76826">
        <ele>362.8</ele>
        <time>2017-02-26T11:01:41.000Z</time>
      </trkpt>
      <trkpt lat="47.49149" lon="6.76831">
        <ele>362.7</ele>
        <time>2017-02-26T11:01:42.000Z</time>
      </trkpt>
      <trkpt lat="47.49149" lon="6.76837">
        <ele>362.6</ele>
        <time>2017-02-26T11:01:43.000Z</time>
      </trkpt>
      <trkpt lat="47.4915" lon="6.76844">
        <ele>362.6</ele>
        <time>2017-02-26T11:01:44.000Z</time>
      </trkpt>
      <trkpt lat="47.4915" lon="6.7685">
        <ele>362.5</ele>
        <time>2017-02-26T11:01:45.000Z</time>
      </trkpt>
      <trkpt lat="47.4915" lon="6.76855">
        <ele>362.3</ele>
        <time>2017-02-26T11:01:46.000Z</time>
      </trkpt>
      <trkpt lat="47.49151" lon="6.7686">
        <ele>362.2</ele>
        <time>2017-02-26T11:01:47.000Z</time>
      </trkpt>
      <trkpt lat="47.49151" lon="6.76865">
        <ele>362</ele>
        <time>2017-02-26T11:01:48.000Z</time>
      </trkpt>
      <trkpt lat="47.49151" lon="6.76872">
        <ele>362</ele>
        <time>2017-02-26T11:01:49.000Z</time>
      </trkpt>
      <trkpt lat="47.4915" lon="6.76878">
        <ele>361.8</ele>
        <time>2017-02-26T11:01:50.000Z</time>
      </trkpt>
      <trkpt lat="47.4915" lon="6.76884">
        <ele>361.7</ele>
        <time>2017-02-26T11:01:51.000Z</time>
      </trkpt>
      <trkpt lat="47.4915" lon="6.76891">
        <ele>362.1</ele>
        <time>2017-02-26T11:01:52.000Z</time>
      </trkpt>
      <trkpt lat="47.49148" lon="6.76902">
        <ele>363.3</ele>
        <time>2017-02-26T11:01:53.000Z</time>
      </trkpt>
      <trkpt lat="47.49147" lon="6.76908">
        <ele>364</ele>
        <time>2017-02-26T11:01:54.000Z</time>
      </trkpt>
      <trkpt lat="47.49148" lon="6.76914">
        <ele>364.3</ele>
        <time>2017-02-26T11:01:55.000Z</time>
      </trkpt>
      <trkpt lat="47.49148" lon="6.76919">
        <ele>364.2</ele>
        <time>2017-02-26T11:01:56.000Z</time>
      </trkpt>
      <trkpt lat="47.49148" lon="6.76926">
        <ele>364.1</ele>
        <time>2017-02-26T11:01:57.000Z</time>
      </trkpt>
      <trkpt lat="47.49147" lon="6.76932">
        <ele>364</ele>
        <time>2017-02-26T11:01:58.000Z</time>
      </trkpt>
      <trkpt lat="47.49147" lon="6.76939">
        <ele>363.9</ele>
        <time>2017-02-26T11:01:59.000Z</time>
      </trkpt>
      <trkpt lat="47.49147" lon="6.76946">
        <ele>363.8</ele>
        <time>2017-02-26T11:02:00.000Z</time>
      </trkpt>
      <trkpt lat="47.49147" lon="6.76951">
        <ele>363.8</ele>
        <time>2017-02-26T11:02:01.000Z</time>
      </trkpt>
      <trkpt lat="47.49146" lon="6.76957">
        <ele>363.7</ele>
        <time>2017-02-26T11:02:02.000Z</time>
      </trkpt>
      <trkpt lat="47.49146" lon="6.76961">
        <ele>363.7</ele>
        <time>2017-02-26T11:02:03.000Z</time>
      </trkpt>
      <trkpt lat="47.49147" lon="6.76964">
        <ele>363.6</ele>
        <time>2017-02-26T11:02:04.000Z</time>
      </trkpt>
      <trkpt lat="47.49147" lon="6.7697">
        <ele>363.5</ele>
        <time>2017-02-26T11:02:05.000Z</time>
      </trkpt>
      <trkpt lat="47.49148" lon="6.76973">
        <ele>363.3</ele>
        <time>2017-02-26T11:02:06.000Z</time>
      </trkpt>
      <trkpt lat="47.49149" lon="6.76977">
        <ele>363.1</ele>
        <time>2017-02-26T11:02:07.000Z</time>
      </trkpt>
      <trkpt lat="47.4915" lon="6.76982">
        <ele>362.9</ele>
        <time>2017-02-26T11:02:08.000Z</time>
      </trkpt>
      <trkpt lat="47.49152" lon="6.76989">
        <ele>360.4</ele>
        <time>2017-02-26T11:02:09.000Z</time>
      </trkpt>
      <trkpt lat="47.49155" lon="6.76996">
        <ele>358.5</ele>
        <time>2017-02-26T11:02:10.000Z</time>
      </trkpt>
      <trkpt lat="47.49157" lon="6.77003">
        <ele>358.4</ele>
        <time>2017-02-26T11:02:11.000Z</time>
      </trkpt>
      <trkpt lat="47.4916" lon="6.7701">
        <ele>358.5</ele>
        <time>2017-02-26T11:02:12.000Z</time>
      </trkpt>
      <trkpt lat="47.49162" lon="6.77018">
        <ele>359.1</ele>
        <time>2017-02-26T11:02:13.000Z</time>
      </trkpt>
      <trkpt lat="47.49163" lon="6.77025">
        <ele>359.1</ele>
        <time>2017-02-26T11:02:14.000Z</time>
      </trkpt>
      <trkpt lat="47.49164" lon="6.77032">
        <ele>359.6</ele>
        <time>2017-02-26T11:02:15.000Z</time>
      </trkpt>
      <trkpt lat="47.49166" lon="6.77042">
        <ele>360</ele>
        <time>2017-02-26T11:02:16.000Z</time>
      </trkpt>
      <trkpt lat="47.49167" lon="6.7705">
        <ele>360.4</ele>
        <time>2017-02-26T11:02:17.000Z</time>
      </trkpt>
      <trkpt lat="47.49168" lon="6.77056">
        <ele>360.7</ele>
        <time>2017-02-26T11:02:18.000Z</time>
      </trkpt>
      <trkpt lat="47.49168" lon="6.77062">
        <ele>360.8</ele>
        <time>2017-02-26T11:02:19.000Z</time>
      </trkpt>
      <trkpt lat="47.49169" lon="6.77067">
        <ele>361.1</ele>
        <time>2017-02-26T11:02:20.000Z</time>
      </trkpt>
      <trkpt lat="47.4917" lon="6.77072">
        <ele>360.8</ele>
        <time>2017-02-26T11:02:21.000Z</time>
      </trkpt>
      <trkpt lat="47.49171" lon="6.77077">
        <ele>360.7</ele>
        <time>2017-02-26T11:02:22.000Z</time>
      </trkpt>
      <trkpt lat="47.49172" lon="6.77081">
        <ele>360.7</ele>
        <time>2017-02-26T11:02:23.000Z</time>
      </trkpt>
      <trkpt lat="47.49173" lon="6.77086">
        <ele>360.8</ele>
        <time>2017-02-26T11:02:24.000Z</time>
      </trkpt>
      <trkpt lat="47.49175" lon="6.77091">
        <ele>360.8</ele>
        <time>2017-02-26T11:02:25.000Z</time>
      </trkpt>
      <trkpt lat="47.49175" lon="6.77097">
        <ele>360.7</ele>
        <time>2017-02-26T11:02:26.000Z</time>
      </trkpt>
      <trkpt lat="47.49176" lon="6.77103">
        <ele>360.7</ele>
        <time>2017-02-26T11:02:27.000Z</time>
      </trkpt>
      <trkpt lat="47.49177" lon="6.77109">
        <ele>360.7</ele>
        <time>2017-02-26T11:02:28.000Z</time>
      </trkpt>
      <trkpt lat="47.49177" lon="6.77113">
        <ele>360.7</ele>
        <time>2017-02-26T11:02:29.000Z</time>
      </trkpt>
      <trkpt lat="47.49177" lon="6.77118">
        <ele>360.7</ele>
        <time>2017-02-26T11:02:30.000Z</time>
      </trkpt>
      <trkpt lat="47.49177" lon="6.77121">
        <ele>360.7</ele>
        <time>2017-02-26T11:02:31.000Z</time>
      </trkpt>
      <trkpt lat="47.49178" lon="6.77127">
        <ele>360.7</ele>
        <time>2017-02-26T11:02:33.000Z</time>
      </trkpt>
      <trkpt lat="47.49178" lon="6.77131">
        <ele>360.7</ele>
        <time>2017-02-26T11:02:33.999Z</time>
      </trkpt>
      <trkpt lat="47.49178" lon="6.77133">
        <ele>360.7</ele>
        <time>2017-02-26T11:02:34.999Z</time>
      </trkpt>
      <trkpt lat="47.49179" lon="6.77138">
        <ele>360.7</ele>
        <time>2017-02-26T11:02:35.999Z</time>
      </trkpt>
      <trkpt lat="47.49181" lon="6.77144">
        <ele>360.7</ele>
        <time>2017-02-26T11:02:36.999Z</time>
      </trkpt>
      <trkpt lat="47.49183" lon="6.77151">
        <ele>360.7</ele>
        <time>2017-02-26T11:02:37.999Z</time>
      </trkpt>
      <trkpt lat="47.49185" lon="6.77157">
        <ele>361.1</ele>
        <time>2017-02-26T11:02:38.999Z</time>
      </trkpt>
      <trkpt lat="47.49185" lon="6.77164">
        <ele>361.1</ele>
        <time>2017-02-26T11:02:39.999Z</time>
      </trkpt>
      <trkpt lat="47.49185" lon="6.7717">
        <ele>361</ele>
        <time>2017-02-26T11:02:40.999Z</time>
      </trkpt>
      <trkpt lat="47.49185" lon="6.77175">
        <ele>361.1</ele>
        <time>2017-02-26T11:02:41.999Z</time>
      </trkpt>
      <trkpt lat="47.49186" lon="6.77182">
        <ele>361.3</ele>
        <time>2017-02-26T11:02:42.999Z</time>
      </trkpt>
      <trkpt lat="47.49185" lon="6.77187">
        <ele>361.3</ele>
        <time>2017-02-26T11:02:43.999Z</time>
      </trkpt>
      <trkpt lat="47.49185" lon="6.77193">
        <ele>361.7</ele>
        <time>2017-02-26T11:02:44.999Z</time>
      </trkpt>
      <trkpt lat="47.49185" lon="6.77199">
        <ele>361.7</ele>
        <time>2017-02-26T11:02:45.999Z</time>
      </trkpt>
      <trkpt lat="47.49185" lon="6.77205">
        <ele>361.8</ele>
        <time>2017-02-26T11:02:46.999Z</time>
      </trkpt>
      <trkpt lat="47.49186" lon="6.7721">
        <ele>361.8</ele>
        <time>2017-02-26T11:02:47.999Z</time>
      </trkpt>
      <trkpt lat="47.49185" lon="6.77216">
        <ele>361.9</ele>
        <time>2017-02-26T11:02:48.999Z</time>
      </trkpt>
      <trkpt lat="47.49186" lon="6.77221">
        <ele>361.9</ele>
        <time>2017-02-26T11:02:49.999Z</time>
      </trkpt>
      <trkpt lat="47.49186" lon="6.77225">
        <ele>361.9</ele>
        <time>2017-02-26T11:02:50.999Z</time>
      </trkpt>
      <trkpt lat="47.49186" lon="6.7723">
        <ele>361.9</ele>
        <time>2017-02-26T11:02:51.999Z</time>
      </trkpt>
      <trkpt lat="47.49186" lon="6.77235">
        <ele>361.9</ele>
        <time>2017-02-26T11:02:52.999Z</time>
      </trkpt>
      <trkpt lat="47.49187" lon="6.77239">
        <ele>362</ele>
        <time>2017-02-26T11:02:53.999Z</time>
      </trkpt>
      <trkpt lat="47.49188" lon="6.77243">
        <ele>362</ele>
        <time>2017-02-26T11:02:54.999Z</time>
      </trkpt>
      <trkpt lat="47.49189" lon="6.77249">
        <ele>362</ele>
        <time>2017-02-26T11:02:55.999Z</time>
      </trkpt>
      <trkpt lat="47.49188" lon="6.77255">
        <ele>362</ele>
        <time>2017-02-26T11:02:56.999Z</time>
      </trkpt>
      <trkpt lat="47.49187" lon="6.77261">
        <ele>361.1</ele>
        <time>2017-02-26T11:02:57.999Z</time>
      </trkpt>
      <trkpt lat="47.49187" lon="6.77268">
        <ele>360.8</ele>
        <time>2017-02-26T11:02:58.999Z</time>
      </trkpt>
      <trkpt lat="47.49186" lon="6.77274">
        <ele>360.3</ele>
        <time>2017-02-26T11:02:59.999Z</time>
      </trkpt>
      <trkpt lat="47.49186" lon="6.77281">
        <ele>360</ele>
        <time>2017-02-26T11:03:00.999Z</time>
      </trkpt>
      <trkpt lat="47.49185" lon="6.77287">
        <ele>359.8</ele>
        <time>2017-02-26T11:03:01.999Z</time>
      </trkpt>
      <trkpt lat="47.49185" lon="6.77294">
        <ele>359.6</ele>
        <time>2017-02-26T11:03:02.999Z</time>
      </trkpt>
      <trkpt lat="47.49185" lon="6.77301">
        <ele>359.3</ele>
        <time>2017-02-26T11:03:03.999Z</time>
      </trkpt>
      <trkpt lat="47.49185" lon="6.77306">
        <ele>358.9</ele>
        <time>2017-02-26T11:03:04.999Z</time>
      </trkpt>
      <trkpt lat="47.49185" lon="6.77314">
        <ele>358.5</ele>
        <time>2017-02-26T11:03:05.999Z</time>
      </trkpt>
      <trkpt lat="47.49184" lon="6.7732">
        <ele>358.3</ele>
        <time>2017-02-26T11:03:06.999Z</time>
      </trkpt>
      <trkpt lat="47.49184" lon="6.77326">
        <ele>358</ele>
        <time>2017-02-26T11:03:07.999Z</time>
      </trkpt>
      <trkpt lat="47.49188" lon="6.7733">
        <ele>356.6</ele>
        <time>2017-02-26T11:03:08.999Z</time>
      </trkpt>
      <trkpt lat="47.49191" lon="6.77333">
        <ele>356.6</ele>
        <time>2017-02-26T11:03:09.999Z</time>
      </trkpt>
      <trkpt lat="47.49194" lon="6.77335">
        <ele>356.6</ele>
        <time>2017-02-26T11:03:10.999Z</time>
      </trkpt>
      <trkpt lat="47.49197" lon="6.77338">
        <ele>356.7</ele>
        <time>2017-02-26T11:03:11.999Z</time>
      </trkpt>
      <trkpt lat="47.492" lon="6.77341">
        <ele>356.6</ele>
        <time>2017-02-26T11:03:12.999Z</time>
      </trkpt>
      <trkpt lat="47.49204" lon="6.77342">
        <ele>356.6</ele>
        <time>2017-02-26T11:03:13.999Z</time>
      </trkpt>
      <trkpt lat="47.49208" lon="6.77343">
        <ele>355.8</ele>
        <time>2017-02-26T11:03:14.999Z</time>
      </trkpt>
      <trkpt lat="47.49212" lon="6.77342">
        <ele>355.6</ele>
        <time>2017-02-26T11:03:15.999Z</time>
      </trkpt>
      <trkpt lat="47.49217" lon="6.77343">
        <ele>356.1</ele>
        <time>2017-02-26T11:03:16.999Z</time>
      </trkpt>
      <trkpt lat="47.49222" lon="6.77343">
        <ele>356.6</ele>
        <time>2017-02-26T11:03:17.999Z</time>
      </trkpt>
      <trkpt lat="47.49227" lon="6.77344">
        <ele>357.2</ele>
        <time>2017-02-26T11:03:18.999Z</time>
      </trkpt>
      <trkpt lat="47.49231" lon="6.77344">
        <ele>357.6</ele>
        <time>2017-02-26T11:03:19.999Z</time>
      </trkpt>
      <trkpt lat="47.49235" lon="6.77344">
        <ele>358.1</ele>
        <time>2017-02-26T11:03:20.999Z</time>
      </trkpt>
      <trkpt lat="47.49239" lon="6.77344">
        <ele>358.5</ele>
        <time>2017-02-26T11:03:21.999Z</time>
      </trkpt>
      <trkpt lat="47.49243" lon="6.77344">
        <ele>358.5</ele>
        <time>2017-02-26T11:03:22.999Z</time>
      </trkpt>
      <trkpt lat="47.49248" lon="6.77343">
        <ele>358.1</ele>
        <time>2017-02-26T11:03:23.999Z</time>
      </trkpt>
      <trkpt lat="47.49252" lon="6.77342">
        <ele>357.9</ele>
        <time>2017-02-26T11:03:24.999Z</time>
      </trkpt>
      <trkpt lat="47.49257" lon="6.77339">
        <ele>357.8</ele>
        <time>2017-02-26T11:03:25.999Z</time>
      </trkpt>
      <trkpt lat="47.49262" lon="6.77336">
        <ele>358.1</ele>
        <time>2017-02-26T11:03:26.999Z</time>
      </trkpt>
      <trkpt lat="47.49266" lon="6.77334">
        <ele>358.2</ele>
        <time>2017-02-26T11:03:27.999Z</time>
      </trkpt>
      <trkpt lat="47.49271" lon="6.77333">
        <ele>358.4</ele>
        <time>2017-02-26T11:03:28.999Z</time>
      </trkpt>
      <trkpt lat="47.49275" lon="6.77333">
        <ele>358.2</ele>
        <time>2017-02-26T11:03:29.999Z</time>
      </trkpt>
      <trkpt lat="47.49279" lon="6.77333">
        <ele>358.1</ele>
        <time>2017-02-26T11:03:30.999Z</time>
      </trkpt>
      <trkpt lat="47.49284" lon="6.77333">
        <ele>358.5</ele>
        <time>2017-02-26T11:03:31.999Z</time>
      </trkpt>
      <trkpt lat="47.49288" lon="6.77333">
        <ele>358.7</ele>
        <time>2017-02-26T11:03:32.999Z</time>
      </trkpt>
      <trkpt lat="47.49293" lon="6.77333">
        <ele>358.4</ele>
        <time>2017-02-26T11:03:33.999Z</time>
      </trkpt>
      <trkpt lat="47.49298" lon="6.77333">
        <ele>359.3</ele>
        <time>2017-02-26T11:03:34.999Z</time>
      </trkpt>
      <trkpt lat="47.49302" lon="6.77333">
        <ele>359.3</ele>
        <time>2017-02-26T11:03:35.999Z</time>
      </trkpt>
      <trkpt lat="47.49308" lon="6.77334">
        <ele>359.1</ele>
        <time>2017-02-26T11:03:36.999Z</time>
      </trkpt>
      <trkpt lat="47.49315" lon="6.77335">
        <ele>358.6</ele>
        <time>2017-02-26T11:03:37.999Z</time>
      </trkpt>
      <trkpt lat="47.49321" lon="6.77337">
        <ele>357.8</ele>
        <time>2017-02-26T11:03:38.999Z</time>
      </trkpt>
      <trkpt lat="47.49325" lon="6.77338">
        <ele>357.4</ele>
        <time>2017-02-26T11:03:39.999Z</time>
      </trkpt>
      <trkpt lat="47.4933" lon="6.7734">
        <ele>357</ele>
        <time>2017-02-26T11:03:40.999Z</time>
      </trkpt>
      <trkpt lat="47.49334" lon="6.77342">
        <ele>357</ele>
        <time>2017-02-26T11:03:41.999Z</time>
      </trkpt>
      <trkpt lat="47.49337" lon="6.77345">
        <ele>357.1</ele>
        <time>2017-02-26T11:03:42.999Z</time>
      </trkpt>
      <trkpt lat="47.4934" lon="6.77348">
        <ele>357.2</ele>
        <time>2017-02-26T11:03:43.999Z</time>
      </trkpt>
      <trkpt lat="47.49344" lon="6.7735">
        <ele>357.3</ele>
        <time>2017-02-26T11:03:44.999Z</time>
      </trkpt>
      <trkpt lat="47.49348" lon="6.77352">
        <ele>357.3</ele>
        <time>2017-02-26T11:03:45.999Z</time>
      </trkpt>
      <trkpt lat="47.49352" lon="6.77352">
        <ele>357.4</ele>
        <time>2017-02-26T11:03:46.999Z</time>
      </trkpt>
      <trkpt lat="47.49355" lon="6.77352">
        <ele>357.5</ele>
        <time>2017-02-26T11:03:47.999Z</time>
      </trkpt>
      <trkpt lat="47.49359" lon="6.77352">
        <ele>358.2</ele>
        <time>2017-02-26T11:03:48.999Z</time>
      </trkpt>
      <trkpt lat="47.49363" lon="6.77352">
        <ele>358.7</ele>
        <time>2017-02-26T11:03:49.999Z</time>
      </trkpt>
      <trkpt lat="47.49368" lon="6.77353">
        <ele>359</ele>
        <time>2017-02-26T11:03:50.999Z</time>
      </trkpt>
      <trkpt lat="47.49373" lon="6.77353">
        <ele>359.4</ele>
        <time>2017-02-26T11:03:51.999Z</time>
      </trkpt>
      <trkpt lat="47.49376" lon="6.77354">
        <ele>360.2</ele>
        <time>2017-02-26T11:03:52.999Z</time>
      </trkpt>
      <trkpt lat="47.4938" lon="6.77354">
        <ele>361.1</ele>
        <time>2017-02-26T11:03:53.999Z</time>
      </trkpt>
      <trkpt lat="47.49385" lon="6.77354">
        <ele>361.1</ele>
        <time>2017-02-26T11:03:54.999Z</time>
      </trkpt>
      <trkpt lat="47.4939" lon="6.77355">
        <ele>361.1</ele>
        <time>2017-02-26T11:03:55.999Z</time>
      </trkpt>
      <trkpt lat="47.49395" lon="6.77355">
        <ele>360.6</ele>
        <time>2017-02-26T11:03:56.999Z</time>
      </trkpt>
      <trkpt lat="47.49399" lon="6.77356">
        <ele>359.5</ele>
        <time>2017-02-26T11:03:57.999Z</time>
      </trkpt>
      <trkpt lat="47.49404" lon="6.77356">
        <ele>359.6</ele>
        <time>2017-02-26T11:03:58.999Z</time>
      </trkpt>
      <trkpt lat="47.49408" lon="6.77356">
        <ele>359.8</ele>
        <time>2017-02-26T11:03:59.999Z</time>
      </trkpt>
      <trkpt lat="47.49412" lon="6.77356">
        <ele>359.4</ele>
        <time>2017-02-26T11:04:00.999Z</time>
      </trkpt>
      <trkpt lat="47.49417" lon="6.77357">
        <ele>358.9</ele>
        <time>2017-02-26T11:04:01.999Z</time>
      </trkpt>
      <trkpt lat="47.49422" lon="6.77357">
        <ele>358.9</ele>
        <time>2017-02-26T11:04:02.999Z</time>
      </trkpt>
      <trkpt lat="47.49427" lon="6.77357">
        <ele>358.9</ele>
        <time>2017-02-26T11:04:03.999Z</time>
      </trkpt>
      <trkpt lat="47.49431" lon="6.77358">
        <ele>358.7</ele>
        <time>2017-02-26T11:04:04.999Z</time>
      </trkpt>
      <trkpt lat="47.49436" lon="6.77358">
        <ele>358.3</ele>
        <time>2017-02-26T11:04:05.999Z</time>
      </trkpt>
      <trkpt lat="47.4944" lon="6.77359">
        <ele>357.9</ele>
        <time>2017-02-26T11:04:06.999Z</time>
      </trkpt>
      <trkpt lat="47.49445" lon="6.77359">
        <ele>357.8</ele>
        <time>2017-02-26T11:04:07.999Z</time>
      </trkpt>
      <trkpt lat="47.49449" lon="6.7736">
        <ele>357.6</ele>
        <time>2017-02-26T11:04:08.999Z</time>
      </trkpt>
      <trkpt lat="47.49454" lon="6.7736">
        <ele>357.1</ele>
        <time>2017-02-26T11:04:09.999Z</time>
      </trkpt>
      <trkpt lat="47.49458" lon="6.77361">
        <ele>357</ele>
        <time>2017-02-26T11:04:10.999Z</time>
      </trkpt>
      <trkpt lat="47.49463" lon="6.77361">
        <ele>356.4</ele>
        <time>2017-02-26T11:04:11.999Z</time>
      </trkpt>
      <trkpt lat="47.49467" lon="6.77362">
        <ele>355.9</ele>
        <time>2017-02-26T11:04:12.999Z</time>
      </trkpt>
      <trkpt lat="47.49472" lon="6.77362">
        <ele>356.2</ele>
        <time>2017-02-26T11:04:13.999Z</time>
      </trkpt>
      <trkpt lat="47.49477" lon="6.77363">
        <ele>356</ele>
        <time>2017-02-26T11:04:14.999Z</time>
      </trkpt>
      <trkpt lat="47.49482" lon="6.77363">
        <ele>356.3</ele>
        <time>2017-02-26T11:04:15.999Z</time>
      </trkpt>
      <trkpt lat="47.49487" lon="6.77363">
        <ele>356.9</ele>
        <time>2017-02-26T11:04:16.999Z</time>
      </trkpt>
      <trkpt lat="47.49491" lon="6.77364">
        <ele>357.4</ele>
        <time>2017-02-26T11:04:17.999Z</time>
      </trkpt>
      <trkpt lat="47.49496" lon="6.77363">
        <ele>358</ele>
        <time>2017-02-26T11:04:18.999Z</time>
      </trkpt>
      <trkpt lat="47.495" lon="6.77364">
        <ele>358.5</ele>
        <time>2017-02-26T11:04:19.999Z</time>
      </trkpt>
      <trkpt lat="47.49505" lon="6.77364">
        <ele>358.9</ele>
        <time>2017-02-26T11:04:20.999Z</time>
      </trkpt>
      <trkpt lat="47.4951" lon="6.77365">
        <ele>359.3</ele>
        <time>2017-02-26T11:04:21.999Z</time>
      </trkpt>
      <trkpt lat="47.49515" lon="6.77365">
        <ele>359.4</ele>
        <time>2017-02-26T11:04:22.999Z</time>
      </trkpt>
      <trkpt lat="47.49521" lon="6.77365">
        <ele>359.9</ele>
        <time>2017-02-26T11:04:23.999Z</time>
      </trkpt>
      <trkpt lat="47.49526" lon="6.77365">
        <ele>360.6</ele>
        <time>2017-02-26T11:04:24.999Z</time>
      </trkpt>
      <trkpt lat="47.49531" lon="6.77366">
        <ele>361</ele>
        <time>2017-02-26T11:04:25.999Z</time>
      </trkpt>
      <trkpt lat="47.49535" lon="6.77366">
        <ele>361.3</ele>
        <time>2017-02-26T11:04:26.999Z</time>
      </trkpt>
      <trkpt lat="47.4954" lon="6.77366">
        <ele>361.2</ele>
        <time>2017-02-26T11:04:27.999Z</time>
      </trkpt>
      <trkpt lat="47.49545" lon="6.77367">
        <ele>360.6</ele>
        <time>2017-02-26T11:04:28.999Z</time>
      </trkpt>
      <trkpt lat="47.49549" lon="6.77367">
        <ele>360.3</ele>
        <time>2017-02-26T11:04:29.999Z</time>
      </trkpt>
      <trkpt lat="47.49554" lon="6.77367">
        <ele>360.7</ele>
        <time>2017-02-26T11:04:30.999Z</time>
      </trkpt>
      <trkpt lat="47.49558" lon="6.77367">
        <ele>361.1</ele>
        <time>2017-02-26T11:04:31.999Z</time>
      </trkpt>
      <trkpt lat="47.49563" lon="6.77368">
        <ele>360.5</ele>
        <time>2017-02-26T11:04:32.999Z</time>
      </trkpt>
      <trkpt lat="47.49568" lon="6.77368">
        <ele>359.8</ele>
        <time>2017-02-26T11:04:33.999Z</time>
      </trkpt>
      <trkpt lat="47.49573" lon="6.77368">
        <ele>358.9</ele>
        <time>2017-02-26T11:04:34.999Z</time>
      </trkpt>
      <trkpt lat="47.49577" lon="6.77368">
        <ele>358.7</ele>
        <time>2017-02-26T11:04:35.999Z</time>
      </trkpt>
      <trkpt lat="47.49582" lon="6.77368">
        <ele>358.4</ele>
        <time>2017-02-26T11:04:36.999Z</time>
      </trkpt>
      <trkpt lat="47.49588" lon="6.77368">
        <ele>358.4</ele>
        <time>2017-02-26T11:04:37.999Z</time>
      </trkpt>
      <trkpt lat="47.49593" lon="6.77368">
        <ele>358.3</ele>
        <time>2017-02-26T11:04:38.999Z</time>
      </trkpt>
      <trkpt lat="47.49598" lon="6.77367">
        <ele>358.4</ele>
        <time>2017-02-26T11:04:39.999Z</time>
      </trkpt>
      <trkpt lat="47.49602" lon="6.77366">
        <ele>358.6</ele>
        <time>2017-02-26T11:04:40.999Z</time>
      </trkpt>
      <trkpt lat="47.49607" lon="6.77365">
        <ele>359.2</ele>
        <time>2017-02-26T11:04:41.999Z</time>
      </trkpt>
      <trkpt lat="47.49611" lon="6.77364">
        <ele>359.1</ele>
        <time>2017-02-26T11:04:42.999Z</time>
      </trkpt>
      <trkpt lat="47.49616" lon="6.77364">
        <ele>359.1</ele>
        <time>2017-02-26T11:04:43.999Z</time>
      </trkpt>
      <trkpt lat="47.4962" lon="6.77363">
        <ele>359.3</ele>
        <time>2017-02-26T11:04:44.999Z</time>
      </trkpt>
      <trkpt lat="47.49625" lon="6.77361">
        <ele>359.1</ele>
        <time>2017-02-26T11:04:45.999Z</time>
      </trkpt>
      <trkpt lat="47.4963" lon="6.7736">
        <ele>359.4</ele>
        <time>2017-02-26T11:04:46.999Z</time>
      </trkpt>
      <trkpt lat="47.49635" lon="6.77358">
        <ele>360.2</ele>
        <time>2017-02-26T11:04:47.999Z</time>
      </trkpt>
      <trkpt lat="47.49639" lon="6.77357">
        <ele>361.2</ele>
        <time>2017-02-26T11:04:48.999Z</time>
      </trkpt>
      <trkpt lat="47.49644" lon="6.77356">
        <ele>361.7</ele>
        <time>2017-02-26T11:04:49.999Z</time>
      </trkpt>
      <trkpt lat="47.49648" lon="6.77355">
        <ele>361.8</ele>
        <time>2017-02-26T11:04:50.999Z</time>
      </trkpt>
      <trkpt lat="47.49652" lon="6.77354">
        <ele>361.6</ele>
        <time>2017-02-26T11:04:51.999Z</time>
      </trkpt>
      <trkpt lat="47.49657" lon="6.77353">
        <ele>361.7</ele>
        <time>2017-02-26T11:04:52.999Z</time>
      </trkpt>
      <trkpt lat="47.49662" lon="6.77351">
        <ele>361.8</ele>
        <time>2017-02-26T11:04:53.999Z</time>
      </trkpt>
      <trkpt lat="47.49667" lon="6.7735">
        <ele>361.4</ele>
        <time>2017-02-26T11:04:54.999Z</time>
      </trkpt>
      <trkpt lat="47.49671" lon="6.77348">
        <ele>361.2</ele>
        <time>2017-02-26T11:04:55.999Z</time>
      </trkpt>
      <trkpt lat="47.49675" lon="6.77347">
        <ele>360.8</ele>
        <time>2017-02-26T11:04:56.999Z</time>
      </trkpt>
      <trkpt lat="47.4968" lon="6.77345">
        <ele>360.3</ele>
        <time>2017-02-26T11:04:57.999Z</time>
      </trkpt>
      <trkpt lat="47.49684" lon="6.77344">
        <ele>359.3</ele>
        <time>2017-02-26T11:04:58.999Z</time>
      </trkpt>
      <trkpt lat="47.49687" lon="6.77343">
        <ele>358.1</ele>
        <time>2017-02-26T11:04:59.999Z</time>
      </trkpt>
      <trkpt lat="47.49691" lon="6.77342">
        <ele>358</ele>
        <time>2017-02-26T11:05:00.999Z</time>
      </trkpt>
      <trkpt lat="47.49695" lon="6.77341">
        <ele>357.4</ele>
        <time>2017-02-26T11:05:01.999Z</time>
      </trkpt>
      <trkpt lat="47.497" lon="6.7734">
        <ele>356.7</ele>
        <time>2017-02-26T11:05:02.999Z</time>
      </trkpt>
      <trkpt lat="47.49704" lon="6.77339">
        <ele>356.1</ele>
        <time>2017-02-26T11:05:03.999Z</time>
      </trkpt>
      <trkpt lat="47.49709" lon="6.77338">
        <ele>355.8</ele>
        <time>2017-02-26T11:05:04.999Z</time>
      </trkpt>
      <trkpt lat="47.49713" lon="6.77337">
        <ele>355.2</ele>
        <time>2017-02-26T11:05:05.999Z</time>
      </trkpt>
      <trkpt lat="47.49715" lon="6.77337">
        <ele>355.1</ele>
        <time>2017-02-26T11:05:06.999Z</time>
      </trkpt>
      <trkpt lat="47.49718" lon="6.77336">
        <ele>355.1</ele>
        <time>2017-02-26T11:05:07.999Z</time>
      </trkpt>
      <trkpt lat="47.49722" lon="6.77335">
        <ele>354.3</ele>
        <time>2017-02-26T11:05:08.999Z</time>
      </trkpt>
      <trkpt lat="47.49725" lon="6.77333">
        <ele>353.3</ele>
        <time>2017-02-26T11:05:09.999Z</time>
      </trkpt>
      <trkpt lat="47.49729" lon="6.7733">
        <ele>353.3</ele>
        <time>2017-02-26T11:05:10.999Z</time>
      </trkpt>
      <trkpt lat="47.49731" lon="6.77327">
        <ele>352.5</ele>
        <time>2017-02-26T11:05:11.999Z</time>
      </trkpt>
      <trkpt lat="47.49734" lon="6.77324">
        <ele>352.3</ele>
        <time>2017-02-26T11:05:12.999Z</time>
      </trkpt>
      <trkpt lat="47.49737" lon="6.77322">
        <ele>352</ele>
        <time>2017-02-26T11:05:13.999Z</time>
      </trkpt>
      <trkpt lat="47.4974" lon="6.77319">
        <ele>351.9</ele>
        <time>2017-02-26T11:05:14.999Z</time>
      </trkpt>
      <trkpt lat="47.49743" lon="6.77318">
        <ele>351</ele>
        <time>2017-02-26T11:05:15.999Z</time>
      </trkpt>
      <trkpt lat="47.49747" lon="6.77316">
        <ele>350.9</ele>
        <time>2017-02-26T11:05:16.999Z</time>
      </trkpt>
      <trkpt lat="47.4975" lon="6.77315">
        <ele>350.8</ele>
        <time>2017-02-26T11:05:17.999Z</time>
      </trkpt>
      <trkpt lat="47.49755" lon="6.77314">
        <ele>350.7</ele>
        <time>2017-02-26T11:05:18.999Z</time>
      </trkpt>
      <trkpt lat="47.49759" lon="6.77314">
        <ele>349.8</ele>
        <time>2017-02-26T11:05:19.999Z</time>
      </trkpt>
      <trkpt lat="47.49766" lon="6.77314">
        <ele>349.5</ele>
        <time>2017-02-26T11:05:20.999Z</time>
      </trkpt>
      <trkpt lat="47.49773" lon="6.77314">
        <ele>349.3</ele>
        <time>2017-02-26T11:05:21.999Z</time>
      </trkpt>
      <trkpt lat="47.49778" lon="6.77313">
        <ele>349.3</ele>
        <time>2017-02-26T11:05:22.999Z</time>
      </trkpt>
      <trkpt lat="47.49785" lon="6.77313">
        <ele>349.7</ele>
        <time>2017-02-26T11:05:23.999Z</time>
      </trkpt>
      <trkpt lat="47.49791" lon="6.77311">
        <ele>349.3</ele>
        <time>2017-02-26T11:05:24.999Z</time>
      </trkpt>
      <trkpt lat="47.49796" lon="6.7731">
        <ele>348.9</ele>
        <time>2017-02-26T11:05:25.999Z</time>
      </trkpt>
      <trkpt lat="47.49801" lon="6.77309">
        <ele>349.1</ele>
        <time>2017-02-26T11:05:26.999Z</time>
      </trkpt>
      <trkpt lat="47.49805" lon="6.77308">
        <ele>349.6</ele>
        <time>2017-02-26T11:05:27.999Z</time>
      </trkpt>
      <trkpt lat="47.4981" lon="6.77307">
        <ele>350</ele>
        <time>2017-02-26T11:05:28.999Z</time>
      </trkpt>
      <trkpt lat="47.49814" lon="6.77306">
        <ele>349.9</ele>
        <time>2017-02-26T11:05:29.999Z</time>
      </trkpt>
      <trkpt lat="47.49818" lon="6.77306">
        <ele>349.9</ele>
        <time>2017-02-26T11:05:30.999Z</time>
      </trkpt>
      <trkpt lat="47.49821" lon="6.77306">
        <ele>349.9</ele>
        <time>2017-02-26T11:05:31.999Z</time>
      </trkpt>
      <trkpt lat="47.49825" lon="6.77305">
        <ele>349.9</ele>
        <time>2017-02-26T11:05:32.999Z</time>
      </trkpt>
      <trkpt lat="47.49828" lon="6.77305">
        <ele>349.9</ele>
        <time>2017-02-26T11:05:33.999Z</time>
      </trkpt>
      <trkpt lat="47.49832" lon="6.77306">
        <ele>349.8</ele>
        <time>2017-02-26T11:05:34.999Z</time>
      </trkpt>
      <trkpt lat="47.49837" lon="6.77306">
        <ele>349</ele>
        <time>2017-02-26T11:05:35.999Z</time>
      </trkpt>
      <trkpt lat="47.49842" lon="6.77307">
        <ele>348.4</ele>
        <time>2017-02-26T11:05:36.999Z</time>
      </trkpt>
      <trkpt lat="47.49848" lon="6.77307">
        <ele>347.4</ele>
        <time>2017-02-26T11:05:37.999Z</time>
      </trkpt>
      <trkpt lat="47.49854" lon="6.77307">
        <ele>347.3</ele>
        <time>2017-02-26T11:05:38.999Z</time>
      </trkpt>
      <trkpt lat="47.49859" lon="6.77307">
        <ele>347.2</ele>
        <time>2017-02-26T11:05:39.999Z</time>
      </trkpt>
      <trkpt lat="47.49862" lon="6.77307">
        <ele>347.2</ele>
        <time>2017-02-26T11:05:40.999Z</time>
      </trkpt>
      <trkpt lat="47.49865" lon="6.77307">
        <ele>347.2</ele>
        <time>2017-02-26T11:05:41.999Z</time>
      </trkpt>
      <trkpt lat="47.49868" lon="6.77306">
        <ele>347.1</ele>
        <time>2017-02-26T11:05:42.999Z</time>
      </trkpt>
      <trkpt lat="47.49872" lon="6.77305">
        <ele>346.9</ele>
        <time>2017-02-26T11:05:43.999Z</time>
      </trkpt>
      <trkpt lat="47.49877" lon="6.77304">
        <ele>346.8</ele>
        <time>2017-02-26T11:05:44.999Z</time>
      </trkpt>
      <trkpt lat="47.49881" lon="6.77302">
        <ele>346.7</ele>
        <time>2017-02-26T11:05:45.999Z</time>
      </trkpt>
      <trkpt lat="47.49884" lon="6.773">
        <ele>346.6</ele>
        <time>2017-02-26T11:05:46.999Z</time>
      </trkpt>
      <trkpt lat="47.49888" lon="6.77299">
        <ele>346.4</ele>
        <time>2017-02-26T11:05:47.999Z</time>
      </trkpt>
      <trkpt lat="47.49892" lon="6.77297">
        <ele>346.2</ele>
        <time>2017-02-26T11:05:48.999Z</time>
      </trkpt>
      <trkpt lat="47.49896" lon="6.77294">
        <ele>345.9</ele>
        <time>2017-02-26T11:05:49.999Z</time>
      </trkpt>
      <trkpt lat="47.49899" lon="6.77292">
        <ele>345.5</ele>
        <time>2017-02-26T11:05:50.999Z</time>
      </trkpt>
      <trkpt lat="47.49903" lon="6.77289">
        <ele>345.1</ele>
        <time>2017-02-26T11:05:51.999Z</time>
      </trkpt>
      <trkpt lat="47.49906" lon="6.77286">
        <ele>344.7</ele>
        <time>2017-02-26T11:05:52.999Z</time>
      </trkpt>
      <trkpt lat="47.4991" lon="6.77283">
        <ele>340.5</ele>
        <time>2017-02-26T11:05:53.999Z</time>
      </trkpt>
      <trkpt lat="47.49915" lon="6.7728">
        <ele>337.7</ele>
        <time>2017-02-26T11:05:54.999Z</time>
      </trkpt>
      <trkpt lat="47.49919" lon="6.77277">
        <ele>335.6</ele>
        <time>2017-02-26T11:05:55.999Z</time>
      </trkpt>
      <trkpt lat="47.49923" lon="6.77274">
        <ele>332.5</ele>
        <time>2017-02-26T11:05:56.999Z</time>
      </trkpt>
      <trkpt lat="47.49926" lon="6.77272">
        <ele>330.6</ele>
        <time>2017-02-26T11:05:57.999Z</time>
      </trkpt>
      <trkpt lat="47.49928" lon="6.7727">
        <ele>330.4</ele>
        <time>2017-02-26T11:05:58.999Z</time>
      </trkpt>
      <trkpt lat="47.49932" lon="6.77268">
        <ele>328.2</ele>
        <time>2017-02-26T11:05:59.999Z</time>
      </trkpt>
      <trkpt lat="47.49935" lon="6.77265">
        <ele>326.9</ele>
        <time>2017-02-26T11:06:00.999Z</time>
      </trkpt>
      <trkpt lat="47.49938" lon="6.77263">
        <ele>326.7</ele>
        <time>2017-02-26T11:06:01.999Z</time>
      </trkpt>
      <trkpt lat="47.49941" lon="6.77261">
        <ele>326.6</ele>
        <time>2017-02-26T11:06:02.999Z</time>
      </trkpt>
      <trkpt lat="47.49946" lon="6.77259">
        <ele>323.6</ele>
        <time>2017-02-26T11:06:03.999Z</time>
      </trkpt>
      <trkpt lat="47.4995" lon="6.77257">
        <ele>321.2</ele>
        <time>2017-02-26T11:06:04.999Z</time>
      </trkpt>
      <trkpt lat="47.49952" lon="6.77255">
        <ele>320.9</ele>
        <time>2017-02-26T11:06:05.999Z</time>
      </trkpt>
      <trkpt lat="47.49957" lon="6.77252">
        <ele>317.7</ele>
        <time>2017-02-26T11:06:06.999Z</time>
      </trkpt>
      <trkpt lat="47.49961" lon="6.7725">
        <ele>315.3</ele>
        <time>2017-02-26T11:06:07.999Z</time>
      </trkpt>
      <trkpt lat="47.49967" lon="6.77247">
        <ele>315.3</ele>
        <time>2017-02-26T11:06:08.999Z</time>
      </trkpt>
      <trkpt lat="47.49972" lon="6.77244">
        <ele>315.5</ele>
        <time>2017-02-26T11:06:09.999Z</time>
      </trkpt>
      <trkpt lat="47.49979" lon="6.77243">
        <ele>315.8</ele>
        <time>2017-02-26T11:06:10.999Z</time>
      </trkpt>
      <trkpt lat="47.49986" lon="6.77241">
        <ele>316.3</ele>
        <time>2017-02-26T11:06:11.999Z</time>
      </trkpt>
      <trkpt lat="47.49991" lon="6.77238">
        <ele>316.8</ele>
        <time>2017-02-26T11:06:12.999Z</time>
      </trkpt>
      <trkpt lat="47.49996" lon="6.77236">
        <ele>317.3</ele>
        <time>2017-02-26T11:06:13.999Z</time>
      </trkpt>
      <trkpt lat="47.50001" lon="6.77234">
        <ele>317.9</ele>
        <time>2017-02-26T11:06:14.999Z</time>
      </trkpt>
      <trkpt lat="47.50005" lon="6.77232">
        <ele>318.4</ele>
        <time>2017-02-26T11:06:15.999Z</time>
      </trkpt>
      <trkpt lat="47.5001" lon="6.7723">
        <ele>319.1</ele>
        <time>2017-02-26T11:06:16.999Z</time>
      </trkpt>
      <trkpt lat="47.50015" lon="6.77229">
        <ele>319.8</ele>
        <time>2017-02-26T11:06:17.999Z</time>
      </trkpt>
      <trkpt lat="47.50021" lon="6.77228">
        <ele>320.5</ele>
        <time>2017-02-26T11:06:18.999Z</time>
      </trkpt>
      <trkpt lat="47.50027" lon="6.77225">
        <ele>321.3</ele>
        <time>2017-02-26T11:06:19.999Z</time>
      </trkpt>
      <trkpt lat="47.50033" lon="6.77223">
        <ele>322</ele>
        <time>2017-02-26T11:06:20.999Z</time>
      </trkpt>
      <trkpt lat="47.50039" lon="6.77221">
        <ele>322.7</ele>
        <time>2017-02-26T11:06:21.999Z</time>
      </trkpt>
      <trkpt lat="47.50045" lon="6.77218">
        <ele>330.8</ele>
        <time>2017-02-26T11:06:22.999Z</time>
      </trkpt>
      <trkpt lat="47.50051" lon="6.77216">
        <ele>336.5</ele>
        <time>2017-02-26T11:06:23.999Z</time>
      </trkpt>
      <trkpt lat="47.50057" lon="6.77214">
        <ele>341.8</ele>
        <time>2017-02-26T11:06:24.999Z</time>
      </trkpt>
      <trkpt lat="47.50062" lon="6.77214">
        <ele>345.5</ele>
        <time>2017-02-26T11:06:25.999Z</time>
      </trkpt>
      <trkpt lat="47.50067" lon="6.77213">
        <ele>347.9</ele>
        <time>2017-02-26T11:06:26.999Z</time>
      </trkpt>
      <trkpt lat="47.50072" lon="6.77212">
        <ele>350</ele>
        <time>2017-02-26T11:06:27.999Z</time>
      </trkpt>
      <trkpt lat="47.50077" lon="6.7721">
        <ele>351.4</ele>
        <time>2017-02-26T11:06:28.999Z</time>
      </trkpt>
      <trkpt lat="47.50082" lon="6.77208">
        <ele>352.9</ele>
        <time>2017-02-26T11:06:29.999Z</time>
      </trkpt>
      <trkpt lat="47.50086" lon="6.77206">
        <ele>354.1</ele>
        <time>2017-02-26T11:06:30.999Z</time>
      </trkpt>
      <trkpt lat="47.50092" lon="6.77204">
        <ele>354.6</ele>
        <time>2017-02-26T11:06:31.999Z</time>
      </trkpt>
      <trkpt lat="47.50097" lon="6.77202">
        <ele>355.5</ele>
        <time>2017-02-26T11:06:32.999Z</time>
      </trkpt>
      <trkpt lat="47.50101" lon="6.77202">
        <ele>356</ele>
        <time>2017-02-26T11:06:33.999Z</time>
      </trkpt>
      <trkpt lat="47.50107" lon="6.77203">
        <ele>356.8</ele>
        <time>2017-02-26T11:06:34.999Z</time>
      </trkpt>
      <trkpt lat="47.50113" lon="6.77204">
        <ele>356.7</ele>
        <time>2017-02-26T11:06:35.999Z</time>
      </trkpt>
      <trkpt lat="47.50119" lon="6.77205">
        <ele>356.5</ele>
        <time>2017-02-26T11:06:36.999Z</time>
      </trkpt>
      <trkpt lat="47.50125" lon="6.77206">
        <ele>355.7</ele>
        <time>2017-02-26T11:06:37.999Z</time>
      </trkpt>
      <trkpt lat="47.50131" lon="6.77208">
        <ele>354.8</ele>
        <time>2017-02-26T11:06:38.999Z</time>
      </trkpt>
      <trkpt lat="47.50137" lon="6.7721">
        <ele>354.5</ele>
        <time>2017-02-26T11:06:39.999Z</time>
      </trkpt>
      <trkpt lat="47.50142" lon="6.77212">
        <ele>354.9</ele>
        <time>2017-02-26T11:06:40.999Z</time>
      </trkpt>
      <trkpt lat="47.50147" lon="6.77215">
        <ele>355.1</ele>
        <time>2017-02-26T11:06:41.999Z</time>
      </trkpt>
      <trkpt lat="47.50153" lon="6.7722">
        <ele>355.9</ele>
        <time>2017-02-26T11:06:42.999Z</time>
      </trkpt>
      <trkpt lat="47.50158" lon="6.77225">
        <ele>357.3</ele>
        <time>2017-02-26T11:06:43.999Z</time>
      </trkpt>
      <trkpt lat="47.50163" lon="6.77228">
        <ele>357.7</ele>
        <time>2017-02-26T11:06:44.999Z</time>
      </trkpt>
      <trkpt lat="47.50167" lon="6.77231">
        <ele>357.9</ele>
        <time>2017-02-26T11:06:45.999Z</time>
      </trkpt>
      <trkpt lat="47.50171" lon="6.77236">
        <ele>357.7</ele>
        <time>2017-02-26T11:06:46.999Z</time>
      </trkpt>
      <trkpt lat="47.50176" lon="6.77239">
        <ele>356.7</ele>
        <time>2017-02-26T11:06:47.999Z</time>
      </trkpt>
      <trkpt lat="47.5018" lon="6.77243">
        <ele>355.4</ele>
        <time>2017-02-26T11:06:48.999Z</time>
      </trkpt>
      <trkpt lat="47.50184" lon="6.77248">
        <ele>354.9</ele>
        <time>2017-02-26T11:06:49.999Z</time>
      </trkpt>
      <trkpt lat="47.50189" lon="6.77253">
        <ele>354.3</ele>
        <time>2017-02-26T11:06:50.999Z</time>
      </trkpt>
      <trkpt lat="47.50194" lon="6.77259">
        <ele>353.7</ele>
        <time>2017-02-26T11:06:51.999Z</time>
      </trkpt>
      <trkpt lat="47.50199" lon="6.77264">
        <ele>354</ele>
        <time>2017-02-26T11:06:52.999Z</time>
      </trkpt>
      <trkpt lat="47.50203" lon="6.77269">
        <ele>355.4</ele>
        <time>2017-02-26T11:06:53.999Z</time>
      </trkpt>
      <trkpt lat="47.50207" lon="6.77272">
        <ele>356.3</ele>
        <time>2017-02-26T11:06:54.999Z</time>
      </trkpt>
      <trkpt lat="47.50211" lon="6.77276">
        <ele>356.1</ele>
        <time>2017-02-26T11:06:55.999Z</time>
      </trkpt>
      <trkpt lat="47.50216" lon="6.77278">
        <ele>356.8</ele>
        <time>2017-02-26T11:06:56.999Z</time>
      </trkpt>
      <trkpt lat="47.5022" lon="6.77281">
        <ele>357.5</ele>
        <time>2017-02-26T11:06:57.999Z</time>
      </trkpt>
      <trkpt lat="47.50225" lon="6.77284">
        <ele>358</ele>
        <time>2017-02-26T11:06:58.999Z</time>
      </trkpt>
      <trkpt lat="47.5023" lon="6.77286">
        <ele>356.9</ele>
        <time>2017-02-26T11:06:59.999Z</time>
      </trkpt>
      <trkpt lat="47.50236" lon="6.77289">
        <ele>355.3</ele>
        <time>2017-02-26T11:07:00.999Z</time>
      </trkpt>
      <trkpt lat="47.5024" lon="6.77292">
        <ele>354.9</ele>
        <time>2017-02-26T11:07:01.999Z</time>
      </trkpt>
      <trkpt lat="47.50245" lon="6.77294">
        <ele>354.6</ele>
        <time>2017-02-26T11:07:02.999Z</time>
      </trkpt>
      <trkpt lat="47.5025" lon="6.77297">
        <ele>355.1</ele>
        <time>2017-02-26T11:07:03.999Z</time>
      </trkpt>
      <trkpt lat="47.50253" lon="6.77299">
        <ele>355.4</ele>
        <time>2017-02-26T11:07:04.999Z</time>
      </trkpt>
      <trkpt lat="47.50255" lon="6.77301">
        <ele>355.6</ele>
        <time>2017-02-26T11:07:05.999Z</time>
      </trkpt>
      <trkpt lat="47.50258" lon="6.77303">
        <ele>355.3</ele>
        <time>2017-02-26T11:07:06.999Z</time>
      </trkpt>
      <trkpt lat="47.50262" lon="6.77307">
        <ele>355.1</ele>
        <time>2017-02-26T11:07:07.999Z</time>
      </trkpt>
      <trkpt lat="47.50267" lon="6.7731">
        <ele>355.5</ele>
        <time>2017-02-26T11:07:08.999Z</time>
      </trkpt>
      <trkpt lat="47.50271" lon="6.77313">
        <ele>355.8</ele>
        <time>2017-02-26T11:07:09.999Z</time>
      </trkpt>
      <trkpt lat="47.50276" lon="6.77316">
        <ele>355.7</ele>
        <time>2017-02-26T11:07:10.999Z</time>
      </trkpt>
      <trkpt lat="47.50279" lon="6.77318">
        <ele>356.1</ele>
        <time>2017-02-26T11:07:11.999Z</time>
      </trkpt>
      <trkpt lat="47.50283" lon="6.77321">
        <ele>356.3</ele>
        <time>2017-02-26T11:07:12.999Z</time>
      </trkpt>
      <trkpt lat="47.50288" lon="6.77323">
        <ele>356.6</ele>
        <time>2017-02-26T11:07:13.999Z</time>
      </trkpt>
      <trkpt lat="47.50293" lon="6.77326">
        <ele>357.4</ele>
        <time>2017-02-26T11:07:14.999Z</time>
      </trkpt>
      <trkpt lat="47.50298" lon="6.77329">
        <ele>357.6</ele>
        <time>2017-02-26T11:07:15.999Z</time>
      </trkpt>
      <trkpt lat="47.50302" lon="6.77333">
        <ele>357.8</ele>
        <time>2017-02-26T11:07:16.999Z</time>
      </trkpt>
      <trkpt lat="47.50306" lon="6.77337">
        <ele>358.1</ele>
        <time>2017-02-26T11:07:17.999Z</time>
      </trkpt>
      <trkpt lat="47.50311" lon="6.77341">
        <ele>358.4</ele>
        <time>2017-02-26T11:07:18.999Z</time>
      </trkpt>
      <trkpt lat="47.50316" lon="6.77345">
        <ele>358.6</ele>
        <time>2017-02-26T11:07:19.999Z</time>
      </trkpt>
      <trkpt lat="47.50321" lon="6.77349">
        <ele>358.1</ele>
        <time>2017-02-26T11:07:20.999Z</time>
      </trkpt>
      <trkpt lat="47.50325" lon="6.77353">
        <ele>358.4</ele>
        <time>2017-02-26T11:07:21.999Z</time>
      </trkpt>
      <trkpt lat="47.50329" lon="6.77357">
        <ele>359.1</ele>
        <time>2017-02-26T11:07:22.999Z</time>
      </trkpt>
      <trkpt lat="47.50334" lon="6.77361">
        <ele>360</ele>
        <time>2017-02-26T11:07:23.999Z</time>
      </trkpt>
      <trkpt lat="47.50339" lon="6.77366">
        <ele>361.1</ele>
        <time>2017-02-26T11:07:24.999Z</time>
      </trkpt>
      <trkpt lat="47.50344" lon="6.7737">
        <ele>361.5</ele>
        <time>2017-02-26T11:07:25.999Z</time>
      </trkpt>
      <trkpt lat="47.50349" lon="6.77373">
        <ele>362.1</ele>
        <time>2017-02-26T11:07:26.999Z</time>
      </trkpt>
      <trkpt lat="47.50353" lon="6.77377">
        <ele>361.9</ele>
        <time>2017-02-26T11:07:27.999Z</time>
      </trkpt>
      <trkpt lat="47.50358" lon="6.77381">
        <ele>362</ele>
        <time>2017-02-26T11:07:28.999Z</time>
      </trkpt>
      <trkpt lat="47.50362" lon="6.77384">
        <ele>362.2</ele>
        <time>2017-02-26T11:07:29.999Z</time>
      </trkpt>
      <trkpt lat="47.50366" lon="6.77388">
        <ele>362.7</ele>
        <time>2017-02-26T11:07:30.999Z</time>
      </trkpt>
      <trkpt lat="47.5037" lon="6.77392">
        <ele>362.2</ele>
        <time>2017-02-26T11:07:31.999Z</time>
      </trkpt>
      <trkpt lat="47.50375" lon="6.77396">
        <ele>361.8</ele>
        <time>2017-02-26T11:07:32.999Z</time>
      </trkpt>
      <trkpt lat="47.5038" lon="6.774">
        <ele>361.6</ele>
        <time>2017-02-26T11:07:33.999Z</time>
      </trkpt>
      <trkpt lat="47.50385" lon="6.77404">
        <ele>361.2</ele>
        <time>2017-02-26T11:07:34.999Z</time>
      </trkpt>
      <trkpt lat="47.50388" lon="6.77408">
        <ele>360.9</ele>
        <time>2017-02-26T11:07:35.999Z</time>
      </trkpt>
      <trkpt lat="47.50392" lon="6.77411">
        <ele>361.2</ele>
        <time>2017-02-26T11:07:36.999Z</time>
      </trkpt>
      <trkpt lat="47.50396" lon="6.77414">
        <ele>362</ele>
        <time>2017-02-26T11:07:37.999Z</time>
      </trkpt>
      <trkpt lat="47.504" lon="6.77418">
        <ele>362.5</ele>
        <time>2017-02-26T11:07:38.999Z</time>
      </trkpt>
      <trkpt lat="47.50403" lon="6.77421">
        <ele>362.8</ele>
        <time>2017-02-26T11:07:39.999Z</time>
      </trkpt>
      <trkpt lat="47.50408" lon="6.77425">
        <ele>362.5</ele>
        <time>2017-02-26T11:07:40.999Z</time>
      </trkpt>
      <trkpt lat="47.50413" lon="6.77429">
        <ele>362.8</ele>
        <time>2017-02-26T11:07:41.999Z</time>
      </trkpt>
      <trkpt lat="47.50417" lon="6.77434">
        <ele>362.8</ele>
        <time>2017-02-26T11:07:42.999Z</time>
      </trkpt>
      <trkpt lat="47.50422" lon="6.77438">
        <ele>363</ele>
        <time>2017-02-26T11:07:43.999Z</time>
      </trkpt>
      <trkpt lat="47.50426" lon="6.77441">
        <ele>362.9</ele>
        <time>2017-02-26T11:07:44.999Z</time>
      </trkpt>
      <trkpt lat="47.50431" lon="6.77445">
        <ele>362.7</ele>
        <time>2017-02-26T11:07:45.999Z</time>
      </trkpt>
      <trkpt lat="47.50435" lon="6.77448">
        <ele>362.7</ele>
        <time>2017-02-26T11:07:46.999Z</time>
      </trkpt>
      <trkpt lat="47.50439" lon="6.77452">
        <ele>362.8</ele>
        <time>2017-02-26T11:07:47.999Z</time>
      </trkpt>
      <trkpt lat="47.50443" lon="6.77455">
        <ele>362.9</ele>
        <time>2017-02-26T11:07:48.999Z</time>
      </trkpt>
      <trkpt lat="47.50447" lon="6.77459">
        <ele>362.9</ele>
        <time>2017-02-26T11:07:49.999Z</time>
      </trkpt>
      <trkpt lat="47.50453" lon="6.77464">
        <ele>363.4</ele>
        <time>2017-02-26T11:07:50.999Z</time>
      </trkpt>
      <trkpt lat="47.50457" lon="6.77468">
        <ele>364</ele>
        <time>2017-02-26T11:07:51.999Z</time>
      </trkpt>
      <trkpt lat="47.50462" lon="6.77472">
        <ele>365.2</ele>
        <time>2017-02-26T11:07:52.999Z</time>
      </trkpt>
      <trkpt lat="47.50466" lon="6.77476">
        <ele>366</ele>
        <time>2017-02-26T11:07:53.999Z</time>
      </trkpt>
      <trkpt lat="47.50469" lon="6.77479">
        <ele>366.4</ele>
        <time>2017-02-26T11:07:54.999Z</time>
      </trkpt>
      <trkpt lat="47.50473" lon="6.77482">
        <ele>366.5</ele>
        <time>2017-02-26T11:07:55.999Z</time>
      </trkpt>
      <trkpt lat="47.50476" lon="6.77484">
        <ele>366.8</ele>
        <time>2017-02-26T11:07:56.999Z</time>
      </trkpt>
      <trkpt lat="47.50479" lon="6.77487">
        <ele>366.7</ele>
        <time>2017-02-26T11:07:57.999Z</time>
      </trkpt>
      <trkpt lat="47.50483" lon="6.77491">
        <ele>366</ele>
        <time>2017-02-26T11:07:58.999Z</time>
      </trkpt>
      <trkpt lat="47.50487" lon="6.77494">
        <ele>366</ele>
        <time>2017-02-26T11:07:59.999Z</time>
      </trkpt>
      <trkpt lat="47.50492" lon="6.77498">
        <ele>366.1</ele>
        <time>2017-02-26T11:08:00.999Z</time>
      </trkpt>
      <trkpt lat="47.50496" lon="6.77501">
        <ele>365.7</ele>
        <time>2017-02-26T11:08:01.999Z</time>
      </trkpt>
      <trkpt lat="47.50502" lon="6.77505">
        <ele>365.5</ele>
        <time>2017-02-26T11:08:02.999Z</time>
      </trkpt>
      <trkpt lat="47.50507" lon="6.77507">
        <ele>365.9</ele>
        <time>2017-02-26T11:08:03.999Z</time>
      </trkpt>
      <trkpt lat="47.5051" lon="6.7751">
        <ele>366.3</ele>
        <time>2017-02-26T11:08:04.999Z</time>
      </trkpt>
      <trkpt lat="47.50515" lon="6.77513">
        <ele>366.6</ele>
        <time>2017-02-26T11:08:05.999Z</time>
      </trkpt>
      <trkpt lat="47.5052" lon="6.77516">
        <ele>366.6</ele>
        <time>2017-02-26T11:08:06.999Z</time>
      </trkpt>
      <trkpt lat="47.50526" lon="6.77519">
        <ele>366.7</ele>
        <time>2017-02-26T11:08:07.999Z</time>
      </trkpt>
      <trkpt lat="47.50529" lon="6.77521">
        <ele>367</ele>
        <time>2017-02-26T11:08:08.999Z</time>
      </trkpt>
      <trkpt lat="47.50533" lon="6.77522">
        <ele>366.8</ele>
        <time>2017-02-26T11:08:09.999Z</time>
      </trkpt>
      <trkpt lat="47.50538" lon="6.77525">
        <ele>366.5</ele>
        <time>2017-02-26T11:08:10.999Z</time>
      </trkpt>
      <trkpt lat="47.50542" lon="6.77527">
        <ele>366.2</ele>
        <time>2017-02-26T11:08:11.999Z</time>
      </trkpt>
      <trkpt lat="47.50547" lon="6.7753">
        <ele>365.8</ele>
        <time>2017-02-26T11:08:12.999Z</time>
      </trkpt>
      <trkpt lat="47.50551" lon="6.77535">
        <ele>365.3</ele>
        <time>2017-02-26T11:08:13.999Z</time>
      </trkpt>
      <trkpt lat="47.50555" lon="6.77539">
        <ele>364.8</ele>
        <time>2017-02-26T11:08:14.999Z</time>
      </trkpt>
      <trkpt lat="47.50556" lon="6.77543">
        <ele>364.8</ele>
        <time>2017-02-26T11:08:15.999Z</time>
      </trkpt>
      <trkpt lat="47.50559" lon="6.77548">
        <ele>364.7</ele>
        <time>2017-02-26T11:08:16.999Z</time>
      </trkpt>
      <trkpt lat="47.50563" lon="6.77555">
        <ele>364.7</ele>
        <time>2017-02-26T11:08:17.999Z</time>
      </trkpt>
      <trkpt lat="47.50567" lon="6.77557">
        <ele>364.6</ele>
        <time>2017-02-26T11:08:18.999Z</time>
      </trkpt>
      <trkpt lat="47.5057" lon="6.77557">
        <ele>364.5</ele>
        <time>2017-02-26T11:08:19.999Z</time>
      </trkpt>
      <trkpt lat="47.50574" lon="6.77558">
        <ele>364.4</ele>
        <time>2017-02-26T11:08:20.999Z</time>
      </trkpt>
      <trkpt lat="47.50577" lon="6.77558">
        <ele>364.4</ele>
        <time>2017-02-26T11:08:21.999Z</time>
      </trkpt>
      <trkpt lat="47.50581" lon="6.77557">
        <ele>363.5</ele>
        <time>2017-02-26T11:08:22.999Z</time>
      </trkpt>
      <trkpt lat="47.50583" lon="6.77554">
        <ele>363.5</ele>
        <time>2017-02-26T11:08:23.999Z</time>
      </trkpt>
      <trkpt lat="47.50586" lon="6.77546">
        <ele>363.5</ele>
        <time>2017-02-26T11:08:24.999Z</time>
      </trkpt>
      <trkpt lat="47.50588" lon="6.77541">
        <ele>363.5</ele>
        <time>2017-02-26T11:08:25.999Z</time>
      </trkpt>
      <trkpt lat="47.50591" lon="6.77539">
        <ele>363.5</ele>
        <time>2017-02-26T11:08:26.999Z</time>
      </trkpt>
      <trkpt lat="47.50594" lon="6.77538">
        <ele>363.5</ele>
        <time>2017-02-26T11:08:27.999Z</time>
      </trkpt>
      <trkpt lat="47.50596" lon="6.77537">
        <ele>363.5</ele>
        <time>2017-02-26T11:08:28.999Z</time>
      </trkpt>
      <trkpt lat="47.50599" lon="6.77535">
        <ele>363.4</ele>
        <time>2017-02-26T11:08:29.999Z</time>
      </trkpt>
      <trkpt lat="47.50602" lon="6.77533">
        <ele>362</ele>
        <time>2017-02-26T11:08:30.999Z</time>
      </trkpt>
      <trkpt lat="47.50606" lon="6.77534">
        <ele>361.8</ele>
        <time>2017-02-26T11:08:31.999Z</time>
      </trkpt>
      <trkpt lat="47.50607" lon="6.77534">
        <ele>361.5</ele>
        <time>2017-02-26T11:08:32.999Z</time>
      </trkpt>
      <trkpt lat="47.5061" lon="6.77536">
        <ele>361.2</ele>
        <time>2017-02-26T11:08:33.999Z</time>
      </trkpt>
      <trkpt lat="47.50613" lon="6.77537">
        <ele>361</ele>
        <time>2017-02-26T11:08:34.999Z</time>
      </trkpt>
      <trkpt lat="47.50616" lon="6.77536">
        <ele>360.6</ele>
        <time>2017-02-26T11:08:35.999Z</time>
      </trkpt>
      <trkpt lat="47.50619" lon="6.77536">
        <ele>360.3</ele>
        <time>2017-02-26T11:08:36.999Z</time>
      </trkpt>
      <trkpt lat="47.50623" lon="6.77537">
        <ele>360</ele>
        <time>2017-02-26T11:08:37.999Z</time>
      </trkpt>
      <trkpt lat="47.50627" lon="6.77536">
        <ele>359.6</ele>
        <time>2017-02-26T11:08:38.999Z</time>
      </trkpt>
      <trkpt lat="47.5063" lon="6.77538">
        <ele>359.2</ele>
        <time>2017-02-26T11:08:39.999Z</time>
      </trkpt>
      <trkpt lat="47.50635" lon="6.77538">
        <ele>358.8</ele>
        <time>2017-02-26T11:08:40.999Z</time>
      </trkpt>
      <trkpt lat="47.50641" lon="6.77538">
        <ele>356.8</ele>
        <time>2017-02-26T11:08:41.999Z</time>
      </trkpt>
      <trkpt lat="47.50645" lon="6.77539">
        <ele>356.6</ele>
        <time>2017-02-26T11:08:42.999Z</time>
      </trkpt>
      <trkpt lat="47.50652" lon="6.77538">
        <ele>355.2</ele>
        <time>2017-02-26T11:08:43.999Z</time>
      </trkpt>
      <trkpt lat="47.50657" lon="6.77538">
        <ele>355.1</ele>
        <time>2017-02-26T11:08:44.999Z</time>
      </trkpt>
      <trkpt lat="47.50663" lon="6.77536">
        <ele>355</ele>
        <time>2017-02-26T11:08:45.999Z</time>
      </trkpt>
      <trkpt lat="47.50669" lon="6.77535">
        <ele>353.7</ele>
        <time>2017-02-26T11:08:46.999Z</time>
      </trkpt>
      <trkpt lat="47.50674" lon="6.77534">
        <ele>353.6</ele>
        <time>2017-02-26T11:08:47.999Z</time>
      </trkpt>
      <trkpt lat="47.50679" lon="6.77533">
        <ele>353.5</ele>
        <time>2017-02-26T11:08:48.999Z</time>
      </trkpt>
      <trkpt lat="47.50683" lon="6.77534">
        <ele>353</ele>
        <time>2017-02-26T11:08:49.999Z</time>
      </trkpt>
      <trkpt lat="47.50688" lon="6.77534">
        <ele>352.8</ele>
        <time>2017-02-26T11:08:50.999Z</time>
      </trkpt>
      <trkpt lat="47.50694" lon="6.77534">
        <ele>353.2</ele>
        <time>2017-02-26T11:08:51.999Z</time>
      </trkpt>
      <trkpt lat="47.50699" lon="6.77535">
        <ele>353.5</ele>
        <time>2017-02-26T11:08:52.999Z</time>
      </trkpt>
      <trkpt lat="47.50704" lon="6.77536">
        <ele>353.7</ele>
        <time>2017-02-26T11:08:53.999Z</time>
      </trkpt>
      <trkpt lat="47.5071" lon="6.77537">
        <ele>354</ele>
        <time>2017-02-26T11:08:54.999Z</time>
      </trkpt>
      <trkpt lat="47.50717" lon="6.7754">
        <ele>354.8</ele>
        <time>2017-02-26T11:08:55.999Z</time>
      </trkpt>
      <trkpt lat="47.50722" lon="6.77543">
        <ele>355.4</ele>
        <time>2017-02-26T11:08:56.999Z</time>
      </trkpt>
      <trkpt lat="47.50727" lon="6.77545">
        <ele>355.2</ele>
        <time>2017-02-26T11:08:57.999Z</time>
      </trkpt>
      <trkpt lat="47.50732" lon="6.77548">
        <ele>355.5</ele>
        <time>2017-02-26T11:08:58.999Z</time>
      </trkpt>
      <trkpt lat="47.50736" lon="6.77552">
        <ele>355.5</ele>
        <time>2017-02-26T11:08:59.999Z</time>
      </trkpt>
      <trkpt lat="47.50741" lon="6.77554">
        <ele>355.3</ele>
        <time>2017-02-26T11:09:00.999Z</time>
      </trkpt>
      <trkpt lat="47.50745" lon="6.77558">
        <ele>355.3</ele>
        <time>2017-02-26T11:09:01.999Z</time>
      </trkpt>
      <trkpt lat="47.50749" lon="6.77561">
        <ele>355.4</ele>
        <time>2017-02-26T11:09:02.999Z</time>
      </trkpt>
      <trkpt lat="47.50753" lon="6.77563">
        <ele>355.4</ele>
        <time>2017-02-26T11:09:03.999Z</time>
      </trkpt>
      <trkpt lat="47.50758" lon="6.77567">
        <ele>355.3</ele>
        <time>2017-02-26T11:09:04.999Z</time>
      </trkpt>
      <trkpt lat="47.50763" lon="6.77571">
        <ele>355.1</ele>
        <time>2017-02-26T11:09:05.999Z</time>
      </trkpt>
      <trkpt lat="47.50768" lon="6.77575">
        <ele>355</ele>
        <time>2017-02-26T11:09:06.999Z</time>
      </trkpt>
      <trkpt lat="47.50773" lon="6.77578">
        <ele>355</ele>
        <time>2017-02-26T11:09:07.999Z</time>
      </trkpt>
      <trkpt lat="47.50776" lon="6.77582">
        <ele>355.9</ele>
        <time>2017-02-26T11:09:08.999Z</time>
      </trkpt>
      <trkpt lat="47.5078" lon="6.77585">
        <ele>356</ele>
        <time>2017-02-26T11:09:09.999Z</time>
      </trkpt>
      <trkpt lat="47.50784" lon="6.77588">
        <ele>356.2</ele>
        <time>2017-02-26T11:09:10.999Z</time>
      </trkpt>
      <trkpt lat="47.50789" lon="6.77592">
        <ele>356.2</ele>
        <time>2017-02-26T11:09:11.999Z</time>
      </trkpt>
      <trkpt lat="47.50794" lon="6.77596">
        <ele>355.9</ele>
        <time>2017-02-26T11:09:12.999Z</time>
      </trkpt>
      <trkpt lat="47.50799" lon="6.77601">
        <ele>356.3</ele>
        <time>2017-02-26T11:09:13.999Z</time>
      </trkpt>
      <trkpt lat="47.50801" lon="6.77605">
        <ele>356.3</ele>
        <time>2017-02-26T11:09:14.999Z</time>
      </trkpt>
      <trkpt lat="47.50803" lon="6.77609">
        <ele>356.2</ele>
        <time>2017-02-26T11:09:15.999Z</time>
      </trkpt>
      <trkpt lat="47.50806" lon="6.77613">
        <ele>356.1</ele>
        <time>2017-02-26T11:09:16.999Z</time>
      </trkpt>
      <trkpt lat="47.50809" lon="6.77617">
        <ele>355.9</ele>
        <time>2017-02-26T11:09:17.999Z</time>
      </trkpt>
      <trkpt lat="47.50813" lon="6.7762">
        <ele>355.7</ele>
        <time>2017-02-26T11:09:18.999Z</time>
      </trkpt>
      <trkpt lat="47.50818" lon="6.77622">
        <ele>355.4</ele>
        <time>2017-02-26T11:09:19.999Z</time>
      </trkpt>
      <trkpt lat="47.50824" lon="6.77625">
        <ele>353.7</ele>
        <time>2017-02-26T11:09:20.999Z</time>
      </trkpt>
      <trkpt lat="47.50829" lon="6.77628">
        <ele>352.3</ele>
        <time>2017-02-26T11:09:21.999Z</time>
      </trkpt>
      <trkpt lat="47.50836" lon="6.77632">
        <ele>352.3</ele>
        <time>2017-02-26T11:09:22.999Z</time>
      </trkpt>
      <trkpt lat="47.50841" lon="6.77636">
        <ele>352.4</ele>
        <time>2017-02-26T11:09:23.999Z</time>
      </trkpt>
      <trkpt lat="47.50845" lon="6.7764">
        <ele>352.4</ele>
        <time>2017-02-26T11:09:24.999Z</time>
      </trkpt>
      <trkpt lat="47.50848" lon="6.77644">
        <ele>352.5</ele>
        <time>2017-02-26T11:09:25.999Z</time>
      </trkpt>
      <trkpt lat="47.50852" lon="6.77648">
        <ele>353.5</ele>
        <time>2017-02-26T11:09:26.999Z</time>
      </trkpt>
      <trkpt lat="47.50856" lon="6.77653">
        <ele>354.8</ele>
        <time>2017-02-26T11:09:27.999Z</time>
      </trkpt>
      <trkpt lat="47.50859" lon="6.77658">
        <ele>355</ele>
        <time>2017-02-26T11:09:28.999Z</time>
      </trkpt>
      <trkpt lat="47.50861" lon="6.77663">
        <ele>355.1</ele>
        <time>2017-02-26T11:09:29.999Z</time>
      </trkpt>
      <trkpt lat="47.50864" lon="6.77666">
        <ele>355.2</ele>
        <time>2017-02-26T11:09:30.999Z</time>
      </trkpt>
      <trkpt lat="47.50867" lon="6.77671">
        <ele>355.2</ele>
        <time>2017-02-26T11:09:31.999Z</time>
      </trkpt>
      <trkpt lat="47.50871" lon="6.77676">
        <ele>355.3</ele>
        <time>2017-02-26T11:09:32.999Z</time>
      </trkpt>
      <trkpt lat="47.50874" lon="6.77681">
        <ele>355.4</ele>
        <time>2017-02-26T11:09:33.999Z</time>
      </trkpt>
      <trkpt lat="47.50877" lon="6.77686">
        <ele>355.4</ele>
        <time>2017-02-26T11:09:34.999Z</time>
      </trkpt>
      <trkpt lat="47.5088" lon="6.77691">
        <ele>355.5</ele>
        <time>2017-02-26T11:09:35.999Z</time>
      </trkpt>
      <trkpt lat="47.50883" lon="6.77696">
        <ele>355.6</ele>
        <time>2017-02-26T11:09:36.999Z</time>
      </trkpt>
      <trkpt lat="47.50886" lon="6.77702">
        <ele>355.6</ele>
        <time>2017-02-26T11:09:37.999Z</time>
      </trkpt>
      <trkpt lat="47.50888" lon="6.77704">
        <ele>355.6</ele>
        <time>2017-02-26T11:09:38.999Z</time>
      </trkpt>
      <trkpt lat="47.5089" lon="6.77706">
        <ele>355.7</ele>
        <time>2017-02-26T11:09:39.999Z</time>
      </trkpt>
      <trkpt lat="47.50893" lon="6.77706">
        <ele>355.7</ele>
        <time>2017-02-26T11:09:40.999Z</time>
      </trkpt>
      <trkpt lat="47.50896" lon="6.77705">
        <ele>355.7</ele>
        <time>2017-02-26T11:09:41.999Z</time>
      </trkpt>
      <trkpt lat="47.509" lon="6.77706">
        <ele>355.7</ele>
        <time>2017-02-26T11:09:43.999Z</time>
      </trkpt>
      <trkpt lat="47.50902" lon="6.77706">
        <ele>355.7</ele>
        <time>2017-02-26T11:09:44.999Z</time>
      </trkpt>
      <trkpt lat="47.50906" lon="6.77706">
        <ele>355.8</ele>
        <time>2017-02-26T11:09:45.999Z</time>
      </trkpt>
      <trkpt lat="47.50909" lon="6.77705">
        <ele>355.8</ele>
        <time>2017-02-26T11:09:46.999Z</time>
      </trkpt>
      <trkpt lat="47.50912" lon="6.77704">
        <ele>355.8</ele>
        <time>2017-02-26T11:09:47.999Z</time>
      </trkpt>
      <trkpt lat="47.50915" lon="6.77703">
        <ele>355.9</ele>
        <time>2017-02-26T11:09:48.999Z</time>
      </trkpt>
      <trkpt lat="47.50918" lon="6.77704">
        <ele>356</ele>
        <time>2017-02-26T11:09:49.999Z</time>
      </trkpt>
      <trkpt lat="47.5092" lon="6.77704">
        <ele>356.1</ele>
        <time>2017-02-26T11:09:50.999Z</time>
      </trkpt>
      <trkpt lat="47.50922" lon="6.77706">
        <ele>356.2</ele>
        <time>2017-02-26T11:09:51.999Z</time>
      </trkpt>
      <trkpt lat="47.50924" lon="6.77705">
        <ele>356.3</ele>
        <time>2017-02-26T11:09:52.999Z</time>
      </trkpt>
      <trkpt lat="47.50927" lon="6.77705">
        <ele>356.5</ele>
        <time>2017-02-26T11:09:53.999Z</time>
      </trkpt>
      <trkpt lat="47.50929" lon="6.77705">
        <ele>356.6</ele>
        <time>2017-02-26T11:09:54.999Z</time>
      </trkpt>
      <trkpt lat="47.50933" lon="6.77704">
        <ele>356.8</ele>
        <time>2017-02-26T11:09:56.999Z</time>
      </trkpt>
      <trkpt lat="47.50935" lon="6.77704">
        <ele>357</ele>
        <time>2017-02-26T11:09:57.999Z</time>
      </trkpt>
      <trkpt lat="47.50938" lon="6.77703">
        <ele>357.2</ele>
        <time>2017-02-26T11:09:59.999Z</time>
      </trkpt>
      <trkpt lat="47.5094" lon="6.77702">
        <ele>357.3</ele>
        <time>2017-02-26T11:10:00.999Z</time>
      </trkpt>
      <trkpt lat="47.50945" lon="6.77702">
        <ele>357.6</ele>
        <time>2017-02-26T11:10:03.999Z</time>
      </trkpt>
      <trkpt lat="47.50946" lon="6.77703">
        <ele>357.7</ele>
        <time>2017-02-26T11:10:04.999Z</time>
      </trkpt>
      <trkpt lat="47.5095" lon="6.77702">
        <ele>357.8</ele>
        <time>2017-02-26T11:10:06.999Z</time>
      </trkpt>
      <trkpt lat="47.50953" lon="6.77699">
        <ele>357.8</ele>
        <time>2017-02-26T11:10:07.999Z</time>
      </trkpt>
      <trkpt lat="47.50956" lon="6.77698">
        <ele>357.8</ele>
        <time>2017-02-26T11:10:08.999Z</time>
      </trkpt>
      <trkpt lat="47.5096" lon="6.77697">
        <ele>357.8</ele>
        <time>2017-02-26T11:10:09.999Z</time>
      </trkpt>
      <trkpt lat="47.50962" lon="6.77695">
        <ele>357.9</ele>
        <time>2017-02-26T11:10:10.999Z</time>
      </trkpt>
      <trkpt lat="47.50963" lon="6.77693">
        <ele>357.9</ele>
        <time>2017-02-26T11:10:11.999Z</time>
      </trkpt>
      <trkpt lat="47.50964" lon="6.77694">
        <ele>357.8</ele>
        <time>2017-02-26T11:10:12.999Z</time>
      </trkpt>
      <trkpt lat="47.50967" lon="6.77699">
        <ele>357.9</ele>
        <time>2017-02-26T11:10:13.999Z</time>
      </trkpt>
      <trkpt lat="47.5097" lon="6.77702">
        <ele>358</ele>
        <time>2017-02-26T11:10:14.999Z</time>
      </trkpt>
      <trkpt lat="47.50972" lon="6.77705">
        <ele>358</ele>
        <time>2017-02-26T11:10:15.999Z</time>
      </trkpt>
      <trkpt lat="47.50975" lon="6.77708">
        <ele>358</ele>
        <time>2017-02-26T11:10:16.999Z</time>
      </trkpt>
      <trkpt lat="47.50977" lon="6.7771">
        <ele>358.1</ele>
        <time>2017-02-26T11:10:17.999Z</time>
      </trkpt>
      <trkpt lat="47.5098" lon="6.77713">
        <ele>358.1</ele>
        <time>2017-02-26T11:10:18.999Z</time>
      </trkpt>
      <trkpt lat="47.50983" lon="6.77716">
        <ele>358.1</ele>
        <time>2017-02-26T11:10:19.999Z</time>
      </trkpt>
      <trkpt lat="47.50987" lon="6.77719">
        <ele>358.1</ele>
        <time>2017-02-26T11:10:20.999Z</time>
      </trkpt>
      <trkpt lat="47.5099" lon="6.77721">
        <ele>358.1</ele>
        <time>2017-02-26T11:10:21.999Z</time>
      </trkpt>
      <trkpt lat="47.50994" lon="6.77725">
        <ele>358</ele>
        <time>2017-02-26T11:10:22.999Z</time>
      </trkpt>
      <trkpt lat="47.50996" lon="6.77728">
        <ele>358</ele>
        <time>2017-02-26T11:10:23.999Z</time>
      </trkpt>
      <trkpt lat="47.50999" lon="6.77731">
        <ele>357.8</ele>
        <time>2017-02-26T11:10:24.999Z</time>
      </trkpt>
      <trkpt lat="47.51003" lon="6.77735">
        <ele>357.8</ele>
        <time>2017-02-26T11:10:25.999Z</time>
      </trkpt>
      <trkpt lat="47.51004" lon="6.77737">
        <ele>357.7</ele>
        <time>2017-02-26T11:10:26.999Z</time>
      </trkpt>
      <trkpt lat="47.51007" lon="6.77739">
        <ele>357.6</ele>
        <time>2017-02-26T11:10:27.999Z</time>
      </trkpt>
      <trkpt lat="47.5101" lon="6.77742">
        <ele>357.5</ele>
        <time>2017-02-26T11:10:28.999Z</time>
      </trkpt>
      <trkpt lat="47.51012" lon="6.77745">
        <ele>357.4</ele>
        <time>2017-02-26T11:10:29.999Z</time>
      </trkpt>
      <trkpt lat="47.51015" lon="6.77748">
        <ele>357.3</ele>
        <time>2017-02-26T11:10:30.999Z</time>
      </trkpt>
      <trkpt lat="47.51019" lon="6.7775">
        <ele>357.2</ele>
        <time>2017-02-26T11:10:31.999Z</time>
      </trkpt>
      <trkpt lat="47.51025" lon="6.77752">
        <ele>357.7</ele>
        <time>2017-02-26T11:10:32.999Z</time>
      </trkpt>
      <trkpt lat="47.51028" lon="6.77754">
        <ele>357.7</ele>
        <time>2017-02-26T11:10:33.999Z</time>
      </trkpt>
      <trkpt lat="47.51031" lon="6.77756">
        <ele>357.8</ele>
        <time>2017-02-26T11:10:34.999Z</time>
      </trkpt>
      <trkpt lat="47.51034" lon="6.77759">
        <ele>357.8</ele>
        <time>2017-02-26T11:10:35.999Z</time>
      </trkpt>
      <trkpt lat="47.51037" lon="6.77761">
        <ele>357.9</ele>
        <time>2017-02-26T11:10:36.999Z</time>
      </trkpt>
      <trkpt lat="47.51039" lon="6.77764">
        <ele>357.9</ele>
        <time>2017-02-26T11:10:37.999Z</time>
      </trkpt>
      <trkpt lat="47.51042" lon="6.77767">
        <ele>358</ele>
        <time>2017-02-26T11:10:38.999Z</time>
      </trkpt>
      <trkpt lat="47.51044" lon="6.77769">
        <ele>358</ele>
        <time>2017-02-26T11:10:39.999Z</time>
      </trkpt>
      <trkpt lat="47.51047" lon="6.7777">
        <ele>358.1</ele>
        <time>2017-02-26T11:10:40.999Z</time>
      </trkpt>
      <trkpt lat="47.51049" lon="6.77774">
        <ele>358.3</ele>
        <time>2017-02-26T11:10:43.999Z</time>
      </trkpt>
      <trkpt lat="47.51049" lon="6.77776">
        <ele>358.4</ele>
        <time>2017-02-26T11:10:44.999Z</time>
      </trkpt>
      <trkpt lat="47.51053" lon="6.77776">
        <ele>358.9</ele>
        <time>2017-02-26T11:10:46.999Z</time>
      </trkpt>
      <trkpt lat="47.51056" lon="6.77776">
        <ele>359</ele>
        <time>2017-02-26T11:10:47.999Z</time>
      </trkpt>
      <trkpt lat="47.5106" lon="6.77776">
        <ele>359.4</ele>
        <time>2017-02-26T11:10:49.999Z</time>
      </trkpt>
      <trkpt lat="47.51062" lon="6.77776">
        <ele>359.5</ele>
        <time>2017-02-26T11:10:50.999Z</time>
      </trkpt>
      <trkpt lat="47.51066" lon="6.77774">
        <ele>359.7</ele>
        <time>2017-02-26T11:10:52.999Z</time>
      </trkpt>
      <trkpt lat="47.51069" lon="6.77776">
        <ele>359.9</ele>
        <time>2017-02-26T11:10:53.999Z</time>
      </trkpt>
      <trkpt lat="47.51074" lon="6.77778">
        <ele>359.8</ele>
        <time>2017-02-26T11:10:54.999Z</time>
      </trkpt>
      <trkpt lat="47.51078" lon="6.77778">
        <ele>359.9</ele>
        <time>2017-02-26T11:10:55.999Z</time>
      </trkpt>
      <trkpt lat="47.5108" lon="6.7778">
        <ele>359.9</ele>
        <time>2017-02-26T11:10:56.999Z</time>
      </trkpt>
      <trkpt lat="47.51084" lon="6.77781">
        <ele>360</ele>
        <time>2017-02-26T11:10:57.999Z</time>
      </trkpt>
      <trkpt lat="47.51089" lon="6.77783">
        <ele>360</ele>
        <time>2017-02-26T11:10:58.999Z</time>
      </trkpt>
      <trkpt lat="47.51092" lon="6.77784">
        <ele>359.9</ele>
        <time>2017-02-26T11:10:59.999Z</time>
      </trkpt>
      <trkpt lat="47.51095" lon="6.77785">
        <ele>359.9</ele>
        <time>2017-02-26T11:11:00.999Z</time>
      </trkpt>
      <trkpt lat="47.51097" lon="6.77786">
        <ele>359.8</ele>
        <time>2017-02-26T11:11:01.999Z</time>
      </trkpt>
      <trkpt lat="47.51101" lon="6.77786">
        <ele>359.8</ele>
        <time>2017-02-26T11:11:02.999Z</time>
      </trkpt>
      <trkpt lat="47.51104" lon="6.77787">
        <ele>359.9</ele>
        <time>2017-02-26T11:11:03.999Z</time>
      </trkpt>
      <trkpt lat="47.51108" lon="6.77787">
        <ele>360</ele>
        <time>2017-02-26T11:11:04.999Z</time>
      </trkpt>
      <trkpt lat="47.51112" lon="6.77788">
        <ele>360</ele>
        <time>2017-02-26T11:11:05.999Z</time>
      </trkpt>
      <trkpt lat="47.51116" lon="6.77789">
        <ele>360</ele>
        <time>2017-02-26T11:11:06.999Z</time>
      </trkpt>
      <trkpt lat="47.5112" lon="6.7779">
        <ele>360.1</ele>
        <time>2017-02-26T11:11:07.999Z</time>
      </trkpt>
      <trkpt lat="47.51124" lon="6.7779">
        <ele>360.1</ele>
        <time>2017-02-26T11:11:08.999Z</time>
      </trkpt>
      <trkpt lat="47.51127" lon="6.7779">
        <ele>360.2</ele>
        <time>2017-02-26T11:11:09.999Z</time>
      </trkpt>
      <trkpt lat="47.51129" lon="6.7779">
        <ele>360.2</ele>
        <time>2017-02-26T11:11:10.999Z</time>
      </trkpt>
      <trkpt lat="47.51133" lon="6.77791">
        <ele>360.3</ele>
        <time>2017-02-26T11:11:11.999Z</time>
      </trkpt>
      <trkpt lat="47.51136" lon="6.7779">
        <ele>360.4</ele>
        <time>2017-02-26T11:11:12.999Z</time>
      </trkpt>
      <trkpt lat="47.5114" lon="6.7779">
        <ele>360.4</ele>
        <time>2017-02-26T11:11:13.999Z</time>
      </trkpt>
      <trkpt lat="47.51142" lon="6.7779">
        <ele>360.5</ele>
        <time>2017-02-26T11:11:14.999Z</time>
      </trkpt>
      <trkpt lat="47.51146" lon="6.77789">
        <ele>360.6</ele>
        <time>2017-02-26T11:11:16.999Z</time>
      </trkpt>
      <trkpt lat="47.51148" lon="6.77789">
        <ele>360.6</ele>
        <time>2017-02-26T11:11:17.999Z</time>
      </trkpt>
      <trkpt lat="47.5115" lon="6.77789">
        <ele>360.6</ele>
        <time>2017-02-26T11:11:18.999Z</time>
      </trkpt>
      <trkpt lat="47.51153" lon="6.77789">
        <ele>360.7</ele>
        <time>2017-02-26T11:11:19.999Z</time>
      </trkpt>
      <trkpt lat="47.51155" lon="6.77789">
        <ele>360.8</ele>
        <time>2017-02-26T11:11:20.999Z</time>
      </trkpt>
      <trkpt lat="47.51158" lon="6.77788">
        <ele>360.8</ele>
        <time>2017-02-26T11:11:21.999Z</time>
      </trkpt>
      <trkpt lat="47.51161" lon="6.77789">
        <ele>360.8</ele>
        <time>2017-02-26T11:11:22.999Z</time>
      </trkpt>
      <trkpt lat="47.51163" lon="6.77789">
        <ele>360.9</ele>
        <time>2017-02-26T11:11:23.999Z</time>
      </trkpt>
      <trkpt lat="47.51167" lon="6.77791">
        <ele>360.9</ele>
        <time>2017-02-26T11:11:24.999Z</time>
      </trkpt>
      <trkpt lat="47.51169" lon="6.77792">
        <ele>360.9</ele>
        <time>2017-02-26T11:11:25.999Z</time>
      </trkpt>
      <trkpt lat="47.51173" lon="6.7779">
        <ele>361</ele>
        <time>2017-02-26T11:11:27.999Z</time>
      </trkpt>
      <trkpt lat="47.51175" lon="6.77789">
        <ele>361</ele>
        <time>2017-02-26T11:11:28.999Z</time>
      </trkpt>
      <trkpt lat="47.51178" lon="6.77788">
        <ele>361</ele>
        <time>2017-02-26T11:11:29.999Z</time>
      </trkpt>
      <trkpt lat="47.51181" lon="6.77787">
        <ele>361.1</ele>
        <time>2017-02-26T11:11:30.999Z</time>
      </trkpt>
      <trkpt lat="47.51184" lon="6.77788">
        <ele>361.1</ele>
        <time>2017-02-26T11:11:31.999Z</time>
      </trkpt>
      <trkpt lat="47.51188" lon="6.77789">
        <ele>361.1</ele>
        <time>2017-02-26T11:11:32.999Z</time>
      </trkpt>
      <trkpt lat="47.51191" lon="6.7779">
        <ele>361</ele>
        <time>2017-02-26T11:11:33.999Z</time>
      </trkpt>
      <trkpt lat="47.51194" lon="6.7779">
        <ele>361</ele>
        <time>2017-02-26T11:11:34.999Z</time>
      </trkpt>
      <trkpt lat="47.51197" lon="6.77789">
        <ele>361</ele>
        <time>2017-02-26T11:11:35.999Z</time>
      </trkpt>
      <trkpt lat="47.512" lon="6.77789">
        <ele>361.1</ele>
        <time>2017-02-26T11:11:36.999Z</time>
      </trkpt>
      <trkpt lat="47.51203" lon="6.77788">
        <ele>361.1</ele>
        <time>2017-02-26T11:11:37.999Z</time>
      </trkpt>
      <trkpt lat="47.51206" lon="6.77788">
        <ele>361.1</ele>
        <time>2017-02-26T11:11:38.999Z</time>
      </trkpt>
      <trkpt lat="47.51208" lon="6.77788">
        <ele>361</ele>
        <time>2017-02-26T11:11:39.999Z</time>
      </trkpt>
      <trkpt lat="47.5121" lon="6.77787">
        <ele>360.9</ele>
        <time>2017-02-26T11:11:40.999Z</time>
      </trkpt>
      <trkpt lat="47.51213" lon="6.77786">
        <ele>360.7</ele>
        <time>2017-02-26T11:11:41.999Z</time>
      </trkpt>
      <trkpt lat="47.51215" lon="6.77786">
        <ele>360.6</ele>
        <time>2017-02-26T11:11:42.999Z</time>
      </trkpt>
      <trkpt lat="47.51219" lon="6.77786">
        <ele>360.8</ele>
        <time>2017-02-26T11:11:45.999Z</time>
      </trkpt>
      <trkpt lat="47.5122" lon="6.77786">
        <ele>360.8</ele>
        <time>2017-02-26T11:11:46.999Z</time>
      </trkpt>
      <trkpt lat="47.51222" lon="6.77787">
        <ele>360.9</ele>
        <time>2017-02-26T11:11:47.999Z</time>
      </trkpt>
      <trkpt lat="47.51225" lon="6.77787">
        <ele>361</ele>
        <time>2017-02-26T11:11:48.999Z</time>
      </trkpt>
      <trkpt lat="47.51228" lon="6.77787">
        <ele>361.3</ele>
        <time>2017-02-26T11:11:50.999Z</time>
      </trkpt>
      <trkpt lat="47.51229" lon="6.77787">
        <ele>361.4</ele>
        <time>2017-02-26T11:11:51.999Z</time>
      </trkpt>
      <trkpt lat="47.51233" lon="6.77787">
        <ele>361.6</ele>
        <time>2017-02-26T11:11:53.999Z</time>
      </trkpt>
      <trkpt lat="47.51236" lon="6.77787">
        <ele>361.7</ele>
        <time>2017-02-26T11:11:54.999Z</time>
      </trkpt>
      <trkpt lat="47.5124" lon="6.77786">
        <ele>362.1</ele>
        <time>2017-02-26T11:11:56.999Z</time>
      </trkpt>
      <trkpt lat="47.51241" lon="6.77785">
        <ele>362.2</ele>
        <time>2017-02-26T11:11:57.999Z</time>
      </trkpt>
      <trkpt lat="47.51244" lon="6.77785">
        <ele>362.6</ele>
        <time>2017-02-26T11:11:59.999Z</time>
      </trkpt>
      <trkpt lat="47.51246" lon="6.77786">
        <ele>362.8</ele>
        <time>2017-02-26T11:12:00.999Z</time>
      </trkpt>
      <trkpt lat="47.51251" lon="6.77786">
        <ele>363.2</ele>
        <time>2017-02-26T11:12:02.999Z</time>
      </trkpt>
      <trkpt lat="47.51252" lon="6.77786">
        <ele>363.5</ele>
        <time>2017-02-26T11:12:03.999Z</time>
      </trkpt>
      <trkpt lat="47.51256" lon="6.77784">
        <ele>363.8</ele>
        <time>2017-02-26T11:12:05.999Z</time>
      </trkpt>
      <trkpt lat="47.51257" lon="6.77783">
        <ele>364</ele>
        <time>2017-02-26T11:12:06.999Z</time>
      </trkpt>
      <trkpt lat="47.5126" lon="6.77784">
        <ele>364.2</ele>
        <time>2017-02-26T11:12:08.999Z</time>
      </trkpt>
      <trkpt lat="47.51262" lon="6.77784">
        <ele>364.4</ele>
        <time>2017-02-26T11:12:09.999Z</time>
      </trkpt>
      <trkpt lat="47.51266" lon="6.77785">
        <ele>364.8</ele>
        <time>2017-02-26T11:12:11.999Z</time>
      </trkpt>
      <trkpt lat="47.51268" lon="6.77785">
        <ele>364.9</ele>
        <time>2017-02-26T11:12:12.999Z</time>
      </trkpt>
      <trkpt lat="47.51272" lon="6.77785">
        <ele>365.3</ele>
        <time>2017-02-26T11:12:14.999Z</time>
      </trkpt>
      <trkpt lat="47.51274" lon="6.77785">
        <ele>365.6</ele>
        <time>2017-02-26T11:12:15.999Z</time>
      </trkpt>
      <trkpt lat="47.51277" lon="6.77785">
        <ele>366.1</ele>
        <time>2017-02-26T11:12:17.999Z</time>
      </trkpt>
      <trkpt lat="47.51279" lon="6.77785">
        <ele>366.4</ele>
        <time>2017-02-26T11:12:18.999Z</time>
      </trkpt>
      <trkpt lat="47.51283" lon="6.77785">
        <ele>366.7</ele>
        <time>2017-02-26T11:12:20.999Z</time>
      </trkpt>
      <trkpt lat="47.51284" lon="6.77784">
        <ele>366.8</ele>
        <time>2017-02-26T11:12:21.999Z</time>
      </trkpt>
      <trkpt lat="47.51288" lon="6.77783">
        <ele>366.9</ele>
        <time>2017-02-26T11:12:24.999Z</time>
      </trkpt>
      <trkpt lat="47.51289" lon="6.77783">
        <ele>367</ele>
        <time>2017-02-26T11:12:25.999Z</time>
      </trkpt>
      <trkpt lat="47.51292" lon="6.77783">
        <ele>367.1</ele>
        <time>2017-02-26T11:12:26.999Z</time>
      </trkpt>
      <trkpt lat="47.51294" lon="6.77783">
        <ele>367.2</ele>
        <time>2017-02-26T11:12:27.999Z</time>
      </trkpt>
      <trkpt lat="47.51299" lon="6.77782">
        <ele>367.4</ele>
        <time>2017-02-26T11:12:30.999Z</time>
      </trkpt>
      <trkpt lat="47.513" lon="6.77781">
        <ele>367.4</ele>
        <time>2017-02-26T11:12:31.999Z</time>
      </trkpt>
      <trkpt lat="47.51303" lon="6.77781">
        <ele>367.5</ele>
        <time>2017-02-26T11:12:34.999Z</time>
      </trkpt>
      <trkpt lat="47.51305" lon="6.77781">
        <ele>367.5</ele>
        <time>2017-02-26T11:12:35.999Z</time>
      </trkpt>
      <trkpt lat="47.51309" lon="6.77781">
        <ele>367.4</ele>
        <time>2017-02-26T11:12:38.999Z</time>
      </trkpt>
      <trkpt lat="47.5131" lon="6.7778">
        <ele>367.4</ele>
        <time>2017-02-26T11:12:39.999Z</time>
      </trkpt>
      <trkpt lat="47.51314" lon="6.77779">
        <ele>367.4</ele>
        <time>2017-02-26T11:12:43.999Z</time>
      </trkpt>
      <trkpt lat="47.51316" lon="6.7778">
        <ele>367.5</ele>
        <time>2017-02-26T11:12:44.999Z</time>
      </trkpt>
      <trkpt lat="47.51319" lon="6.77783">
        <ele>367.6</ele>
        <time>2017-02-26T11:12:46.999Z</time>
      </trkpt>
      <trkpt lat="47.51321" lon="6.77784">
        <ele>367.7</ele>
        <time>2017-02-26T11:12:47.999Z</time>
      </trkpt>
      <trkpt lat="47.51324" lon="6.77786">
        <ele>367.9</ele>
        <time>2017-02-26T11:12:49.999Z</time>
      </trkpt>
      <trkpt lat="47.51326" lon="6.77786">
        <ele>367.9</ele>
        <time>2017-02-26T11:12:50.999Z</time>
      </trkpt>
      <trkpt lat="47.5133" lon="6.77787">
        <ele>368.1</ele>
        <time>2017-02-26T11:12:53.999Z</time>
      </trkpt>
      <trkpt lat="47.51332" lon="6.77786">
        <ele>368.3</ele>
        <time>2017-02-26T11:12:54.999Z</time>
      </trkpt>
      <trkpt lat="47.51334" lon="6.77785">
        <ele>368.5</ele>
        <time>2017-02-26T11:12:55.999Z</time>
      </trkpt>
      <trkpt lat="47.51337" lon="6.77784">
        <ele>368.6</ele>
        <time>2017-02-26T11:12:56.999Z</time>
      </trkpt>
      <trkpt lat="47.5134" lon="6.7778">
        <ele>368.8</ele>
        <time>2017-02-26T11:12:58.999Z</time>
      </trkpt>
      <trkpt lat="47.51342" lon="6.77779">
        <ele>368.8</ele>
        <time>2017-02-26T11:12:59.999Z</time>
      </trkpt>
      <trkpt lat="47.51345" lon="6.77778">
        <ele>368.9</ele>
        <time>2017-02-26T11:13:01.999Z</time>
      </trkpt>
      <trkpt lat="47.51347" lon="6.77777">
        <ele>368.9</ele>
        <time>2017-02-26T11:13:02.999Z</time>
      </trkpt>
      <trkpt lat="47.5135" lon="6.77774">
        <ele>368.9</ele>
        <time>2017-02-26T11:13:04.999Z</time>
      </trkpt>
      <trkpt lat="47.51351" lon="6.77772">
        <ele>368.9</ele>
        <time>2017-02-26T11:13:05.999Z</time>
      </trkpt>
      <trkpt lat="47.51355" lon="6.77769">
        <ele>368.9</ele>
        <time>2017-02-26T11:13:08.999Z</time>
      </trkpt>
      <trkpt lat="47.51356" lon="6.77768">
        <ele>368.8</ele>
        <time>2017-02-26T11:13:09.999Z</time>
      </trkpt>
      <trkpt lat="47.51358" lon="6.77768">
        <ele>368.8</ele>
        <time>2017-02-26T11:13:10.999Z</time>
      </trkpt>
      <trkpt lat="47.51361" lon="6.77767">
        <ele>368.9</ele>
        <time>2017-02-26T11:13:11.999Z</time>
      </trkpt>
      <trkpt lat="47.51362" lon="6.77766">
        <ele>369.1</ele>
        <time>2017-02-26T11:13:12.999Z</time>
      </trkpt>
      <trkpt lat="47.51365" lon="6.77763">
        <ele>369.3</ele>
        <time>2017-02-26T11:13:13.999Z</time>
      </trkpt>
      <trkpt lat="47.51369" lon="6.7776">
        <ele>369.7</ele>
        <time>2017-02-26T11:13:14.999Z</time>
      </trkpt>
      <trkpt lat="47.51373" lon="6.77757">
        <ele>370.1</ele>
        <time>2017-02-26T11:13:15.999Z</time>
      </trkpt>
      <trkpt lat="47.51376" lon="6.77755">
        <ele>370.8</ele>
        <time>2017-02-26T11:13:17.999Z</time>
      </trkpt>
      <trkpt lat="47.51379" lon="6.77755">
        <ele>371.2</ele>
        <time>2017-02-26T11:13:18.999Z</time>
      </trkpt>
      <trkpt lat="47.51383" lon="6.77753">
        <ele>371.9</ele>
        <time>2017-02-26T11:13:20.999Z</time>
      </trkpt>
      <trkpt lat="47.51385" lon="6.77752">
        <ele>372.4</ele>
        <time>2017-02-26T11:13:21.999Z</time>
      </trkpt>
      <trkpt lat="47.51389" lon="6.77752">
        <ele>373.2</ele>
        <time>2017-02-26T11:13:23.999Z</time>
      </trkpt>
      <trkpt lat="47.51392" lon="6.77752">
        <ele>373.6</ele>
        <time>2017-02-26T11:13:24.999Z</time>
      </trkpt>
      <trkpt lat="47.51396" lon="6.7775">
        <ele>374.3</ele>
        <time>2017-02-26T11:13:26.999Z</time>
      </trkpt>
      <trkpt lat="47.51397" lon="6.77749">
        <ele>374.7</ele>
        <time>2017-02-26T11:13:27.999Z</time>
      </trkpt>
      <trkpt lat="47.51401" lon="6.77747">
        <ele>375.1</ele>
        <time>2017-02-26T11:13:28.999Z</time>
      </trkpt>
      <trkpt lat="47.51402" lon="6.77746">
        <ele>375.5</ele>
        <time>2017-02-26T11:13:29.999Z</time>
      </trkpt>
      <trkpt lat="47.51406" lon="6.77744">
        <ele>376.9</ele>
        <time>2017-02-26T11:13:33.999Z</time>
      </trkpt>
      <trkpt lat="47.51407" lon="6.77743">
        <ele>377.2</ele>
        <time>2017-02-26T11:13:34.999Z</time>
      </trkpt>
      <trkpt lat="47.5141" lon="6.7774">
        <ele>378.1</ele>
        <time>2017-02-26T11:13:36.999Z</time>
      </trkpt>
      <trkpt lat="47.51411" lon="6.77739">
        <ele>378.5</ele>
        <time>2017-02-26T11:13:37.999Z</time>
      </trkpt>
      <trkpt lat="47.51414" lon="6.77736">
        <ele>379.3</ele>
        <time>2017-02-26T11:13:39.999Z</time>
      </trkpt>
      <trkpt lat="47.51415" lon="6.77736">
        <ele>379.5</ele>
        <time>2017-02-26T11:13:40.999Z</time>
      </trkpt>
      <trkpt lat="47.51418" lon="6.77736">
        <ele>380</ele>
        <time>2017-02-26T11:13:42.999Z</time>
      </trkpt>
      <trkpt lat="47.5142" lon="6.77735">
        <ele>380.1</ele>
        <time>2017-02-26T11:13:43.999Z</time>
      </trkpt>
      <trkpt lat="47.51424" lon="6.77735">
        <ele>380.5</ele>
        <time>2017-02-26T11:13:45.999Z</time>
      </trkpt>
      <trkpt lat="47.51425" lon="6.77734">
        <ele>380.7</ele>
        <time>2017-02-26T11:13:46.999Z</time>
      </trkpt>
      <trkpt lat="47.51428" lon="6.77733">
        <ele>381.6</ele>
        <time>2017-02-26T11:13:51.999Z</time>
      </trkpt>
      <trkpt lat="47.51429" lon="6.77732">
        <ele>381.9</ele>
        <time>2017-02-26T11:13:52.999Z</time>
      </trkpt>
      <trkpt lat="47.51432" lon="6.77732">
        <ele>382.1</ele>
        <time>2017-02-26T11:13:53.999Z</time>
      </trkpt>
      <trkpt lat="47.51434" lon="6.77731">
        <ele>382.3</ele>
        <time>2017-02-26T11:13:54.999Z</time>
      </trkpt>
      <trkpt lat="47.51438" lon="6.77732">
        <ele>382.7</ele>
        <time>2017-02-26T11:13:56.999Z</time>
      </trkpt>
      <trkpt lat="47.51442" lon="6.77733">
        <ele>382.9</ele>
        <time>2017-02-26T11:13:57.999Z</time>
      </trkpt>
      <trkpt lat="47.51444" lon="6.77733">
        <ele>383.1</ele>
        <time>2017-02-26T11:13:58.999Z</time>
      </trkpt>
      <trkpt lat="47.51446" lon="6.77734">
        <ele>383.4</ele>
        <time>2017-02-26T11:13:59.999Z</time>
      </trkpt>
      <trkpt lat="47.5145" lon="6.77736">
        <ele>384.1</ele>
        <time>2017-02-26T11:14:01.999Z</time>
      </trkpt>
      <trkpt lat="47.51453" lon="6.77737">
        <ele>384.4</ele>
        <time>2017-02-26T11:14:02.999Z</time>
      </trkpt>
      <trkpt lat="47.51457" lon="6.77736">
        <ele>385.3</ele>
        <time>2017-02-26T11:14:05.999Z</time>
      </trkpt>
      <trkpt lat="47.51458" lon="6.77736">
        <ele>385.4</ele>
        <time>2017-02-26T11:14:06.999Z</time>
      </trkpt>
      <trkpt lat="47.51461" lon="6.77735">
        <ele>385.6</ele>
        <time>2017-02-26T11:14:08.999Z</time>
      </trkpt>
      <trkpt lat="47.51463" lon="6.77734">
        <ele>385.8</ele>
        <time>2017-02-26T11:14:09.999Z</time>
      </trkpt>
      <trkpt lat="47.51467" lon="6.77732">
        <ele>386.6</ele>
        <time>2017-02-26T11:14:12.999Z</time>
      </trkpt>
      <trkpt lat="47.51469" lon="6.77731">
        <ele>387</ele>
        <time>2017-02-26T11:14:13.999Z</time>
      </trkpt>
      <trkpt lat="47.51473" lon="6.77729">
        <ele>387.6</ele>
        <time>2017-02-26T11:14:15.999Z</time>
      </trkpt>
      <trkpt lat="47.51474" lon="6.77728">
        <ele>387.9</ele>
        <time>2017-02-26T11:14:16.999Z</time>
      </trkpt>
      <trkpt lat="47.51478" lon="6.77728">
        <ele>388.5</ele>
        <time>2017-02-26T11:14:18.999Z</time>
      </trkpt>
      <trkpt lat="47.5148" lon="6.77728">
        <ele>388.9</ele>
        <time>2017-02-26T11:14:19.999Z</time>
      </trkpt>
      <trkpt lat="47.51483" lon="6.7773">
        <ele>389.6</ele>
        <time>2017-02-26T11:14:21.999Z</time>
      </trkpt>
      <trkpt lat="47.51485" lon="6.77731">
        <ele>389.9</ele>
        <time>2017-02-26T11:14:22.999Z</time>
      </trkpt>
      <trkpt lat="47.51487" lon="6.77731">
        <ele>390.6</ele>
        <time>2017-02-26T11:14:24.999Z</time>
      </trkpt>
      <trkpt lat="47.5149" lon="6.77732">
        <ele>390.9</ele>
        <time>2017-02-26T11:14:25.999Z</time>
      </trkpt>
      <trkpt lat="47.51493" lon="6.77731">
        <ele>391.2</ele>
        <time>2017-02-26T11:14:26.999Z</time>
      </trkpt>
      <trkpt lat="47.51495" lon="6.7773">
        <ele>391.4</ele>
        <time>2017-02-26T11:14:27.999Z</time>
      </trkpt>
      <trkpt lat="47.51499" lon="6.77727">
        <ele>391.9</ele>
        <time>2017-02-26T11:14:29.999Z</time>
      </trkpt>
      <trkpt lat="47.515" lon="6.77726">
        <ele>392.2</ele>
        <time>2017-02-26T11:14:30.999Z</time>
      </trkpt>
      <trkpt lat="47.51504" lon="6.77726">
        <ele>392.9</ele>
        <time>2017-02-26T11:14:33.999Z</time>
      </trkpt>
      <trkpt lat="47.51506" lon="6.77726">
        <ele>393</ele>
        <time>2017-02-26T11:14:34.999Z</time>
      </trkpt>
      <trkpt lat="47.51508" lon="6.77726">
        <ele>393.2</ele>
        <time>2017-02-26T11:14:35.999Z</time>
      </trkpt>
      <trkpt lat="47.5151" lon="6.77726">
        <ele>393.3</ele>
        <time>2017-02-26T11:14:36.999Z</time>
      </trkpt>
      <trkpt lat="47.51513" lon="6.77724">
        <ele>393.6</ele>
        <time>2017-02-26T11:14:38.999Z</time>
      </trkpt>
      <trkpt lat="47.51514" lon="6.77724">
        <ele>393.7</ele>
        <time>2017-02-26T11:14:39.999Z</time>
      </trkpt>
      <trkpt lat="47.51517" lon="6.7772">
        <ele>394.1</ele>
        <time>2017-02-26T11:14:44.999Z</time>
      </trkpt>
      <trkpt lat="47.51518" lon="6.77719">
        <ele>394.2</ele>
        <time>2017-02-26T11:14:45.999Z</time>
      </trkpt>
      <trkpt lat="47.5152" lon="6.7772">
        <ele>394.3</ele>
        <time>2017-02-26T11:14:46.999Z</time>
      </trkpt>
      <trkpt lat="47.51522" lon="6.77721">
        <ele>394.4</ele>
        <time>2017-02-26T11:14:47.999Z</time>
      </trkpt>
      <trkpt lat="47.51525" lon="6.77722">
        <ele>394.6</ele>
        <time>2017-02-26T11:14:48.999Z</time>
      </trkpt>
      <trkpt lat="47.51527" lon="6.77722">
        <ele>394.8</ele>
        <time>2017-02-26T11:14:49.999Z</time>
      </trkpt>
      <trkpt lat="47.51531" lon="6.77719">
        <ele>395.2</ele>
        <time>2017-02-26T11:14:51.999Z</time>
      </trkpt>
      <trkpt lat="47.51533" lon="6.77719">
        <ele>395.5</ele>
        <time>2017-02-26T11:14:52.999Z</time>
      </trkpt>
      <trkpt lat="47.51537" lon="6.77721">
        <ele>396.3</ele>
        <time>2017-02-26T11:14:55.999Z</time>
      </trkpt>
      <trkpt lat="47.51539" lon="6.77722">
        <ele>396.5</ele>
        <time>2017-02-26T11:14:56.999Z</time>
      </trkpt>
      <trkpt lat="47.5154" lon="6.77722">
        <ele>396.7</ele>
        <time>2017-02-26T11:14:57.999Z</time>
      </trkpt>
      <trkpt lat="47.51543" lon="6.77721">
        <ele>397</ele>
        <time>2017-02-26T11:14:58.999Z</time>
      </trkpt>
      <trkpt lat="47.51547" lon="6.77722">
        <ele>397.6</ele>
        <time>2017-02-26T11:15:01.999Z</time>
      </trkpt>
      <trkpt lat="47.51548" lon="6.77722">
        <ele>397.7</ele>
        <time>2017-02-26T11:15:02.999Z</time>
      </trkpt>
      <trkpt lat="47.51551" lon="6.77724">
        <ele>397.8</ele>
        <time>2017-02-26T11:15:04.999Z</time>
      </trkpt>
      <trkpt lat="47.51553" lon="6.77725">
        <ele>397.8</ele>
        <time>2017-02-26T11:15:05.999Z</time>
      </trkpt>
      <trkpt lat="47.51556" lon="6.77727">
        <ele>397.9</ele>
        <time>2017-02-26T11:15:06.999Z</time>
      </trkpt>
      <trkpt lat="47.51559" lon="6.77728">
        <ele>398</ele>
        <time>2017-02-26T11:15:07.999Z</time>
      </trkpt>
      <trkpt lat="47.51563" lon="6.77728">
        <ele>398.7</ele>
        <time>2017-02-26T11:15:10.999Z</time>
      </trkpt>
      <trkpt lat="47.51564" lon="6.77728">
        <ele>399</ele>
        <time>2017-02-26T11:15:11.999Z</time>
      </trkpt>
      <trkpt lat="47.51568" lon="6.77731">
        <ele>399.4</ele>
        <time>2017-02-26T11:15:14.999Z</time>
      </trkpt>
      <trkpt lat="47.51569" lon="6.77732">
        <ele>399.4</ele>
        <time>2017-02-26T11:15:15.999Z</time>
      </trkpt>
      <trkpt lat="47.51573" lon="6.77733">
        <ele>399.5</ele>
        <time>2017-02-26T11:15:17.999Z</time>
      </trkpt>
      <trkpt lat="47.51574" lon="6.77734">
        <ele>399.6</ele>
        <time>2017-02-26T11:15:18.999Z</time>
      </trkpt>
      <trkpt lat="47.51578" lon="6.77734">
        <ele>399.9</ele>
        <time>2017-02-26T11:15:21.999Z</time>
      </trkpt>
      <trkpt lat="47.5158" lon="6.77735">
        <ele>400</ele>
        <time>2017-02-26T11:15:22.999Z</time>
      </trkpt>
      <trkpt lat="47.51584" lon="6.77737">
        <ele>400.6</ele>
        <time>2017-02-26T11:15:25.999Z</time>
      </trkpt>
      <trkpt lat="47.51585" lon="6.77736">
        <ele>400.8</ele>
        <time>2017-02-26T11:15:26.999Z</time>
      </trkpt>
      <trkpt lat="47.51588" lon="6.77736">
        <ele>401.4</ele>
        <time>2017-02-26T11:15:28.999Z</time>
      </trkpt>
      <trkpt lat="47.5159" lon="6.77737">
        <ele>401.8</ele>
        <time>2017-02-26T11:15:29.999Z</time>
      </trkpt>
      <trkpt lat="47.51593" lon="6.7774">
        <ele>402.7</ele>
        <time>2017-02-26T11:15:31.999Z</time>
      </trkpt>
      <trkpt lat="47.51595" lon="6.77743">
        <ele>403.2</ele>
        <time>2017-02-26T11:15:32.999Z</time>
      </trkpt>
      <trkpt lat="47.51597" lon="6.77747">
        <ele>403.6</ele>
        <time>2017-02-26T11:15:33.999Z</time>
      </trkpt>
      <trkpt lat="47.516" lon="6.77751">
        <ele>404.1</ele>
        <time>2017-02-26T11:15:34.999Z</time>
      </trkpt>
      <trkpt lat="47.51602" lon="6.77754">
        <ele>404.5</ele>
        <time>2017-02-26T11:15:35.999Z</time>
      </trkpt>
      <trkpt lat="47.51604" lon="6.77756">
        <ele>404.8</ele>
        <time>2017-02-26T11:15:36.999Z</time>
      </trkpt>
      <trkpt lat="47.51607" lon="6.77756">
        <ele>405.3</ele>
        <time>2017-02-26T11:15:38.999Z</time>
      </trkpt>
      <trkpt lat="47.51609" lon="6.77756">
        <ele>405.7</ele>
        <time>2017-02-26T11:15:39.999Z</time>
      </trkpt>
      <trkpt lat="47.51612" lon="6.77756">
        <ele>406.1</ele>
        <time>2017-02-26T11:15:42.999Z</time>
      </trkpt>
      <trkpt lat="47.51614" lon="6.77755">
        <ele>406.2</ele>
        <time>2017-02-26T11:15:43.999Z</time>
      </trkpt>
      <trkpt lat="47.51617" lon="6.77755">
        <ele>406.7</ele>
        <time>2017-02-26T11:15:45.999Z</time>
      </trkpt>
      <trkpt lat="47.51619" lon="6.77755">
        <ele>407</ele>
        <time>2017-02-26T11:15:46.999Z</time>
      </trkpt>
      <trkpt lat="47.51624" lon="6.77755">
        <ele>408.2</ele>
        <time>2017-02-26T11:15:50.999Z</time>
      </trkpt>
      <trkpt lat="47.51625" lon="6.77755">
        <ele>408.5</ele>
        <time>2017-02-26T11:15:51.999Z</time>
      </trkpt>
      <trkpt lat="47.51628" lon="6.77755">
        <ele>408.8</ele>
        <time>2017-02-26T11:15:52.999Z</time>
      </trkpt>
      <trkpt lat="47.5163" lon="6.77754">
        <ele>409.2</ele>
        <time>2017-02-26T11:15:53.999Z</time>
      </trkpt>
      <trkpt lat="47.51633" lon="6.77754">
        <ele>410.4</ele>
        <time>2017-02-26T11:15:57.999Z</time>
      </trkpt>
      <trkpt lat="47.51642" lon="6.77756">
        <ele>410.6</ele>
        <time>2017-02-26T11:15:58.999Z</time>
      </trkpt>
      <trkpt lat="47.51648" lon="6.77758">
        <ele>410.8</ele>
        <time>2017-02-26T11:15:59.999Z</time>
      </trkpt>
      <trkpt lat="47.51652" lon="6.77759">
        <ele>411.1</ele>
        <time>2017-02-26T11:16:00.999Z</time>
      </trkpt>
      <trkpt lat="47.51655" lon="6.77758">
        <ele>411.3</ele>
        <time>2017-02-26T11:16:01.999Z</time>
      </trkpt>
      <trkpt lat="47.51659" lon="6.77757">
        <ele>411.8</ele>
        <time>2017-02-26T11:16:03.999Z</time>
      </trkpt>
      <trkpt lat="47.5166" lon="6.77758">
        <ele>411.9</ele>
        <time>2017-02-26T11:16:04.999Z</time>
      </trkpt>
      <trkpt lat="47.51664" lon="6.77758">
        <ele>412.4</ele>
        <time>2017-02-26T11:16:07.999Z</time>
      </trkpt>
      <trkpt lat="47.51665" lon="6.77758">
        <ele>412.5</ele>
        <time>2017-02-26T11:16:08.999Z</time>
      </trkpt>
      <trkpt lat="47.51669" lon="6.77758">
        <ele>412.6</ele>
        <time>2017-02-26T11:16:11.999Z</time>
      </trkpt>
      <trkpt lat="47.51671" lon="6.77758">
        <ele>412.7</ele>
        <time>2017-02-26T11:16:12.999Z</time>
      </trkpt>
      <trkpt lat="47.51675" lon="6.77758">
        <ele>413.1</ele>
        <time>2017-02-26T11:16:16.999Z</time>
      </trkpt>
      <trkpt lat="47.51677" lon="6.77757">
        <ele>413.2</ele>
        <time>2017-02-26T11:16:17.999Z</time>
      </trkpt>
      <trkpt lat="47.51681" lon="6.77758">
        <ele>413.5</ele>
        <time>2017-02-26T11:16:19.999Z</time>
      </trkpt>
      <trkpt lat="47.51685" lon="6.77758">
        <ele>413.7</ele>
        <time>2017-02-26T11:16:20.999Z</time>
      </trkpt>
      <trkpt lat="47.51689" lon="6.77758">
        <ele>414</ele>
        <time>2017-02-26T11:16:21.999Z</time>
      </trkpt>
      <trkpt lat="47.5169" lon="6.77759">
        <ele>414.3</ele>
        <time>2017-02-26T11:16:22.999Z</time>
      </trkpt>
      <trkpt lat="47.51693" lon="6.77757">
        <ele>414.7</ele>
        <time>2017-02-26T11:16:24.999Z</time>
      </trkpt>
      <trkpt lat="47.51695" lon="6.77755">
        <ele>414.9</ele>
        <time>2017-02-26T11:16:25.999Z</time>
      </trkpt>
      <trkpt lat="47.51697" lon="6.77753">
        <ele>415.1</ele>
        <time>2017-02-26T11:16:26.999Z</time>
      </trkpt>
      <trkpt lat="47.51699" lon="6.7775">
        <ele>415.2</ele>
        <time>2017-02-26T11:16:27.999Z</time>
      </trkpt>
      <trkpt lat="47.517" lon="6.77746">
        <ele>415.5</ele>
        <time>2017-02-26T11:16:29.999Z</time>
      </trkpt>
      <trkpt lat="47.51702" lon="6.77743">
        <ele>415.5</ele>
        <time>2017-02-26T11:16:30.999Z</time>
      </trkpt>
      <trkpt lat="47.51702" lon="6.77738">
        <ele>415.7</ele>
        <time>2017-02-26T11:16:32.999Z</time>
      </trkpt>
      <trkpt lat="47.51701" lon="6.77734">
        <ele>415.8</ele>
        <time>2017-02-26T11:16:33.999Z</time>
      </trkpt>
      <trkpt lat="47.51699" lon="6.77728">
        <ele>415.9</ele>
        <time>2017-02-26T11:16:35.999Z</time>
      </trkpt>
      <trkpt lat="47.51698" lon="6.77725">
        <ele>415.8</ele>
        <time>2017-02-26T11:16:36.999Z</time>
      </trkpt>
      <trkpt lat="47.51698" lon="6.77722">
        <ele>415.8</ele>
        <time>2017-02-26T11:16:37.999Z</time>
      </trkpt>
      <trkpt lat="47.51697" lon="6.77718">
        <ele>415.7</ele>
        <time>2017-02-26T11:16:38.999Z</time>
      </trkpt>
      <trkpt lat="47.51696" lon="6.77713">
        <ele>415.8</ele>
        <time>2017-02-26T11:16:40.999Z</time>
      </trkpt>
      <trkpt lat="47.51696" lon="6.7771">
        <ele>415.9</ele>
        <time>2017-02-26T11:16:41.999Z</time>
      </trkpt>
      <trkpt lat="47.51697" lon="6.77703">
        <ele>415.8</ele>
        <time>2017-02-26T11:16:44.999Z</time>
      </trkpt>
      <trkpt lat="47.51696" lon="6.777">
        <ele>415.7</ele>
        <time>2017-02-26T11:16:45.999Z</time>
      </trkpt>
      <trkpt lat="47.51693" lon="6.77695">
        <ele>415.5</ele>
        <time>2017-02-26T11:16:47.999Z</time>
      </trkpt>
      <trkpt lat="47.51692" lon="6.77693">
        <ele>415.5</ele>
        <time>2017-02-26T11:16:48.999Z</time>
      </trkpt>
      <trkpt lat="47.51694" lon="6.77688">
        <ele>415.5</ele>
        <time>2017-02-26T11:16:51.999Z</time>
      </trkpt>
      <trkpt lat="47.51695" lon="6.77686">
        <ele>415.5</ele>
        <time>2017-02-26T11:16:52.999Z</time>
      </trkpt>
      <trkpt lat="47.51697" lon="6.77684">
        <ele>415.5</ele>
        <time>2017-02-26T11:16:54.999Z</time>
      </trkpt>
      <trkpt lat="47.51698" lon="6.77679">
        <ele>415.5</ele>
        <time>2017-02-26T11:16:55.999Z</time>
      </trkpt>
      <trkpt lat="47.51699" lon="6.77676">
        <ele>415.5</ele>
        <time>2017-02-26T11:16:56.999Z</time>
      </trkpt>
      <trkpt lat="47.51699" lon="6.77671">
        <ele>415.6</ele>
        <time>2017-02-26T11:16:57.999Z</time>
      </trkpt>
      <trkpt lat="47.51698" lon="6.77667">
        <ele>415.7</ele>
        <time>2017-02-26T11:16:58.999Z</time>
      </trkpt>
      <trkpt lat="47.51699" lon="6.77663">
        <ele>415.8</ele>
        <time>2017-02-26T11:16:59.999Z</time>
      </trkpt>
      <trkpt lat="47.51699" lon="6.77659">
        <ele>415.9</ele>
        <time>2017-02-26T11:17:00.999Z</time>
      </trkpt>
      <trkpt lat="47.51699" lon="6.77655">
        <ele>416.1</ele>
        <time>2017-02-26T11:17:01.999Z</time>
      </trkpt>
      <trkpt lat="47.51699" lon="6.77649">
        <ele>416.4</ele>
        <time>2017-02-26T11:17:03.999Z</time>
      </trkpt>
      <trkpt lat="47.51699" lon="6.77648">
        <ele>416.4</ele>
        <time>2017-02-26T11:17:04.999Z</time>
      </trkpt>
      <trkpt lat="47.51699" lon="6.77643">
        <ele>416.5</ele>
        <time>2017-02-26T11:17:06.999Z</time>
      </trkpt>
      <trkpt lat="47.517" lon="6.7764">
        <ele>416.6</ele>
        <time>2017-02-26T11:17:07.999Z</time>
      </trkpt>
      <trkpt lat="47.51701" lon="6.77634">
        <ele>416.7</ele>
        <time>2017-02-26T11:17:09.999Z</time>
      </trkpt>
      <trkpt lat="47.517" lon="6.77631">
        <ele>416.7</ele>
        <time>2017-02-26T11:17:10.999Z</time>
      </trkpt>
      <trkpt lat="47.51701" lon="6.77625">
        <ele>416.7</ele>
        <time>2017-02-26T11:17:12.999Z</time>
      </trkpt>
      <trkpt lat="47.51701" lon="6.77621">
        <ele>416.8</ele>
        <time>2017-02-26T11:17:13.999Z</time>
      </trkpt>
      <trkpt lat="47.51701" lon="6.77615">
        <ele>416.9</ele>
        <time>2017-02-26T11:17:15.999Z</time>
      </trkpt>
      <trkpt lat="47.51701" lon="6.77609">
        <ele>417</ele>
        <time>2017-02-26T11:17:16.999Z</time>
      </trkpt>
      <trkpt lat="47.51702" lon="6.77603">
        <ele>417.3</ele>
        <time>2017-02-26T11:17:18.999Z</time>
      </trkpt>
      <trkpt lat="47.51702" lon="6.776">
        <ele>417.4</ele>
        <time>2017-02-26T11:17:19.999Z</time>
      </trkpt>
      <trkpt lat="47.51703" lon="6.77597">
        <ele>417.5</ele>
        <time>2017-02-26T11:17:20.999Z</time>
      </trkpt>
      <trkpt lat="47.51705" lon="6.77594">
        <ele>417.7</ele>
        <time>2017-02-26T11:17:21.999Z</time>
      </trkpt>
      <trkpt lat="47.51707" lon="6.77592">
        <ele>417.7</ele>
        <time>2017-02-26T11:17:22.999Z</time>
      </trkpt>
      <trkpt lat="47.51709" lon="6.77591">
        <ele>417.9</ele>
        <time>2017-02-26T11:17:23.999Z</time>
      </trkpt>
      <trkpt lat="47.51711" lon="6.7759">
        <ele>418.2</ele>
        <time>2017-02-26T11:17:25.999Z</time>
      </trkpt>
      <trkpt lat="47.51712" lon="6.77588">
        <ele>418.3</ele>
        <time>2017-02-26T11:17:26.999Z</time>
      </trkpt>
      <trkpt lat="47.51713" lon="6.77584">
        <ele>418.4</ele>
        <time>2017-02-26T11:17:27.999Z</time>
      </trkpt>
      <trkpt lat="47.51712" lon="6.77579">
        <ele>418.6</ele>
        <time>2017-02-26T11:17:28.999Z</time>
      </trkpt>
      <trkpt lat="47.51711" lon="6.77574">
        <ele>418.8</ele>
        <time>2017-02-26T11:17:29.999Z</time>
      </trkpt>
      <trkpt lat="47.5171" lon="6.77568">
        <ele>419</ele>
        <time>2017-02-26T11:17:30.999Z</time>
      </trkpt>
      <trkpt lat="47.51709" lon="6.77563">
        <ele>419.2</ele>
        <time>2017-02-26T11:17:31.999Z</time>
      </trkpt>
      <trkpt lat="47.5171" lon="6.77558">
        <ele>419.4</ele>
        <time>2017-02-26T11:17:32.999Z</time>
      </trkpt>
      <trkpt lat="47.51711" lon="6.77555">
        <ele>419.6</ele>
        <time>2017-02-26T11:17:33.999Z</time>
      </trkpt>
      <trkpt lat="47.51712" lon="6.7755">
        <ele>419.8</ele>
        <time>2017-02-26T11:17:34.999Z</time>
      </trkpt>
      <trkpt lat="47.51713" lon="6.77545">
        <ele>421.7</ele>
        <time>2017-02-26T11:17:35.999Z</time>
      </trkpt>
      <trkpt lat="47.51714" lon="6.77539">
        <ele>423.2</ele>
        <time>2017-02-26T11:17:36.999Z</time>
      </trkpt>
      <trkpt lat="47.51715" lon="6.77533">
        <ele>423.9</ele>
        <time>2017-02-26T11:17:37.999Z</time>
      </trkpt>
      <trkpt lat="47.51716" lon="6.77527">
        <ele>424.6</ele>
        <time>2017-02-26T11:17:38.999Z</time>
      </trkpt>
      <trkpt lat="47.51718" lon="6.77521">
        <ele>425</ele>
        <time>2017-02-26T11:17:39.999Z</time>
      </trkpt>
      <trkpt lat="47.51719" lon="6.77514">
        <ele>425.5</ele>
        <time>2017-02-26T11:17:40.999Z</time>
      </trkpt>
      <trkpt lat="47.5172" lon="6.77507">
        <ele>425.6</ele>
        <time>2017-02-26T11:17:41.999Z</time>
      </trkpt>
      <trkpt lat="47.51722" lon="6.77499">
        <ele>425.3</ele>
        <time>2017-02-26T11:17:42.999Z</time>
      </trkpt>
      <trkpt lat="47.51723" lon="6.77493">
        <ele>425.7</ele>
        <time>2017-02-26T11:17:43.999Z</time>
      </trkpt>
      <trkpt lat="47.51726" lon="6.77487">
        <ele>425.9</ele>
        <time>2017-02-26T11:17:44.999Z</time>
      </trkpt>
      <trkpt lat="47.51732" lon="6.77485">
        <ele>426.6</ele>
        <time>2017-02-26T11:17:45.999Z</time>
      </trkpt>
      <trkpt lat="47.51737" lon="6.77486">
        <ele>426.8</ele>
        <time>2017-02-26T11:17:46.999Z</time>
      </trkpt>
      <trkpt lat="47.51741" lon="6.77487">
        <ele>428.4</ele>
        <time>2017-02-26T11:17:47.999Z</time>
      </trkpt>
      <trkpt lat="47.51746" lon="6.77487">
        <ele>428.5</ele>
        <time>2017-02-26T11:17:48.999Z</time>
      </trkpt>
      <trkpt lat="47.5175" lon="6.77488">
        <ele>428.7</ele>
        <time>2017-02-26T11:17:49.999Z</time>
      </trkpt>
      <trkpt lat="47.51754" lon="6.77489">
        <ele>428.9</ele>
        <time>2017-02-26T11:17:50.999Z</time>
      </trkpt>
      <trkpt lat="47.51758" lon="6.7749">
        <ele>429.1</ele>
        <time>2017-02-26T11:17:51.999Z</time>
      </trkpt>
      <trkpt lat="47.51762" lon="6.77489">
        <ele>429.3</ele>
        <time>2017-02-26T11:17:52.999Z</time>
      </trkpt>
      <trkpt lat="47.51765" lon="6.77489">
        <ele>429.5</ele>
        <time>2017-02-26T11:17:53.999Z</time>
      </trkpt>
      <trkpt lat="47.51768" lon="6.77489">
        <ele>429.7</ele>
        <time>2017-02-26T11:17:54.999Z</time>
      </trkpt>
      <trkpt lat="47.51771" lon="6.77489">
        <ele>430</ele>
        <time>2017-02-26T11:17:55.999Z</time>
      </trkpt>
      <trkpt lat="47.51774" lon="6.77491">
        <ele>430.2</ele>
        <time>2017-02-26T11:17:56.999Z</time>
      </trkpt>
      <trkpt lat="47.51778" lon="6.77493">
        <ele>430.4</ele>
        <time>2017-02-26T11:17:57.999Z</time>
      </trkpt>
      <trkpt lat="47.51781" lon="6.77494">
        <ele>430.6</ele>
        <time>2017-02-26T11:17:58.999Z</time>
      </trkpt>
      <trkpt lat="47.51785" lon="6.77497">
        <ele>430.8</ele>
        <time>2017-02-26T11:17:59.999Z</time>
      </trkpt>
      <trkpt lat="47.51788" lon="6.775">
        <ele>431</ele>
        <time>2017-02-26T11:18:00.999Z</time>
      </trkpt>
      <trkpt lat="47.51792" lon="6.77502">
        <ele>432.2</ele>
        <time>2017-02-26T11:18:01.999Z</time>
      </trkpt>
      <trkpt lat="47.51797" lon="6.77504">
        <ele>432.3</ele>
        <time>2017-02-26T11:18:02.999Z</time>
      </trkpt>
      <trkpt lat="47.51802" lon="6.77504">
        <ele>432.9</ele>
        <time>2017-02-26T11:18:03.999Z</time>
      </trkpt>
      <trkpt lat="47.51806" lon="6.77499">
        <ele>432.6</ele>
        <time>2017-02-26T11:18:04.999Z</time>
      </trkpt>
      <trkpt lat="47.51808" lon="6.7749">
        <ele>432.6</ele>
        <time>2017-02-26T11:18:05.999Z</time>
      </trkpt>
      <trkpt lat="47.5181" lon="6.77481">
        <ele>432.5</ele>
        <time>2017-02-26T11:18:06.999Z</time>
      </trkpt>
      <trkpt lat="47.5181" lon="6.77474">
        <ele>432.6</ele>
        <time>2017-02-26T11:18:07.999Z</time>
      </trkpt>
      <trkpt lat="47.51807" lon="6.77476">
        <ele>432.7</ele>
        <time>2017-02-26T11:18:11.999Z</time>
      </trkpt>
      <trkpt lat="47.51806" lon="6.77479">
        <ele>432.8</ele>
        <time>2017-02-26T11:18:12.999Z</time>
      </trkpt>
      <trkpt lat="47.51805" lon="6.77473">
        <ele>434.3</ele>
        <time>2017-02-26T11:19:20.999Z</time>
      </trkpt>
      <trkpt lat="47.51806" lon="6.77472">
        <ele>434.2</ele>
        <time>2017-02-26T11:19:21.999Z</time>
      </trkpt>
      <trkpt lat="47.51807" lon="6.77478">
        <ele>436.5</ele>
        <time>2017-02-26T11:20:14.999Z</time>
      </trkpt>
      <trkpt lat="47.51806" lon="6.77479">
        <ele>436.7</ele>
        <time>2017-02-26T11:20:15.999Z</time>
      </trkpt>
      <trkpt lat="47.51803" lon="6.77482">
        <ele>436</ele>
        <time>2017-02-26T11:20:56.999Z</time>
      </trkpt>
      <trkpt lat="47.51802" lon="6.77483">
        <ele>435.9</ele>
        <time>2017-02-26T11:20:57.999Z</time>
      </trkpt>
      <trkpt lat="47.51802" lon="6.77483">
        <ele>435.4</ele>
        <time>2017-02-26T11:21:16.999Z</time>
      </trkpt>
    </trkseg>
  </trk>
</gpx>